<?xml version='1.0' encoding='UTF-8'?><gpx version="1.1" creator="JPX - https://github.com/jenetics/jpx" xmlns="http://www.topografix.com/GPX/1/1"><trk><trkseg><trkpt lat="37.1612633" lon="14.749295"><ele>581.0</ele><time>2026-03-29T08:14:56.077Z</time></trkpt><trkpt lat="37.161175" lon="14.749255"><ele>581.0</ele><time>2026-03-29T08:15:00.342Z</time></trkpt><trkpt lat="37.1612533" lon="14.7492767"><ele>581.0</ele><time>2026-03-29T08:15:03.343Z</time></trkpt><trkpt lat="37.16132" lon="14.7492667"><ele>581.0</ele><time>2026-03-29T08:15:08.343Z</time></trkpt><trkpt lat="37.16143" lon="14.7491983"><ele>581.0</ele><time>2026-03-29T08:15:59.343Z</time></trkpt><trkpt lat="37.1613617" lon="14.749155"><ele>581.0</ele><time>2026-03-29T08:16:36.343Z</time></trkpt><trkpt lat="37.161335" lon="14.7490733"><ele>581.0</ele><time>2026-03-29T08:20:49.342Z</time></trkpt><trkpt lat="37.1612917" lon="14.7489917"><ele>581.0</ele><time>2026-03-29T08:20:53.342Z</time></trkpt><trkpt lat="37.1613483" lon="14.749035"><ele>581.0</ele><time>2026-03-29T08:21:04.343Z</time></trkpt><trkpt lat="37.1613983" lon="14.7491017"><ele>581.0</ele><time>2026-03-29T08:21:06.342Z</time></trkpt><trkpt lat="37.1614583" lon="14.749185"><ele>581.0</ele><time>2026-03-29T08:21:08.342Z</time></trkpt><trkpt lat="37.1615117" lon="14.7492883"><ele>581.0</ele><time>2026-03-29T08:21:10.343Z</time></trkpt><trkpt lat="37.1615617" lon="14.7494067"><ele>583.5</ele><time>2026-03-29T08:21:12.342Z</time></trkpt><trkpt lat="37.1616317" lon="14.749545"><ele>586.0</ele><time>2026-03-29T08:21:14.342Z</time></trkpt><trkpt lat="37.1616617" lon="14.7496317"><ele>588.5</ele><time>2026-03-29T08:21:15.342Z</time></trkpt><trkpt lat="37.1616983" lon="14.7497217"><ele>591.0</ele><time>2026-03-29T08:21:16.343Z</time></trkpt><trkpt lat="37.1617383" lon="14.74979"><ele>593.5</ele><time>2026-03-29T08:21:17.342Z</time></trkpt><trkpt lat="37.1617767" lon="14.749875"><ele>596.0</ele><time>2026-03-29T08:21:18.343Z</time></trkpt><trkpt lat="37.1618117" lon="14.749965"><ele>596.0</ele><time>2026-03-29T08:21:19.343Z</time></trkpt><trkpt lat="37.1618533" lon="14.750055"><ele>596.0</ele><time>2026-03-29T08:21:20.343Z</time></trkpt><trkpt lat="37.1618983" lon="14.7501483"><ele>596.0</ele><time>2026-03-29T08:21:21.343Z</time></trkpt><trkpt lat="37.1619483" lon="14.7502367"><ele>596.0</ele><time>2026-03-29T08:21:22.342Z</time></trkpt><trkpt lat="37.161985" lon="14.75032"><ele>596.0</ele><time>2026-03-29T08:21:23.342Z</time></trkpt><trkpt lat="37.1620233" lon="14.7504033"><ele>596.0</ele><time>2026-03-29T08:21:24.343Z</time></trkpt><trkpt lat="37.1620633" lon="14.7504967"><ele>596.3333333333333</ele><time>2026-03-29T08:21:25.343Z</time></trkpt><trkpt lat="37.1621017" lon="14.7505767"><ele>596.6666666666666</ele><time>2026-03-29T08:21:26.343Z</time></trkpt><trkpt lat="37.1621367" lon="14.7506683"><ele>597.0</ele><time>2026-03-29T08:21:27.343Z</time></trkpt><trkpt lat="37.1621717" lon="14.750765"><ele>597.3333333333334</ele><time>2026-03-29T08:21:28.342Z</time></trkpt><trkpt lat="37.1621983" lon="14.7508683"><ele>597.6666666666667</ele><time>2026-03-29T08:21:29.343Z</time></trkpt><trkpt lat="37.16223" lon="14.75097"><ele>598.0</ele><time>2026-03-29T08:21:30.343Z</time></trkpt><trkpt lat="37.1622717" lon="14.7510683"><ele>598.0</ele><time>2026-03-29T08:21:31.343Z</time></trkpt><trkpt lat="37.16232" lon="14.75117"><ele>598.0</ele><time>2026-03-29T08:21:32.342Z</time></trkpt><trkpt lat="37.16237" lon="14.7512667"><ele>598.0</ele><time>2026-03-29T08:21:33.342Z</time></trkpt><trkpt lat="37.1624067" lon="14.7513767"><ele>598.0</ele><time>2026-03-29T08:21:34.342Z</time></trkpt><trkpt lat="37.1624317" lon="14.751505"><ele>598.0</ele><time>2026-03-29T08:21:35.342Z</time></trkpt><trkpt lat="37.1624383" lon="14.7516317"><ele>599.6</ele><time>2026-03-29T08:21:36.342Z</time></trkpt><trkpt lat="37.16244" lon="14.7517683"><ele>601.1999999999999</ele><time>2026-03-29T08:21:37.343Z</time></trkpt><trkpt lat="37.16243" lon="14.75191"><ele>602.8</ele><time>2026-03-29T08:21:38.343Z</time></trkpt><trkpt lat="37.16243" lon="14.7520467"><ele>604.4</ele><time>2026-03-29T08:21:39.343Z</time></trkpt><trkpt lat="37.1624233" lon="14.7521683"><ele>606.0</ele><time>2026-03-29T08:21:40.343Z</time></trkpt><trkpt lat="37.162435" lon="14.7522883"><ele>606.0</ele><time>2026-03-29T08:21:41.342Z</time></trkpt><trkpt lat="37.1624467" lon="14.75242"><ele>606.0</ele><time>2026-03-29T08:21:42.343Z</time></trkpt><trkpt lat="37.162465" lon="14.7525467"><ele>606.0</ele><time>2026-03-29T08:21:43.342Z</time></trkpt><trkpt lat="37.1624867" lon="14.7526633"><ele>606.0</ele><time>2026-03-29T08:21:44.342Z</time></trkpt><trkpt lat="37.1624933" lon="14.7527733"><ele>606.0</ele><time>2026-03-29T08:21:45.342Z</time></trkpt><trkpt lat="37.1625067" lon="14.75289"><ele>606.0</ele><time>2026-03-29T08:21:46.342Z</time></trkpt><trkpt lat="37.16253" lon="14.7530017"><ele>606.0</ele><time>2026-03-29T08:21:47.343Z</time></trkpt><trkpt lat="37.162565" lon="14.75312"><ele>606.0</ele><time>2026-03-29T08:21:48.342Z</time></trkpt><trkpt lat="37.1626083" lon="14.7532333"><ele>606.0</ele><time>2026-03-29T08:21:49.343Z</time></trkpt><trkpt lat="37.1626633" lon="14.7533567"><ele>606.0</ele><time>2026-03-29T08:21:50.342Z</time></trkpt><trkpt lat="37.162715" lon="14.7534883"><ele>605.75</ele><time>2026-03-29T08:21:51.343Z</time></trkpt><trkpt lat="37.16276" lon="14.75362"><ele>605.5</ele><time>2026-03-29T08:21:52.343Z</time></trkpt><trkpt lat="37.1627933" lon="14.753755"><ele>605.25</ele><time>2026-03-29T08:21:53.343Z</time></trkpt><trkpt lat="37.1627983" lon="14.7538983"><ele>605.0</ele><time>2026-03-29T08:21:54.343Z</time></trkpt><trkpt lat="37.1628133" lon="14.7540517"><ele>605.0</ele><time>2026-03-29T08:21:55.343Z</time></trkpt><trkpt lat="37.162825" lon="14.7542"><ele>605.0</ele><time>2026-03-29T08:21:56.342Z</time></trkpt><trkpt lat="37.16283" lon="14.7543517"><ele>605.0</ele><time>2026-03-29T08:21:57.343Z</time></trkpt><trkpt lat="37.1628267" lon="14.7545017"><ele>605.0</ele><time>2026-03-29T08:21:58.342Z</time></trkpt><trkpt lat="37.162835" lon="14.7546417"><ele>605.2</ele><time>2026-03-29T08:21:59.343Z</time></trkpt><trkpt lat="37.1628383" lon="14.7547817"><ele>605.4</ele><time>2026-03-29T08:22:00.342Z</time></trkpt><trkpt lat="37.1628367" lon="14.7549217"><ele>605.6</ele><time>2026-03-29T08:22:01.343Z</time></trkpt><trkpt lat="37.1628233" lon="14.7550617"><ele>605.8</ele><time>2026-03-29T08:22:02.343Z</time></trkpt><trkpt lat="37.16283" lon="14.7552033"><ele>606.0</ele><time>2026-03-29T08:22:03.342Z</time></trkpt><trkpt lat="37.162835" lon="14.7553433"><ele>606.0</ele><time>2026-03-29T08:22:04.343Z</time></trkpt><trkpt lat="37.1628483" lon="14.755495"><ele>606.0</ele><time>2026-03-29T08:22:05.343Z</time></trkpt><trkpt lat="37.1628883" lon="14.7556317"><ele>606.0</ele><time>2026-03-29T08:22:06.343Z</time></trkpt><trkpt lat="37.1629467" lon="14.7557483"><ele>606.0</ele><time>2026-03-29T08:22:07.343Z</time></trkpt><trkpt lat="37.1630083" lon="14.75587"><ele>606.0</ele><time>2026-03-29T08:22:08.343Z</time></trkpt><trkpt lat="37.163065" lon="14.75598"><ele>606.0</ele><time>2026-03-29T08:22:09.342Z</time></trkpt><trkpt lat="37.163135" lon="14.756075"><ele>606.0</ele><time>2026-03-29T08:22:10.343Z</time></trkpt><trkpt lat="37.1632133" lon="14.7561567"><ele>606.0</ele><time>2026-03-29T08:22:11.342Z</time></trkpt><trkpt lat="37.163295" lon="14.7562433"><ele>606.0</ele><time>2026-03-29T08:22:12.342Z</time></trkpt><trkpt lat="37.1633883" lon="14.756325"><ele>608.25</ele><time>2026-03-29T08:22:13.342Z</time></trkpt><trkpt lat="37.1634883" lon="14.7564033"><ele>610.5</ele><time>2026-03-29T08:22:14.343Z</time></trkpt><trkpt lat="37.163585" lon="14.7564933"><ele>612.75</ele><time>2026-03-29T08:22:15.342Z</time></trkpt><trkpt lat="37.163695" lon="14.756565"><ele>615.0</ele><time>2026-03-29T08:22:16.342Z</time></trkpt><trkpt lat="37.1638083" lon="14.756655"><ele>615.0</ele><time>2026-03-29T08:22:17.342Z</time></trkpt><trkpt lat="37.1639217" lon="14.75675"><ele>615.0</ele><time>2026-03-29T08:22:18.342Z</time></trkpt><trkpt lat="37.16403" lon="14.7568583"><ele>615.0</ele><time>2026-03-29T08:22:19.342Z</time></trkpt><trkpt lat="37.1641333" lon="14.75697"><ele>615.0</ele><time>2026-03-29T08:22:20.342Z</time></trkpt><trkpt lat="37.1642333" lon="14.7570933"><ele>617.3333333333334</ele><time>2026-03-29T08:22:21.343Z</time></trkpt><trkpt lat="37.164335" lon="14.7572267"><ele>619.6666666666667</ele><time>2026-03-29T08:22:22.343Z</time></trkpt><trkpt lat="37.1644233" lon="14.7573833"><ele>622.0</ele><time>2026-03-29T08:22:23.343Z</time></trkpt><trkpt lat="37.164515" lon="14.7575333"><ele>622.0</ele><time>2026-03-29T08:22:24.343Z</time></trkpt><trkpt lat="37.1646033" lon="14.7576817"><ele>622.0</ele><time>2026-03-29T08:22:25.343Z</time></trkpt><trkpt lat="37.1646883" lon="14.75783"><ele>622.0</ele><time>2026-03-29T08:22:26.343Z</time></trkpt><trkpt lat="37.1647817" lon="14.7579683"><ele>622.0</ele><time>2026-03-29T08:22:27.343Z</time></trkpt><trkpt lat="37.1648867" lon="14.7580917"><ele>622.5</ele><time>2026-03-29T08:22:28.342Z</time></trkpt><trkpt lat="37.1650017" lon="14.7581933"><ele>623.0</ele><time>2026-03-29T08:22:29.343Z</time></trkpt><trkpt lat="37.165125" lon="14.758265"><ele>623.5</ele><time>2026-03-29T08:22:30.343Z</time></trkpt><trkpt lat="37.1652383" lon="14.75831"><ele>624.0</ele><time>2026-03-29T08:22:31.343Z</time></trkpt><trkpt lat="37.1653467" lon="14.7583467"><ele>624.0</ele><time>2026-03-29T08:22:32.343Z</time></trkpt><trkpt lat="37.165445" lon="14.7583817"><ele>624.0</ele><time>2026-03-29T08:22:33.343Z</time></trkpt><trkpt lat="37.1655333" lon="14.7584117"><ele>624.0</ele><time>2026-03-29T08:22:34.342Z</time></trkpt><trkpt lat="37.165615" lon="14.7584283"><ele>624.0</ele><time>2026-03-29T08:22:35.342Z</time></trkpt><trkpt lat="37.1657083" lon="14.7584367"><ele>624.0</ele><time>2026-03-29T08:22:36.343Z</time></trkpt><trkpt lat="37.1658067" lon="14.75844"><ele>625.8</ele><time>2026-03-29T08:22:37.343Z</time></trkpt><trkpt lat="37.1659167" lon="14.7584467"><ele>627.5999999999999</ele><time>2026-03-29T08:22:38.342Z</time></trkpt><trkpt lat="37.1660233" lon="14.7584867"><ele>629.4</ele><time>2026-03-29T08:22:39.343Z</time></trkpt><trkpt lat="37.166125" lon="14.75853"><ele>631.1999999999999</ele><time>2026-03-29T08:22:40.343Z</time></trkpt><trkpt lat="37.1662233" lon="14.7585717"><ele>633.0</ele><time>2026-03-29T08:22:41.343Z</time></trkpt><trkpt lat="37.1663383" lon="14.7586383"><ele>633.75</ele><time>2026-03-29T08:22:42.342Z</time></trkpt><trkpt lat="37.16646" lon="14.758735"><ele>634.5</ele><time>2026-03-29T08:22:43.342Z</time></trkpt><trkpt lat="37.16657" lon="14.758855"><ele>635.25</ele><time>2026-03-29T08:22:44.343Z</time></trkpt><trkpt lat="37.1666617" lon="14.7589967"><ele>636.0</ele><time>2026-03-29T08:22:45.342Z</time></trkpt><trkpt lat="37.1667583" lon="14.7591433"><ele>637.75</ele><time>2026-03-29T08:22:46.342Z</time></trkpt><trkpt lat="37.1668433" lon="14.7592933"><ele>639.5</ele><time>2026-03-29T08:22:47.342Z</time></trkpt><trkpt lat="37.166935" lon="14.7594367"><ele>641.25</ele><time>2026-03-29T08:22:48.342Z</time></trkpt><trkpt lat="37.1670367" lon="14.75957"><ele>643.0</ele><time>2026-03-29T08:22:49.342Z</time></trkpt><trkpt lat="37.1671483" lon="14.7596967"><ele>643.6666666666667</ele><time>2026-03-29T08:22:50.343Z</time></trkpt><trkpt lat="37.1672667" lon="14.759825"><ele>644.3333333333334</ele><time>2026-03-29T08:22:51.342Z</time></trkpt><trkpt lat="37.1673867" lon="14.7599617"><ele>645.0</ele><time>2026-03-29T08:22:52.342Z</time></trkpt><trkpt lat="37.1675083" lon="14.7601"><ele>648.6666666666666</ele><time>2026-03-29T08:22:53.342Z</time></trkpt><trkpt lat="37.1676267" lon="14.7602383"><ele>652.3333333333333</ele><time>2026-03-29T08:22:54.342Z</time></trkpt><trkpt lat="37.1677517" lon="14.760355"><ele>656.0</ele><time>2026-03-29T08:22:55.343Z</time></trkpt><trkpt lat="37.1678933" lon="14.7604367"><ele>656.0</ele><time>2026-03-29T08:22:56.342Z</time></trkpt><trkpt lat="37.1680433" lon="14.76049"><ele>656.0</ele><time>2026-03-29T08:22:57.343Z</time></trkpt><trkpt lat="37.1681983" lon="14.76051"><ele>656.0</ele><time>2026-03-29T08:22:58.343Z</time></trkpt><trkpt lat="37.1683367" lon="14.76051"><ele>656.25</ele><time>2026-03-29T08:22:59.343Z</time></trkpt><trkpt lat="37.1684767" lon="14.7605133"><ele>656.5</ele><time>2026-03-29T08:23:00.343Z</time></trkpt><trkpt lat="37.1686" lon="14.7605567"><ele>656.75</ele><time>2026-03-29T08:23:01.343Z</time></trkpt><trkpt lat="37.168705" lon="14.760635"><ele>657.0</ele><time>2026-03-29T08:23:02.342Z</time></trkpt><trkpt lat="37.1687783" lon="14.7607483"><ele>657.0</ele><time>2026-03-29T08:23:03.343Z</time></trkpt><trkpt lat="37.168845" lon="14.7608917"><ele>657.0</ele><time>2026-03-29T08:23:04.343Z</time></trkpt><trkpt lat="37.168905" lon="14.76105"><ele>657.0</ele><time>2026-03-29T08:23:05.342Z</time></trkpt><trkpt lat="37.1689783" lon="14.761195"><ele>657.0</ele><time>2026-03-29T08:23:06.342Z</time></trkpt><trkpt lat="37.169065" lon="14.76134"><ele>659.0</ele><time>2026-03-29T08:23:07.343Z</time></trkpt><trkpt lat="37.1691583" lon="14.7614833"><ele>661.0</ele><time>2026-03-29T08:23:08.342Z</time></trkpt><trkpt lat="37.1692667" lon="14.76162"><ele>663.0</ele><time>2026-03-29T08:23:09.342Z</time></trkpt><trkpt lat="37.1693867" lon="14.7617483"><ele>667.6666666666666</ele><time>2026-03-29T08:23:10.343Z</time></trkpt><trkpt lat="37.1695117" lon="14.7618767"><ele>672.3333333333333</ele><time>2026-03-29T08:23:11.342Z</time></trkpt><trkpt lat="37.16964" lon="14.762"><ele>677.0</ele><time>2026-03-29T08:23:12.342Z</time></trkpt><trkpt lat="37.16978" lon="14.7621083"><ele>675.0</ele><time>2026-03-29T08:23:13.342Z</time></trkpt><trkpt lat="37.169925" lon="14.762205"><ele>673.0</ele><time>2026-03-29T08:23:14.343Z</time></trkpt><trkpt lat="37.1700717" lon="14.7623033"><ele>671.0</ele><time>2026-03-29T08:23:15.343Z</time></trkpt><trkpt lat="37.1702083" lon="14.7624333"><ele>671.0</ele><time>2026-03-29T08:23:16.343Z</time></trkpt><trkpt lat="37.1703317" lon="14.7625767"><ele>671.0</ele><time>2026-03-29T08:23:17.342Z</time></trkpt><trkpt lat="37.1704417" lon="14.7627233"><ele>671.0</ele><time>2026-03-29T08:23:18.342Z</time></trkpt><trkpt lat="37.17056" lon="14.7628767"><ele>671.75</ele><time>2026-03-29T08:23:19.342Z</time></trkpt><trkpt lat="37.1706667" lon="14.7630183"><ele>672.5</ele><time>2026-03-29T08:23:20.342Z</time></trkpt><trkpt lat="37.170765" lon="14.7631383"><ele>673.25</ele><time>2026-03-29T08:23:21.343Z</time></trkpt><trkpt lat="37.17086" lon="14.7632483"><ele>674.0</ele><time>2026-03-29T08:23:22.343Z</time></trkpt><trkpt lat="37.170965" lon="14.76336"><ele>674.0</ele><time>2026-03-29T08:23:23.342Z</time></trkpt><trkpt lat="37.1710767" lon="14.7634717"><ele>674.0</ele><time>2026-03-29T08:23:24.343Z</time></trkpt><trkpt lat="37.17119" lon="14.7635783"><ele>674.0</ele><time>2026-03-29T08:23:25.343Z</time></trkpt><trkpt lat="37.171305" lon="14.76369"><ele>674.0</ele><time>2026-03-29T08:23:26.343Z</time></trkpt><trkpt lat="37.1714267" lon="14.763785"><ele>675.25</ele><time>2026-03-29T08:23:27.342Z</time></trkpt><trkpt lat="37.171555" lon="14.763865"><ele>676.5</ele><time>2026-03-29T08:23:28.342Z</time></trkpt><trkpt lat="37.17169" lon="14.7639417"><ele>677.75</ele><time>2026-03-29T08:23:29.342Z</time></trkpt><trkpt lat="37.17182" lon="14.7640317"><ele>679.0</ele><time>2026-03-29T08:23:30.342Z</time></trkpt><trkpt lat="37.17196" lon="14.7640933"><ele>679.0</ele><time>2026-03-29T08:23:31.342Z</time></trkpt><trkpt lat="37.172105" lon="14.764155"><ele>679.0</ele><time>2026-03-29T08:23:32.343Z</time></trkpt><trkpt lat="37.1722283" lon="14.7642083"><ele>679.0</ele><time>2026-03-29T08:23:33.343Z</time></trkpt><trkpt lat="37.1723483" lon="14.7642533"><ele>679.0</ele><time>2026-03-29T08:23:34.342Z</time></trkpt><trkpt lat="37.1724633" lon="14.7642683"><ele>679.5</ele><time>2026-03-29T08:23:35.343Z</time></trkpt><trkpt lat="37.17257" lon="14.76424"><ele>680.0</ele><time>2026-03-29T08:23:36.342Z</time></trkpt><trkpt lat="37.17267" lon="14.7641683"><ele>680.5</ele><time>2026-03-29T08:23:37.343Z</time></trkpt><trkpt lat="37.172745" lon="14.7640283"><ele>681.0</ele><time>2026-03-29T08:23:38.343Z</time></trkpt><trkpt lat="37.1728067" lon="14.763875"><ele>681.0</ele><time>2026-03-29T08:23:39.342Z</time></trkpt><trkpt lat="37.1728717" lon="14.7637167"><ele>681.0</ele><time>2026-03-29T08:23:40.343Z</time></trkpt><trkpt lat="37.17294" lon="14.7635617"><ele>681.0</ele><time>2026-03-29T08:23:41.343Z</time></trkpt><trkpt lat="37.1730083" lon="14.7634067"><ele>681.0</ele><time>2026-03-29T08:23:42.342Z</time></trkpt><trkpt lat="37.1731" lon="14.7632717"><ele>682.5</ele><time>2026-03-29T08:23:43.342Z</time></trkpt><trkpt lat="37.1732017" lon="14.7631533"><ele>684.0</ele><time>2026-03-29T08:23:44.342Z</time></trkpt><trkpt lat="37.1733067" lon="14.7630533"><ele>685.5</ele><time>2026-03-29T08:23:45.343Z</time></trkpt><trkpt lat="37.1734033" lon="14.762975"><ele>687.0</ele><time>2026-03-29T08:23:46.342Z</time></trkpt><trkpt lat="37.1734817" lon="14.7629133"><ele>687.0</ele><time>2026-03-29T08:23:47.342Z</time></trkpt><trkpt lat="37.173555" lon="14.76289"><ele>687.0</ele><time>2026-03-29T08:23:48.342Z</time></trkpt><trkpt lat="37.1736183" lon="14.76291"><ele>687.0</ele><time>2026-03-29T08:23:49.342Z</time></trkpt><trkpt lat="37.1736467" lon="14.7630267"><ele>687.0</ele><time>2026-03-29T08:23:51.342Z</time></trkpt><trkpt lat="37.1736033" lon="14.7631133"><ele>687.0</ele><time>2026-03-29T08:23:52.342Z</time></trkpt><trkpt lat="37.1735333" lon="14.763225"><ele>687.0</ele><time>2026-03-29T08:23:53.343Z</time></trkpt><trkpt lat="37.1734683" lon="14.7633433"><ele>687.0</ele><time>2026-03-29T08:23:54.342Z</time></trkpt><trkpt lat="37.17342" lon="14.7634683"><ele>687.0</ele><time>2026-03-29T08:23:55.343Z</time></trkpt><trkpt lat="37.1733917" lon="14.7635983"><ele>687.0</ele><time>2026-03-29T08:23:56.342Z</time></trkpt><trkpt lat="37.173395" lon="14.7637233"><ele>687.0</ele><time>2026-03-29T08:23:57.343Z</time></trkpt><trkpt lat="37.1734283" lon="14.7638567"><ele>687.0</ele><time>2026-03-29T08:23:58.342Z</time></trkpt><trkpt lat="37.1734717" lon="14.7639917"><ele>688.25</ele><time>2026-03-29T08:23:59.342Z</time></trkpt><trkpt lat="37.173515" lon="14.7641317"><ele>689.5</ele><time>2026-03-29T08:24:00.342Z</time></trkpt><trkpt lat="37.1735583" lon="14.7642683"><ele>690.75</ele><time>2026-03-29T08:24:01.343Z</time></trkpt><trkpt lat="37.1735983" lon="14.7644117"><ele>692.0</ele><time>2026-03-29T08:24:02.342Z</time></trkpt><trkpt lat="37.17365" lon="14.764555"><ele>692.75</ele><time>2026-03-29T08:24:03.342Z</time></trkpt><trkpt lat="37.1736967" lon="14.764705"><ele>693.5</ele><time>2026-03-29T08:24:04.343Z</time></trkpt><trkpt lat="37.1737483" lon="14.7648617"><ele>694.25</ele><time>2026-03-29T08:24:05.342Z</time></trkpt><trkpt lat="37.1738" lon="14.7650167"><ele>695.0</ele><time>2026-03-29T08:24:06.343Z</time></trkpt><trkpt lat="37.1738533" lon="14.76517"><ele>695.0</ele><time>2026-03-29T08:24:07.343Z</time></trkpt><trkpt lat="37.173915" lon="14.765305"><ele>695.0</ele><time>2026-03-29T08:24:08.342Z</time></trkpt><trkpt lat="37.174005" lon="14.7654317"><ele>695.0</ele><time>2026-03-29T08:24:09.343Z</time></trkpt><trkpt lat="37.17411" lon="14.7655483"><ele>695.0</ele><time>2026-03-29T08:24:10.342Z</time></trkpt><trkpt lat="37.174215" lon="14.7656933"><ele>696.0</ele><time>2026-03-29T08:24:11.343Z</time></trkpt><trkpt lat="37.1743333" lon="14.7658433"><ele>697.0</ele><time>2026-03-29T08:24:12.342Z</time></trkpt><trkpt lat="37.1744533" lon="14.766"><ele>698.0</ele><time>2026-03-29T08:24:13.343Z</time></trkpt><trkpt lat="37.17458" lon="14.7661567"><ele>698.3333333333333</ele><time>2026-03-29T08:24:14.343Z</time></trkpt><trkpt lat="37.1747033" lon="14.7663083"><ele>698.6666666666666</ele><time>2026-03-29T08:24:15.343Z</time></trkpt><trkpt lat="37.1748317" lon="14.7664533"><ele>699.0</ele><time>2026-03-29T08:24:16.342Z</time></trkpt><trkpt lat="37.17495" lon="14.76661"><ele>699.3333333333334</ele><time>2026-03-29T08:24:17.342Z</time></trkpt><trkpt lat="37.175075" lon="14.7667733"><ele>699.6666666666667</ele><time>2026-03-29T08:24:18.343Z</time></trkpt><trkpt lat="37.1752017" lon="14.766935"><ele>700.0</ele><time>2026-03-29T08:24:19.342Z</time></trkpt><trkpt lat="37.17533" lon="14.7670967"><ele>700.0</ele><time>2026-03-29T08:24:20.343Z</time></trkpt><trkpt lat="37.1754667" lon="14.7672667"><ele>700.0</ele><time>2026-03-29T08:24:21.343Z</time></trkpt><trkpt lat="37.1756017" lon="14.7674233"><ele>700.0</ele><time>2026-03-29T08:24:22.342Z</time></trkpt><trkpt lat="37.1757333" lon="14.7675883"><ele>700.3333333333334</ele><time>2026-03-29T08:24:23.342Z</time></trkpt><trkpt lat="37.1758667" lon="14.7677483"><ele>700.6666666666666</ele><time>2026-03-29T08:24:24.342Z</time></trkpt><trkpt lat="37.1760033" lon="14.767915"><ele>701.0</ele><time>2026-03-29T08:24:25.342Z</time></trkpt><trkpt lat="37.17614" lon="14.7680783"><ele>701.0</ele><time>2026-03-29T08:24:26.343Z</time></trkpt><trkpt lat="37.1762733" lon="14.7682483"><ele>701.0</ele><time>2026-03-29T08:24:27.342Z</time></trkpt><trkpt lat="37.1764017" lon="14.7684083"><ele>701.0</ele><time>2026-03-29T08:24:28.342Z</time></trkpt><trkpt lat="37.1765383" lon="14.7685767"><ele>699.0</ele><time>2026-03-29T08:24:29.343Z</time></trkpt><trkpt lat="37.17667" lon="14.7687467"><ele>697.0</ele><time>2026-03-29T08:24:30.342Z</time></trkpt><trkpt lat="37.17681" lon="14.7689133"><ele>695.0</ele><time>2026-03-29T08:24:31.342Z</time></trkpt><trkpt lat="37.1769417" lon="14.76907"><ele>695.0</ele><time>2026-03-29T08:24:32.342Z</time></trkpt><trkpt lat="37.1770767" lon="14.76922"><ele>695.0</ele><time>2026-03-29T08:24:33.343Z</time></trkpt><trkpt lat="37.177215" lon="14.769345"><ele>695.0</ele><time>2026-03-29T08:24:34.343Z</time></trkpt><trkpt lat="37.17737" lon="14.76946"><ele>692.3333333333333</ele><time>2026-03-29T08:24:35.342Z</time></trkpt><trkpt lat="37.1775433" lon="14.7695683"><ele>689.6666666666666</ele><time>2026-03-29T08:24:36.342Z</time></trkpt><trkpt lat="37.1777267" lon="14.7696767"><ele>687.0</ele><time>2026-03-29T08:24:37.342Z</time></trkpt><trkpt lat="37.17791" lon="14.769785"><ele>687.0</ele><time>2026-03-29T08:24:38.342Z</time></trkpt><trkpt lat="37.1781033" lon="14.7698933"><ele>687.0</ele><time>2026-03-29T08:24:39.342Z</time></trkpt><trkpt lat="37.1782967" lon="14.7700117"><ele>687.0</ele><time>2026-03-29T08:24:40.343Z</time></trkpt><trkpt lat="37.1784833" lon="14.7701233"><ele>684.6666666666666</ele><time>2026-03-29T08:24:41.343Z</time></trkpt><trkpt lat="37.1786783" lon="14.770245"><ele>682.3333333333333</ele><time>2026-03-29T08:24:42.343Z</time></trkpt><trkpt lat="37.1788683" lon="14.7703583"><ele>680.0</ele><time>2026-03-29T08:24:43.342Z</time></trkpt><trkpt lat="37.179065" lon="14.7704783"><ele>678.6666666666666</ele><time>2026-03-29T08:24:44.343Z</time></trkpt><trkpt lat="37.1792633" lon="14.7706"><ele>677.3333333333334</ele><time>2026-03-29T08:24:45.343Z</time></trkpt><trkpt lat="37.1794617" lon="14.7707167"><ele>676.0</ele><time>2026-03-29T08:24:46.343Z</time></trkpt><trkpt lat="37.1796533" lon="14.77083"><ele>675.3333333333334</ele><time>2026-03-29T08:24:47.342Z</time></trkpt><trkpt lat="37.179855" lon="14.770945"><ele>674.6666666666666</ele><time>2026-03-29T08:24:48.342Z</time></trkpt><trkpt lat="37.1800583" lon="14.7710567"><ele>674.0</ele><time>2026-03-29T08:24:49.342Z</time></trkpt><trkpt lat="37.180265" lon="14.7711767"><ele>673.0</ele><time>2026-03-29T08:24:50.343Z</time></trkpt><trkpt lat="37.180465" lon="14.7712967"><ele>672.0</ele><time>2026-03-29T08:24:51.343Z</time></trkpt><trkpt lat="37.1806583" lon="14.7714283"><ele>671.0</ele><time>2026-03-29T08:24:52.342Z</time></trkpt><trkpt lat="37.1808317" lon="14.7715817"><ele>669.6666666666666</ele><time>2026-03-29T08:24:53.342Z</time></trkpt><trkpt lat="37.1809933" lon="14.7717567"><ele>668.3333333333334</ele><time>2026-03-29T08:24:54.342Z</time></trkpt><trkpt lat="37.181145" lon="14.7719433"><ele>667.0</ele><time>2026-03-29T08:24:55.342Z</time></trkpt><trkpt lat="37.181295" lon="14.77213"><ele>666.0</ele><time>2026-03-29T08:24:56.342Z</time></trkpt><trkpt lat="37.1814533" lon="14.7723167"><ele>665.0</ele><time>2026-03-29T08:24:57.342Z</time></trkpt><trkpt lat="37.181615" lon="14.7725083"><ele>664.0</ele><time>2026-03-29T08:24:58.343Z</time></trkpt><trkpt lat="37.18178" lon="14.7726983"><ele>662.6666666666667</ele><time>2026-03-29T08:24:59.343Z</time></trkpt><trkpt lat="37.1819417" lon="14.7728833"><ele>661.3333333333334</ele><time>2026-03-29T08:25:00.343Z</time></trkpt><trkpt lat="37.1821033" lon="14.7730683"><ele>660.0</ele><time>2026-03-29T08:25:01.342Z</time></trkpt><trkpt lat="37.182265" lon="14.773255"><ele>660.3333333333334</ele><time>2026-03-29T08:25:02.343Z</time></trkpt><trkpt lat="37.1824283" lon="14.773435"><ele>660.6666666666667</ele><time>2026-03-29T08:25:03.342Z</time></trkpt><trkpt lat="37.1825883" lon="14.77361"><ele>661.0</ele><time>2026-03-29T08:25:04.343Z</time></trkpt><trkpt lat="37.18274" lon="14.7737933"><ele>661.0</ele><time>2026-03-29T08:25:05.343Z</time></trkpt><trkpt lat="37.1828933" lon="14.773965"><ele>661.0</ele><time>2026-03-29T08:25:06.343Z</time></trkpt><trkpt lat="37.183045" lon="14.7741417"><ele>661.0</ele><time>2026-03-29T08:25:07.342Z</time></trkpt><trkpt lat="37.1831967" lon="14.7743167"><ele>659.6666666666667</ele><time>2026-03-29T08:25:08.342Z</time></trkpt><trkpt lat="37.183335" lon="14.7745083"><ele>658.3333333333334</ele><time>2026-03-29T08:25:09.343Z</time></trkpt><trkpt lat="37.1834583" lon="14.77471"><ele>657.0</ele><time>2026-03-29T08:25:10.343Z</time></trkpt><trkpt lat="37.1835433" lon="14.774935"><ele>657.0</ele><time>2026-03-29T08:25:11.342Z</time></trkpt><trkpt lat="37.1836167" lon="14.7751717"><ele>657.0</ele><time>2026-03-29T08:25:12.343Z</time></trkpt><trkpt lat="37.1836817" lon="14.7754183"><ele>657.0</ele><time>2026-03-29T08:25:13.343Z</time></trkpt><trkpt lat="37.1837617" lon="14.7756583"><ele>656.0</ele><time>2026-03-29T08:25:14.342Z</time></trkpt><trkpt lat="37.1838367" lon="14.7759"><ele>655.0</ele><time>2026-03-29T08:25:15.343Z</time></trkpt><trkpt lat="37.1839217" lon="14.7761333"><ele>654.0</ele><time>2026-03-29T08:25:16.342Z</time></trkpt><trkpt lat="37.1840183" lon="14.7763667"><ele>654.0</ele><time>2026-03-29T08:25:17.342Z</time></trkpt><trkpt lat="37.184105" lon="14.776605"><ele>654.0</ele><time>2026-03-29T08:25:18.342Z</time></trkpt><trkpt lat="37.1841917" lon="14.7768583"><ele>654.0</ele><time>2026-03-29T08:25:19.343Z</time></trkpt><trkpt lat="37.1842833" lon="14.777095"><ele>652.3333333333334</ele><time>2026-03-29T08:25:20.342Z</time></trkpt><trkpt lat="37.1843683" lon="14.7773333"><ele>650.6666666666667</ele><time>2026-03-29T08:25:21.342Z</time></trkpt><trkpt lat="37.1844517" lon="14.7775783"><ele>649.0</ele><time>2026-03-29T08:25:22.343Z</time></trkpt><trkpt lat="37.18453" lon="14.7778217"><ele>646.3333333333334</ele><time>2026-03-29T08:25:23.343Z</time></trkpt><trkpt lat="37.1846133" lon="14.7780617"><ele>643.6666666666666</ele><time>2026-03-29T08:25:24.343Z</time></trkpt><trkpt lat="37.1846883" lon="14.7782867"><ele>641.0</ele><time>2026-03-29T08:25:25.343Z</time></trkpt><trkpt lat="37.1847633" lon="14.7785017"><ele>641.6666666666666</ele><time>2026-03-29T08:25:26.342Z</time></trkpt><trkpt lat="37.184835" lon="14.7786983"><ele>642.3333333333334</ele><time>2026-03-29T08:25:27.343Z</time></trkpt><trkpt lat="37.1849" lon="14.778895"><ele>643.0</ele><time>2026-03-29T08:25:28.342Z</time></trkpt><trkpt lat="37.1849583" lon="14.7790767"><ele>643.0</ele><time>2026-03-29T08:25:29.343Z</time></trkpt><trkpt lat="37.1850083" lon="14.779265"><ele>643.0</ele><time>2026-03-29T08:25:30.343Z</time></trkpt><trkpt lat="37.185065" lon="14.7794717"><ele>643.0</ele><time>2026-03-29T08:25:31.343Z</time></trkpt><trkpt lat="37.18512" lon="14.7796833"><ele>641.0</ele><time>2026-03-29T08:25:32.343Z</time></trkpt><trkpt lat="37.1851767" lon="14.7799067"><ele>639.0</ele><time>2026-03-29T08:25:33.343Z</time></trkpt><trkpt lat="37.18524" lon="14.7801417"><ele>637.0</ele><time>2026-03-29T08:25:34.343Z</time></trkpt><trkpt lat="37.1853017" lon="14.780375"><ele>636.0</ele><time>2026-03-29T08:25:35.342Z</time></trkpt><trkpt lat="37.1853633" lon="14.780615"><ele>635.0</ele><time>2026-03-29T08:25:36.342Z</time></trkpt><trkpt lat="37.185425" lon="14.7808617"><ele>634.0</ele><time>2026-03-29T08:25:37.343Z</time></trkpt><trkpt lat="37.1854833" lon="14.7811133"><ele>633.3333333333334</ele><time>2026-03-29T08:25:38.342Z</time></trkpt><trkpt lat="37.18554" lon="14.781375"><ele>632.6666666666666</ele><time>2026-03-29T08:25:39.342Z</time></trkpt><trkpt lat="37.1856217" lon="14.7816217"><ele>632.0</ele><time>2026-03-29T08:25:40.342Z</time></trkpt><trkpt lat="37.1856983" lon="14.7818717"><ele>634.0</ele><time>2026-03-29T08:25:41.343Z</time></trkpt><trkpt lat="37.1857783" lon="14.7821267"><ele>636.0</ele><time>2026-03-29T08:25:42.342Z</time></trkpt><trkpt lat="37.1858733" lon="14.7823767"><ele>638.0</ele><time>2026-03-29T08:25:43.343Z</time></trkpt><trkpt lat="37.1859767" lon="14.7826283"><ele>636.6666666666666</ele><time>2026-03-29T08:25:44.342Z</time></trkpt><trkpt lat="37.18609" lon="14.782875"><ele>635.3333333333334</ele><time>2026-03-29T08:25:45.342Z</time></trkpt><trkpt lat="37.18621" lon="14.7831083"><ele>634.0</ele><time>2026-03-29T08:25:46.342Z</time></trkpt><trkpt lat="37.1863467" lon="14.7833333"><ele>633.6666666666667</ele><time>2026-03-29T08:25:47.342Z</time></trkpt><trkpt lat="37.1864933" lon="14.783545"><ele>633.3333333333334</ele><time>2026-03-29T08:25:48.342Z</time></trkpt><trkpt lat="37.1866433" lon="14.7837517"><ele>633.0</ele><time>2026-03-29T08:25:49.342Z</time></trkpt><trkpt lat="37.186795" lon="14.783955"><ele>634.5</ele><time>2026-03-29T08:25:50.342Z</time></trkpt><trkpt lat="37.1869483" lon="14.7841667"><ele>636.0</ele><time>2026-03-29T08:25:51.343Z</time></trkpt><trkpt lat="37.1871" lon="14.7843867"><ele>636.0</ele><time>2026-03-29T08:25:52.343Z</time></trkpt><trkpt lat="37.1872467" lon="14.7845983"><ele>636.0</ele><time>2026-03-29T08:25:53.342Z</time></trkpt><trkpt lat="37.1874067" lon="14.7848"><ele>636.0</ele><time>2026-03-29T08:25:54.342Z</time></trkpt><trkpt lat="37.1875667" lon="14.785005"><ele>636.0</ele><time>2026-03-29T08:25:55.342Z</time></trkpt><trkpt lat="37.1877233" lon="14.7852067"><ele>634.0</ele><time>2026-03-29T08:25:56.343Z</time></trkpt><trkpt lat="37.18788" lon="14.785415"><ele>632.0</ele><time>2026-03-29T08:25:57.342Z</time></trkpt><trkpt lat="37.18803" lon="14.78562"><ele>632.0</ele><time>2026-03-29T08:25:58.342Z</time></trkpt><trkpt lat="37.1881717" lon="14.7858283"><ele>632.0</ele><time>2026-03-29T08:25:59.343Z</time></trkpt><trkpt lat="37.1883183" lon="14.786035"><ele>632.0</ele><time>2026-03-29T08:26:00.342Z</time></trkpt><trkpt lat="37.18846" lon="14.786245"><ele>630.6666666666666</ele><time>2026-03-29T08:26:01.343Z</time></trkpt><trkpt lat="37.1885883" lon="14.7864567"><ele>629.3333333333334</ele><time>2026-03-29T08:26:02.342Z</time></trkpt><trkpt lat="37.1887017" lon="14.786675"><ele>628.0</ele><time>2026-03-29T08:26:03.343Z</time></trkpt><trkpt lat="37.1887933" lon="14.7869067"><ele>624.6666666666667</ele><time>2026-03-29T08:26:04.343Z</time></trkpt><trkpt lat="37.1888633" lon="14.7871483"><ele>621.3333333333334</ele><time>2026-03-29T08:26:05.342Z</time></trkpt><trkpt lat="37.1889317" lon="14.78739"><ele>618.0</ele><time>2026-03-29T08:26:06.342Z</time></trkpt><trkpt lat="37.1889883" lon="14.7876383"><ele>620.6666666666666</ele><time>2026-03-29T08:26:07.343Z</time></trkpt><trkpt lat="37.1890433" lon="14.787895"><ele>623.3333333333333</ele><time>2026-03-29T08:26:08.343Z</time></trkpt><trkpt lat="37.1891067" lon="14.7881383"><ele>626.0</ele><time>2026-03-29T08:26:09.342Z</time></trkpt><trkpt lat="37.1891683" lon="14.7883917"><ele>624.3333333333333</ele><time>2026-03-29T08:26:10.343Z</time></trkpt><trkpt lat="37.18923" lon="14.7886367"><ele>622.6666666666666</ele><time>2026-03-29T08:26:11.343Z</time></trkpt><trkpt lat="37.1892933" lon="14.7888817"><ele>621.0</ele><time>2026-03-29T08:26:12.342Z</time></trkpt><trkpt lat="37.189365" lon="14.7891283"><ele>617.0</ele><time>2026-03-29T08:26:13.343Z</time></trkpt><trkpt lat="37.189445" lon="14.78938"><ele>613.0</ele><time>2026-03-29T08:26:14.342Z</time></trkpt><trkpt lat="37.1895367" lon="14.78963"><ele>609.0</ele><time>2026-03-29T08:26:15.342Z</time></trkpt><trkpt lat="37.1896417" lon="14.7898733"><ele>609.0</ele><time>2026-03-29T08:26:16.343Z</time></trkpt><trkpt lat="37.1897617" lon="14.7901017"><ele>609.0</ele><time>2026-03-29T08:26:17.342Z</time></trkpt><trkpt lat="37.1898783" lon="14.79034"><ele>609.0</ele><time>2026-03-29T08:26:18.343Z</time></trkpt><trkpt lat="37.1899917" lon="14.7905717"><ele>606.6666666666666</ele><time>2026-03-29T08:26:19.342Z</time></trkpt><trkpt lat="37.190115" lon="14.7908033"><ele>604.3333333333333</ele><time>2026-03-29T08:26:20.343Z</time></trkpt><trkpt lat="37.1902333" lon="14.7910433"><ele>602.0</ele><time>2026-03-29T08:26:21.342Z</time></trkpt><trkpt lat="37.1903517" lon="14.791285"><ele>602.0</ele><time>2026-03-29T08:26:22.343Z</time></trkpt><trkpt lat="37.1904667" lon="14.7915233"><ele>602.0</ele><time>2026-03-29T08:26:23.342Z</time></trkpt><trkpt lat="37.1905817" lon="14.7917433"><ele>602.0</ele><time>2026-03-29T08:26:24.343Z</time></trkpt><trkpt lat="37.1907017" lon="14.7919533"><ele>606.0</ele><time>2026-03-29T08:26:25.343Z</time></trkpt><trkpt lat="37.190815" lon="14.7921467"><ele>610.0</ele><time>2026-03-29T08:26:26.343Z</time></trkpt><trkpt lat="37.1909417" lon="14.7923217"><ele>614.0</ele><time>2026-03-29T08:26:27.343Z</time></trkpt><trkpt lat="37.191065" lon="14.7924867"><ele>614.0</ele><time>2026-03-29T08:26:28.343Z</time></trkpt><trkpt lat="37.1911967" lon="14.7926367"><ele>614.0</ele><time>2026-03-29T08:26:29.343Z</time></trkpt><trkpt lat="37.191335" lon="14.7927917"><ele>614.0</ele><time>2026-03-29T08:26:30.342Z</time></trkpt><trkpt lat="37.1914717" lon="14.7929483"><ele>612.3333333333333</ele><time>2026-03-29T08:26:31.342Z</time></trkpt><trkpt lat="37.19162" lon="14.7931083"><ele>610.6666666666666</ele><time>2026-03-29T08:26:32.343Z</time></trkpt><trkpt lat="37.1917733" lon="14.7932733"><ele>609.0</ele><time>2026-03-29T08:26:33.343Z</time></trkpt><trkpt lat="37.1919233" lon="14.793445"><ele>608.6666666666666</ele><time>2026-03-29T08:26:34.343Z</time></trkpt><trkpt lat="37.19208" lon="14.793615"><ele>608.3333333333333</ele><time>2026-03-29T08:26:35.342Z</time></trkpt><trkpt lat="37.192235" lon="14.7937917"><ele>608.0</ele><time>2026-03-29T08:26:36.343Z</time></trkpt><trkpt lat="37.1924017" lon="14.7939667"><ele>607.6666666666666</ele><time>2026-03-29T08:26:37.342Z</time></trkpt><trkpt lat="37.1925683" lon="14.7941467"><ele>607.3333333333334</ele><time>2026-03-29T08:26:38.342Z</time></trkpt><trkpt lat="37.1927167" lon="14.7943283"><ele>607.0</ele><time>2026-03-29T08:26:39.342Z</time></trkpt><trkpt lat="37.1928717" lon="14.7945067"><ele>607.3333333333334</ele><time>2026-03-29T08:26:40.343Z</time></trkpt><trkpt lat="37.1930017" lon="14.79469"><ele>607.6666666666666</ele><time>2026-03-29T08:26:41.343Z</time></trkpt><trkpt lat="37.19311" lon="14.794905"><ele>608.0</ele><time>2026-03-29T08:26:42.342Z</time></trkpt><trkpt lat="37.19319" lon="14.795125"><ele>606.0</ele><time>2026-03-29T08:26:43.343Z</time></trkpt><trkpt lat="37.1932433" lon="14.7953567"><ele>604.0</ele><time>2026-03-29T08:26:44.342Z</time></trkpt><trkpt lat="37.19328" lon="14.7956117"><ele>602.0</ele><time>2026-03-29T08:26:45.343Z</time></trkpt><trkpt lat="37.1933017" lon="14.7958767"><ele>600.3333333333333</ele><time>2026-03-29T08:26:46.342Z</time></trkpt><trkpt lat="37.1933083" lon="14.7961417"><ele>598.6666666666666</ele><time>2026-03-29T08:26:47.342Z</time></trkpt><trkpt lat="37.1933033" lon="14.79641"><ele>597.0</ele><time>2026-03-29T08:26:48.342Z</time></trkpt><trkpt lat="37.1932983" lon="14.796685"><ele>596.0</ele><time>2026-03-29T08:26:49.343Z</time></trkpt><trkpt lat="37.1932867" lon="14.79696"><ele>595.0</ele><time>2026-03-29T08:26:50.343Z</time></trkpt><trkpt lat="37.1932817" lon="14.7972383"><ele>594.0</ele><time>2026-03-29T08:26:51.342Z</time></trkpt><trkpt lat="37.1933" lon="14.7975117"><ele>592.0</ele><time>2026-03-29T08:26:52.342Z</time></trkpt><trkpt lat="37.1933367" lon="14.797785"><ele>590.0</ele><time>2026-03-29T08:26:53.342Z</time></trkpt><trkpt lat="37.1933933" lon="14.798045"><ele>588.0</ele><time>2026-03-29T08:26:54.342Z</time></trkpt><trkpt lat="37.19347" lon="14.7983"><ele>583.3333333333334</ele><time>2026-03-29T08:26:55.343Z</time></trkpt><trkpt lat="37.1935667" lon="14.7985483"><ele>578.6666666666667</ele><time>2026-03-29T08:26:56.343Z</time></trkpt><trkpt lat="37.1936633" lon="14.7988017"><ele>574.0</ele><time>2026-03-29T08:26:57.342Z</time></trkpt><trkpt lat="37.19377" lon="14.7990483"><ele>574.0</ele><time>2026-03-29T08:26:58.343Z</time></trkpt><trkpt lat="37.1938717" lon="14.799305"><ele>574.0</ele><time>2026-03-29T08:26:59.343Z</time></trkpt><trkpt lat="37.193965" lon="14.7995633"><ele>573.3333333333334</ele><time>2026-03-29T08:27:00.342Z</time></trkpt><trkpt lat="37.1940633" lon="14.79981"><ele>572.6666666666666</ele><time>2026-03-29T08:27:01.342Z</time></trkpt><trkpt lat="37.1941567" lon="14.80007"><ele>572.0</ele><time>2026-03-29T08:27:02.343Z</time></trkpt><trkpt lat="37.1942417" lon="14.8003267"><ele>572.0</ele><time>2026-03-29T08:27:03.342Z</time></trkpt><trkpt lat="37.1943033" lon="14.8005917"><ele>572.0</ele><time>2026-03-29T08:27:04.343Z</time></trkpt><trkpt lat="37.1943483" lon="14.8008567"><ele>572.0</ele><time>2026-03-29T08:27:05.343Z</time></trkpt><trkpt lat="37.19438" lon="14.8011467"><ele>569.6666666666666</ele><time>2026-03-29T08:27:06.343Z</time></trkpt><trkpt lat="37.1943783" lon="14.801415"><ele>567.3333333333334</ele><time>2026-03-29T08:27:07.343Z</time></trkpt><trkpt lat="37.1943683" lon="14.8016917"><ele>565.0</ele><time>2026-03-29T08:27:08.343Z</time></trkpt><trkpt lat="37.194355" lon="14.801975"><ele>562.5</ele><time>2026-03-29T08:27:09.342Z</time></trkpt><trkpt lat="37.1943433" lon="14.8022567"><ele>560.0</ele><time>2026-03-29T08:27:10.343Z</time></trkpt><trkpt lat="37.19434" lon="14.8025467"><ele>558.6666666666666</ele><time>2026-03-29T08:27:11.343Z</time></trkpt><trkpt lat="37.19434" lon="14.80282"><ele>557.3333333333334</ele><time>2026-03-29T08:27:12.342Z</time></trkpt><trkpt lat="37.194365" lon="14.80309"><ele>556.0</ele><time>2026-03-29T08:27:13.343Z</time></trkpt><trkpt lat="37.194425" lon="14.8033533"><ele>551.3333333333334</ele><time>2026-03-29T08:27:14.342Z</time></trkpt><trkpt lat="37.194505" lon="14.8035917"><ele>546.6666666666666</ele><time>2026-03-29T08:27:15.342Z</time></trkpt><trkpt lat="37.1946033" lon="14.8038333"><ele>542.0</ele><time>2026-03-29T08:27:16.343Z</time></trkpt><trkpt lat="37.1947133" lon="14.8040683"><ele>542.0</ele><time>2026-03-29T08:27:17.342Z</time></trkpt><trkpt lat="37.1948183" lon="14.8043183"><ele>542.0</ele><time>2026-03-29T08:27:18.342Z</time></trkpt><trkpt lat="37.1949183" lon="14.8045617"><ele>542.0</ele><time>2026-03-29T08:27:19.343Z</time></trkpt><trkpt lat="37.1950233" lon="14.8048"><ele>538.6666666666666</ele><time>2026-03-29T08:27:20.343Z</time></trkpt><trkpt lat="37.1951217" lon="14.8050433"><ele>535.3333333333334</ele><time>2026-03-29T08:27:21.343Z</time></trkpt><trkpt lat="37.19522" lon="14.8052867"><ele>532.0</ele><time>2026-03-29T08:27:22.342Z</time></trkpt><trkpt lat="37.195325" lon="14.8055267"><ele>532.0</ele><time>2026-03-29T08:27:23.342Z</time></trkpt><trkpt lat="37.19542" lon="14.805765"><ele>532.0</ele><time>2026-03-29T08:27:24.343Z</time></trkpt><trkpt lat="37.1955083" lon="14.806005"><ele>532.0</ele><time>2026-03-29T08:27:25.342Z</time></trkpt><trkpt lat="37.1956033" lon="14.8062267"><ele>531.3333333333334</ele><time>2026-03-29T08:27:26.343Z</time></trkpt><trkpt lat="37.195695" lon="14.80645"><ele>530.6666666666666</ele><time>2026-03-29T08:27:27.343Z</time></trkpt><trkpt lat="37.195795" lon="14.806665"><ele>530.0</ele><time>2026-03-29T08:27:28.343Z</time></trkpt><trkpt lat="37.1958917" lon="14.80688"><ele>530.0</ele><time>2026-03-29T08:27:29.343Z</time></trkpt><trkpt lat="37.195975" lon="14.8071"><ele>530.0</ele><time>2026-03-29T08:27:30.343Z</time></trkpt><trkpt lat="37.1960667" lon="14.807315"><ele>530.0</ele><time>2026-03-29T08:27:31.343Z</time></trkpt><trkpt lat="37.196155" lon="14.8075283"><ele>526.3333333333333</ele><time>2026-03-29T08:27:32.342Z</time></trkpt><trkpt lat="37.1962417" lon="14.8077417"><ele>522.6666666666666</ele><time>2026-03-29T08:27:33.343Z</time></trkpt><trkpt lat="37.19633" lon="14.8079533"><ele>519.0</ele><time>2026-03-29T08:27:34.342Z</time></trkpt><trkpt lat="37.1964067" lon="14.8081733"><ele>519.0</ele><time>2026-03-29T08:27:35.343Z</time></trkpt><trkpt lat="37.1964783" lon="14.8083783"><ele>519.0</ele><time>2026-03-29T08:27:36.342Z</time></trkpt><trkpt lat="37.1965467" lon="14.8085767"><ele>519.0</ele><time>2026-03-29T08:27:37.343Z</time></trkpt><trkpt lat="37.1966067" lon="14.808795"><ele>520.6666666666666</ele><time>2026-03-29T08:27:38.342Z</time></trkpt><trkpt lat="37.196665" lon="14.80902"><ele>522.3333333333333</ele><time>2026-03-29T08:27:39.343Z</time></trkpt><trkpt lat="37.1967183" lon="14.80926"><ele>524.0</ele><time>2026-03-29T08:27:40.342Z</time></trkpt><trkpt lat="37.1967717" lon="14.809505"><ele>520.3333333333333</ele><time>2026-03-29T08:27:41.343Z</time></trkpt><trkpt lat="37.1968183" lon="14.8097533"><ele>516.6666666666666</ele><time>2026-03-29T08:27:42.342Z</time></trkpt><trkpt lat="37.1968683" lon="14.8100017"><ele>513.0</ele><time>2026-03-29T08:27:43.343Z</time></trkpt><trkpt lat="37.1969183" lon="14.8102433"><ele>510.66666666666663</ele><time>2026-03-29T08:27:44.343Z</time></trkpt><trkpt lat="37.19697" lon="14.8105017"><ele>508.3333333333333</ele><time>2026-03-29T08:27:45.343Z</time></trkpt><trkpt lat="37.19702" lon="14.8107583"><ele>506.0</ele><time>2026-03-29T08:27:46.342Z</time></trkpt><trkpt lat="37.1970767" lon="14.81102"><ele>503.3333333333333</ele><time>2026-03-29T08:27:47.343Z</time></trkpt><trkpt lat="37.1971333" lon="14.81129"><ele>500.66666666666663</ele><time>2026-03-29T08:27:48.342Z</time></trkpt><trkpt lat="37.1972017" lon="14.8115467"><ele>498.0</ele><time>2026-03-29T08:27:49.342Z</time></trkpt><trkpt lat="37.1972683" lon="14.8118017"><ele>500.66666666666663</ele><time>2026-03-29T08:27:50.342Z</time></trkpt><trkpt lat="37.19735" lon="14.81206"><ele>503.3333333333333</ele><time>2026-03-29T08:27:51.342Z</time></trkpt><trkpt lat="37.1974467" lon="14.8123067"><ele>506.0</ele><time>2026-03-29T08:27:52.342Z</time></trkpt><trkpt lat="37.1975583" lon="14.81255"><ele>506.3333333333333</ele><time>2026-03-29T08:27:53.342Z</time></trkpt><trkpt lat="37.1976917" lon="14.8127633"><ele>506.66666666666663</ele><time>2026-03-29T08:27:54.342Z</time></trkpt><trkpt lat="37.19784" lon="14.81297"><ele>507.0</ele><time>2026-03-29T08:27:55.343Z</time></trkpt><trkpt lat="37.198005" lon="14.8131633"><ele>505.66666666666663</ele><time>2026-03-29T08:27:56.343Z</time></trkpt><trkpt lat="37.198175" lon="14.8133483"><ele>504.3333333333333</ele><time>2026-03-29T08:27:57.342Z</time></trkpt><trkpt lat="37.1983467" lon="14.8135283"><ele>503.0</ele><time>2026-03-29T08:27:58.342Z</time></trkpt><trkpt lat="37.198525" lon="14.8137017"><ele>503.0</ele><time>2026-03-29T08:27:59.342Z</time></trkpt><trkpt lat="37.1986967" lon="14.8138767"><ele>503.0</ele><time>2026-03-29T08:28:00.343Z</time></trkpt><trkpt lat="37.1988683" lon="14.814055"><ele>503.0</ele><time>2026-03-29T08:28:01.342Z</time></trkpt><trkpt lat="37.1990417" lon="14.8142317"><ele>502.66666666666663</ele><time>2026-03-29T08:28:02.343Z</time></trkpt><trkpt lat="37.199215" lon="14.8144083"><ele>502.33333333333337</ele><time>2026-03-29T08:28:03.342Z</time></trkpt><trkpt lat="37.1993917" lon="14.814585"><ele>502.0</ele><time>2026-03-29T08:28:04.342Z</time></trkpt><trkpt lat="37.1995633" lon="14.8147567"><ele>502.0</ele><time>2026-03-29T08:28:05.343Z</time></trkpt><trkpt lat="37.1997233" lon="14.8149217"><ele>502.0</ele><time>2026-03-29T08:28:06.343Z</time></trkpt><trkpt lat="37.1998817" lon="14.8150917"><ele>502.0</ele><time>2026-03-29T08:28:07.342Z</time></trkpt><trkpt lat="37.200045" lon="14.8152717"><ele>499.33333333333337</ele><time>2026-03-29T08:28:08.342Z</time></trkpt><trkpt lat="37.200195" lon="14.8154633"><ele>496.66666666666663</ele><time>2026-03-29T08:28:09.343Z</time></trkpt><trkpt lat="37.2003483" lon="14.8156617"><ele>494.0</ele><time>2026-03-29T08:28:10.343Z</time></trkpt><trkpt lat="37.2005083" lon="14.8158683"><ele>494.0</ele><time>2026-03-29T08:28:11.343Z</time></trkpt><trkpt lat="37.2006633" lon="14.8160833"><ele>494.0</ele><time>2026-03-29T08:28:12.343Z</time></trkpt><trkpt lat="37.2008133" lon="14.8163017"><ele>492.0</ele><time>2026-03-29T08:28:13.343Z</time></trkpt><trkpt lat="37.2009567" lon="14.816515"><ele>490.0</ele><time>2026-03-29T08:28:14.342Z</time></trkpt><trkpt lat="37.2010967" lon="14.8167283"><ele>488.0</ele><time>2026-03-29T08:28:15.342Z</time></trkpt><trkpt lat="37.201235" lon="14.8169383"><ele>487.0</ele><time>2026-03-29T08:28:16.342Z</time></trkpt><trkpt lat="37.2013683" lon="14.817145"><ele>486.0</ele><time>2026-03-29T08:28:17.343Z</time></trkpt><trkpt lat="37.2015117" lon="14.8173483"><ele>485.0</ele><time>2026-03-29T08:28:18.343Z</time></trkpt><trkpt lat="37.201655" lon="14.8175483"><ele>482.66666666666663</ele><time>2026-03-29T08:28:19.343Z</time></trkpt><trkpt lat="37.2017983" lon="14.8177483"><ele>480.33333333333337</ele><time>2026-03-29T08:28:20.343Z</time></trkpt><trkpt lat="37.2019517" lon="14.8179383"><ele>478.0</ele><time>2026-03-29T08:28:21.342Z</time></trkpt><trkpt lat="37.20211" lon="14.8181217"><ele>478.0</ele><time>2026-03-29T08:28:22.343Z</time></trkpt><trkpt lat="37.2022667" lon="14.8183"><ele>478.0</ele><time>2026-03-29T08:28:23.343Z</time></trkpt><trkpt lat="37.20242" lon="14.8184783"><ele>478.0</ele><time>2026-03-29T08:28:24.343Z</time></trkpt><trkpt lat="37.20258" lon="14.8186633"><ele>477.0</ele><time>2026-03-29T08:28:25.342Z</time></trkpt><trkpt lat="37.20274" lon="14.81884"><ele>476.0</ele><time>2026-03-29T08:28:26.342Z</time></trkpt><trkpt lat="37.2029017" lon="14.8190233"><ele>475.0</ele><time>2026-03-29T08:28:27.343Z</time></trkpt><trkpt lat="37.203065" lon="14.819205"><ele>472.6666666666667</ele><time>2026-03-29T08:28:28.343Z</time></trkpt><trkpt lat="37.2032267" lon="14.8193833"><ele>470.33333333333337</ele><time>2026-03-29T08:28:29.344Z</time></trkpt><trkpt lat="37.20338" lon="14.819555"><ele>468.0</ele><time>2026-03-29T08:28:30.344Z</time></trkpt><trkpt lat="37.20353" lon="14.819725"><ele>468.0</ele><time>2026-03-29T08:28:31.343Z</time></trkpt><trkpt lat="37.2036833" lon="14.819895"><ele>468.0</ele><time>2026-03-29T08:28:32.344Z</time></trkpt><trkpt lat="37.20383" lon="14.8200683"><ele>468.0</ele><time>2026-03-29T08:28:33.343Z</time></trkpt><trkpt lat="37.2039767" lon="14.820235"><ele>466.0</ele><time>2026-03-29T08:28:34.343Z</time></trkpt><trkpt lat="37.204125" lon="14.8203917"><ele>464.0</ele><time>2026-03-29T08:28:35.343Z</time></trkpt><trkpt lat="37.2042783" lon="14.82056"><ele>462.0</ele><time>2026-03-29T08:28:36.343Z</time></trkpt><trkpt lat="37.2044333" lon="14.8207267"><ele>462.0</ele><time>2026-03-29T08:28:37.343Z</time></trkpt><trkpt lat="37.20459" lon="14.8209"><ele>462.0</ele><time>2026-03-29T08:28:38.343Z</time></trkpt><trkpt lat="37.204745" lon="14.8210733"><ele>462.0</ele><time>2026-03-29T08:28:39.344Z</time></trkpt><trkpt lat="37.204905" lon="14.8212683"><ele>460.66666666666663</ele><time>2026-03-29T08:28:40.344Z</time></trkpt><trkpt lat="37.2050567" lon="14.8214667"><ele>459.3333333333333</ele><time>2026-03-29T08:28:41.344Z</time></trkpt><trkpt lat="37.2052133" lon="14.821665"><ele>458.0</ele><time>2026-03-29T08:28:42.343Z</time></trkpt><trkpt lat="37.2053667" lon="14.821865"><ele>457.3333333333333</ele><time>2026-03-29T08:28:43.344Z</time></trkpt><trkpt lat="37.2055183" lon="14.8220667"><ele>456.66666666666663</ele><time>2026-03-29T08:28:44.343Z</time></trkpt><trkpt lat="37.20567" lon="14.822265"><ele>456.0</ele><time>2026-03-29T08:28:45.344Z</time></trkpt><trkpt lat="37.2058167" lon="14.8224567"><ele>455.66666666666663</ele><time>2026-03-29T08:28:46.344Z</time></trkpt><trkpt lat="37.2059567" lon="14.8226433"><ele>455.3333333333333</ele><time>2026-03-29T08:28:47.344Z</time></trkpt><trkpt lat="37.206095" lon="14.82283"><ele>455.0</ele><time>2026-03-29T08:28:48.343Z</time></trkpt><trkpt lat="37.2062383" lon="14.82302"><ele>455.0</ele><time>2026-03-29T08:28:49.343Z</time></trkpt><trkpt lat="37.20638" lon="14.8232033"><ele>455.0</ele><time>2026-03-29T08:28:50.344Z</time></trkpt><trkpt lat="37.2065267" lon="14.823395"><ele>455.0</ele><time>2026-03-29T08:28:51.344Z</time></trkpt><trkpt lat="37.2066633" lon="14.823575"><ele>453.66666666666663</ele><time>2026-03-29T08:28:52.344Z</time></trkpt><trkpt lat="37.2067967" lon="14.8237583"><ele>452.33333333333337</ele><time>2026-03-29T08:28:53.344Z</time></trkpt><trkpt lat="37.20692" lon="14.8239367"><ele>451.0</ele><time>2026-03-29T08:28:54.343Z</time></trkpt><trkpt lat="37.2070483" lon="14.8241133"><ele>451.0</ele><time>2026-03-29T08:28:55.344Z</time></trkpt><trkpt lat="37.2071783" lon="14.82429"><ele>451.0</ele><time>2026-03-29T08:28:56.343Z</time></trkpt><trkpt lat="37.2073067" lon="14.8244533"><ele>451.0</ele><time>2026-03-29T08:28:57.343Z</time></trkpt><trkpt lat="37.20744" lon="14.824615"><ele>451.0</ele><time>2026-03-29T08:28:58.343Z</time></trkpt><trkpt lat="37.2075767" lon="14.8247783"><ele>451.0</ele><time>2026-03-29T08:28:59.344Z</time></trkpt><trkpt lat="37.2077083" lon="14.8249417"><ele>451.0</ele><time>2026-03-29T08:29:00.344Z</time></trkpt><trkpt lat="37.20784" lon="14.8251133"><ele>451.0</ele><time>2026-03-29T08:29:01.344Z</time></trkpt><trkpt lat="37.2079783" lon="14.8252967"><ele>451.0</ele><time>2026-03-29T08:29:02.343Z</time></trkpt><trkpt lat="37.2081217" lon="14.8254833"><ele>451.0</ele><time>2026-03-29T08:29:03.344Z</time></trkpt><trkpt lat="37.2082667" lon="14.82568"><ele>450.6666666666667</ele><time>2026-03-29T08:29:04.343Z</time></trkpt><trkpt lat="37.2084067" lon="14.82588"><ele>450.33333333333337</ele><time>2026-03-29T08:29:05.344Z</time></trkpt><trkpt lat="37.2085483" lon="14.8260833"><ele>450.0</ele><time>2026-03-29T08:29:06.344Z</time></trkpt><trkpt lat="37.2086833" lon="14.82628"><ele>449.66666666666663</ele><time>2026-03-29T08:29:07.343Z</time></trkpt><trkpt lat="37.2088167" lon="14.8264833"><ele>449.3333333333333</ele><time>2026-03-29T08:29:08.343Z</time></trkpt><trkpt lat="37.2089467" lon="14.8266833"><ele>449.0</ele><time>2026-03-29T08:29:09.344Z</time></trkpt><trkpt lat="37.2090767" lon="14.826885"><ele>449.0</ele><time>2026-03-29T08:29:10.343Z</time></trkpt><trkpt lat="37.2092" lon="14.8270883"><ele>449.0</ele><time>2026-03-29T08:29:11.344Z</time></trkpt><trkpt lat="37.2093217" lon="14.8272967"><ele>449.0</ele><time>2026-03-29T08:29:12.344Z</time></trkpt><trkpt lat="37.2094417" lon="14.8275133"><ele>450.0</ele><time>2026-03-29T08:29:13.344Z</time></trkpt><trkpt lat="37.2095617" lon="14.8277233"><ele>451.0</ele><time>2026-03-29T08:29:14.344Z</time></trkpt><trkpt lat="37.209675" lon="14.8279383"><ele>452.0</ele><time>2026-03-29T08:29:15.344Z</time></trkpt><trkpt lat="37.2097867" lon="14.8281483"><ele>450.0</ele><time>2026-03-29T08:29:16.343Z</time></trkpt><trkpt lat="37.2098983" lon="14.82836"><ele>448.0</ele><time>2026-03-29T08:29:17.344Z</time></trkpt><trkpt lat="37.2100133" lon="14.828575"><ele>446.0</ele><time>2026-03-29T08:29:18.344Z</time></trkpt><trkpt lat="37.210125" lon="14.8287917"><ele>446.0</ele><time>2026-03-29T08:29:19.343Z</time></trkpt><trkpt lat="37.2102383" lon="14.8290033"><ele>446.0</ele><time>2026-03-29T08:29:20.343Z</time></trkpt><trkpt lat="37.210355" lon="14.8292133"><ele>446.0</ele><time>2026-03-29T08:29:21.344Z</time></trkpt><trkpt lat="37.2104717" lon="14.8294317"><ele>446.66666666666663</ele><time>2026-03-29T08:29:22.344Z</time></trkpt><trkpt lat="37.2105917" lon="14.8296517"><ele>447.33333333333337</ele><time>2026-03-29T08:29:23.343Z</time></trkpt><trkpt lat="37.2107083" lon="14.82987"><ele>448.0</ele><time>2026-03-29T08:29:24.343Z</time></trkpt><trkpt lat="37.2108283" lon="14.83009"><ele>445.6666666666667</ele><time>2026-03-29T08:29:25.343Z</time></trkpt><trkpt lat="37.2109517" lon="14.8303117"><ele>443.33333333333337</ele><time>2026-03-29T08:29:26.344Z</time></trkpt><trkpt lat="37.2110767" lon="14.8305383"><ele>441.0</ele><time>2026-03-29T08:29:27.344Z</time></trkpt><trkpt lat="37.21119" lon="14.8307633"><ele>443.0</ele><time>2026-03-29T08:29:28.344Z</time></trkpt><trkpt lat="37.2113167" lon="14.8309867"><ele>445.0</ele><time>2026-03-29T08:29:29.343Z</time></trkpt><trkpt lat="37.211435" lon="14.831215"><ele>447.0</ele><time>2026-03-29T08:29:30.344Z</time></trkpt><trkpt lat="37.2115483" lon="14.8314433"><ele>444.0</ele><time>2026-03-29T08:29:31.344Z</time></trkpt><trkpt lat="37.2116617" lon="14.8316583"><ele>441.0</ele><time>2026-03-29T08:29:32.344Z</time></trkpt><trkpt lat="37.2117783" lon="14.8318733"><ele>438.0</ele><time>2026-03-29T08:29:33.343Z</time></trkpt><trkpt lat="37.211895" lon="14.8320883"><ele>438.0</ele><time>2026-03-29T08:29:34.343Z</time></trkpt><trkpt lat="37.2120133" lon="14.8323"><ele>438.0</ele><time>2026-03-29T08:29:35.344Z</time></trkpt><trkpt lat="37.21213" lon="14.8325133"><ele>438.0</ele><time>2026-03-29T08:29:36.343Z</time></trkpt><trkpt lat="37.21225" lon="14.8327267"><ele>435.66666666666663</ele><time>2026-03-29T08:29:37.344Z</time></trkpt><trkpt lat="37.2123717" lon="14.8329483"><ele>433.3333333333333</ele><time>2026-03-29T08:29:38.343Z</time></trkpt><trkpt lat="37.2124883" lon="14.8331617"><ele>431.0</ele><time>2026-03-29T08:29:39.343Z</time></trkpt><trkpt lat="37.212605" lon="14.8333783"><ele>433.3333333333333</ele><time>2026-03-29T08:29:40.343Z</time></trkpt><trkpt lat="37.2127117" lon="14.8335967"><ele>435.66666666666663</ele><time>2026-03-29T08:29:41.344Z</time></trkpt><trkpt lat="37.21282" lon="14.8338233"><ele>438.0</ele><time>2026-03-29T08:29:42.343Z</time></trkpt><trkpt lat="37.212925" lon="14.83405"><ele>438.0</ele><time>2026-03-29T08:29:43.343Z</time></trkpt><trkpt lat="37.2130333" lon="14.8342783"><ele>438.0</ele><time>2026-03-29T08:29:44.343Z</time></trkpt><trkpt lat="37.2131367" lon="14.834505"><ele>438.0</ele><time>2026-03-29T08:29:45.343Z</time></trkpt><trkpt lat="37.2132317" lon="14.8347467"><ele>435.66666666666663</ele><time>2026-03-29T08:29:46.344Z</time></trkpt><trkpt lat="37.213325" lon="14.8349867"><ele>433.3333333333333</ele><time>2026-03-29T08:29:47.344Z</time></trkpt><trkpt lat="37.2134117" lon="14.835225"><ele>431.0</ele><time>2026-03-29T08:29:48.344Z</time></trkpt><trkpt lat="37.2135033" lon="14.8354633"><ele>431.0</ele><time>2026-03-29T08:29:49.343Z</time></trkpt><trkpt lat="37.213595" lon="14.83571"><ele>431.0</ele><time>2026-03-29T08:29:50.343Z</time></trkpt><trkpt lat="37.2136833" lon="14.8359533"><ele>431.0</ele><time>2026-03-29T08:29:51.343Z</time></trkpt><trkpt lat="37.2137683" lon="14.8361833"><ele>432.3333333333333</ele><time>2026-03-29T08:29:52.344Z</time></trkpt><trkpt lat="37.2138617" lon="14.8364117"><ele>433.66666666666663</ele><time>2026-03-29T08:29:53.343Z</time></trkpt><trkpt lat="37.2139517" lon="14.8366467"><ele>435.0</ele><time>2026-03-29T08:29:54.344Z</time></trkpt><trkpt lat="37.2140433" lon="14.8368867"><ele>431.0</ele><time>2026-03-29T08:29:55.344Z</time></trkpt><trkpt lat="37.2141317" lon="14.8371267"><ele>427.0</ele><time>2026-03-29T08:29:56.343Z</time></trkpt><trkpt lat="37.2142183" lon="14.8373717"><ele>423.0</ele><time>2026-03-29T08:29:57.344Z</time></trkpt><trkpt lat="37.21431" lon="14.83761"><ele>422.66666666666663</ele><time>2026-03-29T08:29:58.343Z</time></trkpt><trkpt lat="37.2143983" lon="14.8378517"><ele>422.3333333333333</ele><time>2026-03-29T08:29:59.343Z</time></trkpt><trkpt lat="37.2144883" lon="14.8380967"><ele>422.0</ele><time>2026-03-29T08:30:00.343Z</time></trkpt><trkpt lat="37.2145733" lon="14.8383433"><ele>421.3333333333333</ele><time>2026-03-29T08:30:01.344Z</time></trkpt><trkpt lat="37.2146617" lon="14.8386"><ele>420.66666666666663</ele><time>2026-03-29T08:30:02.344Z</time></trkpt><trkpt lat="37.21474" lon="14.8388517"><ele>420.0</ele><time>2026-03-29T08:30:03.343Z</time></trkpt><trkpt lat="37.214805" lon="14.8391133"><ele>417.0</ele><time>2026-03-29T08:30:04.343Z</time></trkpt><trkpt lat="37.2148633" lon="14.8393767"><ele>414.0</ele><time>2026-03-29T08:30:05.343Z</time></trkpt><trkpt lat="37.2149017" lon="14.8396333"><ele>411.0</ele><time>2026-03-29T08:30:06.343Z</time></trkpt><trkpt lat="37.2149167" lon="14.8398933"><ele>410.0</ele><time>2026-03-29T08:30:07.344Z</time></trkpt><trkpt lat="37.21491" lon="14.84014"><ele>409.0</ele><time>2026-03-29T08:30:08.344Z</time></trkpt><trkpt lat="37.2148833" lon="14.8403933"><ele>408.0</ele><time>2026-03-29T08:30:09.344Z</time></trkpt><trkpt lat="37.2148433" lon="14.8406333"><ele>410.0</ele><time>2026-03-29T08:30:10.343Z</time></trkpt><trkpt lat="37.2148" lon="14.84088"><ele>412.0</ele><time>2026-03-29T08:30:11.343Z</time></trkpt><trkpt lat="37.2147533" lon="14.8411267"><ele>414.0</ele><time>2026-03-29T08:30:12.344Z</time></trkpt><trkpt lat="37.2147017" lon="14.841375"><ele>414.0</ele><time>2026-03-29T08:30:13.343Z</time></trkpt><trkpt lat="37.2146417" lon="14.8416267"><ele>414.0</ele><time>2026-03-29T08:30:14.344Z</time></trkpt><trkpt lat="37.2145883" lon="14.8418717"><ele>414.0</ele><time>2026-03-29T08:30:15.344Z</time></trkpt><trkpt lat="37.214535" lon="14.8421283"><ele>410.66666666666663</ele><time>2026-03-29T08:30:16.343Z</time></trkpt><trkpt lat="37.2144933" lon="14.84239"><ele>407.3333333333333</ele><time>2026-03-29T08:30:17.343Z</time></trkpt><trkpt lat="37.2144383" lon="14.842655"><ele>404.0</ele><time>2026-03-29T08:30:18.343Z</time></trkpt><trkpt lat="37.2143883" lon="14.842915"><ele>401.3333333333333</ele><time>2026-03-29T08:30:19.343Z</time></trkpt><trkpt lat="37.21433" lon="14.8431783"><ele>398.66666666666663</ele><time>2026-03-29T08:30:20.344Z</time></trkpt><trkpt lat="37.214275" lon="14.8434367"><ele>396.0</ele><time>2026-03-29T08:30:21.344Z</time></trkpt><trkpt lat="37.2142217" lon="14.84369"><ele>394.0</ele><time>2026-03-29T08:30:22.343Z</time></trkpt><trkpt lat="37.21417" lon="14.8439533"><ele>392.0</ele><time>2026-03-29T08:30:23.344Z</time></trkpt><trkpt lat="37.21413" lon="14.844215"><ele>390.0</ele><time>2026-03-29T08:30:24.343Z</time></trkpt><trkpt lat="37.214095" lon="14.8444883"><ele>388.66666666666663</ele><time>2026-03-29T08:30:25.343Z</time></trkpt><trkpt lat="37.2140733" lon="14.8447617"><ele>387.3333333333333</ele><time>2026-03-29T08:30:26.343Z</time></trkpt><trkpt lat="37.214065" lon="14.845035"><ele>386.0</ele><time>2026-03-29T08:30:27.343Z</time></trkpt><trkpt lat="37.2140783" lon="14.8453"><ele>386.0</ele><time>2026-03-29T08:30:28.344Z</time></trkpt><trkpt lat="37.2141117" lon="14.8455633"><ele>386.0</ele><time>2026-03-29T08:30:29.343Z</time></trkpt><trkpt lat="37.2141467" lon="14.8458267"><ele>386.0</ele><time>2026-03-29T08:30:30.344Z</time></trkpt><trkpt lat="37.2141967" lon="14.846085"><ele>389.0</ele><time>2026-03-29T08:30:31.343Z</time></trkpt><trkpt lat="37.21428" lon="14.8463317"><ele>392.0</ele><time>2026-03-29T08:30:32.344Z</time></trkpt><trkpt lat="37.2143817" lon="14.846565"><ele>395.0</ele><time>2026-03-29T08:30:33.344Z</time></trkpt><trkpt lat="37.2145" lon="14.8467733"><ele>396.3333333333333</ele><time>2026-03-29T08:30:34.343Z</time></trkpt><trkpt lat="37.2146233" lon="14.846975"><ele>397.66666666666663</ele><time>2026-03-29T08:30:35.344Z</time></trkpt><trkpt lat="37.214755" lon="14.8471667"><ele>399.0</ele><time>2026-03-29T08:30:36.344Z</time></trkpt><trkpt lat="37.2148983" lon="14.84735"><ele>395.66666666666663</ele><time>2026-03-29T08:30:37.344Z</time></trkpt><trkpt lat="37.2150483" lon="14.8475183"><ele>392.3333333333333</ele><time>2026-03-29T08:30:38.343Z</time></trkpt><trkpt lat="37.2152083" lon="14.8476817"><ele>389.0</ele><time>2026-03-29T08:30:39.344Z</time></trkpt><trkpt lat="37.2153883" lon="14.8478483"><ele>389.0</ele><time>2026-03-29T08:30:40.344Z</time></trkpt><trkpt lat="37.215565" lon="14.848015"><ele>389.0</ele><time>2026-03-29T08:30:41.343Z</time></trkpt><trkpt lat="37.2157433" lon="14.8481767"><ele>389.0</ele><time>2026-03-29T08:30:42.343Z</time></trkpt><trkpt lat="37.21592" lon="14.848335"><ele>386.66666666666663</ele><time>2026-03-29T08:30:43.344Z</time></trkpt><trkpt lat="37.21609" lon="14.84849"><ele>384.3333333333333</ele><time>2026-03-29T08:30:44.344Z</time></trkpt><trkpt lat="37.2162617" lon="14.8486417"><ele>382.0</ele><time>2026-03-29T08:30:45.343Z</time></trkpt><trkpt lat="37.2164283" lon="14.8487917"><ele>379.66666666666663</ele><time>2026-03-29T08:30:46.344Z</time></trkpt><trkpt lat="37.2165967" lon="14.848945"><ele>377.3333333333333</ele><time>2026-03-29T08:30:47.344Z</time></trkpt><trkpt lat="37.2167583" lon="14.8490967"><ele>375.0</ele><time>2026-03-29T08:30:48.343Z</time></trkpt><trkpt lat="37.2169267" lon="14.84925"><ele>375.0</ele><time>2026-03-29T08:30:49.344Z</time></trkpt><trkpt lat="37.2170917" lon="14.849405"><ele>375.0</ele><time>2026-03-29T08:30:50.343Z</time></trkpt><trkpt lat="37.217255" lon="14.8495667"><ele>375.0</ele><time>2026-03-29T08:30:51.343Z</time></trkpt><trkpt lat="37.217415" lon="14.84976"><ele>372.0</ele><time>2026-03-29T08:30:52.344Z</time></trkpt><trkpt lat="37.2175683" lon="14.84996"><ele>369.0</ele><time>2026-03-29T08:30:53.344Z</time></trkpt><trkpt lat="37.21771" lon="14.8501667"><ele>366.0</ele><time>2026-03-29T08:30:54.343Z</time></trkpt><trkpt lat="37.2178283" lon="14.850375"><ele>365.6666666666667</ele><time>2026-03-29T08:30:55.344Z</time></trkpt><trkpt lat="37.217945" lon="14.8505983"><ele>365.33333333333337</ele><time>2026-03-29T08:30:56.344Z</time></trkpt><trkpt lat="37.218045" lon="14.8508267"><ele>365.0</ele><time>2026-03-29T08:30:57.344Z</time></trkpt><trkpt lat="37.21814" lon="14.8510667"><ele>363.0</ele><time>2026-03-29T08:30:58.343Z</time></trkpt><trkpt lat="37.218225" lon="14.851325"><ele>361.0</ele><time>2026-03-29T08:30:59.344Z</time></trkpt><trkpt lat="37.21829" lon="14.8515833"><ele>359.0</ele><time>2026-03-29T08:31:00.343Z</time></trkpt><trkpt lat="37.2183467" lon="14.851835"><ele>358.6666666666667</ele><time>2026-03-29T08:31:01.344Z</time></trkpt><trkpt lat="37.2183933" lon="14.8520833"><ele>358.3333333333333</ele><time>2026-03-29T08:31:02.344Z</time></trkpt><trkpt lat="37.2184217" lon="14.8523283"><ele>358.0</ele><time>2026-03-29T08:31:03.344Z</time></trkpt><trkpt lat="37.2184383" lon="14.852575"><ele>356.66666666666663</ele><time>2026-03-29T08:31:04.344Z</time></trkpt><trkpt lat="37.2184533" lon="14.8528167"><ele>355.3333333333333</ele><time>2026-03-29T08:31:05.344Z</time></trkpt><trkpt lat="37.218465" lon="14.8530583"><ele>354.0</ele><time>2026-03-29T08:31:06.343Z</time></trkpt><trkpt lat="37.218475" lon="14.8533183"><ele>353.3333333333333</ele><time>2026-03-29T08:31:07.344Z</time></trkpt><trkpt lat="37.2184933" lon="14.853575"><ele>352.66666666666663</ele><time>2026-03-29T08:31:08.343Z</time></trkpt><trkpt lat="37.218505" lon="14.8538283"><ele>352.0</ele><time>2026-03-29T08:31:09.343Z</time></trkpt><trkpt lat="37.218515" lon="14.854075"><ele>352.0</ele><time>2026-03-29T08:31:10.343Z</time></trkpt><trkpt lat="37.2185217" lon="14.8542867"><ele>352.0</ele><time>2026-03-29T08:31:11.343Z</time></trkpt><trkpt lat="37.2185367" lon="14.854485"><ele>352.0</ele><time>2026-03-29T08:31:12.344Z</time></trkpt><trkpt lat="37.21855" lon="14.854695"><ele>352.0</ele><time>2026-03-29T08:31:13.344Z</time></trkpt><trkpt lat="37.218565" lon="14.8549317"><ele>352.0</ele><time>2026-03-29T08:31:14.344Z</time></trkpt><trkpt lat="37.2185717" lon="14.8551833"><ele>352.0</ele><time>2026-03-29T08:31:15.343Z</time></trkpt><trkpt lat="37.2185817" lon="14.8554433"><ele>351.66666666666663</ele><time>2026-03-29T08:31:16.344Z</time></trkpt><trkpt lat="37.2185917" lon="14.8557183"><ele>351.3333333333333</ele><time>2026-03-29T08:31:17.344Z</time></trkpt><trkpt lat="37.2186" lon="14.8560017"><ele>351.0</ele><time>2026-03-29T08:31:18.343Z</time></trkpt><trkpt lat="37.2186167" lon="14.856275"><ele>350.0</ele><time>2026-03-29T08:31:19.344Z</time></trkpt><trkpt lat="37.2186367" lon="14.8565383"><ele>349.0</ele><time>2026-03-29T08:31:20.344Z</time></trkpt><trkpt lat="37.218645" lon="14.8567933"><ele>348.0</ele><time>2026-03-29T08:31:21.343Z</time></trkpt><trkpt lat="37.2186583" lon="14.8570417"><ele>347.0</ele><time>2026-03-29T08:31:22.343Z</time></trkpt><trkpt lat="37.2186633" lon="14.8572783"><ele>346.0</ele><time>2026-03-29T08:31:23.343Z</time></trkpt><trkpt lat="37.2186717" lon="14.857515"><ele>345.0</ele><time>2026-03-29T08:31:24.343Z</time></trkpt><trkpt lat="37.21869" lon="14.8577467"><ele>344.6666666666667</ele><time>2026-03-29T08:31:25.344Z</time></trkpt><trkpt lat="37.2187067" lon="14.857975"><ele>344.33333333333337</ele><time>2026-03-29T08:31:26.343Z</time></trkpt><trkpt lat="37.218725" lon="14.8582117"><ele>344.0</ele><time>2026-03-29T08:31:27.344Z</time></trkpt><trkpt lat="37.2187433" lon="14.8584433"><ele>342.33333333333337</ele><time>2026-03-29T08:31:28.344Z</time></trkpt><trkpt lat="37.2187533" lon="14.8586783"><ele>340.6666666666667</ele><time>2026-03-29T08:31:29.344Z</time></trkpt><trkpt lat="37.2187617" lon="14.8589133"><ele>339.0</ele><time>2026-03-29T08:31:30.343Z</time></trkpt><trkpt lat="37.218775" lon="14.8591467"><ele>337.3333333333333</ele><time>2026-03-29T08:31:31.344Z</time></trkpt><trkpt lat="37.218785" lon="14.8593717"><ele>335.66666666666663</ele><time>2026-03-29T08:31:32.343Z</time></trkpt><trkpt lat="37.2187967" lon="14.8595933"><ele>334.0</ele><time>2026-03-29T08:31:33.344Z</time></trkpt><trkpt lat="37.2188117" lon="14.8597917"><ele>334.0</ele><time>2026-03-29T08:31:34.343Z</time></trkpt><trkpt lat="37.21882" lon="14.8599883"><ele>334.0</ele><time>2026-03-29T08:31:35.343Z</time></trkpt><trkpt lat="37.2188383" lon="14.8601817"><ele>334.0</ele><time>2026-03-29T08:31:36.344Z</time></trkpt><trkpt lat="37.2188483" lon="14.86039"><ele>332.66666666666663</ele><time>2026-03-29T08:31:37.344Z</time></trkpt><trkpt lat="37.21886" lon="14.8606217"><ele>331.3333333333333</ele><time>2026-03-29T08:31:38.343Z</time></trkpt><trkpt lat="37.2188767" lon="14.86086"><ele>330.0</ele><time>2026-03-29T08:31:39.344Z</time></trkpt><trkpt lat="37.2188917" lon="14.8610983"><ele>330.0</ele><time>2026-03-29T08:31:40.344Z</time></trkpt><trkpt lat="37.2188967" lon="14.8613383"><ele>330.0</ele><time>2026-03-29T08:31:41.344Z</time></trkpt><trkpt lat="37.2189067" lon="14.8615733"><ele>330.0</ele><time>2026-03-29T08:31:42.343Z</time></trkpt><trkpt lat="37.2189183" lon="14.8618067"><ele>329.0</ele><time>2026-03-29T08:31:43.344Z</time></trkpt><trkpt lat="37.2189367" lon="14.8620267"><ele>328.0</ele><time>2026-03-29T08:31:44.343Z</time></trkpt><trkpt lat="37.218945" lon="14.86225"><ele>327.0</ele><time>2026-03-29T08:31:45.344Z</time></trkpt><trkpt lat="37.2189617" lon="14.8624683"><ele>327.0</ele><time>2026-03-29T08:31:46.343Z</time></trkpt><trkpt lat="37.2189683" lon="14.8626883"><ele>327.0</ele><time>2026-03-29T08:31:47.344Z</time></trkpt><trkpt lat="37.2189817" lon="14.8629067"><ele>327.0</ele><time>2026-03-29T08:31:48.344Z</time></trkpt><trkpt lat="37.2189867" lon="14.8631217"><ele>327.0</ele><time>2026-03-29T08:31:49.343Z</time></trkpt><trkpt lat="37.2189967" lon="14.8633517"><ele>327.0</ele><time>2026-03-29T08:31:50.344Z</time></trkpt><trkpt lat="37.21901" lon="14.86358"><ele>327.0</ele><time>2026-03-29T08:31:51.344Z</time></trkpt><trkpt lat="37.2190283" lon="14.8638033"><ele>325.3333333333333</ele><time>2026-03-29T08:31:52.344Z</time></trkpt><trkpt lat="37.2190467" lon="14.8640117"><ele>323.66666666666663</ele><time>2026-03-29T08:31:53.343Z</time></trkpt><trkpt lat="37.2190683" lon="14.8642233"><ele>322.0</ele><time>2026-03-29T08:31:54.344Z</time></trkpt><trkpt lat="37.2190917" lon="14.8644383"><ele>320.3333333333333</ele><time>2026-03-29T08:31:55.343Z</time></trkpt><trkpt lat="37.2191317" lon="14.8646483"><ele>318.6666666666667</ele><time>2026-03-29T08:31:56.343Z</time></trkpt><trkpt lat="37.21918" lon="14.8648567"><ele>317.0</ele><time>2026-03-29T08:31:57.344Z</time></trkpt><trkpt lat="37.219225" lon="14.8650617"><ele>314.0</ele><time>2026-03-29T08:31:58.344Z</time></trkpt><trkpt lat="37.2192717" lon="14.8652817"><ele>311.0</ele><time>2026-03-29T08:31:59.344Z</time></trkpt><trkpt lat="37.2193183" lon="14.8655083"><ele>308.0</ele><time>2026-03-29T08:32:00.343Z</time></trkpt><trkpt lat="37.21937" lon="14.86574"><ele>306.0</ele><time>2026-03-29T08:32:01.343Z</time></trkpt><trkpt lat="37.2194183" lon="14.8659767"><ele>304.0</ele><time>2026-03-29T08:32:02.343Z</time></trkpt><trkpt lat="37.2194767" lon="14.8662233"><ele>302.0</ele><time>2026-03-29T08:32:03.344Z</time></trkpt><trkpt lat="37.21954" lon="14.8664583"><ele>302.0</ele><time>2026-03-29T08:32:04.343Z</time></trkpt><trkpt lat="37.2195967" lon="14.8667033"><ele>302.0</ele><time>2026-03-29T08:32:05.344Z</time></trkpt><trkpt lat="37.219645" lon="14.8669483"><ele>302.0</ele><time>2026-03-29T08:32:06.344Z</time></trkpt><trkpt lat="37.2196983" lon="14.8671833"><ele>300.6666666666667</ele><time>2026-03-29T08:32:07.343Z</time></trkpt><trkpt lat="37.2197633" lon="14.86742"><ele>299.3333333333333</ele><time>2026-03-29T08:32:08.343Z</time></trkpt><trkpt lat="37.2198183" lon="14.86765"><ele>298.0</ele><time>2026-03-29T08:32:09.343Z</time></trkpt><trkpt lat="37.2198683" lon="14.8678817"><ele>298.0</ele><time>2026-03-29T08:32:10.344Z</time></trkpt><trkpt lat="37.21992" lon="14.8681167"><ele>298.0</ele><time>2026-03-29T08:32:11.344Z</time></trkpt><trkpt lat="37.2199683" lon="14.86835"><ele>298.0</ele><time>2026-03-29T08:32:12.344Z</time></trkpt><trkpt lat="37.2200167" lon="14.86858"><ele>298.0</ele><time>2026-03-29T08:32:13.344Z</time></trkpt><trkpt lat="37.2200683" lon="14.868815"><ele>298.0</ele><time>2026-03-29T08:32:14.344Z</time></trkpt><trkpt lat="37.22012" lon="14.86905"><ele>298.0</ele><time>2026-03-29T08:32:15.344Z</time></trkpt><trkpt lat="37.22017" lon="14.8692917"><ele>295.66666666666663</ele><time>2026-03-29T08:32:16.344Z</time></trkpt><trkpt lat="37.2202183" lon="14.8695283"><ele>293.3333333333333</ele><time>2026-03-29T08:32:17.344Z</time></trkpt><trkpt lat="37.2202683" lon="14.8697617"><ele>291.0</ele><time>2026-03-29T08:32:18.343Z</time></trkpt><trkpt lat="37.2203183" lon="14.8700033"><ele>291.0</ele><time>2026-03-29T08:32:19.343Z</time></trkpt><trkpt lat="37.2203667" lon="14.8702383"><ele>291.0</ele><time>2026-03-29T08:32:20.343Z</time></trkpt><trkpt lat="37.22042" lon="14.8704583"><ele>291.0</ele><time>2026-03-29T08:32:21.344Z</time></trkpt><trkpt lat="37.2204717" lon="14.8706667"><ele>291.0</ele><time>2026-03-29T08:32:22.344Z</time></trkpt><trkpt lat="37.2205183" lon="14.8708767"><ele>291.0</ele><time>2026-03-29T08:32:23.343Z</time></trkpt><trkpt lat="37.22056" lon="14.871085"><ele>291.0</ele><time>2026-03-29T08:32:24.344Z</time></trkpt><trkpt lat="37.2206067" lon="14.871295"><ele>291.6666666666667</ele><time>2026-03-29T08:32:25.343Z</time></trkpt><trkpt lat="37.2206517" lon="14.87151"><ele>292.33333333333337</ele><time>2026-03-29T08:32:26.343Z</time></trkpt><trkpt lat="37.2206967" lon="14.8717167"><ele>293.0</ele><time>2026-03-29T08:32:27.343Z</time></trkpt><trkpt lat="37.2207467" lon="14.8719217"><ele>291.6666666666667</ele><time>2026-03-29T08:32:28.344Z</time></trkpt><trkpt lat="37.2207867" lon="14.872135"><ele>290.3333333333333</ele><time>2026-03-29T08:32:29.343Z</time></trkpt><trkpt lat="37.2208333" lon="14.872345"><ele>289.0</ele><time>2026-03-29T08:32:30.343Z</time></trkpt><trkpt lat="37.2208833" lon="14.8725517"><ele>288.66666666666663</ele><time>2026-03-29T08:32:31.343Z</time></trkpt><trkpt lat="37.2209317" lon="14.8727667"><ele>288.3333333333333</ele><time>2026-03-29T08:32:32.343Z</time></trkpt><trkpt lat="37.220975" lon="14.8729883"><ele>288.0</ele><time>2026-03-29T08:32:33.344Z</time></trkpt><trkpt lat="37.2210317" lon="14.8732183"><ele>287.0</ele><time>2026-03-29T08:32:34.344Z</time></trkpt><trkpt lat="37.22108" lon="14.8734417"><ele>286.0</ele><time>2026-03-29T08:32:35.344Z</time></trkpt><trkpt lat="37.2211283" lon="14.8736667"><ele>285.0</ele><time>2026-03-29T08:32:36.344Z</time></trkpt><trkpt lat="37.22118" lon="14.8738933"><ele>285.0</ele><time>2026-03-29T08:32:37.343Z</time></trkpt><trkpt lat="37.2212267" lon="14.8741267"><ele>285.0</ele><time>2026-03-29T08:32:38.344Z</time></trkpt><trkpt lat="37.2212817" lon="14.87435"><ele>285.0</ele><time>2026-03-29T08:32:39.344Z</time></trkpt><trkpt lat="37.221335" lon="14.8745733"><ele>283.3333333333333</ele><time>2026-03-29T08:32:40.344Z</time></trkpt><trkpt lat="37.2213833" lon="14.8747983"><ele>281.66666666666663</ele><time>2026-03-29T08:32:41.343Z</time></trkpt><trkpt lat="37.22143" lon="14.8750267"><ele>280.0</ele><time>2026-03-29T08:32:42.343Z</time></trkpt><trkpt lat="37.2214717" lon="14.8752567"><ele>279.0</ele><time>2026-03-29T08:32:43.344Z</time></trkpt><trkpt lat="37.2215117" lon="14.8754833"><ele>278.0</ele><time>2026-03-29T08:32:44.344Z</time></trkpt><trkpt lat="37.2215467" lon="14.8757133"><ele>277.0</ele><time>2026-03-29T08:32:45.344Z</time></trkpt><trkpt lat="37.2215783" lon="14.87595"><ele>275.66666666666663</ele><time>2026-03-29T08:32:46.344Z</time></trkpt><trkpt lat="37.2216083" lon="14.8761917"><ele>274.3333333333333</ele><time>2026-03-29T08:32:47.343Z</time></trkpt><trkpt lat="37.22164" lon="14.8764317"><ele>273.0</ele><time>2026-03-29T08:32:48.344Z</time></trkpt><trkpt lat="37.221675" lon="14.876665"><ele>272.0</ele><time>2026-03-29T08:32:49.344Z</time></trkpt><trkpt lat="37.2217117" lon="14.8769017"><ele>271.0</ele><time>2026-03-29T08:32:50.344Z</time></trkpt><trkpt lat="37.2217467" lon="14.87715"><ele>270.0</ele><time>2026-03-29T08:32:51.344Z</time></trkpt><trkpt lat="37.2217867" lon="14.8773917"><ele>268.3333333333333</ele><time>2026-03-29T08:32:52.343Z</time></trkpt><trkpt lat="37.2218217" lon="14.8776267"><ele>266.66666666666663</ele><time>2026-03-29T08:32:53.343Z</time></trkpt><trkpt lat="37.2218533" lon="14.87786"><ele>265.0</ele><time>2026-03-29T08:32:54.343Z</time></trkpt><trkpt lat="37.22189" lon="14.8780967"><ele>265.0</ele><time>2026-03-29T08:32:55.344Z</time></trkpt><trkpt lat="37.22192" lon="14.8783233"><ele>265.0</ele><time>2026-03-29T08:32:56.343Z</time></trkpt><trkpt lat="37.221955" lon="14.8785517"><ele>265.0</ele><time>2026-03-29T08:32:57.344Z</time></trkpt><trkpt lat="37.2219883" lon="14.8787717"><ele>263.66666666666663</ele><time>2026-03-29T08:32:58.344Z</time></trkpt><trkpt lat="37.22202" lon="14.878975"><ele>262.3333333333333</ele><time>2026-03-29T08:32:59.343Z</time></trkpt><trkpt lat="37.22204" lon="14.8791733"><ele>261.0</ele><time>2026-03-29T08:33:00.343Z</time></trkpt><trkpt lat="37.22207" lon="14.8793617"><ele>259.75</ele><time>2026-03-29T08:33:01.344Z</time></trkpt><trkpt lat="37.2221067" lon="14.879525"><ele>258.5</ele><time>2026-03-29T08:33:02.344Z</time></trkpt><trkpt lat="37.222135" lon="14.879685"><ele>257.25</ele><time>2026-03-29T08:33:03.344Z</time></trkpt><trkpt lat="37.222155" lon="14.879835"><ele>256.0</ele><time>2026-03-29T08:33:04.343Z</time></trkpt><trkpt lat="37.2221783" lon="14.879975"><ele>255.0</ele><time>2026-03-29T08:33:05.344Z</time></trkpt><trkpt lat="37.2221967" lon="14.8801"><ele>254.00000000000003</ele><time>2026-03-29T08:33:06.344Z</time></trkpt><trkpt lat="37.22222" lon="14.8802217"><ele>253.00000000000003</ele><time>2026-03-29T08:33:07.344Z</time></trkpt><trkpt lat="37.2222417" lon="14.8803467"><ele>252.0</ele><time>2026-03-29T08:33:08.343Z</time></trkpt><trkpt lat="37.2222533" lon="14.8804733"><ele>251.0</ele><time>2026-03-29T08:33:09.343Z</time></trkpt><trkpt lat="37.2222717" lon="14.8805967"><ele>251.00000000000003</ele><time>2026-03-29T08:33:10.343Z</time></trkpt><trkpt lat="37.22229" lon="14.8807083"><ele>251.0</ele><time>2026-03-29T08:33:11.343Z</time></trkpt><trkpt lat="37.2222983" lon="14.8808233"><ele>251.0</ele><time>2026-03-29T08:33:12.344Z</time></trkpt><trkpt lat="37.22231" lon="14.8809367"><ele>251.0</ele><time>2026-03-29T08:33:13.344Z</time></trkpt><trkpt lat="37.2223117" lon="14.8810517"><ele>251.00000000000003</ele><time>2026-03-29T08:33:14.343Z</time></trkpt><trkpt lat="37.2223183" lon="14.8811517"><ele>251.0</ele><time>2026-03-29T08:33:15.344Z</time></trkpt><trkpt lat="37.2223267" lon="14.88125"><ele>251.4285714285714</ele><time>2026-03-29T08:33:16.344Z</time></trkpt><trkpt lat="37.2223317" lon="14.8813383"><ele>251.85714285714283</ele><time>2026-03-29T08:33:17.343Z</time></trkpt><trkpt lat="37.2223333" lon="14.8814217"><ele>252.28571428571428</ele><time>2026-03-29T08:33:18.344Z</time></trkpt><trkpt lat="37.2223467" lon="14.88152"><ele>252.7142857142857</ele><time>2026-03-29T08:33:20.343Z</time></trkpt><trkpt lat="37.222355" lon="14.88161"><ele>253.1428571428571</ele><time>2026-03-29T08:33:23.344Z</time></trkpt><trkpt lat="37.22238" lon="14.8817017"><ele>253.57142857142858</ele><time>2026-03-29T08:33:35.343Z</time></trkpt><trkpt lat="37.2223917" lon="14.88179"><ele>254.0</ele><time>2026-03-29T08:33:36.344Z</time></trkpt><trkpt lat="37.2224033" lon="14.8819033"><ele>252.6</ele><time>2026-03-29T08:33:37.343Z</time></trkpt><trkpt lat="37.2224067" lon="14.8820267"><ele>251.2</ele><time>2026-03-29T08:33:38.343Z</time></trkpt><trkpt lat="37.2224083" lon="14.8821617"><ele>249.79999999999998</ele><time>2026-03-29T08:33:39.343Z</time></trkpt><trkpt lat="37.2224067" lon="14.8823017"><ele>248.39999999999998</ele><time>2026-03-29T08:33:40.344Z</time></trkpt><trkpt lat="37.2224" lon="14.8824533"><ele>247.0</ele><time>2026-03-29T08:33:41.343Z</time></trkpt><trkpt lat="37.2223833" lon="14.8826083"><ele>245.75</ele><time>2026-03-29T08:33:42.343Z</time></trkpt><trkpt lat="37.2223567" lon="14.882765"><ele>244.5</ele><time>2026-03-29T08:33:43.344Z</time></trkpt><trkpt lat="37.2223283" lon="14.8829267"><ele>243.25</ele><time>2026-03-29T08:33:44.343Z</time></trkpt><trkpt lat="37.2222967" lon="14.883085"><ele>242.0</ele><time>2026-03-29T08:33:45.343Z</time></trkpt><trkpt lat="37.2222533" lon="14.88325"><ele>241.0</ele><time>2026-03-29T08:33:46.344Z</time></trkpt><trkpt lat="37.2221983" lon="14.8834183"><ele>240.0</ele><time>2026-03-29T08:33:47.344Z</time></trkpt><trkpt lat="37.2221433" lon="14.8835933"><ele>239.0</ele><time>2026-03-29T08:33:48.343Z</time></trkpt><trkpt lat="37.2220783" lon="14.8837733"><ele>238.66666666666669</ele><time>2026-03-29T08:33:49.344Z</time></trkpt><trkpt lat="37.222015" lon="14.8839667"><ele>238.33333333333331</ele><time>2026-03-29T08:33:50.344Z</time></trkpt><trkpt lat="37.2219467" lon="14.884155"><ele>238.0</ele><time>2026-03-29T08:33:51.343Z</time></trkpt><trkpt lat="37.22188" lon="14.8843467"><ele>237.0</ele><time>2026-03-29T08:33:52.344Z</time></trkpt><trkpt lat="37.22181" lon="14.8845433"><ele>236.0</ele><time>2026-03-29T08:33:53.344Z</time></trkpt><trkpt lat="37.22174" lon="14.8847383"><ele>235.0</ele><time>2026-03-29T08:33:54.344Z</time></trkpt><trkpt lat="37.2216717" lon="14.88494"><ele>234.0</ele><time>2026-03-29T08:33:55.343Z</time></trkpt><trkpt lat="37.2215917" lon="14.8851467"><ele>233.0</ele><time>2026-03-29T08:33:56.344Z</time></trkpt><trkpt lat="37.2215267" lon="14.8853533"><ele>232.0</ele><time>2026-03-29T08:33:57.343Z</time></trkpt><trkpt lat="37.2214517" lon="14.8855617"><ele>231.66666666666666</ele><time>2026-03-29T08:33:58.344Z</time></trkpt><trkpt lat="37.22138" lon="14.885765"><ele>231.33333333333331</ele><time>2026-03-29T08:33:59.344Z</time></trkpt><trkpt lat="37.2213083" lon="14.8859533"><ele>231.0</ele><time>2026-03-29T08:34:00.343Z</time></trkpt><trkpt lat="37.22124" lon="14.886125"><ele>230.0</ele><time>2026-03-29T08:34:01.344Z</time></trkpt><trkpt lat="37.2211517" lon="14.886315"><ele>229.0</ele><time>2026-03-29T08:34:02.343Z</time></trkpt><trkpt lat="37.2210567" lon="14.886505"><ele>228.0</ele><time>2026-03-29T08:34:03.343Z</time></trkpt><trkpt lat="37.22095" lon="14.8866867"><ele>228.66666666666669</ele><time>2026-03-29T08:34:04.343Z</time></trkpt><trkpt lat="37.2208267" lon="14.8868667"><ele>229.33333333333334</ele><time>2026-03-29T08:34:05.343Z</time></trkpt><trkpt lat="37.2206933" lon="14.8870533"><ele>230.0</ele><time>2026-03-29T08:34:06.344Z</time></trkpt><trkpt lat="37.2205667" lon="14.8872233"><ele>226.33333333333334</ele><time>2026-03-29T08:34:07.344Z</time></trkpt><trkpt lat="37.2204467" lon="14.887385"><ele>222.66666666666669</ele><time>2026-03-29T08:34:08.343Z</time></trkpt><trkpt lat="37.22033" lon="14.88756"><ele>219.0</ele><time>2026-03-29T08:34:09.344Z</time></trkpt><trkpt lat="37.2202167" lon="14.8877267"><ele>219.0</ele><time>2026-03-29T08:34:10.343Z</time></trkpt><trkpt lat="37.22011" lon="14.8878833"><ele>219.0</ele><time>2026-03-29T08:34:11.343Z</time></trkpt><trkpt lat="37.220015" lon="14.888045"><ele>219.0</ele><time>2026-03-29T08:34:12.343Z</time></trkpt><trkpt lat="37.219925" lon="14.8882083"><ele>219.0</ele><time>2026-03-29T08:34:13.344Z</time></trkpt><trkpt lat="37.2198433" lon="14.8883833"><ele>219.0</ele><time>2026-03-29T08:34:14.343Z</time></trkpt><trkpt lat="37.219775" lon="14.88857"><ele>219.0</ele><time>2026-03-29T08:34:15.344Z</time></trkpt><trkpt lat="37.2197183" lon="14.8887533"><ele>214.0</ele><time>2026-03-29T08:34:16.343Z</time></trkpt><trkpt lat="37.21966" lon="14.8889383"><ele>209.0</ele><time>2026-03-29T08:34:17.344Z</time></trkpt><trkpt lat="37.219615" lon="14.88912"><ele>204.0</ele><time>2026-03-29T08:34:18.344Z</time></trkpt><trkpt lat="37.2195817" lon="14.8893"><ele>204.0</ele><time>2026-03-29T08:34:19.343Z</time></trkpt><trkpt lat="37.219545" lon="14.8894933"><ele>204.0</ele><time>2026-03-29T08:34:20.343Z</time></trkpt><trkpt lat="37.21951" lon="14.889695"><ele>204.0</ele><time>2026-03-29T08:34:21.343Z</time></trkpt><trkpt lat="37.219485" lon="14.8898967"><ele>201.33333333333331</ele><time>2026-03-29T08:34:22.344Z</time></trkpt><trkpt lat="37.219465" lon="14.890105"><ele>198.66666666666666</ele><time>2026-03-29T08:34:23.343Z</time></trkpt><trkpt lat="37.2194567" lon="14.8903233"><ele>196.0</ele><time>2026-03-29T08:34:24.343Z</time></trkpt><trkpt lat="37.21946" lon="14.8905417"><ele>196.0</ele><time>2026-03-29T08:34:25.343Z</time></trkpt><trkpt lat="37.2194867" lon="14.8907683"><ele>196.0</ele><time>2026-03-29T08:34:26.344Z</time></trkpt><trkpt lat="37.21951" lon="14.8910083"><ele>196.0</ele><time>2026-03-29T08:34:27.343Z</time></trkpt><trkpt lat="37.21954" lon="14.8912583"><ele>194.0</ele><time>2026-03-29T08:34:28.344Z</time></trkpt><trkpt lat="37.2195733" lon="14.8915267"><ele>192.0</ele><time>2026-03-29T08:34:29.344Z</time></trkpt><trkpt lat="37.2196117" lon="14.8918067"><ele>190.0</ele><time>2026-03-29T08:34:30.343Z</time></trkpt><trkpt lat="37.2196517" lon="14.892085"><ele>187.66666666666669</ele><time>2026-03-29T08:34:31.344Z</time></trkpt><trkpt lat="37.2196867" lon="14.892355"><ele>185.33333333333334</ele><time>2026-03-29T08:34:32.344Z</time></trkpt><trkpt lat="37.2197283" lon="14.8926133"><ele>183.0</ele><time>2026-03-29T08:34:33.343Z</time></trkpt><trkpt lat="37.2197617" lon="14.8928717"><ele>182.33333333333334</ele><time>2026-03-29T08:34:34.344Z</time></trkpt><trkpt lat="37.2198" lon="14.89311"><ele>181.66666666666669</ele><time>2026-03-29T08:34:35.344Z</time></trkpt><trkpt lat="37.2198367" lon="14.89334"><ele>181.0</ele><time>2026-03-29T08:34:36.344Z</time></trkpt><trkpt lat="37.2198883" lon="14.89357"><ele>184.33333333333334</ele><time>2026-03-29T08:34:37.343Z</time></trkpt><trkpt lat="37.2199517" lon="14.8938017"><ele>187.66666666666666</ele><time>2026-03-29T08:34:38.343Z</time></trkpt><trkpt lat="37.2200333" lon="14.8940217"><ele>191.0</ele><time>2026-03-29T08:34:39.344Z</time></trkpt><trkpt lat="37.220135" lon="14.8942283"><ele>186.0</ele><time>2026-03-29T08:34:40.343Z</time></trkpt><trkpt lat="37.220265" lon="14.8944233"><ele>181.0</ele><time>2026-03-29T08:34:41.343Z</time></trkpt><trkpt lat="37.220405" lon="14.8945967"><ele>176.0</ele><time>2026-03-29T08:34:42.343Z</time></trkpt><trkpt lat="37.22056" lon="14.8947517"><ele>173.66666666666666</ele><time>2026-03-29T08:34:43.343Z</time></trkpt><trkpt lat="37.220725" lon="14.8948967"><ele>171.33333333333334</ele><time>2026-03-29T08:34:44.344Z</time></trkpt><trkpt lat="37.220895" lon="14.8950333"><ele>169.0</ele><time>2026-03-29T08:34:45.343Z</time></trkpt><trkpt lat="37.2210633" lon="14.89517"><ele>169.0</ele><time>2026-03-29T08:34:46.343Z</time></trkpt><trkpt lat="37.2212367" lon="14.8953117"><ele>169.0</ele><time>2026-03-29T08:34:47.343Z</time></trkpt><trkpt lat="37.2214167" lon="14.8954667"><ele>169.0</ele><time>2026-03-29T08:34:48.343Z</time></trkpt><trkpt lat="37.2215967" lon="14.8956217"><ele>169.0</ele><time>2026-03-29T08:34:49.344Z</time></trkpt><trkpt lat="37.221775" lon="14.8957783"><ele>169.0</ele><time>2026-03-29T08:34:50.343Z</time></trkpt><trkpt lat="37.2219583" lon="14.8959233"><ele>169.0</ele><time>2026-03-29T08:34:51.343Z</time></trkpt><trkpt lat="37.2221417" lon="14.8960667"><ele>169.66666666666669</ele><time>2026-03-29T08:34:52.343Z</time></trkpt><trkpt lat="37.22232" lon="14.896215"><ele>170.33333333333334</ele><time>2026-03-29T08:34:53.344Z</time></trkpt><trkpt lat="37.222495" lon="14.8963617"><ele>171.0</ele><time>2026-03-29T08:34:54.344Z</time></trkpt><trkpt lat="37.22267" lon="14.896495"><ele>171.0</ele><time>2026-03-29T08:34:55.344Z</time></trkpt><trkpt lat="37.222855" lon="14.89662"><ele>171.0</ele><time>2026-03-29T08:34:56.343Z</time></trkpt><trkpt lat="37.2230467" lon="14.8967333"><ele>171.0</ele><time>2026-03-29T08:34:57.343Z</time></trkpt><trkpt lat="37.2232433" lon="14.8968283"><ele>169.66666666666666</ele><time>2026-03-29T08:34:58.344Z</time></trkpt><trkpt lat="37.2234383" lon="14.8969167"><ele>168.33333333333331</ele><time>2026-03-29T08:34:59.344Z</time></trkpt><trkpt lat="37.2236367" lon="14.897005"><ele>167.0</ele><time>2026-03-29T08:35:00.344Z</time></trkpt><trkpt lat="37.2238467" lon="14.8970783"><ele>165.33333333333331</ele><time>2026-03-29T08:35:01.343Z</time></trkpt><trkpt lat="37.2240617" lon="14.897135"><ele>163.66666666666666</ele><time>2026-03-29T08:35:02.344Z</time></trkpt><trkpt lat="37.2242883" lon="14.89717"><ele>162.0</ele><time>2026-03-29T08:35:03.344Z</time></trkpt><trkpt lat="37.2245167" lon="14.8971983"><ele>162.0</ele><time>2026-03-29T08:35:04.344Z</time></trkpt><trkpt lat="37.224755" lon="14.897235"><ele>162.0</ele><time>2026-03-29T08:35:05.343Z</time></trkpt><trkpt lat="37.2249833" lon="14.8972717"><ele>161.5</ele><time>2026-03-29T08:35:06.344Z</time></trkpt><trkpt lat="37.2252117" lon="14.897315"><ele>161.0</ele><time>2026-03-29T08:35:07.343Z</time></trkpt><trkpt lat="37.2254317" lon="14.8973433"><ele>160.0</ele><time>2026-03-29T08:35:08.343Z</time></trkpt><trkpt lat="37.2256517" lon="14.897375"><ele>159.0</ele><time>2026-03-29T08:35:09.344Z</time></trkpt><trkpt lat="37.2258683" lon="14.89741"><ele>158.0</ele><time>2026-03-29T08:35:10.343Z</time></trkpt><trkpt lat="37.2260883" lon="14.8974483"><ele>158.0</ele><time>2026-03-29T08:35:11.343Z</time></trkpt><trkpt lat="37.2263117" lon="14.897485"><ele>158.0</ele><time>2026-03-29T08:35:12.343Z</time></trkpt><trkpt lat="37.2265383" lon="14.897515"><ele>157.66666666666666</ele><time>2026-03-29T08:35:13.344Z</time></trkpt><trkpt lat="37.2267567" lon="14.8975517"><ele>157.33333333333334</ele><time>2026-03-29T08:35:14.344Z</time></trkpt><trkpt lat="37.22698" lon="14.8975883"><ele>157.0</ele><time>2026-03-29T08:35:15.343Z</time></trkpt><trkpt lat="37.2272017" lon="14.89763"><ele>153.5</ele><time>2026-03-29T08:35:16.343Z</time></trkpt><trkpt lat="37.227425" lon="14.8976567"><ele>150.0</ele><time>2026-03-29T08:35:17.344Z</time></trkpt><trkpt lat="37.227655" lon="14.8977"><ele>150.0</ele><time>2026-03-29T08:35:18.343Z</time></trkpt><trkpt lat="37.227875" lon="14.8977417"><ele>150.0</ele><time>2026-03-29T08:35:19.344Z</time></trkpt><trkpt lat="37.2280933" lon="14.89777"><ele>150.0</ele><time>2026-03-29T08:35:20.343Z</time></trkpt><trkpt lat="37.228305" lon="14.8978"><ele>149.66666666666666</ele><time>2026-03-29T08:35:21.343Z</time></trkpt><trkpt lat="37.2285183" lon="14.8978433"><ele>149.33333333333331</ele><time>2026-03-29T08:35:22.343Z</time></trkpt><trkpt lat="37.228725" lon="14.8978833"><ele>149.0</ele><time>2026-03-29T08:35:23.343Z</time></trkpt><trkpt lat="37.228935" lon="14.89793"><ele>147.0</ele><time>2026-03-29T08:35:24.344Z</time></trkpt><trkpt lat="37.2291333" lon="14.89797"><ele>145.0</ele><time>2026-03-29T08:35:25.343Z</time></trkpt><trkpt lat="37.2293333" lon="14.89803"><ele>143.0</ele><time>2026-03-29T08:35:26.343Z</time></trkpt><trkpt lat="37.2295333" lon="14.8981167"><ele>143.0</ele><time>2026-03-29T08:35:27.343Z</time></trkpt><trkpt lat="37.229735" lon="14.8982333"><ele>143.0</ele><time>2026-03-29T08:35:28.344Z</time></trkpt><trkpt lat="37.2299217" lon="14.898375"><ele>143.0</ele><time>2026-03-29T08:35:29.343Z</time></trkpt><trkpt lat="37.230095" lon="14.8985233"><ele>139.33333333333331</ele><time>2026-03-29T08:35:30.344Z</time></trkpt><trkpt lat="37.2302683" lon="14.8986767"><ele>135.66666666666666</ele><time>2026-03-29T08:35:31.344Z</time></trkpt><trkpt lat="37.2304433" lon="14.898825"><ele>132.0</ele><time>2026-03-29T08:35:32.343Z</time></trkpt><trkpt lat="37.2306233" lon="14.898975"><ele>132.0</ele><time>2026-03-29T08:35:33.343Z</time></trkpt><trkpt lat="37.2308017" lon="14.8991317"><ele>132.0</ele><time>2026-03-29T08:35:34.344Z</time></trkpt><trkpt lat="37.2309867" lon="14.89927"><ele>132.0</ele><time>2026-03-29T08:35:35.344Z</time></trkpt><trkpt lat="37.2311767" lon="14.899385"><ele>132.0</ele><time>2026-03-29T08:35:36.343Z</time></trkpt><trkpt lat="37.23137" lon="14.8994733"><ele>132.0</ele><time>2026-03-29T08:35:37.343Z</time></trkpt><trkpt lat="37.2315717" lon="14.8995183"><ele>132.0</ele><time>2026-03-29T08:35:38.343Z</time></trkpt><trkpt lat="37.2317867" lon="14.8995483"><ele>134.0</ele><time>2026-03-29T08:35:39.344Z</time></trkpt><trkpt lat="37.232005" lon="14.8995683"><ele>136.0</ele><time>2026-03-29T08:35:40.344Z</time></trkpt><trkpt lat="37.232215" lon="14.8995567"><ele>138.0</ele><time>2026-03-29T08:35:41.343Z</time></trkpt><trkpt lat="37.2324233" lon="14.899525"><ele>138.0</ele><time>2026-03-29T08:35:42.344Z</time></trkpt><trkpt lat="37.23263" lon="14.8994683"><ele>138.0</ele><time>2026-03-29T08:35:43.344Z</time></trkpt><trkpt lat="37.2328367" lon="14.8993883"><ele>138.0</ele><time>2026-03-29T08:35:44.344Z</time></trkpt><trkpt lat="37.2330417" lon="14.8992833"><ele>134.66666666666666</ele><time>2026-03-29T08:35:45.343Z</time></trkpt><trkpt lat="37.2332317" lon="14.899165"><ele>131.33333333333331</ele><time>2026-03-29T08:35:46.343Z</time></trkpt><trkpt lat="37.23341" lon="14.899025"><ele>128.0</ele><time>2026-03-29T08:35:47.343Z</time></trkpt><trkpt lat="37.233575" lon="14.8988717"><ele>128.0</ele><time>2026-03-29T08:35:48.344Z</time></trkpt><trkpt lat="37.2337367" lon="14.8987017"><ele>128.0</ele><time>2026-03-29T08:35:49.343Z</time></trkpt><trkpt lat="37.233895" lon="14.8985217"><ele>128.0</ele><time>2026-03-29T08:35:50.343Z</time></trkpt><trkpt lat="37.2340533" lon="14.898335"><ele>128.0</ele><time>2026-03-29T08:35:51.343Z</time></trkpt><trkpt lat="37.2342133" lon="14.8981483"><ele>128.0</ele><time>2026-03-29T08:35:52.344Z</time></trkpt><trkpt lat="37.2343767" lon="14.8979633"><ele>128.0</ele><time>2026-03-29T08:35:53.343Z</time></trkpt><trkpt lat="37.234535" lon="14.8977767"><ele>128.0</ele><time>2026-03-29T08:35:54.344Z</time></trkpt><trkpt lat="37.2347033" lon="14.8975933"><ele>128.0</ele><time>2026-03-29T08:35:55.343Z</time></trkpt><trkpt lat="37.234865" lon="14.8974083"><ele>128.0</ele><time>2026-03-29T08:35:56.344Z</time></trkpt><trkpt lat="37.235025" lon="14.897215"><ele>126.0</ele><time>2026-03-29T08:35:57.343Z</time></trkpt><trkpt lat="37.2351883" lon="14.8970317"><ele>124.0</ele><time>2026-03-29T08:35:58.344Z</time></trkpt><trkpt lat="37.23535" lon="14.8968483"><ele>122.0</ele><time>2026-03-29T08:35:59.343Z</time></trkpt><trkpt lat="37.2355217" lon="14.896675"><ele>120.33333333333333</ele><time>2026-03-29T08:36:00.344Z</time></trkpt><trkpt lat="37.2356933" lon="14.8965117"><ele>118.66666666666666</ele><time>2026-03-29T08:36:01.343Z</time></trkpt><trkpt lat="37.235875" lon="14.8963517"><ele>117.0</ele><time>2026-03-29T08:36:02.344Z</time></trkpt><trkpt lat="37.236065" lon="14.8962017"><ele>117.0</ele><time>2026-03-29T08:36:03.344Z</time></trkpt><trkpt lat="37.2362533" lon="14.896055"><ele>117.0</ele><time>2026-03-29T08:36:04.343Z</time></trkpt><trkpt lat="37.2364417" lon="14.8959267"><ele>117.0</ele><time>2026-03-29T08:36:05.343Z</time></trkpt><trkpt lat="37.2366383" lon="14.895825"><ele>116.33333333333334</ele><time>2026-03-29T08:36:06.343Z</time></trkpt><trkpt lat="37.236835" lon="14.8957517"><ele>115.66666666666667</ele><time>2026-03-29T08:36:07.343Z</time></trkpt><trkpt lat="37.2370417" lon="14.8957"><ele>115.0</ele><time>2026-03-29T08:36:08.344Z</time></trkpt><trkpt lat="37.2372517" lon="14.89567"><ele>114.0</ele><time>2026-03-29T08:36:09.343Z</time></trkpt><trkpt lat="37.2374567" lon="14.8956617"><ele>113.0</ele><time>2026-03-29T08:36:10.344Z</time></trkpt><trkpt lat="37.2376683" lon="14.8956733"><ele>112.0</ele><time>2026-03-29T08:36:11.344Z</time></trkpt><trkpt lat="37.2378833" lon="14.8956967"><ele>112.0</ele><time>2026-03-29T08:36:12.343Z</time></trkpt><trkpt lat="37.2380933" lon="14.8957333"><ele>112.0</ele><time>2026-03-29T08:36:13.343Z</time></trkpt><trkpt lat="37.238305" lon="14.8957833"><ele>112.0</ele><time>2026-03-29T08:36:14.343Z</time></trkpt><trkpt lat="37.2385133" lon="14.8958333"><ele>111.66666666666667</ele><time>2026-03-29T08:36:15.344Z</time></trkpt><trkpt lat="37.2387317" lon="14.8958933"><ele>111.33333333333334</ele><time>2026-03-29T08:36:16.344Z</time></trkpt><trkpt lat="37.238945" lon="14.8959583"><ele>111.0</ele><time>2026-03-29T08:36:17.343Z</time></trkpt><trkpt lat="37.2391633" lon="14.8960317"><ele>110.0</ele><time>2026-03-29T08:36:18.344Z</time></trkpt><trkpt lat="37.2393783" lon="14.896105"><ele>109.0</ele><time>2026-03-29T08:36:19.344Z</time></trkpt><trkpt lat="37.2396" lon="14.89618"><ele>107.5</ele><time>2026-03-29T08:36:20.343Z</time></trkpt><trkpt lat="37.239815" lon="14.89626"><ele>106.0</ele><time>2026-03-29T08:36:21.344Z</time></trkpt><trkpt lat="37.2400417" lon="14.8963517"><ele>106.0</ele><time>2026-03-29T08:36:22.344Z</time></trkpt><trkpt lat="37.2402533" lon="14.896445"><ele>106.0</ele><time>2026-03-29T08:36:23.344Z</time></trkpt><trkpt lat="37.24047" lon="14.896535"><ele>105.0</ele><time>2026-03-29T08:36:24.343Z</time></trkpt><trkpt lat="37.2406883" lon="14.896635"><ele>104.0</ele><time>2026-03-29T08:36:25.344Z</time></trkpt><trkpt lat="37.2409017" lon="14.8967433"><ele>103.5</ele><time>2026-03-29T08:36:26.343Z</time></trkpt><trkpt lat="37.2411167" lon="14.8968433"><ele>103.0</ele><time>2026-03-29T08:36:27.343Z</time></trkpt><trkpt lat="37.2413267" lon="14.8969417"><ele>103.0</ele><time>2026-03-29T08:36:28.343Z</time></trkpt><trkpt lat="37.241515" lon="14.8970267"><ele>103.0</ele><time>2026-03-29T08:36:29.344Z</time></trkpt><trkpt lat="37.241675" lon="14.8971017"><ele>103.0</ele><time>2026-03-29T08:36:30.344Z</time></trkpt><trkpt lat="37.2418133" lon="14.8971717"><ele>103.0</ele><time>2026-03-29T08:36:31.344Z</time></trkpt><trkpt lat="37.241935" lon="14.8972567"><ele>103.0</ele><time>2026-03-29T08:36:32.343Z</time></trkpt><trkpt lat="37.2420217" lon="14.8973283"><ele>103.0</ele><time>2026-03-29T08:36:33.343Z</time></trkpt><trkpt lat="37.2420717" lon="14.8974067"><ele>103.0</ele><time>2026-03-29T08:36:34.343Z</time></trkpt><trkpt lat="37.24209" lon="14.8974917"><ele>103.0</ele><time>2026-03-29T08:36:35.343Z</time></trkpt><trkpt lat="37.2420867" lon="14.8975967"><ele>102.66666666666667</ele><time>2026-03-29T08:36:36.344Z</time></trkpt><trkpt lat="37.2420567" lon="14.8976967"><ele>102.33333333333334</ele><time>2026-03-29T08:36:37.343Z</time></trkpt><trkpt lat="37.2420417" lon="14.897805"><ele>102.0</ele><time>2026-03-29T08:36:38.344Z</time></trkpt><trkpt lat="37.242045" lon="14.897905"><ele>101.66666666666666</ele><time>2026-03-29T08:36:39.343Z</time></trkpt><trkpt lat="37.2420933" lon="14.8979917"><ele>101.33333333333333</ele><time>2026-03-29T08:36:40.344Z</time></trkpt><trkpt lat="37.2421617" lon="14.89804"><ele>101.0</ele><time>2026-03-29T08:36:41.343Z</time></trkpt><trkpt lat="37.2422533" lon="14.8980567"><ele>100.5</ele><time>2026-03-29T08:36:42.343Z</time></trkpt><trkpt lat="37.2423667" lon="14.8980483"><ele>100.0</ele><time>2026-03-29T08:36:43.344Z</time></trkpt><trkpt lat="37.2424917" lon="14.898"><ele>99.5</ele><time>2026-03-29T08:36:44.344Z</time></trkpt><trkpt lat="37.2426333" lon="14.8979217"><ele>99.0</ele><time>2026-03-29T08:36:45.344Z</time></trkpt><trkpt lat="37.242775" lon="14.89784"><ele>99.0</ele><time>2026-03-29T08:36:46.343Z</time></trkpt><trkpt lat="37.24294" lon="14.8977583"><ele>99.0</ele><time>2026-03-29T08:36:47.343Z</time></trkpt><trkpt lat="37.2431317" lon="14.89767"><ele>99.0</ele><time>2026-03-29T08:36:48.344Z</time></trkpt><trkpt lat="37.2433217" lon="14.8975717"><ele>100.0</ele><time>2026-03-29T08:36:49.343Z</time></trkpt><trkpt lat="37.24349" lon="14.8975"><ele>101.0</ele><time>2026-03-29T08:36:50.343Z</time></trkpt><trkpt lat="37.2436283" lon="14.8974567"><ele>102.0</ele><time>2026-03-29T08:36:51.343Z</time></trkpt><trkpt lat="37.24376" lon="14.89745"><ele>102.0</ele><time>2026-03-29T08:36:52.343Z</time></trkpt><trkpt lat="37.2438883" lon="14.8974817"><ele>102.0</ele><time>2026-03-29T08:36:53.343Z</time></trkpt><trkpt lat="37.244015" lon="14.8975583"><ele>102.0</ele><time>2026-03-29T08:36:54.344Z</time></trkpt><trkpt lat="37.2441367" lon="14.8976617"><ele>102.0</ele><time>2026-03-29T08:36:55.344Z</time></trkpt><trkpt lat="37.2442617" lon="14.8977633"><ele>99.66666666666667</ele><time>2026-03-29T08:36:56.344Z</time></trkpt><trkpt lat="37.2443867" lon="14.89787"><ele>97.33333333333334</ele><time>2026-03-29T08:36:57.343Z</time></trkpt><trkpt lat="37.2445183" lon="14.89798"><ele>95.0</ele><time>2026-03-29T08:36:58.343Z</time></trkpt><trkpt lat="37.244655" lon="14.8980867"><ele>95.0</ele><time>2026-03-29T08:36:59.343Z</time></trkpt><trkpt lat="37.24478" lon="14.8981883"><ele>95.0</ele><time>2026-03-29T08:37:00.344Z</time></trkpt><trkpt lat="37.2449067" lon="14.8982917"><ele>95.0</ele><time>2026-03-29T08:37:01.344Z</time></trkpt><trkpt lat="37.2450283" lon="14.8983933"><ele>95.0</ele><time>2026-03-29T08:37:02.344Z</time></trkpt><trkpt lat="37.2451433" lon="14.898485"><ele>94.25</ele><time>2026-03-29T08:37:03.343Z</time></trkpt><trkpt lat="37.2452533" lon="14.8985783"><ele>93.5</ele><time>2026-03-29T08:37:04.343Z</time></trkpt><trkpt lat="37.2453633" lon="14.8986717"><ele>92.75</ele><time>2026-03-29T08:37:05.343Z</time></trkpt><trkpt lat="37.24547" lon="14.8987683"><ele>92.0</ele><time>2026-03-29T08:37:06.343Z</time></trkpt><trkpt lat="37.245565" lon="14.89886"><ele>92.19999999999999</ele><time>2026-03-29T08:37:07.343Z</time></trkpt><trkpt lat="37.245655" lon="14.8989183"><ele>92.4</ele><time>2026-03-29T08:37:08.343Z</time></trkpt><trkpt lat="37.24575" lon="14.898935"><ele>92.6</ele><time>2026-03-29T08:37:09.344Z</time></trkpt><trkpt lat="37.24584" lon="14.898875"><ele>92.80000000000001</ele><time>2026-03-29T08:37:10.344Z</time></trkpt><trkpt lat="37.2459083" lon="14.898765"><ele>93.0</ele><time>2026-03-29T08:37:11.344Z</time></trkpt><trkpt lat="37.2459633" lon="14.8986167"><ele>93.0</ele><time>2026-03-29T08:37:12.343Z</time></trkpt><trkpt lat="37.2460267" lon="14.8984533"><ele>93.0</ele><time>2026-03-29T08:37:13.343Z</time></trkpt><trkpt lat="37.246095" lon="14.8983017"><ele>93.0</ele><time>2026-03-29T08:37:14.344Z</time></trkpt><trkpt lat="37.24617" lon="14.8981433"><ele>93.0</ele><time>2026-03-29T08:37:15.344Z</time></trkpt><trkpt lat="37.246235" lon="14.8979933"><ele>92.25</ele><time>2026-03-29T08:37:16.343Z</time></trkpt><trkpt lat="37.2463017" lon="14.8978383"><ele>91.5</ele><time>2026-03-29T08:37:17.344Z</time></trkpt><trkpt lat="37.24637" lon="14.89769"><ele>90.75</ele><time>2026-03-29T08:37:18.343Z</time></trkpt><trkpt lat="37.24644" lon="14.8975383"><ele>90.0</ele><time>2026-03-29T08:37:19.344Z</time></trkpt><trkpt lat="37.246515" lon="14.89739"><ele>90.0</ele><time>2026-03-29T08:37:20.344Z</time></trkpt><trkpt lat="37.2465717" lon="14.8972383"><ele>90.0</ele><time>2026-03-29T08:37:21.343Z</time></trkpt><trkpt lat="37.2466133" lon="14.8970717"><ele>90.0</ele><time>2026-03-29T08:37:22.343Z</time></trkpt><trkpt lat="37.246625" lon="14.8968933"><ele>90.0</ele><time>2026-03-29T08:37:23.343Z</time></trkpt><trkpt lat="37.24662" lon="14.8967067"><ele>91.0</ele><time>2026-03-29T08:37:24.344Z</time></trkpt><trkpt lat="37.246605" lon="14.8965117"><ele>92.0</ele><time>2026-03-29T08:37:25.344Z</time></trkpt><trkpt lat="37.246595" lon="14.896315"><ele>93.0</ele><time>2026-03-29T08:37:26.344Z</time></trkpt><trkpt lat="37.2465867" lon="14.8961417"><ele>93.0</ele><time>2026-03-29T08:37:27.344Z</time></trkpt><trkpt lat="37.24658" lon="14.8959733"><ele>93.0</ele><time>2026-03-29T08:37:28.343Z</time></trkpt><trkpt lat="37.24656" lon="14.895805"><ele>93.0</ele><time>2026-03-29T08:37:29.344Z</time></trkpt><trkpt lat="37.246545" lon="14.8956583"><ele>93.0</ele><time>2026-03-29T08:37:30.343Z</time></trkpt><trkpt lat="37.2465483" lon="14.8955133"><ele>92.75</ele><time>2026-03-29T08:37:31.344Z</time></trkpt><trkpt lat="37.2465967" lon="14.89538"><ele>92.5</ele><time>2026-03-29T08:37:32.343Z</time></trkpt><trkpt lat="37.2466633" lon="14.8952583"><ele>92.25</ele><time>2026-03-29T08:37:33.343Z</time></trkpt><trkpt lat="37.24676" lon="14.89513"><ele>92.0</ele><time>2026-03-29T08:37:34.343Z</time></trkpt><trkpt lat="37.2468467" lon="14.8949817"><ele>91.75</ele><time>2026-03-29T08:37:35.344Z</time></trkpt><trkpt lat="37.24691" lon="14.894815"><ele>91.5</ele><time>2026-03-29T08:37:36.343Z</time></trkpt><trkpt lat="37.246965" lon="14.8946517"><ele>91.25</ele><time>2026-03-29T08:37:37.344Z</time></trkpt><trkpt lat="37.2470267" lon="14.894495"><ele>91.0</ele><time>2026-03-29T08:37:38.343Z</time></trkpt><trkpt lat="37.247105" lon="14.8943517"><ele>91.25</ele><time>2026-03-29T08:37:39.344Z</time></trkpt><trkpt lat="37.2471917" lon="14.8942483"><ele>91.5</ele><time>2026-03-29T08:37:40.343Z</time></trkpt><trkpt lat="37.2472917" lon="14.8941667"><ele>91.75</ele><time>2026-03-29T08:37:41.344Z</time></trkpt><trkpt lat="37.2474133" lon="14.8941233"><ele>92.0</ele><time>2026-03-29T08:37:42.343Z</time></trkpt><trkpt lat="37.2475533" lon="14.8941217"><ele>91.33333333333334</ele><time>2026-03-29T08:37:43.343Z</time></trkpt><trkpt lat="37.2477017" lon="14.8941317"><ele>90.66666666666667</ele><time>2026-03-29T08:37:44.344Z</time></trkpt><trkpt lat="37.247855" lon="14.89415"><ele>90.0</ele><time>2026-03-29T08:37:45.343Z</time></trkpt><trkpt lat="37.2480167" lon="14.8941733"><ele>89.66666666666667</ele><time>2026-03-29T08:37:46.343Z</time></trkpt><trkpt lat="37.2481867" lon="14.894195"><ele>89.33333333333334</ele><time>2026-03-29T08:37:47.344Z</time></trkpt><trkpt lat="37.2483583" lon="14.8942083"><ele>89.0</ele><time>2026-03-29T08:37:48.343Z</time></trkpt><trkpt lat="37.248535" lon="14.894225"><ele>89.0</ele><time>2026-03-29T08:37:49.344Z</time></trkpt><trkpt lat="37.2487067" lon="14.894245"><ele>89.0</ele><time>2026-03-29T08:37:50.343Z</time></trkpt><trkpt lat="37.248885" lon="14.8942717"><ele>89.0</ele><time>2026-03-29T08:37:51.343Z</time></trkpt><trkpt lat="37.24906" lon="14.8942867"><ele>86.33333333333334</ele><time>2026-03-29T08:37:52.343Z</time></trkpt><trkpt lat="37.2492367" lon="14.8942967"><ele>83.66666666666667</ele><time>2026-03-29T08:37:53.344Z</time></trkpt><trkpt lat="37.249415" lon="14.8943117"><ele>81.0</ele><time>2026-03-29T08:37:54.344Z</time></trkpt><trkpt lat="37.249595" lon="14.8943133"><ele>81.0</ele><time>2026-03-29T08:37:55.344Z</time></trkpt><trkpt lat="37.2497783" lon="14.8943017"><ele>81.0</ele><time>2026-03-29T08:37:56.343Z</time></trkpt><trkpt lat="37.2499633" lon="14.8942633"><ele>81.0</ele><time>2026-03-29T08:37:57.343Z</time></trkpt><trkpt lat="37.2501433" lon="14.894215"><ele>81.66666666666667</ele><time>2026-03-29T08:37:58.344Z</time></trkpt><trkpt lat="37.2503267" lon="14.8941633"><ele>82.33333333333334</ele><time>2026-03-29T08:37:59.343Z</time></trkpt><trkpt lat="37.2504983" lon="14.8941167"><ele>83.0</ele><time>2026-03-29T08:38:00.343Z</time></trkpt><trkpt lat="37.2506667" lon="14.8940767"><ele>83.0</ele><time>2026-03-29T08:38:01.343Z</time></trkpt><trkpt lat="37.2508217" lon="14.8940467"><ele>83.0</ele><time>2026-03-29T08:38:02.343Z</time></trkpt><trkpt lat="37.25099" lon="14.89404"><ele>83.0</ele><time>2026-03-29T08:38:03.344Z</time></trkpt><trkpt lat="37.2511617" lon="14.8940583"><ele>83.0</ele><time>2026-03-29T08:38:04.344Z</time></trkpt><trkpt lat="37.251335" lon="14.8940867"><ele>83.0</ele><time>2026-03-29T08:38:05.343Z</time></trkpt><trkpt lat="37.2515017" lon="14.89412"><ele>83.0</ele><time>2026-03-29T08:38:06.343Z</time></trkpt><trkpt lat="37.2516817" lon="14.8941567"><ele>83.0</ele><time>2026-03-29T08:38:07.344Z</time></trkpt><trkpt lat="37.25186" lon="14.8941967"><ele>83.0</ele><time>2026-03-29T08:38:08.343Z</time></trkpt><trkpt lat="37.252045" lon="14.8942467"><ele>83.0</ele><time>2026-03-29T08:38:09.344Z</time></trkpt><trkpt lat="37.2522183" lon="14.8942983"><ele>81.0</ele><time>2026-03-29T08:38:10.344Z</time></trkpt><trkpt lat="37.2523933" lon="14.8943567"><ele>79.0</ele><time>2026-03-29T08:38:11.344Z</time></trkpt><trkpt lat="37.2525583" lon="14.8944183"><ele>77.0</ele><time>2026-03-29T08:38:12.343Z</time></trkpt><trkpt lat="37.252725" lon="14.894475"><ele>77.0</ele><time>2026-03-29T08:38:13.344Z</time></trkpt><trkpt lat="37.25288" lon="14.8945117"><ele>77.0</ele><time>2026-03-29T08:38:14.343Z</time></trkpt><trkpt lat="37.25303" lon="14.8945533"><ele>77.0</ele><time>2026-03-29T08:38:15.344Z</time></trkpt><trkpt lat="37.25318" lon="14.8946017"><ele>76.33333333333334</ele><time>2026-03-29T08:38:16.344Z</time></trkpt><trkpt lat="37.2533267" lon="14.89465"><ele>75.66666666666667</ele><time>2026-03-29T08:38:17.343Z</time></trkpt><trkpt lat="37.2534817" lon="14.8947117"><ele>75.0</ele><time>2026-03-29T08:38:18.343Z</time></trkpt><trkpt lat="37.2536333" lon="14.8947933"><ele>75.0</ele><time>2026-03-29T08:38:19.344Z</time></trkpt><trkpt lat="37.2537833" lon="14.8949033"><ele>75.0</ele><time>2026-03-29T08:38:20.343Z</time></trkpt><trkpt lat="37.2539183" lon="14.8950167"><ele>75.0</ele><time>2026-03-29T08:38:21.344Z</time></trkpt><trkpt lat="37.2540367" lon="14.8951283"><ele>73.25</ele><time>2026-03-29T08:38:22.344Z</time></trkpt><trkpt lat="37.254155" lon="14.89522"><ele>71.5</ele><time>2026-03-29T08:38:23.344Z</time></trkpt><trkpt lat="37.25428" lon="14.8952683"><ele>69.75</ele><time>2026-03-29T08:38:24.344Z</time></trkpt><trkpt lat="37.2544217" lon="14.89528"><ele>68.0</ele><time>2026-03-29T08:38:25.343Z</time></trkpt><trkpt lat="37.2545583" lon="14.8952417"><ele>68.0</ele><time>2026-03-29T08:38:26.344Z</time></trkpt><trkpt lat="37.2546933" lon="14.8951733"><ele>68.0</ele><time>2026-03-29T08:38:27.344Z</time></trkpt><trkpt lat="37.254825" lon="14.8950833"><ele>68.0</ele><time>2026-03-29T08:38:28.344Z</time></trkpt><trkpt lat="37.25494" lon="14.8949583"><ele>68.0</ele><time>2026-03-29T08:38:29.344Z</time></trkpt><trkpt lat="37.2550417" lon="14.8948183"><ele>69.0</ele><time>2026-03-29T08:38:30.344Z</time></trkpt><trkpt lat="37.25514" lon="14.8946567"><ele>70.0</ele><time>2026-03-29T08:38:31.344Z</time></trkpt><trkpt lat="37.2552317" lon="14.8944783"><ele>71.0</ele><time>2026-03-29T08:38:32.343Z</time></trkpt><trkpt lat="37.2553083" lon="14.894295"><ele>73.33333333333334</ele><time>2026-03-29T08:38:33.344Z</time></trkpt><trkpt lat="37.2553817" lon="14.894115"><ele>75.66666666666667</ele><time>2026-03-29T08:38:34.344Z</time></trkpt><trkpt lat="37.2554433" lon="14.8939317"><ele>78.0</ele><time>2026-03-29T08:38:35.343Z</time></trkpt><trkpt lat="37.2555017" lon="14.89374"><ele>78.0</ele><time>2026-03-29T08:38:36.343Z</time></trkpt><trkpt lat="37.2555467" lon="14.8935417"><ele>78.0</ele><time>2026-03-29T08:38:37.343Z</time></trkpt><trkpt lat="37.2555767" lon="14.8933383"><ele>78.0</ele><time>2026-03-29T08:38:38.343Z</time></trkpt><trkpt lat="37.2556033" lon="14.8931483"><ele>78.0</ele><time>2026-03-29T08:38:39.344Z</time></trkpt><trkpt lat="37.2556183" lon="14.8929583"><ele>78.0</ele><time>2026-03-29T08:38:40.344Z</time></trkpt><trkpt lat="37.2556317" lon="14.8927583"><ele>78.0</ele><time>2026-03-29T08:38:41.343Z</time></trkpt><trkpt lat="37.2556633" lon="14.8925633"><ele>78.0</ele><time>2026-03-29T08:38:42.344Z</time></trkpt><trkpt lat="37.25569" lon="14.892365"><ele>78.0</ele><time>2026-03-29T08:38:43.343Z</time></trkpt><trkpt lat="37.2557083" lon="14.892165"><ele>78.0</ele><time>2026-03-29T08:38:44.344Z</time></trkpt><trkpt lat="37.25574" lon="14.8919617"><ele>78.66666666666667</ele><time>2026-03-29T08:38:45.343Z</time></trkpt><trkpt lat="37.2557733" lon="14.891755"><ele>79.33333333333334</ele><time>2026-03-29T08:38:46.344Z</time></trkpt><trkpt lat="37.2557983" lon="14.8915567"><ele>80.0</ele><time>2026-03-29T08:38:47.343Z</time></trkpt><trkpt lat="37.2558283" lon="14.8913633"><ele>80.0</ele><time>2026-03-29T08:38:48.343Z</time></trkpt><trkpt lat="37.255855" lon="14.891165"><ele>80.0</ele><time>2026-03-29T08:38:49.344Z</time></trkpt><trkpt lat="37.2558617" lon="14.8909617"><ele>80.0</ele><time>2026-03-29T08:38:50.344Z</time></trkpt><trkpt lat="37.255875" lon="14.89074"><ele>80.66666666666667</ele><time>2026-03-29T08:38:51.344Z</time></trkpt><trkpt lat="37.2558933" lon="14.8905233"><ele>81.33333333333333</ele><time>2026-03-29T08:38:52.344Z</time></trkpt><trkpt lat="37.25591" lon="14.8903017"><ele>82.0</ele><time>2026-03-29T08:38:53.343Z</time></trkpt><trkpt lat="37.2559217" lon="14.8900817"><ele>82.0</ele><time>2026-03-29T08:38:54.343Z</time></trkpt><trkpt lat="37.2559333" lon="14.8898583"><ele>82.0</ele><time>2026-03-29T08:38:55.344Z</time></trkpt><trkpt lat="37.255945" lon="14.8896367"><ele>82.0</ele><time>2026-03-29T08:38:56.344Z</time></trkpt><trkpt lat="37.2559567" lon="14.8894067"><ele>82.66666666666666</ele><time>2026-03-29T08:38:57.343Z</time></trkpt><trkpt lat="37.2559667" lon="14.8891783"><ele>83.33333333333333</ele><time>2026-03-29T08:38:58.343Z</time></trkpt><trkpt lat="37.25598" lon="14.8889533"><ele>84.0</ele><time>2026-03-29T08:38:59.344Z</time></trkpt><trkpt lat="37.2559983" lon="14.8887233"><ele>84.0</ele><time>2026-03-29T08:39:00.344Z</time></trkpt><trkpt lat="37.2560033" lon="14.8884967"><ele>84.0</ele><time>2026-03-29T08:39:01.343Z</time></trkpt><trkpt lat="37.2559933" lon="14.8882717"><ele>84.0</ele><time>2026-03-29T08:39:02.344Z</time></trkpt><trkpt lat="37.25596" lon="14.8880417"><ele>84.33333333333333</ele><time>2026-03-29T08:39:03.344Z</time></trkpt><trkpt lat="37.2559183" lon="14.88782"><ele>84.66666666666666</ele><time>2026-03-29T08:39:04.344Z</time></trkpt><trkpt lat="37.2558617" lon="14.887615"><ele>85.0</ele><time>2026-03-29T08:39:05.344Z</time></trkpt><trkpt lat="37.25579" lon="14.8874267"><ele>85.0</ele><time>2026-03-29T08:39:06.344Z</time></trkpt><trkpt lat="37.255755" lon="14.8872333"><ele>85.0</ele><time>2026-03-29T08:39:07.343Z</time></trkpt><trkpt lat="37.2556983" lon="14.88705"><ele>85.0</ele><time>2026-03-29T08:39:08.344Z</time></trkpt><trkpt lat="37.2556167" lon="14.8868917"><ele>88.5</ele><time>2026-03-29T08:39:09.343Z</time></trkpt><trkpt lat="37.2555383" lon="14.88674"><ele>92.0</ele><time>2026-03-29T08:39:10.343Z</time></trkpt><trkpt lat="37.2554717" lon="14.886585"><ele>95.5</ele><time>2026-03-29T08:39:11.343Z</time></trkpt><trkpt lat="37.255425" lon="14.8864083"><ele>99.0</ele><time>2026-03-29T08:39:12.343Z</time></trkpt><trkpt lat="37.2554017" lon="14.8862283"><ele>99.0</ele><time>2026-03-29T08:39:13.343Z</time></trkpt><trkpt lat="37.2554183" lon="14.88604"><ele>99.0</ele><time>2026-03-29T08:39:14.344Z</time></trkpt><trkpt lat="37.25547" lon="14.88587"><ele>99.0</ele><time>2026-03-29T08:39:15.343Z</time></trkpt><trkpt lat="37.25554" lon="14.8857067"><ele>99.0</ele><time>2026-03-29T08:39:16.343Z</time></trkpt><trkpt lat="37.2556283" lon="14.8855417"><ele>96.66666666666667</ele><time>2026-03-29T08:39:17.344Z</time></trkpt><trkpt lat="37.2557183" lon="14.8853733"><ele>94.33333333333334</ele><time>2026-03-29T08:39:18.343Z</time></trkpt><trkpt lat="37.25581" lon="14.885195"><ele>92.0</ele><time>2026-03-29T08:39:19.344Z</time></trkpt><trkpt lat="37.2558933" lon="14.8850033"><ele>92.0</ele><time>2026-03-29T08:39:20.344Z</time></trkpt><trkpt lat="37.25597" lon="14.8848217"><ele>92.0</ele><time>2026-03-29T08:39:21.344Z</time></trkpt><trkpt lat="37.256055" lon="14.8846417"><ele>92.0</ele><time>2026-03-29T08:39:22.343Z</time></trkpt><trkpt lat="37.256145" lon="14.8844667"><ele>92.0</ele><time>2026-03-29T08:39:23.343Z</time></trkpt><trkpt lat="37.2562517" lon="14.8842917"><ele>92.0</ele><time>2026-03-29T08:39:24.344Z</time></trkpt><trkpt lat="37.2563617" lon="14.88413"><ele>92.0</ele><time>2026-03-29T08:39:25.343Z</time></trkpt><trkpt lat="37.2564783" lon="14.8839633"><ele>92.0</ele><time>2026-03-29T08:39:26.343Z</time></trkpt><trkpt lat="37.2565933" lon="14.8837917"><ele>92.0</ele><time>2026-03-29T08:39:27.344Z</time></trkpt><trkpt lat="37.256705" lon="14.88363"><ele>92.0</ele><time>2026-03-29T08:39:28.343Z</time></trkpt><trkpt lat="37.2568133" lon="14.883455"><ele>93.0</ele><time>2026-03-29T08:39:29.344Z</time></trkpt><trkpt lat="37.2569167" lon="14.883265"><ele>94.0</ele><time>2026-03-29T08:39:30.344Z</time></trkpt><trkpt lat="37.2570133" lon="14.883065"><ele>95.0</ele><time>2026-03-29T08:39:31.343Z</time></trkpt><trkpt lat="37.25711" lon="14.88286"><ele>95.0</ele><time>2026-03-29T08:39:32.344Z</time></trkpt><trkpt lat="37.257205" lon="14.88265"><ele>95.0</ele><time>2026-03-29T08:39:33.344Z</time></trkpt><trkpt lat="37.2572983" lon="14.8824417"><ele>95.0</ele><time>2026-03-29T08:39:34.344Z</time></trkpt><trkpt lat="37.257385" lon="14.8822333"><ele>93.33333333333334</ele><time>2026-03-29T08:39:35.344Z</time></trkpt><trkpt lat="37.2574783" lon="14.88202"><ele>91.66666666666667</ele><time>2026-03-29T08:39:36.344Z</time></trkpt><trkpt lat="37.2575717" lon="14.88181"><ele>90.0</ele><time>2026-03-29T08:39:37.344Z</time></trkpt><trkpt lat="37.2576633" lon="14.8815967"><ele>90.0</ele><time>2026-03-29T08:39:38.344Z</time></trkpt><trkpt lat="37.2577517" lon="14.8813883"><ele>90.0</ele><time>2026-03-29T08:39:39.344Z</time></trkpt><trkpt lat="37.2578333" lon="14.8812083"><ele>90.0</ele><time>2026-03-29T08:39:40.344Z</time></trkpt><trkpt lat="37.2579283" lon="14.8810417"><ele>89.5</ele><time>2026-03-29T08:39:41.344Z</time></trkpt><trkpt lat="37.2580217" lon="14.8808983"><ele>89.0</ele><time>2026-03-29T08:39:42.343Z</time></trkpt><trkpt lat="37.2581083" lon="14.8807583"><ele>88.5</ele><time>2026-03-29T08:39:43.343Z</time></trkpt><trkpt lat="37.2581633" lon="14.8806"><ele>88.0</ele><time>2026-03-29T08:39:44.344Z</time></trkpt><trkpt lat="37.2581983" lon="14.88042"><ele>88.0</ele><time>2026-03-29T08:39:45.344Z</time></trkpt><trkpt lat="37.2582183" lon="14.8802317"><ele>88.0</ele><time>2026-03-29T08:39:46.343Z</time></trkpt><trkpt lat="37.2582567" lon="14.8800517"><ele>88.0</ele><time>2026-03-29T08:39:47.343Z</time></trkpt><trkpt lat="37.2583067" lon="14.8798783"><ele>88.0</ele><time>2026-03-29T08:39:48.343Z</time></trkpt><trkpt lat="37.2583817" lon="14.8797017"><ele>89.66666666666666</ele><time>2026-03-29T08:39:49.343Z</time></trkpt><trkpt lat="37.2584517" lon="14.8795367"><ele>91.33333333333333</ele><time>2026-03-29T08:39:50.343Z</time></trkpt><trkpt lat="37.2585367" lon="14.8793517"><ele>93.0</ele><time>2026-03-29T08:39:51.343Z</time></trkpt><trkpt lat="37.2586167" lon="14.879175"><ele>95.33333333333334</ele><time>2026-03-29T08:39:52.344Z</time></trkpt><trkpt lat="37.2586767" lon="14.878995"><ele>97.66666666666667</ele><time>2026-03-29T08:39:53.343Z</time></trkpt><trkpt lat="37.2587333" lon="14.878795"><ele>100.0</ele><time>2026-03-29T08:39:54.343Z</time></trkpt><trkpt lat="37.2587483" lon="14.87859"><ele>102.0</ele><time>2026-03-29T08:39:55.343Z</time></trkpt><trkpt lat="37.2587533" lon="14.87837"><ele>104.0</ele><time>2026-03-29T08:39:56.344Z</time></trkpt><trkpt lat="37.2587583" lon="14.87814"><ele>106.0</ele><time>2026-03-29T08:39:57.343Z</time></trkpt><trkpt lat="37.2587633" lon="14.8779167"><ele>106.0</ele><time>2026-03-29T08:39:58.343Z</time></trkpt><trkpt lat="37.2587683" lon="14.8776917"><ele>106.0</ele><time>2026-03-29T08:39:59.343Z</time></trkpt><trkpt lat="37.2587733" lon="14.87746"><ele>106.0</ele><time>2026-03-29T08:40:00.343Z</time></trkpt><trkpt lat="37.2587783" lon="14.8772283"><ele>107.33333333333334</ele><time>2026-03-29T08:40:01.343Z</time></trkpt><trkpt lat="37.25878" lon="14.8769967"><ele>108.66666666666666</ele><time>2026-03-29T08:40:02.343Z</time></trkpt><trkpt lat="37.25877" lon="14.8767767"><ele>110.0</ele><time>2026-03-29T08:40:03.343Z</time></trkpt><trkpt lat="37.2587533" lon="14.8765717"><ele>109.66666666666666</ele><time>2026-03-29T08:40:04.343Z</time></trkpt><trkpt lat="37.25873" lon="14.8763567"><ele>109.33333333333334</ele><time>2026-03-29T08:40:05.344Z</time></trkpt><trkpt lat="37.25871" lon="14.876145"><ele>109.0</ele><time>2026-03-29T08:40:06.343Z</time></trkpt><trkpt lat="37.2586867" lon="14.8759367"><ele>109.0</ele><time>2026-03-29T08:40:07.343Z</time></trkpt><trkpt lat="37.2586683" lon="14.8757417"><ele>109.0</ele><time>2026-03-29T08:40:08.344Z</time></trkpt><trkpt lat="37.258645" lon="14.8755567"><ele>109.0</ele><time>2026-03-29T08:40:09.343Z</time></trkpt><trkpt lat="37.2586167" lon="14.8753917"><ele>109.0</ele><time>2026-03-29T08:40:10.343Z</time></trkpt><trkpt lat="37.2585817" lon="14.875245"><ele>109.00000000000001</ele><time>2026-03-29T08:40:11.343Z</time></trkpt><trkpt lat="37.2585533" lon="14.8751317"><ele>109.0</ele><time>2026-03-29T08:40:12.344Z</time></trkpt><trkpt lat="37.25854" lon="14.87502"><ele>109.0</ele><time>2026-03-29T08:40:13.343Z</time></trkpt><trkpt lat="37.2585667" lon="14.874925"><ele>109.0</ele><time>2026-03-29T08:40:14.344Z</time></trkpt><trkpt lat="37.258615" lon="14.87485"><ele>109.00000000000001</ele><time>2026-03-29T08:40:15.343Z</time></trkpt><trkpt lat="37.2586983" lon="14.87479"><ele>109.0</ele><time>2026-03-29T08:40:16.343Z</time></trkpt><trkpt lat="37.2588" lon="14.8747217"><ele>108.75</ele><time>2026-03-29T08:40:17.344Z</time></trkpt><trkpt lat="37.2589117" lon="14.874645"><ele>108.5</ele><time>2026-03-29T08:40:18.344Z</time></trkpt><trkpt lat="37.2590233" lon="14.874555"><ele>108.25</ele><time>2026-03-29T08:40:19.344Z</time></trkpt><trkpt lat="37.259145" lon="14.87446"><ele>108.0</ele><time>2026-03-29T08:40:20.343Z</time></trkpt><trkpt lat="37.259255" lon="14.8743717"><ele>106.25</ele><time>2026-03-29T08:40:21.343Z</time></trkpt><trkpt lat="37.259345" lon="14.874265"><ele>104.5</ele><time>2026-03-29T08:40:22.344Z</time></trkpt><trkpt lat="37.2594017" lon="14.8741367"><ele>102.75</ele><time>2026-03-29T08:40:23.343Z</time></trkpt><trkpt lat="37.2594333" lon="14.8739867"><ele>101.0</ele><time>2026-03-29T08:40:24.343Z</time></trkpt><trkpt lat="37.2594283" lon="14.8738233"><ele>101.0</ele><time>2026-03-29T08:40:25.344Z</time></trkpt><trkpt lat="37.25938" lon="14.8736367"><ele>101.0</ele><time>2026-03-29T08:40:26.344Z</time></trkpt><trkpt lat="37.2593133" lon="14.8734467"><ele>101.0</ele><time>2026-03-29T08:40:27.344Z</time></trkpt><trkpt lat="37.2592567" lon="14.8732567"><ele>103.0</ele><time>2026-03-29T08:40:28.344Z</time></trkpt><trkpt lat="37.2591983" lon="14.8730633"><ele>105.0</ele><time>2026-03-29T08:40:29.343Z</time></trkpt><trkpt lat="37.259145" lon="14.872875"><ele>107.0</ele><time>2026-03-29T08:40:30.344Z</time></trkpt><trkpt lat="37.259085" lon="14.8726833"><ele>108.66666666666666</ele><time>2026-03-29T08:40:31.344Z</time></trkpt><trkpt lat="37.25903" lon="14.8724967"><ele>110.33333333333334</ele><time>2026-03-29T08:40:32.344Z</time></trkpt><trkpt lat="37.258975" lon="14.8723033"><ele>112.0</ele><time>2026-03-29T08:40:33.344Z</time></trkpt><trkpt lat="37.2589233" lon="14.87211"><ele>109.0</ele><time>2026-03-29T08:40:34.344Z</time></trkpt><trkpt lat="37.2588733" lon="14.87192"><ele>106.0</ele><time>2026-03-29T08:40:35.343Z</time></trkpt><trkpt lat="37.25883" lon="14.871735"><ele>103.0</ele><time>2026-03-29T08:40:36.343Z</time></trkpt><trkpt lat="37.2587983" lon="14.8715617"><ele>103.0</ele><time>2026-03-29T08:40:37.343Z</time></trkpt><trkpt lat="37.2587717" lon="14.871385"><ele>103.0</ele><time>2026-03-29T08:40:38.343Z</time></trkpt><trkpt lat="37.2587617" lon="14.8712117"><ele>103.0</ele><time>2026-03-29T08:40:39.344Z</time></trkpt><trkpt lat="37.258785" lon="14.8710483"><ele>103.0</ele><time>2026-03-29T08:40:40.343Z</time></trkpt><trkpt lat="37.25885" lon="14.8708933"><ele>105.75</ele><time>2026-03-29T08:40:41.344Z</time></trkpt><trkpt lat="37.2589317" lon="14.87075"><ele>108.5</ele><time>2026-03-29T08:40:42.344Z</time></trkpt><trkpt lat="37.25903" lon="14.8706267"><ele>111.25</ele><time>2026-03-29T08:40:43.343Z</time></trkpt><trkpt lat="37.2591483" lon="14.8705067"><ele>114.0</ele><time>2026-03-29T08:40:44.343Z</time></trkpt><trkpt lat="37.2592717" lon="14.8703983"><ele>116.0</ele><time>2026-03-29T08:40:45.343Z</time></trkpt><trkpt lat="37.2594033" lon="14.8702967"><ele>118.0</ele><time>2026-03-29T08:40:46.344Z</time></trkpt><trkpt lat="37.25952" lon="14.8701983"><ele>120.0</ele><time>2026-03-29T08:40:47.343Z</time></trkpt><trkpt lat="37.2596183" lon="14.8700933"><ele>122.0</ele><time>2026-03-29T08:40:48.343Z</time></trkpt><trkpt lat="37.2596967" lon="14.8699817"><ele>123.0</ele><time>2026-03-29T08:40:49.343Z</time></trkpt><trkpt lat="37.2597417" lon="14.86987"><ele>124.0</ele><time>2026-03-29T08:40:50.343Z</time></trkpt><trkpt lat="37.259755" lon="14.8697233"><ele>125.0</ele><time>2026-03-29T08:40:51.344Z</time></trkpt><trkpt lat="37.2597333" lon="14.86957"><ele>126.0</ele><time>2026-03-29T08:40:52.343Z</time></trkpt><trkpt lat="37.259705" lon="14.86941"><ele>126.25</ele><time>2026-03-29T08:40:53.344Z</time></trkpt><trkpt lat="37.2596933" lon="14.8692383"><ele>126.5</ele><time>2026-03-29T08:40:54.343Z</time></trkpt><trkpt lat="37.25972" lon="14.8690917"><ele>126.75</ele><time>2026-03-29T08:40:55.343Z</time></trkpt><trkpt lat="37.2597767" lon="14.868965"><ele>127.0</ele><time>2026-03-29T08:40:56.344Z</time></trkpt><trkpt lat="37.25984" lon="14.868875"><ele>125.6</ele><time>2026-03-29T08:40:57.343Z</time></trkpt><trkpt lat="37.2599183" lon="14.8688217"><ele>124.19999999999999</ele><time>2026-03-29T08:40:58.344Z</time></trkpt><trkpt lat="37.26" lon="14.8688017"><ele>122.8</ele><time>2026-03-29T08:40:59.343Z</time></trkpt><trkpt lat="37.2600967" lon="14.8688117"><ele>121.4</ele><time>2026-03-29T08:41:00.343Z</time></trkpt><trkpt lat="37.2602083" lon="14.8688383"><ele>120.0</ele><time>2026-03-29T08:41:01.344Z</time></trkpt><trkpt lat="37.2603217" lon="14.8688667"><ele>120.0</ele><time>2026-03-29T08:41:02.344Z</time></trkpt><trkpt lat="37.260435" lon="14.86889"><ele>120.0</ele><time>2026-03-29T08:41:03.344Z</time></trkpt><trkpt lat="37.2605367" lon="14.8689033"><ele>120.0</ele><time>2026-03-29T08:41:04.344Z</time></trkpt><trkpt lat="37.2606367" lon="14.8689017"><ele>120.0</ele><time>2026-03-29T08:41:05.344Z</time></trkpt><trkpt lat="37.260745" lon="14.8688867"><ele>120.0</ele><time>2026-03-29T08:41:06.344Z</time></trkpt><trkpt lat="37.2608533" lon="14.8688533"><ele>119.75</ele><time>2026-03-29T08:41:07.344Z</time></trkpt><trkpt lat="37.2609717" lon="14.8688133"><ele>119.5</ele><time>2026-03-29T08:41:08.344Z</time></trkpt><trkpt lat="37.261095" lon="14.8687633"><ele>119.25</ele><time>2026-03-29T08:41:09.343Z</time></trkpt><trkpt lat="37.2612283" lon="14.86871"><ele>119.0</ele><time>2026-03-29T08:41:10.343Z</time></trkpt><trkpt lat="37.26136" lon="14.868655"><ele>119.0</ele><time>2026-03-29T08:41:11.343Z</time></trkpt><trkpt lat="37.2615033" lon="14.8685967"><ele>119.0</ele><time>2026-03-29T08:41:12.343Z</time></trkpt><trkpt lat="37.261645" lon="14.8685467"><ele>119.0</ele><time>2026-03-29T08:41:13.344Z</time></trkpt><trkpt lat="37.2617917" lon="14.86849"><ele>119.0</ele><time>2026-03-29T08:41:14.343Z</time></trkpt><trkpt lat="37.2619417" lon="14.8684417"><ele>119.0</ele><time>2026-03-29T08:41:15.343Z</time></trkpt><trkpt lat="37.2620783" lon="14.8684217"><ele>119.0</ele><time>2026-03-29T08:41:16.344Z</time></trkpt><trkpt lat="37.2622167" lon="14.868455"><ele>119.0</ele><time>2026-03-29T08:41:17.344Z</time></trkpt><trkpt lat="37.2623533" lon="14.868535"><ele>119.33333333333333</ele><time>2026-03-29T08:41:18.343Z</time></trkpt><trkpt lat="37.2624767" lon="14.8686467"><ele>119.66666666666666</ele><time>2026-03-29T08:41:19.343Z</time></trkpt><trkpt lat="37.262595" lon="14.8687633"><ele>120.0</ele><time>2026-03-29T08:41:20.343Z</time></trkpt><trkpt lat="37.2627233" lon="14.8688683"><ele>120.0</ele><time>2026-03-29T08:41:21.344Z</time></trkpt><trkpt lat="37.262855" lon="14.8689667"><ele>120.0</ele><time>2026-03-29T08:41:22.344Z</time></trkpt><trkpt lat="37.2629767" lon="14.86906"><ele>120.0</ele><time>2026-03-29T08:41:23.344Z</time></trkpt><trkpt lat="37.2630967" lon="14.8691417"><ele>120.0</ele><time>2026-03-29T08:41:24.344Z</time></trkpt><trkpt lat="37.2632183" lon="14.8692117"><ele>121.25</ele><time>2026-03-29T08:41:25.343Z</time></trkpt><trkpt lat="37.2633467" lon="14.8692583"><ele>122.5</ele><time>2026-03-29T08:41:26.343Z</time></trkpt><trkpt lat="37.2634817" lon="14.86928"><ele>123.75</ele><time>2026-03-29T08:41:27.343Z</time></trkpt><trkpt lat="37.2636317" lon="14.8692717"><ele>125.0</ele><time>2026-03-29T08:41:28.343Z</time></trkpt><trkpt lat="37.2637783" lon="14.8692517"><ele>125.0</ele><time>2026-03-29T08:41:29.344Z</time></trkpt><trkpt lat="37.2639283" lon="14.8692317"><ele>125.0</ele><time>2026-03-29T08:41:30.344Z</time></trkpt><trkpt lat="37.264065" lon="14.869205"><ele>125.0</ele><time>2026-03-29T08:41:31.343Z</time></trkpt><trkpt lat="37.26419" lon="14.8691617"><ele>125.0</ele><time>2026-03-29T08:41:32.344Z</time></trkpt><trkpt lat="37.264305" lon="14.8690833"><ele>124.75</ele><time>2026-03-29T08:41:33.343Z</time></trkpt><trkpt lat="37.264415" lon="14.8689783"><ele>124.5</ele><time>2026-03-29T08:41:34.343Z</time></trkpt><trkpt lat="37.2645217" lon="14.86886"><ele>124.25</ele><time>2026-03-29T08:41:35.344Z</time></trkpt><trkpt lat="37.2646267" lon="14.8687367"><ele>124.0</ele><time>2026-03-29T08:41:36.343Z</time></trkpt><trkpt lat="37.2647333" lon="14.8686067"><ele>123.33333333333334</ele><time>2026-03-29T08:41:37.343Z</time></trkpt><trkpt lat="37.2648417" lon="14.8684633"><ele>122.66666666666666</ele><time>2026-03-29T08:41:38.343Z</time></trkpt><trkpt lat="37.2649667" lon="14.86833"><ele>122.0</ele><time>2026-03-29T08:41:39.344Z</time></trkpt><trkpt lat="37.265095" lon="14.868215"><ele>122.0</ele><time>2026-03-29T08:41:40.344Z</time></trkpt><trkpt lat="37.2652233" lon="14.8681033"><ele>122.0</ele><time>2026-03-29T08:41:41.344Z</time></trkpt><trkpt lat="37.2653533" lon="14.86799"><ele>122.0</ele><time>2026-03-29T08:41:42.344Z</time></trkpt><trkpt lat="37.2654767" lon="14.8678733"><ele>122.0</ele><time>2026-03-29T08:41:43.344Z</time></trkpt><trkpt lat="37.2655983" lon="14.8677517"><ele>122.0</ele><time>2026-03-29T08:41:44.344Z</time></trkpt><trkpt lat="37.2657033" lon="14.86763"><ele>122.0</ele><time>2026-03-29T08:41:45.344Z</time></trkpt><trkpt lat="37.2658" lon="14.867495"><ele>122.0</ele><time>2026-03-29T08:41:46.344Z</time></trkpt><trkpt lat="37.2658883" lon="14.8673367"><ele>119.66666666666666</ele><time>2026-03-29T08:41:47.344Z</time></trkpt><trkpt lat="37.2659767" lon="14.86716"><ele>117.33333333333334</ele><time>2026-03-29T08:41:48.343Z</time></trkpt><trkpt lat="37.2660483" lon="14.8669717"><ele>115.0</ele><time>2026-03-29T08:41:49.344Z</time></trkpt><trkpt lat="37.26613" lon="14.8667817"><ele>116.33333333333334</ele><time>2026-03-29T08:41:50.344Z</time></trkpt><trkpt lat="37.2662033" lon="14.866595"><ele>117.66666666666666</ele><time>2026-03-29T08:41:51.343Z</time></trkpt><trkpt lat="37.2662717" lon="14.8664067"><ele>119.0</ele><time>2026-03-29T08:41:52.343Z</time></trkpt><trkpt lat="37.2663383" lon="14.866215"><ele>119.0</ele><time>2026-03-29T08:41:53.343Z</time></trkpt><trkpt lat="37.2663983" lon="14.8660167"><ele>119.0</ele><time>2026-03-29T08:41:54.343Z</time></trkpt><trkpt lat="37.2664517" lon="14.86582"><ele>119.0</ele><time>2026-03-29T08:41:55.343Z</time></trkpt><trkpt lat="37.266505" lon="14.86562"><ele>116.66666666666666</ele><time>2026-03-29T08:41:56.343Z</time></trkpt><trkpt lat="37.266565" lon="14.8654217"><ele>114.33333333333334</ele><time>2026-03-29T08:41:57.344Z</time></trkpt><trkpt lat="37.2666117" lon="14.8652233"><ele>112.0</ele><time>2026-03-29T08:41:58.343Z</time></trkpt><trkpt lat="37.2666617" lon="14.865025"><ele>112.0</ele><time>2026-03-29T08:41:59.344Z</time></trkpt><trkpt lat="37.2667167" lon="14.864825"><ele>112.0</ele><time>2026-03-29T08:42:00.343Z</time></trkpt><trkpt lat="37.2667767" lon="14.8646183"><ele>112.0</ele><time>2026-03-29T08:42:01.344Z</time></trkpt><trkpt lat="37.2668383" lon="14.8644067"><ele>111.0</ele><time>2026-03-29T08:42:02.343Z</time></trkpt><trkpt lat="37.266895" lon="14.8642017"><ele>110.0</ele><time>2026-03-29T08:42:03.344Z</time></trkpt><trkpt lat="37.2669533" lon="14.8639967"><ele>109.0</ele><time>2026-03-29T08:42:04.344Z</time></trkpt><trkpt lat="37.2670067" lon="14.8637967"><ele>109.0</ele><time>2026-03-29T08:42:05.344Z</time></trkpt><trkpt lat="37.2670567" lon="14.8636117"><ele>109.0</ele><time>2026-03-29T08:42:06.344Z</time></trkpt><trkpt lat="37.267105" lon="14.8634217"><ele>109.0</ele><time>2026-03-29T08:42:07.343Z</time></trkpt><trkpt lat="37.2671567" lon="14.8632433"><ele>109.5</ele><time>2026-03-29T08:42:08.344Z</time></trkpt><trkpt lat="37.2672383" lon="14.8630867"><ele>110.0</ele><time>2026-03-29T08:42:09.344Z</time></trkpt><trkpt lat="37.2673317" lon="14.86296"><ele>110.5</ele><time>2026-03-29T08:42:10.344Z</time></trkpt><trkpt lat="37.2674433" lon="14.862855"><ele>111.0</ele><time>2026-03-29T08:42:11.343Z</time></trkpt><trkpt lat="37.267585" lon="14.8627817"><ele>110.66666666666666</ele><time>2026-03-29T08:42:12.344Z</time></trkpt><trkpt lat="37.2677283" lon="14.8627067"><ele>110.33333333333333</ele><time>2026-03-29T08:42:13.344Z</time></trkpt><trkpt lat="37.2678783" lon="14.86263"><ele>110.0</ele><time>2026-03-29T08:42:14.343Z</time></trkpt><trkpt lat="37.2680317" lon="14.8625617"><ele>109.0</ele><time>2026-03-29T08:42:15.343Z</time></trkpt><trkpt lat="37.2681833" lon="14.8624883"><ele>108.0</ele><time>2026-03-29T08:42:16.343Z</time></trkpt><trkpt lat="37.26834" lon="14.862415"><ele>107.0</ele><time>2026-03-29T08:42:17.343Z</time></trkpt><trkpt lat="37.268495" lon="14.8623433"><ele>107.0</ele><time>2026-03-29T08:42:18.344Z</time></trkpt><trkpt lat="37.2686517" lon="14.8622617"><ele>107.0</ele><time>2026-03-29T08:42:19.343Z</time></trkpt><trkpt lat="37.2688017" lon="14.8621867"><ele>107.0</ele><time>2026-03-29T08:42:20.343Z</time></trkpt><trkpt lat="37.2689417" lon="14.862115"><ele>105.75</ele><time>2026-03-29T08:42:21.344Z</time></trkpt><trkpt lat="37.269075" lon="14.862055"><ele>104.5</ele><time>2026-03-29T08:42:22.343Z</time></trkpt><trkpt lat="37.2692" lon="14.862025"><ele>103.25</ele><time>2026-03-29T08:42:23.344Z</time></trkpt><trkpt lat="37.2693167" lon="14.8620417"><ele>102.0</ele><time>2026-03-29T08:42:24.344Z</time></trkpt><trkpt lat="37.2694383" lon="14.862095"><ele>102.0</ele><time>2026-03-29T08:42:25.344Z</time></trkpt><trkpt lat="37.26956" lon="14.8621833"><ele>102.0</ele><time>2026-03-29T08:42:26.343Z</time></trkpt><trkpt lat="37.2696783" lon="14.8622883"><ele>102.0</ele><time>2026-03-29T08:42:27.343Z</time></trkpt><trkpt lat="37.2697983" lon="14.8624083"><ele>102.0</ele><time>2026-03-29T08:42:28.344Z</time></trkpt><trkpt lat="37.2699267" lon="14.8625233"><ele>101.0</ele><time>2026-03-29T08:42:29.344Z</time></trkpt><trkpt lat="37.2700533" lon="14.8626317"><ele>100.0</ele><time>2026-03-29T08:42:30.343Z</time></trkpt><trkpt lat="37.2701867" lon="14.8627333"><ele>99.0</ele><time>2026-03-29T08:42:31.344Z</time></trkpt><trkpt lat="37.2703183" lon="14.8628233"><ele>99.0</ele><time>2026-03-29T08:42:32.343Z</time></trkpt><trkpt lat="37.2704433" lon="14.8628933"><ele>99.0</ele><time>2026-03-29T08:42:33.343Z</time></trkpt><trkpt lat="37.2705783" lon="14.8629383"><ele>99.0</ele><time>2026-03-29T08:42:34.344Z</time></trkpt><trkpt lat="37.2707133" lon="14.862945"><ele>99.0</ele><time>2026-03-29T08:42:35.344Z</time></trkpt><trkpt lat="37.2708433" lon="14.8629117"><ele>98.66666666666666</ele><time>2026-03-29T08:42:36.343Z</time></trkpt><trkpt lat="37.270975" lon="14.862835"><ele>98.33333333333333</ele><time>2026-03-29T08:42:37.343Z</time></trkpt><trkpt lat="37.27111" lon="14.8627383"><ele>98.0</ele><time>2026-03-29T08:42:38.343Z</time></trkpt><trkpt lat="37.2712467" lon="14.86263"><ele>98.33333333333333</ele><time>2026-03-29T08:42:39.343Z</time></trkpt><trkpt lat="37.271385" lon="14.862505"><ele>98.66666666666666</ele><time>2026-03-29T08:42:40.343Z</time></trkpt><trkpt lat="37.2715217" lon="14.8623683"><ele>99.0</ele><time>2026-03-29T08:42:41.343Z</time></trkpt><trkpt lat="37.271665" lon="14.8622283"><ele>99.0</ele><time>2026-03-29T08:42:42.344Z</time></trkpt><trkpt lat="37.271805" lon="14.86209"><ele>99.0</ele><time>2026-03-29T08:42:43.343Z</time></trkpt><trkpt lat="37.2719367" lon="14.8619567"><ele>99.0</ele><time>2026-03-29T08:42:44.343Z</time></trkpt><trkpt lat="37.272075" lon="14.8618267"><ele>100.0</ele><time>2026-03-29T08:42:45.343Z</time></trkpt><trkpt lat="37.2722083" lon="14.861695"><ele>101.0</ele><time>2026-03-29T08:42:46.343Z</time></trkpt><trkpt lat="37.2723417" lon="14.8615617"><ele>102.0</ele><time>2026-03-29T08:42:47.343Z</time></trkpt><trkpt lat="37.2724767" lon="14.8614367"><ele>99.33333333333333</ele><time>2026-03-29T08:42:48.344Z</time></trkpt><trkpt lat="37.2726267" lon="14.8613433"><ele>96.66666666666666</ele><time>2026-03-29T08:42:49.343Z</time></trkpt><trkpt lat="37.2727867" lon="14.8612583"><ele>94.0</ele><time>2026-03-29T08:42:50.344Z</time></trkpt><trkpt lat="37.2729517" lon="14.8611883"><ele>93.0</ele><time>2026-03-29T08:42:51.344Z</time></trkpt><trkpt lat="37.2731167" lon="14.861115"><ele>92.0</ele><time>2026-03-29T08:42:52.343Z</time></trkpt><trkpt lat="37.2732817" lon="14.8610467"><ele>91.0</ele><time>2026-03-29T08:42:53.343Z</time></trkpt><trkpt lat="37.2734467" lon="14.8609867"><ele>92.0</ele><time>2026-03-29T08:42:54.343Z</time></trkpt><trkpt lat="37.27362" lon="14.860935"><ele>93.0</ele><time>2026-03-29T08:42:55.343Z</time></trkpt><trkpt lat="37.2737983" lon="14.86089"><ele>94.0</ele><time>2026-03-29T08:42:56.344Z</time></trkpt><trkpt lat="37.2739783" lon="14.8608517"><ele>94.0</ele><time>2026-03-29T08:42:57.343Z</time></trkpt><trkpt lat="37.27416" lon="14.860815"><ele>94.0</ele><time>2026-03-29T08:42:58.344Z</time></trkpt><trkpt lat="37.2743417" lon="14.8607783"><ele>94.0</ele><time>2026-03-29T08:42:59.343Z</time></trkpt><trkpt lat="37.2745267" lon="14.8607333"><ele>94.0</ele><time>2026-03-29T08:43:00.344Z</time></trkpt><trkpt lat="37.2747033" lon="14.86068"><ele>94.0</ele><time>2026-03-29T08:43:01.343Z</time></trkpt><trkpt lat="37.27487" lon="14.86062"><ele>94.0</ele><time>2026-03-29T08:43:02.344Z</time></trkpt><trkpt lat="37.275035" lon="14.8605483"><ele>94.0</ele><time>2026-03-29T08:43:03.344Z</time></trkpt><trkpt lat="37.2752" lon="14.8604683"><ele>94.0</ele><time>2026-03-29T08:43:04.343Z</time></trkpt><trkpt lat="37.2753683" lon="14.860375"><ele>94.0</ele><time>2026-03-29T08:43:05.344Z</time></trkpt><trkpt lat="37.2755133" lon="14.8602733"><ele>94.0</ele><time>2026-03-29T08:43:06.343Z</time></trkpt><trkpt lat="37.2756617" lon="14.8601583"><ele>94.0</ele><time>2026-03-29T08:43:07.343Z</time></trkpt><trkpt lat="37.2757983" lon="14.8600233"><ele>94.0</ele><time>2026-03-29T08:43:08.343Z</time></trkpt><trkpt lat="37.2759317" lon="14.8598967"><ele>94.33333333333333</ele><time>2026-03-29T08:43:09.343Z</time></trkpt><trkpt lat="37.2760667" lon="14.8597533"><ele>94.66666666666667</ele><time>2026-03-29T08:43:10.344Z</time></trkpt><trkpt lat="37.2761967" lon="14.8596033"><ele>95.0</ele><time>2026-03-29T08:43:11.343Z</time></trkpt><trkpt lat="37.27633" lon="14.85945"><ele>96.33333333333334</ele><time>2026-03-29T08:43:12.343Z</time></trkpt><trkpt lat="37.2764667" lon="14.8592967"><ele>97.66666666666667</ele><time>2026-03-29T08:43:13.343Z</time></trkpt><trkpt lat="37.2765983" lon="14.85914"><ele>99.0</ele><time>2026-03-29T08:43:14.343Z</time></trkpt><trkpt lat="37.2767317" lon="14.8589883"><ele>99.0</ele><time>2026-03-29T08:43:15.343Z</time></trkpt><trkpt lat="37.2768683" lon="14.8588283"><ele>99.0</ele><time>2026-03-29T08:43:16.343Z</time></trkpt><trkpt lat="37.2770033" lon="14.8586683"><ele>99.0</ele><time>2026-03-29T08:43:17.343Z</time></trkpt><trkpt lat="37.2771517" lon="14.8585117"><ele>98.33333333333334</ele><time>2026-03-29T08:43:18.344Z</time></trkpt><trkpt lat="37.2772933" lon="14.8583533"><ele>97.66666666666667</ele><time>2026-03-29T08:43:19.343Z</time></trkpt><trkpt lat="37.2774383" lon="14.858195"><ele>97.0</ele><time>2026-03-29T08:43:20.344Z</time></trkpt><trkpt lat="37.2775767" lon="14.8580433"><ele>97.0</ele><time>2026-03-29T08:43:21.343Z</time></trkpt><trkpt lat="37.2777117" lon="14.8578883"><ele>97.0</ele><time>2026-03-29T08:43:22.344Z</time></trkpt><trkpt lat="37.2778467" lon="14.8577333"><ele>97.0</ele><time>2026-03-29T08:43:23.343Z</time></trkpt><trkpt lat="37.2779833" lon="14.8575817"><ele>96.66666666666667</ele><time>2026-03-29T08:43:24.343Z</time></trkpt><trkpt lat="37.2781183" lon="14.85743"><ele>96.33333333333334</ele><time>2026-03-29T08:43:25.344Z</time></trkpt><trkpt lat="37.2782533" lon="14.85728"><ele>96.0</ele><time>2026-03-29T08:43:26.344Z</time></trkpt><trkpt lat="37.2783667" lon="14.85712"><ele>96.0</ele><time>2026-03-29T08:43:27.344Z</time></trkpt><trkpt lat="37.27849" lon="14.8569567"><ele>96.0</ele><time>2026-03-29T08:43:28.343Z</time></trkpt><trkpt lat="37.2786033" lon="14.8567833"><ele>96.0</ele><time>2026-03-29T08:43:29.344Z</time></trkpt><trkpt lat="37.2787083" lon="14.8566017"><ele>97.0</ele><time>2026-03-29T08:43:30.343Z</time></trkpt><trkpt lat="37.2788117" lon="14.856415"><ele>98.0</ele><time>2026-03-29T08:43:31.344Z</time></trkpt><trkpt lat="37.278905" lon="14.8562233"><ele>99.0</ele><time>2026-03-29T08:43:32.343Z</time></trkpt><trkpt lat="37.279005" lon="14.8560267"><ele>100.0</ele><time>2026-03-29T08:43:33.343Z</time></trkpt><trkpt lat="37.279105" lon="14.8558383"><ele>101.0</ele><time>2026-03-29T08:43:34.343Z</time></trkpt><trkpt lat="37.2792" lon="14.8556617"><ele>102.0</ele><time>2026-03-29T08:43:35.344Z</time></trkpt><trkpt lat="37.2792917" lon="14.8554767"><ele>102.0</ele><time>2026-03-29T08:43:36.344Z</time></trkpt><trkpt lat="37.2793783" lon="14.8553"><ele>102.0</ele><time>2026-03-29T08:43:37.344Z</time></trkpt><trkpt lat="37.2794617" lon="14.8551333"><ele>102.0</ele><time>2026-03-29T08:43:38.343Z</time></trkpt><trkpt lat="37.2795283" lon="14.8549483"><ele>103.33333333333334</ele><time>2026-03-29T08:43:39.343Z</time></trkpt><trkpt lat="37.2795867" lon="14.8547617"><ele>104.66666666666667</ele><time>2026-03-29T08:43:40.344Z</time></trkpt><trkpt lat="37.279605" lon="14.854565"><ele>106.0</ele><time>2026-03-29T08:43:41.343Z</time></trkpt><trkpt lat="37.2796083" lon="14.8543567"><ele>106.66666666666667</ele><time>2026-03-29T08:43:42.343Z</time></trkpt><trkpt lat="37.2796167" lon="14.85415"><ele>107.33333333333334</ele><time>2026-03-29T08:43:43.344Z</time></trkpt><trkpt lat="37.2796317" lon="14.8539517"><ele>108.0</ele><time>2026-03-29T08:43:44.343Z</time></trkpt><trkpt lat="37.2796517" lon="14.853775"><ele>108.0</ele><time>2026-03-29T08:43:45.344Z</time></trkpt><trkpt lat="37.2796783" lon="14.85361"><ele>108.00000000000001</ele><time>2026-03-29T08:43:46.343Z</time></trkpt><trkpt lat="37.279715" lon="14.853485"><ele>108.00000000000001</ele><time>2026-03-29T08:43:47.343Z</time></trkpt><trkpt lat="37.2797733" lon="14.8533917"><ele>108.0</ele><time>2026-03-29T08:43:48.343Z</time></trkpt><trkpt lat="37.279855" lon="14.85332"><ele>108.0</ele><time>2026-03-29T08:43:49.343Z</time></trkpt><trkpt lat="37.2799533" lon="14.85327"><ele>107.75</ele><time>2026-03-29T08:43:50.344Z</time></trkpt><trkpt lat="37.2800633" lon="14.853245"><ele>107.5</ele><time>2026-03-29T08:43:51.343Z</time></trkpt><trkpt lat="37.28018" lon="14.8532183"><ele>107.25</ele><time>2026-03-29T08:43:52.344Z</time></trkpt><trkpt lat="37.280305" lon="14.8531833"><ele>107.0</ele><time>2026-03-29T08:43:53.343Z</time></trkpt><trkpt lat="37.280425" lon="14.85315"><ele>107.0</ele><time>2026-03-29T08:43:54.344Z</time></trkpt><trkpt lat="37.28055" lon="14.8531117"><ele>107.0</ele><time>2026-03-29T08:43:55.343Z</time></trkpt><trkpt lat="37.2806717" lon="14.8530467"><ele>107.0</ele><time>2026-03-29T08:43:56.343Z</time></trkpt><trkpt lat="37.280795" lon="14.852965"><ele>107.0</ele><time>2026-03-29T08:43:57.343Z</time></trkpt><trkpt lat="37.2809133" lon="14.852875"><ele>107.25</ele><time>2026-03-29T08:43:58.343Z</time></trkpt><trkpt lat="37.2810267" lon="14.8527767"><ele>107.5</ele><time>2026-03-29T08:43:59.343Z</time></trkpt><trkpt lat="37.2811417" lon="14.8526867"><ele>107.75</ele><time>2026-03-29T08:44:00.344Z</time></trkpt><trkpt lat="37.2812683" lon="14.8525933"><ele>108.0</ele><time>2026-03-29T08:44:01.343Z</time></trkpt><trkpt lat="37.2813933" lon="14.852525"><ele>107.75</ele><time>2026-03-29T08:44:02.344Z</time></trkpt><trkpt lat="37.281525" lon="14.852485"><ele>107.5</ele><time>2026-03-29T08:44:03.343Z</time></trkpt><trkpt lat="37.2816667" lon="14.852445"><ele>107.25</ele><time>2026-03-29T08:44:04.343Z</time></trkpt><trkpt lat="37.2818233" lon="14.8524217"><ele>107.0</ele><time>2026-03-29T08:44:05.344Z</time></trkpt><trkpt lat="37.28199" lon="14.8523917"><ele>107.0</ele><time>2026-03-29T08:44:06.343Z</time></trkpt><trkpt lat="37.2821567" lon="14.8523567"><ele>107.0</ele><time>2026-03-29T08:44:07.343Z</time></trkpt><trkpt lat="37.282325" lon="14.8523167"><ele>107.0</ele><time>2026-03-29T08:44:08.343Z</time></trkpt><trkpt lat="37.2824817" lon="14.8522767"><ele>107.25</ele><time>2026-03-29T08:44:09.343Z</time></trkpt><trkpt lat="37.282615" lon="14.852235"><ele>107.5</ele><time>2026-03-29T08:44:10.344Z</time></trkpt><trkpt lat="37.28274" lon="14.8521783"><ele>107.75</ele><time>2026-03-29T08:44:11.343Z</time></trkpt><trkpt lat="37.282865" lon="14.85209"><ele>108.0</ele><time>2026-03-29T08:44:12.344Z</time></trkpt><trkpt lat="37.282985" lon="14.8519717"><ele>108.66666666666666</ele><time>2026-03-29T08:44:13.343Z</time></trkpt><trkpt lat="37.2831" lon="14.851835"><ele>109.33333333333333</ele><time>2026-03-29T08:44:14.344Z</time></trkpt><trkpt lat="37.283215" lon="14.8516983"><ele>110.0</ele><time>2026-03-29T08:44:15.343Z</time></trkpt><trkpt lat="37.283335" lon="14.8515683"><ele>110.33333333333333</ele><time>2026-03-29T08:44:16.343Z</time></trkpt><trkpt lat="37.2834633" lon="14.8514433"><ele>110.66666666666666</ele><time>2026-03-29T08:44:17.344Z</time></trkpt><trkpt lat="37.283605" lon="14.851325"><ele>111.0</ele><time>2026-03-29T08:44:18.343Z</time></trkpt><trkpt lat="37.283755" lon="14.851235"><ele>111.0</ele><time>2026-03-29T08:44:19.344Z</time></trkpt><trkpt lat="37.2839183" lon="14.851165"><ele>111.0</ele><time>2026-03-29T08:44:20.344Z</time></trkpt><trkpt lat="37.2840817" lon="14.8511083"><ele>111.0</ele><time>2026-03-29T08:44:21.343Z</time></trkpt><trkpt lat="37.284245" lon="14.851055"><ele>112.33333333333334</ele><time>2026-03-29T08:44:22.344Z</time></trkpt><trkpt lat="37.2844083" lon="14.8510033"><ele>113.66666666666667</ele><time>2026-03-29T08:44:23.344Z</time></trkpt><trkpt lat="37.2845733" lon="14.85095"><ele>115.0</ele><time>2026-03-29T08:44:24.344Z</time></trkpt><trkpt lat="37.2847433" lon="14.8509"><ele>117.0</ele><time>2026-03-29T08:44:25.344Z</time></trkpt><trkpt lat="37.2849117" lon="14.85085"><ele>119.0</ele><time>2026-03-29T08:44:26.344Z</time></trkpt><trkpt lat="37.285065" lon="14.8508067"><ele>121.0</ele><time>2026-03-29T08:44:27.343Z</time></trkpt><trkpt lat="37.2852233" lon="14.8507867"><ele>121.0</ele><time>2026-03-29T08:44:28.344Z</time></trkpt><trkpt lat="37.2853833" lon="14.8507783"><ele>121.0</ele><time>2026-03-29T08:44:29.343Z</time></trkpt><trkpt lat="37.2855333" lon="14.8507833"><ele>121.0</ele><time>2026-03-29T08:44:30.344Z</time></trkpt><trkpt lat="37.2856933" lon="14.8508033"><ele>122.66666666666667</ele><time>2026-03-29T08:44:31.344Z</time></trkpt><trkpt lat="37.2858467" lon="14.850815"><ele>124.33333333333334</ele><time>2026-03-29T08:44:32.343Z</time></trkpt><trkpt lat="37.2860167" lon="14.8508167"><ele>126.0</ele><time>2026-03-29T08:44:33.343Z</time></trkpt><trkpt lat="37.2861783" lon="14.8507983"><ele>126.0</ele><time>2026-03-29T08:44:34.343Z</time></trkpt><trkpt lat="37.2863483" lon="14.8507733"><ele>126.0</ele><time>2026-03-29T08:44:35.344Z</time></trkpt><trkpt lat="37.28652" lon="14.8507333"><ele>126.0</ele><time>2026-03-29T08:44:36.343Z</time></trkpt><trkpt lat="37.286705" lon="14.8506917"><ele>124.33333333333334</ele><time>2026-03-29T08:44:37.344Z</time></trkpt><trkpt lat="37.2868717" lon="14.8506567"><ele>122.66666666666667</ele><time>2026-03-29T08:44:38.344Z</time></trkpt><trkpt lat="37.2870467" lon="14.850625"><ele>121.0</ele><time>2026-03-29T08:44:39.343Z</time></trkpt><trkpt lat="37.2872283" lon="14.8505933"><ele>119.33333333333334</ele><time>2026-03-29T08:44:40.344Z</time></trkpt><trkpt lat="37.287405" lon="14.8505517"><ele>117.66666666666666</ele><time>2026-03-29T08:44:41.343Z</time></trkpt><trkpt lat="37.287585" lon="14.8505183"><ele>116.0</ele><time>2026-03-29T08:44:42.344Z</time></trkpt><trkpt lat="37.28776" lon="14.8504833"><ele>116.0</ele><time>2026-03-29T08:44:43.344Z</time></trkpt><trkpt lat="37.2879333" lon="14.8504467"><ele>116.0</ele><time>2026-03-29T08:44:44.343Z</time></trkpt><trkpt lat="37.2881067" lon="14.8504067"><ele>116.0</ele><time>2026-03-29T08:44:45.344Z</time></trkpt><trkpt lat="37.2882783" lon="14.85038"><ele>116.0</ele><time>2026-03-29T08:44:46.343Z</time></trkpt><trkpt lat="37.2884583" lon="14.8503367"><ele>116.0</ele><time>2026-03-29T08:44:47.343Z</time></trkpt><trkpt lat="37.2886333" lon="14.8503067"><ele>116.0</ele><time>2026-03-29T08:44:48.344Z</time></trkpt><trkpt lat="37.2888017" lon="14.8502767"><ele>115.33333333333333</ele><time>2026-03-29T08:44:49.343Z</time></trkpt><trkpt lat="37.28897" lon="14.85024"><ele>114.66666666666666</ele><time>2026-03-29T08:44:50.344Z</time></trkpt><trkpt lat="37.2891233" lon="14.850205"><ele>114.0</ele><time>2026-03-29T08:44:51.343Z</time></trkpt><trkpt lat="37.28927" lon="14.85017"><ele>114.0</ele><time>2026-03-29T08:44:52.344Z</time></trkpt><trkpt lat="37.2894183" lon="14.8501383"><ele>114.0</ele><time>2026-03-29T08:44:53.343Z</time></trkpt><trkpt lat="37.2895633" lon="14.8501083"><ele>114.0</ele><time>2026-03-29T08:44:54.343Z</time></trkpt><trkpt lat="37.2896967" lon="14.85007"><ele>114.0</ele><time>2026-03-29T08:44:55.344Z</time></trkpt><trkpt lat="37.2898333" lon="14.8500383"><ele>114.66666666666666</ele><time>2026-03-29T08:44:56.344Z</time></trkpt><trkpt lat="37.2899767" lon="14.8499983"><ele>115.33333333333333</ele><time>2026-03-29T08:44:57.344Z</time></trkpt><trkpt lat="37.2901217" lon="14.8499617"><ele>116.0</ele><time>2026-03-29T08:44:58.344Z</time></trkpt><trkpt lat="37.2902833" lon="14.8499267"><ele>116.0</ele><time>2026-03-29T08:44:59.344Z</time></trkpt><trkpt lat="37.2904517" lon="14.849895"><ele>116.0</ele><time>2026-03-29T08:45:00.344Z</time></trkpt><trkpt lat="37.2906217" lon="14.8498667"><ele>116.0</ele><time>2026-03-29T08:45:01.343Z</time></trkpt><trkpt lat="37.2907917" lon="14.8498317"><ele>116.66666666666666</ele><time>2026-03-29T08:45:02.343Z</time></trkpt><trkpt lat="37.290965" lon="14.8498033"><ele>117.33333333333334</ele><time>2026-03-29T08:45:03.343Z</time></trkpt><trkpt lat="37.2911233" lon="14.84977"><ele>118.0</ele><time>2026-03-29T08:45:04.343Z</time></trkpt><trkpt lat="37.2912783" lon="14.8497417"><ele>118.0</ele><time>2026-03-29T08:45:05.343Z</time></trkpt><trkpt lat="37.291425" lon="14.8497083"><ele>118.0</ele><time>2026-03-29T08:45:06.344Z</time></trkpt><trkpt lat="37.2915583" lon="14.8496733"><ele>118.0</ele><time>2026-03-29T08:45:07.343Z</time></trkpt><trkpt lat="37.2916967" lon="14.8496417"><ele>118.0</ele><time>2026-03-29T08:45:08.344Z</time></trkpt><trkpt lat="37.2918317" lon="14.8496117"><ele>118.0</ele><time>2026-03-29T08:45:09.344Z</time></trkpt><trkpt lat="37.2919617" lon="14.8495733"><ele>118.0</ele><time>2026-03-29T08:45:10.344Z</time></trkpt><trkpt lat="37.2920833" lon="14.84953"><ele>118.0</ele><time>2026-03-29T08:45:11.344Z</time></trkpt><trkpt lat="37.2922067" lon="14.8495017"><ele>118.0</ele><time>2026-03-29T08:45:12.344Z</time></trkpt><trkpt lat="37.2923283" lon="14.8494833"><ele>117.60000000000001</ele><time>2026-03-29T08:45:13.343Z</time></trkpt><trkpt lat="37.29245" lon="14.8494717"><ele>117.20000000000002</ele><time>2026-03-29T08:45:14.344Z</time></trkpt><trkpt lat="37.2925633" lon="14.849455"><ele>116.8</ele><time>2026-03-29T08:45:15.344Z</time></trkpt><trkpt lat="37.2926633" lon="14.84943"><ele>116.4</ele><time>2026-03-29T08:45:16.343Z</time></trkpt><trkpt lat="37.29275" lon="14.8494017"><ele>116.0</ele><time>2026-03-29T08:45:17.344Z</time></trkpt><trkpt lat="37.292825" lon="14.849375"><ele>116.0</ele><time>2026-03-29T08:45:18.343Z</time></trkpt><trkpt lat="37.29289" lon="14.8493517"><ele>116.0</ele><time>2026-03-29T08:45:19.343Z</time></trkpt><trkpt lat="37.2930067" lon="14.8493217"><ele>116.0</ele><time>2026-03-29T08:45:21.344Z</time></trkpt><trkpt lat="37.293115" lon="14.8493117"><ele>116.0</ele><time>2026-03-29T08:45:23.343Z</time></trkpt><trkpt lat="37.2932167" lon="14.8492633"><ele>116.0</ele><time>2026-03-29T08:45:25.343Z</time></trkpt><trkpt lat="37.2932883" lon="14.8492467"><ele>116.4</ele><time>2026-03-29T08:45:26.343Z</time></trkpt><trkpt lat="37.2933717" lon="14.84923"><ele>116.8</ele><time>2026-03-29T08:45:27.343Z</time></trkpt><trkpt lat="37.2934633" lon="14.849205"><ele>117.20000000000002</ele><time>2026-03-29T08:45:28.344Z</time></trkpt><trkpt lat="37.29356" lon="14.8491833"><ele>117.60000000000001</ele><time>2026-03-29T08:45:29.343Z</time></trkpt><trkpt lat="37.29366" lon="14.8491633"><ele>118.0</ele><time>2026-03-29T08:45:30.343Z</time></trkpt><trkpt lat="37.29376" lon="14.8491433"><ele>118.0</ele><time>2026-03-29T08:45:31.343Z</time></trkpt><trkpt lat="37.2938667" lon="14.84913"><ele>118.00000000000001</ele><time>2026-03-29T08:45:32.344Z</time></trkpt><trkpt lat="37.2939667" lon="14.8491183"><ele>118.00000000000001</ele><time>2026-03-29T08:45:33.344Z</time></trkpt><trkpt lat="37.2940783" lon="14.8491033"><ele>118.0</ele><time>2026-03-29T08:45:34.344Z</time></trkpt><trkpt lat="37.2941817" lon="14.8490883"><ele>118.0</ele><time>2026-03-29T08:45:35.344Z</time></trkpt><trkpt lat="37.294265" lon="14.84909"><ele>118.4</ele><time>2026-03-29T08:45:36.344Z</time></trkpt><trkpt lat="37.294335" lon="14.849075"><ele>118.80000000000001</ele><time>2026-03-29T08:45:37.343Z</time></trkpt><trkpt lat="37.2943967" lon="14.849055"><ele>119.2</ele><time>2026-03-29T08:45:38.343Z</time></trkpt><trkpt lat="37.2945117" lon="14.84901"><ele>119.6</ele><time>2026-03-29T08:45:40.344Z</time></trkpt><trkpt lat="37.2946133" lon="14.8489633"><ele>120.0</ele><time>2026-03-29T08:45:42.344Z</time></trkpt><trkpt lat="37.2947183" lon="14.8489133"><ele>121.0</ele><time>2026-03-29T08:45:44.343Z</time></trkpt><trkpt lat="37.2947983" lon="14.8487983"><ele>122.0</ele><time>2026-03-29T08:45:46.343Z</time></trkpt><trkpt lat="37.2948017" lon="14.848715"><ele>123.0</ele><time>2026-03-29T08:45:47.343Z</time></trkpt><trkpt lat="37.2947733" lon="14.8485467"><ele>124.0</ele><time>2026-03-29T08:45:49.343Z</time></trkpt><trkpt lat="37.2947567" lon="14.8484583"><ele>125.0</ele><time>2026-03-29T08:45:50.343Z</time></trkpt><trkpt lat="37.2947367" lon="14.848365"><ele>125.0</ele><time>2026-03-29T08:45:51.344Z</time></trkpt><trkpt lat="37.294725" lon="14.8482817"><ele>125.0</ele><time>2026-03-29T08:45:52.343Z</time></trkpt><trkpt lat="37.2947267" lon="14.8482"><ele>125.0</ele><time>2026-03-29T08:45:53.343Z</time></trkpt><trkpt lat="37.2947017" lon="14.8480567"><ele>125.0</ele><time>2026-03-29T08:45:55.344Z</time></trkpt><trkpt lat="37.2946883" lon="14.8479217"><ele>125.0</ele><time>2026-03-29T08:45:57.344Z</time></trkpt><trkpt lat="37.2946917" lon="14.8477833"><ele>125.0</ele><time>2026-03-29T08:45:59.344Z</time></trkpt><trkpt lat="37.2946833" lon="14.8476583"><ele>125.0</ele><time>2026-03-29T08:46:01.343Z</time></trkpt><trkpt lat="37.294675" lon="14.847535"><ele>125.0</ele><time>2026-03-29T08:46:03.344Z</time></trkpt><trkpt lat="37.2946633" lon="14.8474317"><ele>125.0</ele><time>2026-03-29T08:46:05.343Z</time></trkpt><trkpt lat="37.2946433" lon="14.8473317"><ele>125.0</ele><time>2026-03-29T08:46:07.343Z</time></trkpt><trkpt lat="37.294655" lon="14.8472167"><ele>125.8</ele><time>2026-03-29T08:46:09.343Z</time></trkpt><trkpt lat="37.29467" lon="14.8471067"><ele>126.6</ele><time>2026-03-29T08:46:11.344Z</time></trkpt><trkpt lat="37.2947167" lon="14.8469983"><ele>127.4</ele><time>2026-03-29T08:46:13.343Z</time></trkpt><trkpt lat="37.294755" lon="14.8468817"><ele>128.2</ele><time>2026-03-29T08:46:15.343Z</time></trkpt><trkpt lat="37.29479" lon="14.8467533"><ele>129.0</ele><time>2026-03-29T08:46:17.344Z</time></trkpt><trkpt lat="37.294835" lon="14.8466383"><ele>130.6</ele><time>2026-03-29T08:46:19.344Z</time></trkpt><trkpt lat="37.294865" lon="14.8465183"><ele>132.2</ele><time>2026-03-29T08:46:21.344Z</time></trkpt><trkpt lat="37.2949017" lon="14.8463983"><ele>133.79999999999998</ele><time>2026-03-29T08:46:23.343Z</time></trkpt><trkpt lat="37.294935" lon="14.8463017"><ele>135.4</ele><time>2026-03-29T08:46:25.344Z</time></trkpt><trkpt lat="37.2949867" lon="14.8461717"><ele>137.0</ele><time>2026-03-29T08:46:27.344Z</time></trkpt><trkpt lat="37.295035" lon="14.846105"><ele>137.0</ele><time>2026-03-29T08:46:28.344Z</time></trkpt><trkpt lat="37.2951367" lon="14.8460033"><ele>137.0</ele><time>2026-03-29T08:46:30.344Z</time></trkpt><trkpt lat="37.295195" lon="14.8459483"><ele>137.0</ele><time>2026-03-29T08:46:31.343Z</time></trkpt><trkpt lat="37.2952533" lon="14.8458917"><ele>137.0</ele><time>2026-03-29T08:46:32.344Z</time></trkpt><trkpt lat="37.2953083" lon="14.84584"><ele>137.0</ele><time>2026-03-29T08:46:33.344Z</time></trkpt><trkpt lat="37.2953617" lon="14.84579"><ele>137.0</ele><time>2026-03-29T08:46:34.344Z</time></trkpt><trkpt lat="37.2954133" lon="14.8457367"><ele>137.16666666666666</ele><time>2026-03-29T08:46:35.343Z</time></trkpt><trkpt lat="37.2954983" lon="14.8456933"><ele>137.33333333333331</ele><time>2026-03-29T08:46:37.343Z</time></trkpt><trkpt lat="37.2955517" lon="14.8456233"><ele>137.5</ele><time>2026-03-29T08:46:43.344Z</time></trkpt><trkpt lat="37.2956267" lon="14.8455533"><ele>137.66666666666666</ele><time>2026-03-29T08:46:46.344Z</time></trkpt><trkpt lat="37.29568" lon="14.845495"><ele>137.83333333333334</ele><time>2026-03-29T08:46:50.344Z</time></trkpt><trkpt lat="37.29574" lon="14.8454333"><ele>138.0</ele><time>2026-03-29T08:46:54.344Z</time></trkpt><trkpt lat="37.295825" lon="14.8453717"><ele>138.8</ele><time>2026-03-29T08:46:56.344Z</time></trkpt><trkpt lat="37.2958917" lon="14.8453267"><ele>139.60000000000002</ele><time>2026-03-29T08:46:57.343Z</time></trkpt><trkpt lat="37.2959833" lon="14.8452867"><ele>140.39999999999998</ele><time>2026-03-29T08:46:59.344Z</time></trkpt><trkpt lat="37.2960633" lon="14.8451883"><ele>141.2</ele><time>2026-03-29T08:47:01.343Z</time></trkpt><trkpt lat="37.2961767" lon="14.845115"><ele>142.0</ele><time>2026-03-29T08:47:03.344Z</time></trkpt><trkpt lat="37.296235" lon="14.84506"><ele>142.33333333333334</ele><time>2026-03-29T08:47:04.344Z</time></trkpt><trkpt lat="37.2962933" lon="14.8450017"><ele>142.66666666666669</ele><time>2026-03-29T08:47:05.343Z</time></trkpt><trkpt lat="37.2963517" lon="14.8449467"><ele>143.0</ele><time>2026-03-29T08:47:06.344Z</time></trkpt><trkpt lat="37.2964067" lon="14.8448833"><ele>143.33333333333334</ele><time>2026-03-29T08:47:07.344Z</time></trkpt><trkpt lat="37.29646" lon="14.8448167"><ele>143.66666666666666</ele><time>2026-03-29T08:47:08.344Z</time></trkpt><trkpt lat="37.2965317" lon="14.8447483"><ele>144.0</ele><time>2026-03-29T08:47:09.344Z</time></trkpt><trkpt lat="37.2966033" lon="14.8446933"><ele>144.5</ele><time>2026-03-29T08:47:10.343Z</time></trkpt><trkpt lat="37.2966733" lon="14.8446417"><ele>145.0</ele><time>2026-03-29T08:47:11.343Z</time></trkpt><trkpt lat="37.2967317" lon="14.8445767"><ele>145.5</ele><time>2026-03-29T08:47:12.343Z</time></trkpt><trkpt lat="37.296785" lon="14.8445217"><ele>146.0</ele><time>2026-03-29T08:47:13.344Z</time></trkpt><trkpt lat="37.29683" lon="14.8444567"><ele>146.5</ele><time>2026-03-29T08:47:15.343Z</time></trkpt><trkpt lat="37.2968867" lon="14.844525"><ele>147.0</ele><time>2026-03-29T08:47:21.344Z</time></trkpt><trkpt lat="37.2969517" lon="14.8446333"><ele>147.0</ele><time>2026-03-29T08:47:23.344Z</time></trkpt><trkpt lat="37.2969867" lon="14.8447067"><ele>147.0</ele><time>2026-03-29T08:47:24.343Z</time></trkpt><trkpt lat="37.2970267" lon="14.8447867"><ele>147.0</ele><time>2026-03-29T08:47:25.344Z</time></trkpt><trkpt lat="37.2970667" lon="14.844875"><ele>147.0</ele><time>2026-03-29T08:47:26.344Z</time></trkpt><trkpt lat="37.297115" lon="14.84496"><ele>147.0</ele><time>2026-03-29T08:47:27.344Z</time></trkpt><trkpt lat="37.2971583" lon="14.84503"><ele>147.0</ele><time>2026-03-29T08:47:28.344Z</time></trkpt><trkpt lat="37.2972367" lon="14.845145"><ele>147.2</ele><time>2026-03-29T08:47:30.344Z</time></trkpt><trkpt lat="37.29726" lon="14.8452433"><ele>147.39999999999998</ele><time>2026-03-29T08:47:31.343Z</time></trkpt><trkpt lat="37.2973433" lon="14.8453617"><ele>147.60000000000002</ele><time>2026-03-29T08:47:33.343Z</time></trkpt><trkpt lat="37.2974367" lon="14.845465"><ele>147.8</ele><time>2026-03-29T08:47:35.343Z</time></trkpt><trkpt lat="37.2975017" lon="14.845565"><ele>148.0</ele><time>2026-03-29T08:47:37.343Z</time></trkpt><trkpt lat="37.29755" lon="14.845655"><ele>148.0</ele><time>2026-03-29T08:47:39.343Z</time></trkpt><trkpt lat="37.297585" lon="14.845725"><ele>148.0</ele><time>2026-03-29T08:47:41.343Z</time></trkpt><trkpt lat="37.29766" lon="14.845745"><ele>148.0</ele><time>2026-03-29T08:47:45.343Z</time></trkpt><trkpt lat="37.2977367" lon="14.8457117"><ele>148.0</ele><time>2026-03-29T08:47:48.343Z</time></trkpt><trkpt lat="37.2978083" lon="14.8456217"><ele>148.0</ele><time>2026-03-29T08:47:50.344Z</time></trkpt><trkpt lat="37.2978617" lon="14.84557"><ele>148.0</ele><time>2026-03-29T08:47:51.344Z</time></trkpt><trkpt lat="37.2979683" lon="14.8454833"><ele>148.0</ele><time>2026-03-29T08:47:53.343Z</time></trkpt><trkpt lat="37.2980183" lon="14.8454267"><ele>148.0</ele><time>2026-03-29T08:47:54.343Z</time></trkpt><trkpt lat="37.29807" lon="14.845375"><ele>148.0</ele><time>2026-03-29T08:47:55.344Z</time></trkpt><trkpt lat="37.29812" lon="14.8453217"><ele>148.0</ele><time>2026-03-29T08:47:56.343Z</time></trkpt><trkpt lat="37.2982183" lon="14.84522"><ele>148.0</ele><time>2026-03-29T08:47:58.344Z</time></trkpt><trkpt lat="37.298275" lon="14.8451683"><ele>148.0</ele><time>2026-03-29T08:47:59.344Z</time></trkpt><trkpt lat="37.29833" lon="14.8451133"><ele>149.33333333333334</ele><time>2026-03-29T08:48:00.344Z</time></trkpt><trkpt lat="37.2983833" lon="14.8450533"><ele>150.66666666666669</ele><time>2026-03-29T08:48:01.344Z</time></trkpt><trkpt lat="37.29844" lon="14.8449867"><ele>152.0</ele><time>2026-03-29T08:48:02.344Z</time></trkpt><trkpt lat="37.2985017" lon="14.8449283"><ele>153.33333333333334</ele><time>2026-03-29T08:48:03.343Z</time></trkpt><trkpt lat="37.29855" lon="14.844865"><ele>154.66666666666666</ele><time>2026-03-29T08:48:04.344Z</time></trkpt><trkpt lat="37.2985933" lon="14.8447917"><ele>156.0</ele><time>2026-03-29T08:48:05.343Z</time></trkpt><trkpt lat="37.298655" lon="14.8447133"><ele>156.0</ele><time>2026-03-29T08:48:06.343Z</time></trkpt><trkpt lat="37.2987167" lon="14.8446167"><ele>156.0</ele><time>2026-03-29T08:48:07.344Z</time></trkpt><trkpt lat="37.298795" lon="14.8445083"><ele>156.0</ele><time>2026-03-29T08:48:08.344Z</time></trkpt><trkpt lat="37.2988717" lon="14.8443933"><ele>156.0</ele><time>2026-03-29T08:48:09.343Z</time></trkpt><trkpt lat="37.2989317" lon="14.8442933"><ele>156.0</ele><time>2026-03-29T08:48:10.343Z</time></trkpt><trkpt lat="37.2989933" lon="14.8441783"><ele>156.0</ele><time>2026-03-29T08:48:11.344Z</time></trkpt><trkpt lat="37.2990517" lon="14.84406"><ele>156.0</ele><time>2026-03-29T08:48:12.344Z</time></trkpt><trkpt lat="37.2991167" lon="14.8439417"><ele>156.0</ele><time>2026-03-29T08:48:13.343Z</time></trkpt><trkpt lat="37.2991733" lon="14.843815"><ele>156.0</ele><time>2026-03-29T08:48:14.344Z</time></trkpt><trkpt lat="37.29924" lon="14.8436867"><ele>156.0</ele><time>2026-03-29T08:48:15.344Z</time></trkpt><trkpt lat="37.299315" lon="14.8435517"><ele>156.0</ele><time>2026-03-29T08:48:16.343Z</time></trkpt><trkpt lat="37.29939" lon="14.8434233"><ele>156.0</ele><time>2026-03-29T08:48:17.343Z</time></trkpt><trkpt lat="37.299455" lon="14.843295"><ele>156.0</ele><time>2026-03-29T08:48:18.344Z</time></trkpt><trkpt lat="37.29952" lon="14.84316"><ele>156.8</ele><time>2026-03-29T08:48:19.343Z</time></trkpt><trkpt lat="37.2995717" lon="14.8430417"><ele>157.6</ele><time>2026-03-29T08:48:20.343Z</time></trkpt><trkpt lat="37.299615" lon="14.8429333"><ele>158.4</ele><time>2026-03-29T08:48:21.344Z</time></trkpt><trkpt lat="37.2996417" lon="14.842825"><ele>159.2</ele><time>2026-03-29T08:48:22.344Z</time></trkpt><trkpt lat="37.2996717" lon="14.842725"><ele>160.0</ele><time>2026-03-29T08:48:23.343Z</time></trkpt><trkpt lat="37.2997233" lon="14.8426483"><ele>159.0</ele><time>2026-03-29T08:48:24.344Z</time></trkpt><trkpt lat="37.2997683" lon="14.842575"><ele>158.0</ele><time>2026-03-29T08:48:25.344Z</time></trkpt><trkpt lat="37.2998233" lon="14.8425017"><ele>157.0</ele><time>2026-03-29T08:48:26.343Z</time></trkpt><trkpt lat="37.2998733" lon="14.8424367"><ele>156.0</ele><time>2026-03-29T08:48:27.344Z</time></trkpt><trkpt lat="37.2999233" lon="14.8423633"><ele>155.0</ele><time>2026-03-29T08:48:28.343Z</time></trkpt><trkpt lat="37.299975" lon="14.8422783"><ele>154.0</ele><time>2026-03-29T08:48:29.344Z</time></trkpt><trkpt lat="37.3000317" lon="14.8421883"><ele>154.0</ele><time>2026-03-29T08:48:30.344Z</time></trkpt><trkpt lat="37.3000917" lon="14.84209"><ele>154.0</ele><time>2026-03-29T08:48:31.343Z</time></trkpt><trkpt lat="37.30016" lon="14.8419717"><ele>154.0</ele><time>2026-03-29T08:48:32.343Z</time></trkpt><trkpt lat="37.3002383" lon="14.8418617"><ele>154.0</ele><time>2026-03-29T08:48:33.344Z</time></trkpt><trkpt lat="37.300335" lon="14.8417517"><ele>154.75</ele><time>2026-03-29T08:48:34.344Z</time></trkpt><trkpt lat="37.3004233" lon="14.8416517"><ele>155.5</ele><time>2026-03-29T08:48:35.344Z</time></trkpt><trkpt lat="37.3005133" lon="14.84153"><ele>156.25</ele><time>2026-03-29T08:48:36.344Z</time></trkpt><trkpt lat="37.3006083" lon="14.8414117"><ele>157.0</ele><time>2026-03-29T08:48:37.344Z</time></trkpt><trkpt lat="37.3006883" lon="14.8412767"><ele>155.0</ele><time>2026-03-29T08:48:38.344Z</time></trkpt><trkpt lat="37.3007583" lon="14.8411433"><ele>153.0</ele><time>2026-03-29T08:48:39.344Z</time></trkpt><trkpt lat="37.3008117" lon="14.8410133"><ele>151.0</ele><time>2026-03-29T08:48:40.344Z</time></trkpt><trkpt lat="37.30086" lon="14.840875"><ele>149.0</ele><time>2026-03-29T08:48:41.343Z</time></trkpt><trkpt lat="37.3008783" lon="14.8407217"><ele>149.0</ele><time>2026-03-29T08:48:42.344Z</time></trkpt><trkpt lat="37.3008667" lon="14.84056"><ele>149.0</ele><time>2026-03-29T08:48:43.343Z</time></trkpt><trkpt lat="37.3008283" lon="14.8404233"><ele>149.0</ele><time>2026-03-29T08:48:44.344Z</time></trkpt><trkpt lat="37.3008167" lon="14.84029"><ele>149.0</ele><time>2026-03-29T08:48:45.344Z</time></trkpt><trkpt lat="37.3008183" lon="14.84015"><ele>149.0</ele><time>2026-03-29T08:48:46.344Z</time></trkpt><trkpt lat="37.30084" lon="14.8400233"><ele>149.0</ele><time>2026-03-29T08:48:47.343Z</time></trkpt><trkpt lat="37.3008833" lon="14.8399017"><ele>149.0</ele><time>2026-03-29T08:48:48.344Z</time></trkpt><trkpt lat="37.3009317" lon="14.839785"><ele>149.0</ele><time>2026-03-29T08:48:49.344Z</time></trkpt><trkpt lat="37.3009817" lon="14.8396767"><ele>149.0</ele><time>2026-03-29T08:48:50.343Z</time></trkpt><trkpt lat="37.3010317" lon="14.83958"><ele>149.0</ele><time>2026-03-29T08:48:51.343Z</time></trkpt><trkpt lat="37.3010967" lon="14.8394833"><ele>149.0</ele><time>2026-03-29T08:48:52.344Z</time></trkpt><trkpt lat="37.3011683" lon="14.8394067"><ele>149.0</ele><time>2026-03-29T08:48:53.344Z</time></trkpt><trkpt lat="37.301235" lon="14.83936"><ele>149.0</ele><time>2026-03-29T08:48:54.343Z</time></trkpt><trkpt lat="37.3013117" lon="14.8393567"><ele>149.0</ele><time>2026-03-29T08:48:55.344Z</time></trkpt><trkpt lat="37.301395" lon="14.8393717"><ele>149.0</ele><time>2026-03-29T08:48:56.344Z</time></trkpt><trkpt lat="37.3014717" lon="14.8393833"><ele>147.5</ele><time>2026-03-29T08:48:57.343Z</time></trkpt><trkpt lat="37.3015417" lon="14.8393933"><ele>146.0</ele><time>2026-03-29T08:48:58.344Z</time></trkpt><trkpt lat="37.3016383" lon="14.8394117"><ele>144.5</ele><time>2026-03-29T08:49:00.343Z</time></trkpt><trkpt lat="37.301735" lon="14.839455"><ele>143.0</ele><time>2026-03-29T08:49:02.343Z</time></trkpt><trkpt lat="37.301795" lon="14.8394933"><ele>141.5</ele><time>2026-03-29T08:49:03.344Z</time></trkpt><trkpt lat="37.301855" lon="14.8395433"><ele>140.0</ele><time>2026-03-29T08:49:04.343Z</time></trkpt><trkpt lat="37.3018967" lon="14.8396167"><ele>140.0</ele><time>2026-03-29T08:49:05.344Z</time></trkpt><trkpt lat="37.3019133" lon="14.8397017"><ele>140.0</ele><time>2026-03-29T08:49:06.343Z</time></trkpt><trkpt lat="37.301905" lon="14.8398017"><ele>140.0</ele><time>2026-03-29T08:49:07.343Z</time></trkpt><trkpt lat="37.30188" lon="14.83991"><ele>140.0</ele><time>2026-03-29T08:49:08.343Z</time></trkpt><trkpt lat="37.3018517" lon="14.84003"><ele>140.0</ele><time>2026-03-29T08:49:09.343Z</time></trkpt><trkpt lat="37.3018383" lon="14.8401617"><ele>140.0</ele><time>2026-03-29T08:49:10.343Z</time></trkpt><trkpt lat="37.3018483" lon="14.8402833"><ele>140.6</ele><time>2026-03-29T08:49:11.343Z</time></trkpt><trkpt lat="37.30187" lon="14.8404133"><ele>141.2</ele><time>2026-03-29T08:49:12.344Z</time></trkpt><trkpt lat="37.301925" lon="14.8405417"><ele>141.8</ele><time>2026-03-29T08:49:13.344Z</time></trkpt><trkpt lat="37.3019933" lon="14.84065"><ele>142.4</ele><time>2026-03-29T08:49:14.344Z</time></trkpt><trkpt lat="37.3020817" lon="14.8407267"><ele>143.0</ele><time>2026-03-29T08:49:15.343Z</time></trkpt><trkpt lat="37.3021717" lon="14.84079"><ele>144.75</ele><time>2026-03-29T08:49:16.344Z</time></trkpt><trkpt lat="37.3022667" lon="14.8408583"><ele>146.5</ele><time>2026-03-29T08:49:17.344Z</time></trkpt><trkpt lat="37.3023717" lon="14.8409417"><ele>148.25</ele><time>2026-03-29T08:49:18.343Z</time></trkpt><trkpt lat="37.3024817" lon="14.84102"><ele>150.0</ele><time>2026-03-29T08:49:19.343Z</time></trkpt><trkpt lat="37.302595" lon="14.8411033"><ele>150.0</ele><time>2026-03-29T08:49:20.343Z</time></trkpt><trkpt lat="37.3027133" lon="14.84119"><ele>150.0</ele><time>2026-03-29T08:49:21.344Z</time></trkpt><trkpt lat="37.30283" lon="14.841275"><ele>150.0</ele><time>2026-03-29T08:49:22.344Z</time></trkpt><trkpt lat="37.3029467" lon="14.8413667"><ele>150.0</ele><time>2026-03-29T08:49:23.343Z</time></trkpt><trkpt lat="37.30306" lon="14.8414567"><ele>150.75</ele><time>2026-03-29T08:49:24.344Z</time></trkpt><trkpt lat="37.303175" lon="14.841545"><ele>151.5</ele><time>2026-03-29T08:49:25.344Z</time></trkpt><trkpt lat="37.3032917" lon="14.8416283"><ele>152.25</ele><time>2026-03-29T08:49:26.343Z</time></trkpt><trkpt lat="37.303405" lon="14.841725"><ele>153.0</ele><time>2026-03-29T08:49:27.344Z</time></trkpt><trkpt lat="37.3035267" lon="14.841815"><ele>153.0</ele><time>2026-03-29T08:49:28.343Z</time></trkpt><trkpt lat="37.3036467" lon="14.8418867"><ele>153.0</ele><time>2026-03-29T08:49:29.343Z</time></trkpt><trkpt lat="37.3037667" lon="14.84195"><ele>153.0</ele><time>2026-03-29T08:49:30.344Z</time></trkpt><trkpt lat="37.3038817" lon="14.842"><ele>153.0</ele><time>2026-03-29T08:49:31.343Z</time></trkpt><trkpt lat="37.3039983" lon="14.84203"><ele>152.8</ele><time>2026-03-29T08:49:32.344Z</time></trkpt><trkpt lat="37.3041033" lon="14.8420517"><ele>152.60000000000002</ele><time>2026-03-29T08:49:33.344Z</time></trkpt><trkpt lat="37.3042033" lon="14.84207"><ele>152.39999999999998</ele><time>2026-03-29T08:49:34.344Z</time></trkpt><trkpt lat="37.3042967" lon="14.8420817"><ele>152.2</ele><time>2026-03-29T08:49:35.343Z</time></trkpt><trkpt lat="37.30438" lon="14.842085"><ele>152.0</ele><time>2026-03-29T08:49:36.343Z</time></trkpt><trkpt lat="37.3044567" lon="14.8420817"><ele>152.0</ele><time>2026-03-29T08:49:37.343Z</time></trkpt><trkpt lat="37.3045367" lon="14.8420733"><ele>152.0</ele><time>2026-03-29T08:49:38.344Z</time></trkpt><trkpt lat="37.3046067" lon="14.8420617"><ele>152.0</ele><time>2026-03-29T08:49:39.343Z</time></trkpt><trkpt lat="37.30467" lon="14.8420483"><ele>152.0</ele><time>2026-03-29T08:49:40.343Z</time></trkpt><trkpt lat="37.3047667" lon="14.8420183"><ele>152.0</ele><time>2026-03-29T08:49:42.343Z</time></trkpt><trkpt lat="37.3048517" lon="14.8419683"><ele>152.0</ele><time>2026-03-29T08:49:44.343Z</time></trkpt><trkpt lat="37.3049783" lon="14.841905"><ele>152.0</ele><time>2026-03-29T08:49:46.344Z</time></trkpt><trkpt lat="37.3050617" lon="14.8418733"><ele>152.0</ele><time>2026-03-29T08:49:47.343Z</time></trkpt><trkpt lat="37.30516" lon="14.8418317"><ele>152.0</ele><time>2026-03-29T08:49:48.344Z</time></trkpt><trkpt lat="37.30526" lon="14.841785"><ele>152.0</ele><time>2026-03-29T08:49:49.343Z</time></trkpt><trkpt lat="37.3053667" lon="14.8417333"><ele>152.0</ele><time>2026-03-29T08:49:50.343Z</time></trkpt><trkpt lat="37.305485" lon="14.841675"><ele>151.0</ele><time>2026-03-29T08:49:51.344Z</time></trkpt><trkpt lat="37.305615" lon="14.8416217"><ele>150.0</ele><time>2026-03-29T08:49:52.344Z</time></trkpt><trkpt lat="37.30575" lon="14.8415667"><ele>149.0</ele><time>2026-03-29T08:49:53.343Z</time></trkpt><trkpt lat="37.3058933" lon="14.8415117"><ele>148.0</ele><time>2026-03-29T08:49:54.344Z</time></trkpt><trkpt lat="37.3060383" lon="14.8414467"><ele>148.0</ele><time>2026-03-29T08:49:55.343Z</time></trkpt><trkpt lat="37.3061917" lon="14.8413817"><ele>148.0</ele><time>2026-03-29T08:49:56.344Z</time></trkpt><trkpt lat="37.3063483" lon="14.8413217"><ele>148.0</ele><time>2026-03-29T08:49:57.343Z</time></trkpt><trkpt lat="37.30651" lon="14.841255"><ele>147.0</ele><time>2026-03-29T08:49:58.344Z</time></trkpt><trkpt lat="37.3066767" lon="14.8411867"><ele>146.0</ele><time>2026-03-29T08:49:59.344Z</time></trkpt><trkpt lat="37.3068383" lon="14.8411117"><ele>145.0</ele><time>2026-03-29T08:50:00.344Z</time></trkpt><trkpt lat="37.3070017" lon="14.841045"><ele>145.0</ele><time>2026-03-29T08:50:01.344Z</time></trkpt><trkpt lat="37.3071683" lon="14.8409783"><ele>145.0</ele><time>2026-03-29T08:50:02.344Z</time></trkpt><trkpt lat="37.3073333" lon="14.8409133"><ele>145.0</ele><time>2026-03-29T08:50:03.344Z</time></trkpt><trkpt lat="37.3075" lon="14.8408483"><ele>147.33333333333334</ele><time>2026-03-29T08:50:04.344Z</time></trkpt><trkpt lat="37.3076667" lon="14.8407833"><ele>149.66666666666666</ele><time>2026-03-29T08:50:05.344Z</time></trkpt><trkpt lat="37.3078367" lon="14.84071"><ele>152.0</ele><time>2026-03-29T08:50:06.344Z</time></trkpt><trkpt lat="37.3079983" lon="14.84063"><ele>151.66666666666666</ele><time>2026-03-29T08:50:07.343Z</time></trkpt><trkpt lat="37.308155" lon="14.8405633"><ele>151.33333333333334</ele><time>2026-03-29T08:50:08.343Z</time></trkpt><trkpt lat="37.308315" lon="14.84049"><ele>151.0</ele><time>2026-03-29T08:50:09.344Z</time></trkpt><trkpt lat="37.30848" lon="14.840405"><ele>151.0</ele><time>2026-03-29T08:50:10.344Z</time></trkpt><trkpt lat="37.3086383" lon="14.8403117"><ele>151.0</ele><time>2026-03-29T08:50:11.344Z</time></trkpt><trkpt lat="37.3087967" lon="14.8402067"><ele>151.0</ele><time>2026-03-29T08:50:12.344Z</time></trkpt><trkpt lat="37.3089533" lon="14.84009"><ele>150.33333333333334</ele><time>2026-03-29T08:50:13.343Z</time></trkpt><trkpt lat="37.309115" lon="14.8399767"><ele>149.66666666666666</ele><time>2026-03-29T08:50:14.344Z</time></trkpt><trkpt lat="37.3092783" lon="14.839855"><ele>149.0</ele><time>2026-03-29T08:50:15.343Z</time></trkpt><trkpt lat="37.3094383" lon="14.8397333"><ele>149.0</ele><time>2026-03-29T08:50:16.344Z</time></trkpt><trkpt lat="37.3096017" lon="14.8396133"><ele>149.0</ele><time>2026-03-29T08:50:17.344Z</time></trkpt><trkpt lat="37.309765" lon="14.8394867"><ele>149.0</ele><time>2026-03-29T08:50:18.343Z</time></trkpt><trkpt lat="37.3099283" lon="14.8393667"><ele>147.33333333333331</ele><time>2026-03-29T08:50:19.343Z</time></trkpt><trkpt lat="37.3100767" lon="14.8392483"><ele>145.66666666666666</ele><time>2026-03-29T08:50:20.344Z</time></trkpt><trkpt lat="37.31022" lon="14.839135"><ele>144.0</ele><time>2026-03-29T08:50:21.343Z</time></trkpt><trkpt lat="37.3103617" lon="14.8390283"><ele>144.0</ele><time>2026-03-29T08:50:22.343Z</time></trkpt><trkpt lat="37.3104967" lon="14.8389267"><ele>144.0</ele><time>2026-03-29T08:50:23.343Z</time></trkpt><trkpt lat="37.310635" lon="14.8388317"><ele>144.0</ele><time>2026-03-29T08:50:24.344Z</time></trkpt><trkpt lat="37.31078" lon="14.8387667"><ele>143.33333333333334</ele><time>2026-03-29T08:50:25.343Z</time></trkpt><trkpt lat="37.3109333" lon="14.83873"><ele>142.66666666666669</ele><time>2026-03-29T08:50:26.344Z</time></trkpt><trkpt lat="37.3111033" lon="14.83871"><ele>142.0</ele><time>2026-03-29T08:50:27.344Z</time></trkpt><trkpt lat="37.31128" lon="14.8387017"><ele>142.66666666666669</ele><time>2026-03-29T08:50:28.343Z</time></trkpt><trkpt lat="37.3114683" lon="14.838695"><ele>143.33333333333334</ele><time>2026-03-29T08:50:29.344Z</time></trkpt><trkpt lat="37.3116583" lon="14.838675"><ele>144.0</ele><time>2026-03-29T08:50:30.343Z</time></trkpt><trkpt lat="37.311845" lon="14.8386683"><ele>144.0</ele><time>2026-03-29T08:50:31.343Z</time></trkpt><trkpt lat="37.3120433" lon="14.83866"><ele>144.0</ele><time>2026-03-29T08:50:32.344Z</time></trkpt><trkpt lat="37.3122317" lon="14.838655"><ele>144.0</ele><time>2026-03-29T08:50:33.343Z</time></trkpt><trkpt lat="37.3124117" lon="14.8386383"><ele>145.0</ele><time>2026-03-29T08:50:34.343Z</time></trkpt><trkpt lat="37.312605" lon="14.83862"><ele>146.0</ele><time>2026-03-29T08:50:35.343Z</time></trkpt><trkpt lat="37.312795" lon="14.83861"><ele>147.0</ele><time>2026-03-29T08:50:36.344Z</time></trkpt><trkpt lat="37.3129833" lon="14.8386017"><ele>146.66666666666666</ele><time>2026-03-29T08:50:37.343Z</time></trkpt><trkpt lat="37.3131717" lon="14.8385883"><ele>146.33333333333331</ele><time>2026-03-29T08:50:38.343Z</time></trkpt><trkpt lat="37.3133567" lon="14.838585"><ele>146.0</ele><time>2026-03-29T08:50:39.343Z</time></trkpt><trkpt lat="37.3135417" lon="14.8385717"><ele>146.0</ele><time>2026-03-29T08:50:40.343Z</time></trkpt><trkpt lat="37.3137417" lon="14.8385667"><ele>146.0</ele><time>2026-03-29T08:50:41.344Z</time></trkpt><trkpt lat="37.313935" lon="14.838555"><ele>146.0</ele><time>2026-03-29T08:50:42.343Z</time></trkpt><trkpt lat="37.31413" lon="14.8385367"><ele>145.66666666666666</ele><time>2026-03-29T08:50:43.343Z</time></trkpt><trkpt lat="37.3143267" lon="14.8385217"><ele>145.33333333333334</ele><time>2026-03-29T08:50:44.344Z</time></trkpt><trkpt lat="37.314525" lon="14.83851"><ele>145.0</ele><time>2026-03-29T08:50:45.343Z</time></trkpt><trkpt lat="37.3147183" lon="14.838505"><ele>146.66666666666669</ele><time>2026-03-29T08:50:46.344Z</time></trkpt><trkpt lat="37.31491" lon="14.8384933"><ele>148.33333333333334</ele><time>2026-03-29T08:50:47.343Z</time></trkpt><trkpt lat="37.3150933" lon="14.8384783"><ele>150.0</ele><time>2026-03-29T08:50:48.344Z</time></trkpt><trkpt lat="37.315285" lon="14.8384633"><ele>151.33333333333334</ele><time>2026-03-29T08:50:49.344Z</time></trkpt><trkpt lat="37.31547" lon="14.8384567"><ele>152.66666666666669</ele><time>2026-03-29T08:50:50.343Z</time></trkpt><trkpt lat="37.3156517" lon="14.83844"><ele>154.0</ele><time>2026-03-29T08:50:51.343Z</time></trkpt><trkpt lat="37.3158333" lon="14.8384233"><ele>155.33333333333334</ele><time>2026-03-29T08:50:52.343Z</time></trkpt><trkpt lat="37.3160083" lon="14.8383917"><ele>156.66666666666666</ele><time>2026-03-29T08:50:53.343Z</time></trkpt><trkpt lat="37.3161767" lon="14.838345"><ele>158.0</ele><time>2026-03-29T08:50:54.343Z</time></trkpt><trkpt lat="37.31635" lon="14.8382983"><ele>158.33333333333331</ele><time>2026-03-29T08:50:55.343Z</time></trkpt><trkpt lat="37.3165217" lon="14.8382517"><ele>158.66666666666666</ele><time>2026-03-29T08:50:56.344Z</time></trkpt><trkpt lat="37.3167067" lon="14.8382017"><ele>159.0</ele><time>2026-03-29T08:50:57.344Z</time></trkpt><trkpt lat="37.3168883" lon="14.8381417"><ele>159.0</ele><time>2026-03-29T08:50:58.344Z</time></trkpt><trkpt lat="37.3170683" lon="14.8380817"><ele>159.0</ele><time>2026-03-29T08:50:59.344Z</time></trkpt><trkpt lat="37.317245" lon="14.8380233"><ele>159.0</ele><time>2026-03-29T08:51:00.343Z</time></trkpt><trkpt lat="37.3174217" lon="14.83795"><ele>159.0</ele><time>2026-03-29T08:51:01.344Z</time></trkpt><trkpt lat="37.317605" lon="14.83786"><ele>159.0</ele><time>2026-03-29T08:51:02.344Z</time></trkpt><trkpt lat="37.31778" lon="14.8377583"><ele>159.0</ele><time>2026-03-29T08:51:03.344Z</time></trkpt><trkpt lat="37.3179533" lon="14.837655"><ele>160.33333333333334</ele><time>2026-03-29T08:51:04.343Z</time></trkpt><trkpt lat="37.3181183" lon="14.83755"><ele>161.66666666666669</ele><time>2026-03-29T08:51:05.343Z</time></trkpt><trkpt lat="37.3182833" lon="14.8374367"><ele>163.0</ele><time>2026-03-29T08:51:06.343Z</time></trkpt><trkpt lat="37.318445" lon="14.8373283"><ele>163.0</ele><time>2026-03-29T08:51:07.344Z</time></trkpt><trkpt lat="37.3185983" lon="14.8372183"><ele>163.0</ele><time>2026-03-29T08:51:08.344Z</time></trkpt><trkpt lat="37.3187517" lon="14.8371033"><ele>163.0</ele><time>2026-03-29T08:51:09.344Z</time></trkpt><trkpt lat="37.31889" lon="14.83697"><ele>162.33333333333334</ele><time>2026-03-29T08:51:10.343Z</time></trkpt><trkpt lat="37.3190233" lon="14.8368317"><ele>161.66666666666666</ele><time>2026-03-29T08:51:11.344Z</time></trkpt><trkpt lat="37.3191517" lon="14.8366817"><ele>161.0</ele><time>2026-03-29T08:51:12.344Z</time></trkpt><trkpt lat="37.3192867" lon="14.83652"><ele>162.66666666666666</ele><time>2026-03-29T08:51:13.344Z</time></trkpt><trkpt lat="37.31941" lon="14.8363633"><ele>164.33333333333334</ele><time>2026-03-29T08:51:14.343Z</time></trkpt><trkpt lat="37.3195317" lon="14.8362033"><ele>166.0</ele><time>2026-03-29T08:51:15.344Z</time></trkpt><trkpt lat="37.3196533" lon="14.8360517"><ele>167.66666666666669</ele><time>2026-03-29T08:51:16.343Z</time></trkpt><trkpt lat="37.3197767" lon="14.8359017"><ele>169.33333333333334</ele><time>2026-03-29T08:51:17.343Z</time></trkpt><trkpt lat="37.3198833" lon="14.8357567"><ele>171.0</ele><time>2026-03-29T08:51:18.343Z</time></trkpt><trkpt lat="37.3199867" lon="14.8356183"><ele>171.0</ele><time>2026-03-29T08:51:19.344Z</time></trkpt><trkpt lat="37.3200983" lon="14.8354867"><ele>171.0</ele><time>2026-03-29T08:51:20.343Z</time></trkpt><trkpt lat="37.3202167" lon="14.8353517"><ele>171.0</ele><time>2026-03-29T08:51:21.343Z</time></trkpt><trkpt lat="37.32034" lon="14.8352133"><ele>172.33333333333334</ele><time>2026-03-29T08:51:22.343Z</time></trkpt><trkpt lat="37.32046" lon="14.8350833"><ele>173.66666666666669</ele><time>2026-03-29T08:51:23.344Z</time></trkpt><trkpt lat="37.320585" lon="14.83494"><ele>175.0</ele><time>2026-03-29T08:51:24.344Z</time></trkpt><trkpt lat="37.3207083" lon="14.8348017"><ele>175.0</ele><time>2026-03-29T08:51:25.344Z</time></trkpt><trkpt lat="37.3208383" lon="14.834665"><ele>175.0</ele><time>2026-03-29T08:51:26.343Z</time></trkpt><trkpt lat="37.3209683" lon="14.83452"><ele>175.0</ele><time>2026-03-29T08:51:27.343Z</time></trkpt><trkpt lat="37.321105" lon="14.8343783"><ele>175.0</ele><time>2026-03-29T08:51:28.343Z</time></trkpt><trkpt lat="37.3212367" lon="14.83424"><ele>175.0</ele><time>2026-03-29T08:51:29.343Z</time></trkpt><trkpt lat="37.321375" lon="14.8341083"><ele>175.0</ele><time>2026-03-29T08:51:30.343Z</time></trkpt><trkpt lat="37.3215167" lon="14.83397"><ele>174.0</ele><time>2026-03-29T08:51:31.344Z</time></trkpt><trkpt lat="37.321665" lon="14.8338333"><ele>173.0</ele><time>2026-03-29T08:51:32.344Z</time></trkpt><trkpt lat="37.32181" lon="14.8336983"><ele>172.0</ele><time>2026-03-29T08:51:33.343Z</time></trkpt><trkpt lat="37.3219583" lon="14.83356"><ele>173.0</ele><time>2026-03-29T08:51:34.344Z</time></trkpt><trkpt lat="37.3221067" lon="14.8334133"><ele>174.0</ele><time>2026-03-29T08:51:35.343Z</time></trkpt><trkpt lat="37.322255" lon="14.8332633"><ele>175.0</ele><time>2026-03-29T08:51:36.344Z</time></trkpt><trkpt lat="37.3224067" lon="14.833115"><ele>175.0</ele><time>2026-03-29T08:51:37.343Z</time></trkpt><trkpt lat="37.32256" lon="14.8329683"><ele>175.0</ele><time>2026-03-29T08:51:38.343Z</time></trkpt><trkpt lat="37.32271" lon="14.8328217"><ele>175.0</ele><time>2026-03-29T08:51:39.343Z</time></trkpt><trkpt lat="37.3228517" lon="14.832665"><ele>176.0</ele><time>2026-03-29T08:51:40.343Z</time></trkpt><trkpt lat="37.323" lon="14.83252"><ele>177.0</ele><time>2026-03-29T08:51:41.344Z</time></trkpt><trkpt lat="37.3231467" lon="14.8323767"><ele>178.0</ele><time>2026-03-29T08:51:42.344Z</time></trkpt><trkpt lat="37.3232983" lon="14.8322517"><ele>178.0</ele><time>2026-03-29T08:51:43.344Z</time></trkpt><trkpt lat="37.3234533" lon="14.8321433"><ele>178.0</ele><time>2026-03-29T08:51:44.344Z</time></trkpt><trkpt lat="37.3236083" lon="14.8320483"><ele>178.0</ele><time>2026-03-29T08:51:45.343Z</time></trkpt><trkpt lat="37.3237683" lon="14.8319733"><ele>178.66666666666669</ele><time>2026-03-29T08:51:46.344Z</time></trkpt><trkpt lat="37.323935" lon="14.8319067"><ele>179.33333333333334</ele><time>2026-03-29T08:51:47.343Z</time></trkpt><trkpt lat="37.3241183" lon="14.8318467"><ele>180.0</ele><time>2026-03-29T08:51:48.343Z</time></trkpt><trkpt lat="37.3243067" lon="14.831775"><ele>180.0</ele><time>2026-03-29T08:51:49.343Z</time></trkpt><trkpt lat="37.3244983" lon="14.8316933"><ele>180.0</ele><time>2026-03-29T08:51:50.343Z</time></trkpt><trkpt lat="37.3246733" lon="14.8316033"><ele>180.0</ele><time>2026-03-29T08:51:51.343Z</time></trkpt><trkpt lat="37.3248467" lon="14.8314783"><ele>177.0</ele><time>2026-03-29T08:51:52.343Z</time></trkpt><trkpt lat="37.3250133" lon="14.8313467"><ele>174.0</ele><time>2026-03-29T08:51:53.343Z</time></trkpt><trkpt lat="37.3251717" lon="14.8312083"><ele>171.0</ele><time>2026-03-29T08:51:54.343Z</time></trkpt><trkpt lat="37.325325" lon="14.8310683"><ele>170.0</ele><time>2026-03-29T08:51:55.343Z</time></trkpt><trkpt lat="37.3254667" lon="14.830935"><ele>169.0</ele><time>2026-03-29T08:51:56.344Z</time></trkpt><trkpt lat="37.3256033" lon="14.8308067"><ele>168.0</ele><time>2026-03-29T08:51:57.344Z</time></trkpt><trkpt lat="37.3257333" lon="14.830675"><ele>168.0</ele><time>2026-03-29T08:51:58.343Z</time></trkpt><trkpt lat="37.32586" lon="14.8305383"><ele>168.0</ele><time>2026-03-29T08:51:59.344Z</time></trkpt><trkpt lat="37.3259867" lon="14.8303983"><ele>168.0</ele><time>2026-03-29T08:52:00.344Z</time></trkpt><trkpt lat="37.326115" lon="14.83026"><ele>168.5</ele><time>2026-03-29T08:52:01.344Z</time></trkpt><trkpt lat="37.3262333" lon="14.8301317"><ele>169.0</ele><time>2026-03-29T08:52:02.343Z</time></trkpt><trkpt lat="37.3263533" lon="14.8300083"><ele>169.5</ele><time>2026-03-29T08:52:03.344Z</time></trkpt><trkpt lat="37.326455" lon="14.8298967"><ele>170.0</ele><time>2026-03-29T08:52:04.344Z</time></trkpt><trkpt lat="37.3265383" lon="14.8298017"><ele>169.0</ele><time>2026-03-29T08:52:05.343Z</time></trkpt><trkpt lat="37.3266133" lon="14.8297283"><ele>168.0</ele><time>2026-03-29T08:52:06.344Z</time></trkpt><trkpt lat="37.3266767" lon="14.82968"><ele>167.0</ele><time>2026-03-29T08:52:07.344Z</time></trkpt><trkpt lat="37.326785" lon="14.829625"><ele>166.0</ele><time>2026-03-29T08:52:09.343Z</time></trkpt><trkpt lat="37.3268833" lon="14.8296217"><ele>165.0</ele><time>2026-03-29T08:52:11.344Z</time></trkpt><trkpt lat="37.3269967" lon="14.8296633"><ele>165.0</ele><time>2026-03-29T08:52:13.343Z</time></trkpt><trkpt lat="37.3270517" lon="14.8297117"><ele>165.0</ele><time>2026-03-29T08:52:14.344Z</time></trkpt><trkpt lat="37.327095" lon="14.8298683"><ele>165.0</ele><time>2026-03-29T08:52:16.344Z</time></trkpt><trkpt lat="37.327095" lon="14.8299817"><ele>165.0</ele><time>2026-03-29T08:52:17.344Z</time></trkpt><trkpt lat="37.3270867" lon="14.8301167"><ele>165.0</ele><time>2026-03-29T08:52:18.344Z</time></trkpt><trkpt lat="37.3270817" lon="14.8302617"><ele>165.0</ele><time>2026-03-29T08:52:19.344Z</time></trkpt><trkpt lat="37.3270767" lon="14.83042"><ele>165.0</ele><time>2026-03-29T08:52:20.344Z</time></trkpt><trkpt lat="37.32707" lon="14.8305883"><ele>165.0</ele><time>2026-03-29T08:52:21.343Z</time></trkpt><trkpt lat="37.327065" lon="14.8307683"><ele>165.0</ele><time>2026-03-29T08:52:22.344Z</time></trkpt><trkpt lat="37.3270567" lon="14.8309683"><ele>164.66666666666666</ele><time>2026-03-29T08:52:23.344Z</time></trkpt><trkpt lat="37.32704" lon="14.8311883"><ele>164.33333333333331</ele><time>2026-03-29T08:52:24.343Z</time></trkpt><trkpt lat="37.3270233" lon="14.8314167"><ele>164.0</ele><time>2026-03-29T08:52:25.344Z</time></trkpt><trkpt lat="37.327" lon="14.83164"><ele>164.0</ele><time>2026-03-29T08:52:26.344Z</time></trkpt><trkpt lat="37.3269783" lon="14.8318733"><ele>164.0</ele><time>2026-03-29T08:52:27.344Z</time></trkpt><trkpt lat="37.32695" lon="14.8321083"><ele>164.0</ele><time>2026-03-29T08:52:28.343Z</time></trkpt><trkpt lat="37.3269183" lon="14.83235"><ele>164.0</ele><time>2026-03-29T08:52:29.344Z</time></trkpt><trkpt lat="37.32689" lon="14.832595"><ele>164.0</ele><time>2026-03-29T08:52:30.343Z</time></trkpt><trkpt lat="37.3268567" lon="14.8328433"><ele>164.0</ele><time>2026-03-29T08:52:31.343Z</time></trkpt><trkpt lat="37.3268183" lon="14.8330917"><ele>163.66666666666666</ele><time>2026-03-29T08:52:32.344Z</time></trkpt><trkpt lat="37.32678" lon="14.8333567"><ele>163.33333333333334</ele><time>2026-03-29T08:52:33.343Z</time></trkpt><trkpt lat="37.32674" lon="14.8336167"><ele>163.0</ele><time>2026-03-29T08:52:34.343Z</time></trkpt><trkpt lat="37.326705" lon="14.8338733"><ele>162.66666666666669</ele><time>2026-03-29T08:52:35.343Z</time></trkpt><trkpt lat="37.326675" lon="14.8341317"><ele>162.33333333333334</ele><time>2026-03-29T08:52:36.344Z</time></trkpt><trkpt lat="37.3266367" lon="14.83439"><ele>162.0</ele><time>2026-03-29T08:52:37.343Z</time></trkpt><trkpt lat="37.3266033" lon="14.8346483"><ele>161.33333333333334</ele><time>2026-03-29T08:52:38.344Z</time></trkpt><trkpt lat="37.3265667" lon="14.8349017"><ele>160.66666666666669</ele><time>2026-03-29T08:52:39.343Z</time></trkpt><trkpt lat="37.3265317" lon="14.8351483"><ele>160.0</ele><time>2026-03-29T08:52:40.344Z</time></trkpt><trkpt lat="37.3264983" lon="14.8354033"><ele>159.66666666666669</ele><time>2026-03-29T08:52:41.343Z</time></trkpt><trkpt lat="37.326465" lon="14.835655"><ele>159.33333333333334</ele><time>2026-03-29T08:52:42.343Z</time></trkpt><trkpt lat="37.3264283" lon="14.8359"><ele>159.0</ele><time>2026-03-29T08:52:43.343Z</time></trkpt><trkpt lat="37.3263817" lon="14.8361517"><ele>159.33333333333334</ele><time>2026-03-29T08:52:44.343Z</time></trkpt><trkpt lat="37.3263367" lon="14.8364017"><ele>159.66666666666669</ele><time>2026-03-29T08:52:45.344Z</time></trkpt><trkpt lat="37.3262917" lon="14.8366383"><ele>160.0</ele><time>2026-03-29T08:52:46.343Z</time></trkpt><trkpt lat="37.3262417" lon="14.83688"><ele>160.0</ele><time>2026-03-29T08:52:47.343Z</time></trkpt><trkpt lat="37.3261967" lon="14.8371083"><ele>160.0</ele><time>2026-03-29T08:52:48.344Z</time></trkpt><trkpt lat="37.3261483" lon="14.8373383"><ele>160.0</ele><time>2026-03-29T08:52:49.343Z</time></trkpt><trkpt lat="37.3261017" lon="14.837565"><ele>159.66666666666669</ele><time>2026-03-29T08:52:50.343Z</time></trkpt><trkpt lat="37.3260533" lon="14.8378033"><ele>159.33333333333334</ele><time>2026-03-29T08:52:51.343Z</time></trkpt><trkpt lat="37.326" lon="14.8380433"><ele>159.0</ele><time>2026-03-29T08:52:52.344Z</time></trkpt><trkpt lat="37.3259483" lon="14.8382767"><ele>158.33333333333334</ele><time>2026-03-29T08:52:53.343Z</time></trkpt><trkpt lat="37.325895" lon="14.8385117"><ele>157.66666666666669</ele><time>2026-03-29T08:52:54.343Z</time></trkpt><trkpt lat="37.3258433" lon="14.8387483"><ele>157.0</ele><time>2026-03-29T08:52:55.343Z</time></trkpt><trkpt lat="37.3257833" lon="14.8389917"><ele>157.0</ele><time>2026-03-29T08:52:56.343Z</time></trkpt><trkpt lat="37.3257267" lon="14.8392367"><ele>157.0</ele><time>2026-03-29T08:52:57.344Z</time></trkpt><trkpt lat="37.3256733" lon="14.8394783"><ele>157.0</ele><time>2026-03-29T08:52:58.344Z</time></trkpt><trkpt lat="37.32562" lon="14.8397267"><ele>156.66666666666669</ele><time>2026-03-29T08:52:59.344Z</time></trkpt><trkpt lat="37.3255617" lon="14.8399667"><ele>156.33333333333334</ele><time>2026-03-29T08:53:00.344Z</time></trkpt><trkpt lat="37.32551" lon="14.84021"><ele>156.0</ele><time>2026-03-29T08:53:01.343Z</time></trkpt><trkpt lat="37.3254567" lon="14.8404533"><ele>155.0</ele><time>2026-03-29T08:53:02.344Z</time></trkpt><trkpt lat="37.3254017" lon="14.8406983"><ele>154.0</ele><time>2026-03-29T08:53:03.344Z</time></trkpt><trkpt lat="37.325345" lon="14.840945"><ele>153.0</ele><time>2026-03-29T08:53:04.344Z</time></trkpt><trkpt lat="37.3252833" lon="14.841195"><ele>152.0</ele><time>2026-03-29T08:53:05.344Z</time></trkpt><trkpt lat="37.3252267" lon="14.841445"><ele>151.0</ele><time>2026-03-29T08:53:06.343Z</time></trkpt><trkpt lat="37.325175" lon="14.8416983"><ele>150.0</ele><time>2026-03-29T08:53:07.344Z</time></trkpt><trkpt lat="37.32512" lon="14.8419567"><ele>150.0</ele><time>2026-03-29T08:53:08.344Z</time></trkpt><trkpt lat="37.3250617" lon="14.8422033"><ele>150.0</ele><time>2026-03-29T08:53:09.343Z</time></trkpt><trkpt lat="37.3250117" lon="14.842455"><ele>150.0</ele><time>2026-03-29T08:53:10.343Z</time></trkpt><trkpt lat="37.3249617" lon="14.842705"><ele>149.66666666666666</ele><time>2026-03-29T08:53:11.343Z</time></trkpt><trkpt lat="37.324915" lon="14.8429383"><ele>149.33333333333331</ele><time>2026-03-29T08:53:12.344Z</time></trkpt><trkpt lat="37.3248717" lon="14.8431583"><ele>149.0</ele><time>2026-03-29T08:53:13.343Z</time></trkpt><trkpt lat="37.3248233" lon="14.8433667"><ele>148.75</ele><time>2026-03-29T08:53:14.344Z</time></trkpt><trkpt lat="37.3247783" lon="14.84356"><ele>148.5</ele><time>2026-03-29T08:53:15.343Z</time></trkpt><trkpt lat="37.324745" lon="14.84372"><ele>148.25</ele><time>2026-03-29T08:53:16.344Z</time></trkpt><trkpt lat="37.32472" lon="14.8438483"><ele>148.0</ele><time>2026-03-29T08:53:17.344Z</time></trkpt><trkpt lat="37.3247217" lon="14.8439517"><ele>148.0</ele><time>2026-03-29T08:53:18.344Z</time></trkpt><trkpt lat="37.3247417" lon="14.8440383"><ele>148.0</ele><time>2026-03-29T08:53:19.343Z</time></trkpt><trkpt lat="37.3248" lon="14.8441117"><ele>148.0</ele><time>2026-03-29T08:53:20.343Z</time></trkpt><trkpt lat="37.32488" lon="14.84416"><ele>148.0</ele><time>2026-03-29T08:53:21.344Z</time></trkpt><trkpt lat="37.3249883" lon="14.8441883"><ele>148.0</ele><time>2026-03-29T08:53:22.343Z</time></trkpt><trkpt lat="37.3251133" lon="14.844225"><ele>148.0</ele><time>2026-03-29T08:53:23.344Z</time></trkpt><trkpt lat="37.3252517" lon="14.8442783"><ele>148.0</ele><time>2026-03-29T08:53:24.343Z</time></trkpt><trkpt lat="37.325395" lon="14.8443317"><ele>148.0</ele><time>2026-03-29T08:53:25.343Z</time></trkpt><trkpt lat="37.3255383" lon="14.8443917"><ele>148.0</ele><time>2026-03-29T08:53:26.343Z</time></trkpt><trkpt lat="37.3256817" lon="14.8444683"><ele>147.33333333333334</ele><time>2026-03-29T08:53:27.344Z</time></trkpt><trkpt lat="37.3258367" lon="14.8445417"><ele>146.66666666666666</ele><time>2026-03-29T08:53:28.343Z</time></trkpt><trkpt lat="37.3259967" lon="14.8446233"><ele>146.0</ele><time>2026-03-29T08:53:29.344Z</time></trkpt><trkpt lat="37.3261617" lon="14.844695"><ele>146.0</ele><time>2026-03-29T08:53:30.344Z</time></trkpt><trkpt lat="37.3263283" lon="14.84477"><ele>146.0</ele><time>2026-03-29T08:53:31.344Z</time></trkpt><trkpt lat="37.3264983" lon="14.844845"><ele>146.0</ele><time>2026-03-29T08:53:32.343Z</time></trkpt><trkpt lat="37.3266633" lon="14.8449183"><ele>145.66666666666666</ele><time>2026-03-29T08:53:33.344Z</time></trkpt><trkpt lat="37.326835" lon="14.845"><ele>145.33333333333334</ele><time>2026-03-29T08:53:34.344Z</time></trkpt><trkpt lat="37.3270067" lon="14.8450833"><ele>145.0</ele><time>2026-03-29T08:53:35.343Z</time></trkpt><trkpt lat="37.32719" lon="14.8451667"><ele>144.33333333333334</ele><time>2026-03-29T08:53:36.343Z</time></trkpt><trkpt lat="37.3273817" lon="14.84525"><ele>143.66666666666666</ele><time>2026-03-29T08:53:37.344Z</time></trkpt><trkpt lat="37.3275717" lon="14.84534"><ele>143.0</ele><time>2026-03-29T08:53:38.343Z</time></trkpt><trkpt lat="37.327765" lon="14.8454217"><ele>143.0</ele><time>2026-03-29T08:53:39.344Z</time></trkpt><trkpt lat="37.3279567" lon="14.8454983"><ele>143.0</ele><time>2026-03-29T08:53:40.344Z</time></trkpt><trkpt lat="37.32815" lon="14.8455733"><ele>143.0</ele><time>2026-03-29T08:53:41.344Z</time></trkpt><trkpt lat="37.328345" lon="14.8456433"><ele>143.33333333333331</ele><time>2026-03-29T08:53:42.344Z</time></trkpt><trkpt lat="37.3285383" lon="14.8457133"><ele>143.66666666666666</ele><time>2026-03-29T08:53:43.343Z</time></trkpt><trkpt lat="37.328735" lon="14.8457717"><ele>144.0</ele><time>2026-03-29T08:53:44.344Z</time></trkpt><trkpt lat="37.32893" lon="14.8458317"><ele>144.0</ele><time>2026-03-29T08:53:45.344Z</time></trkpt><trkpt lat="37.3291267" lon="14.8459"><ele>144.0</ele><time>2026-03-29T08:53:46.343Z</time></trkpt><trkpt lat="37.32932" lon="14.8459633"><ele>144.0</ele><time>2026-03-29T08:53:47.343Z</time></trkpt><trkpt lat="37.3295167" lon="14.8460317"><ele>144.0</ele><time>2026-03-29T08:53:48.344Z</time></trkpt><trkpt lat="37.32971" lon="14.8461017"><ele>144.0</ele><time>2026-03-29T08:53:49.343Z</time></trkpt><trkpt lat="37.3298983" lon="14.8461633"><ele>144.0</ele><time>2026-03-29T08:53:50.344Z</time></trkpt><trkpt lat="37.3300933" lon="14.8462283"><ele>144.0</ele><time>2026-03-29T08:53:51.344Z</time></trkpt><trkpt lat="37.3302833" lon="14.8462917"><ele>144.0</ele><time>2026-03-29T08:53:52.343Z</time></trkpt><trkpt lat="37.3304767" lon="14.846355"><ele>144.0</ele><time>2026-03-29T08:53:53.343Z</time></trkpt><trkpt lat="37.3306717" lon="14.8464167"><ele>145.0</ele><time>2026-03-29T08:53:54.344Z</time></trkpt><trkpt lat="37.330865" lon="14.8464817"><ele>146.0</ele><time>2026-03-29T08:53:55.343Z</time></trkpt><trkpt lat="37.3310633" lon="14.8465533"><ele>147.0</ele><time>2026-03-29T08:53:56.343Z</time></trkpt><trkpt lat="37.33126" lon="14.846625"><ele>147.0</ele><time>2026-03-29T08:53:57.343Z</time></trkpt><trkpt lat="37.3314633" lon="14.8466967"><ele>147.0</ele><time>2026-03-29T08:53:58.343Z</time></trkpt><trkpt lat="37.3316617" lon="14.846765"><ele>147.0</ele><time>2026-03-29T08:53:59.344Z</time></trkpt><trkpt lat="37.3318667" lon="14.84683"><ele>147.0</ele><time>2026-03-29T08:54:00.344Z</time></trkpt><trkpt lat="37.3320717" lon="14.8469"><ele>147.0</ele><time>2026-03-29T08:54:01.344Z</time></trkpt><trkpt lat="37.3322717" lon="14.846965"><ele>147.0</ele><time>2026-03-29T08:54:02.344Z</time></trkpt><trkpt lat="37.3324683" lon="14.8470233"><ele>148.33333333333334</ele><time>2026-03-29T08:54:03.343Z</time></trkpt><trkpt lat="37.332665" lon="14.8470967"><ele>149.66666666666669</ele><time>2026-03-29T08:54:04.343Z</time></trkpt><trkpt lat="37.33285" lon="14.84716"><ele>151.0</ele><time>2026-03-29T08:54:05.343Z</time></trkpt><trkpt lat="37.3330233" lon="14.8472217"><ele>151.66666666666669</ele><time>2026-03-29T08:54:06.343Z</time></trkpt><trkpt lat="37.3331967" lon="14.847275"><ele>152.33333333333334</ele><time>2026-03-29T08:54:07.344Z</time></trkpt><trkpt lat="37.33337" lon="14.8473217"><ele>153.0</ele><time>2026-03-29T08:54:08.343Z</time></trkpt><trkpt lat="37.3335383" lon="14.84734"><ele>153.0</ele><time>2026-03-29T08:54:09.344Z</time></trkpt><trkpt lat="37.3337133" lon="14.847355"><ele>153.0</ele><time>2026-03-29T08:54:10.343Z</time></trkpt><trkpt lat="37.3338933" lon="14.84735"><ele>153.0</ele><time>2026-03-29T08:54:11.344Z</time></trkpt><trkpt lat="37.3340783" lon="14.84732"><ele>152.33333333333334</ele><time>2026-03-29T08:54:12.343Z</time></trkpt><trkpt lat="37.3342633" lon="14.8472867"><ele>151.66666666666669</ele><time>2026-03-29T08:54:13.343Z</time></trkpt><trkpt lat="37.3344517" lon="14.8472533"><ele>151.0</ele><time>2026-03-29T08:54:14.344Z</time></trkpt><trkpt lat="37.33464" lon="14.8472233"><ele>149.0</ele><time>2026-03-29T08:54:15.343Z</time></trkpt><trkpt lat="37.3348333" lon="14.8472"><ele>147.0</ele><time>2026-03-29T08:54:16.343Z</time></trkpt><trkpt lat="37.3350367" lon="14.847175"><ele>145.0</ele><time>2026-03-29T08:54:17.343Z</time></trkpt><trkpt lat="37.335235" lon="14.84715"><ele>145.0</ele><time>2026-03-29T08:54:18.343Z</time></trkpt><trkpt lat="37.33543" lon="14.84712"><ele>145.0</ele><time>2026-03-29T08:54:19.344Z</time></trkpt><trkpt lat="37.335625" lon="14.8470917"><ele>145.0</ele><time>2026-03-29T08:54:20.344Z</time></trkpt><trkpt lat="37.3358133" lon="14.8470617"><ele>142.33333333333334</ele><time>2026-03-29T08:54:21.343Z</time></trkpt><trkpt lat="37.3360017" lon="14.8470217"><ele>139.66666666666666</ele><time>2026-03-29T08:54:22.343Z</time></trkpt><trkpt lat="37.3361767" lon="14.8469733"><ele>137.0</ele><time>2026-03-29T08:54:23.344Z</time></trkpt><trkpt lat="37.3363383" lon="14.8469"><ele>136.0</ele><time>2026-03-29T08:54:24.344Z</time></trkpt><trkpt lat="37.336495" lon="14.8468083"><ele>135.0</ele><time>2026-03-29T08:54:25.343Z</time></trkpt><trkpt lat="37.3366417" lon="14.84671"><ele>134.0</ele><time>2026-03-29T08:54:26.343Z</time></trkpt><trkpt lat="37.336785" lon="14.84662"><ele>135.25</ele><time>2026-03-29T08:54:27.344Z</time></trkpt><trkpt lat="37.3369233" lon="14.8465417"><ele>136.5</ele><time>2026-03-29T08:54:28.343Z</time></trkpt><trkpt lat="37.3370633" lon="14.8464867"><ele>137.75</ele><time>2026-03-29T08:54:29.344Z</time></trkpt><trkpt lat="37.3372117" lon="14.84647"><ele>139.0</ele><time>2026-03-29T08:54:30.344Z</time></trkpt><trkpt lat="37.3373467" lon="14.8464983"><ele>139.0</ele><time>2026-03-29T08:54:31.344Z</time></trkpt><trkpt lat="37.3374867" lon="14.8465583"><ele>139.0</ele><time>2026-03-29T08:54:32.343Z</time></trkpt><trkpt lat="37.33763" lon="14.8466133"><ele>139.0</ele><time>2026-03-29T08:54:33.343Z</time></trkpt><trkpt lat="37.3377683" lon="14.8466117"><ele>139.0</ele><time>2026-03-29T08:54:34.344Z</time></trkpt><trkpt lat="37.3379017" lon="14.8465467"><ele>139.0</ele><time>2026-03-29T08:54:35.343Z</time></trkpt><trkpt lat="37.338015" lon="14.8464417"><ele>139.0</ele><time>2026-03-29T08:54:36.343Z</time></trkpt><trkpt lat="37.3381167" lon="14.846315"><ele>139.0</ele><time>2026-03-29T08:54:37.343Z</time></trkpt><trkpt lat="37.33822" lon="14.8462067"><ele>139.0</ele><time>2026-03-29T08:54:38.344Z</time></trkpt><trkpt lat="37.3383417" lon="14.8461417"><ele>136.5</ele><time>2026-03-29T08:54:39.344Z</time></trkpt><trkpt lat="37.3384783" lon="14.84612"><ele>134.0</ele><time>2026-03-29T08:54:40.343Z</time></trkpt><trkpt lat="37.3386" lon="14.8461517"><ele>131.5</ele><time>2026-03-29T08:54:41.343Z</time></trkpt><trkpt lat="37.3387183" lon="14.8462317"><ele>129.0</ele><time>2026-03-29T08:54:42.343Z</time></trkpt><trkpt lat="37.3388183" lon="14.8463433"><ele>129.0</ele><time>2026-03-29T08:54:43.344Z</time></trkpt><trkpt lat="37.33891" lon="14.8464717"><ele>129.0</ele><time>2026-03-29T08:54:44.344Z</time></trkpt><trkpt lat="37.33901" lon="14.8466067"><ele>129.0</ele><time>2026-03-29T08:54:45.342Z</time></trkpt><trkpt lat="37.3391183" lon="14.84672"><ele>129.0</ele><time>2026-03-29T08:54:46.342Z</time></trkpt><trkpt lat="37.33924" lon="14.846815"><ele>125.75</ele><time>2026-03-29T08:54:47.342Z</time></trkpt><trkpt lat="37.3393733" lon="14.8468833"><ele>122.5</ele><time>2026-03-29T08:54:48.342Z</time></trkpt><trkpt lat="37.3395183" lon="14.846925"><ele>119.25</ele><time>2026-03-29T08:54:49.342Z</time></trkpt><trkpt lat="37.339665" lon="14.8469317"><ele>116.0</ele><time>2026-03-29T08:54:50.342Z</time></trkpt><trkpt lat="37.339805" lon="14.8468867"><ele>115.75</ele><time>2026-03-29T08:54:51.343Z</time></trkpt><trkpt lat="37.3399467" lon="14.846805"><ele>115.5</ele><time>2026-03-29T08:54:52.343Z</time></trkpt><trkpt lat="37.34007" lon="14.8467083"><ele>115.25</ele><time>2026-03-29T08:54:53.343Z</time></trkpt><trkpt lat="37.340195" lon="14.846625"><ele>115.0</ele><time>2026-03-29T08:54:54.343Z</time></trkpt><trkpt lat="37.340315" lon="14.8465717"><ele>113.75</ele><time>2026-03-29T08:54:55.343Z</time></trkpt><trkpt lat="37.3404467" lon="14.8465667"><ele>112.5</ele><time>2026-03-29T08:54:56.342Z</time></trkpt><trkpt lat="37.3405667" lon="14.8466133"><ele>111.25</ele><time>2026-03-29T08:54:57.342Z</time></trkpt><trkpt lat="37.3406817" lon="14.846705"><ele>110.0</ele><time>2026-03-29T08:54:58.343Z</time></trkpt><trkpt lat="37.3407767" lon="14.8468433"><ele>110.0</ele><time>2026-03-29T08:54:59.342Z</time></trkpt><trkpt lat="37.340845" lon="14.8470067"><ele>110.0</ele><time>2026-03-29T08:55:00.343Z</time></trkpt><trkpt lat="37.3409433" lon="14.8471633"><ele>110.0</ele><time>2026-03-29T08:55:01.343Z</time></trkpt><trkpt lat="37.3410833" lon="14.8472783"><ele>110.0</ele><time>2026-03-29T08:55:02.342Z</time></trkpt><trkpt lat="37.3412333" lon="14.8473633"><ele>110.0</ele><time>2026-03-29T08:55:03.343Z</time></trkpt><trkpt lat="37.34139" lon="14.8474133"><ele>110.0</ele><time>2026-03-29T08:55:04.343Z</time></trkpt><trkpt lat="37.3415433" lon="14.84745"><ele>109.0</ele><time>2026-03-29T08:55:05.342Z</time></trkpt><trkpt lat="37.3416933" lon="14.8474517"><ele>108.0</ele><time>2026-03-29T08:55:06.343Z</time></trkpt><trkpt lat="37.34184" lon="14.8473917"><ele>107.0</ele><time>2026-03-29T08:55:07.343Z</time></trkpt><trkpt lat="37.342" lon="14.84731"><ele>107.0</ele><time>2026-03-29T08:55:08.342Z</time></trkpt><trkpt lat="37.342165" lon="14.8472267"><ele>107.0</ele><time>2026-03-29T08:55:09.342Z</time></trkpt><trkpt lat="37.3423383" lon="14.8471283"><ele>107.0</ele><time>2026-03-29T08:55:10.342Z</time></trkpt><trkpt lat="37.3424967" lon="14.8470433"><ele>105.33333333333333</ele><time>2026-03-29T08:55:11.342Z</time></trkpt><trkpt lat="37.3426517" lon="14.84697"><ele>103.66666666666666</ele><time>2026-03-29T08:55:12.343Z</time></trkpt><trkpt lat="37.342795" lon="14.8468867"><ele>102.0</ele><time>2026-03-29T08:55:13.343Z</time></trkpt><trkpt lat="37.34293" lon="14.8468083"><ele>100.0</ele><time>2026-03-29T08:55:14.343Z</time></trkpt><trkpt lat="37.3430517" lon="14.8466983"><ele>98.0</ele><time>2026-03-29T08:55:15.342Z</time></trkpt><trkpt lat="37.3431617" lon="14.8465483"><ele>96.0</ele><time>2026-03-29T08:55:16.342Z</time></trkpt><trkpt lat="37.3432417" lon="14.8463683"><ele>96.0</ele><time>2026-03-29T08:55:17.342Z</time></trkpt><trkpt lat="37.3432983" lon="14.8461633"><ele>96.0</ele><time>2026-03-29T08:55:18.342Z</time></trkpt><trkpt lat="37.3433333" lon="14.845945"><ele>96.0</ele><time>2026-03-29T08:55:19.342Z</time></trkpt><trkpt lat="37.3433517" lon="14.84572"><ele>97.33333333333334</ele><time>2026-03-29T08:55:20.342Z</time></trkpt><trkpt lat="37.3433617" lon="14.8455033"><ele>98.66666666666667</ele><time>2026-03-29T08:55:21.343Z</time></trkpt><trkpt lat="37.34338" lon="14.8452967"><ele>100.0</ele><time>2026-03-29T08:55:22.342Z</time></trkpt><trkpt lat="37.3433983" lon="14.8451133"><ele>100.25</ele><time>2026-03-29T08:55:23.342Z</time></trkpt><trkpt lat="37.3434267" lon="14.8449417"><ele>100.5</ele><time>2026-03-29T08:55:24.342Z</time></trkpt><trkpt lat="37.3434667" lon="14.8447867"><ele>100.75</ele><time>2026-03-29T08:55:25.342Z</time></trkpt><trkpt lat="37.3435417" lon="14.8446583"><ele>101.0</ele><time>2026-03-29T08:55:26.342Z</time></trkpt><trkpt lat="37.3436333" lon="14.84456"><ele>101.0</ele><time>2026-03-29T08:55:27.343Z</time></trkpt><trkpt lat="37.3437267" lon="14.844505"><ele>101.0</ele><time>2026-03-29T08:55:28.342Z</time></trkpt><trkpt lat="37.3438433" lon="14.844505"><ele>101.0</ele><time>2026-03-29T08:55:29.343Z</time></trkpt><trkpt lat="37.3439567" lon="14.8445533"><ele>101.0</ele><time>2026-03-29T08:55:30.343Z</time></trkpt><trkpt lat="37.3440633" lon="14.84464"><ele>99.5</ele><time>2026-03-29T08:55:31.342Z</time></trkpt><trkpt lat="37.34414" lon="14.8447433"><ele>98.0</ele><time>2026-03-29T08:55:32.342Z</time></trkpt><trkpt lat="37.344185" lon="14.8448667"><ele>96.5</ele><time>2026-03-29T08:55:33.343Z</time></trkpt><trkpt lat="37.344195" lon="14.8450133"><ele>95.0</ele><time>2026-03-29T08:55:34.343Z</time></trkpt><trkpt lat="37.344185" lon="14.84517"><ele>94.25</ele><time>2026-03-29T08:55:35.342Z</time></trkpt><trkpt lat="37.34417" lon="14.84532"><ele>93.5</ele><time>2026-03-29T08:55:36.343Z</time></trkpt><trkpt lat="37.3441517" lon="14.8454717"><ele>92.75</ele><time>2026-03-29T08:55:37.342Z</time></trkpt><trkpt lat="37.3441333" lon="14.8456367"><ele>92.0</ele><time>2026-03-29T08:55:38.343Z</time></trkpt><trkpt lat="37.3441133" lon="14.8458267"><ele>90.66666666666667</ele><time>2026-03-29T08:55:39.342Z</time></trkpt><trkpt lat="37.34409" lon="14.84603"><ele>89.33333333333333</ele><time>2026-03-29T08:55:40.342Z</time></trkpt><trkpt lat="37.3440667" lon="14.8462283"><ele>88.0</ele><time>2026-03-29T08:55:41.342Z</time></trkpt><trkpt lat="37.3440483" lon="14.8464417"><ele>88.0</ele><time>2026-03-29T08:55:42.343Z</time></trkpt><trkpt lat="37.3440267" lon="14.84666"><ele>88.0</ele><time>2026-03-29T08:55:43.342Z</time></trkpt><trkpt lat="37.344015" lon="14.8468867"><ele>88.0</ele><time>2026-03-29T08:55:44.342Z</time></trkpt><trkpt lat="37.3440217" lon="14.847105"><ele>86.0</ele><time>2026-03-29T08:55:45.343Z</time></trkpt><trkpt lat="37.34405" lon="14.8473233"><ele>84.0</ele><time>2026-03-29T08:55:46.343Z</time></trkpt><trkpt lat="37.3441" lon="14.8475333"><ele>82.0</ele><time>2026-03-29T08:55:47.342Z</time></trkpt><trkpt lat="37.34418" lon="14.84774"><ele>81.66666666666666</ele><time>2026-03-29T08:55:48.343Z</time></trkpt><trkpt lat="37.3442783" lon="14.847945"><ele>81.33333333333333</ele><time>2026-03-29T08:55:49.342Z</time></trkpt><trkpt lat="37.3443917" lon="14.8481467"><ele>81.0</ele><time>2026-03-29T08:55:50.343Z</time></trkpt><trkpt lat="37.3445033" lon="14.8483467"><ele>80.66666666666667</ele><time>2026-03-29T08:55:51.343Z</time></trkpt><trkpt lat="37.3446167" lon="14.8485517"><ele>80.33333333333334</ele><time>2026-03-29T08:55:52.342Z</time></trkpt><trkpt lat="37.3447317" lon="14.8487667"><ele>80.0</ele><time>2026-03-29T08:55:53.343Z</time></trkpt><trkpt lat="37.3448467" lon="14.8489883"><ele>77.66666666666667</ele><time>2026-03-29T08:55:54.343Z</time></trkpt><trkpt lat="37.3449617" lon="14.8491983"><ele>75.33333333333333</ele><time>2026-03-29T08:55:55.343Z</time></trkpt><trkpt lat="37.3450767" lon="14.8494217"><ele>73.0</ele><time>2026-03-29T08:55:56.343Z</time></trkpt><trkpt lat="37.3451983" lon="14.8496533"><ele>73.0</ele><time>2026-03-29T08:55:57.342Z</time></trkpt><trkpt lat="37.3453217" lon="14.8498817"><ele>73.0</ele><time>2026-03-29T08:55:58.342Z</time></trkpt><trkpt lat="37.3454433" lon="14.8501067"><ele>73.0</ele><time>2026-03-29T08:55:59.343Z</time></trkpt><trkpt lat="37.3455567" lon="14.850325"><ele>71.33333333333333</ele><time>2026-03-29T08:56:00.343Z</time></trkpt><trkpt lat="37.3456633" lon="14.85053"><ele>69.66666666666667</ele><time>2026-03-29T08:56:01.342Z</time></trkpt><trkpt lat="37.34577" lon="14.850735"><ele>68.0</ele><time>2026-03-29T08:56:02.342Z</time></trkpt><trkpt lat="37.34587" lon="14.8509283"><ele>68.66666666666667</ele><time>2026-03-29T08:56:03.342Z</time></trkpt><trkpt lat="37.3459717" lon="14.85113"><ele>69.33333333333333</ele><time>2026-03-29T08:56:04.343Z</time></trkpt><trkpt lat="37.3460733" lon="14.8513267"><ele>70.0</ele><time>2026-03-29T08:56:05.343Z</time></trkpt><trkpt lat="37.34618" lon="14.851525"><ele>70.0</ele><time>2026-03-29T08:56:06.342Z</time></trkpt><trkpt lat="37.34629" lon="14.8517017"><ele>70.0</ele><time>2026-03-29T08:56:07.342Z</time></trkpt><trkpt lat="37.346415" lon="14.85188"><ele>70.0</ele><time>2026-03-29T08:56:08.343Z</time></trkpt><trkpt lat="37.3465567" lon="14.8520233"><ele>69.0</ele><time>2026-03-29T08:56:09.343Z</time></trkpt><trkpt lat="37.3467083" lon="14.852145"><ele>68.0</ele><time>2026-03-29T08:56:10.343Z</time></trkpt><trkpt lat="37.3468783" lon="14.85224"><ele>67.0</ele><time>2026-03-29T08:56:11.342Z</time></trkpt><trkpt lat="37.3470633" lon="14.852315"><ele>66.33333333333333</ele><time>2026-03-29T08:56:12.342Z</time></trkpt><trkpt lat="37.34724" lon="14.8523583"><ele>65.66666666666667</ele><time>2026-03-29T08:56:13.343Z</time></trkpt><trkpt lat="37.3474283" lon="14.85238"><ele>65.0</ele><time>2026-03-29T08:56:14.343Z</time></trkpt><trkpt lat="37.3476267" lon="14.8524067"><ele>65.0</ele><time>2026-03-29T08:56:15.342Z</time></trkpt><trkpt lat="37.34783" lon="14.8524267"><ele>65.0</ele><time>2026-03-29T08:56:16.343Z</time></trkpt><trkpt lat="37.3480267" lon="14.8524433"><ele>65.0</ele><time>2026-03-29T08:56:17.342Z</time></trkpt><trkpt lat="37.34823" lon="14.85247"><ele>65.33333333333334</ele><time>2026-03-29T08:56:18.342Z</time></trkpt><trkpt lat="37.348445" lon="14.8524867"><ele>65.66666666666667</ele><time>2026-03-29T08:56:19.343Z</time></trkpt><trkpt lat="37.3486667" lon="14.8525183"><ele>66.0</ele><time>2026-03-29T08:56:20.342Z</time></trkpt><trkpt lat="37.34888" lon="14.8525433"><ele>65.33333333333333</ele><time>2026-03-29T08:56:21.343Z</time></trkpt><trkpt lat="37.3490967" lon="14.8525833"><ele>64.66666666666666</ele><time>2026-03-29T08:56:22.342Z</time></trkpt><trkpt lat="37.349315" lon="14.8526217"><ele>64.0</ele><time>2026-03-29T08:56:23.342Z</time></trkpt><trkpt lat="37.3495383" lon="14.8526483"><ele>64.0</ele><time>2026-03-29T08:56:24.343Z</time></trkpt><trkpt lat="37.3497667" lon="14.85268"><ele>64.0</ele><time>2026-03-29T08:56:25.343Z</time></trkpt><trkpt lat="37.3499867" lon="14.8527133"><ele>64.0</ele><time>2026-03-29T08:56:26.342Z</time></trkpt><trkpt lat="37.3502067" lon="14.8527367"><ele>64.0</ele><time>2026-03-29T08:56:27.342Z</time></trkpt><trkpt lat="37.3504167" lon="14.852765"><ele>64.0</ele><time>2026-03-29T08:56:28.343Z</time></trkpt><trkpt lat="37.350615" lon="14.85279"><ele>63.666666666666664</ele><time>2026-03-29T08:56:29.343Z</time></trkpt><trkpt lat="37.350805" lon="14.8528233"><ele>63.33333333333333</ele><time>2026-03-29T08:56:30.342Z</time></trkpt><trkpt lat="37.3509983" lon="14.8528917"><ele>63.0</ele><time>2026-03-29T08:56:31.342Z</time></trkpt><trkpt lat="37.3511917" lon="14.8529933"><ele>62.0</ele><time>2026-03-29T08:56:32.342Z</time></trkpt><trkpt lat="37.3513917" lon="14.85312"><ele>61.0</ele><time>2026-03-29T08:56:33.342Z</time></trkpt><trkpt lat="37.3515817" lon="14.853255"><ele>60.0</ele><time>2026-03-29T08:56:34.342Z</time></trkpt><trkpt lat="37.3517767" lon="14.8533933"><ele>60.5</ele><time>2026-03-29T08:56:35.343Z</time></trkpt><trkpt lat="37.3519733" lon="14.85353"><ele>61.0</ele><time>2026-03-29T08:56:36.343Z</time></trkpt><trkpt lat="37.3521733" lon="14.8536633"><ele>59.0</ele><time>2026-03-29T08:56:37.342Z</time></trkpt><trkpt lat="37.352375" lon="14.8537967"><ele>57.0</ele><time>2026-03-29T08:56:38.342Z</time></trkpt><trkpt lat="37.352575" lon="14.8539283"><ele>57.0</ele><time>2026-03-29T08:56:39.342Z</time></trkpt><trkpt lat="37.3527717" lon="14.8540617"><ele>57.0</ele><time>2026-03-29T08:56:40.342Z</time></trkpt><trkpt lat="37.3529733" lon="14.85419"><ele>57.0</ele><time>2026-03-29T08:56:41.343Z</time></trkpt><trkpt lat="37.3531783" lon="14.8543233"><ele>56.0</ele><time>2026-03-29T08:56:42.343Z</time></trkpt><trkpt lat="37.35338" lon="14.8544633"><ele>55.0</ele><time>2026-03-29T08:56:43.342Z</time></trkpt><trkpt lat="37.353575" lon="14.8545983"><ele>55.0</ele><time>2026-03-29T08:56:44.343Z</time></trkpt><trkpt lat="37.353775" lon="14.8547367"><ele>55.0</ele><time>2026-03-29T08:56:45.342Z</time></trkpt><trkpt lat="37.353975" lon="14.8548667"><ele>54.666666666666664</ele><time>2026-03-29T08:56:46.342Z</time></trkpt><trkpt lat="37.3541717" lon="14.854995"><ele>54.33333333333333</ele><time>2026-03-29T08:56:47.343Z</time></trkpt><trkpt lat="37.35437" lon="14.8551317"><ele>54.0</ele><time>2026-03-29T08:56:48.342Z</time></trkpt><trkpt lat="37.3545617" lon="14.8552617"><ele>53.0</ele><time>2026-03-29T08:56:49.342Z</time></trkpt><trkpt lat="37.3547517" lon="14.8553917"><ele>52.0</ele><time>2026-03-29T08:56:50.342Z</time></trkpt><trkpt lat="37.35494" lon="14.855515"><ele>51.0</ele><time>2026-03-29T08:56:51.343Z</time></trkpt><trkpt lat="37.35513" lon="14.8556483"><ele>51.0</ele><time>2026-03-29T08:56:52.343Z</time></trkpt><trkpt lat="37.35532" lon="14.8557733"><ele>51.0</ele><time>2026-03-29T08:56:53.343Z</time></trkpt><trkpt lat="37.35551" lon="14.8558933"><ele>51.0</ele><time>2026-03-29T08:56:54.342Z</time></trkpt><trkpt lat="37.35571" lon="14.8560067"><ele>50.66666666666667</ele><time>2026-03-29T08:56:55.342Z</time></trkpt><trkpt lat="37.35591" lon="14.8561117"><ele>50.333333333333336</ele><time>2026-03-29T08:56:56.342Z</time></trkpt><trkpt lat="37.356115" lon="14.8562117"><ele>50.0</ele><time>2026-03-29T08:56:57.342Z</time></trkpt><trkpt lat="37.3563233" lon="14.8563083"><ele>49.333333333333336</ele><time>2026-03-29T08:56:58.343Z</time></trkpt><trkpt lat="37.3565283" lon="14.8564017"><ele>48.66666666666667</ele><time>2026-03-29T08:56:59.343Z</time></trkpt><trkpt lat="37.3567417" lon="14.8565083"><ele>48.0</ele><time>2026-03-29T08:57:00.342Z</time></trkpt><trkpt lat="37.3569483" lon="14.85661"><ele>48.0</ele><time>2026-03-29T08:57:01.342Z</time></trkpt><trkpt lat="37.3571533" lon="14.8567167"><ele>48.0</ele><time>2026-03-29T08:57:02.343Z</time></trkpt><trkpt lat="37.3573617" lon="14.856825"><ele>48.0</ele><time>2026-03-29T08:57:03.343Z</time></trkpt><trkpt lat="37.3575683" lon="14.8569367"><ele>47.666666666666664</ele><time>2026-03-29T08:57:04.342Z</time></trkpt><trkpt lat="37.3577733" lon="14.8570567"><ele>47.33333333333333</ele><time>2026-03-29T08:57:05.342Z</time></trkpt><trkpt lat="37.3579767" lon="14.8571717"><ele>47.0</ele><time>2026-03-29T08:57:06.342Z</time></trkpt><trkpt lat="37.3581783" lon="14.85729"><ele>47.0</ele><time>2026-03-29T08:57:07.343Z</time></trkpt><trkpt lat="37.3583817" lon="14.85741"><ele>47.0</ele><time>2026-03-29T08:57:08.342Z</time></trkpt><trkpt lat="37.35859" lon="14.8575183"><ele>47.33333333333333</ele><time>2026-03-29T08:57:09.343Z</time></trkpt><trkpt lat="37.3587967" lon="14.85762"><ele>47.666666666666664</ele><time>2026-03-29T08:57:10.343Z</time></trkpt><trkpt lat="37.35901" lon="14.8577133"><ele>48.0</ele><time>2026-03-29T08:57:11.343Z</time></trkpt><trkpt lat="37.3592217" lon="14.857795"><ele>48.0</ele><time>2026-03-29T08:57:12.343Z</time></trkpt><trkpt lat="37.3594517" lon="14.8578683"><ele>48.0</ele><time>2026-03-29T08:57:13.342Z</time></trkpt><trkpt lat="37.35967" lon="14.8579233"><ele>46.333333333333336</ele><time>2026-03-29T08:57:14.342Z</time></trkpt><trkpt lat="37.359885" lon="14.8579667"><ele>44.66666666666667</ele><time>2026-03-29T08:57:15.342Z</time></trkpt><trkpt lat="37.3600933" lon="14.8580067"><ele>43.0</ele><time>2026-03-29T08:57:16.342Z</time></trkpt><trkpt lat="37.360305" lon="14.8580533"><ele>43.0</ele><time>2026-03-29T08:57:17.342Z</time></trkpt><trkpt lat="37.36052" lon="14.8580883"><ele>43.0</ele><time>2026-03-29T08:57:18.342Z</time></trkpt><trkpt lat="37.3607317" lon="14.8581267"><ele>43.0</ele><time>2026-03-29T08:57:19.343Z</time></trkpt><trkpt lat="37.36095" lon="14.8581583"><ele>42.0</ele><time>2026-03-29T08:57:20.342Z</time></trkpt><trkpt lat="37.3611733" lon="14.8581717"><ele>41.0</ele><time>2026-03-29T08:57:21.343Z</time></trkpt><trkpt lat="37.3614017" lon="14.8581767"><ele>40.5</ele><time>2026-03-29T08:57:22.342Z</time></trkpt><trkpt lat="37.36163" lon="14.8581767"><ele>40.0</ele><time>2026-03-29T08:57:23.343Z</time></trkpt><trkpt lat="37.3618533" lon="14.8581667"><ele>40.0</ele><time>2026-03-29T08:57:24.343Z</time></trkpt><trkpt lat="37.362075" lon="14.8581633"><ele>40.0</ele><time>2026-03-29T08:57:25.342Z</time></trkpt><trkpt lat="37.362295" lon="14.85815"><ele>40.0</ele><time>2026-03-29T08:57:26.342Z</time></trkpt><trkpt lat="37.3625117" lon="14.858145"><ele>40.0</ele><time>2026-03-29T08:57:27.342Z</time></trkpt><trkpt lat="37.3627317" lon="14.8581367"><ele>40.0</ele><time>2026-03-29T08:57:28.342Z</time></trkpt><trkpt lat="37.3629483" lon="14.85812"><ele>40.0</ele><time>2026-03-29T08:57:29.343Z</time></trkpt><trkpt lat="37.363175" lon="14.8581117"><ele>39.66666666666667</ele><time>2026-03-29T08:57:30.342Z</time></trkpt><trkpt lat="37.3634" lon="14.8581083"><ele>39.333333333333336</ele><time>2026-03-29T08:57:31.343Z</time></trkpt><trkpt lat="37.36362" lon="14.85811"><ele>39.0</ele><time>2026-03-29T08:57:32.343Z</time></trkpt><trkpt lat="37.3638467" lon="14.858105"><ele>39.0</ele><time>2026-03-29T08:57:33.343Z</time></trkpt><trkpt lat="37.364075" lon="14.85809"><ele>39.0</ele><time>2026-03-29T08:57:34.342Z</time></trkpt><trkpt lat="37.3643083" lon="14.858065"><ele>39.0</ele><time>2026-03-29T08:57:35.342Z</time></trkpt><trkpt lat="37.3645383" lon="14.8580267"><ele>39.0</ele><time>2026-03-29T08:57:36.342Z</time></trkpt><trkpt lat="37.36476" lon="14.8579717"><ele>39.0</ele><time>2026-03-29T08:57:37.343Z</time></trkpt><trkpt lat="37.364975" lon="14.8578983"><ele>39.0</ele><time>2026-03-29T08:57:38.342Z</time></trkpt><trkpt lat="37.365195" lon="14.8578233"><ele>39.0</ele><time>2026-03-29T08:57:39.343Z</time></trkpt><trkpt lat="37.3654117" lon="14.857745"><ele>39.0</ele><time>2026-03-29T08:57:40.343Z</time></trkpt><trkpt lat="37.3656333" lon="14.8576683"><ele>39.0</ele><time>2026-03-29T08:57:41.343Z</time></trkpt><trkpt lat="37.3658567" lon="14.8576"><ele>39.0</ele><time>2026-03-29T08:57:42.343Z</time></trkpt><trkpt lat="37.3660683" lon="14.8575267"><ele>39.0</ele><time>2026-03-29T08:57:43.342Z</time></trkpt><trkpt lat="37.3662767" lon="14.8574667"><ele>38.666666666666664</ele><time>2026-03-29T08:57:44.343Z</time></trkpt><trkpt lat="37.3664833" lon="14.857395"><ele>38.33333333333333</ele><time>2026-03-29T08:57:45.342Z</time></trkpt><trkpt lat="37.366685" lon="14.8573133"><ele>38.0</ele><time>2026-03-29T08:57:46.343Z</time></trkpt><trkpt lat="37.36688" lon="14.857245"><ele>38.0</ele><time>2026-03-29T08:57:47.342Z</time></trkpt><trkpt lat="37.3670817" lon="14.857195"><ele>38.0</ele><time>2026-03-29T08:57:48.342Z</time></trkpt><trkpt lat="37.3672717" lon="14.857195"><ele>38.0</ele><time>2026-03-29T08:57:49.343Z</time></trkpt><trkpt lat="37.3674567" lon="14.8572317"><ele>38.33333333333333</ele><time>2026-03-29T08:57:50.342Z</time></trkpt><trkpt lat="37.3676483" lon="14.8573"><ele>38.666666666666664</ele><time>2026-03-29T08:57:51.342Z</time></trkpt><trkpt lat="37.3678333" lon="14.857385"><ele>39.0</ele><time>2026-03-29T08:57:52.342Z</time></trkpt><trkpt lat="37.36803" lon="14.8574783"><ele>38.666666666666664</ele><time>2026-03-29T08:57:53.342Z</time></trkpt><trkpt lat="37.36824" lon="14.8575683"><ele>38.33333333333333</ele><time>2026-03-29T08:57:54.342Z</time></trkpt><trkpt lat="37.3684467" lon="14.8576583"><ele>38.0</ele><time>2026-03-29T08:57:55.342Z</time></trkpt><trkpt lat="37.3686583" lon="14.8577567"><ele>36.5</ele><time>2026-03-29T08:57:56.342Z</time></trkpt><trkpt lat="37.36888" lon="14.8578533"><ele>35.0</ele><time>2026-03-29T08:57:57.343Z</time></trkpt><trkpt lat="37.3691017" lon="14.8579483"><ele>35.0</ele><time>2026-03-29T08:57:58.343Z</time></trkpt><trkpt lat="37.3693217" lon="14.8580417"><ele>35.0</ele><time>2026-03-29T08:57:59.343Z</time></trkpt><trkpt lat="37.369545" lon="14.8581417"><ele>33.5</ele><time>2026-03-29T08:58:00.343Z</time></trkpt><trkpt lat="37.3697617" lon="14.8582367"><ele>32.0</ele><time>2026-03-29T08:58:01.342Z</time></trkpt><trkpt lat="37.3699833" lon="14.8583283"><ele>32.0</ele><time>2026-03-29T08:58:02.342Z</time></trkpt><trkpt lat="37.370205" lon="14.858425"><ele>32.0</ele><time>2026-03-29T08:58:03.342Z</time></trkpt><trkpt lat="37.37043" lon="14.8585167"><ele>33.0</ele><time>2026-03-29T08:58:04.343Z</time></trkpt><trkpt lat="37.3706583" lon="14.8586067"><ele>34.0</ele><time>2026-03-29T08:58:05.343Z</time></trkpt><trkpt lat="37.3708867" lon="14.858695"><ele>34.0</ele><time>2026-03-29T08:58:06.343Z</time></trkpt><trkpt lat="37.3711117" lon="14.8587933"><ele>34.0</ele><time>2026-03-29T08:58:07.342Z</time></trkpt><trkpt lat="37.3713367" lon="14.8588883"><ele>34.0</ele><time>2026-03-29T08:58:08.343Z</time></trkpt><trkpt lat="37.3715567" lon="14.8589867"><ele>34.0</ele><time>2026-03-29T08:58:09.342Z</time></trkpt><trkpt lat="37.3717783" lon="14.8590767"><ele>34.0</ele><time>2026-03-29T08:58:10.342Z</time></trkpt><trkpt lat="37.371995" lon="14.8591733"><ele>34.0</ele><time>2026-03-29T08:58:11.342Z</time></trkpt><trkpt lat="37.3722133" lon="14.8592667"><ele>34.5</ele><time>2026-03-29T08:58:12.343Z</time></trkpt><trkpt lat="37.3724333" lon="14.8593617"><ele>35.0</ele><time>2026-03-29T08:58:13.342Z</time></trkpt><trkpt lat="37.3726533" lon="14.85945"><ele>35.0</ele><time>2026-03-29T08:58:14.343Z</time></trkpt><trkpt lat="37.372875" lon="14.8595433"><ele>35.0</ele><time>2026-03-29T08:58:15.343Z</time></trkpt><trkpt lat="37.3730917" lon="14.8596433"><ele>34.5</ele><time>2026-03-29T08:58:16.342Z</time></trkpt><trkpt lat="37.37331" lon="14.8597533"><ele>34.0</ele><time>2026-03-29T08:58:17.342Z</time></trkpt><trkpt lat="37.3735233" lon="14.8598683"><ele>34.0</ele><time>2026-03-29T08:58:18.343Z</time></trkpt><trkpt lat="37.3737383" lon="14.85999"><ele>34.0</ele><time>2026-03-29T08:58:19.343Z</time></trkpt><trkpt lat="37.3739583" lon="14.86011"><ele>33.0</ele><time>2026-03-29T08:58:20.343Z</time></trkpt><trkpt lat="37.3741817" lon="14.86023"><ele>32.0</ele><time>2026-03-29T08:58:21.342Z</time></trkpt><trkpt lat="37.3743967" lon="14.8603583"><ele>32.0</ele><time>2026-03-29T08:58:22.343Z</time></trkpt><trkpt lat="37.374615" lon="14.86049"><ele>32.0</ele><time>2026-03-29T08:58:23.342Z</time></trkpt><trkpt lat="37.3748283" lon="14.860615"><ele>32.5</ele><time>2026-03-29T08:58:24.342Z</time></trkpt><trkpt lat="37.37505" lon="14.8607417"><ele>33.0</ele><time>2026-03-29T08:58:25.342Z</time></trkpt><trkpt lat="37.375275" lon="14.8608617"><ele>32.0</ele><time>2026-03-29T08:58:26.342Z</time></trkpt><trkpt lat="37.3754967" lon="14.86098"><ele>31.0</ele><time>2026-03-29T08:58:27.342Z</time></trkpt><trkpt lat="37.375715" lon="14.8610983"><ele>31.0</ele><time>2026-03-29T08:58:28.343Z</time></trkpt><trkpt lat="37.375935" lon="14.8612233"><ele>31.0</ele><time>2026-03-29T08:58:29.342Z</time></trkpt><trkpt lat="37.376155" lon="14.86135"><ele>31.0</ele><time>2026-03-29T08:58:30.342Z</time></trkpt><trkpt lat="37.3763767" lon="14.8614783"><ele>31.0</ele><time>2026-03-29T08:58:31.343Z</time></trkpt><trkpt lat="37.3765967" lon="14.8616"><ele>31.0</ele><time>2026-03-29T08:58:32.342Z</time></trkpt><trkpt lat="37.376815" lon="14.8617233"><ele>31.0</ele><time>2026-03-29T08:58:33.343Z</time></trkpt><trkpt lat="37.377035" lon="14.8618417"><ele>31.0</ele><time>2026-03-29T08:58:34.343Z</time></trkpt><trkpt lat="37.37726" lon="14.8619667"><ele>31.0</ele><time>2026-03-29T08:58:35.342Z</time></trkpt><trkpt lat="37.3774783" lon="14.8620917"><ele>31.0</ele><time>2026-03-29T08:58:36.343Z</time></trkpt><trkpt lat="37.3776967" lon="14.8622083"><ele>31.0</ele><time>2026-03-29T08:58:37.342Z</time></trkpt><trkpt lat="37.3779167" lon="14.86233"><ele>30.0</ele><time>2026-03-29T08:58:38.343Z</time></trkpt><trkpt lat="37.3781417" lon="14.862455"><ele>29.0</ele><time>2026-03-29T08:58:39.343Z</time></trkpt><trkpt lat="37.3783683" lon="14.862575"><ele>29.0</ele><time>2026-03-29T08:58:40.342Z</time></trkpt><trkpt lat="37.37859" lon="14.8627"><ele>29.0</ele><time>2026-03-29T08:58:41.343Z</time></trkpt><trkpt lat="37.3788083" lon="14.862815"><ele>29.0</ele><time>2026-03-29T08:58:42.342Z</time></trkpt><trkpt lat="37.3790233" lon="14.8629417"><ele>29.0</ele><time>2026-03-29T08:58:43.343Z</time></trkpt><trkpt lat="37.37924" lon="14.863065"><ele>29.0</ele><time>2026-03-29T08:58:44.343Z</time></trkpt><trkpt lat="37.37946" lon="14.863185"><ele>29.0</ele><time>2026-03-29T08:58:45.342Z</time></trkpt><trkpt lat="37.379675" lon="14.8633117"><ele>29.5</ele><time>2026-03-29T08:58:46.342Z</time></trkpt><trkpt lat="37.3798933" lon="14.863435"><ele>30.0</ele><time>2026-03-29T08:58:47.343Z</time></trkpt><trkpt lat="37.3801183" lon="14.8635517"><ele>30.0</ele><time>2026-03-29T08:58:48.342Z</time></trkpt><trkpt lat="37.38033" lon="14.8636683"><ele>30.0</ele><time>2026-03-29T08:58:49.342Z</time></trkpt><trkpt lat="37.3805467" lon="14.8637867"><ele>30.0</ele><time>2026-03-29T08:58:50.343Z</time></trkpt><trkpt lat="37.3807667" lon="14.8639067"><ele>30.0</ele><time>2026-03-29T08:58:51.343Z</time></trkpt><trkpt lat="37.3809817" lon="14.8640267"><ele>30.0</ele><time>2026-03-29T08:58:52.342Z</time></trkpt><trkpt lat="37.3811967" lon="14.864145"><ele>30.0</ele><time>2026-03-29T08:58:53.342Z</time></trkpt><trkpt lat="37.3813967" lon="14.8642717"><ele>30.333333333333336</ele><time>2026-03-29T08:58:54.343Z</time></trkpt><trkpt lat="37.3815867" lon="14.86442"><ele>30.666666666666668</ele><time>2026-03-29T08:58:55.343Z</time></trkpt><trkpt lat="37.3817633" lon="14.864585"><ele>31.0</ele><time>2026-03-29T08:58:56.343Z</time></trkpt><trkpt lat="37.3819283" lon="14.86477"><ele>31.0</ele><time>2026-03-29T08:58:57.343Z</time></trkpt><trkpt lat="37.3820717" lon="14.864985"><ele>31.0</ele><time>2026-03-29T08:58:58.342Z</time></trkpt><trkpt lat="37.3821983" lon="14.865215"><ele>31.0</ele><time>2026-03-29T08:58:59.342Z</time></trkpt><trkpt lat="37.3823083" lon="14.865455"><ele>30.5</ele><time>2026-03-29T08:59:00.342Z</time></trkpt><trkpt lat="37.3824167" lon="14.8657117"><ele>30.0</ele><time>2026-03-29T08:59:01.343Z</time></trkpt><trkpt lat="37.3825183" lon="14.865965"><ele>30.0</ele><time>2026-03-29T08:59:02.342Z</time></trkpt><trkpt lat="37.38262" lon="14.86623"><ele>30.0</ele><time>2026-03-29T08:59:03.342Z</time></trkpt><trkpt lat="37.3827217" lon="14.8664983"><ele>30.0</ele><time>2026-03-29T08:59:04.342Z</time></trkpt><trkpt lat="37.3828283" lon="14.866755"><ele>30.0</ele><time>2026-03-29T08:59:05.342Z</time></trkpt><trkpt lat="37.3829267" lon="14.8670033"><ele>30.333333333333336</ele><time>2026-03-29T08:59:06.342Z</time></trkpt><trkpt lat="37.3830317" lon="14.8672283"><ele>30.666666666666668</ele><time>2026-03-29T08:59:07.343Z</time></trkpt><trkpt lat="37.3831567" lon="14.867435"><ele>31.0</ele><time>2026-03-29T08:59:08.342Z</time></trkpt><trkpt lat="37.3833017" lon="14.8676067"><ele>31.0</ele><time>2026-03-29T08:59:09.342Z</time></trkpt><trkpt lat="37.3834617" lon="14.867755"><ele>31.0</ele><time>2026-03-29T08:59:10.342Z</time></trkpt><trkpt lat="37.3836417" lon="14.8678683"><ele>31.0</ele><time>2026-03-29T08:59:11.342Z</time></trkpt><trkpt lat="37.3838367" lon="14.8679483"><ele>31.333333333333336</ele><time>2026-03-29T08:59:12.343Z</time></trkpt><trkpt lat="37.3840333" lon="14.868005"><ele>31.666666666666664</ele><time>2026-03-29T08:59:13.342Z</time></trkpt><trkpt lat="37.38424" lon="14.8680383"><ele>32.0</ele><time>2026-03-29T08:59:14.343Z</time></trkpt><trkpt lat="37.3844283" lon="14.8680583"><ele>32.0</ele><time>2026-03-29T08:59:15.342Z</time></trkpt><trkpt lat="37.384605" lon="14.868075"><ele>32.0</ele><time>2026-03-29T08:59:16.342Z</time></trkpt><trkpt lat="37.3847617" lon="14.8681017"><ele>32.0</ele><time>2026-03-29T08:59:17.342Z</time></trkpt><trkpt lat="37.3849033" lon="14.86813"><ele>31.75</ele><time>2026-03-29T08:59:18.342Z</time></trkpt><trkpt lat="37.385035" lon="14.868165"><ele>31.5</ele><time>2026-03-29T08:59:19.343Z</time></trkpt><trkpt lat="37.3851467" lon="14.8682167"><ele>31.25</ele><time>2026-03-29T08:59:20.343Z</time></trkpt><trkpt lat="37.3852433" lon="14.8682867"><ele>31.0</ele><time>2026-03-29T08:59:21.343Z</time></trkpt><trkpt lat="37.38533" lon="14.86838"><ele>31.0</ele><time>2026-03-29T08:59:22.342Z</time></trkpt><trkpt lat="37.385415" lon="14.8684617"><ele>31.0</ele><time>2026-03-29T08:59:23.342Z</time></trkpt><trkpt lat="37.3855233" lon="14.8684967"><ele>31.0</ele><time>2026-03-29T08:59:24.343Z</time></trkpt><trkpt lat="37.385645" lon="14.8684833"><ele>31.0</ele><time>2026-03-29T08:59:25.342Z</time></trkpt><trkpt lat="37.38578" lon="14.868475"><ele>31.333333333333336</ele><time>2026-03-29T08:59:26.342Z</time></trkpt><trkpt lat="37.3859217" lon="14.8685267"><ele>31.666666666666664</ele><time>2026-03-29T08:59:27.343Z</time></trkpt><trkpt lat="37.38608" lon="14.8686067"><ele>32.0</ele><time>2026-03-29T08:59:28.343Z</time></trkpt><trkpt lat="37.3862317" lon="14.8686917"><ele>31.5</ele><time>2026-03-29T08:59:29.342Z</time></trkpt><trkpt lat="37.3863733" lon="14.8687817"><ele>31.0</ele><time>2026-03-29T08:59:30.343Z</time></trkpt><trkpt lat="37.3864967" lon="14.8688667"><ele>30.5</ele><time>2026-03-29T08:59:31.343Z</time></trkpt><trkpt lat="37.3866133" lon="14.8689667"><ele>30.0</ele><time>2026-03-29T08:59:32.343Z</time></trkpt><trkpt lat="37.38672" lon="14.8690783"><ele>30.0</ele><time>2026-03-29T08:59:33.343Z</time></trkpt><trkpt lat="37.3868267" lon="14.869205"><ele>30.0</ele><time>2026-03-29T08:59:34.343Z</time></trkpt><trkpt lat="37.386925" lon="14.8693533"><ele>30.0</ele><time>2026-03-29T08:59:35.342Z</time></trkpt><trkpt lat="37.38702" lon="14.8695267"><ele>30.666666666666664</ele><time>2026-03-29T08:59:36.342Z</time></trkpt><trkpt lat="37.38711" lon="14.8697067"><ele>31.333333333333332</ele><time>2026-03-29T08:59:37.343Z</time></trkpt><trkpt lat="37.3872017" lon="14.8698933"><ele>32.0</ele><time>2026-03-29T08:59:38.343Z</time></trkpt><trkpt lat="37.3873" lon="14.8700767"><ele>32.0</ele><time>2026-03-29T08:59:39.342Z</time></trkpt><trkpt lat="37.3874017" lon="14.8702617"><ele>32.0</ele><time>2026-03-29T08:59:40.342Z</time></trkpt><trkpt lat="37.3875033" lon="14.87045"><ele>32.0</ele><time>2026-03-29T08:59:41.342Z</time></trkpt><trkpt lat="37.387605" lon="14.8706483"><ele>32.0</ele><time>2026-03-29T08:59:42.342Z</time></trkpt><trkpt lat="37.3876917" lon="14.870845"><ele>32.0</ele><time>2026-03-29T08:59:43.342Z</time></trkpt><trkpt lat="37.3877733" lon="14.87106"><ele>32.0</ele><time>2026-03-29T08:59:44.343Z</time></trkpt><trkpt lat="37.3878567" lon="14.8713"><ele>31.666666666666664</ele><time>2026-03-29T08:59:45.342Z</time></trkpt><trkpt lat="37.38794" lon="14.8715333"><ele>31.333333333333336</ele><time>2026-03-29T08:59:46.342Z</time></trkpt><trkpt lat="37.3880167" lon="14.8717717"><ele>31.0</ele><time>2026-03-29T08:59:47.343Z</time></trkpt><trkpt lat="37.38808" lon="14.8720017"><ele>31.333333333333336</ele><time>2026-03-29T08:59:48.342Z</time></trkpt><trkpt lat="37.3881467" lon="14.8722333"><ele>31.666666666666664</ele><time>2026-03-29T08:59:49.342Z</time></trkpt><trkpt lat="37.38821" lon="14.872475"><ele>32.0</ele><time>2026-03-29T08:59:50.342Z</time></trkpt><trkpt lat="37.3882783" lon="14.8727167"><ele>32.0</ele><time>2026-03-29T08:59:51.342Z</time></trkpt><trkpt lat="37.388345" lon="14.8729617"><ele>32.0</ele><time>2026-03-29T08:59:52.343Z</time></trkpt><trkpt lat="37.388415" lon="14.8732233"><ele>32.0</ele><time>2026-03-29T08:59:53.342Z</time></trkpt><trkpt lat="37.3884967" lon="14.8734783"><ele>31.0</ele><time>2026-03-29T08:59:54.342Z</time></trkpt><trkpt lat="37.38858" lon="14.873745"><ele>30.0</ele><time>2026-03-29T08:59:55.343Z</time></trkpt><trkpt lat="37.3886583" lon="14.8740067"><ele>30.0</ele><time>2026-03-29T08:59:56.343Z</time></trkpt><trkpt lat="37.3887367" lon="14.8742783"><ele>30.0</ele><time>2026-03-29T08:59:57.343Z</time></trkpt><trkpt lat="37.3888183" lon="14.87455"><ele>30.0</ele><time>2026-03-29T08:59:58.343Z</time></trkpt><trkpt lat="37.3888967" lon="14.87483"><ele>30.0</ele><time>2026-03-29T08:59:59.342Z</time></trkpt><trkpt lat="37.3889717" lon="14.875105"><ele>30.5</ele><time>2026-03-29T09:00:00.342Z</time></trkpt><trkpt lat="37.3890483" lon="14.875385"><ele>31.0</ele><time>2026-03-29T09:00:01.343Z</time></trkpt><trkpt lat="37.3891233" lon="14.87566"><ele>30.0</ele><time>2026-03-29T09:00:02.342Z</time></trkpt><trkpt lat="37.3891983" lon="14.87594"><ele>29.0</ele><time>2026-03-29T09:00:03.343Z</time></trkpt><trkpt lat="37.3892767" lon="14.8762167"><ele>29.0</ele><time>2026-03-29T09:00:04.343Z</time></trkpt><trkpt lat="37.3893567" lon="14.8764967"><ele>29.0</ele><time>2026-03-29T09:00:05.343Z</time></trkpt><trkpt lat="37.3894367" lon="14.8767733"><ele>30.0</ele><time>2026-03-29T09:00:06.343Z</time></trkpt><trkpt lat="37.3895183" lon="14.8770483"><ele>31.0</ele><time>2026-03-29T09:00:07.342Z</time></trkpt><trkpt lat="37.3896033" lon="14.8773233"><ele>31.0</ele><time>2026-03-29T09:00:08.343Z</time></trkpt><trkpt lat="37.3896883" lon="14.8776017"><ele>31.0</ele><time>2026-03-29T09:00:09.343Z</time></trkpt><trkpt lat="37.38977" lon="14.8778717"><ele>31.0</ele><time>2026-03-29T09:00:10.343Z</time></trkpt><trkpt lat="37.3898433" lon="14.878145"><ele>31.0</ele><time>2026-03-29T09:00:11.343Z</time></trkpt><trkpt lat="37.389935" lon="14.87841"><ele>31.333333333333336</ele><time>2026-03-29T09:00:12.343Z</time></trkpt><trkpt lat="37.39003" lon="14.8786633"><ele>31.666666666666664</ele><time>2026-03-29T09:00:13.342Z</time></trkpt><trkpt lat="37.3901367" lon="14.8789117"><ele>32.0</ele><time>2026-03-29T09:00:14.342Z</time></trkpt><trkpt lat="37.3902567" lon="14.879155"><ele>31.0</ele><time>2026-03-29T09:00:15.343Z</time></trkpt><trkpt lat="37.3903933" lon="14.8793867"><ele>30.0</ele><time>2026-03-29T09:00:16.343Z</time></trkpt><trkpt lat="37.3905517" lon="14.8795983"><ele>30.0</ele><time>2026-03-29T09:00:17.342Z</time></trkpt><trkpt lat="37.3907167" lon="14.879785"><ele>30.0</ele><time>2026-03-29T09:00:18.343Z</time></trkpt><trkpt lat="37.3908883" lon="14.8799683"><ele>30.0</ele><time>2026-03-29T09:00:19.342Z</time></trkpt><trkpt lat="37.391055" lon="14.8801483"><ele>30.0</ele><time>2026-03-29T09:00:20.343Z</time></trkpt><trkpt lat="37.391225" lon="14.8803167"><ele>30.0</ele><time>2026-03-29T09:00:21.342Z</time></trkpt><trkpt lat="37.3913867" lon="14.8804833"><ele>30.0</ele><time>2026-03-29T09:00:22.343Z</time></trkpt><trkpt lat="37.3915467" lon="14.8806583"><ele>30.333333333333336</ele><time>2026-03-29T09:00:23.343Z</time></trkpt><trkpt lat="37.3917033" lon="14.8808317"><ele>30.666666666666668</ele><time>2026-03-29T09:00:24.342Z</time></trkpt><trkpt lat="37.3918683" lon="14.8809933"><ele>31.0</ele><time>2026-03-29T09:00:25.342Z</time></trkpt><trkpt lat="37.3920217" lon="14.881125"><ele>30.666666666666668</ele><time>2026-03-29T09:00:26.343Z</time></trkpt><trkpt lat="37.3921717" lon="14.8812417"><ele>30.333333333333336</ele><time>2026-03-29T09:00:27.343Z</time></trkpt><trkpt lat="37.3923133" lon="14.8813483"><ele>30.0</ele><time>2026-03-29T09:00:28.343Z</time></trkpt><trkpt lat="37.392445" lon="14.8814433"><ele>30.0</ele><time>2026-03-29T09:00:29.342Z</time></trkpt><trkpt lat="37.3925683" lon="14.881535"><ele>30.0</ele><time>2026-03-29T09:00:30.343Z</time></trkpt><trkpt lat="37.3926817" lon="14.8816183"><ele>30.0</ele><time>2026-03-29T09:00:31.343Z</time></trkpt><trkpt lat="37.39278" lon="14.8816967"><ele>30.0</ele><time>2026-03-29T09:00:32.342Z</time></trkpt><trkpt lat="37.392865" lon="14.88176"><ele>30.0</ele><time>2026-03-29T09:00:33.342Z</time></trkpt><trkpt lat="37.3929283" lon="14.881835"><ele>30.0</ele><time>2026-03-29T09:00:34.342Z</time></trkpt><trkpt lat="37.3929683" lon="14.8819233"><ele>30.0</ele><time>2026-03-29T09:00:35.342Z</time></trkpt><trkpt lat="37.3929983" lon="14.8820283"><ele>30.0</ele><time>2026-03-29T09:00:36.342Z</time></trkpt><trkpt lat="37.3930317" lon="14.88214"><ele>30.0</ele><time>2026-03-29T09:00:37.343Z</time></trkpt><trkpt lat="37.3930883" lon="14.882225"><ele>30.0</ele><time>2026-03-29T09:00:38.343Z</time></trkpt><trkpt lat="37.3931667" lon="14.88226"><ele>29.833333333333332</ele><time>2026-03-29T09:00:39.343Z</time></trkpt><trkpt lat="37.39325" lon="14.8822467"><ele>29.666666666666664</ele><time>2026-03-29T09:00:40.343Z</time></trkpt><trkpt lat="37.39332" lon="14.8822033"><ele>29.5</ele><time>2026-03-29T09:00:41.342Z</time></trkpt><trkpt lat="37.393375" lon="14.8821433"><ele>29.333333333333332</ele><time>2026-03-29T09:00:42.342Z</time></trkpt><trkpt lat="37.393435" lon="14.882075"><ele>29.166666666666664</ele><time>2026-03-29T09:00:43.342Z</time></trkpt><trkpt lat="37.3935017" lon="14.882005"><ele>29.0</ele><time>2026-03-29T09:00:44.342Z</time></trkpt><trkpt lat="37.39358" lon="14.8819417"><ele>29.0</ele><time>2026-03-29T09:00:45.343Z</time></trkpt><trkpt lat="37.393675" lon="14.8819"><ele>29.0</ele><time>2026-03-29T09:00:46.342Z</time></trkpt><trkpt lat="37.3937833" lon="14.8818917"><ele>29.0</ele><time>2026-03-29T09:00:47.343Z</time></trkpt><trkpt lat="37.393905" lon="14.88192"><ele>29.0</ele><time>2026-03-29T09:00:48.342Z</time></trkpt><trkpt lat="37.394045" lon="14.8819767"><ele>28.666666666666664</ele><time>2026-03-29T09:00:49.342Z</time></trkpt><trkpt lat="37.3941933" lon="14.8820233"><ele>28.333333333333336</ele><time>2026-03-29T09:00:50.342Z</time></trkpt><trkpt lat="37.3943367" lon="14.882075"><ele>28.0</ele><time>2026-03-29T09:00:51.342Z</time></trkpt><trkpt lat="37.394485" lon="14.8821317"><ele>28.0</ele><time>2026-03-29T09:00:52.342Z</time></trkpt><trkpt lat="37.3946267" lon="14.88219"><ele>28.0</ele><time>2026-03-29T09:00:53.342Z</time></trkpt><trkpt lat="37.3947717" lon="14.8822417"><ele>28.0</ele><time>2026-03-29T09:00:54.343Z</time></trkpt><trkpt lat="37.3949183" lon="14.8823"><ele>27.666666666666668</ele><time>2026-03-29T09:00:55.343Z</time></trkpt><trkpt lat="37.3950617" lon="14.8823533"><ele>27.333333333333336</ele><time>2026-03-29T09:00:56.342Z</time></trkpt><trkpt lat="37.395225" lon="14.8824133"><ele>27.0</ele><time>2026-03-29T09:00:57.342Z</time></trkpt><trkpt lat="37.3953867" lon="14.8824717"><ele>27.333333333333336</ele><time>2026-03-29T09:00:58.343Z</time></trkpt><trkpt lat="37.39556" lon="14.88254"><ele>27.666666666666668</ele><time>2026-03-29T09:00:59.343Z</time></trkpt><trkpt lat="37.3957267" lon="14.8826067"><ele>28.0</ele><time>2026-03-29T09:01:00.342Z</time></trkpt><trkpt lat="37.3959033" lon="14.8826783"><ele>28.333333333333336</ele><time>2026-03-29T09:01:01.343Z</time></trkpt><trkpt lat="37.396085" lon="14.8827433"><ele>28.666666666666664</ele><time>2026-03-29T09:01:02.342Z</time></trkpt><trkpt lat="37.396265" lon="14.882815"><ele>29.0</ele><time>2026-03-29T09:01:03.343Z</time></trkpt><trkpt lat="37.3964417" lon="14.8828783"><ele>29.666666666666664</ele><time>2026-03-29T09:01:04.343Z</time></trkpt><trkpt lat="37.3966217" lon="14.882945"><ele>30.333333333333336</ele><time>2026-03-29T09:01:05.343Z</time></trkpt><trkpt lat="37.3968033" lon="14.88302"><ele>31.0</ele><time>2026-03-29T09:01:06.342Z</time></trkpt><trkpt lat="37.3969883" lon="14.883095"><ele>31.0</ele><time>2026-03-29T09:01:07.343Z</time></trkpt><trkpt lat="37.3971833" lon="14.8831767"><ele>31.0</ele><time>2026-03-29T09:01:08.343Z</time></trkpt><trkpt lat="37.3973767" lon="14.88325"><ele>31.0</ele><time>2026-03-29T09:01:09.343Z</time></trkpt><trkpt lat="37.3975783" lon="14.883315"><ele>31.0</ele><time>2026-03-29T09:01:10.342Z</time></trkpt><trkpt lat="37.39778" lon="14.88339"><ele>31.0</ele><time>2026-03-29T09:01:11.342Z</time></trkpt><trkpt lat="37.3979783" lon="14.88347"><ele>31.0</ele><time>2026-03-29T09:01:12.342Z</time></trkpt><trkpt lat="37.3981867" lon="14.8835533"><ele>31.0</ele><time>2026-03-29T09:01:13.342Z</time></trkpt><trkpt lat="37.3983967" lon="14.8836333"><ele>31.0</ele><time>2026-03-29T09:01:14.343Z</time></trkpt><trkpt lat="37.3986067" lon="14.8837067"><ele>31.0</ele><time>2026-03-29T09:01:15.342Z</time></trkpt><trkpt lat="37.398815" lon="14.883785"><ele>30.333333333333336</ele><time>2026-03-29T09:01:16.342Z</time></trkpt><trkpt lat="37.3990233" lon="14.883865"><ele>29.666666666666664</ele><time>2026-03-29T09:01:17.342Z</time></trkpt><trkpt lat="37.3992233" lon="14.8839433"><ele>29.0</ele><time>2026-03-29T09:01:18.342Z</time></trkpt><trkpt lat="37.399425" lon="14.8840233"><ele>29.0</ele><time>2026-03-29T09:01:19.342Z</time></trkpt><trkpt lat="37.399625" lon="14.8841067"><ele>29.0</ele><time>2026-03-29T09:01:20.342Z</time></trkpt><trkpt lat="37.3998267" lon="14.884185"><ele>29.0</ele><time>2026-03-29T09:01:21.342Z</time></trkpt><trkpt lat="37.400035" lon="14.88427"><ele>28.666666666666664</ele><time>2026-03-29T09:01:22.343Z</time></trkpt><trkpt lat="37.4002367" lon="14.8843467"><ele>28.333333333333336</ele><time>2026-03-29T09:01:23.343Z</time></trkpt><trkpt lat="37.4004417" lon="14.8844233"><ele>28.0</ele><time>2026-03-29T09:01:24.343Z</time></trkpt><trkpt lat="37.4006483" lon="14.8845017"><ele>27.666666666666668</ele><time>2026-03-29T09:01:25.343Z</time></trkpt><trkpt lat="37.400855" lon="14.8845817"><ele>27.333333333333336</ele><time>2026-03-29T09:01:26.343Z</time></trkpt><trkpt lat="37.40106" lon="14.8846583"><ele>27.0</ele><time>2026-03-29T09:01:27.342Z</time></trkpt><trkpt lat="37.4012667" lon="14.88473"><ele>27.333333333333336</ele><time>2026-03-29T09:01:28.343Z</time></trkpt><trkpt lat="37.4014733" lon="14.8848083"><ele>27.666666666666668</ele><time>2026-03-29T09:01:29.343Z</time></trkpt><trkpt lat="37.401685" lon="14.8848967"><ele>28.0</ele><time>2026-03-29T09:01:30.343Z</time></trkpt><trkpt lat="37.4018933" lon="14.8849833"><ele>28.0</ele><time>2026-03-29T09:01:31.343Z</time></trkpt><trkpt lat="37.4021067" lon="14.8850683"><ele>28.0</ele><time>2026-03-29T09:01:32.343Z</time></trkpt><trkpt lat="37.4023217" lon="14.8851533"><ele>28.0</ele><time>2026-03-29T09:01:33.343Z</time></trkpt><trkpt lat="37.402535" lon="14.8852367"><ele>27.5</ele><time>2026-03-29T09:01:34.342Z</time></trkpt><trkpt lat="37.4027533" lon="14.8853133"><ele>27.0</ele><time>2026-03-29T09:01:35.342Z</time></trkpt><trkpt lat="37.4029683" lon="14.8853933"><ele>27.333333333333336</ele><time>2026-03-29T09:01:36.343Z</time></trkpt><trkpt lat="37.4031767" lon="14.88548"><ele>27.666666666666668</ele><time>2026-03-29T09:01:37.342Z</time></trkpt><trkpt lat="37.403395" lon="14.88557"><ele>28.0</ele><time>2026-03-29T09:01:38.343Z</time></trkpt><trkpt lat="37.4036083" lon="14.8856567"><ele>28.0</ele><time>2026-03-29T09:01:39.342Z</time></trkpt><trkpt lat="37.403825" lon="14.8857383"><ele>28.0</ele><time>2026-03-29T09:01:40.342Z</time></trkpt><trkpt lat="37.404035" lon="14.8858117"><ele>28.0</ele><time>2026-03-29T09:01:41.342Z</time></trkpt><trkpt lat="37.404245" lon="14.885895"><ele>28.333333333333336</ele><time>2026-03-29T09:01:42.342Z</time></trkpt><trkpt lat="37.4044533" lon="14.8859783"><ele>28.666666666666664</ele><time>2026-03-29T09:01:43.343Z</time></trkpt><trkpt lat="37.4046583" lon="14.88606"><ele>29.0</ele><time>2026-03-29T09:01:44.342Z</time></trkpt><trkpt lat="37.4048617" lon="14.8861383"><ele>29.666666666666664</ele><time>2026-03-29T09:01:45.343Z</time></trkpt><trkpt lat="37.4050633" lon="14.886215"><ele>30.333333333333336</ele><time>2026-03-29T09:01:46.342Z</time></trkpt><trkpt lat="37.4052633" lon="14.886295"><ele>31.0</ele><time>2026-03-29T09:01:47.342Z</time></trkpt><trkpt lat="37.4054667" lon="14.8864"><ele>30.666666666666668</ele><time>2026-03-29T09:01:48.343Z</time></trkpt><trkpt lat="37.40566" lon="14.886505"><ele>30.333333333333336</ele><time>2026-03-29T09:01:49.343Z</time></trkpt><trkpt lat="37.405845" lon="14.8866183"><ele>30.0</ele><time>2026-03-29T09:01:50.342Z</time></trkpt><trkpt lat="37.4060267" lon="14.8867367"><ele>29.666666666666664</ele><time>2026-03-29T09:01:51.342Z</time></trkpt><trkpt lat="37.4061983" lon="14.8868683"><ele>29.333333333333332</ele><time>2026-03-29T09:01:52.342Z</time></trkpt><trkpt lat="37.406365" lon="14.887005"><ele>29.0</ele><time>2026-03-29T09:01:53.342Z</time></trkpt><trkpt lat="37.4065367" lon="14.887145"><ele>29.333333333333332</ele><time>2026-03-29T09:01:54.343Z</time></trkpt><trkpt lat="37.4067033" lon="14.8872983"><ele>29.666666666666664</ele><time>2026-03-29T09:01:55.342Z</time></trkpt><trkpt lat="37.4068667" lon="14.8874567"><ele>30.0</ele><time>2026-03-29T09:01:56.343Z</time></trkpt><trkpt lat="37.4070183" lon="14.88762"><ele>30.0</ele><time>2026-03-29T09:01:57.342Z</time></trkpt><trkpt lat="37.4071667" lon="14.887785"><ele>30.0</ele><time>2026-03-29T09:01:58.343Z</time></trkpt><trkpt lat="37.407315" lon="14.88797"><ele>30.0</ele><time>2026-03-29T09:01:59.343Z</time></trkpt><trkpt lat="37.407455" lon="14.88816"><ele>30.0</ele><time>2026-03-29T09:02:00.343Z</time></trkpt><trkpt lat="37.40759" lon="14.8883433"><ele>30.0</ele><time>2026-03-29T09:02:01.343Z</time></trkpt><trkpt lat="37.4077183" lon="14.8885333"><ele>30.0</ele><time>2026-03-29T09:02:02.342Z</time></trkpt><trkpt lat="37.4078433" lon="14.8887383"><ele>29.666666666666664</ele><time>2026-03-29T09:02:03.343Z</time></trkpt><trkpt lat="37.40797" lon="14.88895"><ele>29.333333333333332</ele><time>2026-03-29T09:02:04.343Z</time></trkpt><trkpt lat="37.4081" lon="14.8891683"><ele>29.0</ele><time>2026-03-29T09:02:05.342Z</time></trkpt><trkpt lat="37.4082333" lon="14.8893883"><ele>29.666666666666664</ele><time>2026-03-29T09:02:06.343Z</time></trkpt><trkpt lat="37.40837" lon="14.889605"><ele>30.333333333333336</ele><time>2026-03-29T09:02:07.342Z</time></trkpt><trkpt lat="37.4084967" lon="14.8898083"><ele>31.0</ele><time>2026-03-29T09:02:08.342Z</time></trkpt><trkpt lat="37.408615" lon="14.8900017"><ele>31.333333333333336</ele><time>2026-03-29T09:02:09.343Z</time></trkpt><trkpt lat="37.408735" lon="14.89019"><ele>31.666666666666664</ele><time>2026-03-29T09:02:10.343Z</time></trkpt><trkpt lat="37.4088517" lon="14.890385"><ele>32.0</ele><time>2026-03-29T09:02:11.343Z</time></trkpt><trkpt lat="37.4089717" lon="14.8905733"><ele>32.0</ele><time>2026-03-29T09:02:12.343Z</time></trkpt><trkpt lat="37.409095" lon="14.890765"><ele>32.0</ele><time>2026-03-29T09:02:13.343Z</time></trkpt><trkpt lat="37.4092217" lon="14.8909617"><ele>32.0</ele><time>2026-03-29T09:02:14.342Z</time></trkpt><trkpt lat="37.4093333" lon="14.8911683"><ele>31.333333333333332</ele><time>2026-03-29T09:02:15.342Z</time></trkpt><trkpt lat="37.4094283" lon="14.8913867"><ele>30.666666666666664</ele><time>2026-03-29T09:02:16.343Z</time></trkpt><trkpt lat="37.4095067" lon="14.8916233"><ele>30.0</ele><time>2026-03-29T09:02:17.343Z</time></trkpt><trkpt lat="37.4095783" lon="14.891865"><ele>30.333333333333336</ele><time>2026-03-29T09:02:18.343Z</time></trkpt><trkpt lat="37.4096333" lon="14.89211"><ele>30.666666666666668</ele><time>2026-03-29T09:02:19.342Z</time></trkpt><trkpt lat="37.409675" lon="14.8923717"><ele>31.0</ele><time>2026-03-29T09:02:20.343Z</time></trkpt><trkpt lat="37.4097" lon="14.892635"><ele>31.0</ele><time>2026-03-29T09:02:21.342Z</time></trkpt><trkpt lat="37.4097133" lon="14.8929033"><ele>31.0</ele><time>2026-03-29T09:02:22.342Z</time></trkpt><trkpt lat="37.4097317" lon="14.8931733"><ele>31.0</ele><time>2026-03-29T09:02:23.342Z</time></trkpt><trkpt lat="37.4097533" lon="14.893445"><ele>30.5</ele><time>2026-03-29T09:02:24.343Z</time></trkpt><trkpt lat="37.40978" lon="14.8937333"><ele>30.0</ele><time>2026-03-29T09:02:25.343Z</time></trkpt><trkpt lat="37.4098117" lon="14.8940317"><ele>29.5</ele><time>2026-03-29T09:02:26.342Z</time></trkpt><trkpt lat="37.4098367" lon="14.8943367"><ele>29.0</ele><time>2026-03-29T09:02:27.343Z</time></trkpt><trkpt lat="37.4098617" lon="14.8946583"><ele>29.0</ele><time>2026-03-29T09:02:28.342Z</time></trkpt><trkpt lat="37.40988" lon="14.89498"><ele>29.0</ele><time>2026-03-29T09:02:29.342Z</time></trkpt><trkpt lat="37.4099017" lon="14.8953017"><ele>29.0</ele><time>2026-03-29T09:02:30.343Z</time></trkpt><trkpt lat="37.4099233" lon="14.8956233"><ele>29.0</ele><time>2026-03-29T09:02:31.342Z</time></trkpt><trkpt lat="37.4099483" lon="14.8959483"><ele>29.0</ele><time>2026-03-29T09:02:32.343Z</time></trkpt><trkpt lat="37.4099767" lon="14.896265"><ele>29.0</ele><time>2026-03-29T09:02:33.343Z</time></trkpt><trkpt lat="37.4099983" lon="14.89658"><ele>28.5</ele><time>2026-03-29T09:02:34.343Z</time></trkpt><trkpt lat="37.4100183" lon="14.8969"><ele>28.0</ele><time>2026-03-29T09:02:35.343Z</time></trkpt><trkpt lat="37.4100433" lon="14.8972133"><ele>28.0</ele><time>2026-03-29T09:02:36.342Z</time></trkpt><trkpt lat="37.4100683" lon="14.89753"><ele>28.0</ele><time>2026-03-29T09:02:37.342Z</time></trkpt><trkpt lat="37.41009" lon="14.89785"><ele>28.0</ele><time>2026-03-29T09:02:38.342Z</time></trkpt><trkpt lat="37.4101167" lon="14.8981617"><ele>28.0</ele><time>2026-03-29T09:02:39.342Z</time></trkpt><trkpt lat="37.4101417" lon="14.8984733"><ele>28.0</ele><time>2026-03-29T09:02:40.342Z</time></trkpt><trkpt lat="37.410165" lon="14.8987883"><ele>28.0</ele><time>2026-03-29T09:02:41.343Z</time></trkpt><trkpt lat="37.4101867" lon="14.8990917"><ele>28.5</ele><time>2026-03-29T09:02:42.342Z</time></trkpt><trkpt lat="37.4102083" lon="14.899395"><ele>29.0</ele><time>2026-03-29T09:02:43.343Z</time></trkpt><trkpt lat="37.41023" lon="14.8997"><ele>29.0</ele><time>2026-03-29T09:02:44.343Z</time></trkpt><trkpt lat="37.41025" lon="14.9000083"><ele>29.0</ele><time>2026-03-29T09:02:45.342Z</time></trkpt><trkpt lat="37.4102767" lon="14.9003117"><ele>29.0</ele><time>2026-03-29T09:02:46.343Z</time></trkpt><trkpt lat="37.4103033" lon="14.900615"><ele>29.0</ele><time>2026-03-29T09:02:47.343Z</time></trkpt><trkpt lat="37.4103333" lon="14.9009167"><ele>29.0</ele><time>2026-03-29T09:02:48.343Z</time></trkpt><trkpt lat="37.41036" lon="14.9012217"><ele>29.0</ele><time>2026-03-29T09:02:49.342Z</time></trkpt><trkpt lat="37.4103833" lon="14.901525"><ele>28.0</ele><time>2026-03-29T09:02:50.342Z</time></trkpt><trkpt lat="37.4104067" lon="14.9018267"><ele>27.0</ele><time>2026-03-29T09:02:51.342Z</time></trkpt><trkpt lat="37.4104267" lon="14.9021283"><ele>27.0</ele><time>2026-03-29T09:02:52.342Z</time></trkpt><trkpt lat="37.410445" lon="14.9024283"><ele>27.0</ele><time>2026-03-29T09:02:53.342Z</time></trkpt><trkpt lat="37.4104717" lon="14.9027167"><ele>27.5</ele><time>2026-03-29T09:02:54.342Z</time></trkpt><trkpt lat="37.4105033" lon="14.9030067"><ele>28.0</ele><time>2026-03-29T09:02:55.342Z</time></trkpt><trkpt lat="37.410545" lon="14.90329"><ele>27.5</ele><time>2026-03-29T09:02:56.343Z</time></trkpt><trkpt lat="37.4105967" lon="14.9035667"><ele>27.0</ele><time>2026-03-29T09:02:57.343Z</time></trkpt><trkpt lat="37.41067" lon="14.9038367"><ele>27.0</ele><time>2026-03-29T09:02:58.342Z</time></trkpt><trkpt lat="37.4107517" lon="14.9041083"><ele>27.0</ele><time>2026-03-29T09:02:59.343Z</time></trkpt><trkpt lat="37.41084" lon="14.9043817"><ele>27.0</ele><time>2026-03-29T09:03:00.343Z</time></trkpt><trkpt lat="37.410925" lon="14.9046533"><ele>27.0</ele><time>2026-03-29T09:03:01.342Z</time></trkpt><trkpt lat="37.41101" lon="14.904935"><ele>28.0</ele><time>2026-03-29T09:03:02.342Z</time></trkpt><trkpt lat="37.4110967" lon="14.905205"><ele>29.0</ele><time>2026-03-29T09:03:03.343Z</time></trkpt><trkpt lat="37.4111867" lon="14.9054583"><ele>29.0</ele><time>2026-03-29T09:03:04.342Z</time></trkpt><trkpt lat="37.4112867" lon="14.905695"><ele>29.0</ele><time>2026-03-29T09:03:05.343Z</time></trkpt><trkpt lat="37.411395" lon="14.9059117"><ele>29.0</ele><time>2026-03-29T09:03:06.343Z</time></trkpt><trkpt lat="37.41151" lon="14.9061133"><ele>28.333333333333332</ele><time>2026-03-29T09:03:07.342Z</time></trkpt><trkpt lat="37.41164" lon="14.90631"><ele>27.666666666666664</ele><time>2026-03-29T09:03:08.342Z</time></trkpt><trkpt lat="37.4117783" lon="14.9065"><ele>27.0</ele><time>2026-03-29T09:03:09.342Z</time></trkpt><trkpt lat="37.4119283" lon="14.9066767"><ele>27.0</ele><time>2026-03-29T09:03:10.343Z</time></trkpt><trkpt lat="37.4120983" lon="14.906845"><ele>27.0</ele><time>2026-03-29T09:03:11.343Z</time></trkpt><trkpt lat="37.4122817" lon="14.9069933"><ele>27.0</ele><time>2026-03-29T09:03:12.343Z</time></trkpt><trkpt lat="37.412475" lon="14.9071267"><ele>27.0</ele><time>2026-03-29T09:03:13.342Z</time></trkpt><trkpt lat="37.41267" lon="14.9072133"><ele>27.0</ele><time>2026-03-29T09:03:14.343Z</time></trkpt><trkpt lat="37.4128633" lon="14.90727"><ele>27.0</ele><time>2026-03-29T09:03:15.342Z</time></trkpt><trkpt lat="37.4130667" lon="14.9073217"><ele>26.666666666666664</ele><time>2026-03-29T09:03:16.342Z</time></trkpt><trkpt lat="37.41327" lon="14.90738"><ele>26.333333333333332</ele><time>2026-03-29T09:03:17.342Z</time></trkpt><trkpt lat="37.4134767" lon="14.90745"><ele>26.0</ele><time>2026-03-29T09:03:18.342Z</time></trkpt><trkpt lat="37.4136867" lon="14.9075167"><ele>26.666666666666664</ele><time>2026-03-29T09:03:19.342Z</time></trkpt><trkpt lat="37.4138933" lon="14.9075817"><ele>27.333333333333336</ele><time>2026-03-29T09:03:20.343Z</time></trkpt><trkpt lat="37.41409" lon="14.9076417"><ele>28.0</ele><time>2026-03-29T09:03:21.343Z</time></trkpt><trkpt lat="37.4142867" lon="14.9077017"><ele>28.0</ele><time>2026-03-29T09:03:22.342Z</time></trkpt><trkpt lat="37.41446" lon="14.9077517"><ele>28.0</ele><time>2026-03-29T09:03:23.342Z</time></trkpt><trkpt lat="37.4146317" lon="14.9078083"><ele>28.0</ele><time>2026-03-29T09:03:24.342Z</time></trkpt><trkpt lat="37.4147933" lon="14.9078567"><ele>28.0</ele><time>2026-03-29T09:03:25.343Z</time></trkpt><trkpt lat="37.4149533" lon="14.9079233"><ele>28.0</ele><time>2026-03-29T09:03:26.342Z</time></trkpt><trkpt lat="37.415115" lon="14.908005"><ele>28.0</ele><time>2026-03-29T09:03:27.342Z</time></trkpt><trkpt lat="37.415285" lon="14.9080933"><ele>28.0</ele><time>2026-03-29T09:03:28.343Z</time></trkpt><trkpt lat="37.4154417" lon="14.908165"><ele>28.0</ele><time>2026-03-29T09:03:29.342Z</time></trkpt><trkpt lat="37.4156067" lon="14.9082733"><ele>28.0</ele><time>2026-03-29T09:03:30.342Z</time></trkpt><trkpt lat="37.4157767" lon="14.9083667"><ele>28.0</ele><time>2026-03-29T09:03:31.342Z</time></trkpt><trkpt lat="37.4159333" lon="14.9084517"><ele>28.0</ele><time>2026-03-29T09:03:32.342Z</time></trkpt><trkpt lat="37.4160833" lon="14.9085483"><ele>28.0</ele><time>2026-03-29T09:03:33.343Z</time></trkpt><trkpt lat="37.4162283" lon="14.90864"><ele>27.333333333333336</ele><time>2026-03-29T09:03:34.342Z</time></trkpt><trkpt lat="37.4163683" lon="14.9087517"><ele>26.666666666666664</ele><time>2026-03-29T09:03:35.343Z</time></trkpt><trkpt lat="37.4164983" lon="14.90887"><ele>26.0</ele><time>2026-03-29T09:03:36.342Z</time></trkpt><trkpt lat="37.4166317" lon="14.909"><ele>26.0</ele><time>2026-03-29T09:03:37.342Z</time></trkpt><trkpt lat="37.4167667" lon="14.9091333"><ele>26.0</ele><time>2026-03-29T09:03:38.342Z</time></trkpt><trkpt lat="37.4169033" lon="14.9092783"><ele>26.0</ele><time>2026-03-29T09:03:39.343Z</time></trkpt><trkpt lat="37.4170283" lon="14.9094267"><ele>25.666666666666664</ele><time>2026-03-29T09:03:40.343Z</time></trkpt><trkpt lat="37.417155" lon="14.9095717"><ele>25.333333333333336</ele><time>2026-03-29T09:03:41.342Z</time></trkpt><trkpt lat="37.4172733" lon="14.90972"><ele>25.0</ele><time>2026-03-29T09:03:42.343Z</time></trkpt><trkpt lat="37.4173933" lon="14.909875"><ele>25.0</ele><time>2026-03-29T09:03:43.342Z</time></trkpt><trkpt lat="37.41751" lon="14.9100267"><ele>25.0</ele><time>2026-03-29T09:03:44.342Z</time></trkpt><trkpt lat="37.4176183" lon="14.9101933"><ele>25.0</ele><time>2026-03-29T09:03:45.343Z</time></trkpt><trkpt lat="37.4177267" lon="14.910375"><ele>25.0</ele><time>2026-03-29T09:03:46.342Z</time></trkpt><trkpt lat="37.417835" lon="14.91055"><ele>25.0</ele><time>2026-03-29T09:03:47.342Z</time></trkpt><trkpt lat="37.417945" lon="14.9107283"><ele>25.0</ele><time>2026-03-29T09:03:48.343Z</time></trkpt><trkpt lat="37.4180417" lon="14.9109167"><ele>25.333333333333336</ele><time>2026-03-29T09:03:49.342Z</time></trkpt><trkpt lat="37.4181433" lon="14.9111117"><ele>25.666666666666664</ele><time>2026-03-29T09:03:50.342Z</time></trkpt><trkpt lat="37.41825" lon="14.9113283"><ele>26.0</ele><time>2026-03-29T09:03:51.343Z</time></trkpt><trkpt lat="37.4183567" lon="14.9115417"><ele>25.666666666666664</ele><time>2026-03-29T09:03:52.343Z</time></trkpt><trkpt lat="37.4184683" lon="14.9117533"><ele>25.333333333333336</ele><time>2026-03-29T09:03:53.342Z</time></trkpt><trkpt lat="37.41858" lon="14.9119783"><ele>25.0</ele><time>2026-03-29T09:03:54.343Z</time></trkpt><trkpt lat="37.4187" lon="14.9121967"><ele>25.0</ele><time>2026-03-29T09:03:55.342Z</time></trkpt><trkpt lat="37.4188133" lon="14.9124217"><ele>25.0</ele><time>2026-03-29T09:03:56.342Z</time></trkpt><trkpt lat="37.4189267" lon="14.9126417"><ele>25.0</ele><time>2026-03-29T09:03:57.342Z</time></trkpt><trkpt lat="37.419045" lon="14.9128683"><ele>25.0</ele><time>2026-03-29T09:03:58.342Z</time></trkpt><trkpt lat="37.4191583" lon="14.91309"><ele>25.0</ele><time>2026-03-29T09:03:59.343Z</time></trkpt><trkpt lat="37.4192733" lon="14.913305"><ele>25.0</ele><time>2026-03-29T09:04:00.343Z</time></trkpt><trkpt lat="37.419385" lon="14.91352"><ele>25.0</ele><time>2026-03-29T09:04:01.343Z</time></trkpt><trkpt lat="37.419495" lon="14.9137417"><ele>25.0</ele><time>2026-03-29T09:04:02.342Z</time></trkpt><trkpt lat="37.4196033" lon="14.913965"><ele>25.0</ele><time>2026-03-29T09:04:03.343Z</time></trkpt><trkpt lat="37.4197083" lon="14.9141817"><ele>25.0</ele><time>2026-03-29T09:04:04.342Z</time></trkpt><trkpt lat="37.4198217" lon="14.914405"><ele>25.0</ele><time>2026-03-29T09:04:05.342Z</time></trkpt><trkpt lat="37.4199433" lon="14.9146433"><ele>25.0</ele><time>2026-03-29T09:04:06.343Z</time></trkpt><trkpt lat="37.42007" lon="14.914885"><ele>25.5</ele><time>2026-03-29T09:04:07.343Z</time></trkpt><trkpt lat="37.4201967" lon="14.915125"><ele>26.0</ele><time>2026-03-29T09:04:08.343Z</time></trkpt><trkpt lat="37.4203233" lon="14.9153617"><ele>26.0</ele><time>2026-03-29T09:04:09.342Z</time></trkpt><trkpt lat="37.42045" lon="14.9156017"><ele>26.0</ele><time>2026-03-29T09:04:10.343Z</time></trkpt><trkpt lat="37.4205717" lon="14.9158383"><ele>25.0</ele><time>2026-03-29T09:04:11.343Z</time></trkpt><trkpt lat="37.4206883" lon="14.9160767"><ele>24.0</ele><time>2026-03-29T09:04:12.342Z</time></trkpt><trkpt lat="37.4208167" lon="14.9163183"><ele>24.0</ele><time>2026-03-29T09:04:13.343Z</time></trkpt><trkpt lat="37.4209417" lon="14.9165617"><ele>24.0</ele><time>2026-03-29T09:04:14.342Z</time></trkpt><trkpt lat="37.421065" lon="14.916805"><ele>24.0</ele><time>2026-03-29T09:04:15.342Z</time></trkpt><trkpt lat="37.421185" lon="14.91704"><ele>24.0</ele><time>2026-03-29T09:04:16.342Z</time></trkpt><trkpt lat="37.421305" lon="14.9172767"><ele>24.0</ele><time>2026-03-29T09:04:17.343Z</time></trkpt><trkpt lat="37.4214217" lon="14.91752"><ele>24.0</ele><time>2026-03-29T09:04:18.342Z</time></trkpt><trkpt lat="37.4215433" lon="14.9177583"><ele>24.0</ele><time>2026-03-29T09:04:19.343Z</time></trkpt><trkpt lat="37.4216633" lon="14.918"><ele>24.0</ele><time>2026-03-29T09:04:20.342Z</time></trkpt><trkpt lat="37.4217883" lon="14.9182433"><ele>24.0</ele><time>2026-03-29T09:04:21.343Z</time></trkpt><trkpt lat="37.421915" lon="14.91848"><ele>24.0</ele><time>2026-03-29T09:04:22.342Z</time></trkpt><trkpt lat="37.4220383" lon="14.9187183"><ele>24.0</ele><time>2026-03-29T09:04:23.342Z</time></trkpt><trkpt lat="37.4221667" lon="14.9189617"><ele>24.0</ele><time>2026-03-29T09:04:24.343Z</time></trkpt><trkpt lat="37.42229" lon="14.9192"><ele>24.0</ele><time>2026-03-29T09:04:25.343Z</time></trkpt><trkpt lat="37.42241" lon="14.91944"><ele>24.0</ele><time>2026-03-29T09:04:26.342Z</time></trkpt><trkpt lat="37.4225333" lon="14.9196867"><ele>24.0</ele><time>2026-03-29T09:04:27.342Z</time></trkpt><trkpt lat="37.4226567" lon="14.919935"><ele>24.5</ele><time>2026-03-29T09:04:28.342Z</time></trkpt><trkpt lat="37.4227817" lon="14.9201817"><ele>25.0</ele><time>2026-03-29T09:04:29.343Z</time></trkpt><trkpt lat="37.4229133" lon="14.920415"><ele>25.0</ele><time>2026-03-29T09:04:30.343Z</time></trkpt><trkpt lat="37.423045" lon="14.9206617"><ele>25.0</ele><time>2026-03-29T09:04:31.342Z</time></trkpt><trkpt lat="37.423175" lon="14.920925"><ele>24.0</ele><time>2026-03-29T09:04:32.342Z</time></trkpt><trkpt lat="37.4233" lon="14.921175"><ele>23.0</ele><time>2026-03-29T09:04:33.342Z</time></trkpt><trkpt lat="37.423425" lon="14.9214317"><ele>23.0</ele><time>2026-03-29T09:04:34.342Z</time></trkpt><trkpt lat="37.4235567" lon="14.921685"><ele>23.0</ele><time>2026-03-29T09:04:35.342Z</time></trkpt><trkpt lat="37.4236867" lon="14.921945"><ele>24.5</ele><time>2026-03-29T09:04:36.343Z</time></trkpt><trkpt lat="37.423815" lon="14.9222"><ele>26.0</ele><time>2026-03-29T09:04:37.343Z</time></trkpt><trkpt lat="37.423945" lon="14.9224567"><ele>24.0</ele><time>2026-03-29T09:04:38.343Z</time></trkpt><trkpt lat="37.4240767" lon="14.922715"><ele>22.0</ele><time>2026-03-29T09:04:39.342Z</time></trkpt><trkpt lat="37.4242167" lon="14.9229817"><ele>22.0</ele><time>2026-03-29T09:04:40.342Z</time></trkpt><trkpt lat="37.424345" lon="14.92324"><ele>22.0</ele><time>2026-03-29T09:04:41.342Z</time></trkpt><trkpt lat="37.42461" lon="14.923765"><ele>23.0</ele><time>2026-03-29T09:04:43.342Z</time></trkpt><trkpt lat="37.42474" lon="14.9240217"><ele>24.0</ele><time>2026-03-29T09:04:44.343Z</time></trkpt><trkpt lat="37.4248667" lon="14.92428"><ele>24.0</ele><time>2026-03-29T09:04:45.343Z</time></trkpt><trkpt lat="37.4250017" lon="14.9245367"><ele>24.0</ele><time>2026-03-29T09:04:46.342Z</time></trkpt><trkpt lat="37.4251333" lon="14.92479"><ele>24.0</ele><time>2026-03-29T09:04:47.342Z</time></trkpt><trkpt lat="37.4252667" lon="14.9250433"><ele>24.0</ele><time>2026-03-29T09:04:48.343Z</time></trkpt><trkpt lat="37.425405" lon="14.92529"><ele>23.5</ele><time>2026-03-29T09:04:49.343Z</time></trkpt><trkpt lat="37.4255383" lon="14.9255433"><ele>23.0</ele><time>2026-03-29T09:04:50.342Z</time></trkpt><trkpt lat="37.4256717" lon="14.9257967"><ele>23.0</ele><time>2026-03-29T09:04:51.343Z</time></trkpt><trkpt lat="37.4258067" lon="14.9260533"><ele>23.0</ele><time>2026-03-29T09:04:52.342Z</time></trkpt><trkpt lat="37.4259333" lon="14.9263083"><ele>23.0</ele><time>2026-03-29T09:04:53.343Z</time></trkpt><trkpt lat="37.426063" lon="14.9265681"><ele>23.0</ele><time>2026-03-29T09:04:54.343Z</time></trkpt><trkpt lat="37.4261918" lon="14.926825"><ele>24.5</ele><time>2026-03-29T09:04:55.342Z</time></trkpt><trkpt lat="37.4263202" lon="14.9270826"><ele>26.0</ele><time>2026-03-29T09:04:56.342Z</time></trkpt><trkpt lat="37.426453" lon="14.9273354"><ele>24.5</ele><time>2026-03-29T09:04:57.342Z</time></trkpt><trkpt lat="37.4265849" lon="14.9275897"><ele>23.0</ele><time>2026-03-29T09:04:58.342Z</time></trkpt><trkpt lat="37.4267169" lon="14.9278463"><ele>23.0</ele><time>2026-03-29T09:04:59.343Z</time></trkpt><trkpt lat="37.4268473" lon="14.9280993"><ele>23.0</ele><time>2026-03-29T09:05:00.342Z</time></trkpt><trkpt lat="37.4269762" lon="14.9283514"><ele>23.5</ele><time>2026-03-29T09:05:01.342Z</time></trkpt><trkpt lat="37.4271023" lon="14.9286101"><ele>24.0</ele><time>2026-03-29T09:05:02.342Z</time></trkpt><trkpt lat="37.4272301" lon="14.9288728"><ele>24.0</ele><time>2026-03-29T09:05:03.342Z</time></trkpt><trkpt lat="37.4273526" lon="14.9291403"><ele>24.0</ele><time>2026-03-29T09:05:04.342Z</time></trkpt><trkpt lat="37.4274725" lon="14.929405"><ele>23.5</ele><time>2026-03-29T09:05:05.343Z</time></trkpt><trkpt lat="37.4275853" lon="14.9296753"><ele>23.0</ele><time>2026-03-29T09:05:06.343Z</time></trkpt><trkpt lat="37.4276918" lon="14.9299525"><ele>22.5</ele><time>2026-03-29T09:05:07.342Z</time></trkpt><trkpt lat="37.4277925" lon="14.9302339"><ele>22.0</ele><time>2026-03-29T09:05:08.342Z</time></trkpt><trkpt lat="37.427881" lon="14.9305218"><ele>22.0</ele><time>2026-03-29T09:05:09.342Z</time></trkpt><trkpt lat="37.4279614" lon="14.9308099"><ele>22.0</ele><time>2026-03-29T09:05:10.343Z</time></trkpt><trkpt lat="37.4280353" lon="14.9310963"><ele>22.5</ele><time>2026-03-29T09:05:11.342Z</time></trkpt><trkpt lat="37.428102" lon="14.9313848"><ele>23.0</ele><time>2026-03-29T09:05:12.343Z</time></trkpt><trkpt lat="37.428166" lon="14.9316674"><ele>22.5</ele><time>2026-03-29T09:05:13.342Z</time></trkpt><trkpt lat="37.4282338" lon="14.9319491"><ele>22.0</ele><time>2026-03-29T09:05:14.342Z</time></trkpt><trkpt lat="37.4282996" lon="14.932232"><ele>22.0</ele><time>2026-03-29T09:05:15.343Z</time></trkpt><trkpt lat="37.4283591" lon="14.9325129"><ele>22.0</ele><time>2026-03-29T09:05:16.343Z</time></trkpt><trkpt lat="37.4284187" lon="14.9327931"><ele>23.0</ele><time>2026-03-29T09:05:17.342Z</time></trkpt><trkpt lat="37.4284797" lon="14.9330706"><ele>24.0</ele><time>2026-03-29T09:05:18.343Z</time></trkpt><trkpt lat="37.42854" lon="14.9333483"><ele>23.5</ele><time>2026-03-29T09:05:19.343Z</time></trkpt><trkpt lat="37.4286011" lon="14.9336223"><ele>23.0</ele><time>2026-03-29T09:05:20.342Z</time></trkpt><trkpt lat="37.4286643" lon="14.9338947"><ele>23.0</ele><time>2026-03-29T09:05:21.343Z</time></trkpt><trkpt lat="37.4287264" lon="14.9341622"><ele>23.0</ele><time>2026-03-29T09:05:22.342Z</time></trkpt><trkpt lat="37.4287854" lon="14.9344198"><ele>23.0</ele><time>2026-03-29T09:05:23.343Z</time></trkpt><trkpt lat="37.4288373" lon="14.9346582"><ele>23.0</ele><time>2026-03-29T09:05:24.343Z</time></trkpt><trkpt lat="37.4288891" lon="14.9348758"><ele>23.0</ele><time>2026-03-29T09:05:25.343Z</time></trkpt><trkpt lat="37.4289357" lon="14.9350628"><ele>23.0</ele><time>2026-03-29T09:05:26.342Z</time></trkpt><trkpt lat="37.4289647" lon="14.9352231"><ele>22.799999999999997</ele><time>2026-03-29T09:05:27.342Z</time></trkpt><trkpt lat="37.4289715" lon="14.9353638"><ele>22.6</ele><time>2026-03-29T09:05:28.342Z</time></trkpt><trkpt lat="37.4289502" lon="14.9354892"><ele>22.4</ele><time>2026-03-29T09:05:29.343Z</time></trkpt><trkpt lat="37.4289199" lon="14.9356115"><ele>22.200000000000003</ele><time>2026-03-29T09:05:30.343Z</time></trkpt><trkpt lat="37.4289003" lon="14.935733"><ele>22.0</ele><time>2026-03-29T09:05:31.343Z</time></trkpt><trkpt lat="37.4289052" lon="14.9358503"><ele>22.0</ele><time>2026-03-29T09:05:32.342Z</time></trkpt><trkpt lat="37.4289443" lon="14.935944"><ele>22.0</ele><time>2026-03-29T09:05:33.343Z</time></trkpt><trkpt lat="37.4290129" lon="14.9360049"><ele>22.0</ele><time>2026-03-29T09:05:34.342Z</time></trkpt><trkpt lat="37.4290971" lon="14.9360325"><ele>22.0</ele><time>2026-03-29T09:05:35.342Z</time></trkpt><trkpt lat="37.4291823" lon="14.9360199"><ele>22.0</ele><time>2026-03-29T09:05:36.343Z</time></trkpt><trkpt lat="37.4292638" lon="14.9359693"><ele>22.0</ele><time>2026-03-29T09:05:37.343Z</time></trkpt><trkpt lat="37.4293215" lon="14.9358844"><ele>22.0</ele><time>2026-03-29T09:05:38.342Z</time></trkpt><trkpt lat="37.429367" lon="14.9357778"><ele>22.0</ele><time>2026-03-29T09:05:39.343Z</time></trkpt><trkpt lat="37.429426" lon="14.9356837"><ele>22.0</ele><time>2026-03-29T09:05:40.342Z</time></trkpt><trkpt lat="37.4295045" lon="14.9356072"><ele>22.0</ele><time>2026-03-29T09:05:41.343Z</time></trkpt><trkpt lat="37.4295908" lon="14.9355322"><ele>22.0</ele><time>2026-03-29T09:05:42.342Z</time></trkpt><trkpt lat="37.4296714" lon="14.9354362"><ele>22.0</ele><time>2026-03-29T09:05:43.342Z</time></trkpt><trkpt lat="37.429742" lon="14.9353094"><ele>22.0</ele><time>2026-03-29T09:05:44.343Z</time></trkpt><trkpt lat="37.4298053" lon="14.9351587"><ele>22.0</ele><time>2026-03-29T09:05:45.342Z</time></trkpt><trkpt lat="37.4298598" lon="14.934991"><ele>22.0</ele><time>2026-03-29T09:05:46.342Z</time></trkpt><trkpt lat="37.4299177" lon="14.9348131"><ele>22.0</ele><time>2026-03-29T09:05:47.342Z</time></trkpt><trkpt lat="37.4299812" lon="14.9346258"><ele>22.0</ele><time>2026-03-29T09:05:48.343Z</time></trkpt><trkpt lat="37.4300502" lon="14.9344376"><ele>22.0</ele><time>2026-03-29T09:05:49.343Z</time></trkpt><trkpt lat="37.4301242" lon="14.9342447"><ele>22.333333333333332</ele><time>2026-03-29T09:05:50.342Z</time></trkpt><trkpt lat="37.4302021" lon="14.9340549"><ele>22.666666666666668</ele><time>2026-03-29T09:05:51.343Z</time></trkpt><trkpt lat="37.4302835" lon="14.9338516"><ele>23.0</ele><time>2026-03-29T09:05:52.342Z</time></trkpt><trkpt lat="37.4303658" lon="14.9336372"><ele>23.0</ele><time>2026-03-29T09:05:53.342Z</time></trkpt><trkpt lat="37.4304469" lon="14.9334193"><ele>23.0</ele><time>2026-03-29T09:05:54.342Z</time></trkpt><trkpt lat="37.4305298" lon="14.9331995"><ele>23.0</ele><time>2026-03-29T09:05:55.342Z</time></trkpt><trkpt lat="37.4306166" lon="14.9329752"><ele>23.0</ele><time>2026-03-29T09:05:56.343Z</time></trkpt><trkpt lat="37.4307035" lon="14.9327497"><ele>23.0</ele><time>2026-03-29T09:05:57.342Z</time></trkpt><trkpt lat="37.4307906" lon="14.9325203"><ele>23.0</ele><time>2026-03-29T09:05:58.342Z</time></trkpt><trkpt lat="37.4308745" lon="14.9322938"><ele>22.666666666666668</ele><time>2026-03-29T09:05:59.342Z</time></trkpt><trkpt lat="37.4309569" lon="14.9320697"><ele>22.333333333333332</ele><time>2026-03-29T09:06:00.342Z</time></trkpt><trkpt lat="37.4310383" lon="14.9318483"><ele>22.0</ele><time>2026-03-29T09:06:01.343Z</time></trkpt><trkpt lat="37.4311267" lon="14.9316233"><ele>22.0</ele><time>2026-03-29T09:06:02.342Z</time></trkpt><trkpt lat="37.4312067" lon="14.931395"><ele>22.0</ele><time>2026-03-29T09:06:03.342Z</time></trkpt><trkpt lat="37.43129" lon="14.9311717"><ele>22.0</ele><time>2026-03-29T09:06:04.343Z</time></trkpt><trkpt lat="37.4313733" lon="14.93095"><ele>23.333333333333332</ele><time>2026-03-29T09:06:05.342Z</time></trkpt><trkpt lat="37.43146" lon="14.9307233"><ele>24.666666666666664</ele><time>2026-03-29T09:06:06.343Z</time></trkpt><trkpt lat="37.43154" lon="14.9305033"><ele>26.0</ele><time>2026-03-29T09:06:07.342Z</time></trkpt><trkpt lat="37.4316133" lon="14.9302833"><ele>26.0</ele><time>2026-03-29T09:06:08.342Z</time></trkpt><trkpt lat="37.431695" lon="14.9300667"><ele>26.0</ele><time>2026-03-29T09:06:09.343Z</time></trkpt><trkpt lat="37.4317767" lon="14.9298517"><ele>26.0</ele><time>2026-03-29T09:06:10.342Z</time></trkpt><trkpt lat="37.4318567" lon="14.92963"><ele>25.333333333333332</ele><time>2026-03-29T09:06:11.342Z</time></trkpt><trkpt lat="37.4319317" lon="14.92942"><ele>24.666666666666664</ele><time>2026-03-29T09:06:12.343Z</time></trkpt><trkpt lat="37.4319933" lon="14.9291983"><ele>24.0</ele><time>2026-03-29T09:06:13.342Z</time></trkpt><trkpt lat="37.4320267" lon="14.9289817"><ele>23.666666666666668</ele><time>2026-03-29T09:06:14.343Z</time></trkpt><trkpt lat="37.4320333" lon="14.9287467"><ele>23.333333333333336</ele><time>2026-03-29T09:06:15.342Z</time></trkpt><trkpt lat="37.4320133" lon="14.9284967"><ele>23.0</ele><time>2026-03-29T09:06:16.342Z</time></trkpt><trkpt lat="37.4319833" lon="14.9282483"><ele>23.0</ele><time>2026-03-29T09:06:17.343Z</time></trkpt><trkpt lat="37.4319567" lon="14.9279967"><ele>23.0</ele><time>2026-03-29T09:06:18.342Z</time></trkpt><trkpt lat="37.43193" lon="14.9277433"><ele>23.0</ele><time>2026-03-29T09:06:19.342Z</time></trkpt><trkpt lat="37.4319117" lon="14.92748"><ele>23.333333333333336</ele><time>2026-03-29T09:06:20.343Z</time></trkpt><trkpt lat="37.4318883" lon="14.9272217"><ele>23.666666666666668</ele><time>2026-03-29T09:06:21.343Z</time></trkpt><trkpt lat="37.4318667" lon="14.926955"><ele>24.0</ele><time>2026-03-29T09:06:22.343Z</time></trkpt><trkpt lat="37.4318517" lon="14.9267017"><ele>24.0</ele><time>2026-03-29T09:06:23.342Z</time></trkpt><trkpt lat="37.4318417" lon="14.92644"><ele>24.0</ele><time>2026-03-29T09:06:24.343Z</time></trkpt><trkpt lat="37.4318267" lon="14.9261833"><ele>24.0</ele><time>2026-03-29T09:06:25.343Z</time></trkpt><trkpt lat="37.4318183" lon="14.925925"><ele>24.0</ele><time>2026-03-29T09:06:26.342Z</time></trkpt><trkpt lat="37.431805" lon="14.9256733"><ele>24.0</ele><time>2026-03-29T09:06:27.343Z</time></trkpt><trkpt lat="37.4317967" lon="14.925415"><ele>24.0</ele><time>2026-03-29T09:06:28.342Z</time></trkpt><trkpt lat="37.4317817" lon="14.925155"><ele>24.333333333333336</ele><time>2026-03-29T09:06:29.342Z</time></trkpt><trkpt lat="37.4317733" lon="14.9249017"><ele>24.666666666666668</ele><time>2026-03-29T09:06:30.342Z</time></trkpt><trkpt lat="37.4317717" lon="14.9246433"><ele>25.0</ele><time>2026-03-29T09:06:31.343Z</time></trkpt><trkpt lat="37.4317617" lon="14.9243867"><ele>24.666666666666668</ele><time>2026-03-29T09:06:32.343Z</time></trkpt><trkpt lat="37.4317583" lon="14.9241217"><ele>24.333333333333336</ele><time>2026-03-29T09:06:33.343Z</time></trkpt><trkpt lat="37.43175" lon="14.92387"><ele>24.0</ele><time>2026-03-29T09:06:34.343Z</time></trkpt><trkpt lat="37.4317433" lon="14.9236167"><ele>24.0</ele><time>2026-03-29T09:06:35.343Z</time></trkpt><trkpt lat="37.4317417" lon="14.92337"><ele>24.0</ele><time>2026-03-29T09:06:36.342Z</time></trkpt><trkpt lat="37.4317433" lon="14.9231333"><ele>24.0</ele><time>2026-03-29T09:06:37.343Z</time></trkpt><trkpt lat="37.43174" lon="14.9229083"><ele>24.0</ele><time>2026-03-29T09:06:38.343Z</time></trkpt><trkpt lat="37.4317367" lon="14.9226817"><ele>24.0</ele><time>2026-03-29T09:06:39.343Z</time></trkpt><trkpt lat="37.4317383" lon="14.9224467"><ele>24.0</ele><time>2026-03-29T09:06:40.343Z</time></trkpt><trkpt lat="37.43175" lon="14.922215"><ele>24.0</ele><time>2026-03-29T09:06:41.342Z</time></trkpt><trkpt lat="37.43176" lon="14.9219683"><ele>24.0</ele><time>2026-03-29T09:06:42.342Z</time></trkpt><trkpt lat="37.4317683" lon="14.9217183"><ele>24.0</ele><time>2026-03-29T09:06:43.342Z</time></trkpt><trkpt lat="37.431775" lon="14.92147"><ele>24.0</ele><time>2026-03-29T09:06:44.342Z</time></trkpt><trkpt lat="37.4317833" lon="14.9212167"><ele>24.0</ele><time>2026-03-29T09:06:45.342Z</time></trkpt><trkpt lat="37.4317967" lon="14.9209533"><ele>24.0</ele><time>2026-03-29T09:06:46.343Z</time></trkpt><trkpt lat="37.4318" lon="14.9206967"><ele>24.333333333333336</ele><time>2026-03-29T09:06:47.343Z</time></trkpt><trkpt lat="37.4318117" lon="14.920435"><ele>24.666666666666668</ele><time>2026-03-29T09:06:48.343Z</time></trkpt><trkpt lat="37.4318217" lon="14.9201667"><ele>25.0</ele><time>2026-03-29T09:06:49.343Z</time></trkpt><trkpt lat="37.4318367" lon="14.9199017"><ele>25.0</ele><time>2026-03-29T09:06:50.342Z</time></trkpt><trkpt lat="37.4318633" lon="14.9196433"><ele>25.0</ele><time>2026-03-29T09:06:51.342Z</time></trkpt><trkpt lat="37.43189" lon="14.9193833"><ele>25.0</ele><time>2026-03-29T09:06:52.343Z</time></trkpt><trkpt lat="37.43192" lon="14.9191433"><ele>25.0</ele><time>2026-03-29T09:06:53.343Z</time></trkpt><trkpt lat="37.4319583" lon="14.9188967"><ele>25.0</ele><time>2026-03-29T09:06:54.343Z</time></trkpt><trkpt lat="37.4319983" lon="14.9186517"><ele>25.0</ele><time>2026-03-29T09:06:55.343Z</time></trkpt><trkpt lat="37.432045" lon="14.9184133"><ele>25.0</ele><time>2026-03-29T09:06:56.342Z</time></trkpt><trkpt lat="37.432095" lon="14.91817"><ele>25.0</ele><time>2026-03-29T09:06:57.342Z</time></trkpt><trkpt lat="37.4321383" lon="14.9179317"><ele>25.0</ele><time>2026-03-29T09:06:58.342Z</time></trkpt><trkpt lat="37.4321783" lon="14.9177033"><ele>25.333333333333336</ele><time>2026-03-29T09:06:59.342Z</time></trkpt><trkpt lat="37.4322167" lon="14.9174667"><ele>25.666666666666664</ele><time>2026-03-29T09:07:00.342Z</time></trkpt><trkpt lat="37.4322583" lon="14.9172383"><ele>26.0</ele><time>2026-03-29T09:07:01.342Z</time></trkpt><trkpt lat="37.432295" lon="14.9170217"><ele>26.0</ele><time>2026-03-29T09:07:02.342Z</time></trkpt><trkpt lat="37.432335" lon="14.9168167"><ele>26.0</ele><time>2026-03-29T09:07:03.342Z</time></trkpt><trkpt lat="37.43239" lon="14.9166233"><ele>26.0</ele><time>2026-03-29T09:07:04.342Z</time></trkpt><trkpt lat="37.4324667" lon="14.9164383"><ele>25.75</ele><time>2026-03-29T09:07:05.343Z</time></trkpt><trkpt lat="37.432555" lon="14.91628"><ele>25.5</ele><time>2026-03-29T09:07:06.343Z</time></trkpt><trkpt lat="37.432665" lon="14.9161483"><ele>25.25</ele><time>2026-03-29T09:07:07.342Z</time></trkpt><trkpt lat="37.4327767" lon="14.9160517"><ele>25.0</ele><time>2026-03-29T09:07:08.343Z</time></trkpt><trkpt lat="37.4328867" lon="14.91598"><ele>25.166666666666668</ele><time>2026-03-29T09:07:09.343Z</time></trkpt><trkpt lat="37.4329833" lon="14.915945"><ele>25.333333333333336</ele><time>2026-03-29T09:07:10.342Z</time></trkpt><trkpt lat="37.4330633" lon="14.9159483"><ele>25.5</ele><time>2026-03-29T09:07:11.342Z</time></trkpt><trkpt lat="37.433135" lon="14.9159767"><ele>25.666666666666664</ele><time>2026-03-29T09:07:12.342Z</time></trkpt><trkpt lat="37.4332" lon="14.916035"><ele>25.833333333333332</ele><time>2026-03-29T09:07:13.342Z</time></trkpt><trkpt lat="37.433265" lon="14.9161233"><ele>26.0</ele><time>2026-03-29T09:07:14.342Z</time></trkpt><trkpt lat="37.433345" lon="14.9162283"><ele>26.0</ele><time>2026-03-29T09:07:15.343Z</time></trkpt><trkpt lat="37.433465" lon="14.9163283"><ele>26.0</ele><time>2026-03-29T09:07:16.343Z</time></trkpt><trkpt lat="37.4335967" lon="14.9164133"><ele>26.0</ele><time>2026-03-29T09:07:17.342Z</time></trkpt><trkpt lat="37.4337333" lon="14.91648"><ele>26.0</ele><time>2026-03-29T09:07:18.342Z</time></trkpt><trkpt lat="37.4338717" lon="14.9165383"><ele>26.0</ele><time>2026-03-29T09:07:19.343Z</time></trkpt><trkpt lat="37.4340317" lon="14.9166083"><ele>26.0</ele><time>2026-03-29T09:07:20.343Z</time></trkpt><trkpt lat="37.4341933" lon="14.9166817"><ele>26.0</ele><time>2026-03-29T09:07:21.342Z</time></trkpt><trkpt lat="37.4343617" lon="14.91676"><ele>26.0</ele><time>2026-03-29T09:07:22.343Z</time></trkpt><trkpt lat="37.4345333" lon="14.9168383"><ele>26.0</ele><time>2026-03-29T09:07:23.343Z</time></trkpt><trkpt lat="37.4347117" lon="14.9169167"><ele>26.0</ele><time>2026-03-29T09:07:24.342Z</time></trkpt><trkpt lat="37.4348883" lon="14.9169967"><ele>26.0</ele><time>2026-03-29T09:07:25.343Z</time></trkpt><trkpt lat="37.4350683" lon="14.917075"><ele>26.0</ele><time>2026-03-29T09:07:26.342Z</time></trkpt><trkpt lat="37.43525" lon="14.9171617"><ele>26.0</ele><time>2026-03-29T09:07:27.343Z</time></trkpt><trkpt lat="37.4354367" lon="14.91725"><ele>26.0</ele><time>2026-03-29T09:07:28.342Z</time></trkpt><trkpt lat="37.43562" lon="14.917335"><ele>26.0</ele><time>2026-03-29T09:07:29.343Z</time></trkpt><trkpt lat="37.4358083" lon="14.9174083"><ele>26.0</ele><time>2026-03-29T09:07:30.342Z</time></trkpt><trkpt lat="37.436" lon="14.917495"><ele>25.666666666666664</ele><time>2026-03-29T09:07:31.343Z</time></trkpt><trkpt lat="37.4361933" lon="14.9175833"><ele>25.333333333333336</ele><time>2026-03-29T09:07:32.342Z</time></trkpt><trkpt lat="37.436385" lon="14.9176733"><ele>25.0</ele><time>2026-03-29T09:07:33.342Z</time></trkpt><trkpt lat="37.4365817" lon="14.91776"><ele>25.0</ele><time>2026-03-29T09:07:34.343Z</time></trkpt><trkpt lat="37.4367733" lon="14.9178433"><ele>25.0</ele><time>2026-03-29T09:07:35.342Z</time></trkpt><trkpt lat="37.4369633" lon="14.9179333"><ele>25.0</ele><time>2026-03-29T09:07:36.342Z</time></trkpt><trkpt lat="37.4371583" lon="14.91802"><ele>25.0</ele><time>2026-03-29T09:07:37.342Z</time></trkpt><trkpt lat="37.4373483" lon="14.9181083"><ele>25.0</ele><time>2026-03-29T09:07:38.342Z</time></trkpt><trkpt lat="37.4375383" lon="14.918205"><ele>25.0</ele><time>2026-03-29T09:07:39.342Z</time></trkpt><trkpt lat="37.4377317" lon="14.9183117"><ele>25.0</ele><time>2026-03-29T09:07:40.342Z</time></trkpt><trkpt lat="37.4379217" lon="14.91842"><ele>25.0</ele><time>2026-03-29T09:07:41.343Z</time></trkpt><trkpt lat="37.4381167" lon="14.9185283"><ele>25.0</ele><time>2026-03-29T09:07:42.343Z</time></trkpt><trkpt lat="37.4383117" lon="14.9186383"><ele>25.0</ele><time>2026-03-29T09:07:43.343Z</time></trkpt><trkpt lat="37.4385" lon="14.918755"><ele>25.0</ele><time>2026-03-29T09:07:44.343Z</time></trkpt><trkpt lat="37.4386967" lon="14.9188717"><ele>25.0</ele><time>2026-03-29T09:07:45.342Z</time></trkpt><trkpt lat="37.4388917" lon="14.9189933"><ele>25.333333333333336</ele><time>2026-03-29T09:07:46.342Z</time></trkpt><trkpt lat="37.4390883" lon="14.9191033"><ele>25.666666666666664</ele><time>2026-03-29T09:07:47.343Z</time></trkpt><trkpt lat="37.4392883" lon="14.9192117"><ele>26.0</ele><time>2026-03-29T09:07:48.342Z</time></trkpt><trkpt lat="37.4394867" lon="14.9193133"><ele>26.0</ele><time>2026-03-29T09:07:49.342Z</time></trkpt><trkpt lat="37.4396933" lon="14.9193883"><ele>26.0</ele><time>2026-03-29T09:07:50.342Z</time></trkpt><trkpt lat="37.43991" lon="14.9194467"><ele>26.0</ele><time>2026-03-29T09:07:51.343Z</time></trkpt><trkpt lat="37.440125" lon="14.9194933"><ele>26.0</ele><time>2026-03-29T09:07:52.343Z</time></trkpt><trkpt lat="37.4403417" lon="14.9195383"><ele>26.0</ele><time>2026-03-29T09:07:53.342Z</time></trkpt><trkpt lat="37.440565" lon="14.9195733"><ele>26.0</ele><time>2026-03-29T09:07:54.343Z</time></trkpt><trkpt lat="37.440785" lon="14.9196133"><ele>26.0</ele><time>2026-03-29T09:07:55.343Z</time></trkpt><trkpt lat="37.441005" lon="14.91966"><ele>26.0</ele><time>2026-03-29T09:07:56.343Z</time></trkpt><trkpt lat="37.44123" lon="14.91971"><ele>25.0</ele><time>2026-03-29T09:07:57.343Z</time></trkpt><trkpt lat="37.441455" lon="14.9197517"><ele>24.0</ele><time>2026-03-29T09:07:58.342Z</time></trkpt><trkpt lat="37.4416817" lon="14.919795"><ele>24.0</ele><time>2026-03-29T09:07:59.342Z</time></trkpt><trkpt lat="37.4419067" lon="14.9198233"><ele>24.0</ele><time>2026-03-29T09:08:00.342Z</time></trkpt><trkpt lat="37.442135" lon="14.9198467"><ele>24.666666666666664</ele><time>2026-03-29T09:08:01.343Z</time></trkpt><trkpt lat="37.44236" lon="14.91985"><ele>25.333333333333332</ele><time>2026-03-29T09:08:02.342Z</time></trkpt><trkpt lat="37.4425817" lon="14.9198383"><ele>26.0</ele><time>2026-03-29T09:08:03.342Z</time></trkpt><trkpt lat="37.4428017" lon="14.9198167"><ele>25.666666666666664</ele><time>2026-03-29T09:08:04.343Z</time></trkpt><trkpt lat="37.4430167" lon="14.9197967"><ele>25.333333333333336</ele><time>2026-03-29T09:08:05.343Z</time></trkpt><trkpt lat="37.443235" lon="14.9197767"><ele>25.0</ele><time>2026-03-29T09:08:06.342Z</time></trkpt><trkpt lat="37.443455" lon="14.919755"><ele>25.0</ele><time>2026-03-29T09:08:07.342Z</time></trkpt><trkpt lat="37.4436783" lon="14.919735"><ele>25.0</ele><time>2026-03-29T09:08:08.343Z</time></trkpt><trkpt lat="37.4439033" lon="14.91972"><ele>25.0</ele><time>2026-03-29T09:08:09.343Z</time></trkpt><trkpt lat="37.44413" lon="14.9197017"><ele>25.5</ele><time>2026-03-29T09:08:10.342Z</time></trkpt><trkpt lat="37.444355" lon="14.9196817"><ele>26.0</ele><time>2026-03-29T09:08:11.343Z</time></trkpt><trkpt lat="37.44458" lon="14.9196533"><ele>26.5</ele><time>2026-03-29T09:08:12.343Z</time></trkpt><trkpt lat="37.44481" lon="14.9196283"><ele>27.0</ele><time>2026-03-29T09:08:13.343Z</time></trkpt><trkpt lat="37.445035" lon="14.9196067"><ele>27.0</ele><time>2026-03-29T09:08:14.343Z</time></trkpt><trkpt lat="37.44526" lon="14.9195733"><ele>27.0</ele><time>2026-03-29T09:08:15.343Z</time></trkpt><trkpt lat="37.4454717" lon="14.9195467"><ele>27.0</ele><time>2026-03-29T09:08:16.343Z</time></trkpt><trkpt lat="37.4456933" lon="14.9195233"><ele>26.666666666666664</ele><time>2026-03-29T09:08:17.342Z</time></trkpt><trkpt lat="37.4459167" lon="14.9195067"><ele>26.333333333333332</ele><time>2026-03-29T09:08:18.343Z</time></trkpt><trkpt lat="37.4461383" lon="14.9194933"><ele>26.0</ele><time>2026-03-29T09:08:19.343Z</time></trkpt><trkpt lat="37.446365" lon="14.9194733"><ele>25.5</ele><time>2026-03-29T09:08:20.342Z</time></trkpt><trkpt lat="37.4465917" lon="14.9194617"><ele>25.0</ele><time>2026-03-29T09:08:21.343Z</time></trkpt><trkpt lat="37.446815" lon="14.9194417"><ele>25.0</ele><time>2026-03-29T09:08:22.342Z</time></trkpt><trkpt lat="37.4470383" lon="14.9194233"><ele>25.0</ele><time>2026-03-29T09:08:23.343Z</time></trkpt><trkpt lat="37.44726" lon="14.919405"><ele>25.0</ele><time>2026-03-29T09:08:24.342Z</time></trkpt><trkpt lat="37.447485" lon="14.9193733"><ele>25.0</ele><time>2026-03-29T09:08:25.343Z</time></trkpt><trkpt lat="37.4477083" lon="14.9193483"><ele>25.0</ele><time>2026-03-29T09:08:26.342Z</time></trkpt><trkpt lat="37.4479333" lon="14.91933"><ele>26.0</ele><time>2026-03-29T09:08:27.343Z</time></trkpt><trkpt lat="37.4481533" lon="14.9193033"><ele>27.0</ele><time>2026-03-29T09:08:28.342Z</time></trkpt><trkpt lat="37.4483817" lon="14.91928"><ele>27.0</ele><time>2026-03-29T09:08:29.343Z</time></trkpt><trkpt lat="37.4486067" lon="14.9192617"><ele>27.0</ele><time>2026-03-29T09:08:30.342Z</time></trkpt><trkpt lat="37.44883" lon="14.91924"><ele>27.0</ele><time>2026-03-29T09:08:31.342Z</time></trkpt><trkpt lat="37.4490567" lon="14.919215"><ele>27.5</ele><time>2026-03-29T09:08:32.342Z</time></trkpt><trkpt lat="37.449285" lon="14.9191933"><ele>28.0</ele><time>2026-03-29T09:08:33.342Z</time></trkpt><trkpt lat="37.4495083" lon="14.9191717"><ele>27.333333333333336</ele><time>2026-03-29T09:08:34.342Z</time></trkpt><trkpt lat="37.449735" lon="14.9191533"><ele>26.666666666666664</ele><time>2026-03-29T09:08:35.343Z</time></trkpt><trkpt lat="37.4499533" lon="14.91913"><ele>26.0</ele><time>2026-03-29T09:08:36.343Z</time></trkpt><trkpt lat="37.450185" lon="14.9191067"><ele>26.0</ele><time>2026-03-29T09:08:37.343Z</time></trkpt><trkpt lat="37.4504133" lon="14.9190883"><ele>26.0</ele><time>2026-03-29T09:08:38.343Z</time></trkpt><trkpt lat="37.4506367" lon="14.919065"><ele>26.333333333333332</ele><time>2026-03-29T09:08:39.343Z</time></trkpt><trkpt lat="37.4508467" lon="14.9190467"><ele>26.666666666666664</ele><time>2026-03-29T09:08:40.342Z</time></trkpt><trkpt lat="37.4510517" lon="14.9190217"><ele>27.0</ele><time>2026-03-29T09:08:41.343Z</time></trkpt><trkpt lat="37.45124" lon="14.9190067"><ele>26.666666666666664</ele><time>2026-03-29T09:08:42.342Z</time></trkpt><trkpt lat="37.4514133" lon="14.9189517"><ele>26.333333333333332</ele><time>2026-03-29T09:08:43.342Z</time></trkpt><trkpt lat="37.4515767" lon="14.9188717"><ele>26.0</ele><time>2026-03-29T09:08:44.342Z</time></trkpt><trkpt lat="37.45173" lon="14.9187567"><ele>26.0</ele><time>2026-03-29T09:08:45.343Z</time></trkpt><trkpt lat="37.4518633" lon="14.9186017"><ele>26.0</ele><time>2026-03-29T09:08:46.342Z</time></trkpt><trkpt lat="37.451975" lon="14.9184083"><ele>26.0</ele><time>2026-03-29T09:08:47.343Z</time></trkpt><trkpt lat="37.4520567" lon="14.9181967"><ele>25.666666666666664</ele><time>2026-03-29T09:08:48.342Z</time></trkpt><trkpt lat="37.4521083" lon="14.9179717"><ele>25.333333333333336</ele><time>2026-03-29T09:08:49.343Z</time></trkpt><trkpt lat="37.4521467" lon="14.917735"><ele>25.0</ele><time>2026-03-29T09:08:50.343Z</time></trkpt><trkpt lat="37.4521833" lon="14.9174967"><ele>25.666666666666668</ele><time>2026-03-29T09:08:51.342Z</time></trkpt><trkpt lat="37.4522217" lon="14.91727"><ele>26.333333333333336</ele><time>2026-03-29T09:08:52.343Z</time></trkpt><trkpt lat="37.4522667" lon="14.9170583"><ele>27.0</ele><time>2026-03-29T09:08:53.343Z</time></trkpt><trkpt lat="37.4523183" lon="14.91685"><ele>27.333333333333336</ele><time>2026-03-29T09:08:54.343Z</time></trkpt><trkpt lat="37.452385" lon="14.9166533"><ele>27.666666666666668</ele><time>2026-03-29T09:08:55.342Z</time></trkpt><trkpt lat="37.4524733" lon="14.916465"><ele>28.0</ele><time>2026-03-29T09:08:56.343Z</time></trkpt><trkpt lat="37.45258" lon="14.9162933"><ele>28.0</ele><time>2026-03-29T09:08:57.342Z</time></trkpt><trkpt lat="37.45269" lon="14.9161167"><ele>28.0</ele><time>2026-03-29T09:08:58.343Z</time></trkpt><trkpt lat="37.4528067" lon="14.9159333"><ele>28.0</ele><time>2026-03-29T09:08:59.342Z</time></trkpt><trkpt lat="37.45292" lon="14.9157417"><ele>28.0</ele><time>2026-03-29T09:09:00.342Z</time></trkpt><trkpt lat="37.45303" lon="14.9155533"><ele>28.0</ele><time>2026-03-29T09:09:01.342Z</time></trkpt><trkpt lat="37.45315" lon="14.9153567"><ele>28.0</ele><time>2026-03-29T09:09:02.343Z</time></trkpt><trkpt lat="37.4532667" lon="14.9151667"><ele>28.0</ele><time>2026-03-29T09:09:03.343Z</time></trkpt><trkpt lat="37.45338" lon="14.9149717"><ele>28.0</ele><time>2026-03-29T09:09:04.342Z</time></trkpt><trkpt lat="37.4534967" lon="14.91478"><ele>28.0</ele><time>2026-03-29T09:09:05.343Z</time></trkpt><trkpt lat="37.4536133" lon="14.9145967"><ele>28.0</ele><time>2026-03-29T09:09:06.343Z</time></trkpt><trkpt lat="37.4537217" lon="14.9144183"><ele>28.0</ele><time>2026-03-29T09:09:07.343Z</time></trkpt><trkpt lat="37.4538217" lon="14.9142583"><ele>28.0</ele><time>2026-03-29T09:09:08.343Z</time></trkpt><trkpt lat="37.4539083" lon="14.9141183"><ele>28.2</ele><time>2026-03-29T09:09:09.342Z</time></trkpt><trkpt lat="37.4539783" lon="14.9140083"><ele>28.4</ele><time>2026-03-29T09:09:10.343Z</time></trkpt><trkpt lat="37.45405" lon="14.9139283"><ele>28.599999999999998</ele><time>2026-03-29T09:09:11.343Z</time></trkpt><trkpt lat="37.4541133" lon="14.9138867"><ele>28.799999999999997</ele><time>2026-03-29T09:09:12.343Z</time></trkpt><trkpt lat="37.4542183" lon="14.9138833"><ele>29.0</ele><time>2026-03-29T09:09:14.343Z</time></trkpt><trkpt lat="37.4542783" lon="14.91392"><ele>29.0</ele><time>2026-03-29T09:09:15.342Z</time></trkpt><trkpt lat="37.4543433" lon="14.913975"><ele>29.0</ele><time>2026-03-29T09:09:16.342Z</time></trkpt><trkpt lat="37.4544233" lon="14.9140533"><ele>29.0</ele><time>2026-03-29T09:09:17.343Z</time></trkpt><trkpt lat="37.454515" lon="14.9141367"><ele>29.0</ele><time>2026-03-29T09:09:18.343Z</time></trkpt><trkpt lat="37.4546233" lon="14.9142167"><ele>29.0</ele><time>2026-03-29T09:09:19.343Z</time></trkpt><trkpt lat="37.454745" lon="14.9143"><ele>29.0</ele><time>2026-03-29T09:09:20.343Z</time></trkpt><trkpt lat="37.4548733" lon="14.9143917"><ele>29.0</ele><time>2026-03-29T09:09:21.343Z</time></trkpt><trkpt lat="37.4550017" lon="14.914485"><ele>29.0</ele><time>2026-03-29T09:09:22.342Z</time></trkpt><trkpt lat="37.45513" lon="14.9145833"><ele>29.0</ele><time>2026-03-29T09:09:23.343Z</time></trkpt><trkpt lat="37.4552667" lon="14.9146867"><ele>29.0</ele><time>2026-03-29T09:09:24.342Z</time></trkpt><trkpt lat="37.455405" lon="14.914785"><ele>29.0</ele><time>2026-03-29T09:09:25.343Z</time></trkpt><trkpt lat="37.45555" lon="14.9148967"><ele>29.0</ele><time>2026-03-29T09:09:26.343Z</time></trkpt><trkpt lat="37.4556983" lon="14.9150067"><ele>29.333333333333332</ele><time>2026-03-29T09:09:27.342Z</time></trkpt><trkpt lat="37.4558433" lon="14.91513"><ele>29.666666666666664</ele><time>2026-03-29T09:09:28.343Z</time></trkpt><trkpt lat="37.4559783" lon="14.9152533"><ele>30.0</ele><time>2026-03-29T09:09:29.342Z</time></trkpt><trkpt lat="37.4561117" lon="14.9153833"><ele>30.0</ele><time>2026-03-29T09:09:30.343Z</time></trkpt><trkpt lat="37.456245" lon="14.9155183"><ele>30.0</ele><time>2026-03-29T09:09:31.342Z</time></trkpt><trkpt lat="37.4563867" lon="14.9156533"><ele>30.0</ele><time>2026-03-29T09:09:32.343Z</time></trkpt><trkpt lat="37.4565267" lon="14.9158067"><ele>28.333333333333336</ele><time>2026-03-29T09:09:33.343Z</time></trkpt><trkpt lat="37.45667" lon="14.9159733"><ele>26.666666666666668</ele><time>2026-03-29T09:09:34.343Z</time></trkpt><trkpt lat="37.4568067" lon="14.9161383"><ele>25.0</ele><time>2026-03-29T09:09:35.343Z</time></trkpt><trkpt lat="37.45694" lon="14.9163067"><ele>25.0</ele><time>2026-03-29T09:09:36.342Z</time></trkpt><trkpt lat="37.45707" lon="14.9164683"><ele>25.0</ele><time>2026-03-29T09:09:37.342Z</time></trkpt><trkpt lat="37.45719" lon="14.9166367"><ele>25.0</ele><time>2026-03-29T09:09:38.342Z</time></trkpt><trkpt lat="37.457305" lon="14.916795"><ele>25.0</ele><time>2026-03-29T09:09:39.342Z</time></trkpt><trkpt lat="37.4574183" lon="14.9169467"><ele>25.0</ele><time>2026-03-29T09:09:40.342Z</time></trkpt><trkpt lat="37.4575383" lon="14.9171017"><ele>25.0</ele><time>2026-03-29T09:09:41.342Z</time></trkpt><trkpt lat="37.45766" lon="14.9172433"><ele>25.0</ele><time>2026-03-29T09:09:42.342Z</time></trkpt><trkpt lat="37.457775" lon="14.9173983"><ele>25.0</ele><time>2026-03-29T09:09:43.342Z</time></trkpt><trkpt lat="37.4578917" lon="14.91755"><ele>25.0</ele><time>2026-03-29T09:09:44.342Z</time></trkpt><trkpt lat="37.45801" lon="14.9177117"><ele>27.0</ele><time>2026-03-29T09:09:45.343Z</time></trkpt><trkpt lat="37.4581367" lon="14.917875"><ele>29.0</ele><time>2026-03-29T09:09:46.343Z</time></trkpt><trkpt lat="37.45827" lon="14.9180367"><ele>31.0</ele><time>2026-03-29T09:09:47.343Z</time></trkpt><trkpt lat="37.4584033" lon="14.9182067"><ele>31.0</ele><time>2026-03-29T09:09:48.343Z</time></trkpt><trkpt lat="37.4585383" lon="14.918385"><ele>31.0</ele><time>2026-03-29T09:09:49.342Z</time></trkpt><trkpt lat="37.4586783" lon="14.9185617"><ele>31.0</ele><time>2026-03-29T09:09:50.343Z</time></trkpt><trkpt lat="37.4588217" lon="14.918745"><ele>30.333333333333336</ele><time>2026-03-29T09:09:51.342Z</time></trkpt><trkpt lat="37.4589667" lon="14.9189283"><ele>29.666666666666664</ele><time>2026-03-29T09:09:52.342Z</time></trkpt><trkpt lat="37.4591083" lon="14.91911"><ele>29.0</ele><time>2026-03-29T09:09:53.343Z</time></trkpt><trkpt lat="37.4592483" lon="14.9192917"><ele>29.0</ele><time>2026-03-29T09:09:54.342Z</time></trkpt><trkpt lat="37.4593817" lon="14.919475"><ele>29.0</ele><time>2026-03-29T09:09:55.342Z</time></trkpt><trkpt lat="37.4595033" lon="14.9196533"><ele>29.0</ele><time>2026-03-29T09:09:56.343Z</time></trkpt><trkpt lat="37.4596233" lon="14.9198383"><ele>29.0</ele><time>2026-03-29T09:09:57.342Z</time></trkpt><trkpt lat="37.45974" lon="14.9200333"><ele>29.0</ele><time>2026-03-29T09:09:58.343Z</time></trkpt><trkpt lat="37.4598467" lon="14.9202317"><ele>29.0</ele><time>2026-03-29T09:09:59.343Z</time></trkpt><trkpt lat="37.459945" lon="14.9204283"><ele>29.0</ele><time>2026-03-29T09:10:00.343Z</time></trkpt><trkpt lat="37.4600333" lon="14.9206267"><ele>29.0</ele><time>2026-03-29T09:10:01.343Z</time></trkpt><trkpt lat="37.460115" lon="14.9208083"><ele>29.0</ele><time>2026-03-29T09:10:02.343Z</time></trkpt><trkpt lat="37.4601767" lon="14.92098"><ele>29.0</ele><time>2026-03-29T09:10:03.342Z</time></trkpt><trkpt lat="37.460225" lon="14.9211367"><ele>29.0</ele><time>2026-03-29T09:10:04.342Z</time></trkpt><trkpt lat="37.4602567" lon="14.9212867"><ele>29.0</ele><time>2026-03-29T09:10:05.343Z</time></trkpt><trkpt lat="37.46026" lon="14.9214233"><ele>29.0</ele><time>2026-03-29T09:10:06.342Z</time></trkpt><trkpt lat="37.46025" lon="14.9215517"><ele>29.0</ele><time>2026-03-29T09:10:07.342Z</time></trkpt><trkpt lat="37.46027" lon="14.9216633"><ele>29.0</ele><time>2026-03-29T09:10:08.342Z</time></trkpt><trkpt lat="37.460325" lon="14.9217567"><ele>29.0</ele><time>2026-03-29T09:10:09.343Z</time></trkpt><trkpt lat="37.460395" lon="14.92186"><ele>29.0</ele><time>2026-03-29T09:10:10.343Z</time></trkpt><trkpt lat="37.4604467" lon="14.9220017"><ele>29.0</ele><time>2026-03-29T09:10:11.342Z</time></trkpt><trkpt lat="37.4605017" lon="14.9221717"><ele>29.0</ele><time>2026-03-29T09:10:12.342Z</time></trkpt><trkpt lat="37.46055" lon="14.9223567"><ele>29.0</ele><time>2026-03-29T09:10:13.342Z</time></trkpt><trkpt lat="37.4606017" lon="14.9225483"><ele>29.0</ele><time>2026-03-29T09:10:14.342Z</time></trkpt><trkpt lat="37.4606633" lon="14.92275"><ele>29.0</ele><time>2026-03-29T09:10:15.342Z</time></trkpt><trkpt lat="37.4607283" lon="14.9229617"><ele>29.0</ele><time>2026-03-29T09:10:16.343Z</time></trkpt><trkpt lat="37.4607883" lon="14.9231617"><ele>29.0</ele><time>2026-03-29T09:10:17.343Z</time></trkpt><trkpt lat="37.4608467" lon="14.9233683"><ele>29.666666666666664</ele><time>2026-03-29T09:10:18.343Z</time></trkpt><trkpt lat="37.4609033" lon="14.9235667"><ele>30.333333333333336</ele><time>2026-03-29T09:10:19.342Z</time></trkpt><trkpt lat="37.460985" lon="14.923765"><ele>31.0</ele><time>2026-03-29T09:10:20.343Z</time></trkpt><trkpt lat="37.4610683" lon="14.9239567"><ele>31.0</ele><time>2026-03-29T09:10:21.342Z</time></trkpt><trkpt lat="37.461165" lon="14.92415"><ele>31.0</ele><time>2026-03-29T09:10:22.342Z</time></trkpt><trkpt lat="37.46127" lon="14.9243383"><ele>31.0</ele><time>2026-03-29T09:10:23.343Z</time></trkpt><trkpt lat="37.4613733" lon="14.9245233"><ele>30.333333333333336</ele><time>2026-03-29T09:10:24.343Z</time></trkpt><trkpt lat="37.4614817" lon="14.9246967"><ele>29.666666666666664</ele><time>2026-03-29T09:10:25.343Z</time></trkpt><trkpt lat="37.46158" lon="14.9248817"><ele>29.0</ele><time>2026-03-29T09:10:26.342Z</time></trkpt><trkpt lat="37.4616733" lon="14.9250667"><ele>29.0</ele><time>2026-03-29T09:10:27.342Z</time></trkpt><trkpt lat="37.46178" lon="14.9252583"><ele>29.0</ele><time>2026-03-29T09:10:28.342Z</time></trkpt><trkpt lat="37.4618817" lon="14.9254617"><ele>29.0</ele><time>2026-03-29T09:10:29.342Z</time></trkpt><trkpt lat="37.46199" lon="14.92566"><ele>29.0</ele><time>2026-03-29T09:10:30.343Z</time></trkpt><trkpt lat="37.462095" lon="14.9258633"><ele>29.0</ele><time>2026-03-29T09:10:31.343Z</time></trkpt><trkpt lat="37.4621983" lon="14.9260533"><ele>29.0</ele><time>2026-03-29T09:10:32.343Z</time></trkpt><trkpt lat="37.4623017" lon="14.9262433"><ele>28.666666666666664</ele><time>2026-03-29T09:10:33.342Z</time></trkpt><trkpt lat="37.4623983" lon="14.92642"><ele>28.333333333333336</ele><time>2026-03-29T09:10:34.342Z</time></trkpt><trkpt lat="37.4624867" lon="14.9266017"><ele>28.0</ele><time>2026-03-29T09:10:35.342Z</time></trkpt><trkpt lat="37.4625617" lon="14.926785"><ele>27.666666666666668</ele><time>2026-03-29T09:10:36.342Z</time></trkpt><trkpt lat="37.4626317" lon="14.9269783"><ele>27.333333333333336</ele><time>2026-03-29T09:10:37.343Z</time></trkpt><trkpt lat="37.4626917" lon="14.927175"><ele>27.0</ele><time>2026-03-29T09:10:38.342Z</time></trkpt><trkpt lat="37.46275" lon="14.9273833"><ele>27.666666666666664</ele><time>2026-03-29T09:10:39.343Z</time></trkpt><trkpt lat="37.462805" lon="14.9276017"><ele>28.333333333333332</ele><time>2026-03-29T09:10:40.343Z</time></trkpt><trkpt lat="37.4628283" lon="14.9278283"><ele>29.0</ele><time>2026-03-29T09:10:41.342Z</time></trkpt><trkpt lat="37.462845" lon="14.9280767"><ele>29.0</ele><time>2026-03-29T09:10:42.342Z</time></trkpt><trkpt lat="37.46285" lon="14.9283233"><ele>29.0</ele><time>2026-03-29T09:10:43.343Z</time></trkpt><trkpt lat="37.46284" lon="14.92857"><ele>29.0</ele><time>2026-03-29T09:10:44.343Z</time></trkpt><trkpt lat="37.4628167" lon="14.9288083"><ele>29.0</ele><time>2026-03-29T09:10:45.343Z</time></trkpt><trkpt lat="37.4627833" lon="14.9290433"><ele>29.0</ele><time>2026-03-29T09:10:46.343Z</time></trkpt><trkpt lat="37.46274" lon="14.9292767"><ele>29.0</ele><time>2026-03-29T09:10:47.342Z</time></trkpt><trkpt lat="37.4626917" lon="14.929515"><ele>29.0</ele><time>2026-03-29T09:10:48.343Z</time></trkpt><trkpt lat="37.4626417" lon="14.9297583"><ele>29.0</ele><time>2026-03-29T09:10:49.342Z</time></trkpt><trkpt lat="37.4625967" lon="14.9300033"><ele>29.0</ele><time>2026-03-29T09:10:50.343Z</time></trkpt><trkpt lat="37.4625483" lon="14.9302467"><ele>29.0</ele><time>2026-03-29T09:10:51.343Z</time></trkpt><trkpt lat="37.4624983" lon="14.9304817"><ele>29.0</ele><time>2026-03-29T09:10:52.342Z</time></trkpt><trkpt lat="37.46245" lon="14.9307233"><ele>29.0</ele><time>2026-03-29T09:10:53.343Z</time></trkpt><trkpt lat="37.4624067" lon="14.9309683"><ele>29.333333333333332</ele><time>2026-03-29T09:10:54.342Z</time></trkpt><trkpt lat="37.4623633" lon="14.9312083"><ele>29.666666666666664</ele><time>2026-03-29T09:10:55.343Z</time></trkpt><trkpt lat="37.4623333" lon="14.931455"><ele>30.0</ele><time>2026-03-29T09:10:56.342Z</time></trkpt><trkpt lat="37.462315" lon="14.931705"><ele>30.333333333333336</ele><time>2026-03-29T09:10:57.342Z</time></trkpt><trkpt lat="37.4622983" lon="14.9319583"><ele>30.666666666666668</ele><time>2026-03-29T09:10:58.343Z</time></trkpt><trkpt lat="37.4623017" lon="14.9322017"><ele>31.0</ele><time>2026-03-29T09:10:59.342Z</time></trkpt><trkpt lat="37.4623183" lon="14.932445"><ele>31.0</ele><time>2026-03-29T09:11:00.343Z</time></trkpt><trkpt lat="37.462345" lon="14.93269"><ele>31.0</ele><time>2026-03-29T09:11:01.342Z</time></trkpt><trkpt lat="37.4623833" lon="14.9329383"><ele>31.0</ele><time>2026-03-29T09:11:02.342Z</time></trkpt><trkpt lat="37.46244" lon="14.9331617"><ele>31.0</ele><time>2026-03-29T09:11:03.343Z</time></trkpt><trkpt lat="37.46251" lon="14.9333833"><ele>31.0</ele><time>2026-03-29T09:11:04.343Z</time></trkpt><trkpt lat="37.462585" lon="14.9336083"><ele>31.0</ele><time>2026-03-29T09:11:05.343Z</time></trkpt><trkpt lat="37.462665" lon="14.933825"><ele>31.333333333333336</ele><time>2026-03-29T09:11:06.343Z</time></trkpt><trkpt lat="37.4627433" lon="14.93404"><ele>31.666666666666664</ele><time>2026-03-29T09:11:07.342Z</time></trkpt><trkpt lat="37.4628317" lon="14.9342633"><ele>32.0</ele><time>2026-03-29T09:11:08.342Z</time></trkpt><trkpt lat="37.4629217" lon="14.9344833"><ele>32.33333333333333</ele><time>2026-03-29T09:11:09.342Z</time></trkpt><trkpt lat="37.4630083" lon="14.9347083"><ele>32.666666666666664</ele><time>2026-03-29T09:11:10.342Z</time></trkpt><trkpt lat="37.4630867" lon="14.9349183"><ele>33.0</ele><time>2026-03-29T09:11:11.343Z</time></trkpt><trkpt lat="37.4631617" lon="14.9351117"><ele>33.0</ele><time>2026-03-29T09:11:12.343Z</time></trkpt><trkpt lat="37.4632317" lon="14.9352917"><ele>33.0</ele><time>2026-03-29T09:11:13.343Z</time></trkpt><trkpt lat="37.4633" lon="14.9354767"><ele>33.0</ele><time>2026-03-29T09:11:14.342Z</time></trkpt><trkpt lat="37.46336" lon="14.93565"><ele>33.0</ele><time>2026-03-29T09:11:15.343Z</time></trkpt><trkpt lat="37.463415" lon="14.935805"><ele>33.0</ele><time>2026-03-29T09:11:16.342Z</time></trkpt><trkpt lat="37.4634583" lon="14.9359583"><ele>33.0</ele><time>2026-03-29T09:11:17.343Z</time></trkpt><trkpt lat="37.4635117" lon="14.9360817"><ele>33.0</ele><time>2026-03-29T09:11:18.342Z</time></trkpt><trkpt lat="37.4635767" lon="14.93618"><ele>33.166666666666664</ele><time>2026-03-29T09:11:19.342Z</time></trkpt><trkpt lat="37.4636617" lon="14.9362233"><ele>33.333333333333336</ele><time>2026-03-29T09:11:20.343Z</time></trkpt><trkpt lat="37.4637467" lon="14.93623"><ele>33.5</ele><time>2026-03-29T09:11:21.343Z</time></trkpt><trkpt lat="37.4638233" lon="14.9362183"><ele>33.66666666666667</ele><time>2026-03-29T09:11:22.342Z</time></trkpt><trkpt lat="37.4638867" lon="14.9361783"><ele>33.833333333333336</ele><time>2026-03-29T09:11:23.342Z</time></trkpt><trkpt lat="37.4639417" lon="14.9361167"><ele>34.0</ele><time>2026-03-29T09:11:24.343Z</time></trkpt><trkpt lat="37.4639833" lon="14.93604"><ele>34.0</ele><time>2026-03-29T09:11:25.343Z</time></trkpt><trkpt lat="37.4639983" lon="14.9359283"><ele>34.0</ele><time>2026-03-29T09:11:26.342Z</time></trkpt><trkpt lat="37.4639967" lon="14.9358033"><ele>34.0</ele><time>2026-03-29T09:11:27.342Z</time></trkpt><trkpt lat="37.4639717" lon="14.93567"><ele>34.0</ele><time>2026-03-29T09:11:28.342Z</time></trkpt><trkpt lat="37.4639367" lon="14.9355217"><ele>34.0</ele><time>2026-03-29T09:11:29.342Z</time></trkpt><trkpt lat="37.4639233" lon="14.9353833"><ele>34.25</ele><time>2026-03-29T09:11:30.343Z</time></trkpt><trkpt lat="37.46394" lon="14.9352383"><ele>34.5</ele><time>2026-03-29T09:11:31.342Z</time></trkpt><trkpt lat="37.4639717" lon="14.9350967"><ele>34.75</ele><time>2026-03-29T09:11:32.343Z</time></trkpt><trkpt lat="37.4640133" lon="14.9349667"><ele>35.0</ele><time>2026-03-29T09:11:33.342Z</time></trkpt><trkpt lat="37.4640633" lon="14.934825"><ele>35.5</ele><time>2026-03-29T09:11:34.343Z</time></trkpt><trkpt lat="37.4641083" lon="14.9346817"><ele>36.0</ele><time>2026-03-29T09:11:35.343Z</time></trkpt><trkpt lat="37.4641583" lon="14.9345533"><ele>36.5</ele><time>2026-03-29T09:11:36.342Z</time></trkpt><trkpt lat="37.46422" lon="14.934435"><ele>37.0</ele><time>2026-03-29T09:11:37.342Z</time></trkpt><trkpt lat="37.4643067" lon="14.9343383"><ele>37.0</ele><time>2026-03-29T09:11:38.342Z</time></trkpt><trkpt lat="37.4644067" lon="14.9342833"><ele>37.0</ele><time>2026-03-29T09:11:39.342Z</time></trkpt><trkpt lat="37.464515" lon="14.9342617"><ele>37.0</ele><time>2026-03-29T09:11:40.342Z</time></trkpt><trkpt lat="37.4646183" lon="14.9342517"><ele>37.0</ele><time>2026-03-29T09:11:41.343Z</time></trkpt><trkpt lat="37.4647183" lon="14.934235"><ele>37.0</ele><time>2026-03-29T09:11:42.343Z</time></trkpt><trkpt lat="37.46482" lon="14.9342133"><ele>38.16666666666667</ele><time>2026-03-29T09:11:43.342Z</time></trkpt><trkpt lat="37.46491" lon="14.9341883"><ele>39.333333333333336</ele><time>2026-03-29T09:11:44.343Z</time></trkpt><trkpt lat="37.4649833" lon="14.9341783"><ele>40.5</ele><time>2026-03-29T09:11:45.342Z</time></trkpt><trkpt lat="37.4650667" lon="14.9341883"><ele>41.666666666666664</ele><time>2026-03-29T09:11:46.343Z</time></trkpt><trkpt lat="37.4651317" lon="14.93425"><ele>42.83333333333333</ele><time>2026-03-29T09:11:47.343Z</time></trkpt><trkpt lat="37.4651833" lon="14.9343533"><ele>44.0</ele><time>2026-03-29T09:11:48.343Z</time></trkpt><trkpt lat="37.4652233" lon="14.934495"><ele>44.0</ele><time>2026-03-29T09:11:49.343Z</time></trkpt><trkpt lat="37.4652483" lon="14.93466"><ele>44.0</ele><time>2026-03-29T09:11:50.342Z</time></trkpt><trkpt lat="37.4652833" lon="14.9348267"><ele>44.0</ele><time>2026-03-29T09:11:51.342Z</time></trkpt><trkpt lat="37.4653217" lon="14.93501"><ele>44.0</ele><time>2026-03-29T09:11:52.343Z</time></trkpt><trkpt lat="37.4653633" lon="14.9351667"><ele>43.75</ele><time>2026-03-29T09:11:53.342Z</time></trkpt><trkpt lat="37.46542" lon="14.9353267"><ele>43.5</ele><time>2026-03-29T09:11:54.343Z</time></trkpt><trkpt lat="37.4655" lon="14.93548"><ele>43.25</ele><time>2026-03-29T09:11:55.343Z</time></trkpt><trkpt lat="37.465585" lon="14.9356383"><ele>43.0</ele><time>2026-03-29T09:11:56.343Z</time></trkpt><trkpt lat="37.4656867" lon="14.93579"><ele>41.333333333333336</ele><time>2026-03-29T09:11:57.343Z</time></trkpt><trkpt lat="37.465785" lon="14.9359517"><ele>39.666666666666664</ele><time>2026-03-29T09:11:58.342Z</time></trkpt><trkpt lat="37.465895" lon="14.9361233"><ele>38.0</ele><time>2026-03-29T09:11:59.342Z</time></trkpt><trkpt lat="37.4660067" lon="14.93628"><ele>38.0</ele><time>2026-03-29T09:12:00.343Z</time></trkpt><trkpt lat="37.4661283" lon="14.9364333"><ele>38.0</ele><time>2026-03-29T09:12:01.343Z</time></trkpt><trkpt lat="37.466255" lon="14.936575"><ele>38.0</ele><time>2026-03-29T09:12:02.342Z</time></trkpt><trkpt lat="37.466385" lon="14.9367017"><ele>37.666666666666664</ele><time>2026-03-29T09:12:03.342Z</time></trkpt><trkpt lat="37.466525" lon="14.9368217"><ele>37.333333333333336</ele><time>2026-03-29T09:12:04.342Z</time></trkpt><trkpt lat="37.46668" lon="14.93694"><ele>37.0</ele><time>2026-03-29T09:12:05.343Z</time></trkpt><trkpt lat="37.4668333" lon="14.9370533"><ele>37.0</ele><time>2026-03-29T09:12:06.342Z</time></trkpt><trkpt lat="37.467" lon="14.9371717"><ele>37.0</ele><time>2026-03-29T09:12:07.343Z</time></trkpt><trkpt lat="37.4671767" lon="14.9372933"><ele>37.0</ele><time>2026-03-29T09:12:08.342Z</time></trkpt><trkpt lat="37.4673533" lon="14.937415"><ele>37.66666666666667</ele><time>2026-03-29T09:12:09.342Z</time></trkpt><trkpt lat="37.4675333" lon="14.9375317"><ele>38.333333333333336</ele><time>2026-03-29T09:12:10.342Z</time></trkpt><trkpt lat="37.4677117" lon="14.93765"><ele>39.0</ele><time>2026-03-29T09:12:11.342Z</time></trkpt><trkpt lat="37.4678867" lon="14.93776"><ele>40.333333333333336</ele><time>2026-03-29T09:12:12.342Z</time></trkpt><trkpt lat="37.4680617" lon="14.9378733"><ele>41.66666666666667</ele><time>2026-03-29T09:12:13.343Z</time></trkpt><trkpt lat="37.4682383" lon="14.937985"><ele>43.0</ele><time>2026-03-29T09:12:14.343Z</time></trkpt><trkpt lat="37.4684" lon="14.9381017"><ele>43.0</ele><time>2026-03-29T09:12:15.342Z</time></trkpt><trkpt lat="37.468565" lon="14.9382183"><ele>43.0</ele><time>2026-03-29T09:12:16.343Z</time></trkpt><trkpt lat="37.4687333" lon="14.9383317"><ele>43.0</ele><time>2026-03-29T09:12:17.342Z</time></trkpt><trkpt lat="37.4689067" lon="14.93845"><ele>42.66666666666667</ele><time>2026-03-29T09:12:18.342Z</time></trkpt><trkpt lat="37.46908" lon="14.9385667"><ele>42.333333333333336</ele><time>2026-03-29T09:12:19.343Z</time></trkpt><trkpt lat="37.4692483" lon="14.9386817"><ele>42.0</ele><time>2026-03-29T09:12:20.343Z</time></trkpt><trkpt lat="37.4694283" lon="14.9388"><ele>42.0</ele><time>2026-03-29T09:12:21.342Z</time></trkpt><trkpt lat="37.4696017" lon="14.938915"><ele>42.0</ele><time>2026-03-29T09:12:22.342Z</time></trkpt><trkpt lat="37.4697783" lon="14.939035"><ele>42.0</ele><time>2026-03-29T09:12:23.342Z</time></trkpt><trkpt lat="37.4699533" lon="14.9391583"><ele>42.333333333333336</ele><time>2026-03-29T09:12:24.342Z</time></trkpt><trkpt lat="37.47012" lon="14.9392783"><ele>42.66666666666667</ele><time>2026-03-29T09:12:25.343Z</time></trkpt><trkpt lat="37.470295" lon="14.9393983"><ele>43.0</ele><time>2026-03-29T09:12:26.342Z</time></trkpt><trkpt lat="37.4704683" lon="14.9395183"><ele>43.333333333333336</ele><time>2026-03-29T09:12:27.343Z</time></trkpt><trkpt lat="37.4706433" lon="14.93962"><ele>43.666666666666664</ele><time>2026-03-29T09:12:28.342Z</time></trkpt><trkpt lat="37.4708233" lon="14.9396917"><ele>44.0</ele><time>2026-03-29T09:12:29.342Z</time></trkpt><trkpt lat="37.4710133" lon="14.9397517"><ele>44.0</ele><time>2026-03-29T09:12:30.342Z</time></trkpt><trkpt lat="37.471195" lon="14.9397967"><ele>44.0</ele><time>2026-03-29T09:12:31.342Z</time></trkpt><trkpt lat="37.471385" lon="14.9398533"><ele>44.0</ele><time>2026-03-29T09:12:32.343Z</time></trkpt><trkpt lat="37.4715767" lon="14.9399033"><ele>44.666666666666664</ele><time>2026-03-29T09:12:33.343Z</time></trkpt><trkpt lat="37.47177" lon="14.93996"><ele>45.333333333333336</ele><time>2026-03-29T09:12:34.343Z</time></trkpt><trkpt lat="37.4719667" lon="14.940015"><ele>46.0</ele><time>2026-03-29T09:12:35.343Z</time></trkpt><trkpt lat="37.47217" lon="14.9400817"><ele>46.333333333333336</ele><time>2026-03-29T09:12:36.343Z</time></trkpt><trkpt lat="37.47237" lon="14.9401417"><ele>46.666666666666664</ele><time>2026-03-29T09:12:37.343Z</time></trkpt><trkpt lat="37.4725667" lon="14.9402017"><ele>47.0</ele><time>2026-03-29T09:12:38.343Z</time></trkpt><trkpt lat="37.4727683" lon="14.9402517"><ele>47.33333333333333</ele><time>2026-03-29T09:12:39.342Z</time></trkpt><trkpt lat="37.4729667" lon="14.94031"><ele>47.666666666666664</ele><time>2026-03-29T09:12:40.342Z</time></trkpt><trkpt lat="37.4731633" lon="14.9403733"><ele>48.0</ele><time>2026-03-29T09:12:41.342Z</time></trkpt><trkpt lat="37.4733633" lon="14.9404317"><ele>48.0</ele><time>2026-03-29T09:12:42.342Z</time></trkpt><trkpt lat="37.4735567" lon="14.9404833"><ele>48.0</ele><time>2026-03-29T09:12:43.343Z</time></trkpt><trkpt lat="37.4737483" lon="14.940545"><ele>48.0</ele><time>2026-03-29T09:12:44.342Z</time></trkpt><trkpt lat="37.4739367" lon="14.9406283"><ele>49.0</ele><time>2026-03-29T09:12:45.343Z</time></trkpt><trkpt lat="37.4741133" lon="14.9407317"><ele>50.0</ele><time>2026-03-29T09:12:46.343Z</time></trkpt><trkpt lat="37.4742783" lon="14.940835"><ele>51.0</ele><time>2026-03-29T09:12:47.342Z</time></trkpt><trkpt lat="37.474435" lon="14.9409433"><ele>51.0</ele><time>2026-03-29T09:12:48.342Z</time></trkpt><trkpt lat="37.4745883" lon="14.9410567"><ele>51.0</ele><time>2026-03-29T09:12:49.342Z</time></trkpt><trkpt lat="37.47473" lon="14.9411467"><ele>51.0</ele><time>2026-03-29T09:12:50.343Z</time></trkpt><trkpt lat="37.4748617" lon="14.9412417"><ele>50.75</ele><time>2026-03-29T09:12:51.343Z</time></trkpt><trkpt lat="37.4749867" lon="14.9413317"><ele>50.5</ele><time>2026-03-29T09:12:52.343Z</time></trkpt><trkpt lat="37.4751067" lon="14.9414167"><ele>50.25</ele><time>2026-03-29T09:12:53.343Z</time></trkpt><trkpt lat="37.47522" lon="14.9415"><ele>50.0</ele><time>2026-03-29T09:12:54.342Z</time></trkpt><trkpt lat="37.4753333" lon="14.9415783"><ele>50.0</ele><time>2026-03-29T09:12:55.342Z</time></trkpt><trkpt lat="37.4754383" lon="14.9416633"><ele>50.0</ele><time>2026-03-29T09:12:56.342Z</time></trkpt><trkpt lat="37.4755467" lon="14.9417517"><ele>50.0</ele><time>2026-03-29T09:12:57.342Z</time></trkpt><trkpt lat="37.4756533" lon="14.94185"><ele>50.0</ele><time>2026-03-29T09:12:58.342Z</time></trkpt><trkpt lat="37.4757683" lon="14.9419633"><ele>50.66666666666667</ele><time>2026-03-29T09:12:59.343Z</time></trkpt><trkpt lat="37.4758917" lon="14.94208"><ele>51.33333333333333</ele><time>2026-03-29T09:13:00.343Z</time></trkpt><trkpt lat="37.4760183" lon="14.9422167"><ele>52.0</ele><time>2026-03-29T09:13:01.342Z</time></trkpt><trkpt lat="37.476145" lon="14.942355"><ele>52.33333333333333</ele><time>2026-03-29T09:13:02.342Z</time></trkpt><trkpt lat="37.476275" lon="14.9425"><ele>52.66666666666667</ele><time>2026-03-29T09:13:03.342Z</time></trkpt><trkpt lat="37.4764117" lon="14.9426383"><ele>53.0</ele><time>2026-03-29T09:13:04.342Z</time></trkpt><trkpt lat="37.4765567" lon="14.9427683"><ele>54.0</ele><time>2026-03-29T09:13:05.342Z</time></trkpt><trkpt lat="37.4767067" lon="14.9428883"><ele>55.0</ele><time>2026-03-29T09:13:06.343Z</time></trkpt><trkpt lat="37.4768683" lon="14.9429883"><ele>56.0</ele><time>2026-03-29T09:13:07.343Z</time></trkpt><trkpt lat="37.4770317" lon="14.9430817"><ele>56.333333333333336</ele><time>2026-03-29T09:13:08.342Z</time></trkpt><trkpt lat="37.4772033" lon="14.9431733"><ele>56.66666666666667</ele><time>2026-03-29T09:13:09.342Z</time></trkpt><trkpt lat="37.4773767" lon="14.9432717"><ele>57.0</ele><time>2026-03-29T09:13:10.342Z</time></trkpt><trkpt lat="37.4775533" lon="14.943365"><ele>58.0</ele><time>2026-03-29T09:13:11.342Z</time></trkpt><trkpt lat="37.477725" lon="14.943465"><ele>59.0</ele><time>2026-03-29T09:13:12.342Z</time></trkpt><trkpt lat="37.4778983" lon="14.94356"><ele>60.0</ele><time>2026-03-29T09:13:13.343Z</time></trkpt><trkpt lat="37.4780717" lon="14.9436433"><ele>62.0</ele><time>2026-03-29T09:13:14.342Z</time></trkpt><trkpt lat="37.47824" lon="14.943695"><ele>64.0</ele><time>2026-03-29T09:13:15.342Z</time></trkpt><trkpt lat="37.4784033" lon="14.9437267"><ele>66.0</ele><time>2026-03-29T09:13:16.342Z</time></trkpt><trkpt lat="37.4785733" lon="14.9437683"><ele>66.0</ele><time>2026-03-29T09:13:17.343Z</time></trkpt><trkpt lat="37.47874" lon="14.9438217"><ele>66.0</ele><time>2026-03-29T09:13:18.343Z</time></trkpt><trkpt lat="37.4789083" lon="14.9438817"><ele>66.0</ele><time>2026-03-29T09:13:19.343Z</time></trkpt><trkpt lat="37.4790767" lon="14.9439467"><ele>68.33333333333333</ele><time>2026-03-29T09:13:20.343Z</time></trkpt><trkpt lat="37.4792467" lon="14.944015"><ele>70.66666666666666</ele><time>2026-03-29T09:13:21.342Z</time></trkpt><trkpt lat="37.4794083" lon="14.9440883"><ele>73.0</ele><time>2026-03-29T09:13:22.342Z</time></trkpt><trkpt lat="37.4795733" lon="14.9441667"><ele>76.66666666666666</ele><time>2026-03-29T09:13:23.342Z</time></trkpt><trkpt lat="37.4797283" lon="14.9442417"><ele>80.33333333333333</ele><time>2026-03-29T09:13:24.343Z</time></trkpt><trkpt lat="37.4798767" lon="14.9443083"><ele>84.0</ele><time>2026-03-29T09:13:25.343Z</time></trkpt><trkpt lat="37.4800267" lon="14.9443667"><ele>84.0</ele><time>2026-03-29T09:13:26.343Z</time></trkpt><trkpt lat="37.480175" lon="14.944415"><ele>84.0</ele><time>2026-03-29T09:13:27.342Z</time></trkpt><trkpt lat="37.48032" lon="14.9444583"><ele>84.0</ele><time>2026-03-29T09:13:28.342Z</time></trkpt><trkpt lat="37.4804783" lon="14.944505"><ele>85.33333333333333</ele><time>2026-03-29T09:13:29.343Z</time></trkpt><trkpt lat="37.4806417" lon="14.9445383"><ele>86.66666666666666</ele><time>2026-03-29T09:13:30.343Z</time></trkpt><trkpt lat="37.4808083" lon="14.944565"><ele>88.0</ele><time>2026-03-29T09:13:31.342Z</time></trkpt><trkpt lat="37.4809833" lon="14.9445967"><ele>88.0</ele><time>2026-03-29T09:13:32.342Z</time></trkpt><trkpt lat="37.4811567" lon="14.9446083"><ele>88.0</ele><time>2026-03-29T09:13:33.342Z</time></trkpt><trkpt lat="37.4813283" lon="14.9446333"><ele>88.0</ele><time>2026-03-29T09:13:34.342Z</time></trkpt><trkpt lat="37.4814983" lon="14.944655"><ele>89.33333333333333</ele><time>2026-03-29T09:13:35.343Z</time></trkpt><trkpt lat="37.4816717" lon="14.944685"><ele>90.66666666666667</ele><time>2026-03-29T09:13:36.343Z</time></trkpt><trkpt lat="37.4818383" lon="14.944695"><ele>92.0</ele><time>2026-03-29T09:13:37.342Z</time></trkpt><trkpt lat="37.4820083" lon="14.9446933"><ele>92.66666666666667</ele><time>2026-03-29T09:13:38.343Z</time></trkpt><trkpt lat="37.48218" lon="14.9446867"><ele>93.33333333333333</ele><time>2026-03-29T09:13:39.343Z</time></trkpt><trkpt lat="37.48237" lon="14.94467"><ele>94.0</ele><time>2026-03-29T09:13:40.342Z</time></trkpt><trkpt lat="37.482545" lon="14.944655"><ele>94.0</ele><time>2026-03-29T09:13:41.343Z</time></trkpt><trkpt lat="37.4827167" lon="14.944635"><ele>94.0</ele><time>2026-03-29T09:13:42.342Z</time></trkpt><trkpt lat="37.48289" lon="14.9446"><ele>94.0</ele><time>2026-03-29T09:13:43.343Z</time></trkpt><trkpt lat="37.48306" lon="14.9445483"><ele>95.66666666666666</ele><time>2026-03-29T09:13:44.342Z</time></trkpt><trkpt lat="37.4832333" lon="14.9445033"><ele>97.33333333333333</ele><time>2026-03-29T09:13:45.342Z</time></trkpt><trkpt lat="37.48339" lon="14.9445033"><ele>99.0</ele><time>2026-03-29T09:13:46.343Z</time></trkpt><trkpt lat="37.4835567" lon="14.9444833"><ele>99.0</ele><time>2026-03-29T09:13:47.343Z</time></trkpt><trkpt lat="37.48372" lon="14.9444833"><ele>99.0</ele><time>2026-03-29T09:13:48.343Z</time></trkpt><trkpt lat="37.4838767" lon="14.9445"><ele>99.0</ele><time>2026-03-29T09:13:49.343Z</time></trkpt><trkpt lat="37.4840367" lon="14.9445483"><ele>99.75</ele><time>2026-03-29T09:13:50.342Z</time></trkpt><trkpt lat="37.4841733" lon="14.9446167"><ele>100.5</ele><time>2026-03-29T09:13:51.343Z</time></trkpt><trkpt lat="37.484295" lon="14.9447017"><ele>101.25</ele><time>2026-03-29T09:13:52.342Z</time></trkpt><trkpt lat="37.4844067" lon="14.94482"><ele>102.0</ele><time>2026-03-29T09:13:53.343Z</time></trkpt><trkpt lat="37.484505" lon="14.9449533"><ele>102.25</ele><time>2026-03-29T09:13:54.343Z</time></trkpt><trkpt lat="37.4845883" lon="14.9451067"><ele>102.5</ele><time>2026-03-29T09:13:55.343Z</time></trkpt><trkpt lat="37.4846467" lon="14.945275"><ele>102.75</ele><time>2026-03-29T09:13:56.343Z</time></trkpt><trkpt lat="37.4847033" lon="14.9454467"><ele>103.0</ele><time>2026-03-29T09:13:57.343Z</time></trkpt><trkpt lat="37.4847617" lon="14.945615"><ele>103.0</ele><time>2026-03-29T09:13:58.343Z</time></trkpt><trkpt lat="37.4848267" lon="14.9457833"><ele>103.0</ele><time>2026-03-29T09:13:59.342Z</time></trkpt><trkpt lat="37.4848817" lon="14.94596"><ele>103.0</ele><time>2026-03-29T09:14:00.343Z</time></trkpt><trkpt lat="37.484945" lon="14.9461267"><ele>103.0</ele><time>2026-03-29T09:14:01.342Z</time></trkpt><trkpt lat="37.4850067" lon="14.9462917"><ele>103.66666666666667</ele><time>2026-03-29T09:14:02.343Z</time></trkpt><trkpt lat="37.485075" lon="14.946455"><ele>104.33333333333334</ele><time>2026-03-29T09:14:03.343Z</time></trkpt><trkpt lat="37.48516" lon="14.9466133"><ele>105.0</ele><time>2026-03-29T09:14:04.342Z</time></trkpt><trkpt lat="37.4852617" lon="14.9467667"><ele>106.33333333333334</ele><time>2026-03-29T09:14:05.342Z</time></trkpt><trkpt lat="37.48537" lon="14.9469033"><ele>107.66666666666667</ele><time>2026-03-29T09:14:06.343Z</time></trkpt><trkpt lat="37.4854733" lon="14.947045"><ele>109.0</ele><time>2026-03-29T09:14:07.342Z</time></trkpt><trkpt lat="37.48557" lon="14.9471917"><ele>109.66666666666667</ele><time>2026-03-29T09:14:08.343Z</time></trkpt><trkpt lat="37.4856683" lon="14.94733"><ele>110.33333333333334</ele><time>2026-03-29T09:14:09.343Z</time></trkpt><trkpt lat="37.48578" lon="14.9474667"><ele>111.0</ele><time>2026-03-29T09:14:10.343Z</time></trkpt><trkpt lat="37.4858933" lon="14.9476"><ele>111.66666666666666</ele><time>2026-03-29T09:14:11.343Z</time></trkpt><trkpt lat="37.4860067" lon="14.9477317"><ele>112.33333333333333</ele><time>2026-03-29T09:14:12.342Z</time></trkpt><trkpt lat="37.486125" lon="14.94785"><ele>113.0</ele><time>2026-03-29T09:14:13.343Z</time></trkpt><trkpt lat="37.486245" lon="14.9479633"><ele>114.0</ele><time>2026-03-29T09:14:14.342Z</time></trkpt><trkpt lat="37.4863717" lon="14.948075"><ele>115.0</ele><time>2026-03-29T09:14:15.342Z</time></trkpt><trkpt lat="37.4864983" lon="14.9481767"><ele>116.0</ele><time>2026-03-29T09:14:16.342Z</time></trkpt><trkpt lat="37.4866267" lon="14.9482833"><ele>117.0</ele><time>2026-03-29T09:14:17.343Z</time></trkpt><trkpt lat="37.4867533" lon="14.9483767"><ele>118.0</ele><time>2026-03-29T09:14:18.343Z</time></trkpt><trkpt lat="37.48689" lon="14.94846"><ele>119.0</ele><time>2026-03-29T09:14:19.342Z</time></trkpt><trkpt lat="37.4870333" lon="14.9485333"><ele>120.33333333333333</ele><time>2026-03-29T09:14:20.342Z</time></trkpt><trkpt lat="37.487195" lon="14.9486133"><ele>121.66666666666666</ele><time>2026-03-29T09:14:21.342Z</time></trkpt><trkpt lat="37.4873633" lon="14.9486983"><ele>123.0</ele><time>2026-03-29T09:14:22.343Z</time></trkpt><trkpt lat="37.4875417" lon="14.9487917"><ele>123.0</ele><time>2026-03-29T09:14:23.343Z</time></trkpt><trkpt lat="37.48772" lon="14.948905"><ele>123.0</ele><time>2026-03-29T09:14:24.342Z</time></trkpt><trkpt lat="37.4879033" lon="14.9490083"><ele>123.0</ele><time>2026-03-29T09:14:25.342Z</time></trkpt><trkpt lat="37.4880833" lon="14.9490917"><ele>124.66666666666666</ele><time>2026-03-29T09:14:26.342Z</time></trkpt><trkpt lat="37.48826" lon="14.949175"><ele>126.33333333333333</ele><time>2026-03-29T09:14:27.343Z</time></trkpt><trkpt lat="37.4884433" lon="14.9492517"><ele>128.0</ele><time>2026-03-29T09:14:28.342Z</time></trkpt><trkpt lat="37.4886183" lon="14.94932"><ele>130.33333333333331</ele><time>2026-03-29T09:14:29.342Z</time></trkpt><trkpt lat="37.4887983" lon="14.9493833"><ele>132.66666666666666</ele><time>2026-03-29T09:14:30.343Z</time></trkpt><trkpt lat="37.488975" lon="14.9494483"><ele>135.0</ele><time>2026-03-29T09:14:31.342Z</time></trkpt><trkpt lat="37.48915" lon="14.9495083"><ele>135.0</ele><time>2026-03-29T09:14:32.343Z</time></trkpt><trkpt lat="37.489315" lon="14.9495833"><ele>135.0</ele><time>2026-03-29T09:14:33.343Z</time></trkpt><trkpt lat="37.4894717" lon="14.9496633"><ele>135.0</ele><time>2026-03-29T09:14:34.342Z</time></trkpt><trkpt lat="37.4896367" lon="14.9497383"><ele>135.33333333333334</ele><time>2026-03-29T09:14:35.342Z</time></trkpt><trkpt lat="37.4898017" lon="14.949805"><ele>135.66666666666669</ele><time>2026-03-29T09:14:36.343Z</time></trkpt><trkpt lat="37.4899683" lon="14.9498583"><ele>136.0</ele><time>2026-03-29T09:14:37.342Z</time></trkpt><trkpt lat="37.49014" lon="14.9499133"><ele>136.0</ele><time>2026-03-29T09:14:38.342Z</time></trkpt><trkpt lat="37.4903083" lon="14.9499767"><ele>136.0</ele><time>2026-03-29T09:14:39.342Z</time></trkpt><trkpt lat="37.4904917" lon="14.95006"><ele>136.0</ele><time>2026-03-29T09:14:40.343Z</time></trkpt><trkpt lat="37.4906633" lon="14.9501483"><ele>137.33333333333334</ele><time>2026-03-29T09:14:41.343Z</time></trkpt><trkpt lat="37.490835" lon="14.9502283"><ele>138.66666666666666</ele><time>2026-03-29T09:14:42.343Z</time></trkpt><trkpt lat="37.4910017" lon="14.9503167"><ele>140.0</ele><time>2026-03-29T09:14:43.343Z</time></trkpt><trkpt lat="37.4911667" lon="14.9503967"><ele>141.0</ele><time>2026-03-29T09:14:44.343Z</time></trkpt><trkpt lat="37.491325" lon="14.9504933"><ele>142.0</ele><time>2026-03-29T09:14:45.342Z</time></trkpt><trkpt lat="37.4914767" lon="14.9506117"><ele>143.0</ele><time>2026-03-29T09:14:46.343Z</time></trkpt><trkpt lat="37.4916217" lon="14.950725"><ele>143.0</ele><time>2026-03-29T09:14:47.343Z</time></trkpt><trkpt lat="37.4917617" lon="14.9508517"><ele>143.0</ele><time>2026-03-29T09:14:48.342Z</time></trkpt><trkpt lat="37.4918933" lon="14.95099"><ele>143.0</ele><time>2026-03-29T09:14:49.343Z</time></trkpt><trkpt lat="37.492015" lon="14.95114"><ele>142.66666666666666</ele><time>2026-03-29T09:14:50.343Z</time></trkpt><trkpt lat="37.4921383" lon="14.9513083"><ele>142.33333333333334</ele><time>2026-03-29T09:14:51.343Z</time></trkpt><trkpt lat="37.4922583" lon="14.9514767"><ele>142.0</ele><time>2026-03-29T09:14:52.343Z</time></trkpt><trkpt lat="37.492375" lon="14.9516433"><ele>141.66666666666669</ele><time>2026-03-29T09:14:53.342Z</time></trkpt><trkpt lat="37.492495" lon="14.95182"><ele>141.33333333333334</ele><time>2026-03-29T09:14:54.343Z</time></trkpt><trkpt lat="37.4926283" lon="14.952"><ele>141.0</ele><time>2026-03-29T09:14:55.342Z</time></trkpt><trkpt lat="37.4927633" lon="14.9521733"><ele>141.0</ele><time>2026-03-29T09:14:56.343Z</time></trkpt><trkpt lat="37.492895" lon="14.952345"><ele>141.0</ele><time>2026-03-29T09:14:57.342Z</time></trkpt><trkpt lat="37.4930283" lon="14.9525167"><ele>141.0</ele><time>2026-03-29T09:14:58.342Z</time></trkpt><trkpt lat="37.4931483" lon="14.9526833"><ele>141.66666666666666</ele><time>2026-03-29T09:14:59.342Z</time></trkpt><trkpt lat="37.4932633" lon="14.9528483"><ele>142.33333333333331</ele><time>2026-03-29T09:15:00.342Z</time></trkpt><trkpt lat="37.4933817" lon="14.9530033"><ele>143.0</ele><time>2026-03-29T09:15:01.343Z</time></trkpt><trkpt lat="37.4935117" lon="14.9531417"><ele>143.0</ele><time>2026-03-29T09:15:02.342Z</time></trkpt><trkpt lat="37.49365" lon="14.9532617"><ele>143.0</ele><time>2026-03-29T09:15:03.343Z</time></trkpt><trkpt lat="37.4938017" lon="14.9533683"><ele>143.0</ele><time>2026-03-29T09:15:04.343Z</time></trkpt><trkpt lat="37.4939617" lon="14.9534583"><ele>144.0</ele><time>2026-03-29T09:15:05.343Z</time></trkpt><trkpt lat="37.494125" lon="14.9535483"><ele>145.0</ele><time>2026-03-29T09:15:06.343Z</time></trkpt><trkpt lat="37.4942867" lon="14.95363"><ele>146.0</ele><time>2026-03-29T09:15:07.343Z</time></trkpt><trkpt lat="37.49444" lon="14.9537217"><ele>146.0</ele><time>2026-03-29T09:15:08.343Z</time></trkpt><trkpt lat="37.4945833" lon="14.953835"><ele>146.0</ele><time>2026-03-29T09:15:09.343Z</time></trkpt><trkpt lat="37.4947117" lon="14.953985"><ele>146.0</ele><time>2026-03-29T09:15:10.343Z</time></trkpt><trkpt lat="37.494825" lon="14.9541517"><ele>146.33333333333331</ele><time>2026-03-29T09:15:11.342Z</time></trkpt><trkpt lat="37.49494" lon="14.95434"><ele>146.66666666666666</ele><time>2026-03-29T09:15:12.343Z</time></trkpt><trkpt lat="37.4950567" lon="14.9545267"><ele>147.0</ele><time>2026-03-29T09:15:13.343Z</time></trkpt><trkpt lat="37.4951783" lon="14.9547233"><ele>147.0</ele><time>2026-03-29T09:15:14.342Z</time></trkpt><trkpt lat="37.4953" lon="14.9549083"><ele>147.0</ele><time>2026-03-29T09:15:15.342Z</time></trkpt><trkpt lat="37.495425" lon="14.9550883"><ele>147.0</ele><time>2026-03-29T09:15:16.342Z</time></trkpt><trkpt lat="37.4955633" lon="14.9552717"><ele>147.66666666666666</ele><time>2026-03-29T09:15:17.343Z</time></trkpt><trkpt lat="37.49571" lon="14.9554483"><ele>148.33333333333331</ele><time>2026-03-29T09:15:18.343Z</time></trkpt><trkpt lat="37.4958583" lon="14.9556183"><ele>149.0</ele><time>2026-03-29T09:15:19.343Z</time></trkpt><trkpt lat="37.496005" lon="14.95578"><ele>149.0</ele><time>2026-03-29T09:15:20.342Z</time></trkpt><trkpt lat="37.49615" lon="14.9559333"><ele>149.0</ele><time>2026-03-29T09:15:21.343Z</time></trkpt><trkpt lat="37.4962917" lon="14.9560767"><ele>149.0</ele><time>2026-03-29T09:15:22.342Z</time></trkpt><trkpt lat="37.4964283" lon="14.95621"><ele>149.0</ele><time>2026-03-29T09:15:23.342Z</time></trkpt><trkpt lat="37.4965617" lon="14.956345"><ele>149.0</ele><time>2026-03-29T09:15:24.343Z</time></trkpt><trkpt lat="37.4966933" lon="14.95647"><ele>149.0</ele><time>2026-03-29T09:15:25.342Z</time></trkpt><trkpt lat="37.49682" lon="14.956595"><ele>149.0</ele><time>2026-03-29T09:15:26.343Z</time></trkpt><trkpt lat="37.4969467" lon="14.9566967"><ele>149.0</ele><time>2026-03-29T09:15:27.342Z</time></trkpt><trkpt lat="37.4970533" lon="14.95677"><ele>149.0</ele><time>2026-03-29T09:15:28.343Z</time></trkpt><trkpt lat="37.4971583" lon="14.9568067"><ele>149.0</ele><time>2026-03-29T09:15:29.343Z</time></trkpt><trkpt lat="37.497265" lon="14.9568083"><ele>148.25</ele><time>2026-03-29T09:15:30.342Z</time></trkpt><trkpt lat="37.49738" lon="14.95675"><ele>147.5</ele><time>2026-03-29T09:15:31.343Z</time></trkpt><trkpt lat="37.4974833" lon="14.956655"><ele>146.75</ele><time>2026-03-29T09:15:32.342Z</time></trkpt><trkpt lat="37.4975783" lon="14.9565467"><ele>146.0</ele><time>2026-03-29T09:15:33.342Z</time></trkpt><trkpt lat="37.49767" lon="14.956455"><ele>146.0</ele><time>2026-03-29T09:15:34.342Z</time></trkpt><trkpt lat="37.4977667" lon="14.9563983"><ele>146.0</ele><time>2026-03-29T09:15:35.343Z</time></trkpt><trkpt lat="37.4978583" lon="14.9563783"><ele>146.0</ele><time>2026-03-29T09:15:36.343Z</time></trkpt><trkpt lat="37.4979483" lon="14.95642"><ele>146.0</ele><time>2026-03-29T09:15:37.343Z</time></trkpt><trkpt lat="37.49804" lon="14.956495"><ele>146.0</ele><time>2026-03-29T09:15:38.343Z</time></trkpt><trkpt lat="37.49814" lon="14.9566"><ele>145.66666666666666</ele><time>2026-03-29T09:15:39.342Z</time></trkpt><trkpt lat="37.4982517" lon="14.9567133"><ele>145.33333333333334</ele><time>2026-03-29T09:15:40.342Z</time></trkpt><trkpt lat="37.4983783" lon="14.95683"><ele>145.0</ele><time>2026-03-29T09:15:41.342Z</time></trkpt><trkpt lat="37.4984983" lon="14.956945"><ele>145.0</ele><time>2026-03-29T09:15:42.342Z</time></trkpt><trkpt lat="37.4986133" lon="14.95706"><ele>145.0</ele><time>2026-03-29T09:15:43.343Z</time></trkpt><trkpt lat="37.4987367" lon="14.9571517"><ele>145.0</ele><time>2026-03-29T09:15:44.343Z</time></trkpt><trkpt lat="37.4988717" lon="14.9571983"><ele>145.0</ele><time>2026-03-29T09:15:45.343Z</time></trkpt><trkpt lat="37.4990283" lon="14.9571967"><ele>147.33333333333334</ele><time>2026-03-29T09:15:46.343Z</time></trkpt><trkpt lat="37.49919" lon="14.9571717"><ele>149.66666666666666</ele><time>2026-03-29T09:15:47.342Z</time></trkpt><trkpt lat="37.4993467" lon="14.957155"><ele>152.0</ele><time>2026-03-29T09:15:48.343Z</time></trkpt><trkpt lat="37.4995033" lon="14.9571767"><ele>153.33333333333331</ele><time>2026-03-29T09:15:49.342Z</time></trkpt><trkpt lat="37.4996567" lon="14.9572267"><ele>154.66666666666666</ele><time>2026-03-29T09:15:50.343Z</time></trkpt><trkpt lat="37.49982" lon="14.9572917"><ele>156.0</ele><time>2026-03-29T09:15:51.343Z</time></trkpt><trkpt lat="37.4999867" lon="14.957365"><ele>156.0</ele><time>2026-03-29T09:15:52.342Z</time></trkpt><trkpt lat="37.5001483" lon="14.9574433"><ele>156.0</ele><time>2026-03-29T09:15:53.343Z</time></trkpt><trkpt lat="37.500305" lon="14.9575283"><ele>156.0</ele><time>2026-03-29T09:15:54.342Z</time></trkpt><trkpt lat="37.5004667" lon="14.9576233"><ele>157.33333333333334</ele><time>2026-03-29T09:15:55.342Z</time></trkpt><trkpt lat="37.500625" lon="14.9577167"><ele>158.66666666666669</ele><time>2026-03-29T09:15:56.343Z</time></trkpt><trkpt lat="37.500785" lon="14.9578067"><ele>160.0</ele><time>2026-03-29T09:15:57.343Z</time></trkpt><trkpt lat="37.5009383" lon="14.9578933"><ele>160.0</ele><time>2026-03-29T09:15:58.342Z</time></trkpt><trkpt lat="37.5010967" lon="14.9579883"><ele>160.0</ele><time>2026-03-29T09:15:59.342Z</time></trkpt><trkpt lat="37.50125" lon="14.95808"><ele>160.0</ele><time>2026-03-29T09:16:00.342Z</time></trkpt><trkpt lat="37.5014" lon="14.958175"><ele>160.66666666666669</ele><time>2026-03-29T09:16:01.342Z</time></trkpt><trkpt lat="37.5015433" lon="14.9582667"><ele>161.33333333333334</ele><time>2026-03-29T09:16:02.343Z</time></trkpt><trkpt lat="37.501685" lon="14.9583517"><ele>162.0</ele><time>2026-03-29T09:16:03.343Z</time></trkpt><trkpt lat="37.50182" lon="14.9584333"><ele>162.25</ele><time>2026-03-29T09:16:04.343Z</time></trkpt><trkpt lat="37.5019483" lon="14.9585117"><ele>162.5</ele><time>2026-03-29T09:16:05.342Z</time></trkpt><trkpt lat="37.5020717" lon="14.95858"><ele>162.75</ele><time>2026-03-29T09:16:06.342Z</time></trkpt><trkpt lat="37.5021933" lon="14.9586417"><ele>163.0</ele><time>2026-03-29T09:16:07.342Z</time></trkpt><trkpt lat="37.5023067" lon="14.9587233"><ele>162.5</ele><time>2026-03-29T09:16:08.342Z</time></trkpt><trkpt lat="37.5024267" lon="14.9588167"><ele>162.0</ele><time>2026-03-29T09:16:09.343Z</time></trkpt><trkpt lat="37.5025367" lon="14.95892"><ele>161.5</ele><time>2026-03-29T09:16:10.342Z</time></trkpt><trkpt lat="37.5026483" lon="14.9590083"><ele>161.0</ele><time>2026-03-29T09:16:11.342Z</time></trkpt><trkpt lat="37.50276" lon="14.9590933"><ele>161.0</ele><time>2026-03-29T09:16:12.343Z</time></trkpt><trkpt lat="37.5028783" lon="14.95917"><ele>161.0</ele><time>2026-03-29T09:16:13.342Z</time></trkpt><trkpt lat="37.5030033" lon="14.95924"><ele>161.0</ele><time>2026-03-29T09:16:14.342Z</time></trkpt><trkpt lat="37.5031233" lon="14.9592933"><ele>161.0</ele><time>2026-03-29T09:16:15.342Z</time></trkpt><trkpt lat="37.5032517" lon="14.9593517"><ele>159.5</ele><time>2026-03-29T09:16:16.342Z</time></trkpt><trkpt lat="37.5033783" lon="14.9594083"><ele>158.0</ele><time>2026-03-29T09:16:17.343Z</time></trkpt><trkpt lat="37.5035033" lon="14.9594633"><ele>156.5</ele><time>2026-03-29T09:16:18.343Z</time></trkpt><trkpt lat="37.5036217" lon="14.959515"><ele>155.0</ele><time>2026-03-29T09:16:19.343Z</time></trkpt><trkpt lat="37.5037367" lon="14.9595683"><ele>155.8</ele><time>2026-03-29T09:16:20.343Z</time></trkpt><trkpt lat="37.503845" lon="14.9596217"><ele>156.6</ele><time>2026-03-29T09:16:21.343Z</time></trkpt><trkpt lat="37.5039383" lon="14.95969"><ele>157.4</ele><time>2026-03-29T09:16:22.343Z</time></trkpt><trkpt lat="37.5040083" lon="14.959785"><ele>158.2</ele><time>2026-03-29T09:16:23.342Z</time></trkpt><trkpt lat="37.5040483" lon="14.95991"><ele>159.0</ele><time>2026-03-29T09:16:24.343Z</time></trkpt><trkpt lat="37.504055" lon="14.9600383"><ele>159.6</ele><time>2026-03-29T09:16:25.342Z</time></trkpt><trkpt lat="37.5040383" lon="14.9601617"><ele>160.2</ele><time>2026-03-29T09:16:26.343Z</time></trkpt><trkpt lat="37.5040017" lon="14.9602783"><ele>160.79999999999998</ele><time>2026-03-29T09:16:27.343Z</time></trkpt><trkpt lat="37.5039433" lon="14.9603933"><ele>161.4</ele><time>2026-03-29T09:16:28.343Z</time></trkpt><trkpt lat="37.5038717" lon="14.96049"><ele>162.0</ele><time>2026-03-29T09:16:29.343Z</time></trkpt><trkpt lat="37.5037867" lon="14.9605933"><ele>161.25</ele><time>2026-03-29T09:16:30.342Z</time></trkpt><trkpt lat="37.5036967" lon="14.9606967"><ele>160.5</ele><time>2026-03-29T09:16:31.342Z</time></trkpt><trkpt lat="37.5036083" lon="14.960795"><ele>159.75</ele><time>2026-03-29T09:16:32.343Z</time></trkpt><trkpt lat="37.5035233" lon="14.9609017"><ele>159.0</ele><time>2026-03-29T09:16:33.343Z</time></trkpt><trkpt lat="37.5034483" lon="14.96099"><ele>160.0</ele><time>2026-03-29T09:16:34.343Z</time></trkpt><trkpt lat="37.5034067" lon="14.961075"><ele>161.0</ele><time>2026-03-29T09:16:35.342Z</time></trkpt><trkpt lat="37.503395" lon="14.9611533"><ele>162.0</ele><time>2026-03-29T09:16:36.342Z</time></trkpt><trkpt lat="37.503455" lon="14.9612717"><ele>163.0</ele><time>2026-03-29T09:16:38.342Z</time></trkpt><trkpt lat="37.503525" lon="14.9612817"><ele>164.0</ele><time>2026-03-29T09:16:39.342Z</time></trkpt><trkpt lat="37.5036217" lon="14.9612517"><ele>165.0</ele><time>2026-03-29T09:16:40.343Z</time></trkpt><trkpt lat="37.5037317" lon="14.9612233"><ele>166.0</ele><time>2026-03-29T09:16:41.342Z</time></trkpt><trkpt lat="37.50384" lon="14.9612067"><ele>167.0</ele><time>2026-03-29T09:16:42.342Z</time></trkpt><trkpt lat="37.5039533" lon="14.9612"><ele>168.0</ele><time>2026-03-29T09:16:43.343Z</time></trkpt><trkpt lat="37.5040933" lon="14.96122"><ele>169.0</ele><time>2026-03-29T09:16:44.343Z</time></trkpt><trkpt lat="37.5042433" lon="14.961275"><ele>169.0</ele><time>2026-03-29T09:16:45.343Z</time></trkpt><trkpt lat="37.5044033" lon="14.961345"><ele>169.0</ele><time>2026-03-29T09:16:46.343Z</time></trkpt><trkpt lat="37.5045733" lon="14.9614533"><ele>169.0</ele><time>2026-03-29T09:16:47.343Z</time></trkpt><trkpt lat="37.5047517" lon="14.9615717"><ele>169.33333333333334</ele><time>2026-03-29T09:16:48.343Z</time></trkpt><trkpt lat="37.504925" lon="14.96169"><ele>169.66666666666666</ele><time>2026-03-29T09:16:49.343Z</time></trkpt><trkpt lat="37.5051017" lon="14.9618017"><ele>170.0</ele><time>2026-03-29T09:16:50.343Z</time></trkpt><trkpt lat="37.50528" lon="14.9619217"><ele>173.33333333333331</ele><time>2026-03-29T09:16:51.343Z</time></trkpt><trkpt lat="37.50546" lon="14.9620283"><ele>176.66666666666666</ele><time>2026-03-29T09:16:52.343Z</time></trkpt><trkpt lat="37.5056217" lon="14.962125"><ele>180.0</ele><time>2026-03-29T09:16:53.342Z</time></trkpt><trkpt lat="37.5057817" lon="14.9622"><ele>180.0</ele><time>2026-03-29T09:16:54.343Z</time></trkpt><trkpt lat="37.5059167" lon="14.9622683"><ele>180.0</ele><time>2026-03-29T09:16:55.343Z</time></trkpt><trkpt lat="37.5060483" lon="14.9623333"><ele>180.0</ele><time>2026-03-29T09:16:56.342Z</time></trkpt><trkpt lat="37.5061783" lon="14.96239"><ele>180.0</ele><time>2026-03-29T09:16:57.342Z</time></trkpt><trkpt lat="37.5062933" lon="14.96245"><ele>179.0</ele><time>2026-03-29T09:16:58.343Z</time></trkpt><trkpt lat="37.5064183" lon="14.962505"><ele>178.0</ele><time>2026-03-29T09:16:59.342Z</time></trkpt><trkpt lat="37.5065283" lon="14.9625633"><ele>177.0</ele><time>2026-03-29T09:17:00.342Z</time></trkpt><trkpt lat="37.50664" lon="14.9626233"><ele>176.0</ele><time>2026-03-29T09:17:01.342Z</time></trkpt><trkpt lat="37.50674" lon="14.9627133"><ele>178.5</ele><time>2026-03-29T09:17:02.342Z</time></trkpt><trkpt lat="37.5068283" lon="14.962815"><ele>181.0</ele><time>2026-03-29T09:17:03.342Z</time></trkpt><trkpt lat="37.5069167" lon="14.9629267"><ele>183.5</ele><time>2026-03-29T09:17:04.343Z</time></trkpt><trkpt lat="37.5070033" lon="14.9630417"><ele>186.0</ele><time>2026-03-29T09:17:05.343Z</time></trkpt><trkpt lat="37.507075" lon="14.963165"><ele>186.0</ele><time>2026-03-29T09:17:06.342Z</time></trkpt><trkpt lat="37.507135" lon="14.9632733"><ele>186.0</ele><time>2026-03-29T09:17:07.342Z</time></trkpt><trkpt lat="37.5071867" lon="14.9634183"><ele>186.0</ele><time>2026-03-29T09:17:08.342Z</time></trkpt><trkpt lat="37.5072317" lon="14.963555"><ele>186.0</ele><time>2026-03-29T09:17:09.343Z</time></trkpt><trkpt lat="37.5072733" lon="14.9637017"><ele>187.0</ele><time>2026-03-29T09:17:10.343Z</time></trkpt><trkpt lat="37.5073067" lon="14.963855"><ele>188.0</ele><time>2026-03-29T09:17:11.342Z</time></trkpt><trkpt lat="37.5073433" lon="14.9639983"><ele>189.0</ele><time>2026-03-29T09:17:12.342Z</time></trkpt><trkpt lat="37.5073767" lon="14.96414"><ele>190.0</ele><time>2026-03-29T09:17:13.343Z</time></trkpt><trkpt lat="37.507405" lon="14.9642733"><ele>190.8</ele><time>2026-03-29T09:17:14.342Z</time></trkpt><trkpt lat="37.5074333" lon="14.9643967"><ele>191.6</ele><time>2026-03-29T09:17:15.343Z</time></trkpt><trkpt lat="37.5074567" lon="14.9645167"><ele>192.39999999999998</ele><time>2026-03-29T09:17:16.343Z</time></trkpt><trkpt lat="37.507485" lon="14.9646383"><ele>193.2</ele><time>2026-03-29T09:17:17.342Z</time></trkpt><trkpt lat="37.50751" lon="14.9647567"><ele>194.0</ele><time>2026-03-29T09:17:18.342Z</time></trkpt><trkpt lat="37.507535" lon="14.96487"><ele>194.0</ele><time>2026-03-29T09:17:19.343Z</time></trkpt><trkpt lat="37.5075683" lon="14.96499"><ele>194.0</ele><time>2026-03-29T09:17:20.342Z</time></trkpt><trkpt lat="37.507595" lon="14.9651183"><ele>194.0</ele><time>2026-03-29T09:17:21.343Z</time></trkpt><trkpt lat="37.50762" lon="14.9652467"><ele>194.0</ele><time>2026-03-29T09:17:22.342Z</time></trkpt><trkpt lat="37.507655" lon="14.9653667"><ele>194.0</ele><time>2026-03-29T09:17:23.342Z</time></trkpt><trkpt lat="37.5076817" lon="14.9654883"><ele>194.79999999999998</ele><time>2026-03-29T09:17:24.342Z</time></trkpt><trkpt lat="37.5077183" lon="14.9655983"><ele>195.6</ele><time>2026-03-29T09:17:25.343Z</time></trkpt><trkpt lat="37.5077567" lon="14.9657017"><ele>196.4</ele><time>2026-03-29T09:17:26.343Z</time></trkpt><trkpt lat="37.5078167" lon="14.9657867"><ele>197.2</ele><time>2026-03-29T09:17:27.342Z</time></trkpt><trkpt lat="37.5078917" lon="14.9658633"><ele>198.0</ele><time>2026-03-29T09:17:28.342Z</time></trkpt><trkpt lat="37.5079667" lon="14.965905"><ele>199.2</ele><time>2026-03-29T09:17:29.343Z</time></trkpt><trkpt lat="37.5080567" lon="14.9659"><ele>200.4</ele><time>2026-03-29T09:17:30.343Z</time></trkpt><trkpt lat="37.50815" lon="14.9658467"><ele>201.6</ele><time>2026-03-29T09:17:31.343Z</time></trkpt><trkpt lat="37.508235" lon="14.9657833"><ele>202.79999999999998</ele><time>2026-03-29T09:17:32.342Z</time></trkpt><trkpt lat="37.50831" lon="14.9657283"><ele>204.0</ele><time>2026-03-29T09:17:33.342Z</time></trkpt><trkpt lat="37.5084033" lon="14.9656917"><ele>204.0</ele><time>2026-03-29T09:17:34.342Z</time></trkpt><trkpt lat="37.508495" lon="14.9656433"><ele>204.0</ele><time>2026-03-29T09:17:35.343Z</time></trkpt><trkpt lat="37.50858" lon="14.9655917"><ele>204.0</ele><time>2026-03-29T09:17:36.343Z</time></trkpt><trkpt lat="37.50866" lon="14.9655333"><ele>204.0</ele><time>2026-03-29T09:17:37.342Z</time></trkpt><trkpt lat="37.5087483" lon="14.9654883"><ele>204.0</ele><time>2026-03-29T09:17:38.343Z</time></trkpt><trkpt lat="37.5088317" lon="14.965435"><ele>205.6</ele><time>2026-03-29T09:17:39.343Z</time></trkpt><trkpt lat="37.5089367" lon="14.965375"><ele>207.2</ele><time>2026-03-29T09:17:40.343Z</time></trkpt><trkpt lat="37.5090433" lon="14.9653267"><ele>208.79999999999998</ele><time>2026-03-29T09:17:41.343Z</time></trkpt><trkpt lat="37.509145" lon="14.965275"><ele>210.39999999999998</ele><time>2026-03-29T09:17:42.342Z</time></trkpt><trkpt lat="37.5092433" lon="14.9652283"><ele>212.0</ele><time>2026-03-29T09:17:43.343Z</time></trkpt><trkpt lat="37.5093333" lon="14.9651933"><ele>212.0</ele><time>2026-03-29T09:17:44.343Z</time></trkpt><trkpt lat="37.5094233" lon="14.9651683"><ele>212.0</ele><time>2026-03-29T09:17:45.342Z</time></trkpt><trkpt lat="37.5095017" lon="14.9651583"><ele>212.0</ele><time>2026-03-29T09:17:46.343Z</time></trkpt><trkpt lat="37.5095667" lon="14.9651517"><ele>212.0</ele><time>2026-03-29T09:17:47.343Z</time></trkpt><trkpt lat="37.509635" lon="14.9651517"><ele>212.0</ele><time>2026-03-29T09:17:48.342Z</time></trkpt><trkpt lat="37.509705" lon="14.96515"><ele>212.0</ele><time>2026-03-29T09:17:49.343Z</time></trkpt><trkpt lat="37.50977" lon="14.9651633"><ele>212.0</ele><time>2026-03-29T09:17:50.343Z</time></trkpt><trkpt lat="37.5098617" lon="14.9651833"><ele>212.5</ele><time>2026-03-29T09:17:51.343Z</time></trkpt><trkpt lat="37.50997" lon="14.9652067"><ele>213.0</ele><time>2026-03-29T09:17:52.343Z</time></trkpt><trkpt lat="37.5100867" lon="14.96523"><ele>213.5</ele><time>2026-03-29T09:17:53.342Z</time></trkpt><trkpt lat="37.5101967" lon="14.9652717"><ele>214.0</ele><time>2026-03-29T09:17:54.342Z</time></trkpt><trkpt lat="37.5103067" lon="14.9653083"><ele>214.6</ele><time>2026-03-29T09:17:55.343Z</time></trkpt><trkpt lat="37.5104233" lon="14.965345"><ele>215.2</ele><time>2026-03-29T09:17:56.342Z</time></trkpt><trkpt lat="37.5105367" lon="14.96539"><ele>215.79999999999998</ele><time>2026-03-29T09:17:57.342Z</time></trkpt><trkpt lat="37.5106383" lon="14.96542"><ele>216.39999999999998</ele><time>2026-03-29T09:17:58.343Z</time></trkpt><trkpt lat="37.51073" lon="14.9654533"><ele>217.0</ele><time>2026-03-29T09:17:59.343Z</time></trkpt><trkpt lat="37.5108033" lon="14.965485"><ele>216.99999999999997</ele><time>2026-03-29T09:18:00.343Z</time></trkpt><trkpt lat="37.510885" lon="14.9655067"><ele>217.0</ele><time>2026-03-29T09:18:01.342Z</time></trkpt><trkpt lat="37.5109583" lon="14.965535"><ele>217.0</ele><time>2026-03-29T09:18:02.342Z</time></trkpt><trkpt lat="37.5110367" lon="14.9655583"><ele>217.0</ele><time>2026-03-29T09:18:03.343Z</time></trkpt><trkpt lat="37.511115" lon="14.9655833"><ele>216.99999999999997</ele><time>2026-03-29T09:18:04.343Z</time></trkpt><trkpt lat="37.5111983" lon="14.96561"><ele>217.0</ele><time>2026-03-29T09:18:05.342Z</time></trkpt><trkpt lat="37.5112867" lon="14.965625"><ele>217.33333333333331</ele><time>2026-03-29T09:18:06.342Z</time></trkpt><trkpt lat="37.5113667" lon="14.9656467"><ele>217.66666666666666</ele><time>2026-03-29T09:18:07.342Z</time></trkpt><trkpt lat="37.51145" lon="14.96566"><ele>218.0</ele><time>2026-03-29T09:18:08.343Z</time></trkpt><trkpt lat="37.5115383" lon="14.9656833"><ele>218.33333333333331</ele><time>2026-03-29T09:18:09.343Z</time></trkpt><trkpt lat="37.5116283" lon="14.9657033"><ele>218.66666666666666</ele><time>2026-03-29T09:18:10.342Z</time></trkpt><trkpt lat="37.5117183" lon="14.9657417"><ele>219.0</ele><time>2026-03-29T09:18:11.342Z</time></trkpt><trkpt lat="37.5118067" lon="14.9657917"><ele>219.0</ele><time>2026-03-29T09:18:12.343Z</time></trkpt><trkpt lat="37.5118967" lon="14.9658317"><ele>219.0</ele><time>2026-03-29T09:18:13.343Z</time></trkpt><trkpt lat="37.511985" lon="14.9658717"><ele>219.0</ele><time>2026-03-29T09:18:14.343Z</time></trkpt><trkpt lat="37.5120667" lon="14.9659167"><ele>219.0</ele><time>2026-03-29T09:18:15.343Z</time></trkpt><trkpt lat="37.51214" lon="14.9659567"><ele>219.0</ele><time>2026-03-29T09:18:16.343Z</time></trkpt><trkpt lat="37.51221" lon="14.9659967"><ele>219.0</ele><time>2026-03-29T09:18:17.342Z</time></trkpt><trkpt lat="37.5122883" lon="14.9660317"><ele>220.66666666666666</ele><time>2026-03-29T09:18:18.343Z</time></trkpt><trkpt lat="37.5123683" lon="14.9660683"><ele>222.33333333333331</ele><time>2026-03-29T09:18:19.343Z</time></trkpt><trkpt lat="37.5124467" lon="14.9660967"><ele>224.0</ele><time>2026-03-29T09:18:20.342Z</time></trkpt><trkpt lat="37.5125233" lon="14.9661267"><ele>225.66666666666666</ele><time>2026-03-29T09:18:21.343Z</time></trkpt><trkpt lat="37.5125983" lon="14.9661533"><ele>227.33333333333331</ele><time>2026-03-29T09:18:22.342Z</time></trkpt><trkpt lat="37.5126833" lon="14.9661817"><ele>229.0</ele><time>2026-03-29T09:18:23.343Z</time></trkpt><trkpt lat="37.51277" lon="14.9662083"><ele>229.0</ele><time>2026-03-29T09:18:24.342Z</time></trkpt><trkpt lat="37.5128667" lon="14.9662233"><ele>228.99999999999997</ele><time>2026-03-29T09:18:25.343Z</time></trkpt><trkpt lat="37.5129617" lon="14.96625"><ele>228.99999999999997</ele><time>2026-03-29T09:18:26.342Z</time></trkpt><trkpt lat="37.51305" lon="14.96628"><ele>229.0</ele><time>2026-03-29T09:18:27.342Z</time></trkpt><trkpt lat="37.513145" lon="14.9663"><ele>229.0</ele><time>2026-03-29T09:18:28.342Z</time></trkpt><trkpt lat="37.5132417" lon="14.96631"><ele>228.79999999999998</ele><time>2026-03-29T09:18:29.342Z</time></trkpt><trkpt lat="37.5133417" lon="14.96632"><ele>228.59999999999997</ele><time>2026-03-29T09:18:30.342Z</time></trkpt><trkpt lat="37.513445" lon="14.96634"><ele>228.4</ele><time>2026-03-29T09:18:31.342Z</time></trkpt><trkpt lat="37.5135483" lon="14.9663667"><ele>228.2</ele><time>2026-03-29T09:18:32.343Z</time></trkpt><trkpt lat="37.5136517" lon="14.966385"><ele>228.0</ele><time>2026-03-29T09:18:33.342Z</time></trkpt><trkpt lat="37.5137383" lon="14.9664133"><ele>229.66666666666666</ele><time>2026-03-29T09:18:34.342Z</time></trkpt><trkpt lat="37.5138133" lon="14.9664417"><ele>231.33333333333331</ele><time>2026-03-29T09:18:35.343Z</time></trkpt><trkpt lat="37.5138767" lon="14.966465"><ele>233.0</ele><time>2026-03-29T09:18:36.342Z</time></trkpt><trkpt lat="37.513955" lon="14.966495"><ele>234.66666666666666</ele><time>2026-03-29T09:18:38.343Z</time></trkpt><trkpt lat="37.51402" lon="14.9665183"><ele>236.33333333333331</ele><time>2026-03-29T09:18:48.342Z</time></trkpt><trkpt lat="37.51409" lon="14.9665533"><ele>238.0</ele><time>2026-03-29T09:18:50.343Z</time></trkpt><trkpt lat="37.5142183" lon="14.9665883"><ele>238.0</ele><time>2026-03-29T09:18:52.343Z</time></trkpt><trkpt lat="37.514305" lon="14.9665983"><ele>238.0</ele><time>2026-03-29T09:18:53.343Z</time></trkpt><trkpt lat="37.5144" lon="14.9666217"><ele>238.0</ele><time>2026-03-29T09:18:54.342Z</time></trkpt><trkpt lat="37.5144933" lon="14.9666383"><ele>238.0</ele><time>2026-03-29T09:18:55.342Z</time></trkpt><trkpt lat="37.5146" lon="14.9666617"><ele>238.0</ele><time>2026-03-29T09:18:56.342Z</time></trkpt><trkpt lat="37.5147017" lon="14.96669"><ele>240.8</ele><time>2026-03-29T09:18:57.342Z</time></trkpt><trkpt lat="37.5147983" lon="14.96671"><ele>243.60000000000002</ele><time>2026-03-29T09:18:58.343Z</time></trkpt><trkpt lat="37.5148967" lon="14.9667317"><ele>246.39999999999998</ele><time>2026-03-29T09:18:59.342Z</time></trkpt><trkpt lat="37.5149867" lon="14.9667467"><ele>249.2</ele><time>2026-03-29T09:19:00.343Z</time></trkpt><trkpt lat="37.51507" lon="14.966765"><ele>252.0</ele><time>2026-03-29T09:19:01.342Z</time></trkpt><trkpt lat="37.51515" lon="14.966785"><ele>252.0</ele><time>2026-03-29T09:19:02.342Z</time></trkpt><trkpt lat="37.5152367" lon="14.9668017"><ele>252.0</ele><time>2026-03-29T09:19:03.343Z</time></trkpt><trkpt lat="37.515325" lon="14.966835"><ele>252.0</ele><time>2026-03-29T09:19:04.343Z</time></trkpt><trkpt lat="37.515415" lon="14.9668633"><ele>252.0</ele><time>2026-03-29T09:19:05.343Z</time></trkpt><trkpt lat="37.5155083" lon="14.9668883"><ele>252.0</ele><time>2026-03-29T09:19:06.342Z</time></trkpt><trkpt lat="37.515605" lon="14.9668983"><ele>254.16666666666666</ele><time>2026-03-29T09:19:07.343Z</time></trkpt><trkpt lat="37.5156983" lon="14.9669267"><ele>256.3333333333333</ele><time>2026-03-29T09:19:08.342Z</time></trkpt><trkpt lat="37.5157833" lon="14.9669633"><ele>258.5</ele><time>2026-03-29T09:19:09.342Z</time></trkpt><trkpt lat="37.5158683" lon="14.966975"><ele>260.66666666666663</ele><time>2026-03-29T09:19:10.343Z</time></trkpt><trkpt lat="37.5159533" lon="14.9669967"><ele>262.8333333333333</ele><time>2026-03-29T09:19:11.342Z</time></trkpt><trkpt lat="37.5160383" lon="14.9670283"><ele>265.0</ele><time>2026-03-29T09:19:12.343Z</time></trkpt><trkpt lat="37.51611" lon="14.96706"><ele>265.0</ele><time>2026-03-29T09:19:13.343Z</time></trkpt><trkpt lat="37.5161833" lon="14.9670817"><ele>265.0</ele><time>2026-03-29T09:19:14.343Z</time></trkpt><trkpt lat="37.5162567" lon="14.9671183"><ele>265.0</ele><time>2026-03-29T09:19:15.343Z</time></trkpt><trkpt lat="37.5163267" lon="14.967135"><ele>265.0</ele><time>2026-03-29T09:19:16.343Z</time></trkpt><trkpt lat="37.5163983" lon="14.9671717"><ele>265.0</ele><time>2026-03-29T09:19:17.343Z</time></trkpt><trkpt lat="37.5164583" lon="14.9672083"><ele>265.0</ele><time>2026-03-29T09:19:18.342Z</time></trkpt><trkpt lat="37.5165767" lon="14.9672533"><ele>267.0</ele><time>2026-03-29T09:19:20.342Z</time></trkpt><trkpt lat="37.5166933" lon="14.9673033"><ele>269.0</ele><time>2026-03-29T09:19:22.343Z</time></trkpt><trkpt lat="37.5167617" lon="14.9673183"><ele>271.0</ele><time>2026-03-29T09:19:23.342Z</time></trkpt><trkpt lat="37.5168633" lon="14.96737"><ele>273.0</ele><time>2026-03-29T09:19:25.342Z</time></trkpt><trkpt lat="37.5169667" lon="14.967415"><ele>275.0</ele><time>2026-03-29T09:19:27.342Z</time></trkpt><trkpt lat="37.5170483" lon="14.9674433"><ele>274.83333333333337</ele><time>2026-03-29T09:19:29.342Z</time></trkpt><trkpt lat="37.5171267" lon="14.9674633"><ele>274.6666666666667</ele><time>2026-03-29T09:19:31.342Z</time></trkpt><trkpt lat="37.5171967" lon="14.967495"><ele>274.5</ele><time>2026-03-29T09:19:33.342Z</time></trkpt><trkpt lat="37.5173033" lon="14.9675367"><ele>274.3333333333333</ele><time>2026-03-29T09:19:35.343Z</time></trkpt><trkpt lat="37.517375" lon="14.9675833"><ele>274.16666666666663</ele><time>2026-03-29T09:19:36.343Z</time></trkpt><trkpt lat="37.5174517" lon="14.96763"><ele>274.0</ele><time>2026-03-29T09:19:37.343Z</time></trkpt><trkpt lat="37.5175317" lon="14.9676833"><ele>274.0</ele><time>2026-03-29T09:19:38.342Z</time></trkpt><trkpt lat="37.5175817" lon="14.967755"><ele>274.0</ele><time>2026-03-29T09:19:39.343Z</time></trkpt><trkpt lat="37.5176583" lon="14.9677833"><ele>274.0</ele><time>2026-03-29T09:19:40.342Z</time></trkpt><trkpt lat="37.5177333" lon="14.9678117"><ele>274.0</ele><time>2026-03-29T09:19:41.342Z</time></trkpt><trkpt lat="37.5178083" lon="14.9678217"><ele>274.0</ele><time>2026-03-29T09:19:42.343Z</time></trkpt><trkpt lat="37.5178867" lon="14.9678133"><ele>274.0</ele><time>2026-03-29T09:19:43.342Z</time></trkpt><trkpt lat="37.5179633" lon="14.96779"><ele>274.5</ele><time>2026-03-29T09:19:44.342Z</time></trkpt><trkpt lat="37.518035" lon="14.9677517"><ele>275.0</ele><time>2026-03-29T09:19:45.342Z</time></trkpt><trkpt lat="37.5181" lon="14.9677033"><ele>275.5</ele><time>2026-03-29T09:19:46.343Z</time></trkpt><trkpt lat="37.5181583" lon="14.96766"><ele>276.0</ele><time>2026-03-29T09:19:47.342Z</time></trkpt><trkpt lat="37.5182133" lon="14.9676133"><ele>276.5</ele><time>2026-03-29T09:19:48.342Z</time></trkpt><trkpt lat="37.518265" lon="14.967555"><ele>277.0</ele><time>2026-03-29T09:19:49.342Z</time></trkpt><trkpt lat="37.5183533" lon="14.9674867"><ele>279.0</ele><time>2026-03-29T09:19:51.343Z</time></trkpt><trkpt lat="37.5184317" lon="14.96744"><ele>281.0</ele><time>2026-03-29T09:19:53.343Z</time></trkpt><trkpt lat="37.5185217" lon="14.967405"><ele>283.0</ele><time>2026-03-29T09:19:55.343Z</time></trkpt><trkpt lat="37.5186233" lon="14.9673733"><ele>285.0</ele><time>2026-03-29T09:19:57.343Z</time></trkpt><trkpt lat="37.5187283" lon="14.9673483"><ele>287.0</ele><time>2026-03-29T09:19:59.343Z</time></trkpt><trkpt lat="37.518825" lon="14.9673367"><ele>287.6666666666667</ele><time>2026-03-29T09:20:01.342Z</time></trkpt><trkpt lat="37.5189383" lon="14.9673383"><ele>288.33333333333337</ele><time>2026-03-29T09:20:03.342Z</time></trkpt><trkpt lat="37.5190083" lon="14.9673383"><ele>289.0</ele><time>2026-03-29T09:20:04.342Z</time></trkpt><trkpt lat="37.5190733" lon="14.9673367"><ele>289.6666666666667</ele><time>2026-03-29T09:20:05.342Z</time></trkpt><trkpt lat="37.5191367" lon="14.967335"><ele>290.3333333333333</ele><time>2026-03-29T09:20:06.343Z</time></trkpt><trkpt lat="37.51925" lon="14.96735"><ele>291.0</ele><time>2026-03-29T09:20:08.342Z</time></trkpt><trkpt lat="37.519335" lon="14.9673583"><ele>291.0</ele><time>2026-03-29T09:20:10.342Z</time></trkpt><trkpt lat="37.5194267" lon="14.9673683"><ele>291.0</ele><time>2026-03-29T09:20:12.342Z</time></trkpt><trkpt lat="37.5195333" lon="14.9674183"><ele>291.0</ele><time>2026-03-29T09:20:14.342Z</time></trkpt><trkpt lat="37.519605" lon="14.967445"><ele>291.0</ele><time>2026-03-29T09:20:15.343Z</time></trkpt><trkpt lat="37.519675" lon="14.9674667"><ele>291.0</ele><time>2026-03-29T09:20:16.342Z</time></trkpt><trkpt lat="37.51975" lon="14.9674867"><ele>291.0</ele><time>2026-03-29T09:20:17.342Z</time></trkpt><trkpt lat="37.51982" lon="14.9675017"><ele>289.6666666666667</ele><time>2026-03-29T09:20:18.342Z</time></trkpt><trkpt lat="37.5199" lon="14.9675317"><ele>288.3333333333333</ele><time>2026-03-29T09:20:19.343Z</time></trkpt><trkpt lat="37.5199717" lon="14.9675583"><ele>287.0</ele><time>2026-03-29T09:20:20.343Z</time></trkpt><trkpt lat="37.520045" lon="14.96758"><ele>285.66666666666663</ele><time>2026-03-29T09:20:21.343Z</time></trkpt><trkpt lat="37.5201183" lon="14.967615"><ele>284.3333333333333</ele><time>2026-03-29T09:20:22.342Z</time></trkpt><trkpt lat="37.5201967" lon="14.9676433"><ele>283.0</ele><time>2026-03-29T09:20:23.343Z</time></trkpt><trkpt lat="37.5202883" lon="14.9676617"><ele>283.0</ele><time>2026-03-29T09:20:24.343Z</time></trkpt><trkpt lat="37.5203683" lon="14.9676767"><ele>283.0</ele><time>2026-03-29T09:20:25.342Z</time></trkpt><trkpt lat="37.520435" lon="14.96769"><ele>283.0</ele><time>2026-03-29T09:20:26.343Z</time></trkpt><trkpt lat="37.520545" lon="14.9677233"><ele>283.0</ele><time>2026-03-29T09:20:28.342Z</time></trkpt><trkpt lat="37.52065" lon="14.967785"><ele>283.0</ele><time>2026-03-29T09:20:30.342Z</time></trkpt><trkpt lat="37.5207117" lon="14.9678217"><ele>283.0</ele><time>2026-03-29T09:20:31.343Z</time></trkpt><trkpt lat="37.5207783" lon="14.9678733"><ele>283.42857142857144</ele><time>2026-03-29T09:20:32.342Z</time></trkpt><trkpt lat="37.5208367" lon="14.967935"><ele>283.8571428571429</ele><time>2026-03-29T09:20:33.343Z</time></trkpt><trkpt lat="37.52089" lon="14.9679933"><ele>284.2857142857143</ele><time>2026-03-29T09:20:34.342Z</time></trkpt><trkpt lat="37.5209333" lon="14.9680583"><ele>284.7142857142857</ele><time>2026-03-29T09:20:35.342Z</time></trkpt><trkpt lat="37.5209733" lon="14.9681233"><ele>285.1428571428571</ele><time>2026-03-29T09:20:36.342Z</time></trkpt><trkpt lat="37.5210067" lon="14.9681917"><ele>285.57142857142856</ele><time>2026-03-29T09:20:37.343Z</time></trkpt><trkpt lat="37.5210517" lon="14.968265"><ele>286.0</ele><time>2026-03-29T09:20:38.343Z</time></trkpt><trkpt lat="37.5211" lon="14.9683383"><ele>285.99999999999994</ele><time>2026-03-29T09:20:39.342Z</time></trkpt><trkpt lat="37.5211467" lon="14.9684017"><ele>286.0</ele><time>2026-03-29T09:20:40.343Z</time></trkpt><trkpt lat="37.52119" lon="14.9684667"><ele>286.0</ele><time>2026-03-29T09:20:41.342Z</time></trkpt><trkpt lat="37.5212367" lon="14.9685367"><ele>286.0</ele><time>2026-03-29T09:20:42.343Z</time></trkpt><trkpt lat="37.5212883" lon="14.96861"><ele>286.0</ele><time>2026-03-29T09:20:43.343Z</time></trkpt><trkpt lat="37.521345" lon="14.968685"><ele>285.99999999999994</ele><time>2026-03-29T09:20:44.343Z</time></trkpt><trkpt lat="37.5213917" lon="14.9687483"><ele>286.0</ele><time>2026-03-29T09:20:45.343Z</time></trkpt><trkpt lat="37.5214367" lon="14.968815"><ele>285.99999999999994</ele><time>2026-03-29T09:20:46.343Z</time></trkpt><trkpt lat="37.52149" lon="14.968885"><ele>286.0</ele><time>2026-03-29T09:20:47.343Z</time></trkpt><trkpt lat="37.5215467" lon="14.9689583"><ele>286.0</ele><time>2026-03-29T09:20:48.342Z</time></trkpt><trkpt lat="37.5216067" lon="14.9690267"><ele>286.0</ele><time>2026-03-29T09:20:49.342Z</time></trkpt><trkpt lat="37.5216567" lon="14.96909"><ele>286.0</ele><time>2026-03-29T09:20:50.342Z</time></trkpt><trkpt lat="37.5217" lon="14.96915"><ele>285.99999999999994</ele><time>2026-03-29T09:20:51.343Z</time></trkpt><trkpt lat="37.52175" lon="14.969215"><ele>286.0</ele><time>2026-03-29T09:20:52.342Z</time></trkpt><trkpt lat="37.5218067" lon="14.9692733"><ele>285.6</ele><time>2026-03-29T09:20:53.343Z</time></trkpt><trkpt lat="37.5218667" lon="14.9693367"><ele>285.20000000000005</ele><time>2026-03-29T09:20:54.342Z</time></trkpt><trkpt lat="37.5219267" lon="14.969405"><ele>284.79999999999995</ele><time>2026-03-29T09:20:55.342Z</time></trkpt><trkpt lat="37.522" lon="14.9694817"><ele>284.4</ele><time>2026-03-29T09:20:56.343Z</time></trkpt><trkpt lat="37.52208" lon="14.9695583"><ele>284.0</ele><time>2026-03-29T09:20:57.343Z</time></trkpt><trkpt lat="37.5221567" lon="14.9696467"><ele>285.0</ele><time>2026-03-29T09:20:58.343Z</time></trkpt><trkpt lat="37.5222367" lon="14.9697333"><ele>286.0</ele><time>2026-03-29T09:20:59.343Z</time></trkpt><trkpt lat="37.52232" lon="14.9698283"><ele>287.0</ele><time>2026-03-29T09:21:00.342Z</time></trkpt><trkpt lat="37.5224017" lon="14.969925"><ele>288.0</ele><time>2026-03-29T09:21:01.343Z</time></trkpt><trkpt lat="37.522485" lon="14.9700267"><ele>289.0</ele><time>2026-03-29T09:21:02.343Z</time></trkpt><trkpt lat="37.52257" lon="14.9701267"><ele>289.0</ele><time>2026-03-29T09:21:03.343Z</time></trkpt><trkpt lat="37.52266" lon="14.9702333"><ele>289.0</ele><time>2026-03-29T09:21:04.343Z</time></trkpt><trkpt lat="37.52276" lon="14.9703517"><ele>289.0</ele><time>2026-03-29T09:21:05.342Z</time></trkpt><trkpt lat="37.5228533" lon="14.9704683"><ele>289.0</ele><time>2026-03-29T09:21:06.342Z</time></trkpt><trkpt lat="37.5229417" lon="14.970585"><ele>288.5</ele><time>2026-03-29T09:21:07.343Z</time></trkpt><trkpt lat="37.523025" lon="14.97071"><ele>288.0</ele><time>2026-03-29T09:21:08.342Z</time></trkpt><trkpt lat="37.5231117" lon="14.970825"><ele>287.5</ele><time>2026-03-29T09:21:09.342Z</time></trkpt><trkpt lat="37.5231817" lon="14.9709583"><ele>287.0</ele><time>2026-03-29T09:21:10.342Z</time></trkpt><trkpt lat="37.5232533" lon="14.9710783"><ele>286.5</ele><time>2026-03-29T09:21:11.342Z</time></trkpt><trkpt lat="37.5233333" lon="14.9712017"><ele>286.0</ele><time>2026-03-29T09:21:12.342Z</time></trkpt><trkpt lat="37.5234183" lon="14.9713333"><ele>285.5</ele><time>2026-03-29T09:21:13.342Z</time></trkpt><trkpt lat="37.5235067" lon="14.971455"><ele>285.0</ele><time>2026-03-29T09:21:14.342Z</time></trkpt><trkpt lat="37.52359" lon="14.9715783"><ele>285.0</ele><time>2026-03-29T09:21:15.343Z</time></trkpt><trkpt lat="37.5236783" lon="14.971705"><ele>285.0</ele><time>2026-03-29T09:21:16.343Z</time></trkpt><trkpt lat="37.5237583" lon="14.971825"><ele>285.0</ele><time>2026-03-29T09:21:17.342Z</time></trkpt><trkpt lat="37.5238367" lon="14.97194"><ele>285.0</ele><time>2026-03-29T09:21:18.343Z</time></trkpt><trkpt lat="37.52391" lon="14.9720483"><ele>285.0</ele><time>2026-03-29T09:21:19.343Z</time></trkpt><trkpt lat="37.5239833" lon="14.9721583"><ele>285.0</ele><time>2026-03-29T09:21:20.342Z</time></trkpt><trkpt lat="37.5240633" lon="14.9722717"><ele>285.0</ele><time>2026-03-29T09:21:21.342Z</time></trkpt><trkpt lat="37.524145" lon="14.972385"><ele>285.0</ele><time>2026-03-29T09:21:22.342Z</time></trkpt><trkpt lat="37.52422" lon="14.9724967"><ele>285.0</ele><time>2026-03-29T09:21:23.342Z</time></trkpt><trkpt lat="37.5242933" lon="14.9726133"><ele>285.0</ele><time>2026-03-29T09:21:24.342Z</time></trkpt><trkpt lat="37.524375" lon="14.9727333"><ele>285.0</ele><time>2026-03-29T09:21:25.343Z</time></trkpt><trkpt lat="37.5244683" lon="14.9728633"><ele>285.0</ele><time>2026-03-29T09:21:26.342Z</time></trkpt><trkpt lat="37.5245717" lon="14.9729967"><ele>285.0</ele><time>2026-03-29T09:21:27.343Z</time></trkpt><trkpt lat="37.524685" lon="14.9731333"><ele>285.0</ele><time>2026-03-29T09:21:28.342Z</time></trkpt><trkpt lat="37.5247933" lon="14.973275"><ele>285.0</ele><time>2026-03-29T09:21:29.342Z</time></trkpt><trkpt lat="37.524905" lon="14.9734167"><ele>283.0</ele><time>2026-03-29T09:21:30.343Z</time></trkpt><trkpt lat="37.5250183" lon="14.9735633"><ele>281.0</ele><time>2026-03-29T09:21:31.343Z</time></trkpt><trkpt lat="37.5251267" lon="14.97371"><ele>279.0</ele><time>2026-03-29T09:21:32.342Z</time></trkpt><trkpt lat="37.52525" lon="14.9738533"><ele>279.0</ele><time>2026-03-29T09:21:33.343Z</time></trkpt><trkpt lat="37.5253717" lon="14.9739917"><ele>279.0</ele><time>2026-03-29T09:21:34.343Z</time></trkpt><trkpt lat="37.5255017" lon="14.9741367"><ele>279.0</ele><time>2026-03-29T09:21:35.343Z</time></trkpt><trkpt lat="37.525635" lon="14.9742833"><ele>279.3333333333333</ele><time>2026-03-29T09:21:36.343Z</time></trkpt><trkpt lat="37.52577" lon="14.974435"><ele>279.66666666666663</ele><time>2026-03-29T09:21:37.343Z</time></trkpt><trkpt lat="37.5259067" lon="14.9745883"><ele>280.0</ele><time>2026-03-29T09:21:38.343Z</time></trkpt><trkpt lat="37.52604" lon="14.9747433"><ele>280.0</ele><time>2026-03-29T09:21:39.343Z</time></trkpt><trkpt lat="37.5261717" lon="14.9749033"><ele>280.0</ele><time>2026-03-29T09:21:40.342Z</time></trkpt><trkpt lat="37.5262933" lon="14.9750667"><ele>280.0</ele><time>2026-03-29T09:21:41.342Z</time></trkpt><trkpt lat="37.5264083" lon="14.9752333"><ele>283.3333333333333</ele><time>2026-03-29T09:21:42.343Z</time></trkpt><trkpt lat="37.5265233" lon="14.9754067"><ele>286.6666666666667</ele><time>2026-03-29T09:21:43.342Z</time></trkpt><trkpt lat="37.5266333" lon="14.9755917"><ele>290.0</ele><time>2026-03-29T09:21:44.343Z</time></trkpt><trkpt lat="37.5267383" lon="14.9757767"><ele>290.25</ele><time>2026-03-29T09:21:45.343Z</time></trkpt><trkpt lat="37.5268317" lon="14.9759417"><ele>290.5</ele><time>2026-03-29T09:21:46.342Z</time></trkpt><trkpt lat="37.5269117" lon="14.9760933"><ele>290.75</ele><time>2026-03-29T09:21:47.342Z</time></trkpt><trkpt lat="37.5269933" lon="14.9762417"><ele>291.0</ele><time>2026-03-29T09:21:48.343Z</time></trkpt><trkpt lat="37.527075" lon="14.9763867"><ele>292.75</ele><time>2026-03-29T09:21:49.343Z</time></trkpt><trkpt lat="37.527155" lon="14.9765283"><ele>294.5</ele><time>2026-03-29T09:21:50.343Z</time></trkpt><trkpt lat="37.5272233" lon="14.976665"><ele>296.25</ele><time>2026-03-29T09:21:51.343Z</time></trkpt><trkpt lat="37.5272833" lon="14.97679"><ele>298.0</ele><time>2026-03-29T09:21:52.343Z</time></trkpt><trkpt lat="37.5273333" lon="14.9769"><ele>298.0</ele><time>2026-03-29T09:21:53.342Z</time></trkpt><trkpt lat="37.5273717" lon="14.9769833"><ele>298.0</ele><time>2026-03-29T09:21:54.343Z</time></trkpt><trkpt lat="37.5274317" lon="14.9770483"><ele>298.0</ele><time>2026-03-29T09:21:55.342Z</time></trkpt><trkpt lat="37.5274967" lon="14.977075"><ele>298.0</ele><time>2026-03-29T09:21:56.342Z</time></trkpt><trkpt lat="37.5275633" lon="14.97706"><ele>298.0</ele><time>2026-03-29T09:21:57.342Z</time></trkpt><trkpt lat="37.5276217" lon="14.9770083"><ele>298.0</ele><time>2026-03-29T09:21:58.342Z</time></trkpt><trkpt lat="37.5276533" lon="14.97692"><ele>298.0</ele><time>2026-03-29T09:21:59.342Z</time></trkpt><trkpt lat="37.5276667" lon="14.9768067"><ele>298.0</ele><time>2026-03-29T09:22:00.342Z</time></trkpt><trkpt lat="37.52768" lon="14.976675"><ele>298.0</ele><time>2026-03-29T09:22:01.343Z</time></trkpt><trkpt lat="37.5276933" lon="14.9765233"><ele>298.0</ele><time>2026-03-29T09:22:02.343Z</time></trkpt><trkpt lat="37.52772" lon="14.9763683"><ele>298.0</ele><time>2026-03-29T09:22:03.343Z</time></trkpt><trkpt lat="37.5277517" lon="14.9762033"><ele>298.0</ele><time>2026-03-29T09:22:04.342Z</time></trkpt><trkpt lat="37.5277867" lon="14.9760233"><ele>298.0</ele><time>2026-03-29T09:22:05.342Z</time></trkpt><trkpt lat="37.5278233" lon="14.9758233"><ele>298.0</ele><time>2026-03-29T09:22:06.343Z</time></trkpt><trkpt lat="37.5278567" lon="14.9756233"><ele>297.0</ele><time>2026-03-29T09:22:07.342Z</time></trkpt><trkpt lat="37.5278933" lon="14.97541"><ele>296.0</ele><time>2026-03-29T09:22:08.343Z</time></trkpt><trkpt lat="37.5279333" lon="14.9751983"><ele>295.0</ele><time>2026-03-29T09:22:09.342Z</time></trkpt><trkpt lat="37.5279717" lon="14.975"><ele>293.66666666666663</ele><time>2026-03-29T09:22:10.342Z</time></trkpt><trkpt lat="37.52801" lon="14.9747883"><ele>292.3333333333333</ele><time>2026-03-29T09:22:11.343Z</time></trkpt><trkpt lat="37.5280433" lon="14.9745867"><ele>291.0</ele><time>2026-03-29T09:22:12.342Z</time></trkpt><trkpt lat="37.5280817" lon="14.97438"><ele>290.3333333333333</ele><time>2026-03-29T09:22:13.342Z</time></trkpt><trkpt lat="37.5281133" lon="14.9741733"><ele>289.66666666666663</ele><time>2026-03-29T09:22:14.342Z</time></trkpt><trkpt lat="37.528155" lon="14.9739767"><ele>289.0</ele><time>2026-03-29T09:22:15.342Z</time></trkpt><trkpt lat="37.52822" lon="14.9738083"><ele>289.0</ele><time>2026-03-29T09:22:16.342Z</time></trkpt><trkpt lat="37.52831" lon="14.9736433"><ele>289.0</ele><time>2026-03-29T09:22:17.343Z</time></trkpt><trkpt lat="37.5284133" lon="14.973485"><ele>289.0</ele><time>2026-03-29T09:22:18.343Z</time></trkpt><trkpt lat="37.5285267" lon="14.9733233"><ele>288.0</ele><time>2026-03-29T09:22:19.343Z</time></trkpt><trkpt lat="37.528645" lon="14.973165"><ele>287.0</ele><time>2026-03-29T09:22:20.343Z</time></trkpt><trkpt lat="37.5287633" lon="14.9729983"><ele>286.0</ele><time>2026-03-29T09:22:21.342Z</time></trkpt><trkpt lat="37.5288733" lon="14.9728433"><ele>285.66666666666663</ele><time>2026-03-29T09:22:22.342Z</time></trkpt><trkpt lat="37.5289917" lon="14.97268"><ele>285.3333333333333</ele><time>2026-03-29T09:22:23.342Z</time></trkpt><trkpt lat="37.52911" lon="14.9725233"><ele>285.0</ele><time>2026-03-29T09:22:24.342Z</time></trkpt><trkpt lat="37.5292283" lon="14.9723767"><ele>285.0</ele><time>2026-03-29T09:22:25.342Z</time></trkpt><trkpt lat="37.5293483" lon="14.9722533"><ele>285.0</ele><time>2026-03-29T09:22:26.343Z</time></trkpt><trkpt lat="37.5294683" lon="14.9721383"><ele>285.0</ele><time>2026-03-29T09:22:27.343Z</time></trkpt><trkpt lat="37.5295917" lon="14.9720383"><ele>285.3333333333333</ele><time>2026-03-29T09:22:28.343Z</time></trkpt><trkpt lat="37.5297267" lon="14.971965"><ele>285.66666666666663</ele><time>2026-03-29T09:22:29.342Z</time></trkpt><trkpt lat="37.52987" lon="14.9719133"><ele>286.0</ele><time>2026-03-29T09:22:30.342Z</time></trkpt><trkpt lat="37.5300217" lon="14.97188"><ele>286.0</ele><time>2026-03-29T09:22:31.342Z</time></trkpt><trkpt lat="37.530175" lon="14.9718533"><ele>286.0</ele><time>2026-03-29T09:22:32.342Z</time></trkpt><trkpt lat="37.5303333" lon="14.9718183"><ele>286.0</ele><time>2026-03-29T09:22:33.343Z</time></trkpt><trkpt lat="37.530495" lon="14.97179"><ele>285.3333333333333</ele><time>2026-03-29T09:22:34.342Z</time></trkpt><trkpt lat="37.5306517" lon="14.9717567"><ele>284.6666666666667</ele><time>2026-03-29T09:22:35.343Z</time></trkpt><trkpt lat="37.5307983" lon="14.9717217"><ele>284.0</ele><time>2026-03-29T09:22:36.342Z</time></trkpt><trkpt lat="37.5309367" lon="14.971665"><ele>283.0</ele><time>2026-03-29T09:22:37.343Z</time></trkpt><trkpt lat="37.5310617" lon="14.9715783"><ele>282.0</ele><time>2026-03-29T09:22:38.343Z</time></trkpt><trkpt lat="37.5311717" lon="14.971455"><ele>281.0</ele><time>2026-03-29T09:22:39.342Z</time></trkpt><trkpt lat="37.5312683" lon="14.9713133"><ele>280.0</ele><time>2026-03-29T09:22:40.343Z</time></trkpt><trkpt lat="37.5313633" lon="14.9711583"><ele>279.0</ele><time>2026-03-29T09:22:41.343Z</time></trkpt><trkpt lat="37.531465" lon="14.9709967"><ele>278.0</ele><time>2026-03-29T09:22:42.342Z</time></trkpt><trkpt lat="37.5315717" lon="14.9708333"><ele>277.0</ele><time>2026-03-29T09:22:43.343Z</time></trkpt><trkpt lat="37.5316717" lon="14.97067"><ele>276.3333333333333</ele><time>2026-03-29T09:22:44.343Z</time></trkpt><trkpt lat="37.5317683" lon="14.9705167"><ele>275.6666666666667</ele><time>2026-03-29T09:22:45.343Z</time></trkpt><trkpt lat="37.5318667" lon="14.9703483"><ele>275.0</ele><time>2026-03-29T09:22:46.342Z</time></trkpt><trkpt lat="37.5319633" lon="14.9701667"><ele>274.0</ele><time>2026-03-29T09:22:47.342Z</time></trkpt><trkpt lat="37.53206" lon="14.9699833"><ele>273.0</ele><time>2026-03-29T09:22:48.342Z</time></trkpt><trkpt lat="37.5321517" lon="14.969795"><ele>272.0</ele><time>2026-03-29T09:22:49.343Z</time></trkpt><trkpt lat="37.5322483" lon="14.9695967"><ele>272.0</ele><time>2026-03-29T09:22:50.343Z</time></trkpt><trkpt lat="37.53234" lon="14.9694033"><ele>272.0</ele><time>2026-03-29T09:22:51.343Z</time></trkpt><trkpt lat="37.5324283" lon="14.9692067"><ele>272.0</ele><time>2026-03-29T09:22:52.342Z</time></trkpt><trkpt lat="37.5325267" lon="14.9690017"><ele>271.0</ele><time>2026-03-29T09:22:53.342Z</time></trkpt><trkpt lat="37.5326167" lon="14.9688"><ele>270.0</ele><time>2026-03-29T09:22:54.342Z</time></trkpt><trkpt lat="37.53271" lon="14.9685983"><ele>269.0</ele><time>2026-03-29T09:22:55.343Z</time></trkpt><trkpt lat="37.5327967" lon="14.9684017"><ele>267.6666666666667</ele><time>2026-03-29T09:22:56.343Z</time></trkpt><trkpt lat="37.5328867" lon="14.9681983"><ele>266.3333333333333</ele><time>2026-03-29T09:22:57.343Z</time></trkpt><trkpt lat="37.53298" lon="14.968"><ele>265.0</ele><time>2026-03-29T09:22:58.342Z</time></trkpt><trkpt lat="37.53307" lon="14.9678017"><ele>265.0</ele><time>2026-03-29T09:22:59.342Z</time></trkpt><trkpt lat="37.533155" lon="14.9675967"><ele>265.0</ele><time>2026-03-29T09:23:00.343Z</time></trkpt><trkpt lat="37.5332517" lon="14.9674"><ele>265.0</ele><time>2026-03-29T09:23:01.343Z</time></trkpt><trkpt lat="37.5333433" lon="14.9671933"><ele>264.3333333333333</ele><time>2026-03-29T09:23:02.343Z</time></trkpt><trkpt lat="37.5334383" lon="14.966985"><ele>263.6666666666667</ele><time>2026-03-29T09:23:03.342Z</time></trkpt><trkpt lat="37.5335383" lon="14.9667733"><ele>263.0</ele><time>2026-03-29T09:23:04.343Z</time></trkpt><trkpt lat="37.5336383" lon="14.96656"><ele>262.6666666666667</ele><time>2026-03-29T09:23:05.342Z</time></trkpt><trkpt lat="37.5337317" lon="14.9663583"><ele>262.3333333333333</ele><time>2026-03-29T09:23:06.343Z</time></trkpt><trkpt lat="37.53382" lon="14.9661483"><ele>262.0</ele><time>2026-03-29T09:23:07.343Z</time></trkpt><trkpt lat="37.533925" lon="14.965935"><ele>261.3333333333333</ele><time>2026-03-29T09:23:08.342Z</time></trkpt><trkpt lat="37.5340267" lon="14.965725"><ele>260.6666666666667</ele><time>2026-03-29T09:23:09.342Z</time></trkpt><trkpt lat="37.5341317" lon="14.9655167"><ele>260.0</ele><time>2026-03-29T09:23:10.342Z</time></trkpt><trkpt lat="37.5342333" lon="14.96531"><ele>260.0</ele><time>2026-03-29T09:23:11.343Z</time></trkpt><trkpt lat="37.53433" lon="14.9650967"><ele>260.0</ele><time>2026-03-29T09:23:12.343Z</time></trkpt><trkpt lat="37.534435" lon="14.9648933"><ele>260.0</ele><time>2026-03-29T09:23:13.342Z</time></trkpt><trkpt lat="37.5345483" lon="14.9646983"><ele>258.6666666666667</ele><time>2026-03-29T09:23:14.343Z</time></trkpt><trkpt lat="37.5346683" lon="14.96451"><ele>257.3333333333333</ele><time>2026-03-29T09:23:15.343Z</time></trkpt><trkpt lat="37.5348" lon="14.9643367"><ele>256.0</ele><time>2026-03-29T09:23:16.342Z</time></trkpt><trkpt lat="37.5349333" lon="14.964165"><ele>256.0</ele><time>2026-03-29T09:23:17.342Z</time></trkpt><trkpt lat="37.5350733" lon="14.9639917"><ele>256.0</ele><time>2026-03-29T09:23:18.343Z</time></trkpt><trkpt lat="37.535215" lon="14.963815"><ele>256.0</ele><time>2026-03-29T09:23:19.343Z</time></trkpt><trkpt lat="37.5353533" lon="14.9636367"><ele>255.66666666666666</ele><time>2026-03-29T09:23:20.343Z</time></trkpt><trkpt lat="37.5354917" lon="14.9634617"><ele>255.33333333333331</ele><time>2026-03-29T09:23:21.342Z</time></trkpt><trkpt lat="37.53563" lon="14.9632833"><ele>255.0</ele><time>2026-03-29T09:23:22.343Z</time></trkpt><trkpt lat="37.5357683" lon="14.963105"><ele>254.66666666666669</ele><time>2026-03-29T09:23:23.343Z</time></trkpt><trkpt lat="37.535905" lon="14.962925"><ele>254.33333333333334</ele><time>2026-03-29T09:23:24.342Z</time></trkpt><trkpt lat="37.5360367" lon="14.9627417"><ele>254.0</ele><time>2026-03-29T09:23:25.342Z</time></trkpt><trkpt lat="37.53617" lon="14.96256"><ele>253.0</ele><time>2026-03-29T09:23:26.342Z</time></trkpt><trkpt lat="37.5363017" lon="14.9623817"><ele>252.0</ele><time>2026-03-29T09:23:27.342Z</time></trkpt><trkpt lat="37.53643" lon="14.9622033"><ele>251.0</ele><time>2026-03-29T09:23:28.342Z</time></trkpt><trkpt lat="37.536565" lon="14.9620267"><ele>251.0</ele><time>2026-03-29T09:23:29.342Z</time></trkpt><trkpt lat="37.536695" lon="14.9618483"><ele>251.0</ele><time>2026-03-29T09:23:30.342Z</time></trkpt><trkpt lat="37.536815" lon="14.9616767"><ele>251.0</ele><time>2026-03-29T09:23:31.343Z</time></trkpt><trkpt lat="37.53693" lon="14.961515"><ele>251.33333333333334</ele><time>2026-03-29T09:23:32.342Z</time></trkpt><trkpt lat="37.537045" lon="14.961355"><ele>251.66666666666669</ele><time>2026-03-29T09:23:33.343Z</time></trkpt><trkpt lat="37.537165" lon="14.9611917"><ele>252.0</ele><time>2026-03-29T09:23:34.342Z</time></trkpt><trkpt lat="37.53729" lon="14.9610317"><ele>252.0</ele><time>2026-03-29T09:23:35.343Z</time></trkpt><trkpt lat="37.5374183" lon="14.9608667"><ele>252.0</ele><time>2026-03-29T09:23:36.342Z</time></trkpt><trkpt lat="37.5375417" lon="14.96069"><ele>252.0</ele><time>2026-03-29T09:23:37.342Z</time></trkpt><trkpt lat="37.53767" lon="14.96052"><ele>252.0</ele><time>2026-03-29T09:23:38.342Z</time></trkpt><trkpt lat="37.5377933" lon="14.960355"><ele>252.0</ele><time>2026-03-29T09:23:39.342Z</time></trkpt><trkpt lat="37.537915" lon="14.9602067"><ele>252.0</ele><time>2026-03-29T09:23:40.342Z</time></trkpt><trkpt lat="37.5380283" lon="14.9600567"><ele>251.33333333333331</ele><time>2026-03-29T09:23:41.342Z</time></trkpt><trkpt lat="37.538135" lon="14.9599133"><ele>250.66666666666666</ele><time>2026-03-29T09:23:42.343Z</time></trkpt><trkpt lat="37.5382317" lon="14.9597683"><ele>250.0</ele><time>2026-03-29T09:23:43.343Z</time></trkpt><trkpt lat="37.5383383" lon="14.9596267"><ele>250.0</ele><time>2026-03-29T09:23:44.343Z</time></trkpt><trkpt lat="37.5384567" lon="14.959495"><ele>250.0</ele><time>2026-03-29T09:23:45.342Z</time></trkpt><trkpt lat="37.5385667" lon="14.9593683"><ele>250.0</ele><time>2026-03-29T09:23:46.343Z</time></trkpt><trkpt lat="37.538685" lon="14.9592417"><ele>250.0</ele><time>2026-03-29T09:23:47.342Z</time></trkpt><trkpt lat="37.5388033" lon="14.9591117"><ele>250.0</ele><time>2026-03-29T09:23:48.343Z</time></trkpt><trkpt lat="37.538925" lon="14.9589867"><ele>250.0</ele><time>2026-03-29T09:23:49.343Z</time></trkpt><trkpt lat="37.5390517" lon="14.9588617"><ele>250.0</ele><time>2026-03-29T09:23:50.342Z</time></trkpt><trkpt lat="37.5391667" lon="14.9587367"><ele>250.0</ele><time>2026-03-29T09:23:51.342Z</time></trkpt><trkpt lat="37.5392767" lon="14.958625"><ele>250.0</ele><time>2026-03-29T09:23:52.343Z</time></trkpt><trkpt lat="37.5393817" lon="14.958515"><ele>250.0</ele><time>2026-03-29T09:23:53.343Z</time></trkpt><trkpt lat="37.539485" lon="14.9584033"><ele>249.75</ele><time>2026-03-29T09:23:54.342Z</time></trkpt><trkpt lat="37.539585" lon="14.9583"><ele>249.5</ele><time>2026-03-29T09:23:55.342Z</time></trkpt><trkpt lat="37.539685" lon="14.9582017"><ele>249.25</ele><time>2026-03-29T09:23:56.343Z</time></trkpt><trkpt lat="37.5397667" lon="14.9581017"><ele>249.0</ele><time>2026-03-29T09:23:57.343Z</time></trkpt><trkpt lat="37.539855" lon="14.9579933"><ele>249.0</ele><time>2026-03-29T09:23:58.343Z</time></trkpt><trkpt lat="37.539925" lon="14.9578983"><ele>248.99999999999997</ele><time>2026-03-29T09:23:59.343Z</time></trkpt><trkpt lat="37.5399933" lon="14.9578083"><ele>248.99999999999997</ele><time>2026-03-29T09:24:00.342Z</time></trkpt><trkpt lat="37.5400517" lon="14.9577417"><ele>249.0</ele><time>2026-03-29T09:24:01.343Z</time></trkpt><trkpt lat="37.54014" lon="14.957665"><ele>249.0</ele><time>2026-03-29T09:24:02.342Z</time></trkpt><trkpt lat="37.5402167" lon="14.9575883"><ele>249.16666666666666</ele><time>2026-03-29T09:24:03.342Z</time></trkpt><trkpt lat="37.5402967" lon="14.9575133"><ele>249.33333333333331</ele><time>2026-03-29T09:24:04.343Z</time></trkpt><trkpt lat="37.5403683" lon="14.9574433"><ele>249.5</ele><time>2026-03-29T09:24:05.343Z</time></trkpt><trkpt lat="37.54045" lon="14.9573867"><ele>249.66666666666666</ele><time>2026-03-29T09:24:06.342Z</time></trkpt><trkpt lat="37.5405317" lon="14.957345"><ele>249.83333333333331</ele><time>2026-03-29T09:24:07.343Z</time></trkpt><trkpt lat="37.5406067" lon="14.95733"><ele>250.0</ele><time>2026-03-29T09:24:08.343Z</time></trkpt><trkpt lat="37.540685" lon="14.95733"><ele>249.66666666666666</ele><time>2026-03-29T09:24:09.343Z</time></trkpt><trkpt lat="37.540775" lon="14.9573333"><ele>249.33333333333331</ele><time>2026-03-29T09:24:10.343Z</time></trkpt><trkpt lat="37.54086" lon="14.9573217"><ele>249.0</ele><time>2026-03-29T09:24:11.343Z</time></trkpt><trkpt lat="37.5409333" lon="14.9572817"><ele>248.66666666666669</ele><time>2026-03-29T09:24:12.342Z</time></trkpt><trkpt lat="37.5409783" lon="14.9572133"><ele>248.33333333333334</ele><time>2026-03-29T09:24:13.342Z</time></trkpt><trkpt lat="37.541" lon="14.9571167"><ele>248.0</ele><time>2026-03-29T09:24:14.342Z</time></trkpt><trkpt lat="37.540995" lon="14.9570217"><ele>248.00000000000003</ele><time>2026-03-29T09:24:15.342Z</time></trkpt><trkpt lat="37.5409783" lon="14.95694"><ele>248.0</ele><time>2026-03-29T09:24:16.343Z</time></trkpt><trkpt lat="37.5409617" lon="14.95686"><ele>248.0</ele><time>2026-03-29T09:24:17.342Z</time></trkpt><trkpt lat="37.54094" lon="14.9567733"><ele>248.0</ele><time>2026-03-29T09:24:18.343Z</time></trkpt><trkpt lat="37.5409117" lon="14.95668"><ele>248.00000000000003</ele><time>2026-03-29T09:24:19.342Z</time></trkpt><trkpt lat="37.540885" lon="14.9565767"><ele>248.0</ele><time>2026-03-29T09:24:20.342Z</time></trkpt><trkpt lat="37.540865" lon="14.9564633"><ele>248.25</ele><time>2026-03-29T09:24:21.343Z</time></trkpt><trkpt lat="37.5408717" lon="14.9563383"><ele>248.5</ele><time>2026-03-29T09:24:22.343Z</time></trkpt><trkpt lat="37.5409017" lon="14.9562017"><ele>248.75</ele><time>2026-03-29T09:24:23.343Z</time></trkpt><trkpt lat="37.54094" lon="14.9560617"><ele>249.0</ele><time>2026-03-29T09:24:24.342Z</time></trkpt><trkpt lat="37.5409667" lon="14.955905"><ele>248.75</ele><time>2026-03-29T09:24:25.342Z</time></trkpt><trkpt lat="37.5410117" lon="14.9557467"><ele>248.5</ele><time>2026-03-29T09:24:26.342Z</time></trkpt><trkpt lat="37.5410583" lon="14.95557"><ele>248.25</ele><time>2026-03-29T09:24:27.343Z</time></trkpt><trkpt lat="37.54111" lon="14.9553983"><ele>248.0</ele><time>2026-03-29T09:24:28.342Z</time></trkpt><trkpt lat="37.541175" lon="14.95523"><ele>248.33333333333334</ele><time>2026-03-29T09:24:29.343Z</time></trkpt><trkpt lat="37.54126" lon="14.95506"><ele>248.66666666666669</ele><time>2026-03-29T09:24:30.343Z</time></trkpt><trkpt lat="37.5413367" lon="14.9548933"><ele>249.0</ele><time>2026-03-29T09:24:31.342Z</time></trkpt><trkpt lat="37.5414233" lon="14.9547283"><ele>249.0</ele><time>2026-03-29T09:24:32.342Z</time></trkpt><trkpt lat="37.541505" lon="14.9545583"><ele>249.0</ele><time>2026-03-29T09:24:33.343Z</time></trkpt><trkpt lat="37.541585" lon="14.9543933"><ele>249.0</ele><time>2026-03-29T09:24:34.342Z</time></trkpt><trkpt lat="37.5416767" lon="14.9542267"><ele>249.0</ele><time>2026-03-29T09:24:35.343Z</time></trkpt><trkpt lat="37.541775" lon="14.9540567"><ele>249.0</ele><time>2026-03-29T09:24:36.342Z</time></trkpt><trkpt lat="37.5418783" lon="14.95389"><ele>249.0</ele><time>2026-03-29T09:24:37.342Z</time></trkpt><trkpt lat="37.54198" lon="14.9537267"><ele>249.0</ele><time>2026-03-29T09:24:38.343Z</time></trkpt><trkpt lat="37.5420817" lon="14.95355"><ele>249.0</ele><time>2026-03-29T09:24:39.342Z</time></trkpt><trkpt lat="37.5421783" lon="14.9533817"><ele>249.0</ele><time>2026-03-29T09:24:40.342Z</time></trkpt><trkpt lat="37.5422883" lon="14.9532017"><ele>248.0</ele><time>2026-03-29T09:24:41.342Z</time></trkpt><trkpt lat="37.5424" lon="14.95302"><ele>247.0</ele><time>2026-03-29T09:24:42.343Z</time></trkpt><trkpt lat="37.5425133" lon="14.9528317"><ele>246.0</ele><time>2026-03-29T09:24:43.342Z</time></trkpt><trkpt lat="37.5426183" lon="14.9526417"><ele>246.0</ele><time>2026-03-29T09:24:44.343Z</time></trkpt><trkpt lat="37.5427317" lon="14.95245"><ele>246.0</ele><time>2026-03-29T09:24:45.343Z</time></trkpt><trkpt lat="37.5428483" lon="14.95226"><ele>246.0</ele><time>2026-03-29T09:24:46.342Z</time></trkpt><trkpt lat="37.5429667" lon="14.9520617"><ele>246.0</ele><time>2026-03-29T09:24:47.343Z</time></trkpt><trkpt lat="37.5430883" lon="14.9518583"><ele>246.0</ele><time>2026-03-29T09:24:48.342Z</time></trkpt><trkpt lat="37.54321" lon="14.951655"><ele>246.0</ele><time>2026-03-29T09:24:49.343Z</time></trkpt><trkpt lat="37.5433267" lon="14.9514633"><ele>246.66666666666669</ele><time>2026-03-29T09:24:50.342Z</time></trkpt><trkpt lat="37.5434467" lon="14.9512633"><ele>247.33333333333334</ele><time>2026-03-29T09:24:51.342Z</time></trkpt><trkpt lat="37.543565" lon="14.951055"><ele>248.0</ele><time>2026-03-29T09:24:52.343Z</time></trkpt><trkpt lat="37.5436867" lon="14.9508483"><ele>248.0</ele><time>2026-03-29T09:24:53.343Z</time></trkpt><trkpt lat="37.5438017" lon="14.9506417"><ele>248.0</ele><time>2026-03-29T09:24:54.342Z</time></trkpt><trkpt lat="37.54392" lon="14.9504483"><ele>248.0</ele><time>2026-03-29T09:24:55.342Z</time></trkpt><trkpt lat="37.544035" lon="14.9502567"><ele>248.0</ele><time>2026-03-29T09:24:56.343Z</time></trkpt><trkpt lat="37.54414" lon="14.9500817"><ele>248.0</ele><time>2026-03-29T09:24:57.343Z</time></trkpt><trkpt lat="37.5442433" lon="14.949915"><ele>248.0</ele><time>2026-03-29T09:24:58.341Z</time></trkpt><trkpt lat="37.5443433" lon="14.949735"><ele>248.0</ele><time>2026-03-29T09:24:59.341Z</time></trkpt><trkpt lat="37.54446" lon="14.9495517"><ele>248.0</ele><time>2026-03-29T09:25:00.341Z</time></trkpt><trkpt lat="37.5445783" lon="14.94936"><ele>248.0</ele><time>2026-03-29T09:25:01.342Z</time></trkpt><trkpt lat="37.5446933" lon="14.9491583"><ele>248.66666666666669</ele><time>2026-03-29T09:25:02.342Z</time></trkpt><trkpt lat="37.54481" lon="14.9489533"><ele>249.33333333333331</ele><time>2026-03-29T09:25:03.342Z</time></trkpt><trkpt lat="37.54493" lon="14.9487417"><ele>250.0</ele><time>2026-03-29T09:25:04.342Z</time></trkpt><trkpt lat="37.545055" lon="14.948525"><ele>250.0</ele><time>2026-03-29T09:25:05.341Z</time></trkpt><trkpt lat="37.5451767" lon="14.948315"><ele>250.0</ele><time>2026-03-29T09:25:06.341Z</time></trkpt><trkpt lat="37.5453" lon="14.9481"><ele>250.0</ele><time>2026-03-29T09:25:07.342Z</time></trkpt><trkpt lat="37.545435" lon="14.9478733"><ele>249.66666666666666</ele><time>2026-03-29T09:25:08.341Z</time></trkpt><trkpt lat="37.5455633" lon="14.9476533"><ele>249.33333333333331</ele><time>2026-03-29T09:25:09.342Z</time></trkpt><trkpt lat="37.545695" lon="14.947435"><ele>249.0</ele><time>2026-03-29T09:25:10.342Z</time></trkpt><trkpt lat="37.5458283" lon="14.9472117"><ele>250.0</ele><time>2026-03-29T09:25:11.342Z</time></trkpt><trkpt lat="37.5459633" lon="14.9469833"><ele>251.0</ele><time>2026-03-29T09:25:12.341Z</time></trkpt><trkpt lat="37.5460967" lon="14.946755"><ele>249.0</ele><time>2026-03-29T09:25:13.342Z</time></trkpt><trkpt lat="37.5462317" lon="14.9464967"><ele>247.0</ele><time>2026-03-29T09:25:14.342Z</time></trkpt><trkpt lat="37.5463583" lon="14.946275"><ele>247.0</ele><time>2026-03-29T09:25:15.342Z</time></trkpt><trkpt lat="37.546485" lon="14.9460383"><ele>247.0</ele><time>2026-03-29T09:25:16.341Z</time></trkpt><trkpt lat="37.5466133" lon="14.9458067"><ele>247.5</ele><time>2026-03-29T09:25:17.342Z</time></trkpt><trkpt lat="37.5467483" lon="14.9455767"><ele>248.0</ele><time>2026-03-29T09:25:18.341Z</time></trkpt><trkpt lat="37.5468917" lon="14.945335"><ele>248.0</ele><time>2026-03-29T09:25:19.342Z</time></trkpt><trkpt lat="37.5470367" lon="14.9451"><ele>248.0</ele><time>2026-03-29T09:25:20.341Z</time></trkpt><trkpt lat="37.5471783" lon="14.94487"><ele>249.0</ele><time>2026-03-29T09:25:21.341Z</time></trkpt><trkpt lat="37.54732" lon="14.9446367"><ele>250.0</ele><time>2026-03-29T09:25:22.341Z</time></trkpt><trkpt lat="37.5474617" lon="14.9444083"><ele>250.0</ele><time>2026-03-29T09:25:23.342Z</time></trkpt><trkpt lat="37.547605" lon="14.9441683"><ele>250.0</ele><time>2026-03-29T09:25:24.342Z</time></trkpt><trkpt lat="37.5477383" lon="14.9439333"><ele>250.0</ele><time>2026-03-29T09:25:25.341Z</time></trkpt><trkpt lat="37.5478717" lon="14.943705"><ele>250.0</ele><time>2026-03-29T09:25:26.341Z</time></trkpt><trkpt lat="37.54801" lon="14.943475"><ele>251.66666666666666</ele><time>2026-03-29T09:25:27.342Z</time></trkpt><trkpt lat="37.54814" lon="14.9432467"><ele>253.33333333333331</ele><time>2026-03-29T09:25:28.342Z</time></trkpt><trkpt lat="37.5482717" lon="14.9430167"><ele>255.0</ele><time>2026-03-29T09:25:29.341Z</time></trkpt><trkpt lat="37.5484" lon="14.942785"><ele>255.0</ele><time>2026-03-29T09:25:30.342Z</time></trkpt><trkpt lat="37.5485333" lon="14.9425533"><ele>255.0</ele><time>2026-03-29T09:25:31.342Z</time></trkpt><trkpt lat="37.5486617" lon="14.9423167"><ele>256.5</ele><time>2026-03-29T09:25:32.342Z</time></trkpt><trkpt lat="37.54879" lon="14.94208"><ele>258.0</ele><time>2026-03-29T09:25:33.342Z</time></trkpt><trkpt lat="37.548925" lon="14.94185"><ele>258.0</ele><time>2026-03-29T09:25:34.342Z</time></trkpt><trkpt lat="37.5490733" lon="14.9416083"><ele>258.0</ele><time>2026-03-29T09:25:35.341Z</time></trkpt><trkpt lat="37.5492067" lon="14.9413883"><ele>258.0</ele><time>2026-03-29T09:25:36.342Z</time></trkpt><trkpt lat="37.5493567" lon="14.94115"><ele>258.0</ele><time>2026-03-29T09:25:37.342Z</time></trkpt><trkpt lat="37.5495033" lon="14.9409067"><ele>261.5</ele><time>2026-03-29T09:25:38.342Z</time></trkpt><trkpt lat="37.54965" lon="14.9406633"><ele>265.0</ele><time>2026-03-29T09:25:39.342Z</time></trkpt><trkpt lat="37.549795" lon="14.9404217"><ele>265.0</ele><time>2026-03-29T09:25:40.342Z</time></trkpt><trkpt lat="37.5499333" lon="14.9401783"><ele>265.0</ele><time>2026-03-29T09:25:41.341Z</time></trkpt><trkpt lat="37.5500783" lon="14.9399417"><ele>264.5</ele><time>2026-03-29T09:25:42.342Z</time></trkpt><trkpt lat="37.550225" lon="14.9397017"><ele>264.0</ele><time>2026-03-29T09:25:43.342Z</time></trkpt><trkpt lat="37.5503633" lon="14.939465"><ele>268.0</ele><time>2026-03-29T09:25:44.341Z</time></trkpt><trkpt lat="37.55051" lon="14.9392267"><ele>272.0</ele><time>2026-03-29T09:25:45.342Z</time></trkpt><trkpt lat="37.5506533" lon="14.9389933"><ele>272.0</ele><time>2026-03-29T09:25:46.341Z</time></trkpt><trkpt lat="37.55079" lon="14.9387633"><ele>272.0</ele><time>2026-03-29T09:25:47.341Z</time></trkpt><trkpt lat="37.5509283" lon="14.938525"><ele>271.5</ele><time>2026-03-29T09:25:48.341Z</time></trkpt><trkpt lat="37.5510717" lon="14.9382933"><ele>271.0</ele><time>2026-03-29T09:25:49.341Z</time></trkpt><trkpt lat="37.5512133" lon="14.9380583"><ele>273.5</ele><time>2026-03-29T09:25:50.341Z</time></trkpt><trkpt lat="37.551345" lon="14.9378267"><ele>276.0</ele><time>2026-03-29T09:25:51.341Z</time></trkpt><trkpt lat="37.5514817" lon="14.937595"><ele>274.5</ele><time>2026-03-29T09:25:52.341Z</time></trkpt><trkpt lat="37.551615" lon="14.937365"><ele>273.0</ele><time>2026-03-29T09:25:53.342Z</time></trkpt><trkpt lat="37.551755" lon="14.9371367"><ele>273.0</ele><time>2026-03-29T09:25:54.342Z</time></trkpt><trkpt lat="37.5518967" lon="14.93692"><ele>273.0</ele><time>2026-03-29T09:25:55.342Z</time></trkpt><trkpt lat="37.5520383" lon="14.9366817"><ele>275.5</ele><time>2026-03-29T09:25:56.342Z</time></trkpt><trkpt lat="37.5521717" lon="14.93645"><ele>278.0</ele><time>2026-03-29T09:25:57.341Z</time></trkpt><trkpt lat="37.5523033" lon="14.9362183"><ele>278.0</ele><time>2026-03-29T09:25:58.341Z</time></trkpt><trkpt lat="37.5524333" lon="14.9359883"><ele>278.0</ele><time>2026-03-29T09:25:59.342Z</time></trkpt><trkpt lat="37.5525683" lon="14.9357617"><ele>278.0</ele><time>2026-03-29T09:26:00.342Z</time></trkpt><trkpt lat="37.5526933" lon="14.9355367"><ele>277.5</ele><time>2026-03-29T09:26:01.341Z</time></trkpt><trkpt lat="37.5528183" lon="14.9353017"><ele>277.0</ele><time>2026-03-29T09:26:02.342Z</time></trkpt><trkpt lat="37.5529467" lon="14.9350667"><ele>279.3333333333333</ele><time>2026-03-29T09:26:03.341Z</time></trkpt><trkpt lat="37.5530717" lon="14.9348417"><ele>281.6666666666667</ele><time>2026-03-29T09:26:04.342Z</time></trkpt><trkpt lat="37.553205" lon="14.934615"><ele>284.0</ele><time>2026-03-29T09:26:05.342Z</time></trkpt><trkpt lat="37.55333" lon="14.934395"><ele>283.33333333333337</ele><time>2026-03-29T09:26:06.341Z</time></trkpt><trkpt lat="37.5534633" lon="14.934175"><ele>282.6666666666667</ele><time>2026-03-29T09:26:07.342Z</time></trkpt><trkpt lat="37.5536067" lon="14.9339617"><ele>282.0</ele><time>2026-03-29T09:26:08.341Z</time></trkpt><trkpt lat="37.5537417" lon="14.93375"><ele>284.3333333333333</ele><time>2026-03-29T09:26:09.342Z</time></trkpt><trkpt lat="37.5538767" lon="14.9335267"><ele>286.66666666666663</ele><time>2026-03-29T09:26:10.341Z</time></trkpt><trkpt lat="37.5540133" lon="14.9333"><ele>289.0</ele><time>2026-03-29T09:26:11.341Z</time></trkpt><trkpt lat="37.5541467" lon="14.9330817"><ele>289.0</ele><time>2026-03-29T09:26:12.341Z</time></trkpt><trkpt lat="37.5542767" lon="14.93286"><ele>289.0</ele><time>2026-03-29T09:26:13.342Z</time></trkpt><trkpt lat="37.5544083" lon="14.932635"><ele>289.0</ele><time>2026-03-29T09:26:14.342Z</time></trkpt><trkpt lat="37.5545433" lon="14.9324067"><ele>291.0</ele><time>2026-03-29T09:26:15.341Z</time></trkpt><trkpt lat="37.5546767" lon="14.93218"><ele>293.0</ele><time>2026-03-29T09:26:16.342Z</time></trkpt><trkpt lat="37.5548117" lon="14.93195"><ele>293.0</ele><time>2026-03-29T09:26:17.341Z</time></trkpt><trkpt lat="37.5549467" lon="14.931725"><ele>293.0</ele><time>2026-03-29T09:26:18.341Z</time></trkpt><trkpt lat="37.5550867" lon="14.9314967"><ele>293.0</ele><time>2026-03-29T09:26:19.341Z</time></trkpt><trkpt lat="37.55523" lon="14.9312617"><ele>293.0</ele><time>2026-03-29T09:26:20.341Z</time></trkpt><trkpt lat="37.5553717" lon="14.93102"><ele>299.0</ele><time>2026-03-29T09:26:21.342Z</time></trkpt><trkpt lat="37.55551" lon="14.9307783"><ele>305.0</ele><time>2026-03-29T09:26:22.341Z</time></trkpt><trkpt lat="37.5556517" lon="14.9305467"><ele>305.0</ele><time>2026-03-29T09:26:23.341Z</time></trkpt><trkpt lat="37.5557933" lon="14.93031"><ele>305.0</ele><time>2026-03-29T09:26:24.341Z</time></trkpt><trkpt lat="37.5559367" lon="14.9300633"><ele>304.5</ele><time>2026-03-29T09:26:25.342Z</time></trkpt><trkpt lat="37.5560833" lon="14.9298133"><ele>304.0</ele><time>2026-03-29T09:26:26.341Z</time></trkpt><trkpt lat="37.5562317" lon="14.9295633"><ele>305.5</ele><time>2026-03-29T09:26:27.342Z</time></trkpt><trkpt lat="37.5563733" lon="14.929315"><ele>307.0</ele><time>2026-03-29T09:26:28.342Z</time></trkpt><trkpt lat="37.5565183" lon="14.9290633"><ele>307.0</ele><time>2026-03-29T09:26:29.342Z</time></trkpt><trkpt lat="37.5566617" lon="14.9288117"><ele>307.0</ele><time>2026-03-29T09:26:30.342Z</time></trkpt><trkpt lat="37.5568067" lon="14.92856"><ele>307.0</ele><time>2026-03-29T09:26:31.341Z</time></trkpt><trkpt lat="37.556945" lon="14.928315"><ele>307.0</ele><time>2026-03-29T09:26:32.341Z</time></trkpt><trkpt lat="37.5570917" lon="14.92807"><ele>308.0</ele><time>2026-03-29T09:26:33.341Z</time></trkpt><trkpt lat="37.5572367" lon="14.9278283"><ele>309.0</ele><time>2026-03-29T09:26:34.342Z</time></trkpt><trkpt lat="37.5573817" lon="14.9275833"><ele>308.5</ele><time>2026-03-29T09:26:35.341Z</time></trkpt><trkpt lat="37.55753" lon="14.9273367"><ele>308.0</ele><time>2026-03-29T09:26:36.341Z</time></trkpt><trkpt lat="37.5576783" lon="14.927095"><ele>308.0</ele><time>2026-03-29T09:26:37.341Z</time></trkpt><trkpt lat="37.5578283" lon="14.926855"><ele>308.0</ele><time>2026-03-29T09:26:38.341Z</time></trkpt><trkpt lat="37.5579667" lon="14.9266017"><ele>309.0</ele><time>2026-03-29T09:26:39.341Z</time></trkpt><trkpt lat="37.5581067" lon="14.9263567"><ele>310.0</ele><time>2026-03-29T09:26:40.341Z</time></trkpt><trkpt lat="37.5582517" lon="14.9261083"><ele>308.5</ele><time>2026-03-29T09:26:41.342Z</time></trkpt><trkpt lat="37.5583967" lon="14.9258633"><ele>307.0</ele><time>2026-03-29T09:26:42.341Z</time></trkpt><trkpt lat="37.5585433" lon="14.9256217"><ele>307.0</ele><time>2026-03-29T09:26:43.342Z</time></trkpt><trkpt lat="37.5586933" lon="14.9253767"><ele>307.0</ele><time>2026-03-29T09:26:44.342Z</time></trkpt><trkpt lat="37.55884" lon="14.925125"><ele>307.5</ele><time>2026-03-29T09:26:45.342Z</time></trkpt><trkpt lat="37.55899" lon="14.9248717"><ele>308.0</ele><time>2026-03-29T09:26:46.341Z</time></trkpt><trkpt lat="37.5591417" lon="14.9246183"><ele>308.0</ele><time>2026-03-29T09:26:47.342Z</time></trkpt><trkpt lat="37.5592933" lon="14.9243633"><ele>308.0</ele><time>2026-03-29T09:26:48.341Z</time></trkpt><trkpt lat="37.559445" lon="14.9241117"><ele>307.0</ele><time>2026-03-29T09:26:49.342Z</time></trkpt><trkpt lat="37.5595933" lon="14.9238567"><ele>306.0</ele><time>2026-03-29T09:26:50.341Z</time></trkpt><trkpt lat="37.55974" lon="14.9236017"><ele>305.0</ele><time>2026-03-29T09:26:51.341Z</time></trkpt><trkpt lat="37.5598883" lon="14.9233583"><ele>304.0</ele><time>2026-03-29T09:26:52.341Z</time></trkpt><trkpt lat="37.5600383" lon="14.9231083"><ele>304.0</ele><time>2026-03-29T09:26:53.342Z</time></trkpt><trkpt lat="37.5601917" lon="14.92285"><ele>304.0</ele><time>2026-03-29T09:26:54.341Z</time></trkpt><trkpt lat="37.5603483" lon="14.9225967"><ele>306.5</ele><time>2026-03-29T09:26:55.342Z</time></trkpt><trkpt lat="37.5605" lon="14.922345"><ele>309.0</ele><time>2026-03-29T09:26:56.341Z</time></trkpt><trkpt lat="37.5606517" lon="14.9221"><ele>309.0</ele><time>2026-03-29T09:26:57.341Z</time></trkpt><trkpt lat="37.56081" lon="14.9218667"><ele>309.0</ele><time>2026-03-29T09:26:58.341Z</time></trkpt><trkpt lat="37.5609733" lon="14.921655"><ele>308.0</ele><time>2026-03-29T09:26:59.342Z</time></trkpt><trkpt lat="37.5611383" lon="14.921455"><ele>307.0</ele><time>2026-03-29T09:27:00.342Z</time></trkpt><trkpt lat="37.5613117" lon="14.9212767"><ele>306.3333333333333</ele><time>2026-03-29T09:27:01.342Z</time></trkpt><trkpt lat="37.5614767" lon="14.9211"><ele>305.6666666666667</ele><time>2026-03-29T09:27:02.342Z</time></trkpt><trkpt lat="37.5616433" lon="14.9209517"><ele>305.0</ele><time>2026-03-29T09:27:03.341Z</time></trkpt><trkpt lat="37.5618183" lon="14.9208067"><ele>304.0</ele><time>2026-03-29T09:27:04.341Z</time></trkpt><trkpt lat="37.5619867" lon="14.9206633"><ele>303.0</ele><time>2026-03-29T09:27:05.341Z</time></trkpt><trkpt lat="37.562155" lon="14.920525"><ele>302.0</ele><time>2026-03-29T09:27:06.342Z</time></trkpt><trkpt lat="37.5623233" lon="14.920395"><ele>302.0</ele><time>2026-03-29T09:27:07.341Z</time></trkpt><trkpt lat="37.562495" lon="14.9202633"><ele>302.0</ele><time>2026-03-29T09:27:08.341Z</time></trkpt><trkpt lat="37.5626717" lon="14.920115"><ele>302.0</ele><time>2026-03-29T09:27:09.341Z</time></trkpt><trkpt lat="37.5628467" lon="14.9199667"><ele>301.6666666666667</ele><time>2026-03-29T09:27:10.341Z</time></trkpt><trkpt lat="37.5630283" lon="14.91982"><ele>301.3333333333333</ele><time>2026-03-29T09:27:11.341Z</time></trkpt><trkpt lat="37.56322" lon="14.9196617"><ele>301.0</ele><time>2026-03-29T09:27:12.341Z</time></trkpt><trkpt lat="37.5634217" lon="14.919505"><ele>301.0</ele><time>2026-03-29T09:27:13.341Z</time></trkpt><trkpt lat="37.56363" lon="14.9193417"><ele>301.0</ele><time>2026-03-29T09:27:14.341Z</time></trkpt><trkpt lat="37.5638433" lon="14.91918"><ele>298.0</ele><time>2026-03-29T09:27:15.341Z</time></trkpt><trkpt lat="37.5640583" lon="14.9190183"><ele>295.0</ele><time>2026-03-29T09:27:16.342Z</time></trkpt><trkpt lat="37.5642683" lon="14.9188517"><ele>295.0</ele><time>2026-03-29T09:27:17.341Z</time></trkpt><trkpt lat="37.5644633" lon="14.9186917"><ele>295.0</ele><time>2026-03-29T09:27:18.342Z</time></trkpt><trkpt lat="37.564645" lon="14.9185183"><ele>290.0</ele><time>2026-03-29T09:27:19.341Z</time></trkpt><trkpt lat="37.56483" lon="14.91836"><ele>285.0</ele><time>2026-03-29T09:27:20.341Z</time></trkpt><trkpt lat="37.56502" lon="14.91821"><ele>280.0</ele><time>2026-03-29T09:27:21.341Z</time></trkpt><trkpt lat="37.5652083" lon="14.9180567"><ele>279.66666666666663</ele><time>2026-03-29T09:27:22.341Z</time></trkpt><trkpt lat="37.5653867" lon="14.9179033"><ele>279.3333333333333</ele><time>2026-03-29T09:27:23.342Z</time></trkpt><trkpt lat="37.5655667" lon="14.91776"><ele>279.0</ele><time>2026-03-29T09:27:24.341Z</time></trkpt><trkpt lat="37.5657533" lon="14.9176217"><ele>278.6666666666667</ele><time>2026-03-29T09:27:25.342Z</time></trkpt><trkpt lat="37.5659417" lon="14.9174833"><ele>278.33333333333337</ele><time>2026-03-29T09:27:26.341Z</time></trkpt><trkpt lat="37.566135" lon="14.9173617"><ele>278.0</ele><time>2026-03-29T09:27:27.341Z</time></trkpt><trkpt lat="37.5663267" lon="14.9172533"><ele>278.0</ele><time>2026-03-29T09:27:28.342Z</time></trkpt><trkpt lat="37.5665183" lon="14.91715"><ele>278.0</ele><time>2026-03-29T09:27:29.341Z</time></trkpt><trkpt lat="37.5667117" lon="14.9170667"><ele>278.0</ele><time>2026-03-29T09:27:30.341Z</time></trkpt><trkpt lat="37.56691" lon="14.9169967"><ele>278.33333333333337</ele><time>2026-03-29T09:27:31.341Z</time></trkpt><trkpt lat="37.5671117" lon="14.9169333"><ele>278.6666666666667</ele><time>2026-03-29T09:27:32.341Z</time></trkpt><trkpt lat="37.567315" lon="14.91687"><ele>279.0</ele><time>2026-03-29T09:27:33.342Z</time></trkpt><trkpt lat="37.5675283" lon="14.9168117"><ele>279.0</ele><time>2026-03-29T09:27:34.342Z</time></trkpt><trkpt lat="37.56774" lon="14.9167567"><ele>279.0</ele><time>2026-03-29T09:27:35.342Z</time></trkpt><trkpt lat="37.5679483" lon="14.9167"><ele>279.0</ele><time>2026-03-29T09:27:36.342Z</time></trkpt><trkpt lat="37.5681517" lon="14.9166367"><ele>278.6666666666667</ele><time>2026-03-29T09:27:37.342Z</time></trkpt><trkpt lat="37.56835" lon="14.91659"><ele>278.33333333333337</ele><time>2026-03-29T09:27:38.341Z</time></trkpt><trkpt lat="37.56853" lon="14.9165467"><ele>278.0</ele><time>2026-03-29T09:27:39.341Z</time></trkpt><trkpt lat="37.56869" lon="14.9165033"><ele>280.6666666666667</ele><time>2026-03-29T09:27:40.341Z</time></trkpt><trkpt lat="37.56885" lon="14.9164667"><ele>283.3333333333333</ele><time>2026-03-29T09:27:41.342Z</time></trkpt><trkpt lat="37.569005" lon="14.9164217"><ele>286.0</ele><time>2026-03-29T09:27:42.341Z</time></trkpt><trkpt lat="37.5691533" lon="14.91639"><ele>286.0</ele><time>2026-03-29T09:27:43.342Z</time></trkpt><trkpt lat="37.56929" lon="14.9163517"><ele>286.0</ele><time>2026-03-29T09:27:44.341Z</time></trkpt><trkpt lat="37.5694217" lon="14.916325"><ele>286.0</ele><time>2026-03-29T09:27:45.341Z</time></trkpt><trkpt lat="37.569535" lon="14.9162967"><ele>286.0</ele><time>2026-03-29T09:27:46.341Z</time></trkpt><trkpt lat="37.569645" lon="14.91627"><ele>286.0</ele><time>2026-03-29T09:27:47.341Z</time></trkpt><trkpt lat="37.569765" lon="14.916235"><ele>286.0</ele><time>2026-03-29T09:27:48.342Z</time></trkpt><trkpt lat="37.5698767" lon="14.9162"><ele>286.0</ele><time>2026-03-29T09:27:49.342Z</time></trkpt><trkpt lat="37.5699883" lon="14.9161583"><ele>286.0</ele><time>2026-03-29T09:27:50.342Z</time></trkpt><trkpt lat="37.5701" lon="14.91612"><ele>286.0</ele><time>2026-03-29T09:27:51.342Z</time></trkpt><trkpt lat="37.570215" lon="14.91609"><ele>286.0</ele><time>2026-03-29T09:27:52.341Z</time></trkpt><trkpt lat="37.5703367" lon="14.9160617"><ele>286.0</ele><time>2026-03-29T09:27:53.342Z</time></trkpt><trkpt lat="37.5704717" lon="14.9160367"><ele>286.0</ele><time>2026-03-29T09:27:54.341Z</time></trkpt><trkpt lat="37.5706133" lon="14.91602"><ele>285.0</ele><time>2026-03-29T09:27:55.342Z</time></trkpt><trkpt lat="37.5707617" lon="14.9160083"><ele>284.0</ele><time>2026-03-29T09:27:56.342Z</time></trkpt><trkpt lat="37.57092" lon="14.916025"><ele>283.0</ele><time>2026-03-29T09:27:57.342Z</time></trkpt><trkpt lat="37.5710767" lon="14.91606"><ele>282.66666666666663</ele><time>2026-03-29T09:27:58.341Z</time></trkpt><trkpt lat="37.5712317" lon="14.9161033"><ele>282.3333333333333</ele><time>2026-03-29T09:27:59.342Z</time></trkpt><trkpt lat="37.5713817" lon="14.916145"><ele>282.0</ele><time>2026-03-29T09:28:00.341Z</time></trkpt><trkpt lat="37.5715283" lon="14.916195"><ele>282.0</ele><time>2026-03-29T09:28:01.342Z</time></trkpt><trkpt lat="37.571675" lon="14.9162417"><ele>282.0</ele><time>2026-03-29T09:28:02.341Z</time></trkpt><trkpt lat="37.5718333" lon="14.916295"><ele>282.0</ele><time>2026-03-29T09:28:03.341Z</time></trkpt><trkpt lat="37.5719783" lon="14.9163417"><ele>281.75</ele><time>2026-03-29T09:28:04.341Z</time></trkpt><trkpt lat="37.572115" lon="14.9163867"><ele>281.5</ele><time>2026-03-29T09:28:05.342Z</time></trkpt><trkpt lat="37.5722583" lon="14.91643"><ele>281.25</ele><time>2026-03-29T09:28:06.341Z</time></trkpt><trkpt lat="37.5724033" lon="14.9164717"><ele>281.0</ele><time>2026-03-29T09:28:07.341Z</time></trkpt><trkpt lat="37.5725583" lon="14.9165167"><ele>281.0</ele><time>2026-03-29T09:28:08.342Z</time></trkpt><trkpt lat="37.5727167" lon="14.9165683"><ele>281.0</ele><time>2026-03-29T09:28:09.341Z</time></trkpt><trkpt lat="37.57288" lon="14.9166217"><ele>281.0</ele><time>2026-03-29T09:28:10.341Z</time></trkpt><trkpt lat="37.5730367" lon="14.91667"><ele>280.33333333333337</ele><time>2026-03-29T09:28:11.342Z</time></trkpt><trkpt lat="37.5732" lon="14.9167183"><ele>279.6666666666667</ele><time>2026-03-29T09:28:12.341Z</time></trkpt><trkpt lat="37.573355" lon="14.9167717"><ele>279.0</ele><time>2026-03-29T09:28:13.342Z</time></trkpt><trkpt lat="37.5735133" lon="14.9168317"><ele>285.0</ele><time>2026-03-29T09:28:14.342Z</time></trkpt><trkpt lat="37.573665" lon="14.9168933"><ele>291.0</ele><time>2026-03-29T09:28:15.341Z</time></trkpt><trkpt lat="37.5738183" lon="14.9169517"><ele>297.0</ele><time>2026-03-29T09:28:16.341Z</time></trkpt><trkpt lat="37.5739667" lon="14.9170167"><ele>297.0</ele><time>2026-03-29T09:28:17.342Z</time></trkpt><trkpt lat="37.5741167" lon="14.9170883"><ele>297.0</ele><time>2026-03-29T09:28:18.342Z</time></trkpt><trkpt lat="37.5742667" lon="14.9171667"><ele>297.0</ele><time>2026-03-29T09:28:19.341Z</time></trkpt><trkpt lat="37.5744183" lon="14.917245"><ele>296.3333333333333</ele><time>2026-03-29T09:28:20.341Z</time></trkpt><trkpt lat="37.5745633" lon="14.9173167"><ele>295.66666666666663</ele><time>2026-03-29T09:28:21.341Z</time></trkpt><trkpt lat="37.5747033" lon="14.91739"><ele>295.0</ele><time>2026-03-29T09:28:22.342Z</time></trkpt><trkpt lat="37.574845" lon="14.91747"><ele>295.0</ele><time>2026-03-29T09:28:23.342Z</time></trkpt><trkpt lat="37.5749783" lon="14.91755"><ele>295.0</ele><time>2026-03-29T09:28:24.341Z</time></trkpt><trkpt lat="37.575115" lon="14.9176283"><ele>295.0</ele><time>2026-03-29T09:28:25.341Z</time></trkpt><trkpt lat="37.5752567" lon="14.9177017"><ele>297.0</ele><time>2026-03-29T09:28:26.341Z</time></trkpt><trkpt lat="37.5754017" lon="14.9177783"><ele>299.0</ele><time>2026-03-29T09:28:27.341Z</time></trkpt><trkpt lat="37.5755467" lon="14.9178517"><ele>301.0</ele><time>2026-03-29T09:28:28.341Z</time></trkpt><trkpt lat="37.5756933" lon="14.9179267"><ele>301.0</ele><time>2026-03-29T09:28:29.342Z</time></trkpt><trkpt lat="37.5758333" lon="14.9180017"><ele>301.0</ele><time>2026-03-29T09:28:30.342Z</time></trkpt><trkpt lat="37.5759717" lon="14.9180733"><ele>301.0</ele><time>2026-03-29T09:28:31.341Z</time></trkpt><trkpt lat="37.57611" lon="14.918155"><ele>300.66666666666663</ele><time>2026-03-29T09:28:32.341Z</time></trkpt><trkpt lat="37.57625" lon="14.9182383"><ele>300.3333333333333</ele><time>2026-03-29T09:28:33.342Z</time></trkpt><trkpt lat="37.5763967" lon="14.91832"><ele>300.0</ele><time>2026-03-29T09:28:34.342Z</time></trkpt><trkpt lat="37.5765467" lon="14.9184083"><ele>301.0</ele><time>2026-03-29T09:28:35.342Z</time></trkpt><trkpt lat="37.5767" lon="14.9184867"><ele>302.0</ele><time>2026-03-29T09:28:36.342Z</time></trkpt><trkpt lat="37.576855" lon="14.9185667"><ele>303.0</ele><time>2026-03-29T09:28:37.341Z</time></trkpt><trkpt lat="37.5770133" lon="14.9186467"><ele>303.6666666666667</ele><time>2026-03-29T09:28:38.341Z</time></trkpt><trkpt lat="37.57718" lon="14.9187117"><ele>304.33333333333337</ele><time>2026-03-29T09:28:39.341Z</time></trkpt><trkpt lat="37.5773533" lon="14.9187633"><ele>305.0</ele><time>2026-03-29T09:28:40.341Z</time></trkpt><trkpt lat="37.5775267" lon="14.9188"><ele>305.0</ele><time>2026-03-29T09:28:41.341Z</time></trkpt><trkpt lat="37.5777083" lon="14.9188267"><ele>305.0</ele><time>2026-03-29T09:28:42.342Z</time></trkpt><trkpt lat="37.5778933" lon="14.9188333"><ele>305.0</ele><time>2026-03-29T09:28:43.342Z</time></trkpt><trkpt lat="37.5780783" lon="14.91884"><ele>306.33333333333337</ele><time>2026-03-29T09:28:44.341Z</time></trkpt><trkpt lat="37.5782617" lon="14.9188183"><ele>307.6666666666667</ele><time>2026-03-29T09:28:45.341Z</time></trkpt><trkpt lat="37.5784333" lon="14.918785"><ele>309.0</ele><time>2026-03-29T09:28:46.341Z</time></trkpt><trkpt lat="37.5786117" lon="14.9187383"><ele>309.6666666666667</ele><time>2026-03-29T09:28:47.342Z</time></trkpt><trkpt lat="37.57879" lon="14.9186767"><ele>310.33333333333337</ele><time>2026-03-29T09:28:48.341Z</time></trkpt><trkpt lat="37.5789583" lon="14.9186167"><ele>311.0</ele><time>2026-03-29T09:28:49.342Z</time></trkpt><trkpt lat="37.5791283" lon="14.9185567"><ele>311.0</ele><time>2026-03-29T09:28:50.341Z</time></trkpt><trkpt lat="37.5792933" lon="14.9185017"><ele>311.0</ele><time>2026-03-29T09:28:51.342Z</time></trkpt><trkpt lat="37.5794517" lon="14.9184417"><ele>311.0</ele><time>2026-03-29T09:28:52.342Z</time></trkpt><trkpt lat="37.579595" lon="14.9183867"><ele>312.33333333333337</ele><time>2026-03-29T09:28:53.342Z</time></trkpt><trkpt lat="37.5797417" lon="14.918335"><ele>313.6666666666667</ele><time>2026-03-29T09:28:54.342Z</time></trkpt><trkpt lat="37.5799017" lon="14.9182783"><ele>315.0</ele><time>2026-03-29T09:28:55.341Z</time></trkpt><trkpt lat="37.5800567" lon="14.9182183"><ele>315.0</ele><time>2026-03-29T09:28:56.341Z</time></trkpt><trkpt lat="37.5802167" lon="14.9181617"><ele>315.0</ele><time>2026-03-29T09:28:57.341Z</time></trkpt><trkpt lat="37.580385" lon="14.9180983"><ele>315.0</ele><time>2026-03-29T09:28:58.341Z</time></trkpt><trkpt lat="37.5805517" lon="14.91804"><ele>315.6666666666667</ele><time>2026-03-29T09:28:59.341Z</time></trkpt><trkpt lat="37.5807167" lon="14.9179783"><ele>316.33333333333337</ele><time>2026-03-29T09:29:00.342Z</time></trkpt><trkpt lat="37.58088" lon="14.9179183"><ele>317.0</ele><time>2026-03-29T09:29:01.342Z</time></trkpt><trkpt lat="37.581035" lon="14.9178667"><ele>318.6666666666667</ele><time>2026-03-29T09:29:02.342Z</time></trkpt><trkpt lat="37.5811917" lon="14.9178167"><ele>320.3333333333333</ele><time>2026-03-29T09:29:03.342Z</time></trkpt><trkpt lat="37.5813433" lon="14.9177633"><ele>322.0</ele><time>2026-03-29T09:29:04.341Z</time></trkpt><trkpt lat="37.5814983" lon="14.917705"><ele>322.0</ele><time>2026-03-29T09:29:05.341Z</time></trkpt><trkpt lat="37.5816517" lon="14.91765"><ele>322.0</ele><time>2026-03-29T09:29:06.342Z</time></trkpt><trkpt lat="37.5818083" lon="14.9175967"><ele>322.0</ele><time>2026-03-29T09:29:07.341Z</time></trkpt><trkpt lat="37.581965" lon="14.917545"><ele>321.3333333333333</ele><time>2026-03-29T09:29:08.342Z</time></trkpt><trkpt lat="37.58213" lon="14.9174883"><ele>320.6666666666667</ele><time>2026-03-29T09:29:09.342Z</time></trkpt><trkpt lat="37.5822967" lon="14.9174317"><ele>320.0</ele><time>2026-03-29T09:29:10.342Z</time></trkpt><trkpt lat="37.58248" lon="14.9173583"><ele>320.0</ele><time>2026-03-29T09:29:11.342Z</time></trkpt><trkpt lat="37.5826767" lon="14.91728"><ele>320.0</ele><time>2026-03-29T09:29:12.342Z</time></trkpt><trkpt lat="37.5828867" lon="14.9172083"><ele>320.0</ele><time>2026-03-29T09:29:13.341Z</time></trkpt><trkpt lat="37.5830883" lon="14.91713"><ele>322.6666666666667</ele><time>2026-03-29T09:29:14.342Z</time></trkpt><trkpt lat="37.5832983" lon="14.9170567"><ele>325.3333333333333</ele><time>2026-03-29T09:29:15.341Z</time></trkpt><trkpt lat="37.5835033" lon="14.9169833"><ele>328.0</ele><time>2026-03-29T09:29:16.341Z</time></trkpt><trkpt lat="37.583715" lon="14.9169083"><ele>328.0</ele><time>2026-03-29T09:29:17.342Z</time></trkpt><trkpt lat="37.5839183" lon="14.9168367"><ele>328.0</ele><time>2026-03-29T09:29:18.341Z</time></trkpt><trkpt lat="37.5841283" lon="14.9167667"><ele>328.0</ele><time>2026-03-29T09:29:19.341Z</time></trkpt><trkpt lat="37.58432" lon="14.9167067"><ele>328.0</ele><time>2026-03-29T09:29:20.342Z</time></trkpt><trkpt lat="37.5845083" lon="14.9166467"><ele>328.0</ele><time>2026-03-29T09:29:21.342Z</time></trkpt><trkpt lat="37.58468" lon="14.9165967"><ele>328.0</ele><time>2026-03-29T09:29:22.342Z</time></trkpt><trkpt lat="37.5848417" lon="14.9165483"><ele>328.66666666666663</ele><time>2026-03-29T09:29:23.342Z</time></trkpt><trkpt lat="37.5850017" lon="14.916515"><ele>329.3333333333333</ele><time>2026-03-29T09:29:24.341Z</time></trkpt><trkpt lat="37.5851583" lon="14.916485"><ele>330.0</ele><time>2026-03-29T09:29:25.341Z</time></trkpt><trkpt lat="37.5853183" lon="14.9164517"><ele>330.0</ele><time>2026-03-29T09:29:26.342Z</time></trkpt><trkpt lat="37.5854733" lon="14.9164267"><ele>330.0</ele><time>2026-03-29T09:29:27.342Z</time></trkpt><trkpt lat="37.58563" lon="14.916405"><ele>330.0</ele><time>2026-03-29T09:29:28.341Z</time></trkpt><trkpt lat="37.5857733" lon="14.9163917"><ele>330.0</ele><time>2026-03-29T09:29:29.342Z</time></trkpt><trkpt lat="37.5859067" lon="14.91638"><ele>330.0</ele><time>2026-03-29T09:29:30.342Z</time></trkpt><trkpt lat="37.58604" lon="14.916365"><ele>330.0</ele><time>2026-03-29T09:29:31.341Z</time></trkpt><trkpt lat="37.5861817" lon="14.9163483"><ele>330.0</ele><time>2026-03-29T09:29:32.341Z</time></trkpt><trkpt lat="37.5863183" lon="14.9163333"><ele>331.5</ele><time>2026-03-29T09:29:33.341Z</time></trkpt><trkpt lat="37.5864483" lon="14.91632"><ele>333.0</ele><time>2026-03-29T09:29:34.342Z</time></trkpt><trkpt lat="37.5865783" lon="14.916305"><ele>334.5</ele><time>2026-03-29T09:29:35.341Z</time></trkpt><trkpt lat="37.586715" lon="14.916295"><ele>336.0</ele><time>2026-03-29T09:29:36.341Z</time></trkpt><trkpt lat="37.5868483" lon="14.9162883"><ele>336.0</ele><time>2026-03-29T09:29:37.342Z</time></trkpt><trkpt lat="37.5869983" lon="14.916275"><ele>336.0</ele><time>2026-03-29T09:29:38.341Z</time></trkpt><trkpt lat="37.5871683" lon="14.916245"><ele>336.0</ele><time>2026-03-29T09:29:39.342Z</time></trkpt><trkpt lat="37.5873517" lon="14.9162217"><ele>337.3333333333333</ele><time>2026-03-29T09:29:40.341Z</time></trkpt><trkpt lat="37.587545" lon="14.9162083"><ele>338.66666666666663</ele><time>2026-03-29T09:29:41.342Z</time></trkpt><trkpt lat="37.5877567" lon="14.9161983"><ele>340.0</ele><time>2026-03-29T09:29:42.341Z</time></trkpt><trkpt lat="37.5879617" lon="14.9161817"><ele>343.3333333333333</ele><time>2026-03-29T09:29:43.342Z</time></trkpt><trkpt lat="37.5881633" lon="14.9161633"><ele>346.6666666666667</ele><time>2026-03-29T09:29:44.341Z</time></trkpt><trkpt lat="37.5883633" lon="14.9161483"><ele>350.0</ele><time>2026-03-29T09:29:45.342Z</time></trkpt><trkpt lat="37.5885683" lon="14.9161317"><ele>350.0</ele><time>2026-03-29T09:29:46.342Z</time></trkpt><trkpt lat="37.5887683" lon="14.9161033"><ele>350.0</ele><time>2026-03-29T09:29:47.342Z</time></trkpt><trkpt lat="37.5889733" lon="14.9160883"><ele>350.0</ele><time>2026-03-29T09:29:48.342Z</time></trkpt><trkpt lat="37.5891633" lon="14.91606"><ele>350.0</ele><time>2026-03-29T09:29:49.341Z</time></trkpt><trkpt lat="37.58936" lon="14.9160367"><ele>350.0</ele><time>2026-03-29T09:29:50.342Z</time></trkpt><trkpt lat="37.5895617" lon="14.9160117"><ele>350.0</ele><time>2026-03-29T09:29:51.341Z</time></trkpt><trkpt lat="37.5897733" lon="14.9159733"><ele>350.6666666666667</ele><time>2026-03-29T09:29:52.341Z</time></trkpt><trkpt lat="37.589965" lon="14.9159283"><ele>351.3333333333333</ele><time>2026-03-29T09:29:53.341Z</time></trkpt><trkpt lat="37.5901583" lon="14.9158583"><ele>352.0</ele><time>2026-03-29T09:29:54.341Z</time></trkpt><trkpt lat="37.590345" lon="14.9157867"><ele>353.3333333333333</ele><time>2026-03-29T09:29:55.342Z</time></trkpt><trkpt lat="37.590535" lon="14.91571"><ele>354.6666666666667</ele><time>2026-03-29T09:29:56.342Z</time></trkpt><trkpt lat="37.5907217" lon="14.9156233"><ele>356.0</ele><time>2026-03-29T09:29:57.342Z</time></trkpt><trkpt lat="37.5909067" lon="14.91553"><ele>356.0</ele><time>2026-03-29T09:29:58.342Z</time></trkpt><trkpt lat="37.591095" lon="14.9154317"><ele>356.0</ele><time>2026-03-29T09:29:59.342Z</time></trkpt><trkpt lat="37.5912783" lon="14.9153417"><ele>356.0</ele><time>2026-03-29T09:30:00.341Z</time></trkpt><trkpt lat="37.5914667" lon="14.91524"><ele>356.33333333333337</ele><time>2026-03-29T09:30:01.342Z</time></trkpt><trkpt lat="37.591645" lon="14.9151317"><ele>356.6666666666667</ele><time>2026-03-29T09:30:02.341Z</time></trkpt><trkpt lat="37.59183" lon="14.9150267"><ele>357.0</ele><time>2026-03-29T09:30:03.342Z</time></trkpt><trkpt lat="37.5920133" lon="14.9149183"><ele>357.6666666666667</ele><time>2026-03-29T09:30:04.341Z</time></trkpt><trkpt lat="37.592195" lon="14.9148133"><ele>358.33333333333337</ele><time>2026-03-29T09:30:05.341Z</time></trkpt><trkpt lat="37.5923833" lon="14.9147117"><ele>359.0</ele><time>2026-03-29T09:30:06.342Z</time></trkpt><trkpt lat="37.5925683" lon="14.9146033"><ele>359.0</ele><time>2026-03-29T09:30:07.342Z</time></trkpt><trkpt lat="37.5927467" lon="14.9145017"><ele>359.0</ele><time>2026-03-29T09:30:08.342Z</time></trkpt><trkpt lat="37.5929383" lon="14.9143933"><ele>359.0</ele><time>2026-03-29T09:30:09.341Z</time></trkpt><trkpt lat="37.5931233" lon="14.91429"><ele>360.0</ele><time>2026-03-29T09:30:10.341Z</time></trkpt><trkpt lat="37.593315" lon="14.9141917"><ele>361.0</ele><time>2026-03-29T09:30:11.342Z</time></trkpt><trkpt lat="37.5935033" lon="14.9140933"><ele>362.0</ele><time>2026-03-29T09:30:12.341Z</time></trkpt><trkpt lat="37.59369" lon="14.9139917"><ele>363.33333333333337</ele><time>2026-03-29T09:30:13.342Z</time></trkpt><trkpt lat="37.593875" lon="14.91389"><ele>364.6666666666667</ele><time>2026-03-29T09:30:14.341Z</time></trkpt><trkpt lat="37.5940683" lon="14.913785"><ele>366.0</ele><time>2026-03-29T09:30:15.341Z</time></trkpt><trkpt lat="37.5942583" lon="14.91369"><ele>366.0</ele><time>2026-03-29T09:30:16.341Z</time></trkpt><trkpt lat="37.594435" lon="14.9135867"><ele>366.0</ele><time>2026-03-29T09:30:17.341Z</time></trkpt><trkpt lat="37.5946183" lon="14.9134867"><ele>366.0</ele><time>2026-03-29T09:30:18.341Z</time></trkpt><trkpt lat="37.5948133" lon="14.913375"><ele>366.3333333333333</ele><time>2026-03-29T09:30:19.342Z</time></trkpt><trkpt lat="37.5950083" lon="14.9132817"><ele>366.66666666666663</ele><time>2026-03-29T09:30:20.342Z</time></trkpt><trkpt lat="37.5951967" lon="14.913165"><ele>367.0</ele><time>2026-03-29T09:30:21.342Z</time></trkpt><trkpt lat="37.5953883" lon="14.9130583"><ele>367.0</ele><time>2026-03-29T09:30:22.342Z</time></trkpt><trkpt lat="37.5955783" lon="14.9129517"><ele>367.0</ele><time>2026-03-29T09:30:23.341Z</time></trkpt><trkpt lat="37.5957667" lon="14.9128467"><ele>367.0</ele><time>2026-03-29T09:30:24.342Z</time></trkpt><trkpt lat="37.5959567" lon="14.91275"><ele>367.0</ele><time>2026-03-29T09:30:25.341Z</time></trkpt><trkpt lat="37.596145" lon="14.91264"><ele>367.0</ele><time>2026-03-29T09:30:26.341Z</time></trkpt><trkpt lat="37.5963267" lon="14.9125383"><ele>367.0</ele><time>2026-03-29T09:30:27.341Z</time></trkpt><trkpt lat="37.5965033" lon="14.9124317"><ele>367.3333333333333</ele><time>2026-03-29T09:30:28.342Z</time></trkpt><trkpt lat="37.5966867" lon="14.91233"><ele>367.6666666666667</ele><time>2026-03-29T09:30:29.342Z</time></trkpt><trkpt lat="37.5968767" lon="14.9122233"><ele>368.0</ele><time>2026-03-29T09:30:30.341Z</time></trkpt><trkpt lat="37.5970667" lon="14.9121183"><ele>368.0</ele><time>2026-03-29T09:30:31.342Z</time></trkpt><trkpt lat="37.5972517" lon="14.9120067"><ele>368.0</ele><time>2026-03-29T09:30:32.341Z</time></trkpt><trkpt lat="37.5974367" lon="14.9119033"><ele>368.0</ele><time>2026-03-29T09:30:33.341Z</time></trkpt><trkpt lat="37.5976233" lon="14.911805"><ele>368.6666666666667</ele><time>2026-03-29T09:30:34.341Z</time></trkpt><trkpt lat="37.5978167" lon="14.9117"><ele>369.3333333333333</ele><time>2026-03-29T09:30:35.342Z</time></trkpt><trkpt lat="37.5980067" lon="14.91161"><ele>370.0</ele><time>2026-03-29T09:30:36.342Z</time></trkpt><trkpt lat="37.5981983" lon="14.911535"><ele>370.0</ele><time>2026-03-29T09:30:37.342Z</time></trkpt><trkpt lat="37.5983967" lon="14.9114717"><ele>370.0</ele><time>2026-03-29T09:30:38.341Z</time></trkpt><trkpt lat="37.5986017" lon="14.9114183"><ele>370.0</ele><time>2026-03-29T09:30:39.341Z</time></trkpt><trkpt lat="37.5987983" lon="14.911385"><ele>372.3333333333333</ele><time>2026-03-29T09:30:40.342Z</time></trkpt><trkpt lat="37.5989967" lon="14.9113583"><ele>374.6666666666667</ele><time>2026-03-29T09:30:41.341Z</time></trkpt><trkpt lat="37.5991917" lon="14.9113483"><ele>377.0</ele><time>2026-03-29T09:30:42.341Z</time></trkpt><trkpt lat="37.5993883" lon="14.91135"><ele>379.33333333333337</ele><time>2026-03-29T09:30:43.342Z</time></trkpt><trkpt lat="37.5996" lon="14.9113533"><ele>381.6666666666667</ele><time>2026-03-29T09:30:44.341Z</time></trkpt><trkpt lat="37.5998" lon="14.9113767"><ele>384.0</ele><time>2026-03-29T09:30:45.342Z</time></trkpt><trkpt lat="37.6000017" lon="14.911405"><ele>384.0</ele><time>2026-03-29T09:30:46.341Z</time></trkpt><trkpt lat="37.600205" lon="14.9114183"><ele>384.0</ele><time>2026-03-29T09:30:47.341Z</time></trkpt><trkpt lat="37.6004" lon="14.9114183"><ele>384.0</ele><time>2026-03-29T09:30:48.342Z</time></trkpt><trkpt lat="37.6006067" lon="14.9114283"><ele>385.0</ele><time>2026-03-29T09:30:49.342Z</time></trkpt><trkpt lat="37.600805" lon="14.9114233"><ele>386.0</ele><time>2026-03-29T09:30:50.342Z</time></trkpt><trkpt lat="37.6010117" lon="14.9114333"><ele>387.0</ele><time>2026-03-29T09:30:51.341Z</time></trkpt><trkpt lat="37.6012233" lon="14.9114433"><ele>387.66666666666663</ele><time>2026-03-29T09:30:52.341Z</time></trkpt><trkpt lat="37.6014283" lon="14.911445"><ele>388.3333333333333</ele><time>2026-03-29T09:30:53.342Z</time></trkpt><trkpt lat="37.601635" lon="14.9114567"><ele>389.0</ele><time>2026-03-29T09:30:54.342Z</time></trkpt><trkpt lat="37.60184" lon="14.911465"><ele>390.3333333333333</ele><time>2026-03-29T09:30:55.342Z</time></trkpt><trkpt lat="37.6020467" lon="14.9114633"><ele>391.66666666666663</ele><time>2026-03-29T09:30:56.342Z</time></trkpt><trkpt lat="37.6022433" lon="14.91147"><ele>393.0</ele><time>2026-03-29T09:30:57.342Z</time></trkpt><trkpt lat="37.6024383" lon="14.91149"><ele>393.0</ele><time>2026-03-29T09:30:58.342Z</time></trkpt><trkpt lat="37.6026383" lon="14.9115017"><ele>393.0</ele><time>2026-03-29T09:30:59.341Z</time></trkpt><trkpt lat="37.6028367" lon="14.9115133"><ele>393.0</ele><time>2026-03-29T09:31:00.342Z</time></trkpt><trkpt lat="37.6030217" lon="14.9115083"><ele>394.0</ele><time>2026-03-29T09:31:01.341Z</time></trkpt><trkpt lat="37.6032133" lon="14.9115233"><ele>395.0</ele><time>2026-03-29T09:31:02.341Z</time></trkpt><trkpt lat="37.6034017" lon="14.911515"><ele>396.0</ele><time>2026-03-29T09:31:03.342Z</time></trkpt><trkpt lat="37.6035983" lon="14.9114883"><ele>397.0</ele><time>2026-03-29T09:31:04.341Z</time></trkpt><trkpt lat="37.6037917" lon="14.9114633"><ele>398.0</ele><time>2026-03-29T09:31:05.342Z</time></trkpt><trkpt lat="37.603975" lon="14.9114183"><ele>399.0</ele><time>2026-03-29T09:31:06.342Z</time></trkpt><trkpt lat="37.604155" lon="14.911355"><ele>399.0</ele><time>2026-03-29T09:31:07.341Z</time></trkpt><trkpt lat="37.6043367" lon="14.9112783"><ele>399.0</ele><time>2026-03-29T09:31:08.341Z</time></trkpt><trkpt lat="37.6045117" lon="14.9111817"><ele>399.0</ele><time>2026-03-29T09:31:09.341Z</time></trkpt><trkpt lat="37.604675" lon="14.9110733"><ele>400.33333333333337</ele><time>2026-03-29T09:31:10.341Z</time></trkpt><trkpt lat="37.6048367" lon="14.9109467"><ele>401.6666666666667</ele><time>2026-03-29T09:31:11.341Z</time></trkpt><trkpt lat="37.605" lon="14.91082"><ele>403.0</ele><time>2026-03-29T09:31:12.341Z</time></trkpt><trkpt lat="37.60516" lon="14.91068"><ele>407.0</ele><time>2026-03-29T09:31:13.341Z</time></trkpt><trkpt lat="37.60533" lon="14.9105317"><ele>411.0</ele><time>2026-03-29T09:31:14.342Z</time></trkpt><trkpt lat="37.6055017" lon="14.910395"><ele>415.0</ele><time>2026-03-29T09:31:15.341Z</time></trkpt><trkpt lat="37.6056667" lon="14.9102533"><ele>415.0</ele><time>2026-03-29T09:31:16.342Z</time></trkpt><trkpt lat="37.6058433" lon="14.9100983"><ele>415.0</ele><time>2026-03-29T09:31:17.342Z</time></trkpt><trkpt lat="37.6060167" lon="14.9099433"><ele>415.0</ele><time>2026-03-29T09:31:18.342Z</time></trkpt><trkpt lat="37.606185" lon="14.9098033"><ele>416.0</ele><time>2026-03-29T09:31:19.342Z</time></trkpt><trkpt lat="37.6063417" lon="14.90967"><ele>417.0</ele><time>2026-03-29T09:31:20.342Z</time></trkpt><trkpt lat="37.6064883" lon="14.9095283"><ele>418.0</ele><time>2026-03-29T09:31:21.342Z</time></trkpt><trkpt lat="37.6066533" lon="14.9093683"><ele>416.6666666666667</ele><time>2026-03-29T09:31:22.342Z</time></trkpt><trkpt lat="37.6068233" lon="14.909225"><ele>415.33333333333337</ele><time>2026-03-29T09:31:23.341Z</time></trkpt><trkpt lat="37.606995" lon="14.9090767"><ele>414.0</ele><time>2026-03-29T09:31:24.342Z</time></trkpt><trkpt lat="37.6071717" lon="14.908925"><ele>417.33333333333337</ele><time>2026-03-29T09:31:25.342Z</time></trkpt><trkpt lat="37.6073317" lon="14.9087867"><ele>420.6666666666667</ele><time>2026-03-29T09:31:26.342Z</time></trkpt><trkpt lat="37.6074933" lon="14.9086517"><ele>424.0</ele><time>2026-03-29T09:31:27.342Z</time></trkpt><trkpt lat="37.60766" lon="14.9085033"><ele>423.0</ele><time>2026-03-29T09:31:28.341Z</time></trkpt><trkpt lat="37.60782" lon="14.9083767"><ele>422.0</ele><time>2026-03-29T09:31:29.341Z</time></trkpt><trkpt lat="37.60798" lon="14.9082433"><ele>421.0</ele><time>2026-03-29T09:31:30.342Z</time></trkpt><trkpt lat="37.608145" lon="14.9081117"><ele>423.0</ele><time>2026-03-29T09:31:31.342Z</time></trkpt><trkpt lat="37.6083" lon="14.9079833"><ele>425.0</ele><time>2026-03-29T09:31:32.342Z</time></trkpt><trkpt lat="37.608455" lon="14.907845"><ele>427.0</ele><time>2026-03-29T09:31:33.341Z</time></trkpt><trkpt lat="37.608615" lon="14.9077067"><ele>428.33333333333337</ele><time>2026-03-29T09:31:34.342Z</time></trkpt><trkpt lat="37.60878" lon="14.907555"><ele>429.66666666666663</ele><time>2026-03-29T09:31:35.342Z</time></trkpt><trkpt lat="37.6089517" lon="14.9074033"><ele>431.0</ele><time>2026-03-29T09:31:36.341Z</time></trkpt><trkpt lat="37.609115" lon="14.907255"><ele>431.0</ele><time>2026-03-29T09:31:37.342Z</time></trkpt><trkpt lat="37.6092817" lon="14.9071133"><ele>431.0</ele><time>2026-03-29T09:31:38.342Z</time></trkpt><trkpt lat="37.6094567" lon="14.9069667"><ele>431.0</ele><time>2026-03-29T09:31:39.341Z</time></trkpt><trkpt lat="37.60963" lon="14.9068267"><ele>432.0</ele><time>2026-03-29T09:31:40.341Z</time></trkpt><trkpt lat="37.609805" lon="14.906675"><ele>433.0</ele><time>2026-03-29T09:31:41.341Z</time></trkpt><trkpt lat="37.6099733" lon="14.906525"><ele>434.0</ele><time>2026-03-29T09:31:42.341Z</time></trkpt><trkpt lat="37.6101417" lon="14.906375"><ele>434.0</ele><time>2026-03-29T09:31:43.342Z</time></trkpt><trkpt lat="37.6103067" lon="14.9062267"><ele>434.0</ele><time>2026-03-29T09:31:44.341Z</time></trkpt><trkpt lat="37.6104683" lon="14.906075"><ele>434.0</ele><time>2026-03-29T09:31:45.342Z</time></trkpt><trkpt lat="37.6106283" lon="14.905935"><ele>436.3333333333333</ele><time>2026-03-29T09:31:46.342Z</time></trkpt><trkpt lat="37.6107933" lon="14.90579"><ele>438.66666666666663</ele><time>2026-03-29T09:31:47.341Z</time></trkpt><trkpt lat="37.6109567" lon="14.9056433"><ele>441.0</ele><time>2026-03-29T09:31:48.342Z</time></trkpt><trkpt lat="37.6111217" lon="14.9054983"><ele>442.0</ele><time>2026-03-29T09:31:49.341Z</time></trkpt><trkpt lat="37.6112933" lon="14.9053583"><ele>443.0</ele><time>2026-03-29T09:31:50.342Z</time></trkpt><trkpt lat="37.61146" lon="14.905225"><ele>444.0</ele><time>2026-03-29T09:31:51.342Z</time></trkpt><trkpt lat="37.61163" lon="14.9050917"><ele>443.0</ele><time>2026-03-29T09:31:52.341Z</time></trkpt><trkpt lat="37.6117917" lon="14.90495"><ele>442.0</ele><time>2026-03-29T09:31:53.341Z</time></trkpt><trkpt lat="37.6119683" lon="14.9048083"><ele>441.0</ele><time>2026-03-29T09:31:54.342Z</time></trkpt><trkpt lat="37.6121317" lon="14.9046617"><ele>441.0</ele><time>2026-03-29T09:31:55.341Z</time></trkpt><trkpt lat="37.6123033" lon="14.9045067"><ele>441.0</ele><time>2026-03-29T09:31:56.342Z</time></trkpt><trkpt lat="37.6124783" lon="14.9043633"><ele>441.0</ele><time>2026-03-29T09:31:57.341Z</time></trkpt><trkpt lat="37.61265" lon="14.90421"><ele>443.66666666666663</ele><time>2026-03-29T09:31:58.341Z</time></trkpt><trkpt lat="37.6128233" lon="14.904075"><ele>446.3333333333333</ele><time>2026-03-29T09:31:59.342Z</time></trkpt><trkpt lat="37.6129983" lon="14.90393"><ele>449.0</ele><time>2026-03-29T09:32:00.341Z</time></trkpt><trkpt lat="37.61317" lon="14.9037783"><ele>449.0</ele><time>2026-03-29T09:32:01.342Z</time></trkpt><trkpt lat="37.6133417" lon="14.9036267"><ele>449.0</ele><time>2026-03-29T09:32:02.342Z</time></trkpt><trkpt lat="37.6135083" lon="14.9034783"><ele>449.0</ele><time>2026-03-29T09:32:03.342Z</time></trkpt><trkpt lat="37.61368" lon="14.9033317"><ele>452.3333333333333</ele><time>2026-03-29T09:32:04.342Z</time></trkpt><trkpt lat="37.6138533" lon="14.9031867"><ele>455.66666666666663</ele><time>2026-03-29T09:32:05.342Z</time></trkpt><trkpt lat="37.6140233" lon="14.9030417"><ele>459.0</ele><time>2026-03-29T09:32:06.341Z</time></trkpt><trkpt lat="37.614195" lon="14.9029"><ele>459.0</ele><time>2026-03-29T09:32:07.341Z</time></trkpt><trkpt lat="37.6143733" lon="14.9027533"><ele>459.0</ele><time>2026-03-29T09:32:08.342Z</time></trkpt><trkpt lat="37.6145333" lon="14.9025967"><ele>459.0</ele><time>2026-03-29T09:32:09.342Z</time></trkpt><trkpt lat="37.6147083" lon="14.90245"><ele>458.66666666666663</ele><time>2026-03-29T09:32:10.342Z</time></trkpt><trkpt lat="37.6148933" lon="14.9023167"><ele>458.3333333333333</ele><time>2026-03-29T09:32:11.342Z</time></trkpt><trkpt lat="37.6150867" lon="14.9021867"><ele>458.0</ele><time>2026-03-29T09:32:12.341Z</time></trkpt><trkpt lat="37.6152833" lon="14.902075"><ele>460.66666666666663</ele><time>2026-03-29T09:32:13.341Z</time></trkpt><trkpt lat="37.6154833" lon="14.9019767"><ele>463.33333333333337</ele><time>2026-03-29T09:32:14.341Z</time></trkpt><trkpt lat="37.61569" lon="14.9018867"><ele>466.0</ele><time>2026-03-29T09:32:15.341Z</time></trkpt><trkpt lat="37.615905" lon="14.9018067"><ele>465.5</ele><time>2026-03-29T09:32:16.341Z</time></trkpt><trkpt lat="37.61612" lon="14.9017333"><ele>465.0</ele><time>2026-03-29T09:32:17.341Z</time></trkpt><trkpt lat="37.6163417" lon="14.9016667"><ele>465.0</ele><time>2026-03-29T09:32:18.341Z</time></trkpt><trkpt lat="37.6165567" lon="14.901595"><ele>465.0</ele><time>2026-03-29T09:32:19.341Z</time></trkpt><trkpt lat="37.616775" lon="14.901525"><ele>465.0</ele><time>2026-03-29T09:32:20.342Z</time></trkpt><trkpt lat="37.6169983" lon="14.901455"><ele>466.66666666666663</ele><time>2026-03-29T09:32:21.341Z</time></trkpt><trkpt lat="37.6172167" lon="14.9013883"><ele>468.3333333333333</ele><time>2026-03-29T09:32:22.341Z</time></trkpt><trkpt lat="37.6174333" lon="14.9013217"><ele>470.0</ele><time>2026-03-29T09:32:23.341Z</time></trkpt><trkpt lat="37.6176467" lon="14.901255"><ele>471.3333333333333</ele><time>2026-03-29T09:32:24.341Z</time></trkpt><trkpt lat="37.6178633" lon="14.90119"><ele>472.66666666666663</ele><time>2026-03-29T09:32:25.341Z</time></trkpt><trkpt lat="37.6180817" lon="14.901125"><ele>474.0</ele><time>2026-03-29T09:32:26.341Z</time></trkpt><trkpt lat="37.6182933" lon="14.9010583"><ele>474.0</ele><time>2026-03-29T09:32:27.342Z</time></trkpt><trkpt lat="37.6185067" lon="14.9009967"><ele>474.0</ele><time>2026-03-29T09:32:28.342Z</time></trkpt><trkpt lat="37.6187183" lon="14.900925"><ele>474.0</ele><time>2026-03-29T09:32:29.342Z</time></trkpt><trkpt lat="37.618925" lon="14.9008583"><ele>475.0</ele><time>2026-03-29T09:32:30.341Z</time></trkpt><trkpt lat="37.619125" lon="14.9007867"><ele>476.0</ele><time>2026-03-29T09:32:31.341Z</time></trkpt><trkpt lat="37.61933" lon="14.9007267"><ele>477.0</ele><time>2026-03-29T09:32:32.341Z</time></trkpt><trkpt lat="37.6195283" lon="14.9006633"><ele>478.0</ele><time>2026-03-29T09:32:33.341Z</time></trkpt><trkpt lat="37.6197333" lon="14.9005983"><ele>479.0</ele><time>2026-03-29T09:32:34.342Z</time></trkpt><trkpt lat="37.6199333" lon="14.9005333"><ele>480.0</ele><time>2026-03-29T09:32:35.342Z</time></trkpt><trkpt lat="37.620135" lon="14.9004633"><ele>482.0</ele><time>2026-03-29T09:32:36.342Z</time></trkpt><trkpt lat="37.6203317" lon="14.9003933"><ele>484.0</ele><time>2026-03-29T09:32:37.341Z</time></trkpt><trkpt lat="37.6205383" lon="14.90033"><ele>486.0</ele><time>2026-03-29T09:32:38.342Z</time></trkpt><trkpt lat="37.6207483" lon="14.90026"><ele>486.0</ele><time>2026-03-29T09:32:39.341Z</time></trkpt><trkpt lat="37.6209617" lon="14.9002017"><ele>486.0</ele><time>2026-03-29T09:32:40.341Z</time></trkpt><trkpt lat="37.6211717" lon="14.9001383"><ele>486.0</ele><time>2026-03-29T09:32:41.342Z</time></trkpt><trkpt lat="37.6213733" lon="14.90007"><ele>488.33333333333337</ele><time>2026-03-29T09:32:42.341Z</time></trkpt><trkpt lat="37.6215817" lon="14.9000067"><ele>490.6666666666667</ele><time>2026-03-29T09:32:43.341Z</time></trkpt><trkpt lat="37.621785" lon="14.8999267"><ele>493.0</ele><time>2026-03-29T09:32:44.342Z</time></trkpt><trkpt lat="37.621985" lon="14.8998283"><ele>495.0</ele><time>2026-03-29T09:32:45.342Z</time></trkpt><trkpt lat="37.6221783" lon="14.8997067"><ele>497.0</ele><time>2026-03-29T09:32:46.341Z</time></trkpt><trkpt lat="37.62236" lon="14.899555"><ele>499.0</ele><time>2026-03-29T09:32:47.342Z</time></trkpt><trkpt lat="37.6225217" lon="14.8993883"><ele>499.33333333333337</ele><time>2026-03-29T09:32:48.341Z</time></trkpt><trkpt lat="37.62268" lon="14.8992033"><ele>499.66666666666663</ele><time>2026-03-29T09:32:49.341Z</time></trkpt><trkpt lat="37.6228217" lon="14.899"><ele>500.0</ele><time>2026-03-29T09:32:50.341Z</time></trkpt><trkpt lat="37.6229483" lon="14.898785"><ele>500.0</ele><time>2026-03-29T09:32:51.342Z</time></trkpt><trkpt lat="37.6230667" lon="14.898565"><ele>500.0</ele><time>2026-03-29T09:32:52.342Z</time></trkpt><trkpt lat="37.6231833" lon="14.89834"><ele>500.0</ele><time>2026-03-29T09:32:53.341Z</time></trkpt><trkpt lat="37.6233033" lon="14.8981083"><ele>499.66666666666663</ele><time>2026-03-29T09:32:54.341Z</time></trkpt><trkpt lat="37.62342" lon="14.8978833"><ele>499.33333333333337</ele><time>2026-03-29T09:32:55.341Z</time></trkpt><trkpt lat="37.6235383" lon="14.8976533"><ele>499.0</ele><time>2026-03-29T09:32:56.342Z</time></trkpt><trkpt lat="37.6236583" lon="14.8974217"><ele>504.0</ele><time>2026-03-29T09:32:57.341Z</time></trkpt><trkpt lat="37.6237783" lon="14.8971983"><ele>509.0</ele><time>2026-03-29T09:32:58.341Z</time></trkpt><trkpt lat="37.6238933" lon="14.8969783"><ele>514.0</ele><time>2026-03-29T09:32:59.341Z</time></trkpt><trkpt lat="37.6240167" lon="14.8967567"><ele>513.3333333333334</ele><time>2026-03-29T09:33:00.341Z</time></trkpt><trkpt lat="37.6241317" lon="14.8965433"><ele>512.6666666666666</ele><time>2026-03-29T09:33:01.342Z</time></trkpt><trkpt lat="37.6242467" lon="14.89634"><ele>512.0</ele><time>2026-03-29T09:33:02.342Z</time></trkpt><trkpt lat="37.624375" lon="14.8961583"><ele>513.3333333333333</ele><time>2026-03-29T09:33:03.341Z</time></trkpt><trkpt lat="37.6245217" lon="14.8959933"><ele>514.6666666666666</ele><time>2026-03-29T09:33:04.342Z</time></trkpt><trkpt lat="37.6246833" lon="14.8958417"><ele>516.0</ele><time>2026-03-29T09:33:05.342Z</time></trkpt><trkpt lat="37.62485" lon="14.89572"><ele>516.0</ele><time>2026-03-29T09:33:06.341Z</time></trkpt><trkpt lat="37.6250267" lon="14.895625"><ele>516.0</ele><time>2026-03-29T09:33:07.342Z</time></trkpt><trkpt lat="37.6252233" lon="14.89555"><ele>516.0</ele><time>2026-03-29T09:33:08.342Z</time></trkpt><trkpt lat="37.6254233" lon="14.8954967"><ele>516.6666666666666</ele><time>2026-03-29T09:33:09.341Z</time></trkpt><trkpt lat="37.6256167" lon="14.8954517"><ele>517.3333333333333</ele><time>2026-03-29T09:33:10.342Z</time></trkpt><trkpt lat="37.6258167" lon="14.895435"><ele>518.0</ele><time>2026-03-29T09:33:11.341Z</time></trkpt><trkpt lat="37.6260167" lon="14.8954683"><ele>520.3333333333333</ele><time>2026-03-29T09:33:12.341Z</time></trkpt><trkpt lat="37.6262233" lon="14.8955217"><ele>522.6666666666666</ele><time>2026-03-29T09:33:13.341Z</time></trkpt><trkpt lat="37.6264283" lon="14.8955617"><ele>525.0</ele><time>2026-03-29T09:33:14.342Z</time></trkpt><trkpt lat="37.6266383" lon="14.8956033"><ele>525.0</ele><time>2026-03-29T09:33:15.341Z</time></trkpt><trkpt lat="37.626855" lon="14.8956417"><ele>525.0</ele><time>2026-03-29T09:33:16.341Z</time></trkpt><trkpt lat="37.6270683" lon="14.8956733"><ele>525.0</ele><time>2026-03-29T09:33:17.341Z</time></trkpt><trkpt lat="37.62728" lon="14.8957067"><ele>525.6666666666666</ele><time>2026-03-29T09:33:18.342Z</time></trkpt><trkpt lat="37.627495" lon="14.895745"><ele>526.3333333333333</ele><time>2026-03-29T09:33:19.341Z</time></trkpt><trkpt lat="37.6277167" lon="14.895785"><ele>527.0</ele><time>2026-03-29T09:33:20.342Z</time></trkpt><trkpt lat="37.6279383" lon="14.89582"><ele>527.0</ele><time>2026-03-29T09:33:21.342Z</time></trkpt><trkpt lat="37.6281583" lon="14.89585"><ele>527.0</ele><time>2026-03-29T09:33:22.342Z</time></trkpt><trkpt lat="37.6283767" lon="14.8958883"><ele>527.0</ele><time>2026-03-29T09:33:23.341Z</time></trkpt><trkpt lat="37.628605" lon="14.8959217"><ele>527.3333333333333</ele><time>2026-03-29T09:33:24.342Z</time></trkpt><trkpt lat="37.6288283" lon="14.8959567"><ele>527.6666666666666</ele><time>2026-03-29T09:33:25.341Z</time></trkpt><trkpt lat="37.6290467" lon="14.8959833"><ele>528.0</ele><time>2026-03-29T09:33:26.342Z</time></trkpt><trkpt lat="37.6292633" lon="14.89602"><ele>528.3333333333334</ele><time>2026-03-29T09:33:27.342Z</time></trkpt><trkpt lat="37.62948" lon="14.89604"><ele>528.6666666666667</ele><time>2026-03-29T09:33:28.342Z</time></trkpt><trkpt lat="37.6296967" lon="14.89605"><ele>529.0</ele><time>2026-03-29T09:33:29.342Z</time></trkpt><trkpt lat="37.629905" lon="14.8960217"><ele>529.0</ele><time>2026-03-29T09:33:30.342Z</time></trkpt><trkpt lat="37.6301117" lon="14.8959733"><ele>529.0</ele><time>2026-03-29T09:33:31.341Z</time></trkpt><trkpt lat="37.630315" lon="14.8958967"><ele>529.0</ele><time>2026-03-29T09:33:32.341Z</time></trkpt><trkpt lat="37.6305117" lon="14.895805"><ele>529.3333333333334</ele><time>2026-03-29T09:33:33.342Z</time></trkpt><trkpt lat="37.6307067" lon="14.895685"><ele>529.6666666666666</ele><time>2026-03-29T09:33:34.342Z</time></trkpt><trkpt lat="37.6308967" lon="14.8955483"><ele>530.0</ele><time>2026-03-29T09:33:35.341Z</time></trkpt><trkpt lat="37.6310733" lon="14.8953933"><ele>529.0</ele><time>2026-03-29T09:33:36.341Z</time></trkpt><trkpt lat="37.6312533" lon="14.8952333"><ele>528.0</ele><time>2026-03-29T09:33:37.342Z</time></trkpt><trkpt lat="37.63144" lon="14.8950817"><ele>527.0</ele><time>2026-03-29T09:33:38.342Z</time></trkpt><trkpt lat="37.6316117" lon="14.8949267"><ele>527.0</ele><time>2026-03-29T09:33:39.341Z</time></trkpt><trkpt lat="37.6317817" lon="14.89478"><ele>527.0</ele><time>2026-03-29T09:33:40.341Z</time></trkpt><trkpt lat="37.6319467" lon="14.8946433"><ele>527.0</ele><time>2026-03-29T09:33:41.341Z</time></trkpt><trkpt lat="37.6321067" lon="14.89451"><ele>527.3333333333333</ele><time>2026-03-29T09:33:42.342Z</time></trkpt><trkpt lat="37.63227" lon="14.89437"><ele>527.6666666666666</ele><time>2026-03-29T09:33:43.342Z</time></trkpt><trkpt lat="37.6324317" lon="14.8942267"><ele>528.0</ele><time>2026-03-29T09:33:44.342Z</time></trkpt><trkpt lat="37.6325933" lon="14.8940933"><ele>528.0</ele><time>2026-03-29T09:33:45.342Z</time></trkpt><trkpt lat="37.6327467" lon="14.893965"><ele>528.0</ele><time>2026-03-29T09:33:46.342Z</time></trkpt><trkpt lat="37.632895" lon="14.8938333"><ele>528.0</ele><time>2026-03-29T09:33:47.342Z</time></trkpt><trkpt lat="37.63305" lon="14.8936933"><ele>527.6666666666666</ele><time>2026-03-29T09:33:48.341Z</time></trkpt><trkpt lat="37.633205" lon="14.89356"><ele>527.3333333333333</ele><time>2026-03-29T09:33:49.341Z</time></trkpt><trkpt lat="37.633365" lon="14.893435"><ele>527.0</ele><time>2026-03-29T09:33:50.342Z</time></trkpt><trkpt lat="37.6335183" lon="14.8933067"><ele>530.3333333333333</ele><time>2026-03-29T09:33:51.341Z</time></trkpt><trkpt lat="37.6336683" lon="14.893185"><ele>533.6666666666666</ele><time>2026-03-29T09:33:52.341Z</time></trkpt><trkpt lat="37.63382" lon="14.8930683"><ele>537.0</ele><time>2026-03-29T09:33:53.342Z</time></trkpt><trkpt lat="37.6339717" lon="14.89294"><ele>537.0</ele><time>2026-03-29T09:33:54.341Z</time></trkpt><trkpt lat="37.634125" lon="14.8928067"><ele>537.0</ele><time>2026-03-29T09:33:55.341Z</time></trkpt><trkpt lat="37.63428" lon="14.8926867"><ele>537.0</ele><time>2026-03-29T09:33:56.341Z</time></trkpt><trkpt lat="37.6344333" lon="14.8925717"><ele>538.3333333333334</ele><time>2026-03-29T09:33:57.342Z</time></trkpt><trkpt lat="37.6345817" lon="14.8924567"><ele>539.6666666666667</ele><time>2026-03-29T09:33:58.341Z</time></trkpt><trkpt lat="37.6347283" lon="14.8923333"><ele>541.0</ele><time>2026-03-29T09:33:59.341Z</time></trkpt><trkpt lat="37.634875" lon="14.8922067"><ele>541.0</ele><time>2026-03-29T09:34:00.341Z</time></trkpt><trkpt lat="37.6350217" lon="14.8920817"><ele>541.0</ele><time>2026-03-29T09:34:01.341Z</time></trkpt><trkpt lat="37.6351583" lon="14.8919667"><ele>541.0</ele><time>2026-03-29T09:34:02.341Z</time></trkpt><trkpt lat="37.6352967" lon="14.891845"><ele>543.0</ele><time>2026-03-29T09:34:03.341Z</time></trkpt><trkpt lat="37.6354367" lon="14.8917217"><ele>545.0</ele><time>2026-03-29T09:34:04.342Z</time></trkpt><trkpt lat="37.6355817" lon="14.891605"><ele>547.0</ele><time>2026-03-29T09:34:05.341Z</time></trkpt><trkpt lat="37.6357183" lon="14.89148"><ele>547.0</ele><time>2026-03-29T09:34:06.342Z</time></trkpt><trkpt lat="37.6358617" lon="14.8913567"><ele>547.0</ele><time>2026-03-29T09:34:07.342Z</time></trkpt><trkpt lat="37.636005" lon="14.8912317"><ele>547.0</ele><time>2026-03-29T09:34:08.342Z</time></trkpt><trkpt lat="37.6361483" lon="14.8911117"><ele>546.3333333333334</ele><time>2026-03-29T09:34:09.341Z</time></trkpt><trkpt lat="37.6362983" lon="14.89099"><ele>545.6666666666666</ele><time>2026-03-29T09:34:10.342Z</time></trkpt><trkpt lat="37.6364517" lon="14.89087"><ele>545.0</ele><time>2026-03-29T09:34:11.341Z</time></trkpt><trkpt lat="37.6366" lon="14.8907483"><ele>545.0</ele><time>2026-03-29T09:34:12.342Z</time></trkpt><trkpt lat="37.636745" lon="14.8906267"><ele>545.0</ele><time>2026-03-29T09:34:13.341Z</time></trkpt><trkpt lat="37.63689" lon="14.8905017"><ele>545.0</ele><time>2026-03-29T09:34:14.341Z</time></trkpt><trkpt lat="37.637025" lon="14.89038"><ele>545.6666666666666</ele><time>2026-03-29T09:34:15.341Z</time></trkpt><trkpt lat="37.6371733" lon="14.8902617"><ele>546.3333333333334</ele><time>2026-03-29T09:34:16.341Z</time></trkpt><trkpt lat="37.6373183" lon="14.8901483"><ele>547.0</ele><time>2026-03-29T09:34:17.342Z</time></trkpt><trkpt lat="37.6374633" lon="14.8900367"><ele>547.0</ele><time>2026-03-29T09:34:18.342Z</time></trkpt><trkpt lat="37.6376" lon="14.889925"><ele>547.0</ele><time>2026-03-29T09:34:19.342Z</time></trkpt><trkpt lat="37.6377483" lon="14.889805"><ele>547.0</ele><time>2026-03-29T09:34:20.341Z</time></trkpt><trkpt lat="37.637885" lon="14.8896833"><ele>548.6666666666667</ele><time>2026-03-29T09:34:21.342Z</time></trkpt><trkpt lat="37.6380233" lon="14.8895633"><ele>550.3333333333334</ele><time>2026-03-29T09:34:22.341Z</time></trkpt><trkpt lat="37.6381667" lon="14.8894567"><ele>552.0</ele><time>2026-03-29T09:34:23.342Z</time></trkpt><trkpt lat="37.63831" lon="14.8893417"><ele>552.3333333333334</ele><time>2026-03-29T09:34:24.342Z</time></trkpt><trkpt lat="37.6384483" lon="14.8892267"><ele>552.6666666666667</ele><time>2026-03-29T09:34:25.341Z</time></trkpt><trkpt lat="37.63859" lon="14.8891117"><ele>553.0</ele><time>2026-03-29T09:34:26.342Z</time></trkpt><trkpt lat="37.6387217" lon="14.88899"><ele>553.0</ele><time>2026-03-29T09:34:27.341Z</time></trkpt><trkpt lat="37.638855" lon="14.8888833"><ele>553.0</ele><time>2026-03-29T09:34:28.342Z</time></trkpt><trkpt lat="37.6389883" lon="14.88877"><ele>553.0</ele><time>2026-03-29T09:34:29.341Z</time></trkpt><trkpt lat="37.6391233" lon="14.8886567"><ele>553.0</ele><time>2026-03-29T09:34:30.341Z</time></trkpt><trkpt lat="37.6392617" lon="14.8885383"><ele>553.0</ele><time>2026-03-29T09:34:31.341Z</time></trkpt><trkpt lat="37.6394033" lon="14.8884167"><ele>553.0</ele><time>2026-03-29T09:34:32.341Z</time></trkpt><trkpt lat="37.6395467" lon="14.8882983"><ele>553.6666666666667</ele><time>2026-03-29T09:34:33.342Z</time></trkpt><trkpt lat="37.6396867" lon="14.8881783"><ele>554.3333333333334</ele><time>2026-03-29T09:34:34.341Z</time></trkpt><trkpt lat="37.63983" lon="14.8880583"><ele>555.0</ele><time>2026-03-29T09:34:35.341Z</time></trkpt><trkpt lat="37.6399683" lon="14.8879383"><ele>555.0</ele><time>2026-03-29T09:34:36.342Z</time></trkpt><trkpt lat="37.6401" lon="14.88782"><ele>555.0</ele><time>2026-03-29T09:34:37.341Z</time></trkpt><trkpt lat="37.6402317" lon="14.8877083"><ele>555.0</ele><time>2026-03-29T09:34:38.342Z</time></trkpt><trkpt lat="37.64037" lon="14.8876033"><ele>556.3333333333334</ele><time>2026-03-29T09:34:39.342Z</time></trkpt><trkpt lat="37.6405083" lon="14.8874917"><ele>557.6666666666667</ele><time>2026-03-29T09:34:40.341Z</time></trkpt><trkpt lat="37.64065" lon="14.887375"><ele>559.0</ele><time>2026-03-29T09:34:41.342Z</time></trkpt><trkpt lat="37.6407833" lon="14.8872617"><ele>559.0</ele><time>2026-03-29T09:34:42.342Z</time></trkpt><trkpt lat="37.64092" lon="14.8871583"><ele>559.0</ele><time>2026-03-29T09:34:43.342Z</time></trkpt><trkpt lat="37.6410567" lon="14.8870467"><ele>559.0</ele><time>2026-03-29T09:34:44.341Z</time></trkpt><trkpt lat="37.6411883" lon="14.8869383"><ele>561.0</ele><time>2026-03-29T09:34:45.341Z</time></trkpt><trkpt lat="37.64133" lon="14.886825"><ele>563.0</ele><time>2026-03-29T09:34:46.342Z</time></trkpt><trkpt lat="37.6414667" lon="14.8867117"><ele>565.0</ele><time>2026-03-29T09:34:47.342Z</time></trkpt><trkpt lat="37.6416" lon="14.8865983"><ele>565.0</ele><time>2026-03-29T09:34:48.342Z</time></trkpt><trkpt lat="37.64173" lon="14.8864767"><ele>565.0</ele><time>2026-03-29T09:34:49.342Z</time></trkpt><trkpt lat="37.6418617" lon="14.88636"><ele>565.0</ele><time>2026-03-29T09:34:50.341Z</time></trkpt><trkpt lat="37.6419933" lon="14.8862467"><ele>566.0</ele><time>2026-03-29T09:34:51.342Z</time></trkpt><trkpt lat="37.6421267" lon="14.886125"><ele>567.0</ele><time>2026-03-29T09:34:52.342Z</time></trkpt><trkpt lat="37.64226" lon="14.8860183"><ele>568.0</ele><time>2026-03-29T09:34:53.342Z</time></trkpt><trkpt lat="37.6424" lon="14.8859033"><ele>568.0</ele><time>2026-03-29T09:34:54.342Z</time></trkpt><trkpt lat="37.6425333" lon="14.8857883"><ele>568.0</ele><time>2026-03-29T09:34:55.342Z</time></trkpt><trkpt lat="37.64267" lon="14.8856733"><ele>568.0</ele><time>2026-03-29T09:34:56.342Z</time></trkpt><trkpt lat="37.6428067" lon="14.8855617"><ele>569.3333333333334</ele><time>2026-03-29T09:34:57.342Z</time></trkpt><trkpt lat="37.642955" lon="14.8854467"><ele>570.6666666666666</ele><time>2026-03-29T09:34:58.342Z</time></trkpt><trkpt lat="37.6431" lon="14.8853283"><ele>572.0</ele><time>2026-03-29T09:34:59.341Z</time></trkpt><trkpt lat="37.6432467" lon="14.8852033"><ele>572.6666666666666</ele><time>2026-03-29T09:35:00.341Z</time></trkpt><trkpt lat="37.6433867" lon="14.885085"><ele>573.3333333333334</ele><time>2026-03-29T09:35:01.341Z</time></trkpt><trkpt lat="37.6435183" lon="14.8849667"><ele>574.0</ele><time>2026-03-29T09:35:02.341Z</time></trkpt><trkpt lat="37.643655" lon="14.8848517"><ele>574.0</ele><time>2026-03-29T09:35:03.341Z</time></trkpt><trkpt lat="37.6437867" lon="14.88474"><ele>574.0</ele><time>2026-03-29T09:35:04.342Z</time></trkpt><trkpt lat="37.643925" lon="14.884615"><ele>574.0</ele><time>2026-03-29T09:35:05.342Z</time></trkpt><trkpt lat="37.644055" lon="14.8844933"><ele>574.0</ele><time>2026-03-29T09:35:06.341Z</time></trkpt><trkpt lat="37.6441933" lon="14.88437"><ele>574.0</ele><time>2026-03-29T09:35:07.341Z</time></trkpt><trkpt lat="37.644325" lon="14.8842567"><ele>574.0</ele><time>2026-03-29T09:35:08.341Z</time></trkpt><trkpt lat="37.6444533" lon="14.8841417"><ele>577.0</ele><time>2026-03-29T09:35:09.342Z</time></trkpt><trkpt lat="37.64459" lon="14.88403"><ele>580.0</ele><time>2026-03-29T09:35:10.342Z</time></trkpt><trkpt lat="37.6447267" lon="14.8839233"><ele>583.0</ele><time>2026-03-29T09:35:11.341Z</time></trkpt><trkpt lat="37.6448667" lon="14.8838117"><ele>583.0</ele><time>2026-03-29T09:35:12.342Z</time></trkpt><trkpt lat="37.6450167" lon="14.8836933"><ele>583.0</ele><time>2026-03-29T09:35:13.341Z</time></trkpt><trkpt lat="37.6451483" lon="14.883575"><ele>583.0</ele><time>2026-03-29T09:35:14.342Z</time></trkpt><trkpt lat="37.645285" lon="14.8834583"><ele>585.6666666666667</ele><time>2026-03-29T09:35:15.342Z</time></trkpt><trkpt lat="37.6454167" lon="14.8833333"><ele>588.3333333333334</ele><time>2026-03-29T09:35:16.341Z</time></trkpt><trkpt lat="37.64555" lon="14.8832167"><ele>591.0</ele><time>2026-03-29T09:35:17.342Z</time></trkpt><trkpt lat="37.6456883" lon="14.8831083"><ele>591.0</ele><time>2026-03-29T09:35:18.342Z</time></trkpt><trkpt lat="37.6458317" lon="14.88299"><ele>591.0</ele><time>2026-03-29T09:35:19.342Z</time></trkpt><trkpt lat="37.645965" lon="14.8828667"><ele>591.0</ele><time>2026-03-29T09:35:20.341Z</time></trkpt><trkpt lat="37.6461033" lon="14.8827533"><ele>592.6666666666666</ele><time>2026-03-29T09:35:21.341Z</time></trkpt><trkpt lat="37.64624" lon="14.8826517"><ele>594.3333333333333</ele><time>2026-03-29T09:35:22.342Z</time></trkpt><trkpt lat="37.646375" lon="14.8825517"><ele>596.0</ele><time>2026-03-29T09:35:23.342Z</time></trkpt><trkpt lat="37.646505" lon="14.8824333"><ele>596.0</ele><time>2026-03-29T09:35:24.342Z</time></trkpt><trkpt lat="37.6466367" lon="14.88231"><ele>596.0</ele><time>2026-03-29T09:35:25.342Z</time></trkpt><trkpt lat="37.646775" lon="14.8821983"><ele>596.0</ele><time>2026-03-29T09:35:26.341Z</time></trkpt><trkpt lat="37.646915" lon="14.88207"><ele>598.0</ele><time>2026-03-29T09:35:27.342Z</time></trkpt><trkpt lat="37.6470583" lon="14.881945"><ele>600.0</ele><time>2026-03-29T09:35:28.341Z</time></trkpt><trkpt lat="37.6471933" lon="14.881835"><ele>602.0</ele><time>2026-03-29T09:35:29.342Z</time></trkpt><trkpt lat="37.6473267" lon="14.8817167"><ele>602.0</ele><time>2026-03-29T09:35:30.342Z</time></trkpt><trkpt lat="37.64746" lon="14.8815983"><ele>602.0</ele><time>2026-03-29T09:35:31.341Z</time></trkpt><trkpt lat="37.6475917" lon="14.8814883"><ele>602.0</ele><time>2026-03-29T09:35:32.341Z</time></trkpt><trkpt lat="37.64772" lon="14.8813667"><ele>603.3333333333333</ele><time>2026-03-29T09:35:33.342Z</time></trkpt><trkpt lat="37.64786" lon="14.88125"><ele>604.6666666666666</ele><time>2026-03-29T09:35:34.342Z</time></trkpt><trkpt lat="37.647995" lon="14.881135"><ele>606.0</ele><time>2026-03-29T09:35:35.341Z</time></trkpt><trkpt lat="37.64813" lon="14.8810083"><ele>603.0</ele><time>2026-03-29T09:35:36.342Z</time></trkpt><trkpt lat="37.648265" lon="14.8808967"><ele>600.0</ele><time>2026-03-29T09:35:37.341Z</time></trkpt><trkpt lat="37.6484" lon="14.880785"><ele>597.0</ele><time>2026-03-29T09:35:38.342Z</time></trkpt><trkpt lat="37.648535" lon="14.88067"><ele>599.0</ele><time>2026-03-29T09:35:39.342Z</time></trkpt><trkpt lat="37.6486733" lon="14.88055"><ele>601.0</ele><time>2026-03-29T09:35:40.341Z</time></trkpt><trkpt lat="37.6488067" lon="14.88044"><ele>603.0</ele><time>2026-03-29T09:35:41.341Z</time></trkpt><trkpt lat="37.6489433" lon="14.88032"><ele>603.0</ele><time>2026-03-29T09:35:42.342Z</time></trkpt><trkpt lat="37.64908" lon="14.8802067"><ele>603.0</ele><time>2026-03-29T09:35:43.342Z</time></trkpt><trkpt lat="37.6492233" lon="14.88009"><ele>603.0</ele><time>2026-03-29T09:35:44.342Z</time></trkpt><trkpt lat="37.6493617" lon="14.8799767"><ele>606.3333333333334</ele><time>2026-03-29T09:35:45.341Z</time></trkpt><trkpt lat="37.649495" lon="14.8798617"><ele>609.6666666666667</ele><time>2026-03-29T09:35:46.342Z</time></trkpt><trkpt lat="37.6496267" lon="14.8797483"><ele>613.0</ele><time>2026-03-29T09:35:47.341Z</time></trkpt><trkpt lat="37.6497667" lon="14.8796383"><ele>613.0</ele><time>2026-03-29T09:35:48.341Z</time></trkpt><trkpt lat="37.6499" lon="14.8795267"><ele>613.0</ele><time>2026-03-29T09:35:49.341Z</time></trkpt><trkpt lat="37.6500317" lon="14.8794067"><ele>613.0</ele><time>2026-03-29T09:35:50.341Z</time></trkpt><trkpt lat="37.6501633" lon="14.879295"><ele>612.3333333333334</ele><time>2026-03-29T09:35:51.341Z</time></trkpt><trkpt lat="37.650295" lon="14.8791767"><ele>611.6666666666666</ele><time>2026-03-29T09:35:52.341Z</time></trkpt><trkpt lat="37.6504267" lon="14.8790617"><ele>611.0</ele><time>2026-03-29T09:35:53.342Z</time></trkpt><trkpt lat="37.6505683" lon="14.8789417"><ele>611.0</ele><time>2026-03-29T09:35:54.342Z</time></trkpt><trkpt lat="37.6507083" lon="14.8788233"><ele>611.0</ele><time>2026-03-29T09:35:55.341Z</time></trkpt><trkpt lat="37.65084" lon="14.8787167"><ele>611.0</ele><time>2026-03-29T09:35:56.341Z</time></trkpt><trkpt lat="37.6509783" lon="14.878595"><ele>611.0</ele><time>2026-03-29T09:35:57.342Z</time></trkpt><trkpt lat="37.6511083" lon="14.8784883"><ele>611.0</ele><time>2026-03-29T09:35:58.341Z</time></trkpt><trkpt lat="37.651235" lon="14.87838"><ele>611.0</ele><time>2026-03-29T09:35:59.342Z</time></trkpt><trkpt lat="37.65135" lon="14.8782833"><ele>611.0</ele><time>2026-03-29T09:36:00.341Z</time></trkpt><trkpt lat="37.6514717" lon="14.8781767"><ele>612.25</ele><time>2026-03-29T09:36:01.342Z</time></trkpt><trkpt lat="37.651595" lon="14.8780833"><ele>613.5</ele><time>2026-03-29T09:36:02.341Z</time></trkpt><trkpt lat="37.6517183" lon="14.8779783"><ele>614.75</ele><time>2026-03-29T09:36:03.342Z</time></trkpt><trkpt lat="37.6518383" lon="14.8778767"><ele>616.0</ele><time>2026-03-29T09:36:04.341Z</time></trkpt><trkpt lat="37.65196" lon="14.8777683"><ele>616.25</ele><time>2026-03-29T09:36:05.341Z</time></trkpt><trkpt lat="37.6520683" lon="14.8776433"><ele>616.5</ele><time>2026-03-29T09:36:06.341Z</time></trkpt><trkpt lat="37.652175" lon="14.87752"><ele>616.75</ele><time>2026-03-29T09:36:07.342Z</time></trkpt><trkpt lat="37.652275" lon="14.8773917"><ele>617.0</ele><time>2026-03-29T09:36:08.341Z</time></trkpt><trkpt lat="37.652375" lon="14.87726"><ele>617.0</ele><time>2026-03-29T09:36:09.342Z</time></trkpt><trkpt lat="37.6524717" lon="14.8771283"><ele>617.0</ele><time>2026-03-29T09:36:10.341Z</time></trkpt><trkpt lat="37.6525617" lon="14.87699"><ele>617.0</ele><time>2026-03-29T09:36:11.341Z</time></trkpt><trkpt lat="37.6526467" lon="14.8768467"><ele>617.0</ele><time>2026-03-29T09:36:12.342Z</time></trkpt><trkpt lat="37.6527283" lon="14.8766983"><ele>617.75</ele><time>2026-03-29T09:36:13.342Z</time></trkpt><trkpt lat="37.65281" lon="14.876545"><ele>618.5</ele><time>2026-03-29T09:36:14.341Z</time></trkpt><trkpt lat="37.652885" lon="14.8763917"><ele>619.25</ele><time>2026-03-29T09:36:15.342Z</time></trkpt><trkpt lat="37.65296" lon="14.8762317"><ele>620.0</ele><time>2026-03-29T09:36:16.342Z</time></trkpt><trkpt lat="37.653045" lon="14.8760683"><ele>619.6666666666666</ele><time>2026-03-29T09:36:17.341Z</time></trkpt><trkpt lat="37.6531283" lon="14.8759017"><ele>619.3333333333334</ele><time>2026-03-29T09:36:18.342Z</time></trkpt><trkpt lat="37.6532067" lon="14.8757383"><ele>619.0</ele><time>2026-03-29T09:36:19.341Z</time></trkpt><trkpt lat="37.6532933" lon="14.875575"><ele>619.0</ele><time>2026-03-29T09:36:20.342Z</time></trkpt><trkpt lat="37.6533817" lon="14.875405"><ele>619.0</ele><time>2026-03-29T09:36:21.341Z</time></trkpt><trkpt lat="37.653465" lon="14.8752283"><ele>619.0</ele><time>2026-03-29T09:36:22.341Z</time></trkpt><trkpt lat="37.6535533" lon="14.8750283"><ele>619.0</ele><time>2026-03-29T09:36:23.342Z</time></trkpt><trkpt lat="37.653665" lon="14.8748"><ele>619.0</ele><time>2026-03-29T09:36:24.342Z</time></trkpt><trkpt lat="37.653785" lon="14.8745567"><ele>619.0</ele><time>2026-03-29T09:36:25.342Z</time></trkpt><trkpt lat="37.6539083" lon="14.874295"><ele>616.5</ele><time>2026-03-29T09:36:26.342Z</time></trkpt><trkpt lat="37.65404" lon="14.8740167"><ele>614.0</ele><time>2026-03-29T09:36:27.342Z</time></trkpt><trkpt lat="37.65418" lon="14.8737333"><ele>614.0</ele><time>2026-03-29T09:36:28.341Z</time></trkpt><trkpt lat="37.6543233" lon="14.8734567"><ele>614.0</ele><time>2026-03-29T09:36:29.341Z</time></trkpt><trkpt lat="37.654465" lon="14.873175"><ele>615.0</ele><time>2026-03-29T09:36:30.341Z</time></trkpt><trkpt lat="37.6546017" lon="14.8728883"><ele>616.0</ele><time>2026-03-29T09:36:31.341Z</time></trkpt><trkpt lat="37.6547433" lon="14.872605"><ele>616.0</ele><time>2026-03-29T09:36:32.341Z</time></trkpt><trkpt lat="37.6548833" lon="14.8723267"><ele>616.0</ele><time>2026-03-29T09:36:33.341Z</time></trkpt><trkpt lat="37.655025" lon="14.87205"><ele>615.5</ele><time>2026-03-29T09:36:34.342Z</time></trkpt><trkpt lat="37.6551617" lon="14.8717683"><ele>615.0</ele><time>2026-03-29T09:36:35.342Z</time></trkpt><trkpt lat="37.6553033" lon="14.8714833"><ele>615.0</ele><time>2026-03-29T09:36:36.342Z</time></trkpt><trkpt lat="37.6554433" lon="14.87121"><ele>615.0</ele><time>2026-03-29T09:36:37.342Z</time></trkpt><trkpt lat="37.6555767" lon="14.870935"><ele>615.0</ele><time>2026-03-29T09:36:38.341Z</time></trkpt><trkpt lat="37.6557167" lon="14.8706633"><ele>615.0</ele><time>2026-03-29T09:36:39.341Z</time></trkpt><trkpt lat="37.655855" lon="14.8703933"><ele>615.0</ele><time>2026-03-29T09:36:40.342Z</time></trkpt><trkpt lat="37.6559917" lon="14.8701317"><ele>615.0</ele><time>2026-03-29T09:36:41.341Z</time></trkpt><trkpt lat="37.6561183" lon="14.8698717"><ele>620.0</ele><time>2026-03-29T09:36:42.341Z</time></trkpt><trkpt lat="37.6562483" lon="14.86962"><ele>625.0</ele><time>2026-03-29T09:36:43.341Z</time></trkpt><trkpt lat="37.6563883" lon="14.8693833"><ele>622.0</ele><time>2026-03-29T09:36:44.342Z</time></trkpt><trkpt lat="37.656535" lon="14.869165"><ele>619.0</ele><time>2026-03-29T09:36:45.342Z</time></trkpt><trkpt lat="37.6566883" lon="14.868965"><ele>616.0</ele><time>2026-03-29T09:36:46.341Z</time></trkpt><trkpt lat="37.6568483" lon="14.8687817"><ele>617.3333333333334</ele><time>2026-03-29T09:36:47.342Z</time></trkpt><trkpt lat="37.657025" lon="14.8686183"><ele>618.6666666666666</ele><time>2026-03-29T09:36:48.342Z</time></trkpt><trkpt lat="37.65721" lon="14.868475"><ele>620.0</ele><time>2026-03-29T09:36:49.341Z</time></trkpt><trkpt lat="37.6573983" lon="14.86835"><ele>620.0</ele><time>2026-03-29T09:36:50.341Z</time></trkpt><trkpt lat="37.6575867" lon="14.8682317"><ele>620.0</ele><time>2026-03-29T09:36:51.342Z</time></trkpt><trkpt lat="37.6577883" lon="14.8681217"><ele>620.0</ele><time>2026-03-29T09:36:52.342Z</time></trkpt><trkpt lat="37.6579917" lon="14.8680217"><ele>623.3333333333333</ele><time>2026-03-29T09:36:53.342Z</time></trkpt><trkpt lat="37.6581933" lon="14.8679267"><ele>626.6666666666666</ele><time>2026-03-29T09:36:54.342Z</time></trkpt><trkpt lat="37.6584133" lon="14.8678383"><ele>630.0</ele><time>2026-03-29T09:36:55.341Z</time></trkpt><trkpt lat="37.6586283" lon="14.8677467"><ele>629.6666666666666</ele><time>2026-03-29T09:36:56.341Z</time></trkpt><trkpt lat="37.6588383" lon="14.8676617"><ele>629.3333333333333</ele><time>2026-03-29T09:36:57.341Z</time></trkpt><trkpt lat="37.6590517" lon="14.8675817"><ele>629.0</ele><time>2026-03-29T09:36:58.342Z</time></trkpt><trkpt lat="37.65926" lon="14.8674933"><ele>628.6666666666666</ele><time>2026-03-29T09:36:59.342Z</time></trkpt><trkpt lat="37.6594683" lon="14.8674083"><ele>628.3333333333334</ele><time>2026-03-29T09:37:00.342Z</time></trkpt><trkpt lat="37.659675" lon="14.8673333"><ele>628.0</ele><time>2026-03-29T09:37:01.342Z</time></trkpt><trkpt lat="37.659885" lon="14.8672517"><ele>628.0</ele><time>2026-03-29T09:37:02.341Z</time></trkpt><trkpt lat="37.6600883" lon="14.867165"><ele>628.0</ele><time>2026-03-29T09:37:03.341Z</time></trkpt><trkpt lat="37.6602983" lon="14.8670733"><ele>628.0</ele><time>2026-03-29T09:37:04.341Z</time></trkpt><trkpt lat="37.66051" lon="14.8669883"><ele>628.6666666666667</ele><time>2026-03-29T09:37:05.342Z</time></trkpt><trkpt lat="37.660725" lon="14.8669"><ele>629.3333333333334</ele><time>2026-03-29T09:37:06.342Z</time></trkpt><trkpt lat="37.6609367" lon="14.8668133"><ele>630.0</ele><time>2026-03-29T09:37:07.341Z</time></trkpt><trkpt lat="37.6611567" lon="14.8667217"><ele>630.0</ele><time>2026-03-29T09:37:08.342Z</time></trkpt><trkpt lat="37.6613667" lon="14.8666217"><ele>630.0</ele><time>2026-03-29T09:37:09.342Z</time></trkpt><trkpt lat="37.6615617" lon="14.866515"><ele>630.0</ele><time>2026-03-29T09:37:10.341Z</time></trkpt><trkpt lat="37.6617483" lon="14.8663917"><ele>630.0</ele><time>2026-03-29T09:37:11.341Z</time></trkpt><trkpt lat="37.6619183" lon="14.8662383"><ele>630.0</ele><time>2026-03-29T09:37:12.342Z</time></trkpt><trkpt lat="37.66207" lon="14.8660717"><ele>630.0</ele><time>2026-03-29T09:37:13.342Z</time></trkpt><trkpt lat="37.6622117" lon="14.865885"><ele>629.0</ele><time>2026-03-29T09:37:14.342Z</time></trkpt><trkpt lat="37.6623433" lon="14.865685"><ele>628.0</ele><time>2026-03-29T09:37:15.341Z</time></trkpt><trkpt lat="37.66246" lon="14.8654733"><ele>627.0</ele><time>2026-03-29T09:37:16.341Z</time></trkpt><trkpt lat="37.6625617" lon="14.8652467"><ele>625.3333333333334</ele><time>2026-03-29T09:37:17.342Z</time></trkpt><trkpt lat="37.6626633" lon="14.8650117"><ele>623.6666666666667</ele><time>2026-03-29T09:37:18.341Z</time></trkpt><trkpt lat="37.66276" lon="14.8647833"><ele>622.0</ele><time>2026-03-29T09:37:19.341Z</time></trkpt><trkpt lat="37.6628683" lon="14.8645417"><ele>624.3333333333334</ele><time>2026-03-29T09:37:20.342Z</time></trkpt><trkpt lat="37.662975" lon="14.8643117"><ele>626.6666666666666</ele><time>2026-03-29T09:37:21.342Z</time></trkpt><trkpt lat="37.6630817" lon="14.8640767"><ele>629.0</ele><time>2026-03-29T09:37:22.341Z</time></trkpt><trkpt lat="37.66319" lon="14.86384"><ele>629.0</ele><time>2026-03-29T09:37:23.342Z</time></trkpt><trkpt lat="37.6632967" lon="14.8635983"><ele>629.0</ele><time>2026-03-29T09:37:24.341Z</time></trkpt><trkpt lat="37.6634067" lon="14.8633617"><ele>629.0</ele><time>2026-03-29T09:37:25.341Z</time></trkpt><trkpt lat="37.66352" lon="14.8631217"><ele>630.5</ele><time>2026-03-29T09:37:26.341Z</time></trkpt><trkpt lat="37.6636283" lon="14.8628717"><ele>632.0</ele><time>2026-03-29T09:37:27.342Z</time></trkpt><trkpt lat="37.6637417" lon="14.8626083"><ele>632.0</ele><time>2026-03-29T09:37:28.341Z</time></trkpt><trkpt lat="37.6638583" lon="14.86234"><ele>632.0</ele><time>2026-03-29T09:37:29.341Z</time></trkpt><trkpt lat="37.6639817" lon="14.8620717"><ele>632.0</ele><time>2026-03-29T09:37:30.342Z</time></trkpt><trkpt lat="37.6641067" lon="14.8618033"><ele>632.0</ele><time>2026-03-29T09:37:31.342Z</time></trkpt><trkpt lat="37.6642333" lon="14.8615533"><ele>633.0</ele><time>2026-03-29T09:37:32.341Z</time></trkpt><trkpt lat="37.6643433" lon="14.8613033"><ele>634.0</ele><time>2026-03-29T09:37:33.342Z</time></trkpt><trkpt lat="37.664445" lon="14.861075"><ele>635.0</ele><time>2026-03-29T09:37:34.342Z</time></trkpt><trkpt lat="37.6645367" lon="14.8608683"><ele>635.0</ele><time>2026-03-29T09:37:35.341Z</time></trkpt><trkpt lat="37.66463" lon="14.86067"><ele>635.0</ele><time>2026-03-29T09:37:36.342Z</time></trkpt><trkpt lat="37.6647267" lon="14.86048"><ele>635.0</ele><time>2026-03-29T09:37:37.341Z</time></trkpt><trkpt lat="37.664815" lon="14.8602967"><ele>635.0</ele><time>2026-03-29T09:37:38.342Z</time></trkpt><trkpt lat="37.6649" lon="14.8600933"><ele>635.0</ele><time>2026-03-29T09:37:39.342Z</time></trkpt><trkpt lat="37.6649867" lon="14.8598867"><ele>635.0</ele><time>2026-03-29T09:37:40.342Z</time></trkpt><trkpt lat="37.6650783" lon="14.8596783"><ele>635.0</ele><time>2026-03-29T09:37:41.341Z</time></trkpt><trkpt lat="37.6651717" lon="14.8594767"><ele>635.0</ele><time>2026-03-29T09:37:42.342Z</time></trkpt><trkpt lat="37.6652583" lon="14.859275"><ele>635.0</ele><time>2026-03-29T09:37:43.341Z</time></trkpt><trkpt lat="37.6653533" lon="14.8590867"><ele>636.6666666666666</ele><time>2026-03-29T09:37:44.342Z</time></trkpt><trkpt lat="37.66544" lon="14.858895"><ele>638.3333333333334</ele><time>2026-03-29T09:37:45.341Z</time></trkpt><trkpt lat="37.6655333" lon="14.85869"><ele>640.0</ele><time>2026-03-29T09:37:46.342Z</time></trkpt><trkpt lat="37.665615" lon="14.8584933"><ele>638.3333333333334</ele><time>2026-03-29T09:37:47.342Z</time></trkpt><trkpt lat="37.6657033" lon="14.858305"><ele>636.6666666666666</ele><time>2026-03-29T09:37:48.341Z</time></trkpt><trkpt lat="37.66579" lon="14.8581133"><ele>635.0</ele><time>2026-03-29T09:37:49.342Z</time></trkpt><trkpt lat="37.6658733" lon="14.8579167"><ele>635.0</ele><time>2026-03-29T09:37:50.342Z</time></trkpt><trkpt lat="37.66596" lon="14.8577267"><ele>635.0</ele><time>2026-03-29T09:37:51.341Z</time></trkpt><trkpt lat="37.6660367" lon="14.8575433"><ele>635.0</ele><time>2026-03-29T09:37:52.342Z</time></trkpt><trkpt lat="37.6661183" lon="14.8573717"><ele>636.3333333333333</ele><time>2026-03-29T09:37:53.341Z</time></trkpt><trkpt lat="37.6662033" lon="14.8571983"><ele>637.6666666666666</ele><time>2026-03-29T09:37:54.342Z</time></trkpt><trkpt lat="37.6662817" lon="14.857025"><ele>639.0</ele><time>2026-03-29T09:37:55.341Z</time></trkpt><trkpt lat="37.6663633" lon="14.8568567"><ele>639.0</ele><time>2026-03-29T09:37:56.342Z</time></trkpt><trkpt lat="37.6664467" lon="14.85669"><ele>639.0</ele><time>2026-03-29T09:37:57.341Z</time></trkpt><trkpt lat="37.6665317" lon="14.8565167"><ele>639.0</ele><time>2026-03-29T09:37:58.342Z</time></trkpt><trkpt lat="37.6666183" lon="14.8563433"><ele>639.0</ele><time>2026-03-29T09:37:59.342Z</time></trkpt><trkpt lat="37.6667083" lon="14.85618"><ele>639.0</ele><time>2026-03-29T09:38:00.341Z</time></trkpt><trkpt lat="37.6668" lon="14.8560083"><ele>639.0</ele><time>2026-03-29T09:38:01.342Z</time></trkpt><trkpt lat="37.666905" lon="14.8558283"><ele>640.0</ele><time>2026-03-29T09:38:02.342Z</time></trkpt><trkpt lat="37.667015" lon="14.8556517"><ele>641.0</ele><time>2026-03-29T09:38:03.341Z</time></trkpt><trkpt lat="37.6671267" lon="14.8554617"><ele>642.0</ele><time>2026-03-29T09:38:04.342Z</time></trkpt><trkpt lat="37.6672517" lon="14.8552683"><ele>638.3333333333334</ele><time>2026-03-29T09:38:05.341Z</time></trkpt><trkpt lat="37.6673783" lon="14.8550717"><ele>634.6666666666667</ele><time>2026-03-29T09:38:06.341Z</time></trkpt><trkpt lat="37.6675033" lon="14.8548783"><ele>631.0</ele><time>2026-03-29T09:38:07.342Z</time></trkpt><trkpt lat="37.6676317" lon="14.8546817"><ele>631.0</ele><time>2026-03-29T09:38:08.342Z</time></trkpt><trkpt lat="37.6677583" lon="14.8544883"><ele>631.0</ele><time>2026-03-29T09:38:09.341Z</time></trkpt><trkpt lat="37.66788" lon="14.8543033"><ele>631.0</ele><time>2026-03-29T09:38:10.342Z</time></trkpt><trkpt lat="37.6679983" lon="14.8541317"><ele>630.3333333333334</ele><time>2026-03-29T09:38:11.342Z</time></trkpt><trkpt lat="37.668115" lon="14.8539583"><ele>629.6666666666666</ele><time>2026-03-29T09:38:12.341Z</time></trkpt><trkpt lat="37.6682317" lon="14.8537783"><ele>629.0</ele><time>2026-03-29T09:38:13.342Z</time></trkpt><trkpt lat="37.6683517" lon="14.8535967"><ele>629.0</ele><time>2026-03-29T09:38:14.342Z</time></trkpt><trkpt lat="37.66847" lon="14.8534117"><ele>629.0</ele><time>2026-03-29T09:38:15.342Z</time></trkpt><trkpt lat="37.6685917" lon="14.8532217"><ele>629.0</ele><time>2026-03-29T09:38:16.341Z</time></trkpt><trkpt lat="37.6687183" lon="14.85302"><ele>629.0</ele><time>2026-03-29T09:38:17.341Z</time></trkpt><trkpt lat="37.6688533" lon="14.8528067"><ele>629.0</ele><time>2026-03-29T09:38:18.341Z</time></trkpt><trkpt lat="37.669005" lon="14.8525883"><ele>629.0</ele><time>2026-03-29T09:38:19.342Z</time></trkpt><trkpt lat="37.6691533" lon="14.852365"><ele>628.0</ele><time>2026-03-29T09:38:20.342Z</time></trkpt><trkpt lat="37.6693017" lon="14.8521333"><ele>627.0</ele><time>2026-03-29T09:38:21.342Z</time></trkpt><trkpt lat="37.669455" lon="14.8519"><ele>631.0</ele><time>2026-03-29T09:38:22.341Z</time></trkpt><trkpt lat="37.6696167" lon="14.8516667"><ele>635.0</ele><time>2026-03-29T09:38:23.342Z</time></trkpt><trkpt lat="37.6697767" lon="14.8514267"><ele>635.0</ele><time>2026-03-29T09:38:24.341Z</time></trkpt><trkpt lat="37.6699367" lon="14.8511867"><ele>635.0</ele><time>2026-03-29T09:38:25.342Z</time></trkpt><trkpt lat="37.67009" lon="14.85096"><ele>634.6666666666666</ele><time>2026-03-29T09:38:26.342Z</time></trkpt><trkpt lat="37.6702367" lon="14.8507417"><ele>634.3333333333334</ele><time>2026-03-29T09:38:27.342Z</time></trkpt><trkpt lat="37.6703717" lon="14.8505483"><ele>634.0</ele><time>2026-03-29T09:38:28.341Z</time></trkpt><trkpt lat="37.6705017" lon="14.8503583"><ele>636.6666666666667</ele><time>2026-03-29T09:38:29.341Z</time></trkpt><trkpt lat="37.6706267" lon="14.8501683"><ele>639.3333333333334</ele><time>2026-03-29T09:38:30.341Z</time></trkpt><trkpt lat="37.6707533" lon="14.8499817"><ele>642.0</ele><time>2026-03-29T09:38:31.341Z</time></trkpt><trkpt lat="37.670875" lon="14.8498067"><ele>642.0</ele><time>2026-03-29T09:38:32.341Z</time></trkpt><trkpt lat="37.6709883" lon="14.8496283"><ele>642.0</ele><time>2026-03-29T09:38:33.341Z</time></trkpt><trkpt lat="37.6711" lon="14.84946"><ele>642.0</ele><time>2026-03-29T09:38:34.341Z</time></trkpt><trkpt lat="37.6712117" lon="14.8492783"><ele>643.3333333333334</ele><time>2026-03-29T09:38:35.342Z</time></trkpt><trkpt lat="37.6713267" lon="14.8490883"><ele>644.6666666666667</ele><time>2026-03-29T09:38:36.342Z</time></trkpt><trkpt lat="37.67145" lon="14.848895"><ele>646.0</ele><time>2026-03-29T09:38:37.342Z</time></trkpt><trkpt lat="37.671585" lon="14.8487067"><ele>646.0</ele><time>2026-03-29T09:38:38.341Z</time></trkpt><trkpt lat="37.671715" lon="14.84852"><ele>646.0</ele><time>2026-03-29T09:38:39.341Z</time></trkpt><trkpt lat="37.67184" lon="14.8483383"><ele>646.0</ele><time>2026-03-29T09:38:40.341Z</time></trkpt><trkpt lat="37.671955" lon="14.84816"><ele>644.6666666666667</ele><time>2026-03-29T09:38:41.341Z</time></trkpt><trkpt lat="37.6720683" lon="14.84799"><ele>643.3333333333334</ele><time>2026-03-29T09:38:42.342Z</time></trkpt><trkpt lat="37.6721667" lon="14.8478083"><ele>642.0</ele><time>2026-03-29T09:38:43.341Z</time></trkpt><trkpt lat="37.6722617" lon="14.8476233"><ele>640.6666666666666</ele><time>2026-03-29T09:38:44.342Z</time></trkpt><trkpt lat="37.6723633" lon="14.8474267"><ele>639.3333333333333</ele><time>2026-03-29T09:38:45.341Z</time></trkpt><trkpt lat="37.67246" lon="14.847225"><ele>638.0</ele><time>2026-03-29T09:38:46.341Z</time></trkpt><trkpt lat="37.6725533" lon="14.847005"><ele>638.0</ele><time>2026-03-29T09:38:47.342Z</time></trkpt><trkpt lat="37.67264" lon="14.8467583"><ele>638.0</ele><time>2026-03-29T09:38:48.342Z</time></trkpt><trkpt lat="37.6727283" lon="14.8464867"><ele>638.0</ele><time>2026-03-29T09:38:49.341Z</time></trkpt><trkpt lat="37.6728233" lon="14.8461983"><ele>639.0</ele><time>2026-03-29T09:38:50.341Z</time></trkpt><trkpt lat="37.6729167" lon="14.8459"><ele>640.0</ele><time>2026-03-29T09:38:51.341Z</time></trkpt><trkpt lat="37.6729967" lon="14.845615"><ele>640.0</ele><time>2026-03-29T09:38:52.341Z</time></trkpt><trkpt lat="37.67307" lon="14.8453483"><ele>640.0</ele><time>2026-03-29T09:38:53.341Z</time></trkpt><trkpt lat="37.67315" lon="14.8450717"><ele>640.0</ele><time>2026-03-29T09:38:54.341Z</time></trkpt><trkpt lat="37.6732267" lon="14.8447917"><ele>640.0</ele><time>2026-03-29T09:38:55.342Z</time></trkpt><trkpt lat="37.6733117" lon="14.844505"><ele>637.5</ele><time>2026-03-29T09:38:56.341Z</time></trkpt><trkpt lat="37.67339" lon="14.8442217"><ele>635.0</ele><time>2026-03-29T09:38:57.342Z</time></trkpt><trkpt lat="37.6734633" lon="14.8439433"><ele>635.0</ele><time>2026-03-29T09:38:58.342Z</time></trkpt><trkpt lat="37.6735417" lon="14.84367"><ele>635.0</ele><time>2026-03-29T09:38:59.342Z</time></trkpt><trkpt lat="37.6736183" lon="14.8434033"><ele>633.0</ele><time>2026-03-29T09:39:00.342Z</time></trkpt><trkpt lat="37.6736983" lon="14.8431267"><ele>631.0</ele><time>2026-03-29T09:39:01.341Z</time></trkpt><trkpt lat="37.673785" lon="14.8428567"><ele>630.0</ele><time>2026-03-29T09:39:02.342Z</time></trkpt><trkpt lat="37.673865" lon="14.8425867"><ele>629.0</ele><time>2026-03-29T09:39:03.342Z</time></trkpt><trkpt lat="37.6739467" lon="14.8423233"><ele>629.0</ele><time>2026-03-29T09:39:04.341Z</time></trkpt><trkpt lat="37.6740233" lon="14.84206"><ele>629.0</ele><time>2026-03-29T09:39:05.342Z</time></trkpt><trkpt lat="37.6740967" lon="14.8418"><ele>629.0</ele><time>2026-03-29T09:39:06.342Z</time></trkpt><trkpt lat="37.6741733" lon="14.8415383"><ele>629.0</ele><time>2026-03-29T09:39:07.342Z</time></trkpt><trkpt lat="37.6742467" lon="14.84127"><ele>629.0</ele><time>2026-03-29T09:39:08.342Z</time></trkpt><trkpt lat="37.6743233" lon="14.8410117"><ele>629.0</ele><time>2026-03-29T09:39:09.342Z</time></trkpt><trkpt lat="37.6743967" lon="14.8407617"><ele>630.0</ele><time>2026-03-29T09:39:10.341Z</time></trkpt><trkpt lat="37.6744683" lon="14.8405083"><ele>631.0</ele><time>2026-03-29T09:39:11.342Z</time></trkpt><trkpt lat="37.6745417" lon="14.840255"><ele>632.0</ele><time>2026-03-29T09:39:12.341Z</time></trkpt><trkpt lat="37.6746117" lon="14.8400033"><ele>632.0</ele><time>2026-03-29T09:39:13.342Z</time></trkpt><trkpt lat="37.6746867" lon="14.8397467"><ele>632.0</ele><time>2026-03-29T09:39:14.341Z</time></trkpt><trkpt lat="37.6747583" lon="14.8394817"><ele>632.0</ele><time>2026-03-29T09:39:15.341Z</time></trkpt><trkpt lat="37.6748367" lon="14.8392167"><ele>630.6666666666666</ele><time>2026-03-29T09:39:16.342Z</time></trkpt><trkpt lat="37.6749083" lon="14.8389633"><ele>629.3333333333334</ele><time>2026-03-29T09:39:17.341Z</time></trkpt><trkpt lat="37.67498" lon="14.8387233"><ele>628.0</ele><time>2026-03-29T09:39:18.341Z</time></trkpt><trkpt lat="37.6750483" lon="14.838505"><ele>628.0</ele><time>2026-03-29T09:39:19.341Z</time></trkpt><trkpt lat="37.675115" lon="14.8383083"><ele>628.0</ele><time>2026-03-29T09:39:20.342Z</time></trkpt><trkpt lat="37.6751733" lon="14.8381433"><ele>628.0</ele><time>2026-03-29T09:39:21.341Z</time></trkpt><trkpt lat="37.6752333" lon="14.83801"><ele>628.0</ele><time>2026-03-29T09:39:22.342Z</time></trkpt><trkpt lat="37.675295" lon="14.8379067"><ele>629.0</ele><time>2026-03-29T09:39:23.342Z</time></trkpt><trkpt lat="37.675375" lon="14.8378467"><ele>630.0</ele><time>2026-03-29T09:39:24.341Z</time></trkpt><trkpt lat="37.6754633" lon="14.837815"><ele>631.0</ele><time>2026-03-29T09:39:25.342Z</time></trkpt><trkpt lat="37.67555" lon="14.8378083"><ele>632.0</ele><time>2026-03-29T09:39:26.342Z</time></trkpt><trkpt lat="37.675635" lon="14.837805"><ele>633.0</ele><time>2026-03-29T09:39:27.342Z</time></trkpt><trkpt lat="37.6757083" lon="14.8377767"><ele>634.0</ele><time>2026-03-29T09:39:28.341Z</time></trkpt><trkpt lat="37.6757633" lon="14.837715"><ele>633.8</ele><time>2026-03-29T09:39:29.342Z</time></trkpt><trkpt lat="37.6758067" lon="14.8376183"><ele>633.5999999999999</ele><time>2026-03-29T09:39:30.342Z</time></trkpt><trkpt lat="37.6758467" lon="14.8375167"><ele>633.4</ele><time>2026-03-29T09:39:31.342Z</time></trkpt><trkpt lat="37.6758917" lon="14.83742"><ele>633.1999999999999</ele><time>2026-03-29T09:39:32.342Z</time></trkpt><trkpt lat="37.6759517" lon="14.8373233"><ele>633.0</ele><time>2026-03-29T09:39:33.342Z</time></trkpt><trkpt lat="37.676025" lon="14.8372417"><ele>633.25</ele><time>2026-03-29T09:39:34.341Z</time></trkpt><trkpt lat="37.676115" lon="14.8371633"><ele>633.5</ele><time>2026-03-29T09:39:35.342Z</time></trkpt><trkpt lat="37.6762267" lon="14.8370867"><ele>633.75</ele><time>2026-03-29T09:39:36.342Z</time></trkpt><trkpt lat="37.676345" lon="14.8370167"><ele>634.0</ele><time>2026-03-29T09:39:37.342Z</time></trkpt><trkpt lat="37.6764767" lon="14.8369533"><ele>634.0</ele><time>2026-03-29T09:39:38.342Z</time></trkpt><trkpt lat="37.6766167" lon="14.8369117"><ele>634.0</ele><time>2026-03-29T09:39:39.342Z</time></trkpt><trkpt lat="37.6767567" lon="14.8368867"><ele>634.0</ele><time>2026-03-29T09:39:40.342Z</time></trkpt><trkpt lat="37.676905" lon="14.8368817"><ele>634.0</ele><time>2026-03-29T09:39:41.342Z</time></trkpt><trkpt lat="37.6770633" lon="14.836895"><ele>633.3333333333334</ele><time>2026-03-29T09:39:42.342Z</time></trkpt><trkpt lat="37.6772217" lon="14.83691"><ele>632.6666666666666</ele><time>2026-03-29T09:39:43.341Z</time></trkpt><trkpt lat="37.6773767" lon="14.836925"><ele>632.0</ele><time>2026-03-29T09:39:44.342Z</time></trkpt><trkpt lat="37.67753" lon="14.836945"><ele>632.0</ele><time>2026-03-29T09:39:45.341Z</time></trkpt><trkpt lat="37.6776733" lon="14.8369667"><ele>632.0</ele><time>2026-03-29T09:39:46.341Z</time></trkpt><trkpt lat="37.6778083" lon="14.83698"><ele>632.0</ele><time>2026-03-29T09:39:47.341Z</time></trkpt><trkpt lat="37.6779383" lon="14.8369933"><ele>632.0</ele><time>2026-03-29T09:39:48.341Z</time></trkpt><trkpt lat="37.6780633" lon="14.8370067"><ele>630.75</ele><time>2026-03-29T09:39:49.342Z</time></trkpt><trkpt lat="37.6781917" lon="14.8370233"><ele>629.5</ele><time>2026-03-29T09:39:50.341Z</time></trkpt><trkpt lat="37.6783233" lon="14.8370433"><ele>628.25</ele><time>2026-03-29T09:39:51.342Z</time></trkpt><trkpt lat="37.6784533" lon="14.8370617"><ele>627.0</ele><time>2026-03-29T09:39:52.342Z</time></trkpt><trkpt lat="37.6785867" lon="14.837075"><ele>624.75</ele><time>2026-03-29T09:39:53.342Z</time></trkpt><trkpt lat="37.67871" lon="14.8370967"><ele>622.5</ele><time>2026-03-29T09:39:54.342Z</time></trkpt><trkpt lat="37.6788333" lon="14.837105"><ele>620.25</ele><time>2026-03-29T09:39:55.342Z</time></trkpt><trkpt lat="37.6789533" lon="14.8371167"><ele>618.0</ele><time>2026-03-29T09:39:56.341Z</time></trkpt><trkpt lat="37.6790783" lon="14.8371283"><ele>618.0</ele><time>2026-03-29T09:39:57.341Z</time></trkpt><trkpt lat="37.6791933" lon="14.83714"><ele>618.0</ele><time>2026-03-29T09:39:58.341Z</time></trkpt><trkpt lat="37.67932" lon="14.8371533"><ele>618.0</ele><time>2026-03-29T09:39:59.341Z</time></trkpt><trkpt lat="37.679435" lon="14.8371683"><ele>618.0</ele><time>2026-03-29T09:40:00.342Z</time></trkpt><trkpt lat="37.6795583" lon="14.83717"><ele>618.1999999999999</ele><time>2026-03-29T09:40:01.342Z</time></trkpt><trkpt lat="37.6796717" lon="14.837195"><ele>618.4</ele><time>2026-03-29T09:40:02.341Z</time></trkpt><trkpt lat="37.679775" lon="14.83723"><ele>618.5999999999999</ele><time>2026-03-29T09:40:03.342Z</time></trkpt><trkpt lat="37.6798683" lon="14.837265"><ele>618.8</ele><time>2026-03-29T09:40:04.342Z</time></trkpt><trkpt lat="37.6799617" lon="14.83731"><ele>619.0</ele><time>2026-03-29T09:40:05.342Z</time></trkpt><trkpt lat="37.680045" lon="14.8373717"><ele>619.0</ele><time>2026-03-29T09:40:06.341Z</time></trkpt><trkpt lat="37.6801133" lon="14.8374467"><ele>619.0</ele><time>2026-03-29T09:40:07.342Z</time></trkpt><trkpt lat="37.6801817" lon="14.8375283"><ele>619.0</ele><time>2026-03-29T09:40:08.341Z</time></trkpt><trkpt lat="37.6802567" lon="14.8376083"><ele>619.0</ele><time>2026-03-29T09:40:09.341Z</time></trkpt><trkpt lat="37.68034" lon="14.8376617"><ele>619.0</ele><time>2026-03-29T09:40:10.341Z</time></trkpt><trkpt lat="37.6804333" lon="14.8376867"><ele>619.4</ele><time>2026-03-29T09:40:11.341Z</time></trkpt><trkpt lat="37.6805217" lon="14.8377"><ele>619.8</ele><time>2026-03-29T09:40:12.342Z</time></trkpt><trkpt lat="37.6806117" lon="14.8377233"><ele>620.2</ele><time>2026-03-29T09:40:13.341Z</time></trkpt><trkpt lat="37.6807033" lon="14.8377467"><ele>620.6</ele><time>2026-03-29T09:40:14.341Z</time></trkpt><trkpt lat="37.6807917" lon="14.837775"><ele>621.0</ele><time>2026-03-29T09:40:15.342Z</time></trkpt><trkpt lat="37.680885" lon="14.8377967"><ele>621.0</ele><time>2026-03-29T09:40:16.342Z</time></trkpt><trkpt lat="37.6809783" lon="14.8378183"><ele>621.0</ele><time>2026-03-29T09:40:17.341Z</time></trkpt><trkpt lat="37.6810733" lon="14.8378267"><ele>621.0</ele><time>2026-03-29T09:40:18.342Z</time></trkpt><trkpt lat="37.6811767" lon="14.837825"><ele>621.0</ele><time>2026-03-29T09:40:19.342Z</time></trkpt><trkpt lat="37.6812883" lon="14.8378283"><ele>621.0</ele><time>2026-03-29T09:40:20.342Z</time></trkpt><trkpt lat="37.6814083" lon="14.83783"><ele>622.25</ele><time>2026-03-29T09:40:21.342Z</time></trkpt><trkpt lat="37.6815317" lon="14.8378283"><ele>623.5</ele><time>2026-03-29T09:40:22.342Z</time></trkpt><trkpt lat="37.6816583" lon="14.8378317"><ele>624.75</ele><time>2026-03-29T09:40:23.342Z</time></trkpt><trkpt lat="37.6817817" lon="14.837835"><ele>626.0</ele><time>2026-03-29T09:40:24.342Z</time></trkpt><trkpt lat="37.6819017" lon="14.8378483"><ele>626.0</ele><time>2026-03-29T09:40:25.341Z</time></trkpt><trkpt lat="37.6820233" lon="14.837875"><ele>626.0</ele><time>2026-03-29T09:40:26.341Z</time></trkpt><trkpt lat="37.6821333" lon="14.8379283"><ele>626.0</ele><time>2026-03-29T09:40:27.342Z</time></trkpt><trkpt lat="37.682235" lon="14.8380133"><ele>626.0</ele><time>2026-03-29T09:40:28.342Z</time></trkpt><trkpt lat="37.68232" lon="14.8381067"><ele>626.0</ele><time>2026-03-29T09:40:29.342Z</time></trkpt><trkpt lat="37.682415" lon="14.8382167"><ele>626.0</ele><time>2026-03-29T09:40:30.341Z</time></trkpt><trkpt lat="37.6825033" lon="14.838325"><ele>626.0</ele><time>2026-03-29T09:40:31.342Z</time></trkpt><trkpt lat="37.68259" lon="14.8384367"><ele>626.0</ele><time>2026-03-29T09:40:32.341Z</time></trkpt><trkpt lat="37.6826767" lon="14.8385383"><ele>626.5</ele><time>2026-03-29T09:40:33.342Z</time></trkpt><trkpt lat="37.6827717" lon="14.8386433"><ele>627.0</ele><time>2026-03-29T09:40:34.341Z</time></trkpt><trkpt lat="37.6828717" lon="14.83875"><ele>627.5</ele><time>2026-03-29T09:40:35.341Z</time></trkpt><trkpt lat="37.682975" lon="14.8388667"><ele>628.0</ele><time>2026-03-29T09:40:36.341Z</time></trkpt><trkpt lat="37.6830817" lon="14.8389817"><ele>628.0</ele><time>2026-03-29T09:40:37.341Z</time></trkpt><trkpt lat="37.683185" lon="14.839095"><ele>628.0</ele><time>2026-03-29T09:40:38.341Z</time></trkpt><trkpt lat="37.6832883" lon="14.8392133"><ele>628.0</ele><time>2026-03-29T09:40:39.342Z</time></trkpt><trkpt lat="37.683395" lon="14.839335"><ele>628.0</ele><time>2026-03-29T09:40:40.342Z</time></trkpt><trkpt lat="37.683505" lon="14.8394633"><ele>629.3333333333334</ele><time>2026-03-29T09:40:41.341Z</time></trkpt><trkpt lat="37.6836183" lon="14.8395967"><ele>630.6666666666666</ele><time>2026-03-29T09:40:42.341Z</time></trkpt><trkpt lat="37.6837383" lon="14.839735"><ele>632.0</ele><time>2026-03-29T09:40:43.342Z</time></trkpt><trkpt lat="37.68386" lon="14.8398667"><ele>632.0</ele><time>2026-03-29T09:40:44.342Z</time></trkpt><trkpt lat="37.6839767" lon="14.8399983"><ele>632.0</ele><time>2026-03-29T09:40:45.341Z</time></trkpt><trkpt lat="37.6840933" lon="14.8401367"><ele>632.0</ele><time>2026-03-29T09:40:46.342Z</time></trkpt><trkpt lat="37.68421" lon="14.8402667"><ele>632.3333333333333</ele><time>2026-03-29T09:40:47.342Z</time></trkpt><trkpt lat="37.6843367" lon="14.8403783"><ele>632.6666666666666</ele><time>2026-03-29T09:40:48.342Z</time></trkpt><trkpt lat="37.6844767" lon="14.8404683"><ele>633.0</ele><time>2026-03-29T09:40:49.342Z</time></trkpt><trkpt lat="37.68462" lon="14.8405317"><ele>633.0</ele><time>2026-03-29T09:40:50.342Z</time></trkpt><trkpt lat="37.68476" lon="14.8405683"><ele>633.0</ele><time>2026-03-29T09:40:51.342Z</time></trkpt><trkpt lat="37.684905" lon="14.8406033"><ele>633.0</ele><time>2026-03-29T09:40:52.341Z</time></trkpt><trkpt lat="37.685055" lon="14.8406417"><ele>633.0</ele><time>2026-03-29T09:40:53.342Z</time></trkpt><trkpt lat="37.6852117" lon="14.8406933"><ele>633.3333333333334</ele><time>2026-03-29T09:40:54.342Z</time></trkpt><trkpt lat="37.6853583" lon="14.8407417"><ele>633.6666666666667</ele><time>2026-03-29T09:40:55.342Z</time></trkpt><trkpt lat="37.6855083" lon="14.8407983"><ele>634.0</ele><time>2026-03-29T09:40:56.341Z</time></trkpt><trkpt lat="37.68566" lon="14.8408583"><ele>634.0</ele><time>2026-03-29T09:40:57.341Z</time></trkpt><trkpt lat="37.6858133" lon="14.84092"><ele>634.0</ele><time>2026-03-29T09:40:58.342Z</time></trkpt><trkpt lat="37.6859633" lon="14.8409833"><ele>634.0</ele><time>2026-03-29T09:40:59.341Z</time></trkpt><trkpt lat="37.6861117" lon="14.8410433"><ele>637.3333333333334</ele><time>2026-03-29T09:41:00.341Z</time></trkpt><trkpt lat="37.6862633" lon="14.8411017"><ele>640.6666666666666</ele><time>2026-03-29T09:41:01.341Z</time></trkpt><trkpt lat="37.686415" lon="14.8411417"><ele>644.0</ele><time>2026-03-29T09:41:02.341Z</time></trkpt><trkpt lat="37.6865667" lon="14.84117"><ele>644.0</ele><time>2026-03-29T09:41:03.342Z</time></trkpt><trkpt lat="37.68672" lon="14.84118"><ele>644.0</ele><time>2026-03-29T09:41:04.342Z</time></trkpt><trkpt lat="37.6868833" lon="14.8411667"><ele>644.0</ele><time>2026-03-29T09:41:05.342Z</time></trkpt><trkpt lat="37.687045" lon="14.8411467"><ele>643.3333333333333</ele><time>2026-03-29T09:41:06.342Z</time></trkpt><trkpt lat="37.6872067" lon="14.8411217"><ele>642.6666666666666</ele><time>2026-03-29T09:41:07.341Z</time></trkpt><trkpt lat="37.6873583" lon="14.8411083"><ele>642.0</ele><time>2026-03-29T09:41:08.342Z</time></trkpt><trkpt lat="37.6875083" lon="14.8411"><ele>642.0</ele><time>2026-03-29T09:41:09.341Z</time></trkpt><trkpt lat="37.6876467" lon="14.8410883"><ele>642.0</ele><time>2026-03-29T09:41:10.341Z</time></trkpt><trkpt lat="37.6877817" lon="14.8410733"><ele>642.0</ele><time>2026-03-29T09:41:11.342Z</time></trkpt><trkpt lat="37.6879133" lon="14.841065"><ele>642.0</ele><time>2026-03-29T09:41:12.342Z</time></trkpt><trkpt lat="37.6880333" lon="14.8410567"><ele>641.2</ele><time>2026-03-29T09:41:13.342Z</time></trkpt><trkpt lat="37.6881333" lon="14.8410417"><ele>640.4000000000001</ele><time>2026-03-29T09:41:14.342Z</time></trkpt><trkpt lat="37.68822" lon="14.840995"><ele>639.5999999999999</ele><time>2026-03-29T09:41:15.341Z</time></trkpt><trkpt lat="37.6882983" lon="14.8409217"><ele>638.8</ele><time>2026-03-29T09:41:16.341Z</time></trkpt><trkpt lat="37.6883633" lon="14.84084"><ele>638.0</ele><time>2026-03-29T09:41:17.342Z</time></trkpt><trkpt lat="37.6884483" lon="14.8407767"><ele>636.6666666666666</ele><time>2026-03-29T09:41:18.342Z</time></trkpt><trkpt lat="37.6885417" lon="14.840735"><ele>635.3333333333333</ele><time>2026-03-29T09:41:19.342Z</time></trkpt><trkpt lat="37.6886267" lon="14.8407133"><ele>634.0</ele><time>2026-03-29T09:41:20.342Z</time></trkpt><trkpt lat="37.6887083" lon="14.8407233"><ele>632.6666666666666</ele><time>2026-03-29T09:41:21.341Z</time></trkpt><trkpt lat="37.6887917" lon="14.8407683"><ele>631.3333333333334</ele><time>2026-03-29T09:41:22.342Z</time></trkpt><trkpt lat="37.68885" lon="14.84085"><ele>630.0</ele><time>2026-03-29T09:41:23.341Z</time></trkpt><trkpt lat="37.6889133" lon="14.8409433"><ele>631.4</ele><time>2026-03-29T09:41:24.342Z</time></trkpt><trkpt lat="37.688985" lon="14.84103"><ele>632.8</ele><time>2026-03-29T09:41:25.341Z</time></trkpt><trkpt lat="37.689065" lon="14.84108"><ele>634.2</ele><time>2026-03-29T09:41:26.341Z</time></trkpt><trkpt lat="37.6891567" lon="14.8411133"><ele>635.6</ele><time>2026-03-29T09:41:27.342Z</time></trkpt><trkpt lat="37.689255" lon="14.84114"><ele>637.0</ele><time>2026-03-29T09:41:28.341Z</time></trkpt><trkpt lat="37.6893483" lon="14.8411717"><ele>635.8000000000001</ele><time>2026-03-29T09:41:29.342Z</time></trkpt><trkpt lat="37.6894467" lon="14.8412"><ele>634.6</ele><time>2026-03-29T09:41:30.341Z</time></trkpt><trkpt lat="37.6895517" lon="14.841235"><ele>633.4000000000001</ele><time>2026-03-29T09:41:31.342Z</time></trkpt><trkpt lat="37.6896583" lon="14.8412817"><ele>632.2</ele><time>2026-03-29T09:41:32.341Z</time></trkpt><trkpt lat="37.6897633" lon="14.841345"><ele>631.0</ele><time>2026-03-29T09:41:33.342Z</time></trkpt><trkpt lat="37.6898583" lon="14.841425"><ele>631.0</ele><time>2026-03-29T09:41:34.342Z</time></trkpt><trkpt lat="37.689945" lon="14.8415167"><ele>631.0</ele><time>2026-03-29T09:41:35.342Z</time></trkpt><trkpt lat="37.6900133" lon="14.8416233"><ele>631.0</ele><time>2026-03-29T09:41:36.341Z</time></trkpt><trkpt lat="37.690065" lon="14.84174"><ele>631.0</ele><time>2026-03-29T09:41:37.341Z</time></trkpt><trkpt lat="37.6901" lon="14.841865"><ele>631.0</ele><time>2026-03-29T09:41:38.341Z</time></trkpt><trkpt lat="37.6901367" lon="14.8419883"><ele>632.3333333333334</ele><time>2026-03-29T09:41:39.341Z</time></trkpt><trkpt lat="37.69019" lon="14.8420967"><ele>633.6666666666667</ele><time>2026-03-29T09:41:40.341Z</time></trkpt><trkpt lat="37.6902483" lon="14.8421783"><ele>635.0</ele><time>2026-03-29T09:41:41.342Z</time></trkpt><trkpt lat="37.6903233" lon="14.8422383"><ele>636.3333333333334</ele><time>2026-03-29T09:41:42.342Z</time></trkpt><trkpt lat="37.6903967" lon="14.8422633"><ele>637.6666666666666</ele><time>2026-03-29T09:41:43.341Z</time></trkpt><trkpt lat="37.690485" lon="14.8422583"><ele>639.0</ele><time>2026-03-29T09:41:44.341Z</time></trkpt><trkpt lat="37.6905683" lon="14.84223"><ele>639.0</ele><time>2026-03-29T09:41:45.341Z</time></trkpt><trkpt lat="37.69065" lon="14.842185"><ele>639.0</ele><time>2026-03-29T09:41:46.342Z</time></trkpt><trkpt lat="37.69073" lon="14.84213"><ele>639.0</ele><time>2026-03-29T09:41:47.341Z</time></trkpt><trkpt lat="37.6908167" lon="14.84207"><ele>639.0</ele><time>2026-03-29T09:41:48.342Z</time></trkpt><trkpt lat="37.6909033" lon="14.8420217"><ele>639.0</ele><time>2026-03-29T09:41:49.342Z</time></trkpt><trkpt lat="37.6909833" lon="14.84198"><ele>639.0</ele><time>2026-03-29T09:41:50.342Z</time></trkpt><trkpt lat="37.6910617" lon="14.8419533"><ele>639.0</ele><time>2026-03-29T09:41:51.341Z</time></trkpt><trkpt lat="37.6911467" lon="14.841945"><ele>639.0</ele><time>2026-03-29T09:41:52.342Z</time></trkpt><trkpt lat="37.6912333" lon="14.8419583"><ele>639.0</ele><time>2026-03-29T09:41:53.342Z</time></trkpt><trkpt lat="37.6913167" lon="14.8419833"><ele>639.0</ele><time>2026-03-29T09:41:54.341Z</time></trkpt><trkpt lat="37.6913967" lon="14.8420217"><ele>639.0</ele><time>2026-03-29T09:41:55.342Z</time></trkpt><trkpt lat="37.6914783" lon="14.842075"><ele>638.0</ele><time>2026-03-29T09:41:56.341Z</time></trkpt><trkpt lat="37.6915567" lon="14.8421283"><ele>637.0</ele><time>2026-03-29T09:41:57.342Z</time></trkpt><trkpt lat="37.6916433" lon="14.8421833"><ele>636.0</ele><time>2026-03-29T09:41:58.342Z</time></trkpt><trkpt lat="37.6917367" lon="14.8422283"><ele>635.0</ele><time>2026-03-29T09:41:59.341Z</time></trkpt><trkpt lat="37.6918317" lon="14.8422667"><ele>634.0</ele><time>2026-03-29T09:42:00.342Z</time></trkpt><trkpt lat="37.6919233" lon="14.84231"><ele>631.4</ele><time>2026-03-29T09:42:01.342Z</time></trkpt><trkpt lat="37.69202" lon="14.8423517"><ele>628.8</ele><time>2026-03-29T09:42:02.342Z</time></trkpt><trkpt lat="37.69212" lon="14.8423867"><ele>626.2</ele><time>2026-03-29T09:42:03.342Z</time></trkpt><trkpt lat="37.6922167" lon="14.8424167"><ele>623.6</ele><time>2026-03-29T09:42:04.342Z</time></trkpt><trkpt lat="37.6923117" lon="14.8424567"><ele>621.0</ele><time>2026-03-29T09:42:05.342Z</time></trkpt><trkpt lat="37.6924033" lon="14.8425"><ele>621.0</ele><time>2026-03-29T09:42:06.341Z</time></trkpt><trkpt lat="37.6924983" lon="14.842545"><ele>621.0</ele><time>2026-03-29T09:42:07.342Z</time></trkpt><trkpt lat="37.692595" lon="14.8425867"><ele>621.0</ele><time>2026-03-29T09:42:08.342Z</time></trkpt><trkpt lat="37.69269" lon="14.8426267"><ele>621.0</ele><time>2026-03-29T09:42:09.342Z</time></trkpt><trkpt lat="37.6927883" lon="14.8426567"><ele>621.0</ele><time>2026-03-29T09:42:10.342Z</time></trkpt><trkpt lat="37.69289" lon="14.84266"><ele>621.2</ele><time>2026-03-29T09:42:11.342Z</time></trkpt><trkpt lat="37.69299" lon="14.842655"><ele>621.4000000000001</ele><time>2026-03-29T09:42:12.342Z</time></trkpt><trkpt lat="37.6930917" lon="14.8426233"><ele>621.6</ele><time>2026-03-29T09:42:13.342Z</time></trkpt><trkpt lat="37.693195" lon="14.842585"><ele>621.8000000000001</ele><time>2026-03-29T09:42:14.341Z</time></trkpt><trkpt lat="37.6933" lon="14.8425567"><ele>622.0</ele><time>2026-03-29T09:42:15.342Z</time></trkpt><trkpt lat="37.6934" lon="14.8425233"><ele>622.0</ele><time>2026-03-29T09:42:16.342Z</time></trkpt><trkpt lat="37.6934983" lon="14.8424883"><ele>622.0</ele><time>2026-03-29T09:42:17.342Z</time></trkpt><trkpt lat="37.6935983" lon="14.842455"><ele>622.0</ele><time>2026-03-29T09:42:18.342Z</time></trkpt><trkpt lat="37.6936967" lon="14.8424183"><ele>622.0</ele><time>2026-03-29T09:42:19.341Z</time></trkpt><trkpt lat="37.693795" lon="14.8423883"><ele>622.0</ele><time>2026-03-29T09:42:20.341Z</time></trkpt><trkpt lat="37.69389" lon="14.842365"><ele>623.8000000000001</ele><time>2026-03-29T09:42:21.341Z</time></trkpt><trkpt lat="37.6939817" lon="14.8423417"><ele>625.6</ele><time>2026-03-29T09:42:22.342Z</time></trkpt><trkpt lat="37.694075" lon="14.8423283"><ele>627.4000000000001</ele><time>2026-03-29T09:42:23.341Z</time></trkpt><trkpt lat="37.6941683" lon="14.8423167"><ele>629.2</ele><time>2026-03-29T09:42:24.342Z</time></trkpt><trkpt lat="37.6942633" lon="14.8423233"><ele>631.0</ele><time>2026-03-29T09:42:25.341Z</time></trkpt><trkpt lat="37.69437" lon="14.8423333"><ele>630.2</ele><time>2026-03-29T09:42:26.341Z</time></trkpt><trkpt lat="37.69448" lon="14.842345"><ele>629.4000000000001</ele><time>2026-03-29T09:42:27.342Z</time></trkpt><trkpt lat="37.69459" lon="14.8423667"><ele>628.6</ele><time>2026-03-29T09:42:28.341Z</time></trkpt><trkpt lat="37.6947" lon="14.842385"><ele>627.8000000000001</ele><time>2026-03-29T09:42:29.341Z</time></trkpt><trkpt lat="37.6948067" lon="14.84241"><ele>627.0</ele><time>2026-03-29T09:42:30.342Z</time></trkpt><trkpt lat="37.6949083" lon="14.842425"><ele>627.0</ele><time>2026-03-29T09:42:31.342Z</time></trkpt><trkpt lat="37.6950067" lon="14.8424233"><ele>627.0</ele><time>2026-03-29T09:42:32.342Z</time></trkpt><trkpt lat="37.6951067" lon="14.8424133"><ele>627.0</ele><time>2026-03-29T09:42:33.341Z</time></trkpt><trkpt lat="37.695205" lon="14.8423883"><ele>627.0</ele><time>2026-03-29T09:42:34.341Z</time></trkpt><trkpt lat="37.6953" lon="14.84236"><ele>627.0</ele><time>2026-03-29T09:42:35.342Z</time></trkpt><trkpt lat="37.6953783" lon="14.84232"><ele>626.8333333333334</ele><time>2026-03-29T09:42:36.341Z</time></trkpt><trkpt lat="37.6954433" lon="14.8422617"><ele>626.6666666666666</ele><time>2026-03-29T09:42:37.341Z</time></trkpt><trkpt lat="37.6954933" lon="14.84219"><ele>626.5</ele><time>2026-03-29T09:42:38.341Z</time></trkpt><trkpt lat="37.6955233" lon="14.8421183"><ele>626.3333333333333</ele><time>2026-03-29T09:42:39.342Z</time></trkpt><trkpt lat="37.695545" lon="14.84204"><ele>626.1666666666666</ele><time>2026-03-29T09:42:40.341Z</time></trkpt><trkpt lat="37.69557" lon="14.8418583"><ele>626.0</ele><time>2026-03-29T09:42:42.341Z</time></trkpt><trkpt lat="37.6955817" lon="14.84175"><ele>624.6</ele><time>2026-03-29T09:42:43.342Z</time></trkpt><trkpt lat="37.69559" lon="14.84165"><ele>623.2</ele><time>2026-03-29T09:42:44.341Z</time></trkpt><trkpt lat="37.6956" lon="14.841545"><ele>621.8</ele><time>2026-03-29T09:42:45.342Z</time></trkpt><trkpt lat="37.6956117" lon="14.8414217"><ele>620.4</ele><time>2026-03-29T09:42:46.342Z</time></trkpt><trkpt lat="37.6956133" lon="14.8413017"><ele>619.0</ele><time>2026-03-29T09:42:47.341Z</time></trkpt><trkpt lat="37.6956117" lon="14.8411717"><ele>619.0</ele><time>2026-03-29T09:42:48.342Z</time></trkpt><trkpt lat="37.695625" lon="14.841045"><ele>619.0</ele><time>2026-03-29T09:42:49.342Z</time></trkpt><trkpt lat="37.6956667" lon="14.8409483"><ele>619.0</ele><time>2026-03-29T09:42:50.341Z</time></trkpt><trkpt lat="37.695725" lon="14.8408817"><ele>619.0</ele><time>2026-03-29T09:42:51.342Z</time></trkpt><trkpt lat="37.695785" lon="14.8408483"><ele>619.0</ele><time>2026-03-29T09:42:52.342Z</time></trkpt><trkpt lat="37.6958683" lon="14.840835"><ele>619.0</ele><time>2026-03-29T09:42:53.341Z</time></trkpt><trkpt lat="37.6959583" lon="14.8408067"><ele>618.0</ele><time>2026-03-29T09:42:54.342Z</time></trkpt><trkpt lat="37.6960567" lon="14.8407567"><ele>617.0</ele><time>2026-03-29T09:42:55.341Z</time></trkpt><trkpt lat="37.6961617" lon="14.8406767"><ele>616.0</ele><time>2026-03-29T09:42:56.342Z</time></trkpt><trkpt lat="37.6962483" lon="14.8405667"><ele>615.0</ele><time>2026-03-29T09:42:57.342Z</time></trkpt><trkpt lat="37.6963283" lon="14.8404317"><ele>615.0</ele><time>2026-03-29T09:42:58.341Z</time></trkpt><trkpt lat="37.69639" lon="14.8402817"><ele>615.0</ele><time>2026-03-29T09:42:59.342Z</time></trkpt><trkpt lat="37.6964633" lon="14.8401383"><ele>615.0</ele><time>2026-03-29T09:43:00.342Z</time></trkpt><trkpt lat="37.6965383" lon="14.839985"><ele>615.0</ele><time>2026-03-29T09:43:01.342Z</time></trkpt><trkpt lat="37.6966117" lon="14.8398417"><ele>614.0</ele><time>2026-03-29T09:43:02.342Z</time></trkpt><trkpt lat="37.696695" lon="14.8397033"><ele>613.0</ele><time>2026-03-29T09:43:03.341Z</time></trkpt><trkpt lat="37.6967933" lon="14.8395983"><ele>612.0</ele><time>2026-03-29T09:43:04.342Z</time></trkpt><trkpt lat="37.696905" lon="14.8395167"><ele>611.0</ele><time>2026-03-29T09:43:05.342Z</time></trkpt><trkpt lat="37.697015" lon="14.8394533"><ele>611.0</ele><time>2026-03-29T09:43:06.342Z</time></trkpt><trkpt lat="37.6971317" lon="14.83942"><ele>611.0</ele><time>2026-03-29T09:43:07.342Z</time></trkpt><trkpt lat="37.6972583" lon="14.83943"><ele>611.0</ele><time>2026-03-29T09:43:08.342Z</time></trkpt><trkpt lat="37.6973933" lon="14.8394683"><ele>611.0</ele><time>2026-03-29T09:43:09.341Z</time></trkpt><trkpt lat="37.6975367" lon="14.8394983"><ele>611.0</ele><time>2026-03-29T09:43:10.342Z</time></trkpt><trkpt lat="37.6976733" lon="14.83953"><ele>611.0</ele><time>2026-03-29T09:43:11.341Z</time></trkpt><trkpt lat="37.6978017" lon="14.83955"><ele>611.0</ele><time>2026-03-29T09:43:12.341Z</time></trkpt><trkpt lat="37.697935" lon="14.839555"><ele>611.0</ele><time>2026-03-29T09:43:13.341Z</time></trkpt><trkpt lat="37.6980567" lon="14.8395333"><ele>611.25</ele><time>2026-03-29T09:43:14.341Z</time></trkpt><trkpt lat="37.69816" lon="14.8394633"><ele>611.5</ele><time>2026-03-29T09:43:15.342Z</time></trkpt><trkpt lat="37.6982617" lon="14.8393467"><ele>611.75</ele><time>2026-03-29T09:43:16.341Z</time></trkpt><trkpt lat="37.6983467" lon="14.8392133"><ele>612.0</ele><time>2026-03-29T09:43:17.342Z</time></trkpt><trkpt lat="37.69843" lon="14.8390717"><ele>610.0</ele><time>2026-03-29T09:43:18.342Z</time></trkpt><trkpt lat="37.6985133" lon="14.83893"><ele>608.0</ele><time>2026-03-29T09:43:19.341Z</time></trkpt><trkpt lat="37.6985967" lon="14.83878"><ele>606.0</ele><time>2026-03-29T09:43:20.341Z</time></trkpt><trkpt lat="37.6986817" lon="14.83864"><ele>604.0</ele><time>2026-03-29T09:43:21.342Z</time></trkpt><trkpt lat="37.6987833" lon="14.8385033"><ele>602.25</ele><time>2026-03-29T09:43:22.342Z</time></trkpt><trkpt lat="37.6988883" lon="14.83839"><ele>600.5</ele><time>2026-03-29T09:43:23.341Z</time></trkpt><trkpt lat="37.6989983" lon="14.8382833"><ele>598.75</ele><time>2026-03-29T09:43:24.342Z</time></trkpt><trkpt lat="37.6991133" lon="14.8381683"><ele>597.0</ele><time>2026-03-29T09:43:25.341Z</time></trkpt><trkpt lat="37.69923" lon="14.8380667"><ele>597.0</ele><time>2026-03-29T09:43:26.342Z</time></trkpt><trkpt lat="37.69936" lon="14.8379767"><ele>597.0</ele><time>2026-03-29T09:43:27.342Z</time></trkpt><trkpt lat="37.6994917" lon="14.8378983"><ele>597.0</ele><time>2026-03-29T09:43:28.341Z</time></trkpt><trkpt lat="37.6996333" lon="14.8378467"><ele>597.0</ele><time>2026-03-29T09:43:29.341Z</time></trkpt><trkpt lat="37.6997817" lon="14.8377933"><ele>600.0</ele><time>2026-03-29T09:43:30.342Z</time></trkpt><trkpt lat="37.6999217" lon="14.8377667"><ele>600.0</ele><time>2026-03-29T09:43:31.341Z</time></trkpt><trkpt lat="37.700065" lon="14.8377467"><ele>600.0</ele><time>2026-03-29T09:43:32.342Z</time></trkpt><trkpt lat="37.7002183" lon="14.8377433"><ele>600.0</ele><time>2026-03-29T09:43:33.342Z</time></trkpt></trkseg><trkseg><trkpt lat="37.7272138" lon="14.833627"><ele>715.0</ele><time>2026-03-29T09:47:35.889Z</time></trkpt><trkpt lat="37.7274192" lon="14.8335519"><ele>715.0</ele><time>2026-03-29T09:47:37.389Z</time></trkpt><trkpt lat="37.7275908" lon="14.8334468"><ele>715.0</ele><time>2026-03-29T09:47:38.388Z</time></trkpt><trkpt lat="37.7277329" lon="14.833343"><ele>714.3333333333334</ele><time>2026-03-29T09:47:39.388Z</time></trkpt><trkpt lat="37.7278742" lon="14.8332042"><ele>713.6666666666666</ele><time>2026-03-29T09:47:40.388Z</time></trkpt><trkpt lat="37.7280207" lon="14.8330406"><ele>713.0</ele><time>2026-03-29T09:47:41.388Z</time></trkpt><trkpt lat="37.728153" lon="14.8328171"><ele>713.0</ele><time>2026-03-29T09:47:42.389Z</time></trkpt><trkpt lat="37.7282647" lon="14.8326521"><ele>713.0</ele><time>2026-03-29T09:47:43.389Z</time></trkpt><trkpt lat="37.7285013" lon="14.8323481"><ele>711.0</ele><time>2026-03-29T09:47:45.343Z</time></trkpt><trkpt lat="37.7286304" lon="14.8322048"><ele>709.0</ele><time>2026-03-29T09:47:46.344Z</time></trkpt><trkpt lat="37.7287647" lon="14.8320708"><ele>707.0</ele><time>2026-03-29T09:47:47.343Z</time></trkpt><trkpt lat="37.7289086" lon="14.8319568"><ele>707.0</ele><time>2026-03-29T09:47:48.344Z</time></trkpt><trkpt lat="37.7290602" lon="14.8318734"><ele>707.0</ele><time>2026-03-29T09:47:49.343Z</time></trkpt><trkpt lat="37.7292193" lon="14.8317961"><ele>707.0</ele><time>2026-03-29T09:47:50.344Z</time></trkpt><trkpt lat="37.7293908" lon="14.8317183"><ele>704.3333333333333</ele><time>2026-03-29T09:47:51.344Z</time></trkpt><trkpt lat="37.7295661" lon="14.8316406"><ele>701.6666666666666</ele><time>2026-03-29T09:47:52.342Z</time></trkpt><trkpt lat="37.7297423" lon="14.8315559"><ele>699.0</ele><time>2026-03-29T09:47:53.342Z</time></trkpt><trkpt lat="37.7299183" lon="14.8314706"><ele>699.0</ele><time>2026-03-29T09:47:54.343Z</time></trkpt><trkpt lat="37.7300953" lon="14.8313853"><ele>699.0</ele><time>2026-03-29T09:47:55.342Z</time></trkpt><trkpt lat="37.7302739" lon="14.8313014"><ele>699.0</ele><time>2026-03-29T09:47:56.343Z</time></trkpt><trkpt lat="37.7304628" lon="14.8312124"><ele>697.0</ele><time>2026-03-29T09:47:57.343Z</time></trkpt><trkpt lat="37.7306467" lon="14.8311194"><ele>695.0</ele><time>2026-03-29T09:47:58.342Z</time></trkpt><trkpt lat="37.730824" lon="14.831039"><ele>693.0</ele><time>2026-03-29T09:47:59.343Z</time></trkpt><trkpt lat="37.7310002" lon="14.8309526"><ele>695.3333333333334</ele><time>2026-03-29T09:48:00.343Z</time></trkpt><trkpt lat="37.7311857" lon="14.8308649"><ele>697.6666666666667</ele><time>2026-03-29T09:48:01.342Z</time></trkpt><trkpt lat="37.7313616" lon="14.8307831"><ele>700.0</ele><time>2026-03-29T09:48:02.342Z</time></trkpt><trkpt lat="37.7315181" lon="14.8307065"><ele>700.0</ele><time>2026-03-29T09:48:03.343Z</time></trkpt><trkpt lat="37.7316793" lon="14.8306531"><ele>700.0</ele><time>2026-03-29T09:48:04.342Z</time></trkpt><trkpt lat="37.7318389" lon="14.8306287"><ele>700.0</ele><time>2026-03-29T09:48:05.342Z</time></trkpt><trkpt lat="37.7319935" lon="14.83066"><ele>699.0</ele><time>2026-03-29T09:48:06.342Z</time></trkpt><trkpt lat="37.7321477" lon="14.8307238"><ele>698.0</ele><time>2026-03-29T09:48:07.342Z</time></trkpt><trkpt lat="37.7322936" lon="14.830799"><ele>697.0</ele><time>2026-03-29T09:48:08.343Z</time></trkpt><trkpt lat="37.7324327" lon="14.830877"><ele>697.0</ele><time>2026-03-29T09:48:09.343Z</time></trkpt><trkpt lat="37.7325767" lon="14.8309259"><ele>697.0</ele><time>2026-03-29T09:48:10.343Z</time></trkpt><trkpt lat="37.7327228" lon="14.8309311"><ele>697.0</ele><time>2026-03-29T09:48:11.343Z</time></trkpt><trkpt lat="37.7328756" lon="14.8309072"><ele>697.0</ele><time>2026-03-29T09:48:12.343Z</time></trkpt><trkpt lat="37.7330291" lon="14.8308643"><ele>697.6666666666667</ele><time>2026-03-29T09:48:13.343Z</time></trkpt><trkpt lat="37.7331862" lon="14.8308236"><ele>698.3333333333334</ele><time>2026-03-29T09:48:14.343Z</time></trkpt><trkpt lat="37.7333367" lon="14.8307739"><ele>699.0</ele><time>2026-03-29T09:48:15.343Z</time></trkpt><trkpt lat="37.733475" lon="14.8306965"><ele>700.0</ele><time>2026-03-29T09:48:16.343Z</time></trkpt><trkpt lat="37.7336076" lon="14.830602"><ele>701.0</ele><time>2026-03-29T09:48:17.343Z</time></trkpt><trkpt lat="37.7337457" lon="14.8304941"><ele>702.0</ele><time>2026-03-29T09:48:18.342Z</time></trkpt><trkpt lat="37.7338802" lon="14.8303883"><ele>702.0</ele><time>2026-03-29T09:48:19.342Z</time></trkpt><trkpt lat="37.7339977" lon="14.8302875"><ele>702.0</ele><time>2026-03-29T09:48:20.342Z</time></trkpt><trkpt lat="37.7341171" lon="14.8302044"><ele>702.0</ele><time>2026-03-29T09:48:21.342Z</time></trkpt><trkpt lat="37.7342344" lon="14.8301371"><ele>702.0</ele><time>2026-03-29T09:48:22.343Z</time></trkpt><trkpt lat="37.7343607" lon="14.8300917"><ele>700.25</ele><time>2026-03-29T09:48:23.342Z</time></trkpt><trkpt lat="37.734486" lon="14.8300737"><ele>698.5</ele><time>2026-03-29T09:48:24.343Z</time></trkpt><trkpt lat="37.7346229" lon="14.8300786"><ele>696.75</ele><time>2026-03-29T09:48:25.343Z</time></trkpt><trkpt lat="37.7347661" lon="14.8300938"><ele>695.0</ele><time>2026-03-29T09:48:26.343Z</time></trkpt><trkpt lat="37.7349166" lon="14.8301188"><ele>695.0</ele><time>2026-03-29T09:48:27.342Z</time></trkpt><trkpt lat="37.7350837" lon="14.8301306"><ele>695.0</ele><time>2026-03-29T09:48:28.342Z</time></trkpt><trkpt lat="37.7352544" lon="14.830136"><ele>695.0</ele><time>2026-03-29T09:48:29.342Z</time></trkpt><trkpt lat="37.7354356" lon="14.8301268"><ele>696.0</ele><time>2026-03-29T09:48:30.343Z</time></trkpt><trkpt lat="37.7356272" lon="14.8300832"><ele>697.0</ele><time>2026-03-29T09:48:31.342Z</time></trkpt><trkpt lat="37.7358391" lon="14.8299948"><ele>698.0</ele><time>2026-03-29T09:48:32.343Z</time></trkpt><trkpt lat="37.7360759" lon="14.8298855"><ele>700.5</ele><time>2026-03-29T09:48:33.343Z</time></trkpt><trkpt lat="37.7363351" lon="14.8297681"><ele>703.0</ele><time>2026-03-29T09:48:34.342Z</time></trkpt><trkpt lat="37.7366128" lon="14.8296521"><ele>706.5</ele><time>2026-03-29T09:48:35.342Z</time></trkpt><trkpt lat="37.7369031" lon="14.8295647"><ele>710.0</ele><time>2026-03-29T09:48:36.343Z</time></trkpt><trkpt lat="37.7371954" lon="14.8294978"><ele>710.0</ele><time>2026-03-29T09:48:37.342Z</time></trkpt><trkpt lat="37.7374799" lon="14.8294329"><ele>710.0</ele><time>2026-03-29T09:48:38.342Z</time></trkpt><trkpt lat="37.737754" lon="14.8293697"><ele>711.0</ele><time>2026-03-29T09:48:39.343Z</time></trkpt><trkpt lat="37.7380109" lon="14.8293082"><ele>712.0</ele><time>2026-03-29T09:48:40.342Z</time></trkpt><trkpt lat="37.7382615" lon="14.8292514"><ele>712.0</ele><time>2026-03-29T09:48:41.343Z</time></trkpt><trkpt lat="37.7385019" lon="14.8291998"><ele>712.0</ele><time>2026-03-29T09:48:42.343Z</time></trkpt><trkpt lat="37.7387229" lon="14.8291501"><ele>714.3333333333334</ele><time>2026-03-29T09:48:43.343Z</time></trkpt><trkpt lat="37.7389246" lon="14.8290964"><ele>716.6666666666666</ele><time>2026-03-29T09:48:44.343Z</time></trkpt><trkpt lat="37.7391043" lon="14.8290216"><ele>719.0</ele><time>2026-03-29T09:48:45.342Z</time></trkpt><trkpt lat="37.739267" lon="14.8289296"><ele>721.0</ele><time>2026-03-29T09:48:46.342Z</time></trkpt><trkpt lat="37.7394311" lon="14.8288318"><ele>723.0</ele><time>2026-03-29T09:48:47.342Z</time></trkpt><trkpt lat="37.7396058" lon="14.8287392"><ele>725.0</ele><time>2026-03-29T09:48:48.342Z</time></trkpt><trkpt lat="37.7397823" lon="14.8286823"><ele>725.0</ele><time>2026-03-29T09:48:49.342Z</time></trkpt><trkpt lat="37.7399605" lon="14.8286657"><ele>725.0</ele><time>2026-03-29T09:48:50.342Z</time></trkpt><trkpt lat="37.740138" lon="14.8286989"><ele>725.0</ele><time>2026-03-29T09:48:51.343Z</time></trkpt><trkpt lat="37.7403175" lon="14.8287685"><ele>725.3333333333333</ele><time>2026-03-29T09:48:52.342Z</time></trkpt><trkpt lat="37.7404978" lon="14.8288544"><ele>725.6666666666666</ele><time>2026-03-29T09:48:53.343Z</time></trkpt><trkpt lat="37.740678" lon="14.8289401"><ele>726.0</ele><time>2026-03-29T09:48:54.342Z</time></trkpt><trkpt lat="37.7408605" lon="14.8290218"><ele>726.0</ele><time>2026-03-29T09:48:55.343Z</time></trkpt><trkpt lat="37.7410449" lon="14.8291052"><ele>726.0</ele><time>2026-03-29T09:48:56.343Z</time></trkpt><trkpt lat="37.7412345" lon="14.8291868"><ele>726.0</ele><time>2026-03-29T09:48:57.343Z</time></trkpt><trkpt lat="37.7414154" lon="14.8292798"><ele>730.0</ele><time>2026-03-29T09:48:58.343Z</time></trkpt><trkpt lat="37.7415869" lon="14.8294005"><ele>734.0</ele><time>2026-03-29T09:48:59.342Z</time></trkpt><trkpt lat="37.7417402" lon="14.829554"><ele>738.0</ele><time>2026-03-29T09:49:00.342Z</time></trkpt><trkpt lat="37.7418672" lon="14.8297386"><ele>738.3333333333334</ele><time>2026-03-29T09:49:01.343Z</time></trkpt><trkpt lat="37.7419873" lon="14.8299394"><ele>738.6666666666667</ele><time>2026-03-29T09:49:02.343Z</time></trkpt><trkpt lat="37.742108" lon="14.8301368"><ele>739.0</ele><time>2026-03-29T09:49:03.342Z</time></trkpt><trkpt lat="37.7422455" lon="14.8303212"><ele>741.0</ele><time>2026-03-29T09:49:04.342Z</time></trkpt><trkpt lat="37.7423952" lon="14.8304778"><ele>743.0</ele><time>2026-03-29T09:49:05.342Z</time></trkpt><trkpt lat="37.7425652" lon="14.8305913"><ele>745.0</ele><time>2026-03-29T09:49:06.342Z</time></trkpt><trkpt lat="37.7427602" lon="14.8306725"><ele>746.6666666666667</ele><time>2026-03-29T09:49:07.342Z</time></trkpt><trkpt lat="37.7429616" lon="14.8307169"><ele>748.3333333333334</ele><time>2026-03-29T09:49:08.342Z</time></trkpt><trkpt lat="37.7431648" lon="14.8307327"><ele>750.0</ele><time>2026-03-29T09:49:09.343Z</time></trkpt><trkpt lat="37.743381" lon="14.8307098"><ele>750.3333333333334</ele><time>2026-03-29T09:49:10.342Z</time></trkpt><trkpt lat="37.7435962" lon="14.8306612"><ele>750.6666666666667</ele><time>2026-03-29T09:49:11.342Z</time></trkpt><trkpt lat="37.7438083" lon="14.8306043"><ele>751.0</ele><time>2026-03-29T09:49:12.343Z</time></trkpt><trkpt lat="37.7440154" lon="14.8305433"><ele>751.0</ele><time>2026-03-29T09:49:13.342Z</time></trkpt><trkpt lat="37.7442206" lon="14.8304715"><ele>751.0</ele><time>2026-03-29T09:49:14.343Z</time></trkpt><trkpt lat="37.7444146" lon="14.8303789"><ele>751.0</ele><time>2026-03-29T09:49:15.342Z</time></trkpt><trkpt lat="37.7445986" lon="14.8302774"><ele>752.3333333333334</ele><time>2026-03-29T09:49:16.343Z</time></trkpt><trkpt lat="37.7447873" lon="14.8301637"><ele>753.6666666666666</ele><time>2026-03-29T09:49:17.342Z</time></trkpt><trkpt lat="37.7449637" lon="14.8300387"><ele>755.0</ele><time>2026-03-29T09:49:18.343Z</time></trkpt><trkpt lat="37.7451388" lon="14.8298966"><ele>754.3333333333333</ele><time>2026-03-29T09:49:19.342Z</time></trkpt><trkpt lat="37.7453187" lon="14.8297462"><ele>753.6666666666666</ele><time>2026-03-29T09:49:20.343Z</time></trkpt><trkpt lat="37.7454958" lon="14.8295909"><ele>753.0</ele><time>2026-03-29T09:49:21.343Z</time></trkpt><trkpt lat="37.7456675" lon="14.8294412"><ele>752.3333333333334</ele><time>2026-03-29T09:49:22.343Z</time></trkpt><trkpt lat="37.7458389" lon="14.8292984"><ele>751.6666666666667</ele><time>2026-03-29T09:49:23.343Z</time></trkpt><trkpt lat="37.7460102" lon="14.8291506"><ele>751.0</ele><time>2026-03-29T09:49:24.343Z</time></trkpt><trkpt lat="37.7461828" lon="14.8290073"><ele>751.0</ele><time>2026-03-29T09:49:25.343Z</time></trkpt><trkpt lat="37.7463557" lon="14.8288601"><ele>751.0</ele><time>2026-03-29T09:49:26.343Z</time></trkpt><trkpt lat="37.7465225" lon="14.8287129"><ele>751.0</ele><time>2026-03-29T09:49:27.342Z</time></trkpt><trkpt lat="37.7466813" lon="14.8285584"><ele>750.6666666666667</ele><time>2026-03-29T09:49:28.343Z</time></trkpt><trkpt lat="37.7468482" lon="14.8284038"><ele>750.3333333333334</ele><time>2026-03-29T09:49:29.343Z</time></trkpt><trkpt lat="37.7470036" lon="14.8282573"><ele>750.0</ele><time>2026-03-29T09:49:30.343Z</time></trkpt><trkpt lat="37.7471482" lon="14.8281142"><ele>750.0</ele><time>2026-03-29T09:49:31.343Z</time></trkpt><trkpt lat="37.7472867" lon="14.8279696"><ele>750.0</ele><time>2026-03-29T09:49:32.342Z</time></trkpt><trkpt lat="37.7474292" lon="14.8278298"><ele>750.0</ele><time>2026-03-29T09:49:33.342Z</time></trkpt><trkpt lat="37.7475635" lon="14.8276883"><ele>749.0</ele><time>2026-03-29T09:49:34.342Z</time></trkpt><trkpt lat="37.7477068" lon="14.8275458"><ele>748.0</ele><time>2026-03-29T09:49:35.342Z</time></trkpt><trkpt lat="37.7478533" lon="14.82741"><ele>747.0</ele><time>2026-03-29T09:49:36.343Z</time></trkpt><trkpt lat="37.748" lon="14.8272867"><ele>747.0</ele><time>2026-03-29T09:49:37.342Z</time></trkpt><trkpt lat="37.7481433" lon="14.82717"><ele>747.0</ele><time>2026-03-29T09:49:38.342Z</time></trkpt><trkpt lat="37.7482867" lon="14.82705"><ele>747.0</ele><time>2026-03-29T09:49:39.343Z</time></trkpt><trkpt lat="37.7484367" lon="14.8269317"><ele>747.3333333333334</ele><time>2026-03-29T09:49:40.342Z</time></trkpt><trkpt lat="37.74859" lon="14.826815"><ele>747.6666666666667</ele><time>2026-03-29T09:49:41.342Z</time></trkpt><trkpt lat="37.7487467" lon="14.8266967"><ele>748.0</ele><time>2026-03-29T09:49:42.342Z</time></trkpt><trkpt lat="37.7489133" lon="14.8265683"><ele>746.0</ele><time>2026-03-29T09:49:43.343Z</time></trkpt><trkpt lat="37.74908" lon="14.8264333"><ele>744.0</ele><time>2026-03-29T09:49:44.343Z</time></trkpt><trkpt lat="37.7492533" lon="14.8263117"><ele>742.0</ele><time>2026-03-29T09:49:45.343Z</time></trkpt><trkpt lat="37.7494267" lon="14.8261983"><ele>740.3333333333334</ele><time>2026-03-29T09:49:46.342Z</time></trkpt><trkpt lat="37.7495983" lon="14.8260733"><ele>738.6666666666666</ele><time>2026-03-29T09:49:47.343Z</time></trkpt><trkpt lat="37.7497683" lon="14.8259517"><ele>737.0</ele><time>2026-03-29T09:49:48.343Z</time></trkpt><trkpt lat="37.749935" lon="14.8258283"><ele>736.3333333333333</ele><time>2026-03-29T09:49:49.343Z</time></trkpt><trkpt lat="37.7500967" lon="14.8257"><ele>735.6666666666666</ele><time>2026-03-29T09:49:50.342Z</time></trkpt><trkpt lat="37.7502333" lon="14.8255467"><ele>735.0</ele><time>2026-03-29T09:49:51.342Z</time></trkpt><trkpt lat="37.7503583" lon="14.8253883"><ele>734.0</ele><time>2026-03-29T09:49:52.342Z</time></trkpt><trkpt lat="37.7504733" lon="14.825225"><ele>733.0</ele><time>2026-03-29T09:49:53.342Z</time></trkpt><trkpt lat="37.7505917" lon="14.825065"><ele>732.0</ele><time>2026-03-29T09:49:54.343Z</time></trkpt><trkpt lat="37.7507217" lon="14.8249367"><ele>731.0</ele><time>2026-03-29T09:49:55.343Z</time></trkpt><trkpt lat="37.7508733" lon="14.8248283"><ele>730.0</ele><time>2026-03-29T09:49:56.343Z</time></trkpt><trkpt lat="37.7510333" lon="14.8247233"><ele>729.0</ele><time>2026-03-29T09:49:57.343Z</time></trkpt><trkpt lat="37.7511983" lon="14.8246483"><ele>726.0</ele><time>2026-03-29T09:49:58.343Z</time></trkpt><trkpt lat="37.751365" lon="14.824585"><ele>723.0</ele><time>2026-03-29T09:49:59.343Z</time></trkpt><trkpt lat="37.7515283" lon="14.8245617"><ele>720.0</ele><time>2026-03-29T09:50:00.342Z</time></trkpt><trkpt lat="37.7517083" lon="14.824565"><ele>721.0</ele><time>2026-03-29T09:50:01.343Z</time></trkpt><trkpt lat="37.7518817" lon="14.8245783"><ele>722.0</ele><time>2026-03-29T09:50:02.343Z</time></trkpt><trkpt lat="37.752045" lon="14.8246017"><ele>723.0</ele><time>2026-03-29T09:50:03.342Z</time></trkpt><trkpt lat="37.752215" lon="14.824625"><ele>723.0</ele><time>2026-03-29T09:50:04.342Z</time></trkpt><trkpt lat="37.75239" lon="14.8246417"><ele>723.0</ele><time>2026-03-29T09:50:05.342Z</time></trkpt><trkpt lat="37.7525633" lon="14.8246567"><ele>723.0</ele><time>2026-03-29T09:50:06.343Z</time></trkpt><trkpt lat="37.752745" lon="14.8246733"><ele>724.6666666666666</ele><time>2026-03-29T09:50:07.342Z</time></trkpt><trkpt lat="37.7529267" lon="14.8246933"><ele>726.3333333333333</ele><time>2026-03-29T09:50:08.343Z</time></trkpt><trkpt lat="37.7530983" lon="14.8247167"><ele>728.0</ele><time>2026-03-29T09:50:09.343Z</time></trkpt><trkpt lat="37.7532683" lon="14.8247383"><ele>728.0</ele><time>2026-03-29T09:50:10.343Z</time></trkpt><trkpt lat="37.75345" lon="14.8247617"><ele>728.0</ele><time>2026-03-29T09:50:11.342Z</time></trkpt><trkpt lat="37.7536333" lon="14.824785"><ele>728.0</ele><time>2026-03-29T09:50:12.342Z</time></trkpt><trkpt lat="37.7538133" lon="14.824835"><ele>729.0</ele><time>2026-03-29T09:50:13.343Z</time></trkpt><trkpt lat="37.7539917" lon="14.824905"><ele>730.0</ele><time>2026-03-29T09:50:14.342Z</time></trkpt><trkpt lat="37.754165" lon="14.82499"><ele>731.0</ele><time>2026-03-29T09:50:15.343Z</time></trkpt><trkpt lat="37.75433" lon="14.8250883"><ele>734.6666666666666</ele><time>2026-03-29T09:50:16.342Z</time></trkpt><trkpt lat="37.7544967" lon="14.8252033"><ele>738.3333333333334</ele><time>2026-03-29T09:50:17.342Z</time></trkpt><trkpt lat="37.7546517" lon="14.8253317"><ele>742.0</ele><time>2026-03-29T09:50:18.342Z</time></trkpt><trkpt lat="37.7548067" lon="14.8254517"><ele>742.0</ele><time>2026-03-29T09:50:19.342Z</time></trkpt><trkpt lat="37.7549583" lon="14.8255767"><ele>742.0</ele><time>2026-03-29T09:50:20.343Z</time></trkpt><trkpt lat="37.7551133" lon="14.8257"><ele>742.0</ele><time>2026-03-29T09:50:21.342Z</time></trkpt><trkpt lat="37.755265" lon="14.8258267"><ele>741.0</ele><time>2026-03-29T09:50:22.343Z</time></trkpt><trkpt lat="37.7554183" lon="14.8259533"><ele>740.0</ele><time>2026-03-29T09:50:23.343Z</time></trkpt><trkpt lat="37.75558" lon="14.8260617"><ele>739.0</ele><time>2026-03-29T09:50:24.342Z</time></trkpt><trkpt lat="37.7557383" lon="14.8261767"><ele>741.3333333333334</ele><time>2026-03-29T09:50:25.342Z</time></trkpt><trkpt lat="37.7559083" lon="14.8262717"><ele>743.6666666666666</ele><time>2026-03-29T09:50:26.343Z</time></trkpt><trkpt lat="37.7560833" lon="14.8263533"><ele>746.0</ele><time>2026-03-29T09:50:27.343Z</time></trkpt><trkpt lat="37.756265" lon="14.8264267"><ele>746.6666666666666</ele><time>2026-03-29T09:50:28.343Z</time></trkpt><trkpt lat="37.75645" lon="14.8264933"><ele>747.3333333333334</ele><time>2026-03-29T09:50:29.342Z</time></trkpt><trkpt lat="37.756635" lon="14.82654"><ele>748.0</ele><time>2026-03-29T09:50:30.342Z</time></trkpt><trkpt lat="37.7568267" lon="14.8265717"><ele>748.0</ele><time>2026-03-29T09:50:31.342Z</time></trkpt><trkpt lat="37.7570217" lon="14.826585"><ele>748.0</ele><time>2026-03-29T09:50:32.342Z</time></trkpt><trkpt lat="37.7572133" lon="14.8265917"><ele>748.0</ele><time>2026-03-29T09:50:33.343Z</time></trkpt><trkpt lat="37.7574183" lon="14.8265633"><ele>748.0</ele><time>2026-03-29T09:50:34.343Z</time></trkpt><trkpt lat="37.757625" lon="14.8265333"><ele>748.0</ele><time>2026-03-29T09:50:35.343Z</time></trkpt><trkpt lat="37.7578233" lon="14.82648"><ele>748.0</ele><time>2026-03-29T09:50:36.343Z</time></trkpt><trkpt lat="37.7580233" lon="14.8264117"><ele>749.3333333333334</ele><time>2026-03-29T09:50:37.343Z</time></trkpt><trkpt lat="37.7582217" lon="14.826325"><ele>750.6666666666666</ele><time>2026-03-29T09:50:38.342Z</time></trkpt><trkpt lat="37.7584217" lon="14.82623"><ele>752.0</ele><time>2026-03-29T09:50:39.342Z</time></trkpt><trkpt lat="37.758625" lon="14.82613"><ele>753.6666666666666</ele><time>2026-03-29T09:50:40.343Z</time></trkpt><trkpt lat="37.758815" lon="14.826025"><ele>755.3333333333334</ele><time>2026-03-29T09:50:41.343Z</time></trkpt><trkpt lat="37.7590133" lon="14.82592"><ele>757.0</ele><time>2026-03-29T09:50:42.342Z</time></trkpt><trkpt lat="37.759215" lon="14.8258233"><ele>755.6666666666667</ele><time>2026-03-29T09:50:43.342Z</time></trkpt><trkpt lat="37.7594117" lon="14.8257217"><ele>754.3333333333334</ele><time>2026-03-29T09:50:44.342Z</time></trkpt><trkpt lat="37.7596033" lon="14.825635"><ele>753.0</ele><time>2026-03-29T09:50:45.342Z</time></trkpt><trkpt lat="37.759795" lon="14.8255567"><ele>753.0</ele><time>2026-03-29T09:50:46.342Z</time></trkpt><trkpt lat="37.7599733" lon="14.8254883"><ele>753.0</ele><time>2026-03-29T09:50:47.343Z</time></trkpt><trkpt lat="37.7601533" lon="14.8254283"><ele>753.0</ele><time>2026-03-29T09:50:48.343Z</time></trkpt><trkpt lat="37.7603383" lon="14.825375"><ele>752.0</ele><time>2026-03-29T09:50:49.342Z</time></trkpt><trkpt lat="37.760525" lon="14.8253267"><ele>751.0</ele><time>2026-03-29T09:50:50.342Z</time></trkpt><trkpt lat="37.760705" lon="14.8252667"><ele>750.0</ele><time>2026-03-29T09:50:51.343Z</time></trkpt><trkpt lat="37.7608867" lon="14.8252217"><ele>750.6666666666666</ele><time>2026-03-29T09:50:52.343Z</time></trkpt><trkpt lat="37.7610667" lon="14.8251817"><ele>751.3333333333333</ele><time>2026-03-29T09:50:53.342Z</time></trkpt><trkpt lat="37.7612517" lon="14.825135"><ele>752.0</ele><time>2026-03-29T09:50:54.342Z</time></trkpt><trkpt lat="37.7614383" lon="14.8250817"><ele>748.6666666666666</ele><time>2026-03-29T09:50:55.343Z</time></trkpt><trkpt lat="37.76163" lon="14.825025"><ele>745.3333333333334</ele><time>2026-03-29T09:50:56.342Z</time></trkpt><trkpt lat="37.7618317" lon="14.8249617"><ele>742.0</ele><time>2026-03-29T09:50:57.342Z</time></trkpt><trkpt lat="37.7620283" lon="14.8248833"><ele>742.0</ele><time>2026-03-29T09:50:58.342Z</time></trkpt><trkpt lat="37.7622133" lon="14.82479"><ele>742.0</ele><time>2026-03-29T09:50:59.342Z</time></trkpt><trkpt lat="37.76241" lon="14.82469"><ele>742.0</ele><time>2026-03-29T09:51:00.343Z</time></trkpt><trkpt lat="37.7625917" lon="14.82458"><ele>742.6666666666667</ele><time>2026-03-29T09:51:01.343Z</time></trkpt><trkpt lat="37.762775" lon="14.8244583"><ele>743.3333333333334</ele><time>2026-03-29T09:51:02.343Z</time></trkpt><trkpt lat="37.76296" lon="14.8243417"><ele>744.0</ele><time>2026-03-29T09:51:03.343Z</time></trkpt><trkpt lat="37.76315" lon="14.8242333"><ele>744.0</ele><time>2026-03-29T09:51:04.342Z</time></trkpt><trkpt lat="37.7633417" lon="14.8241217"><ele>744.0</ele><time>2026-03-29T09:51:05.343Z</time></trkpt><trkpt lat="37.76354" lon="14.8240233"><ele>744.0</ele><time>2026-03-29T09:51:06.343Z</time></trkpt><trkpt lat="37.7637417" lon="14.823955"><ele>741.0</ele><time>2026-03-29T09:51:07.342Z</time></trkpt><trkpt lat="37.76393" lon="14.82388"><ele>738.0</ele><time>2026-03-29T09:51:08.343Z</time></trkpt><trkpt lat="37.7641" lon="14.8237667"><ele>735.0</ele><time>2026-03-29T09:51:09.342Z</time></trkpt><trkpt lat="37.7642683" lon="14.8236517"><ele>732.6666666666666</ele><time>2026-03-29T09:51:10.343Z</time></trkpt><trkpt lat="37.7644483" lon="14.8235533"><ele>730.3333333333333</ele><time>2026-03-29T09:51:11.343Z</time></trkpt><trkpt lat="37.7646333" lon="14.8234617"><ele>728.0</ele><time>2026-03-29T09:51:12.343Z</time></trkpt><trkpt lat="37.7648217" lon="14.8233767"><ele>719.0</ele><time>2026-03-29T09:51:13.342Z</time></trkpt><trkpt lat="37.7660883" lon="14.822985"><ele>719.0</ele><time>2026-03-29T09:51:20.291Z</time></trkpt><trkpt lat="37.7663433" lon="14.8229233"><ele>719.0</ele><time>2026-03-29T09:51:21.341Z</time></trkpt><trkpt lat="37.7665867" lon="14.8228617"><ele>717.0</ele><time>2026-03-29T09:51:22.342Z</time></trkpt><trkpt lat="37.7669783" lon="14.822745"><ele>715.0</ele><time>2026-03-29T09:51:24.342Z</time></trkpt><trkpt lat="37.7671717" lon="14.8227117"><ele>715.0</ele><time>2026-03-29T09:51:25.341Z</time></trkpt><trkpt lat="37.7673583" lon="14.8227"><ele>715.0</ele><time>2026-03-29T09:51:26.341Z</time></trkpt><trkpt lat="37.7675533" lon="14.822715"><ele>715.0</ele><time>2026-03-29T09:51:27.342Z</time></trkpt><trkpt lat="37.7677433" lon="14.82274"><ele>713.6666666666667</ele><time>2026-03-29T09:51:28.342Z</time></trkpt><trkpt lat="37.7679383" lon="14.822785"><ele>712.3333333333334</ele><time>2026-03-29T09:51:29.342Z</time></trkpt><trkpt lat="37.7681183" lon="14.8228333"><ele>711.0</ele><time>2026-03-29T09:51:30.342Z</time></trkpt><trkpt lat="37.7682783" lon="14.8228883"><ele>711.0</ele><time>2026-03-29T09:51:31.341Z</time></trkpt><trkpt lat="37.76845" lon="14.8229367"><ele>711.0</ele><time>2026-03-29T09:51:32.342Z</time></trkpt><trkpt lat="37.7686083" lon="14.822985"><ele>711.0</ele><time>2026-03-29T09:51:33.341Z</time></trkpt><trkpt lat="37.76875" lon="14.8230167"><ele>711.75</ele><time>2026-03-29T09:51:34.341Z</time></trkpt><trkpt lat="37.7688883" lon="14.8230533"><ele>712.5</ele><time>2026-03-29T09:51:35.342Z</time></trkpt><trkpt lat="37.7690167" lon="14.8231017"><ele>713.25</ele><time>2026-03-29T09:51:36.342Z</time></trkpt><trkpt lat="37.7691483" lon="14.8231417"><ele>714.0</ele><time>2026-03-29T09:51:37.341Z</time></trkpt><trkpt lat="37.76928" lon="14.8231833"><ele>713.5</ele><time>2026-03-29T09:51:38.342Z</time></trkpt><trkpt lat="37.769405" lon="14.8232333"><ele>713.0</ele><time>2026-03-29T09:51:39.342Z</time></trkpt><trkpt lat="37.7695367" lon="14.8233017"><ele>712.5</ele><time>2026-03-29T09:51:40.341Z</time></trkpt><trkpt lat="37.7696633" lon="14.823385"><ele>712.0</ele><time>2026-03-29T09:51:41.342Z</time></trkpt><trkpt lat="37.7697917" lon="14.8234817"><ele>712.3333333333334</ele><time>2026-03-29T09:51:42.341Z</time></trkpt><trkpt lat="37.7699233" lon="14.82359"><ele>712.6666666666666</ele><time>2026-03-29T09:51:43.341Z</time></trkpt><trkpt lat="37.7700617" lon="14.82372"><ele>713.0</ele><time>2026-03-29T09:51:44.341Z</time></trkpt><trkpt lat="37.7702133" lon="14.8238767"><ele>713.0</ele><time>2026-03-29T09:51:45.342Z</time></trkpt><trkpt lat="37.7703617" lon="14.82406"><ele>713.0</ele><time>2026-03-29T09:51:46.342Z</time></trkpt><trkpt lat="37.7705083" lon="14.8242633"><ele>713.0</ele><time>2026-03-29T09:51:47.342Z</time></trkpt><trkpt lat="37.770655" lon="14.824465"><ele>714.0</ele><time>2026-03-29T09:51:48.342Z</time></trkpt><trkpt lat="37.770795" lon="14.824645"><ele>715.0</ele><time>2026-03-29T09:51:49.342Z</time></trkpt><trkpt lat="37.7709417" lon="14.8248017"><ele>716.0</ele><time>2026-03-29T09:51:50.341Z</time></trkpt><trkpt lat="37.7711017" lon="14.8249333"><ele>716.0</ele><time>2026-03-29T09:51:51.341Z</time></trkpt><trkpt lat="37.77127" lon="14.8250433"><ele>716.0</ele><time>2026-03-29T09:51:52.341Z</time></trkpt><trkpt lat="37.7714533" lon="14.8251367"><ele>716.0</ele><time>2026-03-29T09:51:53.341Z</time></trkpt><trkpt lat="37.77165" lon="14.825225"><ele>719.3333333333333</ele><time>2026-03-29T09:51:54.342Z</time></trkpt><trkpt lat="37.7718583" lon="14.8253167"><ele>722.6666666666666</ele><time>2026-03-29T09:51:55.342Z</time></trkpt><trkpt lat="37.7720767" lon="14.8253767"><ele>726.0</ele><time>2026-03-29T09:51:56.341Z</time></trkpt><trkpt lat="37.772295" lon="14.8254367"><ele>726.0</ele><time>2026-03-29T09:51:57.341Z</time></trkpt><trkpt lat="37.7725267" lon="14.8255017"><ele>726.0</ele><time>2026-03-29T09:51:58.341Z</time></trkpt><trkpt lat="37.7727467" lon="14.825555"><ele>724.5</ele><time>2026-03-29T09:51:59.341Z</time></trkpt><trkpt lat="37.7729667" lon="14.8256067"><ele>723.0</ele><time>2026-03-29T09:52:00.341Z</time></trkpt><trkpt lat="37.77319" lon="14.8256583"><ele>723.0</ele><time>2026-03-29T09:52:01.342Z</time></trkpt><trkpt lat="37.7734133" lon="14.82572"><ele>723.0</ele><time>2026-03-29T09:52:02.341Z</time></trkpt><trkpt lat="37.773625" lon="14.8257683"><ele>723.0</ele><time>2026-03-29T09:52:03.342Z</time></trkpt><trkpt lat="37.7738417" lon="14.825825"><ele>724.0</ele><time>2026-03-29T09:52:04.342Z</time></trkpt><trkpt lat="37.7740533" lon="14.82588"><ele>725.0</ele><time>2026-03-29T09:52:05.342Z</time></trkpt><trkpt lat="37.7742667" lon="14.825935"><ele>726.0</ele><time>2026-03-29T09:52:06.341Z</time></trkpt><trkpt lat="37.77448" lon="14.8259883"><ele>729.6666666666666</ele><time>2026-03-29T09:52:07.341Z</time></trkpt><trkpt lat="37.774685" lon="14.82604"><ele>733.3333333333333</ele><time>2026-03-29T09:52:08.341Z</time></trkpt><trkpt lat="37.7748967" lon="14.8260917"><ele>737.0</ele><time>2026-03-29T09:52:09.341Z</time></trkpt><trkpt lat="37.7751083" lon="14.8261417"><ele>736.0</ele><time>2026-03-29T09:52:10.341Z</time></trkpt><trkpt lat="37.7753133" lon="14.826185"><ele>735.0</ele><time>2026-03-29T09:52:11.342Z</time></trkpt><trkpt lat="37.775525" lon="14.826225"><ele>734.0</ele><time>2026-03-29T09:52:12.341Z</time></trkpt><trkpt lat="37.7757333" lon="14.8262483"><ele>734.0</ele><time>2026-03-29T09:52:13.342Z</time></trkpt><trkpt lat="37.77594" lon="14.8262517"><ele>734.0</ele><time>2026-03-29T09:52:14.342Z</time></trkpt><trkpt lat="37.776145" lon="14.82622"><ele>734.0</ele><time>2026-03-29T09:52:15.341Z</time></trkpt><trkpt lat="37.7763467" lon="14.8261767"><ele>737.3333333333333</ele><time>2026-03-29T09:52:16.342Z</time></trkpt><trkpt lat="37.776545" lon="14.8261083"><ele>740.6666666666666</ele><time>2026-03-29T09:52:17.342Z</time></trkpt><trkpt lat="37.7767383" lon="14.8260167"><ele>744.0</ele><time>2026-03-29T09:52:18.342Z</time></trkpt><trkpt lat="37.7769233" lon="14.8259067"><ele>749.6666666666666</ele><time>2026-03-29T09:52:19.341Z</time></trkpt><trkpt lat="37.7771067" lon="14.82578"><ele>755.3333333333333</ele><time>2026-03-29T09:52:20.342Z</time></trkpt><trkpt lat="37.7773" lon="14.82564"><ele>761.0</ele><time>2026-03-29T09:52:21.341Z</time></trkpt><trkpt lat="37.777495" lon="14.8254867"><ele>761.0</ele><time>2026-03-29T09:52:22.342Z</time></trkpt><trkpt lat="37.7776833" lon="14.82537"><ele>761.0</ele><time>2026-03-29T09:52:23.342Z</time></trkpt><trkpt lat="37.777865" lon="14.8252233"><ele>761.0</ele><time>2026-03-29T09:52:24.341Z</time></trkpt><trkpt lat="37.77804" lon="14.8250867"><ele>759.6666666666666</ele><time>2026-03-29T09:52:25.342Z</time></trkpt><trkpt lat="37.778225" lon="14.8249733"><ele>758.3333333333334</ele><time>2026-03-29T09:52:26.342Z</time></trkpt><trkpt lat="37.7784233" lon="14.82489"><ele>757.0</ele><time>2026-03-29T09:52:27.341Z</time></trkpt><trkpt lat="37.77863" lon="14.8248267"><ele>757.0</ele><time>2026-03-29T09:52:28.342Z</time></trkpt><trkpt lat="37.7788283" lon="14.8247617"><ele>757.0</ele><time>2026-03-29T09:52:29.342Z</time></trkpt><trkpt lat="37.7790317" lon="14.8247067"><ele>757.0</ele><time>2026-03-29T09:52:30.342Z</time></trkpt><trkpt lat="37.7792383" lon="14.8246583"><ele>760.3333333333334</ele><time>2026-03-29T09:52:31.341Z</time></trkpt><trkpt lat="37.7794333" lon="14.824615"><ele>763.6666666666666</ele><time>2026-03-29T09:52:32.342Z</time></trkpt><trkpt lat="37.7796333" lon="14.82459"><ele>767.0</ele><time>2026-03-29T09:52:33.341Z</time></trkpt><trkpt lat="37.779835" lon="14.8245967"><ele>767.0</ele><time>2026-03-29T09:52:34.341Z</time></trkpt><trkpt lat="37.7800433" lon="14.8246283"><ele>767.0</ele><time>2026-03-29T09:52:35.341Z</time></trkpt><trkpt lat="37.7802567" lon="14.82465"><ele>767.0</ele><time>2026-03-29T09:52:36.342Z</time></trkpt><trkpt lat="37.780475" lon="14.824675"><ele>765.5</ele><time>2026-03-29T09:52:37.341Z</time></trkpt><trkpt lat="37.780695" lon="14.8246983"><ele>764.0</ele><time>2026-03-29T09:52:38.341Z</time></trkpt><trkpt lat="37.7809283" lon="14.8247317"><ele>758.5</ele><time>2026-03-29T09:52:39.342Z</time></trkpt><trkpt lat="37.7811983" lon="14.82479"><ele>753.0</ele><time>2026-03-29T09:52:40.341Z</time></trkpt><trkpt lat="37.78137" lon="14.8249767"><ele>759.3333333333333</ele><time>2026-03-29T09:52:41.342Z</time></trkpt><trkpt lat="37.7814733" lon="14.82517"><ele>765.6666666666666</ele><time>2026-03-29T09:52:42.341Z</time></trkpt><trkpt lat="37.781565" lon="14.8253833"><ele>772.0</ele><time>2026-03-29T09:52:43.341Z</time></trkpt><trkpt lat="37.7816917" lon="14.8255233"><ele>772.0</ele><time>2026-03-29T09:52:44.342Z</time></trkpt><trkpt lat="37.78183" lon="14.82556"><ele>772.0</ele><time>2026-03-29T09:52:45.342Z</time></trkpt><trkpt lat="37.78197" lon="14.82556"><ele>772.0</ele><time>2026-03-29T09:52:46.342Z</time></trkpt><trkpt lat="37.782095" lon="14.8255417"><ele>772.0</ele><time>2026-03-29T09:52:47.342Z</time></trkpt><trkpt lat="37.782225" lon="14.8255067"><ele>772.0</ele><time>2026-03-29T09:52:48.342Z</time></trkpt><trkpt lat="37.7823383" lon="14.8255017"><ele>772.0</ele><time>2026-03-29T09:52:49.341Z</time></trkpt><trkpt lat="37.7824617" lon="14.8255333"><ele>772.0</ele><time>2026-03-29T09:52:50.342Z</time></trkpt><trkpt lat="37.7825683" lon="14.82558"><ele>772.0</ele><time>2026-03-29T09:52:51.341Z</time></trkpt><trkpt lat="37.782665" lon="14.8256367"><ele>769.6</ele><time>2026-03-29T09:52:52.341Z</time></trkpt><trkpt lat="37.7827517" lon="14.8256833"><ele>767.2</ele><time>2026-03-29T09:52:53.341Z</time></trkpt><trkpt lat="37.7828367" lon="14.8257317"><ele>764.8</ele><time>2026-03-29T09:52:54.341Z</time></trkpt><trkpt lat="37.7829283" lon="14.8257833"><ele>762.4</ele><time>2026-03-29T09:52:55.341Z</time></trkpt><trkpt lat="37.7830117" lon="14.8258267"><ele>760.0</ele><time>2026-03-29T09:52:56.342Z</time></trkpt><trkpt lat="37.7830933" lon="14.8258733"><ele>760.0</ele><time>2026-03-29T09:52:57.342Z</time></trkpt><trkpt lat="37.78316" lon="14.8259133"><ele>760.0</ele><time>2026-03-29T09:52:58.341Z</time></trkpt><trkpt lat="37.78322" lon="14.8259733"><ele>760.0</ele><time>2026-03-29T09:52:59.342Z</time></trkpt><trkpt lat="37.7832717" lon="14.82603"><ele>760.0</ele><time>2026-03-29T09:53:00.341Z</time></trkpt><trkpt lat="37.7833317" lon="14.8260867"><ele>760.0</ele><time>2026-03-29T09:53:01.342Z</time></trkpt><trkpt lat="37.7833867" lon="14.826155"><ele>760.0</ele><time>2026-03-29T09:53:02.342Z</time></trkpt><trkpt lat="37.7834533" lon="14.8262383"><ele>774.0</ele><time>2026-03-29T09:53:03.341Z</time></trkpt><trkpt lat="37.7835483" lon="14.8263433"><ele>763.0</ele><time>2026-03-29T09:53:05.342Z</time></trkpt><trkpt lat="37.7836233" lon="14.8264317"><ele>763.0</ele><time>2026-03-29T09:53:07.341Z</time></trkpt><trkpt lat="37.7836967" lon="14.8264967"><ele>763.0</ele><time>2026-03-29T09:53:09.341Z</time></trkpt></trkseg><trkseg><trkpt lat="37.7836917" lon="14.8265517"><ele>763.0</ele><time>2026-03-29T10:10:00.086Z</time></trkpt><trkpt lat="37.783705" lon="14.8264733"><ele>763.0</ele><time>2026-03-29T10:10:12.342Z</time></trkpt><trkpt lat="37.7836933" lon="14.8265717"><ele>763.0</ele><time>2026-03-29T10:12:23.341Z</time></trkpt><trkpt lat="37.78368" lon="14.8266717"><ele>763.0</ele><time>2026-03-29T10:12:25.34Z</time></trkpt><trkpt lat="37.7836683" lon="14.8267517"><ele>763.0</ele><time>2026-03-29T10:12:27.341Z</time></trkpt><trkpt lat="37.7836533" lon="14.8268483"><ele>763.0</ele><time>2026-03-29T10:12:50.34Z</time></trkpt><trkpt lat="37.7835983" lon="14.82696"><ele>763.0</ele><time>2026-03-29T10:12:52.34Z</time></trkpt><trkpt lat="37.783525" lon="14.82705"><ele>763.0</ele><time>2026-03-29T10:12:54.341Z</time></trkpt><trkpt lat="37.783425" lon="14.827165"><ele>763.0</ele><time>2026-03-29T10:12:56.341Z</time></trkpt><trkpt lat="37.7833717" lon="14.8272283"><ele>763.0</ele><time>2026-03-29T10:12:57.341Z</time></trkpt><trkpt lat="37.7833117" lon="14.8272983"><ele>763.0</ele><time>2026-03-29T10:12:58.34Z</time></trkpt><trkpt lat="37.7832533" lon="14.8273833"><ele>765.25</ele><time>2026-03-29T10:12:59.34Z</time></trkpt><trkpt lat="37.7831783" lon="14.82747"><ele>767.5</ele><time>2026-03-29T10:13:00.34Z</time></trkpt><trkpt lat="37.78309" lon="14.8275683"><ele>769.75</ele><time>2026-03-29T10:13:01.341Z</time></trkpt><trkpt lat="37.782995" lon="14.8276633"><ele>772.0</ele><time>2026-03-29T10:13:02.341Z</time></trkpt><trkpt lat="37.782895" lon="14.8277617"><ele>772.0</ele><time>2026-03-29T10:13:03.341Z</time></trkpt><trkpt lat="37.7827933" lon="14.8278533"><ele>772.0</ele><time>2026-03-29T10:13:04.341Z</time></trkpt><trkpt lat="37.7826883" lon="14.8279383"><ele>772.0</ele><time>2026-03-29T10:13:05.34Z</time></trkpt><trkpt lat="37.7825733" lon="14.82802"><ele>772.0</ele><time>2026-03-29T10:13:06.34Z</time></trkpt><trkpt lat="37.78246" lon="14.828105"><ele>774.75</ele><time>2026-03-29T10:13:07.34Z</time></trkpt><trkpt lat="37.78235" lon="14.8281933"><ele>777.5</ele><time>2026-03-29T10:13:08.341Z</time></trkpt><trkpt lat="37.7822533" lon="14.8282833"><ele>780.25</ele><time>2026-03-29T10:13:09.341Z</time></trkpt><trkpt lat="37.782145" lon="14.82836"><ele>783.0</ele><time>2026-03-29T10:13:10.341Z</time></trkpt><trkpt lat="37.7820367" lon="14.8284517"><ele>781.0</ele><time>2026-03-29T10:13:11.34Z</time></trkpt><trkpt lat="37.7819467" lon="14.8285383"><ele>779.0</ele><time>2026-03-29T10:13:12.341Z</time></trkpt><trkpt lat="37.7818517" lon="14.828625"><ele>777.0</ele><time>2026-03-29T10:13:13.34Z</time></trkpt><trkpt lat="37.7817633" lon="14.8287417"><ele>775.0</ele><time>2026-03-29T10:13:14.341Z</time></trkpt><trkpt lat="37.781685" lon="14.8288717"><ele>779.5</ele><time>2026-03-29T10:13:15.34Z</time></trkpt><trkpt lat="37.7816167" lon="14.8290133"><ele>784.0</ele><time>2026-03-29T10:13:16.34Z</time></trkpt><trkpt lat="37.7815567" lon="14.8291617"><ele>788.5</ele><time>2026-03-29T10:13:17.341Z</time></trkpt><trkpt lat="37.7815117" lon="14.8293067"><ele>793.0</ele><time>2026-03-29T10:13:18.34Z</time></trkpt><trkpt lat="37.7814883" lon="14.829465"><ele>793.75</ele><time>2026-03-29T10:13:19.341Z</time></trkpt><trkpt lat="37.7814733" lon="14.8296267"><ele>794.5</ele><time>2026-03-29T10:13:20.341Z</time></trkpt><trkpt lat="37.7814733" lon="14.8297867"><ele>795.25</ele><time>2026-03-29T10:13:21.341Z</time></trkpt><trkpt lat="37.7814833" lon="14.829965"><ele>796.0</ele><time>2026-03-29T10:13:22.34Z</time></trkpt><trkpt lat="37.7815083" lon="14.83014"><ele>798.25</ele><time>2026-03-29T10:13:23.341Z</time></trkpt><trkpt lat="37.781545" lon="14.8302967"><ele>800.5</ele><time>2026-03-29T10:13:24.341Z</time></trkpt><trkpt lat="37.7815967" lon="14.8304417"><ele>802.75</ele><time>2026-03-29T10:13:25.341Z</time></trkpt><trkpt lat="37.7816683" lon="14.8305817"><ele>805.0</ele><time>2026-03-29T10:13:26.34Z</time></trkpt><trkpt lat="37.7817383" lon="14.8307233"><ele>805.0</ele><time>2026-03-29T10:13:27.34Z</time></trkpt><trkpt lat="37.781795" lon="14.8308617"><ele>805.0</ele><time>2026-03-29T10:13:28.34Z</time></trkpt><trkpt lat="37.7818467" lon="14.8310067"><ele>805.0</ele><time>2026-03-29T10:13:29.34Z</time></trkpt><trkpt lat="37.781885" lon="14.8311517"><ele>805.0</ele><time>2026-03-29T10:13:30.34Z</time></trkpt><trkpt lat="37.7819133" lon="14.8313"><ele>804.5</ele><time>2026-03-29T10:13:31.341Z</time></trkpt><trkpt lat="37.781935" lon="14.8314533"><ele>804.0</ele><time>2026-03-29T10:13:32.34Z</time></trkpt><trkpt lat="37.7819567" lon="14.83161"><ele>803.5</ele><time>2026-03-29T10:13:33.34Z</time></trkpt><trkpt lat="37.78197" lon="14.8317733"><ele>803.0</ele><time>2026-03-29T10:13:34.341Z</time></trkpt><trkpt lat="37.7819917" lon="14.8319333"><ele>803.0</ele><time>2026-03-29T10:13:35.341Z</time></trkpt><trkpt lat="37.782005" lon="14.8321033"><ele>803.0</ele><time>2026-03-29T10:13:36.34Z</time></trkpt><trkpt lat="37.782025" lon="14.8322583"><ele>803.0</ele><time>2026-03-29T10:13:37.341Z</time></trkpt><trkpt lat="37.78204" lon="14.8324117"><ele>803.0</ele><time>2026-03-29T10:13:38.341Z</time></trkpt><trkpt lat="37.7820517" lon="14.8325533"><ele>804.6666666666667</ele><time>2026-03-29T10:13:39.341Z</time></trkpt><trkpt lat="37.78206" lon="14.8326867"><ele>806.3333333333334</ele><time>2026-03-29T10:13:40.341Z</time></trkpt><trkpt lat="37.7820667" lon="14.8328017"><ele>808.0</ele><time>2026-03-29T10:13:41.34Z</time></trkpt><trkpt lat="37.7820683" lon="14.8329067"><ele>809.6666666666667</ele><time>2026-03-29T10:13:42.341Z</time></trkpt><trkpt lat="37.78206" lon="14.83301"><ele>811.3333333333334</ele><time>2026-03-29T10:13:43.34Z</time></trkpt><trkpt lat="37.7820517" lon="14.8331133"><ele>813.0</ele><time>2026-03-29T10:13:44.34Z</time></trkpt><trkpt lat="37.7820333" lon="14.8332167"><ele>813.0</ele><time>2026-03-29T10:13:45.34Z</time></trkpt><trkpt lat="37.7820067" lon="14.83332"><ele>813.0</ele><time>2026-03-29T10:13:46.34Z</time></trkpt><trkpt lat="37.78198" lon="14.8334167"><ele>813.0</ele><time>2026-03-29T10:13:47.341Z</time></trkpt><trkpt lat="37.7819433" lon="14.833505"><ele>813.0</ele><time>2026-03-29T10:13:48.34Z</time></trkpt><trkpt lat="37.7819133" lon="14.8335833"><ele>813.0</ele><time>2026-03-29T10:13:49.341Z</time></trkpt><trkpt lat="37.781885" lon="14.8336567"><ele>813.0</ele><time>2026-03-29T10:13:50.341Z</time></trkpt><trkpt lat="37.7818567" lon="14.8337283"><ele>813.0</ele><time>2026-03-29T10:13:51.341Z</time></trkpt><trkpt lat="37.7818283" lon="14.8338117"><ele>814.1666666666666</ele><time>2026-03-29T10:13:52.341Z</time></trkpt><trkpt lat="37.7817917" lon="14.8339133"><ele>815.3333333333333</ele><time>2026-03-29T10:13:53.34Z</time></trkpt><trkpt lat="37.78176" lon="14.8340133"><ele>816.5</ele><time>2026-03-29T10:13:54.34Z</time></trkpt><trkpt lat="37.7817317" lon="14.8341233"><ele>817.6666666666666</ele><time>2026-03-29T10:13:55.341Z</time></trkpt><trkpt lat="37.7817083" lon="14.8342233"><ele>818.8333333333333</ele><time>2026-03-29T10:13:56.34Z</time></trkpt><trkpt lat="37.7816883" lon="14.8343033"><ele>820.0</ele><time>2026-03-29T10:13:57.34Z</time></trkpt><trkpt lat="37.7816783" lon="14.834385"><ele>819.6666666666666</ele><time>2026-03-29T10:13:58.34Z</time></trkpt><trkpt lat="37.7816767" lon="14.83453"><ele>819.3333333333333</ele><time>2026-03-29T10:14:00.341Z</time></trkpt><trkpt lat="37.7816833" lon="14.834615"><ele>819.0</ele><time>2026-03-29T10:14:01.34Z</time></trkpt><trkpt lat="37.7817" lon="14.8346983"><ele>818.6666666666667</ele><time>2026-03-29T10:14:02.341Z</time></trkpt><trkpt lat="37.7817567" lon="14.834815"><ele>818.3333333333334</ele><time>2026-03-29T10:14:04.34Z</time></trkpt><trkpt lat="37.78181" lon="14.834885"><ele>818.0</ele><time>2026-03-29T10:14:07.34Z</time></trkpt><trkpt lat="37.7818933" lon="14.8348517"><ele>818.0000000000001</ele><time>2026-03-29T10:14:11.341Z</time></trkpt><trkpt lat="37.7819017" lon="14.8347533"><ele>818.0</ele><time>2026-03-29T10:14:13.341Z</time></trkpt><trkpt lat="37.78184" lon="14.8346367"><ele>818.0</ele><time>2026-03-29T10:14:15.341Z</time></trkpt><trkpt lat="37.7817983" lon="14.834555"><ele>818.0</ele><time>2026-03-29T10:14:16.341Z</time></trkpt><trkpt lat="37.7817567" lon="14.8344683"><ele>818.0000000000001</ele><time>2026-03-29T10:14:17.34Z</time></trkpt><trkpt lat="37.7817283" lon="14.83438"><ele>818.0</ele><time>2026-03-29T10:14:18.34Z</time></trkpt><trkpt lat="37.7817117" lon="14.834295"><ele>818.4</ele><time>2026-03-29T10:14:19.341Z</time></trkpt><trkpt lat="37.7817267" lon="14.8342"><ele>818.8</ele><time>2026-03-29T10:14:20.341Z</time></trkpt><trkpt lat="37.7817583" lon="14.8340933"><ele>819.2</ele><time>2026-03-29T10:14:21.34Z</time></trkpt><trkpt lat="37.7818" lon="14.83399"><ele>819.6</ele><time>2026-03-29T10:14:22.341Z</time></trkpt><trkpt lat="37.7818433" lon="14.8338733"><ele>820.0</ele><time>2026-03-29T10:14:23.341Z</time></trkpt><trkpt lat="37.781925" lon="14.833645"><ele>819.1666666666666</ele><time>2026-03-29T10:14:25.341Z</time></trkpt><trkpt lat="37.781955" lon="14.8335417"><ele>818.3333333333333</ele><time>2026-03-29T10:14:26.34Z</time></trkpt><trkpt lat="37.7819867" lon="14.833435"><ele>817.5</ele><time>2026-03-29T10:14:27.341Z</time></trkpt><trkpt lat="37.7820217" lon="14.8333267"><ele>816.6666666666667</ele><time>2026-03-29T10:14:28.34Z</time></trkpt><trkpt lat="37.782045" lon="14.8332183"><ele>815.8333333333334</ele><time>2026-03-29T10:14:29.341Z</time></trkpt><trkpt lat="37.78207" lon="14.8331317"><ele>815.0</ele><time>2026-03-29T10:14:30.341Z</time></trkpt><trkpt lat="37.7820933" lon="14.833035"><ele>814.7142857142857</ele><time>2026-03-29T10:14:31.34Z</time></trkpt><trkpt lat="37.782105" lon="14.83295"><ele>814.4285714285713</ele><time>2026-03-29T10:14:32.341Z</time></trkpt><trkpt lat="37.782105" lon="14.832855"><ele>814.1428571428571</ele><time>2026-03-29T10:14:33.34Z</time></trkpt><trkpt lat="37.7821017" lon="14.83275"><ele>813.8571428571429</ele><time>2026-03-29T10:14:34.341Z</time></trkpt><trkpt lat="37.7820933" lon="14.8326533"><ele>813.5714285714286</ele><time>2026-03-29T10:14:35.34Z</time></trkpt><trkpt lat="37.7820783" lon="14.832565"><ele>813.2857142857143</ele><time>2026-03-29T10:14:36.341Z</time></trkpt><trkpt lat="37.7820583" lon="14.832475"><ele>813.0</ele><time>2026-03-29T10:14:37.34Z</time></trkpt><trkpt lat="37.78204" lon="14.83238"><ele>811.3333333333334</ele><time>2026-03-29T10:14:38.341Z</time></trkpt><trkpt lat="37.782025" lon="14.832275"><ele>809.6666666666667</ele><time>2026-03-29T10:14:39.34Z</time></trkpt><trkpt lat="37.7820117" lon="14.83216"><ele>808.0</ele><time>2026-03-29T10:14:40.34Z</time></trkpt><trkpt lat="37.7820033" lon="14.832045"><ele>806.3333333333334</ele><time>2026-03-29T10:14:41.341Z</time></trkpt><trkpt lat="37.7819917" lon="14.8319317"><ele>804.6666666666667</ele><time>2026-03-29T10:14:42.341Z</time></trkpt><trkpt lat="37.7819833" lon="14.8318333"><ele>803.0</ele><time>2026-03-29T10:14:43.34Z</time></trkpt><trkpt lat="37.781975" lon="14.8317383"><ele>801.0000000000001</ele><time>2026-03-29T10:14:44.341Z</time></trkpt><trkpt lat="37.7819683" lon="14.831645"><ele>799.0</ele><time>2026-03-29T10:14:45.34Z</time></trkpt><trkpt lat="37.7819583" lon="14.831545"><ele>797.0</ele><time>2026-03-29T10:14:46.34Z</time></trkpt><trkpt lat="37.7819467" lon="14.831445"><ele>795.0</ele><time>2026-03-29T10:14:47.34Z</time></trkpt><trkpt lat="37.7819317" lon="14.8313433"><ele>793.0000000000001</ele><time>2026-03-29T10:14:48.34Z</time></trkpt><trkpt lat="37.7819267" lon="14.8312467"><ele>791.0</ele><time>2026-03-29T10:14:49.341Z</time></trkpt><trkpt lat="37.7819167" lon="14.8311533"><ele>791.0</ele><time>2026-03-29T10:14:50.341Z</time></trkpt><trkpt lat="37.7819" lon="14.831065"><ele>791.0</ele><time>2026-03-29T10:14:51.341Z</time></trkpt><trkpt lat="37.7818733" lon="14.8309817"><ele>791.0</ele><time>2026-03-29T10:14:52.341Z</time></trkpt><trkpt lat="37.7818433" lon="14.8309017"><ele>791.0</ele><time>2026-03-29T10:14:53.34Z</time></trkpt><trkpt lat="37.7818117" lon="14.8308217"><ele>791.0</ele><time>2026-03-29T10:14:54.34Z</time></trkpt><trkpt lat="37.78178" lon="14.8307317"><ele>791.0</ele><time>2026-03-29T10:14:55.34Z</time></trkpt><trkpt lat="37.7817483" lon="14.8306467"><ele>791.0</ele><time>2026-03-29T10:14:56.341Z</time></trkpt><trkpt lat="37.7817133" lon="14.8305633"><ele>791.8333333333334</ele><time>2026-03-29T10:14:57.341Z</time></trkpt><trkpt lat="37.7816783" lon="14.830475"><ele>792.6666666666667</ele><time>2026-03-29T10:14:58.341Z</time></trkpt><trkpt lat="37.78164" lon="14.8303833"><ele>793.5</ele><time>2026-03-29T10:14:59.341Z</time></trkpt><trkpt lat="37.7816083" lon="14.8302783"><ele>794.3333333333333</ele><time>2026-03-29T10:15:00.341Z</time></trkpt><trkpt lat="37.7815783" lon="14.8301717"><ele>795.1666666666666</ele><time>2026-03-29T10:15:01.341Z</time></trkpt><trkpt lat="37.7815583" lon="14.8300633"><ele>796.0</ele><time>2026-03-29T10:15:02.34Z</time></trkpt><trkpt lat="37.7815417" lon="14.8299467"><ele>796.0</ele><time>2026-03-29T10:15:03.341Z</time></trkpt><trkpt lat="37.7815333" lon="14.829825"><ele>796.0</ele><time>2026-03-29T10:15:04.34Z</time></trkpt><trkpt lat="37.7815367" lon="14.8296983"><ele>796.0</ele><time>2026-03-29T10:15:05.341Z</time></trkpt><trkpt lat="37.78154" lon="14.8295783"><ele>796.0</ele><time>2026-03-29T10:15:06.341Z</time></trkpt><trkpt lat="37.7815533" lon="14.8294633"><ele>796.0</ele><time>2026-03-29T10:15:07.341Z</time></trkpt><trkpt lat="37.781575" lon="14.8293517"><ele>795.4</ele><time>2026-03-29T10:15:08.341Z</time></trkpt><trkpt lat="37.7816" lon="14.8292367"><ele>794.8</ele><time>2026-03-29T10:15:09.341Z</time></trkpt><trkpt lat="37.7816283" lon="14.829125"><ele>794.1999999999999</ele><time>2026-03-29T10:15:10.341Z</time></trkpt><trkpt lat="37.7816667" lon="14.8290183"><ele>793.5999999999999</ele><time>2026-03-29T10:15:11.341Z</time></trkpt><trkpt lat="37.781715" lon="14.8289233"><ele>793.0</ele><time>2026-03-29T10:15:12.341Z</time></trkpt><trkpt lat="37.7817667" lon="14.8288217"><ele>793.0</ele><time>2026-03-29T10:15:13.34Z</time></trkpt><trkpt lat="37.7818317" lon="14.8287267"><ele>793.0</ele><time>2026-03-29T10:15:14.341Z</time></trkpt><trkpt lat="37.7819067" lon="14.82864"><ele>793.0</ele><time>2026-03-29T10:15:15.341Z</time></trkpt><trkpt lat="37.7820717" lon="14.82851"><ele>793.0</ele><time>2026-03-29T10:15:17.34Z</time></trkpt><trkpt lat="37.78222" lon="14.8283983"><ele>790.5</ele><time>2026-03-29T10:15:19.34Z</time></trkpt><trkpt lat="37.7823483" lon="14.8283"><ele>788.0</ele><time>2026-03-29T10:15:21.341Z</time></trkpt><trkpt lat="37.78247" lon="14.8282133"><ele>785.5</ele><time>2026-03-29T10:15:23.341Z</time></trkpt><trkpt lat="37.7825983" lon="14.82812"><ele>783.0</ele><time>2026-03-29T10:15:25.341Z</time></trkpt><trkpt lat="37.7827233" lon="14.8280217"><ele>780.25</ele><time>2026-03-29T10:15:27.34Z</time></trkpt><trkpt lat="37.782845" lon="14.8279183"><ele>777.5</ele><time>2026-03-29T10:15:29.34Z</time></trkpt><trkpt lat="37.7829467" lon="14.8278267"><ele>774.75</ele><time>2026-03-29T10:15:31.34Z</time></trkpt><trkpt lat="37.783035" lon="14.8277383"><ele>772.0</ele><time>2026-03-29T10:15:33.341Z</time></trkpt><trkpt lat="37.7831033" lon="14.8276567"><ele>772.9999999999999</ele><time>2026-03-29T10:15:35.34Z</time></trkpt><trkpt lat="37.7831517" lon="14.8276017"><ele>774.0</ele><time>2026-03-29T10:15:37.341Z</time></trkpt><trkpt lat="37.783245" lon="14.827555"><ele>775.0</ele><time>2026-03-29T10:15:41.34Z</time></trkpt><trkpt lat="37.7833083" lon="14.8275667"><ele>776.0</ele><time>2026-03-29T10:15:43.341Z</time></trkpt><trkpt lat="37.7833683" lon="14.827615"><ele>776.9999999999999</ele><time>2026-03-29T10:15:45.34Z</time></trkpt><trkpt lat="37.78347" lon="14.82764"><ele>778.0</ele><time>2026-03-29T10:15:47.34Z</time></trkpt><trkpt lat="37.7835833" lon="14.8275667"><ele>773.0</ele><time>2026-03-29T10:15:49.339Z</time></trkpt><trkpt lat="37.7836733" lon="14.8273717"><ele>768.0</ele><time>2026-03-29T10:15:51.34Z</time></trkpt><trkpt lat="37.7837433" lon="14.8271667"><ele>763.0</ele><time>2026-03-29T10:15:53.34Z</time></trkpt><trkpt lat="37.78384" lon="14.827095"><ele>763.0</ele><time>2026-03-29T10:15:55.339Z</time></trkpt><trkpt lat="37.7839233" lon="14.8272067"><ele>763.0</ele><time>2026-03-29T10:15:57.34Z</time></trkpt><trkpt lat="37.7839483" lon="14.8273183"><ele>763.0</ele><time>2026-03-29T10:15:58.339Z</time></trkpt><trkpt lat="37.783965" lon="14.8274517"><ele>763.0</ele><time>2026-03-29T10:15:59.339Z</time></trkpt><trkpt lat="37.7839533" lon="14.82773"><ele>762.2</ele><time>2026-03-29T10:16:01.34Z</time></trkpt><trkpt lat="37.7839383" lon="14.8278683"><ele>761.4</ele><time>2026-03-29T10:16:02.34Z</time></trkpt><trkpt lat="37.78392" lon="14.8279917"><ele>760.6</ele><time>2026-03-29T10:16:03.34Z</time></trkpt><trkpt lat="37.7838833" lon="14.8281233"><ele>759.8000000000001</ele><time>2026-03-29T10:16:04.339Z</time></trkpt><trkpt lat="37.7838483" lon="14.8282417"><ele>759.0</ele><time>2026-03-29T10:16:05.34Z</time></trkpt><trkpt lat="37.7838183" lon="14.82835"><ele>759.0</ele><time>2026-03-29T10:16:06.339Z</time></trkpt><trkpt lat="37.783795" lon="14.828465"><ele>759.0</ele><time>2026-03-29T10:16:07.34Z</time></trkpt><trkpt lat="37.78379" lon="14.8285983"><ele>759.0</ele><time>2026-03-29T10:16:08.34Z</time></trkpt><trkpt lat="37.78382" lon="14.8287167"><ele>759.0</ele><time>2026-03-29T10:16:09.34Z</time></trkpt><trkpt lat="37.7838717" lon="14.8288317"><ele>759.0</ele><time>2026-03-29T10:16:10.339Z</time></trkpt><trkpt lat="37.7839367" lon="14.8289217"><ele>758.2</ele><time>2026-03-29T10:16:11.339Z</time></trkpt><trkpt lat="37.7840217" lon="14.828995"><ele>757.4000000000001</ele><time>2026-03-29T10:16:12.34Z</time></trkpt><trkpt lat="37.78411" lon="14.8290467"><ele>756.6</ele><time>2026-03-29T10:16:13.34Z</time></trkpt><trkpt lat="37.7842133" lon="14.8290517"><ele>755.8</ele><time>2026-03-29T10:16:14.34Z</time></trkpt><trkpt lat="37.7843117" lon="14.8290317"><ele>755.0</ele><time>2026-03-29T10:16:15.34Z</time></trkpt><trkpt lat="37.7844067" lon="14.8289817"><ele>752.0</ele><time>2026-03-29T10:16:16.339Z</time></trkpt><trkpt lat="37.7845033" lon="14.8288867"><ele>749.0</ele><time>2026-03-29T10:16:17.339Z</time></trkpt><trkpt lat="37.784595" lon="14.8287617"><ele>746.0</ele><time>2026-03-29T10:16:18.339Z</time></trkpt><trkpt lat="37.78469" lon="14.8286633"><ele>743.0</ele><time>2026-03-29T10:16:19.339Z</time></trkpt><trkpt lat="37.7847867" lon="14.8285633"><ele>743.0</ele><time>2026-03-29T10:16:20.339Z</time></trkpt><trkpt lat="37.7848733" lon="14.8284817"><ele>743.0</ele><time>2026-03-29T10:16:21.34Z</time></trkpt><trkpt lat="37.7849767" lon="14.8284167"><ele>743.0</ele><time>2026-03-29T10:16:22.339Z</time></trkpt><trkpt lat="37.7850967" lon="14.82836"><ele>743.0</ele><time>2026-03-29T10:16:23.34Z</time></trkpt><trkpt lat="37.7852183" lon="14.82832"><ele>740.25</ele><time>2026-03-29T10:16:24.34Z</time></trkpt><trkpt lat="37.785345" lon="14.828295"><ele>737.5</ele><time>2026-03-29T10:16:25.34Z</time></trkpt><trkpt lat="37.78546" lon="14.8282733"><ele>734.75</ele><time>2026-03-29T10:16:26.34Z</time></trkpt><trkpt lat="37.7855767" lon="14.828245"><ele>732.0</ele><time>2026-03-29T10:16:27.339Z</time></trkpt><trkpt lat="37.7856917" lon="14.8282017"><ele>732.0</ele><time>2026-03-29T10:16:28.34Z</time></trkpt><trkpt lat="37.785795" lon="14.8281533"><ele>732.0</ele><time>2026-03-29T10:16:29.34Z</time></trkpt><trkpt lat="37.7858817" lon="14.8281033"><ele>732.0</ele><time>2026-03-29T10:16:30.339Z</time></trkpt><trkpt lat="37.78596" lon="14.8280417"><ele>732.0</ele><time>2026-03-29T10:16:31.339Z</time></trkpt><trkpt lat="37.78605" lon="14.8279583"><ele>732.0</ele><time>2026-03-29T10:16:32.34Z</time></trkpt><trkpt lat="37.7861483" lon="14.82788"><ele>730.6</ele><time>2026-03-29T10:16:33.339Z</time></trkpt><trkpt lat="37.7862383" lon="14.8277967"><ele>729.2</ele><time>2026-03-29T10:16:34.339Z</time></trkpt><trkpt lat="37.78633" lon="14.8277267"><ele>727.8</ele><time>2026-03-29T10:16:35.34Z</time></trkpt><trkpt lat="37.7864267" lon="14.8276767"><ele>726.4</ele><time>2026-03-29T10:16:36.34Z</time></trkpt><trkpt lat="37.7865267" lon="14.8276683"><ele>725.0</ele><time>2026-03-29T10:16:37.339Z</time></trkpt><trkpt lat="37.7866" lon="14.8276867"><ele>725.0</ele><time>2026-03-29T10:16:38.34Z</time></trkpt><trkpt lat="37.786665" lon="14.8277267"><ele>725.0</ele><time>2026-03-29T10:16:39.339Z</time></trkpt><trkpt lat="37.78672" lon="14.8277717"><ele>725.0</ele><time>2026-03-29T10:16:40.339Z</time></trkpt><trkpt lat="37.786805" lon="14.8278317"><ele>725.0</ele><time>2026-03-29T10:16:42.339Z</time></trkpt><trkpt lat="37.7869083" lon="14.82782"><ele>725.0</ele><time>2026-03-29T10:16:44.34Z</time></trkpt><trkpt lat="37.7869783" lon="14.82779"><ele>725.0</ele><time>2026-03-29T10:16:45.339Z</time></trkpt><trkpt lat="37.78706" lon="14.82777"><ele>722.6</ele><time>2026-03-29T10:16:46.339Z</time></trkpt><trkpt lat="37.7871483" lon="14.8277717"><ele>720.2</ele><time>2026-03-29T10:16:47.339Z</time></trkpt><trkpt lat="37.7872533" lon="14.8277933"><ele>717.8</ele><time>2026-03-29T10:16:48.34Z</time></trkpt><trkpt lat="37.787365" lon="14.82785"><ele>715.4</ele><time>2026-03-29T10:16:49.34Z</time></trkpt><trkpt lat="37.7874783" lon="14.82791"><ele>713.0</ele><time>2026-03-29T10:16:50.34Z</time></trkpt><trkpt lat="37.787605" lon="14.827965"><ele>710.5</ele><time>2026-03-29T10:16:51.339Z</time></trkpt><trkpt lat="37.7877333" lon="14.8280133"><ele>708.0</ele><time>2026-03-29T10:16:52.339Z</time></trkpt><trkpt lat="37.787865" lon="14.82805"><ele>705.5</ele><time>2026-03-29T10:16:53.339Z</time></trkpt><trkpt lat="37.7880017" lon="14.8280783"><ele>703.0</ele><time>2026-03-29T10:16:54.34Z</time></trkpt><trkpt lat="37.7881333" lon="14.8281"><ele>703.0</ele><time>2026-03-29T10:16:55.34Z</time></trkpt><trkpt lat="37.7882517" lon="14.8281267"><ele>703.0</ele><time>2026-03-29T10:16:56.34Z</time></trkpt><trkpt lat="37.7883717" lon="14.8281333"><ele>703.0</ele><time>2026-03-29T10:16:57.34Z</time></trkpt><trkpt lat="37.7884983" lon="14.82812"><ele>703.0</ele><time>2026-03-29T10:16:58.339Z</time></trkpt><trkpt lat="37.78861" lon="14.8281033"><ele>702.3333333333334</ele><time>2026-03-29T10:16:59.339Z</time></trkpt><trkpt lat="37.7887067" lon="14.82808"><ele>701.6666666666667</ele><time>2026-03-29T10:17:00.34Z</time></trkpt><trkpt lat="37.7887917" lon="14.8280683"><ele>701.0</ele><time>2026-03-29T10:17:01.34Z</time></trkpt><trkpt lat="37.78887" lon="14.8280567"><ele>700.3333333333334</ele><time>2026-03-29T10:17:02.34Z</time></trkpt><trkpt lat="37.7889417" lon="14.8280483"><ele>699.6666666666666</ele><time>2026-03-29T10:17:03.339Z</time></trkpt><trkpt lat="37.7890067" lon="14.8280417"><ele>699.0</ele><time>2026-03-29T10:17:04.34Z</time></trkpt><trkpt lat="37.7890717" lon="14.828025"><ele>699.0</ele><time>2026-03-29T10:17:05.34Z</time></trkpt><trkpt lat="37.7891317" lon="14.8279917"><ele>699.0</ele><time>2026-03-29T10:17:06.339Z</time></trkpt><trkpt lat="37.7892067" lon="14.827925"><ele>699.0</ele><time>2026-03-29T10:17:07.339Z</time></trkpt><trkpt lat="37.789275" lon="14.8278317"><ele>699.0</ele><time>2026-03-29T10:17:08.339Z</time></trkpt><trkpt lat="37.7893333" lon="14.8277067"><ele>699.0</ele><time>2026-03-29T10:17:09.339Z</time></trkpt><trkpt lat="37.7893867" lon="14.8275633"><ele>697.5</ele><time>2026-03-29T10:17:10.339Z</time></trkpt><trkpt lat="37.7894383" lon="14.827395"><ele>696.0</ele><time>2026-03-29T10:17:11.34Z</time></trkpt><trkpt lat="37.7894883" lon="14.8272267"><ele>694.5</ele><time>2026-03-29T10:17:12.34Z</time></trkpt><trkpt lat="37.7895483" lon="14.82705"><ele>693.0</ele><time>2026-03-29T10:17:13.34Z</time></trkpt><trkpt lat="37.7896067" lon="14.826885"><ele>691.5</ele><time>2026-03-29T10:17:14.339Z</time></trkpt><trkpt lat="37.7896683" lon="14.8267133"><ele>690.0</ele><time>2026-03-29T10:17:15.339Z</time></trkpt><trkpt lat="37.7897367" lon="14.8265467"><ele>688.5</ele><time>2026-03-29T10:17:16.34Z</time></trkpt><trkpt lat="37.7898" lon="14.8263733"><ele>687.0</ele><time>2026-03-29T10:17:17.34Z</time></trkpt><trkpt lat="37.7898533" lon="14.8262033"><ele>687.0</ele><time>2026-03-29T10:17:18.34Z</time></trkpt><trkpt lat="37.7899133" lon="14.82604"><ele>687.0</ele><time>2026-03-29T10:17:19.339Z</time></trkpt><trkpt lat="37.78997" lon="14.8258767"><ele>687.0</ele><time>2026-03-29T10:17:20.339Z</time></trkpt><trkpt lat="37.7900183" lon="14.8257117"><ele>687.0</ele><time>2026-03-29T10:17:21.34Z</time></trkpt><trkpt lat="37.7900633" lon="14.825555"><ele>684.5</ele><time>2026-03-29T10:17:22.34Z</time></trkpt><trkpt lat="37.7901017" lon="14.8253917"><ele>682.0</ele><time>2026-03-29T10:17:23.339Z</time></trkpt><trkpt lat="37.7901333" lon="14.8252217"><ele>679.5</ele><time>2026-03-29T10:17:24.34Z</time></trkpt><trkpt lat="37.790165" lon="14.8250367"><ele>677.0</ele><time>2026-03-29T10:17:25.339Z</time></trkpt><trkpt lat="37.7902083" lon="14.82484"><ele>673.6666666666666</ele><time>2026-03-29T10:17:26.339Z</time></trkpt><trkpt lat="37.7902483" lon="14.8246467"><ele>670.3333333333334</ele><time>2026-03-29T10:17:27.339Z</time></trkpt><trkpt lat="37.7902867" lon="14.824455"><ele>667.0</ele><time>2026-03-29T10:17:28.34Z</time></trkpt><trkpt lat="37.79033" lon="14.8242683"><ele>666.0</ele><time>2026-03-29T10:17:29.34Z</time></trkpt><trkpt lat="37.790365" lon="14.8240717"><ele>665.0</ele><time>2026-03-29T10:17:30.34Z</time></trkpt><trkpt lat="37.790395" lon="14.8238767"><ele>664.0</ele><time>2026-03-29T10:17:31.339Z</time></trkpt><trkpt lat="37.7904267" lon="14.823695"><ele>664.0</ele><time>2026-03-29T10:17:32.34Z</time></trkpt><trkpt lat="37.7904533" lon="14.82352"><ele>664.0</ele><time>2026-03-29T10:17:33.339Z</time></trkpt><trkpt lat="37.7904783" lon="14.823365"><ele>664.0</ele><time>2026-03-29T10:17:34.339Z</time></trkpt><trkpt lat="37.7905117" lon="14.8232333"><ele>664.0</ele><time>2026-03-29T10:17:35.339Z</time></trkpt><trkpt lat="37.7905333" lon="14.8231167"><ele>663.2</ele><time>2026-03-29T10:17:36.34Z</time></trkpt><trkpt lat="37.7905467" lon="14.82302"><ele>662.4000000000001</ele><time>2026-03-29T10:17:37.339Z</time></trkpt><trkpt lat="37.7905917" lon="14.8228867"><ele>661.6</ele><time>2026-03-29T10:17:39.339Z</time></trkpt><trkpt lat="37.79069" lon="14.8228533"><ele>660.8</ele><time>2026-03-29T10:17:41.34Z</time></trkpt><trkpt lat="37.79076" lon="14.8228733"><ele>660.0</ele><time>2026-03-29T10:17:42.34Z</time></trkpt><trkpt lat="37.7908417" lon="14.8229017"><ele>660.0</ele><time>2026-03-29T10:17:43.339Z</time></trkpt><trkpt lat="37.7909317" lon="14.8229217"><ele>660.0</ele><time>2026-03-29T10:17:44.339Z</time></trkpt><trkpt lat="37.7910233" lon="14.8229467"><ele>660.0</ele><time>2026-03-29T10:17:45.34Z</time></trkpt><trkpt lat="37.7911217" lon="14.822965"><ele>660.0</ele><time>2026-03-29T10:17:46.34Z</time></trkpt><trkpt lat="37.7912283" lon="14.8229917"><ele>660.0</ele><time>2026-03-29T10:17:47.339Z</time></trkpt><trkpt lat="37.7913317" lon="14.8230183"><ele>660.1666666666666</ele><time>2026-03-29T10:17:48.34Z</time></trkpt><trkpt lat="37.79143" lon="14.82304"><ele>660.3333333333334</ele><time>2026-03-29T10:17:49.339Z</time></trkpt><trkpt lat="37.7915283" lon="14.823055"><ele>660.5</ele><time>2026-03-29T10:17:50.339Z</time></trkpt><trkpt lat="37.7916117" lon="14.823075"><ele>660.6666666666667</ele><time>2026-03-29T10:17:51.34Z</time></trkpt><trkpt lat="37.7917017" lon="14.8231"><ele>660.8333333333334</ele><time>2026-03-29T10:17:53.339Z</time></trkpt><trkpt lat="37.7917367" lon="14.8231733"><ele>661.0</ele><time>2026-03-29T10:17:55.34Z</time></trkpt><trkpt lat="37.791715" lon="14.82333"><ele>661.0</ele><time>2026-03-29T10:17:57.339Z</time></trkpt><trkpt lat="37.7917017" lon="14.8234333"><ele>661.0</ele><time>2026-03-29T10:17:58.34Z</time></trkpt><trkpt lat="37.7916867" lon="14.8235583"><ele>661.0</ele><time>2026-03-29T10:17:59.339Z</time></trkpt><trkpt lat="37.7916717" lon="14.8236883"><ele>661.0</ele><time>2026-03-29T10:18:00.34Z</time></trkpt><trkpt lat="37.7916533" lon="14.8238283"><ele>661.0</ele><time>2026-03-29T10:18:01.339Z</time></trkpt><trkpt lat="37.79163" lon="14.823975"><ele>661.0</ele><time>2026-03-29T10:18:02.34Z</time></trkpt><trkpt lat="37.7916033" lon="14.8241283"><ele>661.0</ele><time>2026-03-29T10:18:03.34Z</time></trkpt><trkpt lat="37.79158" lon="14.8242883"><ele>661.0</ele><time>2026-03-29T10:18:04.339Z</time></trkpt><trkpt lat="37.7915683" lon="14.8244383"><ele>661.0</ele><time>2026-03-29T10:18:05.34Z</time></trkpt><trkpt lat="37.7915517" lon="14.8245733"><ele>662.0</ele><time>2026-03-29T10:18:06.34Z</time></trkpt><trkpt lat="37.791535" lon="14.82471"><ele>663.0</ele><time>2026-03-29T10:18:07.339Z</time></trkpt><trkpt lat="37.7915217" lon="14.8248383"><ele>664.0</ele><time>2026-03-29T10:18:08.34Z</time></trkpt><trkpt lat="37.7914983" lon="14.824965"><ele>665.0</ele><time>2026-03-29T10:18:09.339Z</time></trkpt><trkpt lat="37.7914767" lon="14.8250833"><ele>666.0</ele><time>2026-03-29T10:18:10.339Z</time></trkpt><trkpt lat="37.791465" lon="14.8251817"><ele>666.8571428571429</ele><time>2026-03-29T10:18:11.339Z</time></trkpt><trkpt lat="37.7914517" lon="14.825275"><ele>667.7142857142857</ele><time>2026-03-29T10:18:12.339Z</time></trkpt><trkpt lat="37.7914467" lon="14.8253617"><ele>668.5714285714286</ele><time>2026-03-29T10:18:13.339Z</time></trkpt><trkpt lat="37.791455" lon="14.8254517"><ele>669.4285714285714</ele><time>2026-03-29T10:18:14.34Z</time></trkpt><trkpt lat="37.791485" lon="14.825545"><ele>670.2857142857142</ele><time>2026-03-29T10:18:15.34Z</time></trkpt><trkpt lat="37.7915317" lon="14.8256267"><ele>671.1428571428571</ele><time>2026-03-29T10:18:16.339Z</time></trkpt><trkpt lat="37.7915783" lon="14.8256867"><ele>672.0</ele><time>2026-03-29T10:18:17.339Z</time></trkpt><trkpt lat="37.79162" lon="14.8257483"><ele>672.0</ele><time>2026-03-29T10:18:18.339Z</time></trkpt><trkpt lat="37.7916717" lon="14.8258"><ele>672.0</ele><time>2026-03-29T10:18:19.34Z</time></trkpt><trkpt lat="37.791735" lon="14.8258267"><ele>672.0</ele><time>2026-03-29T10:18:20.34Z</time></trkpt><trkpt lat="37.7918033" lon="14.8258433"><ele>672.0</ele><time>2026-03-29T10:18:21.34Z</time></trkpt><trkpt lat="37.7918733" lon="14.8258483"><ele>672.0</ele><time>2026-03-29T10:18:22.339Z</time></trkpt><trkpt lat="37.7919517" lon="14.8258417"><ele>672.0</ele><time>2026-03-29T10:18:23.34Z</time></trkpt><trkpt lat="37.7920317" lon="14.8258317"><ele>672.0</ele><time>2026-03-29T10:18:24.339Z</time></trkpt><trkpt lat="37.79211" lon="14.8258067"><ele>672.3333333333334</ele><time>2026-03-29T10:18:25.34Z</time></trkpt><trkpt lat="37.7921883" lon="14.8257733"><ele>672.6666666666666</ele><time>2026-03-29T10:18:26.339Z</time></trkpt><trkpt lat="37.7922633" lon="14.8257383"><ele>673.0</ele><time>2026-03-29T10:18:27.34Z</time></trkpt><trkpt lat="37.7923417" lon="14.8256933"><ele>673.3333333333333</ele><time>2026-03-29T10:18:28.339Z</time></trkpt><trkpt lat="37.79241" lon="14.825635"><ele>673.6666666666666</ele><time>2026-03-29T10:18:29.34Z</time></trkpt><trkpt lat="37.7924833" lon="14.82559"><ele>674.0</ele><time>2026-03-29T10:18:30.34Z</time></trkpt><trkpt lat="37.79255" lon="14.8255367"><ele>674.0</ele><time>2026-03-29T10:18:31.339Z</time></trkpt><trkpt lat="37.7926183" lon="14.8255067"><ele>674.0</ele><time>2026-03-29T10:18:32.339Z</time></trkpt><trkpt lat="37.7926967" lon="14.8254733"><ele>674.0</ele><time>2026-03-29T10:18:33.339Z</time></trkpt><trkpt lat="37.792775" lon="14.82542"><ele>674.0</ele><time>2026-03-29T10:18:34.34Z</time></trkpt><trkpt lat="37.79285" lon="14.82537"><ele>674.0</ele><time>2026-03-29T10:18:35.339Z</time></trkpt><trkpt lat="37.7929083" lon="14.8253317"><ele>674.0</ele><time>2026-03-29T10:18:36.339Z</time></trkpt><trkpt lat="37.7929733" lon="14.8252983"><ele>674.8333333333333</ele><time>2026-03-29T10:18:38.339Z</time></trkpt><trkpt lat="37.7930267" lon="14.8254067"><ele>675.6666666666666</ele><time>2026-03-29T10:18:42.339Z</time></trkpt><trkpt lat="37.7930633" lon="14.82555"><ele>676.5</ele><time>2026-03-29T10:18:44.339Z</time></trkpt><trkpt lat="37.7930867" lon="14.825635"><ele>677.3333333333334</ele><time>2026-03-29T10:18:45.339Z</time></trkpt><trkpt lat="37.793115" lon="14.82572"><ele>678.1666666666667</ele><time>2026-03-29T10:18:46.34Z</time></trkpt><trkpt lat="37.7931383" lon="14.82581"><ele>679.0</ele><time>2026-03-29T10:18:47.34Z</time></trkpt><trkpt lat="37.79316" lon="14.825895"><ele>679.0</ele><time>2026-03-29T10:18:48.339Z</time></trkpt><trkpt lat="37.7931733" lon="14.8259783"><ele>679.0</ele><time>2026-03-29T10:18:49.34Z</time></trkpt><trkpt lat="37.79319" lon="14.8260567"><ele>679.0</ele><time>2026-03-29T10:18:50.34Z</time></trkpt><trkpt lat="37.7932133" lon="14.8261417"><ele>679.0</ele><time>2026-03-29T10:18:51.339Z</time></trkpt><trkpt lat="37.7932383" lon="14.8262317"><ele>679.0</ele><time>2026-03-29T10:18:52.339Z</time></trkpt><trkpt lat="37.7932633" lon="14.8263233"><ele>679.0</ele><time>2026-03-29T10:18:53.34Z</time></trkpt><trkpt lat="37.7932983" lon="14.82643"><ele>679.0</ele><time>2026-03-29T10:18:54.34Z</time></trkpt><trkpt lat="37.7933217" lon="14.826515"><ele>680.0</ele><time>2026-03-29T10:18:55.339Z</time></trkpt><trkpt lat="37.7933467" lon="14.8266017"><ele>681.0</ele><time>2026-03-29T10:18:56.34Z</time></trkpt><trkpt lat="37.79337" lon="14.8266883"><ele>682.0</ele><time>2026-03-29T10:18:57.34Z</time></trkpt><trkpt lat="37.7934033" lon="14.8267733"><ele>683.0</ele><time>2026-03-29T10:18:58.339Z</time></trkpt><trkpt lat="37.793425" lon="14.82685"><ele>684.0</ele><time>2026-03-29T10:18:59.339Z</time></trkpt><trkpt lat="37.7934467" lon="14.826925"><ele>685.0</ele><time>2026-03-29T10:19:00.34Z</time></trkpt><trkpt lat="37.7934817" lon="14.827075"><ele>685.8</ele><time>2026-03-29T10:19:02.34Z</time></trkpt><trkpt lat="37.7935217" lon="14.827215"><ele>686.6</ele><time>2026-03-29T10:19:04.34Z</time></trkpt><trkpt lat="37.793555" lon="14.8273533"><ele>687.4000000000001</ele><time>2026-03-29T10:19:06.339Z</time></trkpt><trkpt lat="37.7935983" lon="14.8274867"><ele>688.2</ele><time>2026-03-29T10:19:08.339Z</time></trkpt><trkpt lat="37.7936233" lon="14.8275817"><ele>689.0</ele><time>2026-03-29T10:19:10.339Z</time></trkpt><trkpt lat="37.7936867" lon="14.8276633"><ele>689.0</ele><time>2026-03-29T10:19:14.339Z</time></trkpt><trkpt lat="37.7937767" lon="14.8275933"><ele>689.0</ele><time>2026-03-29T10:19:16.339Z</time></trkpt><trkpt lat="37.7938267" lon="14.8275117"><ele>689.0</ele><time>2026-03-29T10:19:17.34Z</time></trkpt><trkpt lat="37.7938817" lon="14.8274217"><ele>689.0</ele><time>2026-03-29T10:19:18.339Z</time></trkpt><trkpt lat="37.7939433" lon="14.8273367"><ele>689.0</ele><time>2026-03-29T10:19:19.339Z</time></trkpt><trkpt lat="37.794015" lon="14.82725"><ele>689.0</ele><time>2026-03-29T10:19:20.339Z</time></trkpt><trkpt lat="37.7940917" lon="14.827155"><ele>689.0</ele><time>2026-03-29T10:19:21.34Z</time></trkpt><trkpt lat="37.7941667" lon="14.8270517"><ele>689.0</ele><time>2026-03-29T10:19:22.34Z</time></trkpt><trkpt lat="37.7942417" lon="14.826955"><ele>689.0</ele><time>2026-03-29T10:19:23.34Z</time></trkpt><trkpt lat="37.7943167" lon="14.826855"><ele>689.0</ele><time>2026-03-29T10:19:24.34Z</time></trkpt><trkpt lat="37.7943917" lon="14.8267733"><ele>687.5</ele><time>2026-03-29T10:19:25.339Z</time></trkpt><trkpt lat="37.7944667" lon="14.8266717"><ele>686.0</ele><time>2026-03-29T10:19:26.339Z</time></trkpt><trkpt lat="37.79455" lon="14.8265683"><ele>684.5</ele><time>2026-03-29T10:19:27.339Z</time></trkpt><trkpt lat="37.7946317" lon="14.8264533"><ele>683.0</ele><time>2026-03-29T10:19:28.339Z</time></trkpt><trkpt lat="37.7947217" lon="14.8263367"><ele>683.0</ele><time>2026-03-29T10:19:29.34Z</time></trkpt><trkpt lat="37.7948067" lon="14.826225"><ele>683.0</ele><time>2026-03-29T10:19:30.339Z</time></trkpt><trkpt lat="37.794895" lon="14.826105"><ele>683.0</ele><time>2026-03-29T10:19:31.34Z</time></trkpt><trkpt lat="37.794985" lon="14.8259917"><ele>683.0</ele><time>2026-03-29T10:19:32.339Z</time></trkpt><trkpt lat="37.7950733" lon="14.82589"><ele>682.8</ele><time>2026-03-29T10:19:33.34Z</time></trkpt><trkpt lat="37.7951567" lon="14.8257817"><ele>682.5999999999999</ele><time>2026-03-29T10:19:34.34Z</time></trkpt><trkpt lat="37.79524" lon="14.8256833"><ele>682.4000000000001</ele><time>2026-03-29T10:19:35.339Z</time></trkpt><trkpt lat="37.7953017" lon="14.8256017"><ele>682.2</ele><time>2026-03-29T10:19:36.34Z</time></trkpt><trkpt lat="37.7953533" lon="14.8255233"><ele>682.0</ele><time>2026-03-29T10:19:37.339Z</time></trkpt><trkpt lat="37.7954033" lon="14.8254567"><ele>681.6</ele><time>2026-03-29T10:19:38.34Z</time></trkpt><trkpt lat="37.795455" lon="14.82538"><ele>681.2</ele><time>2026-03-29T10:19:39.34Z</time></trkpt><trkpt lat="37.79552" lon="14.8252983"><ele>680.8</ele><time>2026-03-29T10:19:40.339Z</time></trkpt><trkpt lat="37.7955917" lon="14.8251967"><ele>680.4</ele><time>2026-03-29T10:19:41.34Z</time></trkpt><trkpt lat="37.79567" lon="14.8250933"><ele>680.0</ele><time>2026-03-29T10:19:42.339Z</time></trkpt><trkpt lat="37.79576" lon="14.8249767"><ele>679.25</ele><time>2026-03-29T10:19:43.339Z</time></trkpt><trkpt lat="37.7958517" lon="14.8248467"><ele>678.5</ele><time>2026-03-29T10:19:44.34Z</time></trkpt><trkpt lat="37.79594" lon="14.824725"><ele>677.75</ele><time>2026-03-29T10:19:45.34Z</time></trkpt><trkpt lat="37.7960383" lon="14.8246"><ele>677.0</ele><time>2026-03-29T10:19:46.339Z</time></trkpt><trkpt lat="37.79613" lon="14.8244833"><ele>676.25</ele><time>2026-03-29T10:19:47.34Z</time></trkpt><trkpt lat="37.7962183" lon="14.82436"><ele>675.5</ele><time>2026-03-29T10:19:48.34Z</time></trkpt><trkpt lat="37.7963" lon="14.82424"><ele>674.75</ele><time>2026-03-29T10:19:49.339Z</time></trkpt><trkpt lat="37.79638" lon="14.8241333"><ele>674.0</ele><time>2026-03-29T10:19:50.339Z</time></trkpt><trkpt lat="37.796465" lon="14.8240167"><ele>673.5</ele><time>2026-03-29T10:19:51.34Z</time></trkpt><trkpt lat="37.7965467" lon="14.8239083"><ele>673.0</ele><time>2026-03-29T10:19:52.339Z</time></trkpt><trkpt lat="37.796625" lon="14.8237867"><ele>672.5</ele><time>2026-03-29T10:19:53.339Z</time></trkpt><trkpt lat="37.7966833" lon="14.82366"><ele>672.0</ele><time>2026-03-29T10:19:54.34Z</time></trkpt><trkpt lat="37.79674" lon="14.8235367"><ele>671.75</ele><time>2026-03-29T10:19:55.339Z</time></trkpt><trkpt lat="37.7968033" lon="14.8234"><ele>671.5</ele><time>2026-03-29T10:19:56.339Z</time></trkpt><trkpt lat="37.796865" lon="14.82326"><ele>671.25</ele><time>2026-03-29T10:19:57.339Z</time></trkpt><trkpt lat="37.79691" lon="14.82312"><ele>671.0</ele><time>2026-03-29T10:19:58.339Z</time></trkpt><trkpt lat="37.796965" lon="14.8229917"><ele>670.25</ele><time>2026-03-29T10:19:59.339Z</time></trkpt><trkpt lat="37.797025" lon="14.822865"><ele>669.5</ele><time>2026-03-29T10:20:00.34Z</time></trkpt><trkpt lat="37.7971" lon="14.822735"><ele>668.75</ele><time>2026-03-29T10:20:01.339Z</time></trkpt><trkpt lat="37.7971883" lon="14.822605"><ele>668.0</ele><time>2026-03-29T10:20:02.34Z</time></trkpt><trkpt lat="37.797285" lon="14.8224683"><ele>667.75</ele><time>2026-03-29T10:20:03.339Z</time></trkpt><trkpt lat="37.79738" lon="14.8223317"><ele>667.5</ele><time>2026-03-29T10:20:04.34Z</time></trkpt><trkpt lat="37.7974633" lon="14.822175"><ele>667.25</ele><time>2026-03-29T10:20:05.34Z</time></trkpt><trkpt lat="37.79753" lon="14.8220117"><ele>667.0</ele><time>2026-03-29T10:20:06.339Z</time></trkpt><trkpt lat="37.797605" lon="14.8218267"><ele>665.0</ele><time>2026-03-29T10:20:07.34Z</time></trkpt><trkpt lat="37.7976733" lon="14.8216367"><ele>663.0</ele><time>2026-03-29T10:20:08.34Z</time></trkpt><trkpt lat="37.7977417" lon="14.8214483"><ele>661.0</ele><time>2026-03-29T10:20:09.34Z</time></trkpt><trkpt lat="37.7978067" lon="14.82126"><ele>661.0</ele><time>2026-03-29T10:20:10.339Z</time></trkpt><trkpt lat="37.79787" lon="14.8210767"><ele>661.0</ele><time>2026-03-29T10:20:11.339Z</time></trkpt><trkpt lat="37.7979317" lon="14.8208917"><ele>661.0</ele><time>2026-03-29T10:20:12.34Z</time></trkpt><trkpt lat="37.7980033" lon="14.8207233"><ele>660.0</ele><time>2026-03-29T10:20:13.339Z</time></trkpt><trkpt lat="37.7980867" lon="14.8205733"><ele>659.0</ele><time>2026-03-29T10:20:14.34Z</time></trkpt><trkpt lat="37.7981883" lon="14.8204283"><ele>658.0</ele><time>2026-03-29T10:20:15.338Z</time></trkpt><trkpt lat="37.7982967" lon="14.8202917"><ele>658.0</ele><time>2026-03-29T10:20:16.338Z</time></trkpt><trkpt lat="37.7984133" lon="14.8201667"><ele>658.0</ele><time>2026-03-29T10:20:17.338Z</time></trkpt><trkpt lat="37.798535" lon="14.8200433"><ele>658.0</ele><time>2026-03-29T10:20:18.338Z</time></trkpt><trkpt lat="37.7986533" lon="14.819915"><ele>656.6666666666667</ele><time>2026-03-29T10:20:19.339Z</time></trkpt><trkpt lat="37.79876" lon="14.8197783"><ele>655.3333333333334</ele><time>2026-03-29T10:20:20.339Z</time></trkpt><trkpt lat="37.79884" lon="14.8196217"><ele>654.0</ele><time>2026-03-29T10:20:21.339Z</time></trkpt><trkpt lat="37.7989" lon="14.819435"><ele>651.6666666666666</ele><time>2026-03-29T10:20:22.339Z</time></trkpt><trkpt lat="37.79894" lon="14.8192467"><ele>649.3333333333333</ele><time>2026-03-29T10:20:23.339Z</time></trkpt><trkpt lat="37.7989517" lon="14.8190633"><ele>647.0</ele><time>2026-03-29T10:20:24.339Z</time></trkpt><trkpt lat="37.7989617" lon="14.8188733"><ele>647.0</ele><time>2026-03-29T10:20:25.339Z</time></trkpt><trkpt lat="37.7989733" lon="14.81867"><ele>647.0</ele><time>2026-03-29T10:20:26.339Z</time></trkpt><trkpt lat="37.7989833" lon="14.818485"><ele>647.0</ele><time>2026-03-29T10:20:27.338Z</time></trkpt><trkpt lat="37.798995" lon="14.8183"><ele>646.0</ele><time>2026-03-29T10:20:28.338Z</time></trkpt><trkpt lat="37.7990033" lon="14.8181217"><ele>645.0</ele><time>2026-03-29T10:20:29.338Z</time></trkpt><trkpt lat="37.79901" lon="14.8179433"><ele>644.0</ele><time>2026-03-29T10:20:30.338Z</time></trkpt><trkpt lat="37.7989933" lon="14.8177767"><ele>643.0</ele><time>2026-03-29T10:20:31.338Z</time></trkpt><trkpt lat="37.7989517" lon="14.8176033"><ele>641.25</ele><time>2026-03-29T10:20:32.339Z</time></trkpt><trkpt lat="37.7988967" lon="14.8174383"><ele>639.5</ele><time>2026-03-29T10:20:33.338Z</time></trkpt><trkpt lat="37.798845" lon="14.8172833"><ele>637.75</ele><time>2026-03-29T10:20:34.338Z</time></trkpt><trkpt lat="37.7987917" lon="14.817135"><ele>636.0</ele><time>2026-03-29T10:20:35.339Z</time></trkpt><trkpt lat="37.798735" lon="14.817"><ele>636.0</ele><time>2026-03-29T10:20:36.339Z</time></trkpt><trkpt lat="37.7986683" lon="14.81688"><ele>636.0</ele><time>2026-03-29T10:20:37.338Z</time></trkpt><trkpt lat="37.7985883" lon="14.81679"><ele>636.0</ele><time>2026-03-29T10:20:38.338Z</time></trkpt><trkpt lat="37.7985" lon="14.8167367"><ele>636.0</ele><time>2026-03-29T10:20:39.339Z</time></trkpt><trkpt lat="37.798405" lon="14.8166883"><ele>636.0</ele><time>2026-03-29T10:20:40.339Z</time></trkpt><trkpt lat="37.798305" lon="14.81664"><ele>635.6666666666666</ele><time>2026-03-29T10:20:41.339Z</time></trkpt><trkpt lat="37.7982217" lon="14.816585"><ele>635.3333333333334</ele><time>2026-03-29T10:20:42.339Z</time></trkpt><trkpt lat="37.7981567" lon="14.8165317"><ele>635.0</ele><time>2026-03-29T10:20:43.339Z</time></trkpt><trkpt lat="37.7981183" lon="14.8164667"><ele>634.6666666666667</ele><time>2026-03-29T10:20:44.339Z</time></trkpt><trkpt lat="37.798105" lon="14.8163883"><ele>634.3333333333334</ele><time>2026-03-29T10:20:45.339Z</time></trkpt><trkpt lat="37.7981483" lon="14.81625"><ele>634.0</ele><time>2026-03-29T10:20:47.338Z</time></trkpt><trkpt lat="37.7982117" lon="14.8161883"><ele>634.0</ele><time>2026-03-29T10:20:48.339Z</time></trkpt><trkpt lat="37.7982967" lon="14.81614"><ele>634.0</ele><time>2026-03-29T10:20:49.338Z</time></trkpt><trkpt lat="37.7984017" lon="14.8161"><ele>634.0</ele><time>2026-03-29T10:20:50.339Z</time></trkpt><trkpt lat="37.7985183" lon="14.81607"><ele>634.0</ele><time>2026-03-29T10:20:51.339Z</time></trkpt><trkpt lat="37.7986417" lon="14.8160517"><ele>634.0</ele><time>2026-03-29T10:20:52.338Z</time></trkpt><trkpt lat="37.7987517" lon="14.8160383"><ele>633.2</ele><time>2026-03-29T10:20:53.338Z</time></trkpt><trkpt lat="37.7988617" lon="14.8160067"><ele>632.4</ele><time>2026-03-29T10:20:54.338Z</time></trkpt><trkpt lat="37.7989717" lon="14.8159683"><ele>631.6</ele><time>2026-03-29T10:20:55.338Z</time></trkpt><trkpt lat="37.7990733" lon="14.8159267"><ele>630.8</ele><time>2026-03-29T10:20:56.339Z</time></trkpt><trkpt lat="37.799155" lon="14.8158817"><ele>630.0</ele><time>2026-03-29T10:20:57.338Z</time></trkpt><trkpt lat="37.7992167" lon="14.8158333"><ele>630.8</ele><time>2026-03-29T10:20:58.338Z</time></trkpt><trkpt lat="37.7992767" lon="14.8157617"><ele>631.6</ele><time>2026-03-29T10:20:59.338Z</time></trkpt><trkpt lat="37.7993133" lon="14.8156683"><ele>632.4</ele><time>2026-03-29T10:21:00.339Z</time></trkpt><trkpt lat="37.799345" lon="14.8155567"><ele>633.2</ele><time>2026-03-29T10:21:01.339Z</time></trkpt><trkpt lat="37.7993783" lon="14.8154233"><ele>634.0</ele><time>2026-03-29T10:21:02.339Z</time></trkpt><trkpt lat="37.7994133" lon="14.8152833"><ele>632.75</ele><time>2026-03-29T10:21:03.338Z</time></trkpt><trkpt lat="37.799455" lon="14.8151367"><ele>631.5</ele><time>2026-03-29T10:21:04.338Z</time></trkpt><trkpt lat="37.799495" lon="14.8149817"><ele>630.25</ele><time>2026-03-29T10:21:05.338Z</time></trkpt><trkpt lat="37.799535" lon="14.814825"><ele>629.0</ele><time>2026-03-29T10:21:06.339Z</time></trkpt><trkpt lat="37.7995883" lon="14.8146633"><ele>629.0</ele><time>2026-03-29T10:21:07.339Z</time></trkpt><trkpt lat="37.79964" lon="14.814495"><ele>629.0</ele><time>2026-03-29T10:21:08.338Z</time></trkpt><trkpt lat="37.7996867" lon="14.8143383"><ele>629.0</ele><time>2026-03-29T10:21:09.338Z</time></trkpt><trkpt lat="37.799735" lon="14.8141733"><ele>629.0</ele><time>2026-03-29T10:21:10.338Z</time></trkpt><trkpt lat="37.7998167" lon="14.8140333"><ele>628.5</ele><time>2026-03-29T10:21:11.338Z</time></trkpt><trkpt lat="37.7999033" lon="14.81389"><ele>628.0</ele><time>2026-03-29T10:21:12.338Z</time></trkpt><trkpt lat="37.7999933" lon="14.8137533"><ele>627.5</ele><time>2026-03-29T10:21:13.338Z</time></trkpt><trkpt lat="37.8000883" lon="14.8136217"><ele>627.0</ele><time>2026-03-29T10:21:14.339Z</time></trkpt><trkpt lat="37.8001917" lon="14.81349"><ele>623.3333333333334</ele><time>2026-03-29T10:21:15.338Z</time></trkpt><trkpt lat="37.8002933" lon="14.813365"><ele>619.6666666666667</ele><time>2026-03-29T10:21:16.339Z</time></trkpt><trkpt lat="37.80041" lon="14.8132417"><ele>616.0</ele><time>2026-03-29T10:21:17.338Z</time></trkpt><trkpt lat="37.800535" lon="14.8131117"><ele>616.0</ele><time>2026-03-29T10:21:18.338Z</time></trkpt><trkpt lat="37.800665" lon="14.8130017"><ele>616.0</ele><time>2026-03-29T10:21:19.338Z</time></trkpt><trkpt lat="37.8008017" lon="14.8129183"><ele>616.0</ele><time>2026-03-29T10:21:20.339Z</time></trkpt><trkpt lat="37.800955" lon="14.81284"><ele>615.3333333333334</ele><time>2026-03-29T10:21:21.339Z</time></trkpt><trkpt lat="37.8011033" lon="14.812765"><ele>614.6666666666666</ele><time>2026-03-29T10:21:22.338Z</time></trkpt><trkpt lat="37.80124" lon="14.8126917"><ele>614.0</ele><time>2026-03-29T10:21:23.338Z</time></trkpt><trkpt lat="37.801375" lon="14.81262"><ele>614.0</ele><time>2026-03-29T10:21:24.339Z</time></trkpt><trkpt lat="37.8015117" lon="14.812545"><ele>614.0</ele><time>2026-03-29T10:21:25.338Z</time></trkpt><trkpt lat="37.8016417" lon="14.81247"><ele>614.0</ele><time>2026-03-29T10:21:26.339Z</time></trkpt><trkpt lat="37.801765" lon="14.812385"><ele>614.0</ele><time>2026-03-29T10:21:27.338Z</time></trkpt><trkpt lat="37.801885" lon="14.812295"><ele>612.75</ele><time>2026-03-29T10:21:28.339Z</time></trkpt><trkpt lat="37.8019983" lon="14.8121867"><ele>611.5</ele><time>2026-03-29T10:21:29.339Z</time></trkpt><trkpt lat="37.8021" lon="14.8120583"><ele>610.25</ele><time>2026-03-29T10:21:30.339Z</time></trkpt><trkpt lat="37.802195" lon="14.811905"><ele>609.0</ele><time>2026-03-29T10:21:31.338Z</time></trkpt><trkpt lat="37.8022783" lon="14.8117333"><ele>609.0</ele><time>2026-03-29T10:21:32.339Z</time></trkpt><trkpt lat="37.802355" lon="14.8115383"><ele>609.0</ele><time>2026-03-29T10:21:33.339Z</time></trkpt><trkpt lat="37.8024283" lon="14.8113383"><ele>609.0</ele><time>2026-03-29T10:21:34.339Z</time></trkpt><trkpt lat="37.8024983" lon="14.8111333"><ele>608.6666666666666</ele><time>2026-03-29T10:21:35.338Z</time></trkpt><trkpt lat="37.802565" lon="14.81093"><ele>608.3333333333333</ele><time>2026-03-29T10:21:36.338Z</time></trkpt><trkpt lat="37.8026283" lon="14.810715"><ele>608.0</ele><time>2026-03-29T10:21:37.339Z</time></trkpt><trkpt lat="37.8027" lon="14.8104917"><ele>608.0</ele><time>2026-03-29T10:21:38.339Z</time></trkpt><trkpt lat="37.8027667" lon="14.81027"><ele>608.0</ele><time>2026-03-29T10:21:39.338Z</time></trkpt><trkpt lat="37.80284" lon="14.81004"><ele>608.0</ele><time>2026-03-29T10:21:40.338Z</time></trkpt><trkpt lat="37.80292" lon="14.8098033"><ele>604.0</ele><time>2026-03-29T10:21:41.338Z</time></trkpt><trkpt lat="37.8030033" lon="14.8095767"><ele>600.0</ele><time>2026-03-29T10:21:42.339Z</time></trkpt><trkpt lat="37.8030867" lon="14.8093433"><ele>596.0</ele><time>2026-03-29T10:21:43.339Z</time></trkpt><trkpt lat="37.8031583" lon="14.809115"><ele>594.3333333333333</ele><time>2026-03-29T10:21:44.339Z</time></trkpt><trkpt lat="37.8032283" lon="14.8088917"><ele>592.6666666666666</ele><time>2026-03-29T10:21:45.339Z</time></trkpt><trkpt lat="37.803295" lon="14.8086733"><ele>591.0</ele><time>2026-03-29T10:21:46.339Z</time></trkpt><trkpt lat="37.8033683" lon="14.80846"><ele>590.0</ele><time>2026-03-29T10:21:47.339Z</time></trkpt><trkpt lat="37.8034433" lon="14.808255"><ele>589.0</ele><time>2026-03-29T10:21:48.339Z</time></trkpt><trkpt lat="37.803535" lon="14.8080383"><ele>588.0</ele><time>2026-03-29T10:21:49.338Z</time></trkpt><trkpt lat="37.8036333" lon="14.807825"><ele>587.3333333333334</ele><time>2026-03-29T10:21:50.338Z</time></trkpt><trkpt lat="37.8037383" lon="14.807625"><ele>586.6666666666667</ele><time>2026-03-29T10:21:51.338Z</time></trkpt><trkpt lat="37.8038417" lon="14.8074367"><ele>586.0</ele><time>2026-03-29T10:21:52.339Z</time></trkpt><trkpt lat="37.8039417" lon="14.8072583"><ele>586.0</ele><time>2026-03-29T10:21:53.338Z</time></trkpt><trkpt lat="37.8040333" lon="14.807085"><ele>586.0</ele><time>2026-03-29T10:21:54.338Z</time></trkpt><trkpt lat="37.804125" lon="14.8069283"><ele>586.0</ele><time>2026-03-29T10:21:55.338Z</time></trkpt><trkpt lat="37.8042083" lon="14.8067783"><ele>586.0</ele><time>2026-03-29T10:21:56.338Z</time></trkpt><trkpt lat="37.8042933" lon="14.8066317"><ele>586.0</ele><time>2026-03-29T10:21:57.338Z</time></trkpt><trkpt lat="37.8043783" lon="14.80649"><ele>586.0</ele><time>2026-03-29T10:21:58.339Z</time></trkpt><trkpt lat="37.80446" lon="14.806355"><ele>586.0</ele><time>2026-03-29T10:21:59.339Z</time></trkpt><trkpt lat="37.8045383" lon="14.80623"><ele>586.0</ele><time>2026-03-29T10:22:00.339Z</time></trkpt><trkpt lat="37.8046083" lon="14.8061133"><ele>586.0</ele><time>2026-03-29T10:22:01.339Z</time></trkpt><trkpt lat="37.80467" lon="14.8060133"><ele>586.0</ele><time>2026-03-29T10:22:02.338Z</time></trkpt><trkpt lat="37.8047167" lon="14.8059"><ele>586.0</ele><time>2026-03-29T10:22:03.338Z</time></trkpt><trkpt lat="37.8047383" lon="14.8057667"><ele>586.0</ele><time>2026-03-29T10:22:04.338Z</time></trkpt><trkpt lat="37.8047433" lon="14.8056"><ele>584.0</ele><time>2026-03-29T10:22:05.338Z</time></trkpt><trkpt lat="37.8047383" lon="14.8054117"><ele>582.0</ele><time>2026-03-29T10:22:06.338Z</time></trkpt><trkpt lat="37.8047367" lon="14.8052133"><ele>580.0</ele><time>2026-03-29T10:22:07.339Z</time></trkpt><trkpt lat="37.8047367" lon="14.805"><ele>580.0</ele><time>2026-03-29T10:22:08.339Z</time></trkpt><trkpt lat="37.8047317" lon="14.8047617"><ele>580.0</ele><time>2026-03-29T10:22:09.338Z</time></trkpt><trkpt lat="37.8047283" lon="14.8045217"><ele>580.0</ele><time>2026-03-29T10:22:10.339Z</time></trkpt><trkpt lat="37.804735" lon="14.8042933"><ele>579.6666666666667</ele><time>2026-03-29T10:22:11.339Z</time></trkpt><trkpt lat="37.8047383" lon="14.804075"><ele>579.3333333333334</ele><time>2026-03-29T10:22:12.338Z</time></trkpt><trkpt lat="37.80474" lon="14.8038683"><ele>579.0</ele><time>2026-03-29T10:22:13.338Z</time></trkpt><trkpt lat="37.8047417" lon="14.8036767"><ele>578.75</ele><time>2026-03-29T10:22:14.338Z</time></trkpt><trkpt lat="37.80475" lon="14.80349"><ele>578.5</ele><time>2026-03-29T10:22:15.338Z</time></trkpt><trkpt lat="37.8047667" lon="14.80332"><ele>578.25</ele><time>2026-03-29T10:22:16.338Z</time></trkpt><trkpt lat="37.8048" lon="14.8031483"><ele>578.0</ele><time>2026-03-29T10:22:17.339Z</time></trkpt><trkpt lat="37.8048483" lon="14.80297"><ele>578.0</ele><time>2026-03-29T10:22:18.338Z</time></trkpt><trkpt lat="37.8049067" lon="14.8027883"><ele>578.0</ele><time>2026-03-29T10:22:19.339Z</time></trkpt><trkpt lat="37.8049717" lon="14.80261"><ele>578.0</ele><time>2026-03-29T10:22:20.338Z</time></trkpt><trkpt lat="37.8050483" lon="14.802435"><ele>576.3333333333333</ele><time>2026-03-29T10:22:21.338Z</time></trkpt><trkpt lat="37.80515" lon="14.802275"><ele>574.6666666666666</ele><time>2026-03-29T10:22:22.339Z</time></trkpt><trkpt lat="37.8052567" lon="14.802125"><ele>573.0</ele><time>2026-03-29T10:22:23.339Z</time></trkpt><trkpt lat="37.80537" lon="14.8019833"><ele>572.75</ele><time>2026-03-29T10:22:24.338Z</time></trkpt><trkpt lat="37.8054733" lon="14.8018433"><ele>572.5</ele><time>2026-03-29T10:22:25.338Z</time></trkpt><trkpt lat="37.8055517" lon="14.8017083"><ele>572.25</ele><time>2026-03-29T10:22:26.339Z</time></trkpt><trkpt lat="37.8055867" lon="14.8015733"><ele>572.0</ele><time>2026-03-29T10:22:27.339Z</time></trkpt><trkpt lat="37.805575" lon="14.8014167"><ele>570.75</ele><time>2026-03-29T10:22:28.339Z</time></trkpt><trkpt lat="37.80552" lon="14.8012633"><ele>569.5</ele><time>2026-03-29T10:22:29.339Z</time></trkpt><trkpt lat="37.8054583" lon="14.80111"><ele>568.25</ele><time>2026-03-29T10:22:30.338Z</time></trkpt><trkpt lat="37.8054017" lon="14.8009683"><ele>567.0</ele><time>2026-03-29T10:22:31.339Z</time></trkpt><trkpt lat="37.8053567" lon="14.8008383"><ele>567.0</ele><time>2026-03-29T10:22:32.339Z</time></trkpt><trkpt lat="37.8053183" lon="14.8007083"><ele>567.0</ele><time>2026-03-29T10:22:33.339Z</time></trkpt><trkpt lat="37.8052933" lon="14.800575"><ele>567.0</ele><time>2026-03-29T10:22:34.339Z</time></trkpt><trkpt lat="37.8053" lon="14.8004417"><ele>567.0</ele><time>2026-03-29T10:22:35.338Z</time></trkpt><trkpt lat="37.8053217" lon="14.8003033"><ele>567.0</ele><time>2026-03-29T10:22:36.338Z</time></trkpt><trkpt lat="37.8053667" lon="14.80017"><ele>567.75</ele><time>2026-03-29T10:22:37.339Z</time></trkpt><trkpt lat="37.8054433" lon="14.800045"><ele>568.5</ele><time>2026-03-29T10:22:38.339Z</time></trkpt><trkpt lat="37.80554" lon="14.79993"><ele>569.25</ele><time>2026-03-29T10:22:39.338Z</time></trkpt><trkpt lat="37.80565" lon="14.7998117"><ele>570.0</ele><time>2026-03-29T10:22:40.339Z</time></trkpt><trkpt lat="37.8057667" lon="14.7997017"><ele>570.0</ele><time>2026-03-29T10:22:41.338Z</time></trkpt><trkpt lat="37.8058933" lon="14.79959"><ele>570.0</ele><time>2026-03-29T10:22:42.338Z</time></trkpt><trkpt lat="37.80603" lon="14.7994733"><ele>570.0</ele><time>2026-03-29T10:22:43.338Z</time></trkpt><trkpt lat="37.8061783" lon="14.7993483"><ele>570.0</ele><time>2026-03-29T10:22:44.339Z</time></trkpt><trkpt lat="37.806325" lon="14.799215"><ele>570.0</ele><time>2026-03-29T10:22:45.338Z</time></trkpt><trkpt lat="37.80647" lon="14.799075"><ele>570.0</ele><time>2026-03-29T10:22:46.339Z</time></trkpt><trkpt lat="37.8066183" lon="14.79894"><ele>570.0</ele><time>2026-03-29T10:22:47.339Z</time></trkpt><trkpt lat="37.8067683" lon="14.7988067"><ele>570.0</ele><time>2026-03-29T10:22:48.338Z</time></trkpt><trkpt lat="37.806915" lon="14.7986717"><ele>570.0</ele><time>2026-03-29T10:22:49.339Z</time></trkpt><trkpt lat="37.8070617" lon="14.7985317"><ele>570.6666666666666</ele><time>2026-03-29T10:22:50.339Z</time></trkpt><trkpt lat="37.8072117" lon="14.7983967"><ele>571.3333333333333</ele><time>2026-03-29T10:22:51.338Z</time></trkpt><trkpt lat="37.80736" lon="14.7982667"><ele>572.0</ele><time>2026-03-29T10:22:52.339Z</time></trkpt><trkpt lat="37.8075017" lon="14.798135"><ele>572.0</ele><time>2026-03-29T10:22:53.339Z</time></trkpt><trkpt lat="37.8076483" lon="14.7980033"><ele>572.0</ele><time>2026-03-29T10:22:54.338Z</time></trkpt><trkpt lat="37.807795" lon="14.7978733"><ele>572.0</ele><time>2026-03-29T10:22:55.339Z</time></trkpt><trkpt lat="37.8079367" lon="14.797745"><ele>574.0</ele><time>2026-03-29T10:22:56.338Z</time></trkpt><trkpt lat="37.8080767" lon="14.797635"><ele>576.0</ele><time>2026-03-29T10:22:57.339Z</time></trkpt><trkpt lat="37.8082233" lon="14.7975467"><ele>578.0</ele><time>2026-03-29T10:22:58.339Z</time></trkpt><trkpt lat="37.8083667" lon="14.7974983"><ele>582.0</ele><time>2026-03-29T10:22:59.339Z</time></trkpt><trkpt lat="37.8085233" lon="14.7974883"><ele>586.0</ele><time>2026-03-29T10:23:00.339Z</time></trkpt><trkpt lat="37.8086833" lon="14.7975033"><ele>590.0</ele><time>2026-03-29T10:23:01.339Z</time></trkpt><trkpt lat="37.8088383" lon="14.79755"><ele>590.0</ele><time>2026-03-29T10:23:02.338Z</time></trkpt><trkpt lat="37.8089767" lon="14.7976283"><ele>590.0</ele><time>2026-03-29T10:23:03.338Z</time></trkpt><trkpt lat="37.8091117" lon="14.7977567"><ele>590.0</ele><time>2026-03-29T10:23:04.338Z</time></trkpt><trkpt lat="37.8092383" lon="14.7979033"><ele>594.0</ele><time>2026-03-29T10:23:05.338Z</time></trkpt><trkpt lat="37.8093467" lon="14.79806"><ele>598.0</ele><time>2026-03-29T10:23:06.338Z</time></trkpt><trkpt lat="37.809455" lon="14.7982167"><ele>602.0</ele><time>2026-03-29T10:23:07.338Z</time></trkpt><trkpt lat="37.80957" lon="14.79838"><ele>595.6666666666666</ele><time>2026-03-29T10:23:08.338Z</time></trkpt><trkpt lat="37.809695" lon="14.7985317"><ele>589.3333333333334</ele><time>2026-03-29T10:23:09.338Z</time></trkpt><trkpt lat="37.8098267" lon="14.798645"><ele>583.0</ele><time>2026-03-29T10:23:10.339Z</time></trkpt><trkpt lat="37.809965" lon="14.7987433"><ele>583.0</ele><time>2026-03-29T10:23:11.338Z</time></trkpt><trkpt lat="37.8100967" lon="14.798865"><ele>583.0</ele><time>2026-03-29T10:23:12.338Z</time></trkpt><trkpt lat="37.8102117" lon="14.7990067"><ele>583.0</ele><time>2026-03-29T10:23:13.338Z</time></trkpt><trkpt lat="37.8103083" lon="14.7991567"><ele>581.5</ele><time>2026-03-29T10:23:14.338Z</time></trkpt><trkpt lat="37.8103833" lon="14.79931"><ele>580.0</ele><time>2026-03-29T10:23:15.339Z</time></trkpt><trkpt lat="37.8104433" lon="14.7994467"><ele>578.5</ele><time>2026-03-29T10:23:16.338Z</time></trkpt><trkpt lat="37.8105233" lon="14.7995283"><ele>577.0</ele><time>2026-03-29T10:23:17.338Z</time></trkpt><trkpt lat="37.8106333" lon="14.7995533"><ele>577.0</ele><time>2026-03-29T10:23:18.338Z</time></trkpt><trkpt lat="37.810745" lon="14.7995183"><ele>577.0</ele><time>2026-03-29T10:23:19.339Z</time></trkpt><trkpt lat="37.8108683" lon="14.799435"><ele>577.0</ele><time>2026-03-29T10:23:20.339Z</time></trkpt><trkpt lat="37.8110083" lon="14.7993333"><ele>577.0</ele><time>2026-03-29T10:23:21.338Z</time></trkpt><trkpt lat="37.8111433" lon="14.79924"><ele>581.0</ele><time>2026-03-29T10:23:22.338Z</time></trkpt><trkpt lat="37.8112717" lon="14.7991683"><ele>585.0</ele><time>2026-03-29T10:23:23.339Z</time></trkpt><trkpt lat="37.8114033" lon="14.7991183"><ele>589.0</ele><time>2026-03-29T10:23:24.339Z</time></trkpt><trkpt lat="37.8115333" lon="14.7991033"><ele>593.0</ele><time>2026-03-29T10:23:25.339Z</time></trkpt><trkpt lat="37.8116667" lon="14.7991133"><ele>593.0</ele><time>2026-03-29T10:23:26.338Z</time></trkpt><trkpt lat="37.8118067" lon="14.7991183"><ele>593.0</ele><time>2026-03-29T10:23:27.339Z</time></trkpt><trkpt lat="37.811935" lon="14.7990967"><ele>593.0</ele><time>2026-03-29T10:23:28.339Z</time></trkpt><trkpt lat="37.8120467" lon="14.7990067"><ele>593.0</ele><time>2026-03-29T10:23:29.339Z</time></trkpt><trkpt lat="37.8121633" lon="14.7989033"><ele>593.0</ele><time>2026-03-29T10:23:30.338Z</time></trkpt><trkpt lat="37.8122717" lon="14.7988033"><ele>593.0</ele><time>2026-03-29T10:23:31.338Z</time></trkpt><trkpt lat="37.8123733" lon="14.7987167"><ele>593.0</ele><time>2026-03-29T10:23:32.338Z</time></trkpt><trkpt lat="37.8124833" lon="14.7986717"><ele>593.0</ele><time>2026-03-29T10:23:33.339Z</time></trkpt><trkpt lat="37.812605" lon="14.7986667"><ele>595.5</ele><time>2026-03-29T10:23:34.338Z</time></trkpt><trkpt lat="37.8127333" lon="14.7987217"><ele>598.0</ele><time>2026-03-29T10:23:35.339Z</time></trkpt><trkpt lat="37.8128633" lon="14.798805"><ele>600.5</ele><time>2026-03-29T10:23:36.338Z</time></trkpt><trkpt lat="37.8129883" lon="14.798905"><ele>603.0</ele><time>2026-03-29T10:23:37.338Z</time></trkpt><trkpt lat="37.813125" lon="14.798995"><ele>603.0</ele><time>2026-03-29T10:23:38.338Z</time></trkpt><trkpt lat="37.8132717" lon="14.7990667"><ele>603.0</ele><time>2026-03-29T10:23:39.338Z</time></trkpt><trkpt lat="37.8134117" lon="14.7991283"><ele>603.0</ele><time>2026-03-29T10:23:40.339Z</time></trkpt><trkpt lat="37.8135517" lon="14.79918"><ele>604.0</ele><time>2026-03-29T10:23:41.338Z</time></trkpt><trkpt lat="37.8136717" lon="14.7992217"><ele>605.0</ele><time>2026-03-29T10:23:42.339Z</time></trkpt><trkpt lat="37.81379" lon="14.7992283"><ele>606.0</ele><time>2026-03-29T10:23:43.339Z</time></trkpt><trkpt lat="37.8138983" lon="14.799195"><ele>607.0</ele><time>2026-03-29T10:23:44.339Z</time></trkpt><trkpt lat="37.813995" lon="14.7991117"><ele>607.0</ele><time>2026-03-29T10:23:45.338Z</time></trkpt><trkpt lat="37.81408" lon="14.7989967"><ele>607.0</ele><time>2026-03-29T10:23:46.338Z</time></trkpt><trkpt lat="37.81416" lon="14.7988717"><ele>607.0</ele><time>2026-03-29T10:23:47.339Z</time></trkpt><trkpt lat="37.8142583" lon="14.7987417"><ele>607.0</ele><time>2026-03-29T10:23:48.339Z</time></trkpt><trkpt lat="37.8143767" lon="14.7986283"><ele>606.75</ele><time>2026-03-29T10:23:49.339Z</time></trkpt><trkpt lat="37.8144917" lon="14.7985333"><ele>606.5</ele><time>2026-03-29T10:23:50.339Z</time></trkpt><trkpt lat="37.8146233" lon="14.79846"><ele>606.25</ele><time>2026-03-29T10:23:51.339Z</time></trkpt><trkpt lat="37.8147617" lon="14.798405"><ele>606.0</ele><time>2026-03-29T10:23:52.338Z</time></trkpt><trkpt lat="37.8149167" lon="14.7983767"><ele>608.3333333333334</ele><time>2026-03-29T10:23:53.339Z</time></trkpt><trkpt lat="37.8150867" lon="14.79835"><ele>610.6666666666667</ele><time>2026-03-29T10:23:54.338Z</time></trkpt><trkpt lat="37.8152633" lon="14.79834"><ele>613.0</ele><time>2026-03-29T10:23:55.339Z</time></trkpt><trkpt lat="37.81544" lon="14.79832"><ele>613.6666666666667</ele><time>2026-03-29T10:23:56.339Z</time></trkpt><trkpt lat="37.8156017" lon="14.79829"><ele>614.3333333333334</ele><time>2026-03-29T10:23:57.339Z</time></trkpt><trkpt lat="37.8157633" lon="14.798265"><ele>615.0</ele><time>2026-03-29T10:23:58.339Z</time></trkpt><trkpt lat="37.81591" lon="14.7982433"><ele>616.3333333333334</ele><time>2026-03-29T10:23:59.338Z</time></trkpt><trkpt lat="37.8160533" lon="14.7982067"><ele>617.6666666666667</ele><time>2026-03-29T10:24:00.338Z</time></trkpt><trkpt lat="37.8162083" lon="14.79815"><ele>619.0</ele><time>2026-03-29T10:24:01.339Z</time></trkpt><trkpt lat="37.81636" lon="14.7980717"><ele>619.0</ele><time>2026-03-29T10:24:02.339Z</time></trkpt><trkpt lat="37.8165" lon="14.7979817"><ele>619.0</ele><time>2026-03-29T10:24:03.338Z</time></trkpt><trkpt lat="37.8166283" lon="14.7978817"><ele>619.0</ele><time>2026-03-29T10:24:04.339Z</time></trkpt><trkpt lat="37.8167433" lon="14.7977967"><ele>619.0</ele><time>2026-03-29T10:24:05.339Z</time></trkpt><trkpt lat="37.8168617" lon="14.7977283"><ele>622.75</ele><time>2026-03-29T10:24:06.339Z</time></trkpt><trkpt lat="37.81698" lon="14.7976683"><ele>626.5</ele><time>2026-03-29T10:24:07.339Z</time></trkpt><trkpt lat="37.8171017" lon="14.7976267"><ele>630.25</ele><time>2026-03-29T10:24:08.339Z</time></trkpt><trkpt lat="37.8172317" lon="14.7975917"><ele>634.0</ele><time>2026-03-29T10:24:09.339Z</time></trkpt><trkpt lat="37.8173583" lon="14.7975817"><ele>634.0</ele><time>2026-03-29T10:24:10.339Z</time></trkpt><trkpt lat="37.8174917" lon="14.7976217"><ele>634.0</ele><time>2026-03-29T10:24:11.339Z</time></trkpt><trkpt lat="37.8176133" lon="14.797695"><ele>634.0</ele><time>2026-03-29T10:24:12.339Z</time></trkpt><trkpt lat="37.81774" lon="14.7977567"><ele>634.0</ele><time>2026-03-29T10:24:13.338Z</time></trkpt><trkpt lat="37.817875" lon="14.79781"><ele>635.0</ele><time>2026-03-29T10:24:14.339Z</time></trkpt><trkpt lat="37.818005" lon="14.7978217"><ele>636.0</ele><time>2026-03-29T10:24:15.338Z</time></trkpt><trkpt lat="37.8181267" lon="14.797795"><ele>637.0</ele><time>2026-03-29T10:24:16.339Z</time></trkpt><trkpt lat="37.8182383" lon="14.79771"><ele>638.0</ele><time>2026-03-29T10:24:17.338Z</time></trkpt><trkpt lat="37.8183367" lon="14.7975933"><ele>638.0</ele><time>2026-03-29T10:24:18.338Z</time></trkpt><trkpt lat="37.8184233" lon="14.797475"><ele>638.0</ele><time>2026-03-29T10:24:19.339Z</time></trkpt><trkpt lat="37.8185283" lon="14.797405"><ele>638.0</ele><time>2026-03-29T10:24:20.339Z</time></trkpt><trkpt lat="37.818655" lon="14.7973717"><ele>638.0</ele><time>2026-03-29T10:24:21.339Z</time></trkpt><trkpt lat="37.81879" lon="14.79735"><ele>637.5</ele><time>2026-03-29T10:24:22.338Z</time></trkpt><trkpt lat="37.8189133" lon="14.7973183"><ele>637.0</ele><time>2026-03-29T10:24:23.339Z</time></trkpt><trkpt lat="37.8190133" lon="14.7972633"><ele>636.5</ele><time>2026-03-29T10:24:24.339Z</time></trkpt><trkpt lat="37.8190833" lon="14.797155"><ele>636.0</ele><time>2026-03-29T10:24:25.338Z</time></trkpt><trkpt lat="37.8191217" lon="14.79702"><ele>636.0</ele><time>2026-03-29T10:24:26.339Z</time></trkpt><trkpt lat="37.819115" lon="14.7968733"><ele>636.0</ele><time>2026-03-29T10:24:27.338Z</time></trkpt><trkpt lat="37.8190717" lon="14.7967317"><ele>636.0</ele><time>2026-03-29T10:24:28.338Z</time></trkpt><trkpt lat="37.81904" lon="14.796565"><ele>636.0</ele><time>2026-03-29T10:24:29.338Z</time></trkpt><trkpt lat="37.8190567" lon="14.796425"><ele>639.0</ele><time>2026-03-29T10:24:30.339Z</time></trkpt><trkpt lat="37.819125" lon="14.7962817"><ele>642.0</ele><time>2026-03-29T10:24:31.339Z</time></trkpt><trkpt lat="37.81921" lon="14.796145"><ele>645.0</ele><time>2026-03-29T10:24:32.338Z</time></trkpt><trkpt lat="37.819295" lon="14.7960083"><ele>648.0</ele><time>2026-03-29T10:24:33.339Z</time></trkpt><trkpt lat="37.8193717" lon="14.79588"><ele>649.75</ele><time>2026-03-29T10:24:34.338Z</time></trkpt><trkpt lat="37.8194483" lon="14.7957583"><ele>651.5</ele><time>2026-03-29T10:24:35.338Z</time></trkpt><trkpt lat="37.8195467" lon="14.795665"><ele>653.25</ele><time>2026-03-29T10:24:36.338Z</time></trkpt><trkpt lat="37.819665" lon="14.7955967"><ele>655.0</ele><time>2026-03-29T10:24:37.339Z</time></trkpt><trkpt lat="37.8198" lon="14.7955633"><ele>655.0</ele><time>2026-03-29T10:24:38.339Z</time></trkpt><trkpt lat="37.819935" lon="14.795585"><ele>655.0</ele><time>2026-03-29T10:24:39.338Z</time></trkpt><trkpt lat="37.8200667" lon="14.7956333"><ele>655.0</ele><time>2026-03-29T10:24:40.339Z</time></trkpt><trkpt lat="37.8201933" lon="14.7956783"><ele>655.0</ele><time>2026-03-29T10:24:41.338Z</time></trkpt><trkpt lat="37.820325" lon="14.7956867"><ele>654.75</ele><time>2026-03-29T10:24:42.338Z</time></trkpt><trkpt lat="37.8204533" lon="14.79569"><ele>654.5</ele><time>2026-03-29T10:24:43.338Z</time></trkpt><trkpt lat="37.8205767" lon="14.795675"><ele>654.25</ele><time>2026-03-29T10:24:44.339Z</time></trkpt><trkpt lat="37.8206883" lon="14.7956567"><ele>654.0</ele><time>2026-03-29T10:24:45.338Z</time></trkpt><trkpt lat="37.82079" lon="14.7956233"><ele>654.0</ele><time>2026-03-29T10:24:46.338Z</time></trkpt><trkpt lat="37.8208817" lon="14.7955733"><ele>654.0</ele><time>2026-03-29T10:24:47.339Z</time></trkpt><trkpt lat="37.82096" lon="14.7954767"><ele>654.0</ele><time>2026-03-29T10:24:48.338Z</time></trkpt><trkpt lat="37.8210083" lon="14.795355"><ele>654.0</ele><time>2026-03-29T10:24:49.338Z</time></trkpt><trkpt lat="37.82102" lon="14.795215"><ele>654.0</ele><time>2026-03-29T10:24:50.339Z</time></trkpt><trkpt lat="37.82102" lon="14.7950733"><ele>653.4000000000001</ele><time>2026-03-29T10:24:51.338Z</time></trkpt><trkpt lat="37.8210233" lon="14.7949383"><ele>652.8</ele><time>2026-03-29T10:24:52.338Z</time></trkpt><trkpt lat="37.82103" lon="14.7948"><ele>652.2</ele><time>2026-03-29T10:24:53.338Z</time></trkpt><trkpt lat="37.8210417" lon="14.79466"><ele>651.5999999999999</ele><time>2026-03-29T10:24:54.338Z</time></trkpt><trkpt lat="37.8210467" lon="14.794525"><ele>651.0</ele><time>2026-03-29T10:24:55.339Z</time></trkpt><trkpt lat="37.821055" lon="14.7943967"><ele>652.1999999999999</ele><time>2026-03-29T10:24:56.338Z</time></trkpt><trkpt lat="37.821065" lon="14.7942667"><ele>653.4</ele><time>2026-03-29T10:24:57.338Z</time></trkpt><trkpt lat="37.8210783" lon="14.79414"><ele>654.6</ele><time>2026-03-29T10:24:58.339Z</time></trkpt><trkpt lat="37.821085" lon="14.7940133"><ele>655.8</ele><time>2026-03-29T10:24:59.338Z</time></trkpt><trkpt lat="37.8210883" lon="14.7938867"><ele>657.0</ele><time>2026-03-29T10:25:00.338Z</time></trkpt><trkpt lat="37.8210967" lon="14.79376"><ele>657.0</ele><time>2026-03-29T10:25:01.338Z</time></trkpt><trkpt lat="37.8211083" lon="14.7936267"><ele>657.0</ele><time>2026-03-29T10:25:02.338Z</time></trkpt><trkpt lat="37.8211283" lon="14.7934883"><ele>657.0</ele><time>2026-03-29T10:25:03.338Z</time></trkpt><trkpt lat="37.8211583" lon="14.7933633"><ele>657.0</ele><time>2026-03-29T10:25:04.338Z</time></trkpt><trkpt lat="37.8212083" lon="14.7932367"><ele>657.0</ele><time>2026-03-29T10:25:05.338Z</time></trkpt><trkpt lat="37.821275" lon="14.793125"><ele>659.2</ele><time>2026-03-29T10:25:06.339Z</time></trkpt><trkpt lat="37.821355" lon="14.7930367"><ele>661.4000000000001</ele><time>2026-03-29T10:25:07.339Z</time></trkpt><trkpt lat="37.8214467" lon="14.7929517"><ele>663.5999999999999</ele><time>2026-03-29T10:25:08.338Z</time></trkpt><trkpt lat="37.821545" lon="14.792875"><ele>665.8</ele><time>2026-03-29T10:25:09.338Z</time></trkpt><trkpt lat="37.8216417" lon="14.7928017"><ele>668.0</ele><time>2026-03-29T10:25:10.338Z</time></trkpt><trkpt lat="37.821735" lon="14.7927333"><ele>667.8</ele><time>2026-03-29T10:25:11.339Z</time></trkpt><trkpt lat="37.8218317" lon="14.7926533"><ele>667.5999999999999</ele><time>2026-03-29T10:25:12.339Z</time></trkpt><trkpt lat="37.8219283" lon="14.7925683"><ele>667.4000000000001</ele><time>2026-03-29T10:25:13.339Z</time></trkpt><trkpt lat="37.8220033" lon="14.79247"><ele>667.2</ele><time>2026-03-29T10:25:14.339Z</time></trkpt><trkpt lat="37.82206" lon="14.7923717"><ele>667.0</ele><time>2026-03-29T10:25:15.339Z</time></trkpt><trkpt lat="37.8221133" lon="14.7922683"><ele>667.0</ele><time>2026-03-29T10:25:16.338Z</time></trkpt><trkpt lat="37.822155" lon="14.79215"><ele>667.0</ele><time>2026-03-29T10:25:17.338Z</time></trkpt><trkpt lat="37.8221883" lon="14.792025"><ele>667.0</ele><time>2026-03-29T10:25:18.338Z</time></trkpt><trkpt lat="37.8222117" lon="14.791885"><ele>667.0</ele><time>2026-03-29T10:25:19.339Z</time></trkpt><trkpt lat="37.82223" lon="14.7917467"><ele>667.0</ele><time>2026-03-29T10:25:20.339Z</time></trkpt><trkpt lat="37.8222483" lon="14.79161"><ele>669.75</ele><time>2026-03-29T10:25:21.339Z</time></trkpt><trkpt lat="37.82226" lon="14.7914683"><ele>672.5</ele><time>2026-03-29T10:25:22.339Z</time></trkpt><trkpt lat="37.8222767" lon="14.7913233"><ele>675.25</ele><time>2026-03-29T10:25:23.338Z</time></trkpt><trkpt lat="37.822295" lon="14.7911867"><ele>678.0</ele><time>2026-03-29T10:25:24.339Z</time></trkpt><trkpt lat="37.8223167" lon="14.7910417"><ele>680.25</ele><time>2026-03-29T10:25:25.338Z</time></trkpt><trkpt lat="37.8223467" lon="14.7909067"><ele>682.5</ele><time>2026-03-29T10:25:26.338Z</time></trkpt><trkpt lat="37.8224083" lon="14.7907817"><ele>684.75</ele><time>2026-03-29T10:25:27.338Z</time></trkpt><trkpt lat="37.8224817" lon="14.7906467"><ele>687.0</ele><time>2026-03-29T10:25:28.339Z</time></trkpt><trkpt lat="37.8225583" lon="14.7905283"><ele>687.0</ele><time>2026-03-29T10:25:29.339Z</time></trkpt><trkpt lat="37.8226383" lon="14.7904067"><ele>687.0</ele><time>2026-03-29T10:25:30.338Z</time></trkpt><trkpt lat="37.8227233" lon="14.7902917"><ele>687.0</ele><time>2026-03-29T10:25:31.338Z</time></trkpt><trkpt lat="37.82281" lon="14.79018"><ele>687.0</ele><time>2026-03-29T10:25:32.339Z</time></trkpt><trkpt lat="37.8229083" lon="14.7900833"><ele>687.75</ele><time>2026-03-29T10:25:33.339Z</time></trkpt><trkpt lat="37.82301" lon="14.789985"><ele>688.5</ele><time>2026-03-29T10:25:34.339Z</time></trkpt><trkpt lat="37.823115" lon="14.789895"><ele>689.25</ele><time>2026-03-29T10:25:35.339Z</time></trkpt><trkpt lat="37.8232117" lon="14.7898117"><ele>690.0</ele><time>2026-03-29T10:25:36.338Z</time></trkpt><trkpt lat="37.8233117" lon="14.7897367"><ele>690.0</ele><time>2026-03-29T10:25:37.338Z</time></trkpt><trkpt lat="37.82343" lon="14.7896917"><ele>690.0</ele><time>2026-03-29T10:25:38.338Z</time></trkpt><trkpt lat="37.8235467" lon="14.7896617"><ele>690.0</ele><time>2026-03-29T10:25:39.338Z</time></trkpt><trkpt lat="37.823665" lon="14.7896617"><ele>690.0</ele><time>2026-03-29T10:25:40.338Z</time></trkpt><trkpt lat="37.8237883" lon="14.7896783"><ele>690.75</ele><time>2026-03-29T10:25:41.338Z</time></trkpt><trkpt lat="37.8239083" lon="14.789715"><ele>691.5</ele><time>2026-03-29T10:25:42.339Z</time></trkpt><trkpt lat="37.8240333" lon="14.7897567"><ele>692.25</ele><time>2026-03-29T10:25:43.339Z</time></trkpt><trkpt lat="37.8241433" lon="14.7898"><ele>693.0</ele><time>2026-03-29T10:25:44.338Z</time></trkpt><trkpt lat="37.82426" lon="14.7898367"><ele>694.0</ele><time>2026-03-29T10:25:45.339Z</time></trkpt><trkpt lat="37.82437" lon="14.7898717"><ele>695.0</ele><time>2026-03-29T10:25:46.339Z</time></trkpt><trkpt lat="37.8244933" lon="14.7898967"><ele>696.0</ele><time>2026-03-29T10:25:47.338Z</time></trkpt><trkpt lat="37.82462" lon="14.7899067"><ele>697.0</ele><time>2026-03-29T10:25:48.339Z</time></trkpt><trkpt lat="37.82474" lon="14.789895"><ele>697.0</ele><time>2026-03-29T10:25:49.338Z</time></trkpt><trkpt lat="37.8248633" lon="14.7898667"><ele>697.0</ele><time>2026-03-29T10:25:50.339Z</time></trkpt><trkpt lat="37.8249883" lon="14.78984"><ele>697.0</ele><time>2026-03-29T10:25:51.339Z</time></trkpt><trkpt lat="37.82512" lon="14.7898033"><ele>697.0</ele><time>2026-03-29T10:25:52.339Z</time></trkpt><trkpt lat="37.8252533" lon="14.7897817"><ele>695.75</ele><time>2026-03-29T10:25:53.339Z</time></trkpt><trkpt lat="37.82539" lon="14.7897333"><ele>694.5</ele><time>2026-03-29T10:25:54.338Z</time></trkpt><trkpt lat="37.825525" lon="14.7896667"><ele>693.25</ele><time>2026-03-29T10:25:55.338Z</time></trkpt><trkpt lat="37.8256517" lon="14.7895833"><ele>692.0</ele><time>2026-03-29T10:25:56.338Z</time></trkpt><trkpt lat="37.8257833" lon="14.7894667"><ele>693.6666666666666</ele><time>2026-03-29T10:25:57.338Z</time></trkpt><trkpt lat="37.825905" lon="14.7893333"><ele>695.3333333333334</ele><time>2026-03-29T10:25:58.338Z</time></trkpt><trkpt lat="37.8260183" lon="14.7891967"><ele>697.0</ele><time>2026-03-29T10:25:59.338Z</time></trkpt><trkpt lat="37.8261367" lon="14.7890667"><ele>697.0</ele><time>2026-03-29T10:26:00.339Z</time></trkpt><trkpt lat="37.8262483" lon="14.78894"><ele>697.0</ele><time>2026-03-29T10:26:01.338Z</time></trkpt><trkpt lat="37.8263617" lon="14.7888083"><ele>697.0</ele><time>2026-03-29T10:26:02.339Z</time></trkpt><trkpt lat="37.82645" lon="14.788675"><ele>697.0</ele><time>2026-03-29T10:26:03.339Z</time></trkpt><trkpt lat="37.8265033" lon="14.788525"><ele>698.5</ele><time>2026-03-29T10:26:04.339Z</time></trkpt><trkpt lat="37.8265083" lon="14.7883483"><ele>700.0</ele><time>2026-03-29T10:26:05.339Z</time></trkpt><trkpt lat="37.826485" lon="14.7881733"><ele>701.5</ele><time>2026-03-29T10:26:06.339Z</time></trkpt><trkpt lat="37.826435" lon="14.78801"><ele>703.0</ele><time>2026-03-29T10:26:07.338Z</time></trkpt><trkpt lat="37.8263567" lon="14.7878467"><ele>703.0</ele><time>2026-03-29T10:26:08.339Z</time></trkpt><trkpt lat="37.8262733" lon="14.787685"><ele>703.0</ele><time>2026-03-29T10:26:09.338Z</time></trkpt><trkpt lat="37.8262083" lon="14.7875183"><ele>703.0</ele><time>2026-03-29T10:26:10.339Z</time></trkpt><trkpt lat="37.82616" lon="14.7873467"><ele>703.0</ele><time>2026-03-29T10:26:11.339Z</time></trkpt><trkpt lat="37.8261567" lon="14.787165"><ele>703.25</ele><time>2026-03-29T10:26:12.338Z</time></trkpt><trkpt lat="37.8261917" lon="14.7869817"><ele>703.5</ele><time>2026-03-29T10:26:13.339Z</time></trkpt><trkpt lat="37.8262517" lon="14.7868183"><ele>703.75</ele><time>2026-03-29T10:26:14.338Z</time></trkpt><trkpt lat="37.8262967" lon="14.7866467"><ele>704.0</ele><time>2026-03-29T10:26:15.338Z</time></trkpt><trkpt lat="37.8262833" lon="14.7864767"><ele>704.25</ele><time>2026-03-29T10:26:16.338Z</time></trkpt><trkpt lat="37.82623" lon="14.7863133"><ele>704.5</ele><time>2026-03-29T10:26:17.339Z</time></trkpt><trkpt lat="37.8261283" lon="14.78619"><ele>704.75</ele><time>2026-03-29T10:26:18.339Z</time></trkpt><trkpt lat="37.8259983" lon="14.7860783"><ele>705.0</ele><time>2026-03-29T10:26:19.338Z</time></trkpt><trkpt lat="37.8258933" lon="14.7859483"><ele>711.0</ele><time>2026-03-29T10:26:20.339Z</time></trkpt><trkpt lat="37.8258133" lon="14.78581"><ele>717.0</ele><time>2026-03-29T10:26:21.339Z</time></trkpt><trkpt lat="37.8257633" lon="14.78565"><ele>723.0</ele><time>2026-03-29T10:26:22.339Z</time></trkpt><trkpt lat="37.8257517" lon="14.7854767"><ele>729.0</ele><time>2026-03-29T10:26:23.339Z</time></trkpt><trkpt lat="37.8257517" lon="14.7852917"><ele>728.6666666666666</ele><time>2026-03-29T10:26:24.339Z</time></trkpt><trkpt lat="37.8257583" lon="14.785095"><ele>728.3333333333333</ele><time>2026-03-29T10:26:25.338Z</time></trkpt><trkpt lat="37.8257617" lon="14.7849033"><ele>728.0</ele><time>2026-03-29T10:26:26.338Z</time></trkpt><trkpt lat="37.825765" lon="14.7847083"><ele>728.0</ele><time>2026-03-29T10:26:27.338Z</time></trkpt><trkpt lat="37.825765" lon="14.7845267"><ele>728.0</ele><time>2026-03-29T10:26:28.338Z</time></trkpt><trkpt lat="37.825765" lon="14.78435"><ele>728.0</ele><time>2026-03-29T10:26:29.339Z</time></trkpt><trkpt lat="37.82577" lon="14.78418"><ele>728.0</ele><time>2026-03-29T10:26:30.339Z</time></trkpt><trkpt lat="37.8257917" lon="14.784015"><ele>728.25</ele><time>2026-03-29T10:26:31.338Z</time></trkpt><trkpt lat="37.825835" lon="14.7838483"><ele>728.5</ele><time>2026-03-29T10:26:32.338Z</time></trkpt><trkpt lat="37.82591" lon="14.78369"><ele>728.75</ele><time>2026-03-29T10:26:33.339Z</time></trkpt><trkpt lat="37.8259917" lon="14.78353"><ele>729.0</ele><time>2026-03-29T10:26:34.339Z</time></trkpt><trkpt lat="37.82607" lon="14.783355"><ele>726.3333333333334</ele><time>2026-03-29T10:26:35.338Z</time></trkpt><trkpt lat="37.82616" lon="14.7831783"><ele>723.6666666666667</ele><time>2026-03-29T10:26:36.338Z</time></trkpt><trkpt lat="37.8262533" lon="14.783"><ele>721.0</ele><time>2026-03-29T10:26:37.339Z</time></trkpt><trkpt lat="37.826335" lon="14.7828333"><ele>723.0</ele><time>2026-03-29T10:26:38.339Z</time></trkpt><trkpt lat="37.8264167" lon="14.78267"><ele>725.0</ele><time>2026-03-29T10:26:39.338Z</time></trkpt><trkpt lat="37.8264883" lon="14.7825167"><ele>727.0</ele><time>2026-03-29T10:26:40.338Z</time></trkpt><trkpt lat="37.8265433" lon="14.78237"><ele>729.0</ele><time>2026-03-29T10:26:41.339Z</time></trkpt><trkpt lat="37.8265733" lon="14.78221"><ele>729.0</ele><time>2026-03-29T10:26:42.339Z</time></trkpt><trkpt lat="37.8265717" lon="14.7820483"><ele>729.0</ele><time>2026-03-29T10:26:43.338Z</time></trkpt><trkpt lat="37.8265667" lon="14.7818933"><ele>729.0</ele><time>2026-03-29T10:26:44.339Z</time></trkpt><trkpt lat="37.826565" lon="14.78173"><ele>729.0</ele><time>2026-03-29T10:26:45.339Z</time></trkpt><trkpt lat="37.8265583" lon="14.7815633"><ele>729.75</ele><time>2026-03-29T10:26:46.338Z</time></trkpt><trkpt lat="37.82656" lon="14.7813967"><ele>730.5</ele><time>2026-03-29T10:26:47.338Z</time></trkpt><trkpt lat="37.826585" lon="14.7812317"><ele>731.25</ele><time>2026-03-29T10:26:48.339Z</time></trkpt><trkpt lat="37.82663" lon="14.7810733"><ele>732.0</ele><time>2026-03-29T10:26:49.338Z</time></trkpt><trkpt lat="37.8266867" lon="14.780905"><ele>733.5</ele><time>2026-03-29T10:26:50.339Z</time></trkpt><trkpt lat="37.8267483" lon="14.7807467"><ele>735.0</ele><time>2026-03-29T10:26:51.339Z</time></trkpt><trkpt lat="37.8268117" lon="14.7805817"><ele>736.5</ele><time>2026-03-29T10:26:52.338Z</time></trkpt><trkpt lat="37.8268633" lon="14.7804"><ele>738.0</ele><time>2026-03-29T10:26:53.339Z</time></trkpt><trkpt lat="37.826905" lon="14.7802117"><ele>734.5</ele><time>2026-03-29T10:26:54.339Z</time></trkpt><trkpt lat="37.8269417" lon="14.7800233"><ele>731.0</ele><time>2026-03-29T10:26:55.338Z</time></trkpt><trkpt lat="37.82697" lon="14.7798433"><ele>727.5</ele><time>2026-03-29T10:26:56.338Z</time></trkpt><trkpt lat="37.8269883" lon="14.77968"><ele>724.0</ele><time>2026-03-29T10:26:57.338Z</time></trkpt><trkpt lat="37.827" lon="14.77952"><ele>724.0</ele><time>2026-03-29T10:26:58.338Z</time></trkpt><trkpt lat="37.8270033" lon="14.77937"><ele>724.0</ele><time>2026-03-29T10:26:59.339Z</time></trkpt><trkpt lat="37.82701" lon="14.7792317"><ele>724.0</ele><time>2026-03-29T10:27:00.339Z</time></trkpt><trkpt lat="37.8270267" lon="14.7791033"><ele>724.0</ele><time>2026-03-29T10:27:01.338Z</time></trkpt><trkpt lat="37.8270517" lon="14.779015"><ele>724.0</ele><time>2026-03-29T10:27:02.339Z</time></trkpt><trkpt lat="37.8271183" lon="14.778935"><ele>726.0</ele><time>2026-03-29T10:27:04.339Z</time></trkpt><trkpt lat="37.8272133" lon="14.7789333"><ele>728.0</ele><time>2026-03-29T10:27:23.338Z</time></trkpt><trkpt lat="37.8272767" lon="14.7788967"><ele>730.0</ele><time>2026-03-29T10:27:24.339Z</time></trkpt><trkpt lat="37.8273533" lon="14.7788583"><ele>732.0</ele><time>2026-03-29T10:27:25.339Z</time></trkpt><trkpt lat="37.82744" lon="14.7788317"><ele>734.0</ele><time>2026-03-29T10:27:26.339Z</time></trkpt><trkpt lat="37.82754" lon="14.7788083"><ele>736.0</ele><time>2026-03-29T10:27:27.339Z</time></trkpt><trkpt lat="37.8276417" lon="14.7787833"><ele>734.75</ele><time>2026-03-29T10:27:28.339Z</time></trkpt><trkpt lat="37.8277467" lon="14.7787667"><ele>733.5</ele><time>2026-03-29T10:27:29.339Z</time></trkpt><trkpt lat="37.8278683" lon="14.77875"><ele>732.25</ele><time>2026-03-29T10:27:30.338Z</time></trkpt><trkpt lat="37.8279933" lon="14.7787317"><ele>731.0</ele><time>2026-03-29T10:27:31.338Z</time></trkpt><trkpt lat="37.8281233" lon="14.7787133"><ele>731.0</ele><time>2026-03-29T10:27:32.338Z</time></trkpt><trkpt lat="37.8282567" lon="14.778695"><ele>731.0</ele><time>2026-03-29T10:27:33.338Z</time></trkpt><trkpt lat="37.8283967" lon="14.77867"><ele>731.0</ele><time>2026-03-29T10:27:34.339Z</time></trkpt><trkpt lat="37.8285283" lon="14.7786433"><ele>731.0</ele><time>2026-03-29T10:27:35.339Z</time></trkpt><trkpt lat="37.8286567" lon="14.7786267"><ele>728.75</ele><time>2026-03-29T10:27:36.339Z</time></trkpt><trkpt lat="37.8287683" lon="14.778595"><ele>726.5</ele><time>2026-03-29T10:27:37.339Z</time></trkpt><trkpt lat="37.82887" lon="14.7785333"><ele>724.25</ele><time>2026-03-29T10:27:38.339Z</time></trkpt><trkpt lat="37.8289733" lon="14.7784483"><ele>722.0</ele><time>2026-03-29T10:27:39.338Z</time></trkpt><trkpt lat="37.8290767" lon="14.7783583"><ele>725.5</ele><time>2026-03-29T10:27:40.338Z</time></trkpt><trkpt lat="37.8291883" lon="14.77828"><ele>729.0</ele><time>2026-03-29T10:27:41.338Z</time></trkpt><trkpt lat="37.8293167" lon="14.778245"><ele>732.5</ele><time>2026-03-29T10:27:42.338Z</time></trkpt><trkpt lat="37.829455" lon="14.778245"><ele>736.0</ele><time>2026-03-29T10:27:43.339Z</time></trkpt><trkpt lat="37.8295867" lon="14.778245"><ele>736.0</ele><time>2026-03-29T10:27:44.338Z</time></trkpt><trkpt lat="37.8297133" lon="14.7782433"><ele>736.0</ele><time>2026-03-29T10:27:45.339Z</time></trkpt><trkpt lat="37.8298333" lon="14.77823"><ele>736.0</ele><time>2026-03-29T10:27:46.338Z</time></trkpt><trkpt lat="37.8299567" lon="14.7782017"><ele>736.0</ele><time>2026-03-29T10:27:47.339Z</time></trkpt><trkpt lat="37.8300533" lon="14.7781267"><ele>738.0</ele><time>2026-03-29T10:27:48.338Z</time></trkpt><trkpt lat="37.830145" lon="14.778015"><ele>740.0</ele><time>2026-03-29T10:27:49.339Z</time></trkpt><trkpt lat="37.830215" lon="14.7778733"><ele>742.0</ele><time>2026-03-29T10:27:50.338Z</time></trkpt><trkpt lat="37.830245" lon="14.7777133"><ele>744.0</ele><time>2026-03-29T10:27:51.339Z</time></trkpt><trkpt lat="37.8302483" lon="14.7775517"><ele>747.25</ele><time>2026-03-29T10:27:52.338Z</time></trkpt><trkpt lat="37.8302317" lon="14.77738"><ele>750.5</ele><time>2026-03-29T10:27:53.338Z</time></trkpt><trkpt lat="37.8302233" lon="14.7772033"><ele>753.75</ele><time>2026-03-29T10:27:54.339Z</time></trkpt><trkpt lat="37.8302083" lon="14.77702"><ele>757.0</ele><time>2026-03-29T10:27:55.339Z</time></trkpt><trkpt lat="37.830205" lon="14.776835"><ele>757.0</ele><time>2026-03-29T10:27:56.339Z</time></trkpt><trkpt lat="37.830235" lon="14.7766517"><ele>757.0</ele><time>2026-03-29T10:27:57.338Z</time></trkpt><trkpt lat="37.8302817" lon="14.7764833"><ele>757.0</ele><time>2026-03-29T10:27:58.338Z</time></trkpt><trkpt lat="37.830365" lon="14.776315"><ele>757.0</ele><time>2026-03-29T10:27:59.338Z</time></trkpt><trkpt lat="37.830455" lon="14.77615"><ele>755.0</ele><time>2026-03-29T10:28:00.339Z</time></trkpt><trkpt lat="37.8305617" lon="14.7759983"><ele>753.0</ele><time>2026-03-29T10:28:01.339Z</time></trkpt><trkpt lat="37.8306733" lon="14.7758617"><ele>751.0</ele><time>2026-03-29T10:28:02.339Z</time></trkpt><trkpt lat="37.8307883" lon="14.7757217"><ele>751.0</ele><time>2026-03-29T10:28:03.339Z</time></trkpt><trkpt lat="37.8309017" lon="14.7755867"><ele>751.0</ele><time>2026-03-29T10:28:04.338Z</time></trkpt><trkpt lat="37.8309883" lon="14.7754483"><ele>751.0</ele><time>2026-03-29T10:28:05.339Z</time></trkpt><trkpt lat="37.8310467" lon="14.7752817"><ele>751.0</ele><time>2026-03-29T10:28:06.338Z</time></trkpt><trkpt lat="37.831075" lon="14.775115"><ele>755.0</ele><time>2026-03-29T10:28:07.339Z</time></trkpt><trkpt lat="37.83108" lon="14.77493"><ele>759.0</ele><time>2026-03-29T10:28:08.338Z</time></trkpt><trkpt lat="37.8310867" lon="14.7747417"><ele>763.0</ele><time>2026-03-29T10:28:09.339Z</time></trkpt><trkpt lat="37.83108" lon="14.7745517"><ele>767.0</ele><time>2026-03-29T10:28:10.339Z</time></trkpt><trkpt lat="37.83106" lon="14.77437"><ele>768.5</ele><time>2026-03-29T10:28:11.339Z</time></trkpt><trkpt lat="37.8310417" lon="14.774195"><ele>770.0</ele><time>2026-03-29T10:28:12.338Z</time></trkpt><trkpt lat="37.8310283" lon="14.7740233"><ele>771.5</ele><time>2026-03-29T10:28:13.338Z</time></trkpt><trkpt lat="37.8310167" lon="14.77386"><ele>773.0</ele><time>2026-03-29T10:28:14.339Z</time></trkpt><trkpt lat="37.8310017" lon="14.7737"><ele>773.0</ele><time>2026-03-29T10:28:15.338Z</time></trkpt><trkpt lat="37.8309917" lon="14.7735533"><ele>773.0</ele><time>2026-03-29T10:28:16.339Z</time></trkpt><trkpt lat="37.8309967" lon="14.7734233"><ele>773.0</ele><time>2026-03-29T10:28:17.338Z</time></trkpt><trkpt lat="37.831015" lon="14.7732867"><ele>773.0</ele><time>2026-03-29T10:28:18.339Z</time></trkpt><trkpt lat="37.8310417" lon="14.77315"><ele>773.0</ele><time>2026-03-29T10:28:19.339Z</time></trkpt><trkpt lat="37.8310833" lon="14.7730017"><ele>774.0</ele><time>2026-03-29T10:28:20.338Z</time></trkpt><trkpt lat="37.8311217" lon="14.77285"><ele>775.0</ele><time>2026-03-29T10:28:21.339Z</time></trkpt><trkpt lat="37.8311517" lon="14.7726917"><ele>776.0</ele><time>2026-03-29T10:28:22.338Z</time></trkpt><trkpt lat="37.8311733" lon="14.7725283"><ele>777.0</ele><time>2026-03-29T10:28:23.339Z</time></trkpt><trkpt lat="37.831175" lon="14.7723567"><ele>777.0</ele><time>2026-03-29T10:28:24.339Z</time></trkpt><trkpt lat="37.83117" lon="14.7721767"><ele>777.0</ele><time>2026-03-29T10:28:25.338Z</time></trkpt><trkpt lat="37.8311717" lon="14.7720033"><ele>777.0</ele><time>2026-03-29T10:28:26.338Z</time></trkpt><trkpt lat="37.8311683" lon="14.7718"><ele>777.0</ele><time>2026-03-29T10:28:27.338Z</time></trkpt><trkpt lat="37.8311933" lon="14.7715717"><ele>777.0</ele><time>2026-03-29T10:28:28.339Z</time></trkpt><trkpt lat="37.83125" lon="14.7713283"><ele>777.0</ele><time>2026-03-29T10:28:29.338Z</time></trkpt><trkpt lat="37.8313083" lon="14.7710717"><ele>777.0</ele><time>2026-03-29T10:28:30.338Z</time></trkpt><trkpt lat="37.831355" lon="14.7708233"><ele>777.0</ele><time>2026-03-29T10:28:31.339Z</time></trkpt><trkpt lat="37.83139" lon="14.7705883"><ele>777.0</ele><time>2026-03-29T10:28:32.338Z</time></trkpt><trkpt lat="37.8314233" lon="14.7703683"><ele>777.0</ele><time>2026-03-29T10:28:33.338Z</time></trkpt><trkpt lat="37.8314617" lon="14.7701583"><ele>777.0</ele><time>2026-03-29T10:28:34.338Z</time></trkpt><trkpt lat="37.8314967" lon="14.769965"><ele>777.0</ele><time>2026-03-29T10:28:35.338Z</time></trkpt><trkpt lat="37.8315217" lon="14.7697817"><ele>777.0</ele><time>2026-03-29T10:28:36.339Z</time></trkpt><trkpt lat="37.8315433" lon="14.7696233"><ele>777.0</ele><time>2026-03-29T10:28:37.338Z</time></trkpt><trkpt lat="37.83158" lon="14.7694817"><ele>775.2</ele><time>2026-03-29T10:28:38.338Z</time></trkpt><trkpt lat="37.83162" lon="14.7693567"><ele>773.4000000000001</ele><time>2026-03-29T10:28:39.338Z</time></trkpt><trkpt lat="37.83169" lon="14.7692517"><ele>771.5999999999999</ele><time>2026-03-29T10:28:40.339Z</time></trkpt><trkpt lat="37.83178" lon="14.7692017"><ele>769.8</ele><time>2026-03-29T10:28:41.339Z</time></trkpt><trkpt lat="37.8318983" lon="14.7691983"><ele>768.0</ele><time>2026-03-29T10:28:42.338Z</time></trkpt><trkpt lat="37.8320333" lon="14.769215"><ele>768.0</ele><time>2026-03-29T10:28:43.338Z</time></trkpt><trkpt lat="37.8321733" lon="14.7692183"><ele>768.0</ele><time>2026-03-29T10:28:44.338Z</time></trkpt><trkpt lat="37.83232" lon="14.7692117"><ele>768.0</ele><time>2026-03-29T10:28:45.339Z</time></trkpt><trkpt lat="37.83247" lon="14.7692083"><ele>768.0</ele><time>2026-03-29T10:28:46.338Z</time></trkpt><trkpt lat="37.8326183" lon="14.769225"><ele>769.6666666666667</ele><time>2026-03-29T10:28:47.339Z</time></trkpt><trkpt lat="37.83277" lon="14.7692667"><ele>771.3333333333334</ele><time>2026-03-29T10:28:48.339Z</time></trkpt><trkpt lat="37.832915" lon="14.7693067"><ele>773.0</ele><time>2026-03-29T10:28:49.339Z</time></trkpt><trkpt lat="37.83306" lon="14.76935"><ele>773.0</ele><time>2026-03-29T10:28:50.338Z</time></trkpt><trkpt lat="37.8331983" lon="14.7693783"><ele>773.0</ele><time>2026-03-29T10:28:51.339Z</time></trkpt><trkpt lat="37.8333233" lon="14.7693617"><ele>773.0</ele><time>2026-03-29T10:28:52.339Z</time></trkpt><trkpt lat="37.8334417" lon="14.7692983"><ele>773.0</ele><time>2026-03-29T10:28:53.339Z</time></trkpt><trkpt lat="37.83356" lon="14.76919"><ele>777.6666666666667</ele><time>2026-03-29T10:28:54.338Z</time></trkpt><trkpt lat="37.8336817" lon="14.769065"><ele>782.3333333333333</ele><time>2026-03-29T10:28:55.338Z</time></trkpt><trkpt lat="37.8338067" lon="14.7689367"><ele>787.0</ele><time>2026-03-29T10:28:56.339Z</time></trkpt><trkpt lat="37.8339333" lon="14.768815"><ele>787.0</ele><time>2026-03-29T10:28:57.339Z</time></trkpt><trkpt lat="37.8340683" lon="14.76871"><ele>787.0</ele><time>2026-03-29T10:28:58.339Z</time></trkpt><trkpt lat="37.8342033" lon="14.768615"><ele>787.0</ele><time>2026-03-29T10:28:59.339Z</time></trkpt><trkpt lat="37.8343217" lon="14.7684933"><ele>787.6666666666666</ele><time>2026-03-29T10:29:00.338Z</time></trkpt><trkpt lat="37.8344183" lon="14.7683433"><ele>788.3333333333333</ele><time>2026-03-29T10:29:01.339Z</time></trkpt><trkpt lat="37.834505" lon="14.76818"><ele>789.0</ele><time>2026-03-29T10:29:02.339Z</time></trkpt><trkpt lat="37.834595" lon="14.7680233"><ele>789.0</ele><time>2026-03-29T10:29:03.338Z</time></trkpt><trkpt lat="37.8346933" lon="14.767865"><ele>789.0</ele><time>2026-03-29T10:29:04.339Z</time></trkpt><trkpt lat="37.8348" lon="14.7677167"><ele>789.0</ele><time>2026-03-29T10:29:05.338Z</time></trkpt><trkpt lat="37.8349017" lon="14.7675817"><ele>791.0</ele><time>2026-03-29T10:29:06.338Z</time></trkpt><trkpt lat="37.835" lon="14.76745"><ele>793.0</ele><time>2026-03-29T10:29:07.339Z</time></trkpt><trkpt lat="37.8350867" lon="14.7673167"><ele>795.0</ele><time>2026-03-29T10:29:08.338Z</time></trkpt><trkpt lat="37.8351417" lon="14.767155"><ele>797.0</ele><time>2026-03-29T10:29:09.339Z</time></trkpt><trkpt lat="37.8351683" lon="14.7669733"><ele>798.3333333333334</ele><time>2026-03-29T10:29:10.339Z</time></trkpt><trkpt lat="37.8351833" lon="14.7667883"><ele>799.6666666666667</ele><time>2026-03-29T10:29:11.338Z</time></trkpt><trkpt lat="37.8351933" lon="14.7665867"><ele>801.0</ele><time>2026-03-29T10:29:12.338Z</time></trkpt><trkpt lat="37.8352083" lon="14.76639"><ele>801.0</ele><time>2026-03-29T10:29:13.339Z</time></trkpt><trkpt lat="37.8352217" lon="14.766195"><ele>801.0</ele><time>2026-03-29T10:29:14.339Z</time></trkpt><trkpt lat="37.83523" lon="14.7660167"><ele>801.0</ele><time>2026-03-29T10:29:15.339Z</time></trkpt><trkpt lat="37.83524" lon="14.7658467"><ele>801.0</ele><time>2026-03-29T10:29:16.339Z</time></trkpt><trkpt lat="37.835225" lon="14.7656917"><ele>799.5</ele><time>2026-03-29T10:29:17.338Z</time></trkpt><trkpt lat="37.8351733" lon="14.765555"><ele>798.0</ele><time>2026-03-29T10:29:18.338Z</time></trkpt><trkpt lat="37.83507" lon="14.7654633"><ele>796.5</ele><time>2026-03-29T10:29:19.338Z</time></trkpt><trkpt lat="37.834935" lon="14.765405"><ele>795.0</ele><time>2026-03-29T10:29:20.338Z</time></trkpt><trkpt lat="37.8348017" lon="14.76536"><ele>790.5</ele><time>2026-03-29T10:29:21.339Z</time></trkpt><trkpt lat="37.8346517" lon="14.7653367"><ele>786.0</ele><time>2026-03-29T10:29:22.339Z</time></trkpt><trkpt lat="37.8345" lon="14.76532"><ele>781.5</ele><time>2026-03-29T10:29:23.338Z</time></trkpt><trkpt lat="37.8343567" lon="14.7653033"><ele>777.0</ele><time>2026-03-29T10:29:24.338Z</time></trkpt><trkpt lat="37.8342083" lon="14.7652917"><ele>775.25</ele><time>2026-03-29T10:29:25.338Z</time></trkpt><trkpt lat="37.83406" lon="14.7652633"><ele>773.5</ele><time>2026-03-29T10:29:26.339Z</time></trkpt><trkpt lat="37.8339133" lon="14.7652067"><ele>771.75</ele><time>2026-03-29T10:29:27.338Z</time></trkpt><trkpt lat="37.8337867" lon="14.7651267"><ele>770.0</ele><time>2026-03-29T10:29:28.339Z</time></trkpt><trkpt lat="37.8336783" lon="14.7650217"><ele>772.75</ele><time>2026-03-29T10:29:29.339Z</time></trkpt><trkpt lat="37.83358" lon="14.7649"><ele>775.5</ele><time>2026-03-29T10:29:30.338Z</time></trkpt><trkpt lat="37.8334867" lon="14.7647733"><ele>778.25</ele><time>2026-03-29T10:29:31.339Z</time></trkpt><trkpt lat="37.8333917" lon="14.7646617"><ele>781.0</ele><time>2026-03-29T10:29:32.339Z</time></trkpt><trkpt lat="37.8332917" lon="14.7645533"><ele>781.0</ele><time>2026-03-29T10:29:33.339Z</time></trkpt><trkpt lat="37.8331833" lon="14.7644583"><ele>781.0</ele><time>2026-03-29T10:29:34.338Z</time></trkpt><trkpt lat="37.8330667" lon="14.7643683"><ele>781.0</ele><time>2026-03-29T10:29:35.338Z</time></trkpt><trkpt lat="37.8329533" lon="14.7642933"><ele>781.0</ele><time>2026-03-29T10:29:36.339Z</time></trkpt><trkpt lat="37.83284" lon="14.76421"><ele>782.5</ele><time>2026-03-29T10:29:37.339Z</time></trkpt><trkpt lat="37.8327217" lon="14.7641283"><ele>784.0</ele><time>2026-03-29T10:29:38.338Z</time></trkpt><trkpt lat="37.8326083" lon="14.7640483"><ele>785.5</ele><time>2026-03-29T10:29:39.338Z</time></trkpt><trkpt lat="37.832485" lon="14.76396"><ele>787.0</ele><time>2026-03-29T10:29:40.339Z</time></trkpt><trkpt lat="37.83237" lon="14.76388"><ele>787.0</ele><time>2026-03-29T10:29:41.338Z</time></trkpt><trkpt lat="37.8322617" lon="14.76379"><ele>787.0</ele><time>2026-03-29T10:29:42.339Z</time></trkpt><trkpt lat="37.8321617" lon="14.7636933"><ele>787.0</ele><time>2026-03-29T10:29:43.338Z</time></trkpt><trkpt lat="37.832085" lon="14.7635817"><ele>787.0</ele><time>2026-03-29T10:29:44.338Z</time></trkpt><trkpt lat="37.832025" lon="14.7634333"><ele>790.25</ele><time>2026-03-29T10:29:45.338Z</time></trkpt><trkpt lat="37.8320233" lon="14.7632767"><ele>793.5</ele><time>2026-03-29T10:29:46.338Z</time></trkpt><trkpt lat="37.8320317" lon="14.7630967"><ele>796.75</ele><time>2026-03-29T10:29:47.338Z</time></trkpt><trkpt lat="37.83204" lon="14.762925"><ele>800.0</ele><time>2026-03-29T10:29:48.338Z</time></trkpt><trkpt lat="37.8320383" lon="14.762765"><ele>799.2</ele><time>2026-03-29T10:29:49.337Z</time></trkpt><trkpt lat="37.8320217" lon="14.7626283"><ele>798.4</ele><time>2026-03-29T10:29:50.337Z</time></trkpt><trkpt lat="37.8319717" lon="14.7625117"><ele>797.5999999999999</ele><time>2026-03-29T10:29:51.338Z</time></trkpt><trkpt lat="37.8318983" lon="14.7624283"><ele>796.8</ele><time>2026-03-29T10:29:52.337Z</time></trkpt><trkpt lat="37.8318117" lon="14.762355"><ele>796.0</ele><time>2026-03-29T10:29:53.337Z</time></trkpt><trkpt lat="37.831715" lon="14.762285"><ele>796.0</ele><time>2026-03-29T10:29:54.337Z</time></trkpt><trkpt lat="37.8316267" lon="14.7622133"><ele>796.0</ele><time>2026-03-29T10:29:55.338Z</time></trkpt><trkpt lat="37.8315333" lon="14.76214"><ele>796.0</ele><time>2026-03-29T10:29:56.338Z</time></trkpt><trkpt lat="37.8314367" lon="14.7620533"><ele>796.0</ele><time>2026-03-29T10:29:57.337Z</time></trkpt><trkpt lat="37.83134" lon="14.7619667"><ele>798.75</ele><time>2026-03-29T10:29:58.338Z</time></trkpt><trkpt lat="37.8312633" lon="14.7618567"><ele>801.5</ele><time>2026-03-29T10:29:59.338Z</time></trkpt><trkpt lat="37.8312117" lon="14.7617283"><ele>804.25</ele><time>2026-03-29T10:30:00.338Z</time></trkpt><trkpt lat="37.8311867" lon="14.7615883"><ele>807.0</ele><time>2026-03-29T10:30:01.338Z</time></trkpt><trkpt lat="37.8312" lon="14.7614333"><ele>807.0</ele><time>2026-03-29T10:30:02.338Z</time></trkpt><trkpt lat="37.83125" lon="14.7613033"><ele>807.0</ele><time>2026-03-29T10:30:03.338Z</time></trkpt><trkpt lat="37.8313317" lon="14.7611867"><ele>807.0</ele><time>2026-03-29T10:30:04.337Z</time></trkpt><trkpt lat="37.83143" lon="14.761105"><ele>807.0</ele><time>2026-03-29T10:30:05.338Z</time></trkpt><trkpt lat="37.8315433" lon="14.7610767"><ele>807.0</ele><time>2026-03-29T10:30:06.338Z</time></trkpt><trkpt lat="37.8316733" lon="14.76109"><ele>807.0</ele><time>2026-03-29T10:30:07.337Z</time></trkpt><trkpt lat="37.8317917" lon="14.7611117"><ele>807.0</ele><time>2026-03-29T10:30:08.338Z</time></trkpt><trkpt lat="37.8319" lon="14.761125"><ele>807.0</ele><time>2026-03-29T10:30:09.338Z</time></trkpt><trkpt lat="37.8320033" lon="14.761105"><ele>809.0</ele><time>2026-03-29T10:30:10.338Z</time></trkpt><trkpt lat="37.83209" lon="14.7610517"><ele>811.0</ele><time>2026-03-29T10:30:11.337Z</time></trkpt><trkpt lat="37.8321683" lon="14.7609617"><ele>813.0</ele><time>2026-03-29T10:30:12.337Z</time></trkpt><trkpt lat="37.8322283" lon="14.7608517"><ele>815.0</ele><time>2026-03-29T10:30:13.337Z</time></trkpt><trkpt lat="37.832275" lon="14.7607133"><ele>817.0</ele><time>2026-03-29T10:30:14.337Z</time></trkpt><trkpt lat="37.8323267" lon="14.760565"><ele>817.0</ele><time>2026-03-29T10:30:15.338Z</time></trkpt><trkpt lat="37.832385" lon="14.7604283"><ele>817.0</ele><time>2026-03-29T10:30:16.338Z</time></trkpt><trkpt lat="37.8324567" lon="14.760285"><ele>817.0</ele><time>2026-03-29T10:30:17.337Z</time></trkpt><trkpt lat="37.8325467" lon="14.7601633"><ele>817.0</ele><time>2026-03-29T10:30:18.338Z</time></trkpt><trkpt lat="37.8326717" lon="14.7600683"><ele>820.75</ele><time>2026-03-29T10:30:19.337Z</time></trkpt><trkpt lat="37.8327833" lon="14.7599583"><ele>824.5</ele><time>2026-03-29T10:30:20.337Z</time></trkpt><trkpt lat="37.8328883" lon="14.7598533"><ele>828.25</ele><time>2026-03-29T10:30:21.337Z</time></trkpt><trkpt lat="37.8329783" lon="14.7597533"><ele>832.0</ele><time>2026-03-29T10:30:22.338Z</time></trkpt><trkpt lat="37.83304" lon="14.75964"><ele>832.0</ele><time>2026-03-29T10:30:23.338Z</time></trkpt><trkpt lat="37.83307" lon="14.7595067"><ele>832.0</ele><time>2026-03-29T10:30:24.337Z</time></trkpt><trkpt lat="37.8330633" lon="14.75936"><ele>832.0</ele><time>2026-03-29T10:30:25.337Z</time></trkpt><trkpt lat="37.8330283" lon="14.7591983"><ele>832.0</ele><time>2026-03-29T10:30:26.338Z</time></trkpt><trkpt lat="37.83298" lon="14.759025"><ele>831.6666666666666</ele><time>2026-03-29T10:30:27.337Z</time></trkpt><trkpt lat="37.8329367" lon="14.7588367"><ele>831.3333333333333</ele><time>2026-03-29T10:30:28.338Z</time></trkpt><trkpt lat="37.83289" lon="14.7586583"><ele>831.0</ele><time>2026-03-29T10:30:29.338Z</time></trkpt><trkpt lat="37.8328683" lon="14.7584717"><ele>831.6666666666667</ele><time>2026-03-29T10:30:30.338Z</time></trkpt><trkpt lat="37.8328733" lon="14.7582867"><ele>832.3333333333334</ele><time>2026-03-29T10:30:31.338Z</time></trkpt><trkpt lat="37.8329017" lon="14.7580983"><ele>833.0</ele><time>2026-03-29T10:30:32.338Z</time></trkpt><trkpt lat="37.832935" lon="14.7579"><ele>832.6666666666667</ele><time>2026-03-29T10:30:33.338Z</time></trkpt><trkpt lat="37.8329733" lon="14.7576967"><ele>832.3333333333333</ele><time>2026-03-29T10:30:34.338Z</time></trkpt><trkpt lat="37.8330117" lon="14.7574817"><ele>832.0</ele><time>2026-03-29T10:30:35.337Z</time></trkpt><trkpt lat="37.833055" lon="14.7572617"><ele>832.0</ele><time>2026-03-29T10:30:36.337Z</time></trkpt><trkpt lat="37.8331" lon="14.757045"><ele>832.0</ele><time>2026-03-29T10:30:37.338Z</time></trkpt><trkpt lat="37.8331417" lon="14.7568383"><ele>832.0</ele><time>2026-03-29T10:30:38.338Z</time></trkpt><trkpt lat="37.8331717" lon="14.7566383"><ele>831.3333333333333</ele><time>2026-03-29T10:30:39.337Z</time></trkpt><trkpt lat="37.8332067" lon="14.7564383"><ele>830.6666666666667</ele><time>2026-03-29T10:30:40.338Z</time></trkpt><trkpt lat="37.833215" lon="14.7562483"><ele>830.0</ele><time>2026-03-29T10:30:41.338Z</time></trkpt><trkpt lat="37.833195" lon="14.7560733"><ele>832.0</ele><time>2026-03-29T10:30:42.338Z</time></trkpt><trkpt lat="37.8331367" lon="14.7559"><ele>834.0</ele><time>2026-03-29T10:30:43.337Z</time></trkpt><trkpt lat="37.83306" lon="14.7557283"><ele>836.0</ele><time>2026-03-29T10:30:44.337Z</time></trkpt><trkpt lat="37.8329967" lon="14.7555517"><ele>836.0</ele><time>2026-03-29T10:30:45.337Z</time></trkpt><trkpt lat="37.832935" lon="14.7553733"><ele>836.0</ele><time>2026-03-29T10:30:46.337Z</time></trkpt><trkpt lat="37.8328817" lon="14.75518"><ele>836.0</ele><time>2026-03-29T10:30:47.337Z</time></trkpt><trkpt lat="37.8328433" lon="14.7549883"><ele>840.6666666666667</ele><time>2026-03-29T10:30:48.338Z</time></trkpt><trkpt lat="37.8328233" lon="14.7547783"><ele>845.3333333333333</ele><time>2026-03-29T10:30:49.337Z</time></trkpt><trkpt lat="37.8328" lon="14.754565"><ele>850.0</ele><time>2026-03-29T10:30:50.337Z</time></trkpt><trkpt lat="37.83278" lon="14.7543567"><ele>850.3333333333333</ele><time>2026-03-29T10:30:51.338Z</time></trkpt><trkpt lat="37.8327517" lon="14.75415"><ele>850.6666666666667</ele><time>2026-03-29T10:30:52.337Z</time></trkpt><trkpt lat="37.8327133" lon="14.7539533"><ele>851.0</ele><time>2026-03-29T10:30:53.337Z</time></trkpt><trkpt lat="37.8326667" lon="14.7537883"><ele>850.25</ele><time>2026-03-29T10:30:54.337Z</time></trkpt><trkpt lat="37.8326033" lon="14.75365"><ele>849.5</ele><time>2026-03-29T10:30:55.337Z</time></trkpt><trkpt lat="37.832505" lon="14.7535483"><ele>848.75</ele><time>2026-03-29T10:30:56.337Z</time></trkpt><trkpt lat="37.8323833" lon="14.75347"><ele>848.0</ele><time>2026-03-29T10:30:57.338Z</time></trkpt><trkpt lat="37.8322617" lon="14.7534033"><ele>848.0</ele><time>2026-03-29T10:30:58.337Z</time></trkpt><trkpt lat="37.83215" lon="14.753315"><ele>848.0</ele><time>2026-03-29T10:30:59.337Z</time></trkpt><trkpt lat="37.8320567" lon="14.7531817"><ele>848.0</ele><time>2026-03-29T10:31:00.337Z</time></trkpt><trkpt lat="37.8319967" lon="14.7530217"><ele>848.0</ele><time>2026-03-29T10:31:01.337Z</time></trkpt><trkpt lat="37.83196" lon="14.7528333"><ele>852.3333333333334</ele><time>2026-03-29T10:31:02.337Z</time></trkpt><trkpt lat="37.8319217" lon="14.7526417"><ele>856.6666666666667</ele><time>2026-03-29T10:31:03.338Z</time></trkpt><trkpt lat="37.8318867" lon="14.7524467"><ele>861.0</ele><time>2026-03-29T10:31:04.338Z</time></trkpt><trkpt lat="37.831855" lon="14.75224"><ele>861.0</ele><time>2026-03-29T10:31:05.337Z</time></trkpt><trkpt lat="37.8318267" lon="14.75204"><ele>861.0</ele><time>2026-03-29T10:31:06.337Z</time></trkpt><trkpt lat="37.8317883" lon="14.7518417"><ele>861.0</ele><time>2026-03-29T10:31:07.337Z</time></trkpt><trkpt lat="37.8317517" lon="14.7516583"><ele>855.25</ele><time>2026-03-29T10:31:08.337Z</time></trkpt><trkpt lat="37.8316817" lon="14.7514983"><ele>849.5</ele><time>2026-03-29T10:31:09.337Z</time></trkpt><trkpt lat="37.8315733" lon="14.751385"><ele>843.75</ele><time>2026-03-29T10:31:10.337Z</time></trkpt><trkpt lat="37.83145" lon="14.7512967"><ele>838.0</ele><time>2026-03-29T10:31:11.338Z</time></trkpt><trkpt lat="37.8313133" lon="14.7512017"><ele>838.0</ele><time>2026-03-29T10:31:12.338Z</time></trkpt><trkpt lat="37.831185" lon="14.7510983"><ele>838.0</ele><time>2026-03-29T10:31:13.338Z</time></trkpt><trkpt lat="37.8310633" lon="14.750995"><ele>838.0</ele><time>2026-03-29T10:31:14.338Z</time></trkpt><trkpt lat="37.830935" lon="14.7508833"><ele>839.25</ele><time>2026-03-29T10:31:15.338Z</time></trkpt><trkpt lat="37.8308217" lon="14.7507683"><ele>840.5</ele><time>2026-03-29T10:31:16.337Z</time></trkpt><trkpt lat="37.83071" lon="14.7506267"><ele>841.75</ele><time>2026-03-29T10:31:17.337Z</time></trkpt><trkpt lat="37.8306133" lon="14.7505033"><ele>843.0</ele><time>2026-03-29T10:31:18.338Z</time></trkpt><trkpt lat="37.8305233" lon="14.75038"><ele>843.0</ele><time>2026-03-29T10:31:19.338Z</time></trkpt><trkpt lat="37.8304583" lon="14.7502517"><ele>843.0</ele><time>2026-03-29T10:31:20.338Z</time></trkpt><trkpt lat="37.8304233" lon="14.7501167"><ele>843.0</ele><time>2026-03-29T10:31:21.338Z</time></trkpt><trkpt lat="37.83043" lon="14.7499767"><ele>843.0</ele><time>2026-03-29T10:31:22.337Z</time></trkpt><trkpt lat="37.8304717" lon="14.74985"><ele>845.5</ele><time>2026-03-29T10:31:23.338Z</time></trkpt><trkpt lat="37.8305467" lon="14.74972"><ele>848.0</ele><time>2026-03-29T10:31:24.338Z</time></trkpt><trkpt lat="37.830625" lon="14.7495917"><ele>850.5</ele><time>2026-03-29T10:31:25.337Z</time></trkpt><trkpt lat="37.830705" lon="14.7494533"><ele>853.0</ele><time>2026-03-29T10:31:26.338Z</time></trkpt><trkpt lat="37.8307717" lon="14.7493117"><ele>853.25</ele><time>2026-03-29T10:31:27.338Z</time></trkpt><trkpt lat="37.8308283" lon="14.7491517"><ele>853.5</ele><time>2026-03-29T10:31:28.337Z</time></trkpt><trkpt lat="37.8308683" lon="14.7489667"><ele>853.75</ele><time>2026-03-29T10:31:29.337Z</time></trkpt><trkpt lat="37.83089" lon="14.74878"><ele>854.0</ele><time>2026-03-29T10:31:30.338Z</time></trkpt><trkpt lat="37.8309117" lon="14.7485783"><ele>854.3333333333334</ele><time>2026-03-29T10:31:31.338Z</time></trkpt><trkpt lat="37.8309183" lon="14.7483767"><ele>854.6666666666667</ele><time>2026-03-29T10:31:32.338Z</time></trkpt><trkpt lat="37.8309" lon="14.748185"><ele>855.0</ele><time>2026-03-29T10:31:33.337Z</time></trkpt><trkpt lat="37.8308567" lon="14.74799"><ele>855.0</ele><time>2026-03-29T10:31:34.337Z</time></trkpt><trkpt lat="37.8307983" lon="14.7478033"><ele>855.0</ele><time>2026-03-29T10:31:35.338Z</time></trkpt><trkpt lat="37.830715" lon="14.7476217"><ele>855.0</ele><time>2026-03-29T10:31:36.337Z</time></trkpt><trkpt lat="37.8306283" lon="14.74745"><ele>857.0</ele><time>2026-03-29T10:31:37.337Z</time></trkpt><trkpt lat="37.8305317" lon="14.7472833"><ele>859.0</ele><time>2026-03-29T10:31:38.338Z</time></trkpt><trkpt lat="37.8304133" lon="14.7471417"><ele>861.0</ele><time>2026-03-29T10:31:39.338Z</time></trkpt><trkpt lat="37.830275" lon="14.7470283"><ele>862.6666666666667</ele><time>2026-03-29T10:31:40.337Z</time></trkpt><trkpt lat="37.83013" lon="14.7469183"><ele>864.3333333333334</ele><time>2026-03-29T10:31:41.338Z</time></trkpt><trkpt lat="37.8300017" lon="14.7468017"><ele>866.0</ele><time>2026-03-29T10:31:42.337Z</time></trkpt><trkpt lat="37.8298817" lon="14.7466867"><ele>866.0</ele><time>2026-03-29T10:31:43.337Z</time></trkpt><trkpt lat="37.8297767" lon="14.746555"><ele>866.0</ele><time>2026-03-29T10:31:44.338Z</time></trkpt><trkpt lat="37.8296883" lon="14.7463883"><ele>866.0</ele><time>2026-03-29T10:31:45.338Z</time></trkpt><trkpt lat="37.8296033" lon="14.74622"><ele>866.0</ele><time>2026-03-29T10:31:46.337Z</time></trkpt><trkpt lat="37.82953" lon="14.74605"><ele>866.0</ele><time>2026-03-29T10:31:47.337Z</time></trkpt><trkpt lat="37.8294717" lon="14.7458783"><ele>866.0</ele><time>2026-03-29T10:31:48.337Z</time></trkpt><trkpt lat="37.8294567" lon="14.7456967"><ele>866.0</ele><time>2026-03-29T10:31:49.338Z</time></trkpt><trkpt lat="37.829465" lon="14.7455167"><ele>870.3333333333334</ele><time>2026-03-29T10:31:50.338Z</time></trkpt><trkpt lat="37.82951" lon="14.74533"><ele>874.6666666666667</ele><time>2026-03-29T10:31:51.338Z</time></trkpt><trkpt lat="37.8295667" lon="14.7451283"><ele>879.0</ele><time>2026-03-29T10:31:52.337Z</time></trkpt><trkpt lat="37.8296167" lon="14.7449467"><ele>880.0</ele><time>2026-03-29T10:31:53.338Z</time></trkpt><trkpt lat="37.829665" lon="14.7447533"><ele>881.0</ele><time>2026-03-29T10:31:54.338Z</time></trkpt><trkpt lat="37.82971" lon="14.744575"><ele>882.0</ele><time>2026-03-29T10:31:55.338Z</time></trkpt><trkpt lat="37.8297417" lon="14.74439"><ele>881.0</ele><time>2026-03-29T10:31:56.338Z</time></trkpt><trkpt lat="37.8297483" lon="14.7442083"><ele>880.0</ele><time>2026-03-29T10:31:57.337Z</time></trkpt><trkpt lat="37.829705" lon="14.7440367"><ele>879.0</ele><time>2026-03-29T10:31:58.337Z</time></trkpt><trkpt lat="37.8296283" lon="14.7439"><ele>878.0</ele><time>2026-03-29T10:31:59.338Z</time></trkpt><trkpt lat="37.8295383" lon="14.74376"><ele>878.0</ele><time>2026-03-29T10:32:00.338Z</time></trkpt><trkpt lat="37.8294583" lon="14.7436117"><ele>878.0</ele><time>2026-03-29T10:32:01.338Z</time></trkpt><trkpt lat="37.8293833" lon="14.74346"><ele>878.0</ele><time>2026-03-29T10:32:02.338Z</time></trkpt><trkpt lat="37.8293233" lon="14.743295"><ele>878.0</ele><time>2026-03-29T10:32:03.338Z</time></trkpt><trkpt lat="37.8292867" lon="14.74311"><ele>874.3333333333334</ele><time>2026-03-29T10:32:04.337Z</time></trkpt><trkpt lat="37.8292767" lon="14.7429117"><ele>870.6666666666667</ele><time>2026-03-29T10:32:05.337Z</time></trkpt><trkpt lat="37.8292783" lon="14.7427233"><ele>867.0</ele><time>2026-03-29T10:32:06.337Z</time></trkpt><trkpt lat="37.82928" lon="14.7425267"><ele>867.0</ele><time>2026-03-29T10:32:07.338Z</time></trkpt><trkpt lat="37.8293" lon="14.7423417"><ele>867.0</ele><time>2026-03-29T10:32:08.338Z</time></trkpt><trkpt lat="37.8293433" lon="14.74215"><ele>867.0</ele><time>2026-03-29T10:32:09.338Z</time></trkpt><trkpt lat="37.8294" lon="14.741965"><ele>873.0</ele><time>2026-03-29T10:32:10.337Z</time></trkpt><trkpt lat="37.829465" lon="14.7417683"><ele>879.0</ele><time>2026-03-29T10:32:11.338Z</time></trkpt><trkpt lat="37.82952" lon="14.7415867"><ele>885.0</ele><time>2026-03-29T10:32:12.337Z</time></trkpt><trkpt lat="37.8295483" lon="14.741395"><ele>885.0</ele><time>2026-03-29T10:32:13.337Z</time></trkpt><trkpt lat="37.8295567" lon="14.7412133"><ele>885.0</ele><time>2026-03-29T10:32:14.337Z</time></trkpt><trkpt lat="37.8295517" lon="14.741015"><ele>885.0</ele><time>2026-03-29T10:32:15.338Z</time></trkpt><trkpt lat="37.82953" lon="14.7408167"><ele>885.6666666666667</ele><time>2026-03-29T10:32:16.338Z</time></trkpt><trkpt lat="37.8295117" lon="14.74062"><ele>886.3333333333334</ele><time>2026-03-29T10:32:17.338Z</time></trkpt><trkpt lat="37.8294933" lon="14.7404167"><ele>887.0</ele><time>2026-03-29T10:32:18.337Z</time></trkpt><trkpt lat="37.8294767" lon="14.7402083"><ele>888.6666666666667</ele><time>2026-03-29T10:32:19.338Z</time></trkpt><trkpt lat="37.8294517" lon="14.739995"><ele>890.3333333333333</ele><time>2026-03-29T10:32:20.337Z</time></trkpt><trkpt lat="37.82943" lon="14.7397917"><ele>892.0</ele><time>2026-03-29T10:32:21.338Z</time></trkpt><trkpt lat="37.8294117" lon="14.7395867"><ele>892.0</ele><time>2026-03-29T10:32:22.337Z</time></trkpt><trkpt lat="37.8293817" lon="14.7393917"><ele>892.0</ele><time>2026-03-29T10:32:23.337Z</time></trkpt><trkpt lat="37.8293383" lon="14.7392233"><ele>892.0</ele><time>2026-03-29T10:32:24.337Z</time></trkpt><trkpt lat="37.8292483" lon="14.7390583"><ele>888.0</ele><time>2026-03-29T10:32:25.337Z</time></trkpt><trkpt lat="37.8291367" lon="14.7389383"><ele>884.0</ele><time>2026-03-29T10:32:26.337Z</time></trkpt><trkpt lat="37.8289917" lon="14.7388667"><ele>880.0</ele><time>2026-03-29T10:32:27.337Z</time></trkpt><trkpt lat="37.82884" lon="14.7388233"><ele>880.0</ele><time>2026-03-29T10:32:28.338Z</time></trkpt><trkpt lat="37.8286883" lon="14.73879"><ele>880.0</ele><time>2026-03-29T10:32:29.338Z</time></trkpt><trkpt lat="37.8285367" lon="14.7387517"><ele>880.0</ele><time>2026-03-29T10:32:30.338Z</time></trkpt><trkpt lat="37.828395" lon="14.7386883"><ele>881.0</ele><time>2026-03-29T10:32:31.338Z</time></trkpt><trkpt lat="37.82829" lon="14.7385933"><ele>882.0</ele><time>2026-03-29T10:32:32.337Z</time></trkpt><trkpt lat="37.82822" lon="14.7384767"><ele>883.0</ele><time>2026-03-29T10:32:33.337Z</time></trkpt><trkpt lat="37.82819" lon="14.738335"><ele>884.0</ele><time>2026-03-29T10:32:34.337Z</time></trkpt><trkpt lat="37.82819" lon="14.73818"><ele>884.0</ele><time>2026-03-29T10:32:35.337Z</time></trkpt><trkpt lat="37.8282" lon="14.7380083"><ele>884.0</ele><time>2026-03-29T10:32:36.338Z</time></trkpt><trkpt lat="37.8281967" lon="14.7378433"><ele>884.0</ele><time>2026-03-29T10:32:37.337Z</time></trkpt><trkpt lat="37.8281883" lon="14.73767"><ele>884.0</ele><time>2026-03-29T10:32:38.338Z</time></trkpt><trkpt lat="37.8281867" lon="14.7374967"><ele>885.75</ele><time>2026-03-29T10:32:39.338Z</time></trkpt><trkpt lat="37.8281983" lon="14.73733"><ele>887.5</ele><time>2026-03-29T10:32:40.337Z</time></trkpt><trkpt lat="37.828235" lon="14.7371517"><ele>889.25</ele><time>2026-03-29T10:32:41.337Z</time></trkpt><trkpt lat="37.8282917" lon="14.736985"><ele>891.0</ele><time>2026-03-29T10:32:42.338Z</time></trkpt><trkpt lat="37.8283733" lon="14.7368217"><ele>891.3333333333333</ele><time>2026-03-29T10:32:43.338Z</time></trkpt><trkpt lat="37.8284567" lon="14.7366567"><ele>891.6666666666666</ele><time>2026-03-29T10:32:44.337Z</time></trkpt><trkpt lat="37.8285417" lon="14.7364883"><ele>892.0</ele><time>2026-03-29T10:32:45.337Z</time></trkpt><trkpt lat="37.82862" lon="14.7363133"><ele>895.6666666666666</ele><time>2026-03-29T10:32:46.338Z</time></trkpt><trkpt lat="37.8287" lon="14.7361567"><ele>899.3333333333333</ele><time>2026-03-29T10:32:47.338Z</time></trkpt><trkpt lat="37.8287933" lon="14.7360067"><ele>903.0</ele><time>2026-03-29T10:32:48.338Z</time></trkpt><trkpt lat="37.82891" lon="14.7358667"><ele>903.0</ele><time>2026-03-29T10:32:49.338Z</time></trkpt><trkpt lat="37.829035" lon="14.7357617"><ele>903.0</ele><time>2026-03-29T10:32:50.337Z</time></trkpt><trkpt lat="37.82918" lon="14.7356783"><ele>903.0</ele><time>2026-03-29T10:32:51.337Z</time></trkpt><trkpt lat="37.8293267" lon="14.7355933"><ele>906.3333333333333</ele><time>2026-03-29T10:32:52.337Z</time></trkpt><trkpt lat="37.829465" lon="14.7354817"><ele>909.6666666666666</ele><time>2026-03-29T10:32:53.338Z</time></trkpt><trkpt lat="37.8295867" lon="14.7353617"><ele>913.0</ele><time>2026-03-29T10:32:54.337Z</time></trkpt><trkpt lat="37.8296983" lon="14.7352033"><ele>913.0</ele><time>2026-03-29T10:32:55.337Z</time></trkpt><trkpt lat="37.8297967" lon="14.735045"><ele>913.0</ele><time>2026-03-29T10:32:56.338Z</time></trkpt><trkpt lat="37.8298883" lon="14.7348767"><ele>913.0</ele><time>2026-03-29T10:32:57.337Z</time></trkpt><trkpt lat="37.8299783" lon="14.7347"><ele>913.0</ele><time>2026-03-29T10:32:58.337Z</time></trkpt><trkpt lat="37.8300633" lon="14.7345267"><ele>913.0</ele><time>2026-03-29T10:32:59.338Z</time></trkpt><trkpt lat="37.8301367" lon="14.734345"><ele>913.0</ele><time>2026-03-29T10:33:00.338Z</time></trkpt><trkpt lat="37.8301917" lon="14.734145"><ele>916.75</ele><time>2026-03-29T10:33:01.337Z</time></trkpt><trkpt lat="37.8302517" lon="14.7339667"><ele>920.5</ele><time>2026-03-29T10:33:02.337Z</time></trkpt><trkpt lat="37.8303067" lon="14.7338017"><ele>924.25</ele><time>2026-03-29T10:33:03.337Z</time></trkpt><trkpt lat="37.8303367" lon="14.7336283"><ele>928.0</ele><time>2026-03-29T10:33:04.338Z</time></trkpt><trkpt lat="37.8303433" lon="14.7334417"><ele>928.6666666666666</ele><time>2026-03-29T10:33:05.337Z</time></trkpt><trkpt lat="37.8303433" lon="14.73325"><ele>929.3333333333333</ele><time>2026-03-29T10:33:06.338Z</time></trkpt><trkpt lat="37.8303367" lon="14.73306"><ele>930.0</ele><time>2026-03-29T10:33:07.338Z</time></trkpt><trkpt lat="37.8303333" lon="14.73287"><ele>931.5</ele><time>2026-03-29T10:33:08.338Z</time></trkpt><trkpt lat="37.83033" lon="14.732695"><ele>933.0</ele><time>2026-03-29T10:33:09.338Z</time></trkpt><trkpt lat="37.830325" lon="14.7325383"><ele>934.5</ele><time>2026-03-29T10:33:10.338Z</time></trkpt><trkpt lat="37.8302967" lon="14.7324083"><ele>936.0</ele><time>2026-03-29T10:33:11.338Z</time></trkpt><trkpt lat="37.8302383" lon="14.7323"><ele>931.75</ele><time>2026-03-29T10:33:12.338Z</time></trkpt><trkpt lat="37.8301383" lon="14.7322317"><ele>927.5</ele><time>2026-03-29T10:33:13.338Z</time></trkpt><trkpt lat="37.83001" lon="14.7322"><ele>923.25</ele><time>2026-03-29T10:33:14.338Z</time></trkpt><trkpt lat="37.829875" lon="14.7321667"><ele>919.0</ele><time>2026-03-29T10:33:15.338Z</time></trkpt><trkpt lat="37.82975" lon="14.7321233"><ele>919.0</ele><time>2026-03-29T10:33:16.337Z</time></trkpt><trkpt lat="37.8296483" lon="14.7320567"><ele>919.0000000000001</ele><time>2026-03-29T10:33:17.338Z</time></trkpt><trkpt lat="37.829585" lon="14.7319533"><ele>919.0000000000001</ele><time>2026-03-29T10:33:18.337Z</time></trkpt><trkpt lat="37.829555" lon="14.731835"><ele>919.0</ele><time>2026-03-29T10:33:19.337Z</time></trkpt><trkpt lat="37.8295617" lon="14.731695"><ele>919.0</ele><time>2026-03-29T10:33:20.337Z</time></trkpt><trkpt lat="37.8296" lon="14.7315583"><ele>921.0</ele><time>2026-03-29T10:33:21.337Z</time></trkpt><trkpt lat="37.8296483" lon="14.731425"><ele>923.0000000000001</ele><time>2026-03-29T10:33:22.338Z</time></trkpt><trkpt lat="37.8297233" lon="14.731335"><ele>925.0000000000001</ele><time>2026-03-29T10:33:23.338Z</time></trkpt><trkpt lat="37.829805" lon="14.73129"><ele>927.0</ele><time>2026-03-29T10:33:24.338Z</time></trkpt><trkpt lat="37.82989" lon="14.731295"><ele>929.0</ele><time>2026-03-29T10:33:25.338Z</time></trkpt><trkpt lat="37.82998" lon="14.7313533"><ele>929.0</ele><time>2026-03-29T10:33:26.337Z</time></trkpt><trkpt lat="37.8300817" lon="14.7314267"><ele>929.0</ele><time>2026-03-29T10:33:27.338Z</time></trkpt><trkpt lat="37.8301883" lon="14.731475"><ele>929.0</ele><time>2026-03-29T10:33:28.337Z</time></trkpt><trkpt lat="37.8303017" lon="14.7315117"><ele>929.0</ele><time>2026-03-29T10:33:29.337Z</time></trkpt><trkpt lat="37.830425" lon="14.7315483"><ele>930.75</ele><time>2026-03-29T10:33:30.337Z</time></trkpt><trkpt lat="37.83054" lon="14.7315967"><ele>932.5</ele><time>2026-03-29T10:33:31.338Z</time></trkpt><trkpt lat="37.83066" lon="14.7316383"><ele>934.25</ele><time>2026-03-29T10:33:32.338Z</time></trkpt><trkpt lat="37.830775" lon="14.73166"><ele>936.0</ele><time>2026-03-29T10:33:33.338Z</time></trkpt><trkpt lat="37.8308883" lon="14.7316567"><ele>940.4</ele><time>2026-03-29T10:33:34.337Z</time></trkpt><trkpt lat="37.8309767" lon="14.7316017"><ele>944.8</ele><time>2026-03-29T10:33:35.338Z</time></trkpt><trkpt lat="37.831065" lon="14.7315133"><ele>949.1999999999999</ele><time>2026-03-29T10:33:36.338Z</time></trkpt><trkpt lat="37.831135" lon="14.73141"><ele>953.5999999999999</ele><time>2026-03-29T10:33:37.337Z</time></trkpt><trkpt lat="37.8311917" lon="14.7312867"><ele>958.0</ele><time>2026-03-29T10:33:38.337Z</time></trkpt><trkpt lat="37.8312667" lon="14.7311583"><ele>956.5</ele><time>2026-03-29T10:33:39.337Z</time></trkpt><trkpt lat="37.83134" lon="14.7310167"><ele>955.0</ele><time>2026-03-29T10:33:40.337Z</time></trkpt><trkpt lat="37.831415" lon="14.7308733"><ele>953.5</ele><time>2026-03-29T10:33:41.338Z</time></trkpt><trkpt lat="37.8314967" lon="14.7307267"><ele>952.0</ele><time>2026-03-29T10:33:42.337Z</time></trkpt><trkpt lat="37.8315817" lon="14.7305733"><ele>952.0</ele><time>2026-03-29T10:33:43.338Z</time></trkpt><trkpt lat="37.8316617" lon="14.7304017"><ele>952.0</ele><time>2026-03-29T10:33:44.337Z</time></trkpt><trkpt lat="37.8317467" lon="14.730225"><ele>952.0</ele><time>2026-03-29T10:33:45.337Z</time></trkpt><trkpt lat="37.8318217" lon="14.730045"><ele>955.6666666666666</ele><time>2026-03-29T10:33:46.337Z</time></trkpt><trkpt lat="37.831885" lon="14.7298517"><ele>959.3333333333333</ele><time>2026-03-29T10:33:47.338Z</time></trkpt><trkpt lat="37.8319517" lon="14.7296617"><ele>963.0</ele><time>2026-03-29T10:33:48.338Z</time></trkpt><trkpt lat="37.83202" lon="14.72948"><ele>961.3333333333333</ele><time>2026-03-29T10:33:49.337Z</time></trkpt><trkpt lat="37.83209" lon="14.7293"><ele>959.6666666666666</ele><time>2026-03-29T10:33:50.338Z</time></trkpt><trkpt lat="37.8321583" lon="14.729135"><ele>958.0</ele><time>2026-03-29T10:33:51.337Z</time></trkpt><trkpt lat="37.83224" lon="14.7289767"><ele>958.0</ele><time>2026-03-29T10:33:52.338Z</time></trkpt><trkpt lat="37.83235" lon="14.7288383"><ele>958.0</ele><time>2026-03-29T10:33:53.337Z</time></trkpt><trkpt lat="37.8324683" lon="14.728705"><ele>958.0</ele><time>2026-03-29T10:33:54.337Z</time></trkpt><trkpt lat="37.8326033" lon="14.728595"><ele>959.6666666666666</ele><time>2026-03-29T10:33:55.337Z</time></trkpt><trkpt lat="37.8327417" lon="14.7285"><ele>961.3333333333333</ele><time>2026-03-29T10:33:56.338Z</time></trkpt><trkpt lat="37.8328733" lon="14.72841"><ele>963.0</ele><time>2026-03-29T10:33:57.338Z</time></trkpt><trkpt lat="37.8330033" lon="14.72833"><ele>963.0</ele><time>2026-03-29T10:33:58.338Z</time></trkpt><trkpt lat="37.83313" lon="14.728235"><ele>963.0</ele><time>2026-03-29T10:33:59.337Z</time></trkpt><trkpt lat="37.8332483" lon="14.7281283"><ele>963.0</ele><time>2026-03-29T10:34:00.337Z</time></trkpt><trkpt lat="37.8333333" lon="14.727995"><ele>963.0</ele><time>2026-03-29T10:34:01.338Z</time></trkpt><trkpt lat="37.83338" lon="14.7278367"><ele>962.0</ele><time>2026-03-29T10:34:02.338Z</time></trkpt><trkpt lat="37.8334067" lon="14.7276717"><ele>961.0</ele><time>2026-03-29T10:34:03.338Z</time></trkpt><trkpt lat="37.8334467" lon="14.7275117"><ele>960.0</ele><time>2026-03-29T10:34:04.338Z</time></trkpt><trkpt lat="37.83351" lon="14.7273683"><ele>959.0</ele><time>2026-03-29T10:34:05.337Z</time></trkpt><trkpt lat="37.8336017" lon="14.727235"><ele>963.25</ele><time>2026-03-29T10:34:06.338Z</time></trkpt><trkpt lat="37.8337167" lon="14.7271183"><ele>967.5</ele><time>2026-03-29T10:34:07.337Z</time></trkpt><trkpt lat="37.8338433" lon="14.7270433"><ele>971.75</ele><time>2026-03-29T10:34:08.337Z</time></trkpt><trkpt lat="37.8339817" lon="14.726995"><ele>976.0</ele><time>2026-03-29T10:34:09.337Z</time></trkpt><trkpt lat="37.8341167" lon="14.7270017"><ele>976.0</ele><time>2026-03-29T10:34:10.337Z</time></trkpt><trkpt lat="37.834255" lon="14.727035"><ele>976.0</ele><time>2026-03-29T10:34:11.338Z</time></trkpt><trkpt lat="37.8343883" lon="14.727075"><ele>976.0</ele><time>2026-03-29T10:34:12.337Z</time></trkpt><trkpt lat="37.8345233" lon="14.7270933"><ele>976.0</ele><time>2026-03-29T10:34:13.338Z</time></trkpt><trkpt lat="37.8346667" lon="14.72708"><ele>974.5</ele><time>2026-03-29T10:34:14.338Z</time></trkpt><trkpt lat="37.8347967" lon="14.7270133"><ele>973.0</ele><time>2026-03-29T10:34:15.338Z</time></trkpt><trkpt lat="37.8349233" lon="14.7269267"><ele>971.5</ele><time>2026-03-29T10:34:16.337Z</time></trkpt><trkpt lat="37.835045" lon="14.7268083"><ele>970.0</ele><time>2026-03-29T10:34:17.338Z</time></trkpt><trkpt lat="37.8351767" lon="14.7266817"><ele>976.0</ele><time>2026-03-29T10:34:18.337Z</time></trkpt><trkpt lat="37.8353183" lon="14.7265633"><ele>982.0</ele><time>2026-03-29T10:34:19.338Z</time></trkpt><trkpt lat="37.835455" lon="14.7264283"><ele>988.0</ele><time>2026-03-29T10:34:20.338Z</time></trkpt><trkpt lat="37.8355917" lon="14.7263017"><ele>988.0</ele><time>2026-03-29T10:34:21.337Z</time></trkpt><trkpt lat="37.8357233" lon="14.7262067"><ele>988.0</ele><time>2026-03-29T10:34:22.337Z</time></trkpt><trkpt lat="37.8358433" lon="14.7261283"><ele>988.0</ele><time>2026-03-29T10:34:23.338Z</time></trkpt><trkpt lat="37.835975" lon="14.7261067"><ele>988.0</ele><time>2026-03-29T10:34:24.337Z</time></trkpt><trkpt lat="37.8360917" lon="14.726135"><ele>990.25</ele><time>2026-03-29T10:34:25.338Z</time></trkpt><trkpt lat="37.8361967" lon="14.726215"><ele>992.5</ele><time>2026-03-29T10:34:26.337Z</time></trkpt><trkpt lat="37.836305" lon="14.72628"><ele>994.75</ele><time>2026-03-29T10:34:27.337Z</time></trkpt><trkpt lat="37.8364317" lon="14.7263"><ele>997.0</ele><time>2026-03-29T10:34:28.337Z</time></trkpt><trkpt lat="37.83656" lon="14.7262867"><ele>997.0</ele><time>2026-03-29T10:34:29.337Z</time></trkpt><trkpt lat="37.836685" lon="14.7262417"><ele>997.0</ele><time>2026-03-29T10:34:30.338Z</time></trkpt><trkpt lat="37.8368117" lon="14.7261767"><ele>997.0</ele><time>2026-03-29T10:34:31.338Z</time></trkpt><trkpt lat="37.8369317" lon="14.7260917"><ele>997.0</ele><time>2026-03-29T10:34:32.338Z</time></trkpt><trkpt lat="37.837055" lon="14.72602"><ele>997.8</ele><time>2026-03-29T10:34:33.337Z</time></trkpt><trkpt lat="37.8371617" lon="14.7259367"><ele>998.6</ele><time>2026-03-29T10:34:34.338Z</time></trkpt><trkpt lat="37.8372567" lon="14.72585"><ele>999.3999999999999</ele><time>2026-03-29T10:34:35.337Z</time></trkpt><trkpt lat="37.8373117" lon="14.7257533"><ele>1000.1999999999999</ele><time>2026-03-29T10:34:36.337Z</time></trkpt><trkpt lat="37.8373267" lon="14.725645"><ele>1001.0</ele><time>2026-03-29T10:34:37.338Z</time></trkpt><trkpt lat="37.8372933" lon="14.7255317"><ele>1001.0</ele><time>2026-03-29T10:34:38.338Z</time></trkpt><trkpt lat="37.837235" lon="14.725415"><ele>1001.0</ele><time>2026-03-29T10:34:39.337Z</time></trkpt><trkpt lat="37.837185" lon="14.72529"><ele>1001.0</ele><time>2026-03-29T10:34:40.337Z</time></trkpt><trkpt lat="37.83715" lon="14.7251483"><ele>1001.0</ele><time>2026-03-29T10:34:41.337Z</time></trkpt><trkpt lat="37.83712" lon="14.725"><ele>1000.25</ele><time>2026-03-29T10:34:42.337Z</time></trkpt><trkpt lat="37.8371033" lon="14.7248617"><ele>999.5</ele><time>2026-03-29T10:34:43.338Z</time></trkpt><trkpt lat="37.8370983" lon="14.7247533"><ele>998.75</ele><time>2026-03-29T10:34:44.337Z</time></trkpt><trkpt lat="37.83717" lon="14.72463"><ele>998.0</ele><time>2026-03-29T10:34:46.338Z</time></trkpt><trkpt lat="37.8373083" lon="14.7246667"><ele>998.0</ele><time>2026-03-29T10:34:48.337Z</time></trkpt><trkpt lat="37.8373833" lon="14.7247167"><ele>998.0</ele><time>2026-03-29T10:34:49.337Z</time></trkpt><trkpt lat="37.83746" lon="14.724775"><ele>998.0</ele><time>2026-03-29T10:34:50.337Z</time></trkpt><trkpt lat="37.8375467" lon="14.7248083"><ele>998.0</ele><time>2026-03-29T10:34:51.338Z</time></trkpt><trkpt lat="37.8376467" lon="14.7248083"><ele>998.0</ele><time>2026-03-29T10:34:52.338Z</time></trkpt><trkpt lat="37.8377567" lon="14.72479"><ele>1002.0</ele><time>2026-03-29T10:34:53.338Z</time></trkpt><trkpt lat="37.8378633" lon="14.7247483"><ele>1006.0</ele><time>2026-03-29T10:34:54.338Z</time></trkpt><trkpt lat="37.837985" lon="14.724705"><ele>1010.0</ele><time>2026-03-29T10:34:55.337Z</time></trkpt><trkpt lat="37.8381017" lon="14.7246717"><ele>1014.0</ele><time>2026-03-29T10:34:56.338Z</time></trkpt><trkpt lat="37.838225" lon="14.7246317"><ele>1014.0</ele><time>2026-03-29T10:34:57.337Z</time></trkpt><trkpt lat="37.8383417" lon="14.724575"><ele>1014.0</ele><time>2026-03-29T10:34:58.337Z</time></trkpt><trkpt lat="37.8384467" lon="14.7245083"><ele>1014.0</ele><time>2026-03-29T10:34:59.337Z</time></trkpt><trkpt lat="37.8385167" lon="14.7244"><ele>1014.0</ele><time>2026-03-29T10:35:00.337Z</time></trkpt><trkpt lat="37.8385483" lon="14.7242583"><ele>1014.5</ele><time>2026-03-29T10:35:01.338Z</time></trkpt><trkpt lat="37.8385633" lon="14.7241117"><ele>1015.0</ele><time>2026-03-29T10:35:02.338Z</time></trkpt><trkpt lat="37.83857" lon="14.7239483"><ele>1015.5</ele><time>2026-03-29T10:35:03.338Z</time></trkpt><trkpt lat="37.83859" lon="14.7237767"><ele>1016.0</ele><time>2026-03-29T10:35:04.338Z</time></trkpt><trkpt lat="37.8386233" lon="14.723605"><ele>1017.0</ele><time>2026-03-29T10:35:05.337Z</time></trkpt><trkpt lat="37.83866" lon="14.723425"><ele>1018.0</ele><time>2026-03-29T10:35:06.338Z</time></trkpt><trkpt lat="37.8386967" lon="14.7232533"><ele>1019.0</ele><time>2026-03-29T10:35:07.338Z</time></trkpt><trkpt lat="37.838725" lon="14.7230683"><ele>1020.0</ele><time>2026-03-29T10:35:08.337Z</time></trkpt><trkpt lat="37.83874" lon="14.722875"><ele>1021.0</ele><time>2026-03-29T10:35:09.338Z</time></trkpt><trkpt lat="37.838745" lon="14.7226833"><ele>1022.0</ele><time>2026-03-29T10:35:10.337Z</time></trkpt><trkpt lat="37.8387467" lon="14.722495"><ele>1023.0</ele><time>2026-03-29T10:35:11.338Z</time></trkpt><trkpt lat="37.8387467" lon="14.722315"><ele>1024.0</ele><time>2026-03-29T10:35:12.338Z</time></trkpt><trkpt lat="37.8387367" lon="14.722145"><ele>1024.0</ele><time>2026-03-29T10:35:13.338Z</time></trkpt><trkpt lat="37.8386867" lon="14.7219783"><ele>1024.0</ele><time>2026-03-29T10:35:14.338Z</time></trkpt><trkpt lat="37.8386" lon="14.721835"><ele>1024.0</ele><time>2026-03-29T10:35:15.337Z</time></trkpt><trkpt lat="37.8384917" lon="14.7217317"><ele>1024.0</ele><time>2026-03-29T10:35:16.337Z</time></trkpt><trkpt lat="37.8383783" lon="14.7216467"><ele>1021.75</ele><time>2026-03-29T10:35:17.338Z</time></trkpt><trkpt lat="37.8382833" lon="14.7215467"><ele>1019.5</ele><time>2026-03-29T10:35:18.338Z</time></trkpt><trkpt lat="37.8382183" lon="14.7214133"><ele>1017.25</ele><time>2026-03-29T10:35:19.338Z</time></trkpt><trkpt lat="37.8381933" lon="14.7212533"><ele>1015.0</ele><time>2026-03-29T10:35:20.338Z</time></trkpt><trkpt lat="37.8382117" lon="14.7211033"><ele>1016.25</ele><time>2026-03-29T10:35:21.337Z</time></trkpt><trkpt lat="37.838265" lon="14.720955"><ele>1017.5</ele><time>2026-03-29T10:35:22.338Z</time></trkpt><trkpt lat="37.8383533" lon="14.7208383"><ele>1018.75</ele><time>2026-03-29T10:35:23.337Z</time></trkpt><trkpt lat="37.83847" lon="14.720755"><ele>1020.0</ele><time>2026-03-29T10:35:24.338Z</time></trkpt><trkpt lat="37.8386017" lon="14.7207183"><ele>1025.0</ele><time>2026-03-29T10:35:25.337Z</time></trkpt><trkpt lat="37.8387417" lon="14.7206983"><ele>1030.0</ele><time>2026-03-29T10:35:26.338Z</time></trkpt><trkpt lat="37.8388583" lon="14.7206383"><ele>1035.0</ele><time>2026-03-29T10:35:27.338Z</time></trkpt><trkpt lat="37.8389483" lon="14.7205317"><ele>1040.0</ele><time>2026-03-29T10:35:28.337Z</time></trkpt><trkpt lat="37.8390067" lon="14.7203817"><ele>1038.5</ele><time>2026-03-29T10:35:29.337Z</time></trkpt><trkpt lat="37.8390183" lon="14.7202083"><ele>1037.0</ele><time>2026-03-29T10:35:30.338Z</time></trkpt><trkpt lat="37.8390233" lon="14.7200333"><ele>1035.5</ele><time>2026-03-29T10:35:31.337Z</time></trkpt><trkpt lat="37.8390167" lon="14.7198567"><ele>1034.0</ele><time>2026-03-29T10:35:32.337Z</time></trkpt><trkpt lat="37.839" lon="14.719675"><ele>1034.0</ele><time>2026-03-29T10:35:33.338Z</time></trkpt><trkpt lat="37.8389783" lon="14.7195033"><ele>1034.0</ele><time>2026-03-29T10:35:34.337Z</time></trkpt><trkpt lat="37.8389833" lon="14.7193517"><ele>1034.0</ele><time>2026-03-29T10:35:35.338Z</time></trkpt><trkpt lat="37.839025" lon="14.7192317"><ele>1034.0</ele><time>2026-03-29T10:35:36.338Z</time></trkpt><trkpt lat="37.83911" lon="14.7191517"><ele>1033.5</ele><time>2026-03-29T10:35:37.337Z</time></trkpt><trkpt lat="37.8392267" lon="14.7190917"><ele>1033.0</ele><time>2026-03-29T10:35:38.338Z</time></trkpt><trkpt lat="37.8393783" lon="14.7190567"><ele>1032.5</ele><time>2026-03-29T10:35:39.337Z</time></trkpt><trkpt lat="37.839535" lon="14.7190167"><ele>1032.0</ele><time>2026-03-29T10:35:40.338Z</time></trkpt><trkpt lat="37.8396817" lon="14.7189633"><ele>1035.0</ele><time>2026-03-29T10:35:41.337Z</time></trkpt><trkpt lat="37.8398283" lon="14.71891"><ele>1038.0</ele><time>2026-03-29T10:35:42.338Z</time></trkpt><trkpt lat="37.8399717" lon="14.7188567"><ele>1041.0</ele><time>2026-03-29T10:35:43.338Z</time></trkpt><trkpt lat="37.8401017" lon="14.7188017"><ele>1044.0</ele><time>2026-03-29T10:35:44.337Z</time></trkpt><trkpt lat="37.840225" lon="14.7187467"><ele>1047.4</ele><time>2026-03-29T10:35:45.338Z</time></trkpt><trkpt lat="37.840325" lon="14.7186817"><ele>1050.8000000000002</ele><time>2026-03-29T10:35:46.338Z</time></trkpt><trkpt lat="37.8403883" lon="14.7185733"><ele>1054.1999999999998</ele><time>2026-03-29T10:35:47.337Z</time></trkpt><trkpt lat="37.8404217" lon="14.7184317"><ele>1057.6</ele><time>2026-03-29T10:35:48.337Z</time></trkpt><trkpt lat="37.8404417" lon="14.7182967"><ele>1061.0</ele><time>2026-03-29T10:35:49.337Z</time></trkpt><trkpt lat="37.84045" lon="14.7181233"><ele>1061.0</ele><time>2026-03-29T10:35:50.337Z</time></trkpt><trkpt lat="37.8404583" lon="14.7179567"><ele>1061.0</ele><time>2026-03-29T10:35:51.338Z</time></trkpt><trkpt lat="37.84045" lon="14.7177933"><ele>1061.0</ele><time>2026-03-29T10:35:52.338Z</time></trkpt><trkpt lat="37.8404317" lon="14.717625"><ele>1061.0</ele><time>2026-03-29T10:35:53.338Z</time></trkpt><trkpt lat="37.8403883" lon="14.7174683"><ele>1061.5</ele><time>2026-03-29T10:35:54.337Z</time></trkpt><trkpt lat="37.8403367" lon="14.717315"><ele>1062.0</ele><time>2026-03-29T10:35:55.338Z</time></trkpt><trkpt lat="37.8402817" lon="14.71715"><ele>1062.5</ele><time>2026-03-29T10:35:56.338Z</time></trkpt><trkpt lat="37.8402317" lon="14.7169917"><ele>1063.0</ele><time>2026-03-29T10:35:57.338Z</time></trkpt><trkpt lat="37.8401883" lon="14.716835"><ele>1064.0</ele><time>2026-03-29T10:35:58.338Z</time></trkpt><trkpt lat="37.84016" lon="14.7166783"><ele>1065.0</ele><time>2026-03-29T10:35:59.337Z</time></trkpt><trkpt lat="37.8401583" lon="14.7165283"><ele>1066.0</ele><time>2026-03-29T10:36:00.338Z</time></trkpt><trkpt lat="37.8401983" lon="14.7163983"><ele>1067.0</ele><time>2026-03-29T10:36:01.338Z</time></trkpt><trkpt lat="37.8402717" lon="14.7162733"><ele>1067.0</ele><time>2026-03-29T10:36:02.338Z</time></trkpt><trkpt lat="37.84036" lon="14.7161467"><ele>1067.0</ele><time>2026-03-29T10:36:03.337Z</time></trkpt><trkpt lat="37.8404483" lon="14.71603"><ele>1067.0</ele><time>2026-03-29T10:36:04.337Z</time></trkpt><trkpt lat="37.8405417" lon="14.7159117"><ele>1067.0</ele><time>2026-03-29T10:36:05.338Z</time></trkpt><trkpt lat="37.8406367" lon="14.7157883"><ele>1065.5</ele><time>2026-03-29T10:36:06.337Z</time></trkpt><trkpt lat="37.84073" lon="14.71566"><ele>1064.0</ele><time>2026-03-29T10:36:07.337Z</time></trkpt><trkpt lat="37.84081" lon="14.7155267"><ele>1062.5</ele><time>2026-03-29T10:36:08.338Z</time></trkpt><trkpt lat="37.84086" lon="14.71537"><ele>1061.0</ele><time>2026-03-29T10:36:09.337Z</time></trkpt><trkpt lat="37.840875" lon="14.715195"><ele>1059.0</ele><time>2026-03-29T10:36:10.337Z</time></trkpt><trkpt lat="37.8408783" lon="14.71502"><ele>1057.0</ele><time>2026-03-29T10:36:11.337Z</time></trkpt><trkpt lat="37.8408883" lon="14.7148567"><ele>1055.0</ele><time>2026-03-29T10:36:12.337Z</time></trkpt><trkpt lat="37.8409017" lon="14.7146967"><ele>1053.0</ele><time>2026-03-29T10:36:13.337Z</time></trkpt><trkpt lat="37.8409183" lon="14.7145333"><ele>1051.0</ele><time>2026-03-29T10:36:14.338Z</time></trkpt><trkpt lat="37.8409533" lon="14.7143817"><ele>1049.0</ele><time>2026-03-29T10:36:15.338Z</time></trkpt><trkpt lat="37.8410117" lon="14.7142383"><ele>1047.0</ele><time>2026-03-29T10:36:16.338Z</time></trkpt><trkpt lat="37.8411033" lon="14.71413"><ele>1045.0</ele><time>2026-03-29T10:36:17.337Z</time></trkpt><trkpt lat="37.84122" lon="14.7140583"><ele>1049.5</ele><time>2026-03-29T10:36:18.337Z</time></trkpt><trkpt lat="37.8413183" lon="14.7139667"><ele>1054.0</ele><time>2026-03-29T10:36:19.338Z</time></trkpt><trkpt lat="37.8413817" lon="14.713855"><ele>1058.5</ele><time>2026-03-29T10:36:20.337Z</time></trkpt><trkpt lat="37.84141" lon="14.7137117"><ele>1063.0</ele><time>2026-03-29T10:36:21.338Z</time></trkpt><trkpt lat="37.841385" lon="14.7135533"><ele>1064.75</ele><time>2026-03-29T10:36:22.337Z</time></trkpt><trkpt lat="37.8413167" lon="14.7133833"><ele>1066.5</ele><time>2026-03-29T10:36:23.338Z</time></trkpt><trkpt lat="37.8412617" lon="14.7132267"><ele>1068.25</ele><time>2026-03-29T10:36:24.338Z</time></trkpt><trkpt lat="37.84124" lon="14.7130733"><ele>1070.0</ele><time>2026-03-29T10:36:25.337Z</time></trkpt><trkpt lat="37.8412617" lon="14.7129283"><ele>1070.0</ele><time>2026-03-29T10:36:26.337Z</time></trkpt><trkpt lat="37.8413283" lon="14.712785"><ele>1070.0</ele><time>2026-03-29T10:36:27.338Z</time></trkpt><trkpt lat="37.8414133" lon="14.7126517"><ele>1070.0</ele><time>2026-03-29T10:36:28.338Z</time></trkpt><trkpt lat="37.8414933" lon="14.7125133"><ele>1070.0</ele><time>2026-03-29T10:36:29.338Z</time></trkpt><trkpt lat="37.841585" lon="14.7123883"><ele>1071.5</ele><time>2026-03-29T10:36:30.338Z</time></trkpt><trkpt lat="37.84167" lon="14.7122567"><ele>1073.0</ele><time>2026-03-29T10:36:31.337Z</time></trkpt><trkpt lat="37.8417467" lon="14.71212"><ele>1074.5</ele><time>2026-03-29T10:36:32.338Z</time></trkpt><trkpt lat="37.8418017" lon="14.711985"><ele>1076.0</ele><time>2026-03-29T10:36:33.337Z</time></trkpt><trkpt lat="37.8418267" lon="14.7118467"><ele>1076.0</ele><time>2026-03-29T10:36:34.337Z</time></trkpt><trkpt lat="37.8418417" lon="14.7117067"><ele>1076.0</ele><time>2026-03-29T10:36:35.337Z</time></trkpt><trkpt lat="37.8418183" lon="14.7115683"><ele>1076.0</ele><time>2026-03-29T10:36:36.338Z</time></trkpt><trkpt lat="37.8418017" lon="14.7114367"><ele>1076.0</ele><time>2026-03-29T10:36:37.337Z</time></trkpt><trkpt lat="37.8417933" lon="14.7113183"><ele>1076.0</ele><time>2026-03-29T10:36:38.337Z</time></trkpt><trkpt lat="37.8417883" lon="14.7112067"><ele>1073.8333333333335</ele><time>2026-03-29T10:36:39.337Z</time></trkpt><trkpt lat="37.8417983" lon="14.7111033"><ele>1071.6666666666667</ele><time>2026-03-29T10:36:40.337Z</time></trkpt><trkpt lat="37.8418183" lon="14.711015"><ele>1069.5</ele><time>2026-03-29T10:36:41.337Z</time></trkpt><trkpt lat="37.8418567" lon="14.71093"><ele>1067.3333333333333</ele><time>2026-03-29T10:36:42.337Z</time></trkpt><trkpt lat="37.8419117" lon="14.71085"><ele>1065.1666666666665</ele><time>2026-03-29T10:36:43.338Z</time></trkpt><trkpt lat="37.8419833" lon="14.7107667"><ele>1063.0</ele><time>2026-03-29T10:36:44.337Z</time></trkpt><trkpt lat="37.8420483" lon="14.7106733"><ele>1063.0</ele><time>2026-03-29T10:36:45.338Z</time></trkpt><trkpt lat="37.842105" lon="14.7105767"><ele>1063.0</ele><time>2026-03-29T10:36:46.338Z</time></trkpt><trkpt lat="37.84216" lon="14.7104667"><ele>1063.0</ele><time>2026-03-29T10:36:47.337Z</time></trkpt><trkpt lat="37.8422183" lon="14.7103367"><ele>1063.0</ele><time>2026-03-29T10:36:48.337Z</time></trkpt><trkpt lat="37.84228" lon="14.7102033"><ele>1063.0</ele><time>2026-03-29T10:36:49.337Z</time></trkpt><trkpt lat="37.8423433" lon="14.7100617"><ele>1061.75</ele><time>2026-03-29T10:36:50.337Z</time></trkpt><trkpt lat="37.84241" lon="14.7099133"><ele>1060.5</ele><time>2026-03-29T10:36:51.338Z</time></trkpt><trkpt lat="37.8424783" lon="14.70977"><ele>1059.25</ele><time>2026-03-29T10:36:52.338Z</time></trkpt><trkpt lat="37.8425533" lon="14.7096183"><ele>1058.0</ele><time>2026-03-29T10:36:53.338Z</time></trkpt><trkpt lat="37.84262" lon="14.7094533"><ele>1061.75</ele><time>2026-03-29T10:36:54.338Z</time></trkpt><trkpt lat="37.8426817" lon="14.70929"><ele>1065.5</ele><time>2026-03-29T10:36:55.338Z</time></trkpt><trkpt lat="37.8427167" lon="14.709135"><ele>1069.25</ele><time>2026-03-29T10:36:56.338Z</time></trkpt><trkpt lat="37.84273" lon="14.7089933"><ele>1073.0</ele><time>2026-03-29T10:36:57.337Z</time></trkpt><trkpt lat="37.84274" lon="14.708855"><ele>1073.0</ele><time>2026-03-29T10:36:58.338Z</time></trkpt><trkpt lat="37.842735" lon="14.7087367"><ele>1073.0</ele><time>2026-03-29T10:36:59.338Z</time></trkpt><trkpt lat="37.8427267" lon="14.7086233"><ele>1073.0</ele><time>2026-03-29T10:37:00.337Z</time></trkpt><trkpt lat="37.8427133" lon="14.7085333"><ele>1073.0</ele><time>2026-03-29T10:37:01.338Z</time></trkpt><trkpt lat="37.8427017" lon="14.708445"><ele>1073.0</ele><time>2026-03-29T10:37:02.338Z</time></trkpt><trkpt lat="37.8426933" lon="14.7083467"><ele>1073.0</ele><time>2026-03-29T10:37:03.338Z</time></trkpt><trkpt lat="37.8426867" lon="14.7082517"><ele>1073.0</ele><time>2026-03-29T10:37:04.337Z</time></trkpt><trkpt lat="37.8426883" lon="14.70816"><ele>1073.0</ele><time>2026-03-29T10:37:05.338Z</time></trkpt><trkpt lat="37.8426917" lon="14.7080717"><ele>1073.0</ele><time>2026-03-29T10:37:06.338Z</time></trkpt><trkpt lat="37.8427067" lon="14.7079833"><ele>1073.0</ele><time>2026-03-29T10:37:07.338Z</time></trkpt><trkpt lat="37.842735" lon="14.7078867"><ele>1073.0</ele><time>2026-03-29T10:37:08.338Z</time></trkpt><trkpt lat="37.842795" lon="14.7077817"><ele>1073.0</ele><time>2026-03-29T10:37:09.337Z</time></trkpt><trkpt lat="37.8428933" lon="14.70768"><ele>1073.0</ele><time>2026-03-29T10:37:10.337Z</time></trkpt><trkpt lat="37.8430033" lon="14.7075833"><ele>1073.0</ele><time>2026-03-29T10:37:11.338Z</time></trkpt><trkpt lat="37.8431133" lon="14.70749"><ele>1073.0</ele><time>2026-03-29T10:37:12.337Z</time></trkpt><trkpt lat="37.8431967" lon="14.7073867"><ele>1073.0</ele><time>2026-03-29T10:37:13.338Z</time></trkpt><trkpt lat="37.8432617" lon="14.7072917"><ele>1073.0</ele><time>2026-03-29T10:37:14.337Z</time></trkpt><trkpt lat="37.8433033" lon="14.7071883"><ele>1073.0</ele><time>2026-03-29T10:37:15.338Z</time></trkpt><trkpt lat="37.843325" lon="14.7070867"><ele>1073.0</ele><time>2026-03-29T10:37:16.338Z</time></trkpt><trkpt lat="37.8433017" lon="14.706975"><ele>1073.0</ele><time>2026-03-29T10:37:17.338Z</time></trkpt><trkpt lat="37.8432517" lon="14.70686"><ele>1073.0</ele><time>2026-03-29T10:37:18.338Z</time></trkpt><trkpt lat="37.8431717" lon="14.7067517"><ele>1074.75</ele><time>2026-03-29T10:37:19.338Z</time></trkpt><trkpt lat="37.843085" lon="14.70665"><ele>1076.5</ele><time>2026-03-29T10:37:20.337Z</time></trkpt><trkpt lat="37.84301" lon="14.70654"><ele>1078.25</ele><time>2026-03-29T10:37:21.338Z</time></trkpt><trkpt lat="37.8429367" lon="14.706425"><ele>1080.0</ele><time>2026-03-29T10:37:22.338Z</time></trkpt><trkpt lat="37.8428683" lon="14.70631"><ele>1080.0</ele><time>2026-03-29T10:37:23.337Z</time></trkpt><trkpt lat="37.8428117" lon="14.7061983"><ele>1080.0</ele><time>2026-03-29T10:37:24.338Z</time></trkpt><trkpt lat="37.842755" lon="14.7060567"><ele>1080.0</ele><time>2026-03-29T10:37:25.338Z</time></trkpt><trkpt lat="37.8427" lon="14.705905"><ele>1080.0</ele><time>2026-03-29T10:37:26.338Z</time></trkpt><trkpt lat="37.8426533" lon="14.7057533"><ele>1080.6</ele><time>2026-03-29T10:37:27.337Z</time></trkpt><trkpt lat="37.8426117" lon="14.7056017"><ele>1081.2</ele><time>2026-03-29T10:37:28.338Z</time></trkpt><trkpt lat="37.8425667" lon="14.7054617"><ele>1081.8</ele><time>2026-03-29T10:37:29.338Z</time></trkpt><trkpt lat="37.842545" lon="14.7053317"><ele>1082.4</ele><time>2026-03-29T10:37:30.338Z</time></trkpt><trkpt lat="37.8425467" lon="14.7052117"><ele>1083.0</ele><time>2026-03-29T10:37:31.338Z</time></trkpt><trkpt lat="37.8425833" lon="14.70512"><ele>1084.0</ele><time>2026-03-29T10:37:32.337Z</time></trkpt><trkpt lat="37.8426367" lon="14.70507"><ele>1085.0</ele><time>2026-03-29T10:37:33.338Z</time></trkpt><trkpt lat="37.8427067" lon="14.7050733"><ele>1086.0</ele><time>2026-03-29T10:37:34.337Z</time></trkpt><trkpt lat="37.842775" lon="14.705125"><ele>1087.0</ele><time>2026-03-29T10:37:35.338Z</time></trkpt><trkpt lat="37.8428267" lon="14.7052133"><ele>1088.0</ele><time>2026-03-29T10:37:36.338Z</time></trkpt><trkpt lat="37.8428683" lon="14.7053267"><ele>1089.0</ele><time>2026-03-29T10:37:37.337Z</time></trkpt><trkpt lat="37.842915" lon="14.7054433"><ele>1089.0</ele><time>2026-03-29T10:37:38.338Z</time></trkpt><trkpt lat="37.8429617" lon="14.7055567"><ele>1089.0</ele><time>2026-03-29T10:37:39.338Z</time></trkpt><trkpt lat="37.8430067" lon="14.7056683"><ele>1089.0</ele><time>2026-03-29T10:37:40.338Z</time></trkpt><trkpt lat="37.8430583" lon="14.7057867"><ele>1089.0</ele><time>2026-03-29T10:37:41.338Z</time></trkpt><trkpt lat="37.843125" lon="14.7058867"><ele>1089.0</ele><time>2026-03-29T10:37:42.338Z</time></trkpt><trkpt lat="37.8432167" lon="14.705955"><ele>1089.0</ele><time>2026-03-29T10:37:43.337Z</time></trkpt><trkpt lat="37.843315" lon="14.7060133"><ele>1089.0</ele><time>2026-03-29T10:37:44.337Z</time></trkpt><trkpt lat="37.8434167" lon="14.7060617"><ele>1089.0</ele><time>2026-03-29T10:37:45.338Z</time></trkpt><trkpt lat="37.8435283" lon="14.706115"><ele>1089.0</ele><time>2026-03-29T10:37:46.337Z</time></trkpt><trkpt lat="37.843645" lon="14.706165"><ele>1090.25</ele><time>2026-03-29T10:37:47.338Z</time></trkpt><trkpt lat="37.8437617" lon="14.7062217"><ele>1091.5</ele><time>2026-03-29T10:37:48.338Z</time></trkpt><trkpt lat="37.8438717" lon="14.7062717"><ele>1092.75</ele><time>2026-03-29T10:37:49.337Z</time></trkpt><trkpt lat="37.8439767" lon="14.70635"><ele>1094.0</ele><time>2026-03-29T10:37:50.338Z</time></trkpt><trkpt lat="37.84406" lon="14.7064583"><ele>1094.0</ele><time>2026-03-29T10:37:51.337Z</time></trkpt><trkpt lat="37.84413" lon="14.7065883"><ele>1094.0</ele><time>2026-03-29T10:37:52.337Z</time></trkpt><trkpt lat="37.8441983" lon="14.7067283"><ele>1094.0</ele><time>2026-03-29T10:37:53.337Z</time></trkpt><trkpt lat="37.84427" lon="14.7068767"><ele>1094.0</ele><time>2026-03-29T10:37:54.337Z</time></trkpt><trkpt lat="37.8443467" lon="14.70703"><ele>1099.0</ele><time>2026-03-29T10:37:55.338Z</time></trkpt><trkpt lat="37.8444183" lon="14.7071917"><ele>1104.0</ele><time>2026-03-29T10:37:56.337Z</time></trkpt><trkpt lat="37.84449" lon="14.70736"><ele>1109.0</ele><time>2026-03-29T10:37:57.337Z</time></trkpt><trkpt lat="37.8445583" lon="14.7075217"><ele>1114.0</ele><time>2026-03-29T10:37:58.337Z</time></trkpt><trkpt lat="37.8446267" lon="14.7076783"><ele>1113.0</ele><time>2026-03-29T10:37:59.338Z</time></trkpt><trkpt lat="37.84471" lon="14.70781"><ele>1112.0</ele><time>2026-03-29T10:38:00.337Z</time></trkpt><trkpt lat="37.8447867" lon="14.707935"><ele>1111.0</ele><time>2026-03-29T10:38:01.338Z</time></trkpt><trkpt lat="37.84485" lon="14.70806"><ele>1110.0</ele><time>2026-03-29T10:38:02.338Z</time></trkpt><trkpt lat="37.8449067" lon="14.7081817"><ele>1110.0</ele><time>2026-03-29T10:38:03.337Z</time></trkpt><trkpt lat="37.844945" lon="14.708305"><ele>1110.0</ele><time>2026-03-29T10:38:04.337Z</time></trkpt><trkpt lat="37.84496" lon="14.70844"><ele>1110.0</ele><time>2026-03-29T10:38:05.337Z</time></trkpt><trkpt lat="37.84496" lon="14.708575"><ele>1110.0</ele><time>2026-03-29T10:38:06.337Z</time></trkpt><trkpt lat="37.8449317" lon="14.7087"><ele>1110.0</ele><time>2026-03-29T10:38:07.337Z</time></trkpt><trkpt lat="37.8448983" lon="14.7088383"><ele>1111.0</ele><time>2026-03-29T10:38:08.338Z</time></trkpt><trkpt lat="37.8448583" lon="14.708965"><ele>1112.0</ele><time>2026-03-29T10:38:09.337Z</time></trkpt><trkpt lat="37.8448233" lon="14.7090833"><ele>1113.0</ele><time>2026-03-29T10:38:10.338Z</time></trkpt><trkpt lat="37.8447933" lon="14.7091967"><ele>1114.0</ele><time>2026-03-29T10:38:11.337Z</time></trkpt><trkpt lat="37.8447833" lon="14.7093033"><ele>1115.0</ele><time>2026-03-29T10:38:12.337Z</time></trkpt><trkpt lat="37.844805" lon="14.7094"><ele>1115.8333333333335</ele><time>2026-03-29T10:38:13.337Z</time></trkpt><trkpt lat="37.8448433" lon="14.7094683"><ele>1116.6666666666667</ele><time>2026-03-29T10:38:14.337Z</time></trkpt><trkpt lat="37.8449133" lon="14.7095167"><ele>1117.5</ele><time>2026-03-29T10:38:15.338Z</time></trkpt><trkpt lat="37.8449917" lon="14.709565"><ele>1118.3333333333333</ele><time>2026-03-29T10:38:16.337Z</time></trkpt><trkpt lat="37.8450567" lon="14.7096167"><ele>1119.1666666666665</ele><time>2026-03-29T10:38:17.337Z</time></trkpt><trkpt lat="37.845115" lon="14.7096833"><ele>1120.0</ele><time>2026-03-29T10:38:18.337Z</time></trkpt><trkpt lat="37.8451517" lon="14.70978"><ele>1120.3333333333333</ele><time>2026-03-29T10:38:19.337Z</time></trkpt><trkpt lat="37.84519" lon="14.7098733"><ele>1120.6666666666665</ele><time>2026-03-29T10:38:20.337Z</time></trkpt><trkpt lat="37.8451933" lon="14.7099617"><ele>1121.0</ele><time>2026-03-29T10:38:21.337Z</time></trkpt><trkpt lat="37.8451783" lon="14.7100683"><ele>1121.3333333333333</ele><time>2026-03-29T10:38:22.338Z</time></trkpt><trkpt lat="37.8451583" lon="14.710175"><ele>1121.6666666666667</ele><time>2026-03-29T10:38:23.338Z</time></trkpt><trkpt lat="37.84509" lon="14.71029"><ele>1122.0</ele><time>2026-03-29T10:38:24.337Z</time></trkpt><trkpt lat="37.8449933" lon="14.7103967"><ele>1122.0</ele><time>2026-03-29T10:38:25.338Z</time></trkpt><trkpt lat="37.8448883" lon="14.7105117"><ele>1122.0</ele><time>2026-03-29T10:38:26.338Z</time></trkpt><trkpt lat="37.8447917" lon="14.7106317"><ele>1122.0</ele><time>2026-03-29T10:38:27.338Z</time></trkpt><trkpt lat="37.84472" lon="14.710735"><ele>1122.0</ele><time>2026-03-29T10:38:28.337Z</time></trkpt><trkpt lat="37.8446967" lon="14.7108533"><ele>1122.0</ele><time>2026-03-29T10:38:29.338Z</time></trkpt><trkpt lat="37.84474" lon="14.7109517"><ele>1122.0</ele><time>2026-03-29T10:38:30.338Z</time></trkpt><trkpt lat="37.8447817" lon="14.7110467"><ele>1122.0</ele><time>2026-03-29T10:38:31.338Z</time></trkpt><trkpt lat="37.84485" lon="14.7111533"><ele>1122.0</ele><time>2026-03-29T10:38:33.338Z</time></trkpt><trkpt lat="37.8449417" lon="14.71117"><ele>1122.0</ele><time>2026-03-29T10:38:36.338Z</time></trkpt><trkpt lat="37.8450033" lon="14.7110967"><ele>1122.0</ele><time>2026-03-29T10:38:38.338Z</time></trkpt><trkpt lat="37.8450783" lon="14.71095"><ele>1122.0</ele><time>2026-03-29T10:38:40.337Z</time></trkpt><trkpt lat="37.8451217" lon="14.71085"><ele>1122.0</ele><time>2026-03-29T10:38:41.338Z</time></trkpt><trkpt lat="37.84518" lon="14.7107417"><ele>1122.0</ele><time>2026-03-29T10:38:42.338Z</time></trkpt><trkpt lat="37.8452367" lon="14.710635"><ele>1122.0</ele><time>2026-03-29T10:38:43.337Z</time></trkpt><trkpt lat="37.8452917" lon="14.7105117"><ele>1125.0</ele><time>2026-03-29T10:38:44.338Z</time></trkpt><trkpt lat="37.8453467" lon="14.7103983"><ele>1128.0</ele><time>2026-03-29T10:38:45.337Z</time></trkpt><trkpt lat="37.845395" lon="14.7102867"><ele>1131.0</ele><time>2026-03-29T10:38:46.338Z</time></trkpt><trkpt lat="37.84544" lon="14.71015"><ele>1134.0</ele><time>2026-03-29T10:38:47.337Z</time></trkpt><trkpt lat="37.8454833" lon="14.7100117"><ele>1137.0</ele><time>2026-03-29T10:38:48.338Z</time></trkpt><trkpt lat="37.8455433" lon="14.7098933"><ele>1137.0</ele><time>2026-03-29T10:38:49.337Z</time></trkpt><trkpt lat="37.845625" lon="14.7096933"><ele>1137.0</ele><time>2026-03-29T10:38:51.337Z</time></trkpt><trkpt lat="37.8456117" lon="14.7094333"><ele>1137.0</ele><time>2026-03-29T10:38:53.338Z</time></trkpt><trkpt lat="37.8455833" lon="14.7093"><ele>1138.4</ele><time>2026-03-29T10:38:54.337Z</time></trkpt><trkpt lat="37.8455583" lon="14.7091617"><ele>1139.8000000000002</ele><time>2026-03-29T10:38:55.338Z</time></trkpt><trkpt lat="37.8455483" lon="14.7090283"><ele>1141.2</ele><time>2026-03-29T10:38:56.338Z</time></trkpt><trkpt lat="37.8455517" lon="14.70891"><ele>1142.6000000000001</ele><time>2026-03-29T10:38:57.338Z</time></trkpt><trkpt lat="37.8455733" lon="14.708805"><ele>1144.0</ele><time>2026-03-29T10:38:58.337Z</time></trkpt><trkpt lat="37.84562" lon="14.708695"><ele>1143.5</ele><time>2026-03-29T10:38:59.337Z</time></trkpt><trkpt lat="37.8456633" lon="14.70857"><ele>1143.0</ele><time>2026-03-29T10:39:00.338Z</time></trkpt><trkpt lat="37.84572" lon="14.7084367"><ele>1142.5</ele><time>2026-03-29T10:39:01.337Z</time></trkpt><trkpt lat="37.8457867" lon="14.7082933"><ele>1142.0</ele><time>2026-03-29T10:39:02.338Z</time></trkpt><trkpt lat="37.84591" lon="14.7080083"><ele>1149.75</ele><time>2026-03-29T10:39:04.338Z</time></trkpt><trkpt lat="37.845995" lon="14.7078667"><ele>1157.5</ele><time>2026-03-29T10:39:05.337Z</time></trkpt><trkpt lat="37.84606" lon="14.7077383"><ele>1165.25</ele><time>2026-03-29T10:39:06.338Z</time></trkpt><trkpt lat="37.8461217" lon="14.707605"><ele>1173.0</ele><time>2026-03-29T10:39:07.338Z</time></trkpt><trkpt lat="37.84616" lon="14.7074417"><ele>1173.75</ele><time>2026-03-29T10:39:08.337Z</time></trkpt><trkpt lat="37.8461683" lon="14.7072633"><ele>1174.5</ele><time>2026-03-29T10:39:09.337Z</time></trkpt><trkpt lat="37.84615" lon="14.707095"><ele>1175.25</ele><time>2026-03-29T10:39:10.337Z</time></trkpt><trkpt lat="37.8461283" lon="14.7069233"><ele>1176.0</ele><time>2026-03-29T10:39:11.337Z</time></trkpt><trkpt lat="37.84613" lon="14.7067667"><ele>1177.25</ele><time>2026-03-29T10:39:12.337Z</time></trkpt><trkpt lat="37.846155" lon="14.7066133"><ele>1178.5</ele><time>2026-03-29T10:39:13.337Z</time></trkpt><trkpt lat="37.8461683" lon="14.7064583"><ele>1179.75</ele><time>2026-03-29T10:39:14.338Z</time></trkpt><trkpt lat="37.846165" lon="14.706295"><ele>1181.0</ele><time>2026-03-29T10:39:15.338Z</time></trkpt><trkpt lat="37.8461533" lon="14.7061183"><ele>1182.5</ele><time>2026-03-29T10:39:16.337Z</time></trkpt><trkpt lat="37.8461283" lon="14.7059567"><ele>1184.0</ele><time>2026-03-29T10:39:17.337Z</time></trkpt><trkpt lat="37.8460917" lon="14.70579"><ele>1185.5</ele><time>2026-03-29T10:39:18.338Z</time></trkpt><trkpt lat="37.8460617" lon="14.705635"><ele>1187.0</ele><time>2026-03-29T10:39:19.338Z</time></trkpt><trkpt lat="37.84604" lon="14.7054817"><ele>1187.0</ele><time>2026-03-29T10:39:20.337Z</time></trkpt><trkpt lat="37.8460183" lon="14.7053283"><ele>1187.0</ele><time>2026-03-29T10:39:21.337Z</time></trkpt><trkpt lat="37.84601" lon="14.7051883"><ele>1187.0</ele><time>2026-03-29T10:39:22.337Z</time></trkpt><trkpt lat="37.8460083" lon="14.7050417"><ele>1187.0</ele><time>2026-03-29T10:39:23.337Z</time></trkpt><trkpt lat="37.8460217" lon="14.7048967"><ele>1186.75</ele><time>2026-03-29T10:39:24.338Z</time></trkpt><trkpt lat="37.8460467" lon="14.70475"><ele>1186.5</ele><time>2026-03-29T10:39:25.338Z</time></trkpt><trkpt lat="37.8461" lon="14.704625"><ele>1186.25</ele><time>2026-03-29T10:39:26.338Z</time></trkpt><trkpt lat="37.8461717" lon="14.7045167"><ele>1186.0</ele><time>2026-03-29T10:39:27.337Z</time></trkpt><trkpt lat="37.8462367" lon="14.7044017"><ele>1184.2</ele><time>2026-03-29T10:39:28.337Z</time></trkpt><trkpt lat="37.84628" lon="14.7042783"><ele>1182.3999999999999</ele><time>2026-03-29T10:39:29.338Z</time></trkpt><trkpt lat="37.846285" lon="14.7041367"><ele>1180.6</ele><time>2026-03-29T10:39:30.337Z</time></trkpt><trkpt lat="37.8462583" lon="14.7040083"><ele>1178.8</ele><time>2026-03-29T10:39:31.338Z</time></trkpt><trkpt lat="37.84621" lon="14.7038783"><ele>1177.0</ele><time>2026-03-29T10:39:32.338Z</time></trkpt><trkpt lat="37.8461433" lon="14.7037583"><ele>1177.0</ele><time>2026-03-29T10:39:33.338Z</time></trkpt><trkpt lat="37.8460733" lon="14.7036483"><ele>1177.0</ele><time>2026-03-29T10:39:34.338Z</time></trkpt><trkpt lat="37.8460083" lon="14.7035483"><ele>1177.0</ele><time>2026-03-29T10:39:35.338Z</time></trkpt><trkpt lat="37.8459567" lon="14.7034567"><ele>1177.0</ele><time>2026-03-29T10:39:36.337Z</time></trkpt><trkpt lat="37.8459183" lon="14.70335"><ele>1177.0</ele><time>2026-03-29T10:39:37.338Z</time></trkpt><trkpt lat="37.8459133" lon="14.7032567"><ele>1178.0</ele><time>2026-03-29T10:39:38.338Z</time></trkpt><trkpt lat="37.8459233" lon="14.70315"><ele>1179.0</ele><time>2026-03-29T10:39:39.337Z</time></trkpt><trkpt lat="37.8459433" lon="14.70304"><ele>1180.0</ele><time>2026-03-29T10:39:40.338Z</time></trkpt><trkpt lat="37.8459817" lon="14.7029317"><ele>1181.0</ele><time>2026-03-29T10:39:41.337Z</time></trkpt><trkpt lat="37.8460317" lon="14.7027883"><ele>1182.0</ele><time>2026-03-29T10:39:42.337Z</time></trkpt><trkpt lat="37.8460883" lon="14.702675"><ele>1180.0</ele><time>2026-03-29T10:39:43.337Z</time></trkpt><trkpt lat="37.84614" lon="14.7025567"><ele>1178.0</ele><time>2026-03-29T10:39:44.337Z</time></trkpt><trkpt lat="37.846185" lon="14.70243"><ele>1176.0</ele><time>2026-03-29T10:39:45.337Z</time></trkpt><trkpt lat="37.8462333" lon="14.702285"><ele>1174.0</ele><time>2026-03-29T10:39:46.337Z</time></trkpt><trkpt lat="37.8462783" lon="14.70217"><ele>1172.0</ele><time>2026-03-29T10:39:47.337Z</time></trkpt><trkpt lat="37.8463183" lon="14.7020583"><ele>1172.0</ele><time>2026-03-29T10:39:48.338Z</time></trkpt><trkpt lat="37.8463533" lon="14.701945"><ele>1172.0</ele><time>2026-03-29T10:39:49.338Z</time></trkpt><trkpt lat="37.8463833" lon="14.701845"><ele>1172.0</ele><time>2026-03-29T10:39:50.338Z</time></trkpt><trkpt lat="37.846415" lon="14.7017617"><ele>1172.0</ele><time>2026-03-29T10:39:51.337Z</time></trkpt><trkpt lat="37.8464483" lon="14.7016833"><ele>1172.0</ele><time>2026-03-29T10:39:52.337Z</time></trkpt><trkpt lat="37.8464883" lon="14.70161"><ele>1172.0</ele><time>2026-03-29T10:39:53.338Z</time></trkpt><trkpt lat="37.8465367" lon="14.7015467"><ele>1173.2</ele><time>2026-03-29T10:39:54.338Z</time></trkpt><trkpt lat="37.8465917" lon="14.7014983"><ele>1174.4</ele><time>2026-03-29T10:39:55.337Z</time></trkpt><trkpt lat="37.8466983" lon="14.70141"><ele>1175.6</ele><time>2026-03-29T10:39:57.338Z</time></trkpt><trkpt lat="37.84674" lon="14.70135"><ele>1176.8</ele><time>2026-03-29T10:39:58.337Z</time></trkpt><trkpt lat="37.8468283" lon="14.7012383"><ele>1178.0</ele><time>2026-03-29T10:40:00.338Z</time></trkpt><trkpt lat="37.8468633" lon="14.7011617"><ele>1176.0</ele><time>2026-03-29T10:40:01.337Z</time></trkpt><trkpt lat="37.8468917" lon="14.7010667"><ele>1174.0</ele><time>2026-03-29T10:40:02.338Z</time></trkpt><trkpt lat="37.8469233" lon="14.700965"><ele>1172.0</ele><time>2026-03-29T10:40:03.338Z</time></trkpt><trkpt lat="37.8469483" lon="14.7008683"><ele>1170.0</ele><time>2026-03-29T10:40:04.337Z</time></trkpt><trkpt lat="37.846965" lon="14.700775"><ele>1168.0</ele><time>2026-03-29T10:40:05.337Z</time></trkpt><trkpt lat="37.846985" lon="14.70069"><ele>1166.0</ele><time>2026-03-29T10:40:06.337Z</time></trkpt><trkpt lat="37.84701" lon="14.7006133"><ele>1166.0</ele><time>2026-03-29T10:40:07.337Z</time></trkpt><trkpt lat="37.8470367" lon="14.7004783"><ele>1166.0</ele><time>2026-03-29T10:40:09.337Z</time></trkpt><trkpt lat="37.847065" lon="14.7003317"><ele>1166.0</ele><time>2026-03-29T10:40:11.338Z</time></trkpt><trkpt lat="37.8471" lon="14.7002633"><ele>1166.0</ele><time>2026-03-29T10:40:12.337Z</time></trkpt><trkpt lat="37.8471467" lon="14.7001967"><ele>1166.0</ele><time>2026-03-29T10:40:13.337Z</time></trkpt><trkpt lat="37.8472017" lon="14.7001283"><ele>1166.0</ele><time>2026-03-29T10:40:14.338Z</time></trkpt><trkpt lat="37.84726" lon="14.7000667"><ele>1165.8333333333335</ele><time>2026-03-29T10:40:15.337Z</time></trkpt><trkpt lat="37.847325" lon="14.7000033"><ele>1165.6666666666667</ele><time>2026-03-29T10:40:16.337Z</time></trkpt><trkpt lat="37.8473867" lon="14.6999483"><ele>1165.5</ele><time>2026-03-29T10:40:17.337Z</time></trkpt><trkpt lat="37.8474567" lon="14.6998983"><ele>1165.3333333333333</ele><time>2026-03-29T10:40:18.337Z</time></trkpt><trkpt lat="37.8475283" lon="14.6998433"><ele>1165.1666666666665</ele><time>2026-03-29T10:40:19.337Z</time></trkpt><trkpt lat="37.8476033" lon="14.6997833"><ele>1165.0</ele><time>2026-03-29T10:40:20.337Z</time></trkpt><trkpt lat="37.8476867" lon="14.6997217"><ele>1165.6</ele><time>2026-03-29T10:40:21.338Z</time></trkpt><trkpt lat="37.8477667" lon="14.6996567"><ele>1166.2</ele><time>2026-03-29T10:40:22.337Z</time></trkpt><trkpt lat="37.8478417" lon="14.6995867"><ele>1166.8</ele><time>2026-03-29T10:40:23.338Z</time></trkpt><trkpt lat="37.847915" lon="14.699525"><ele>1167.4</ele><time>2026-03-29T10:40:24.338Z</time></trkpt><trkpt lat="37.8479767" lon="14.6994633"><ele>1168.0</ele><time>2026-03-29T10:40:25.337Z</time></trkpt><trkpt lat="37.8480667" lon="14.69937"><ele>1168.0</ele><time>2026-03-29T10:40:27.337Z</time></trkpt><trkpt lat="37.8481417" lon="14.6993"><ele>1168.0</ele><time>2026-03-29T10:40:29.337Z</time></trkpt><trkpt lat="37.8482167" lon="14.6992283"><ele>1168.0</ele><time>2026-03-29T10:40:31.338Z</time></trkpt><trkpt lat="37.8482783" lon="14.69918"><ele>1168.0</ele><time>2026-03-29T10:40:33.337Z</time></trkpt><trkpt lat="37.848335" lon="14.699125"><ele>1168.0</ele><time>2026-03-29T10:40:35.338Z</time></trkpt><trkpt lat="37.8483967" lon="14.69908"><ele>1168.0</ele><time>2026-03-29T10:40:37.338Z</time></trkpt><trkpt lat="37.8484833" lon="14.699015"><ele>1168.8333333333333</ele><time>2026-03-29T10:40:39.337Z</time></trkpt><trkpt lat="37.848545" lon="14.6989733"><ele>1169.6666666666665</ele><time>2026-03-29T10:40:40.338Z</time></trkpt><trkpt lat="37.8486133" lon="14.6989383"><ele>1170.5</ele><time>2026-03-29T10:40:41.338Z</time></trkpt><trkpt lat="37.8486917" lon="14.6989083"><ele>1171.3333333333333</ele><time>2026-03-29T10:40:42.337Z</time></trkpt><trkpt lat="37.8487583" lon="14.6988667"><ele>1172.1666666666667</ele><time>2026-03-29T10:40:43.338Z</time></trkpt><trkpt lat="37.84883" lon="14.6988267"><ele>1173.0</ele><time>2026-03-29T10:40:44.337Z</time></trkpt><trkpt lat="37.8488967" lon="14.69877"><ele>1173.0</ele><time>2026-03-29T10:40:45.337Z</time></trkpt><trkpt lat="37.8489683" lon="14.6987133"><ele>1173.0</ele><time>2026-03-29T10:40:46.338Z</time></trkpt><trkpt lat="37.849045" lon="14.6986533"><ele>1173.0</ele><time>2026-03-29T10:40:47.337Z</time></trkpt><trkpt lat="37.8491183" lon="14.6985917"><ele>1173.0</ele><time>2026-03-29T10:40:48.337Z</time></trkpt><trkpt lat="37.8491883" lon="14.6985283"><ele>1173.0</ele><time>2026-03-29T10:40:49.338Z</time></trkpt><trkpt lat="37.8492467" lon="14.6984733"><ele>1173.0</ele><time>2026-03-29T10:40:50.338Z</time></trkpt><trkpt lat="37.8493367" lon="14.6984133"><ele>1176.0</ele><time>2026-03-29T10:40:52.337Z</time></trkpt><trkpt lat="37.8494517" lon="14.6983483"><ele>1179.0</ele><time>2026-03-29T10:40:54.338Z</time></trkpt><trkpt lat="37.8495133" lon="14.698305"><ele>1182.0</ele><time>2026-03-29T10:40:55.338Z</time></trkpt><trkpt lat="37.8495883" lon="14.6982467"><ele>1185.0</ele><time>2026-03-29T10:40:56.337Z</time></trkpt><trkpt lat="37.8496817" lon="14.6981667"><ele>1188.0</ele><time>2026-03-29T10:40:57.337Z</time></trkpt><trkpt lat="37.84978" lon="14.6980683"><ele>1188.0</ele><time>2026-03-29T10:40:58.338Z</time></trkpt><trkpt lat="37.8498783" lon="14.6979517"><ele>1188.0</ele><time>2026-03-29T10:40:59.337Z</time></trkpt><trkpt lat="37.8499717" lon="14.6978267"><ele>1188.0</ele><time>2026-03-29T10:41:00.338Z</time></trkpt><trkpt lat="37.85006" lon="14.6977"><ele>1188.0</ele><time>2026-03-29T10:41:01.338Z</time></trkpt><trkpt lat="37.8501467" lon="14.6975767"><ele>1188.25</ele><time>2026-03-29T10:41:02.337Z</time></trkpt><trkpt lat="37.8502333" lon="14.697455"><ele>1188.5</ele><time>2026-03-29T10:41:03.338Z</time></trkpt><trkpt lat="37.8503117" lon="14.6973417"><ele>1188.75</ele><time>2026-03-29T10:41:04.337Z</time></trkpt><trkpt lat="37.8503883" lon="14.6972517"><ele>1189.0</ele><time>2026-03-29T10:41:05.337Z</time></trkpt><trkpt lat="37.850475" lon="14.6971767"><ele>1189.0</ele><time>2026-03-29T10:41:06.338Z</time></trkpt><trkpt lat="37.850565" lon="14.69715"><ele>1189.0</ele><time>2026-03-29T10:41:07.337Z</time></trkpt><trkpt lat="37.8506683" lon="14.6971683"><ele>1189.0</ele><time>2026-03-29T10:41:08.338Z</time></trkpt><trkpt lat="37.8507767" lon="14.6972083"><ele>1189.0</ele><time>2026-03-29T10:41:09.338Z</time></trkpt><trkpt lat="37.8508867" lon="14.69725"><ele>1189.0</ele><time>2026-03-29T10:41:10.337Z</time></trkpt><trkpt lat="37.8509967" lon="14.697275"><ele>1190.0</ele><time>2026-03-29T10:41:11.338Z</time></trkpt><trkpt lat="37.8511133" lon="14.6972917"><ele>1191.0</ele><time>2026-03-29T10:41:12.338Z</time></trkpt><trkpt lat="37.8512317" lon="14.6972933"><ele>1192.0</ele><time>2026-03-29T10:41:13.337Z</time></trkpt><trkpt lat="37.8513517" lon="14.6972733"><ele>1193.0</ele><time>2026-03-29T10:41:14.337Z</time></trkpt><trkpt lat="37.8514683" lon="14.697235"><ele>1193.0</ele><time>2026-03-29T10:41:15.337Z</time></trkpt><trkpt lat="37.8515867" lon="14.6971967"><ele>1193.0</ele><time>2026-03-29T10:41:16.338Z</time></trkpt><trkpt lat="37.8516967" lon="14.69715"><ele>1193.0</ele><time>2026-03-29T10:41:17.338Z</time></trkpt><trkpt lat="37.8517967" lon="14.6971133"><ele>1193.0</ele><time>2026-03-29T10:41:18.337Z</time></trkpt><trkpt lat="37.8518983" lon="14.6971"><ele>1193.0</ele><time>2026-03-29T10:41:19.337Z</time></trkpt><trkpt lat="37.8520133" lon="14.69712"><ele>1194.5</ele><time>2026-03-29T10:41:20.337Z</time></trkpt><trkpt lat="37.8521333" lon="14.6971683"><ele>1196.0</ele><time>2026-03-29T10:41:21.338Z</time></trkpt><trkpt lat="37.8522483" lon="14.69723"><ele>1197.5</ele><time>2026-03-29T10:41:22.338Z</time></trkpt><trkpt lat="37.8523533" lon="14.6972883"><ele>1199.0</ele><time>2026-03-29T10:41:23.337Z</time></trkpt><trkpt lat="37.8524533" lon="14.6973333"><ele>1199.0</ele><time>2026-03-29T10:41:24.338Z</time></trkpt><trkpt lat="37.8525333" lon="14.6973517"><ele>1199.0</ele><time>2026-03-29T10:41:25.337Z</time></trkpt><trkpt lat="37.8526117" lon="14.6973383"><ele>1199.0</ele><time>2026-03-29T10:41:26.337Z</time></trkpt><trkpt lat="37.8526817" lon="14.6972983"><ele>1199.0</ele><time>2026-03-29T10:41:27.338Z</time></trkpt><trkpt lat="37.852735" lon="14.6972317"><ele>1199.0</ele><time>2026-03-29T10:41:28.338Z</time></trkpt><trkpt lat="37.8527633" lon="14.6971383"><ele>1199.0</ele><time>2026-03-29T10:41:29.338Z</time></trkpt><trkpt lat="37.852785" lon="14.6970167"><ele>1199.2</ele><time>2026-03-29T10:41:30.338Z</time></trkpt><trkpt lat="37.8528083" lon="14.6968767"><ele>1199.4</ele><time>2026-03-29T10:41:31.337Z</time></trkpt><trkpt lat="37.8528317" lon="14.6967417"><ele>1199.6</ele><time>2026-03-29T10:41:32.337Z</time></trkpt><trkpt lat="37.852865" lon="14.6966167"><ele>1199.8</ele><time>2026-03-29T10:41:33.337Z</time></trkpt><trkpt lat="37.8528933" lon="14.6964867"><ele>1200.0</ele><time>2026-03-29T10:41:34.337Z</time></trkpt><trkpt lat="37.8529283" lon="14.6963667"><ele>1200.0</ele><time>2026-03-29T10:41:35.337Z</time></trkpt><trkpt lat="37.8529817" lon="14.6962683"><ele>1200.0</ele><time>2026-03-29T10:41:36.337Z</time></trkpt><trkpt lat="37.853035" lon="14.696195"><ele>1200.0</ele><time>2026-03-29T10:41:37.338Z</time></trkpt><trkpt lat="37.8530983" lon="14.6961583"><ele>1200.0</ele><time>2026-03-29T10:41:38.337Z</time></trkpt><trkpt lat="37.853215" lon="14.6962183"><ele>1200.0</ele><time>2026-03-29T10:41:40.337Z</time></trkpt><trkpt lat="37.8532667" lon="14.69631"><ele>1200.0</ele><time>2026-03-29T10:41:41.338Z</time></trkpt><trkpt lat="37.8533133" lon="14.6964317"><ele>1200.0</ele><time>2026-03-29T10:41:42.338Z</time></trkpt><trkpt lat="37.853365" lon="14.6965733"><ele>1200.0</ele><time>2026-03-29T10:41:43.337Z</time></trkpt><trkpt lat="37.8534183" lon="14.6967183"><ele>1200.0</ele><time>2026-03-29T10:41:44.337Z</time></trkpt><trkpt lat="37.8534717" lon="14.6968533"><ele>1202.0</ele><time>2026-03-29T10:41:45.337Z</time></trkpt><trkpt lat="37.8535317" lon="14.6969833"><ele>1204.0</ele><time>2026-03-29T10:41:46.338Z</time></trkpt><trkpt lat="37.8536017" lon="14.6970967"><ele>1206.0</ele><time>2026-03-29T10:41:47.338Z</time></trkpt><trkpt lat="37.8536733" lon="14.6971967"><ele>1208.0</ele><time>2026-03-29T10:41:48.338Z</time></trkpt><trkpt lat="37.8537483" lon="14.6972967"><ele>1210.0</ele><time>2026-03-29T10:41:49.337Z</time></trkpt><trkpt lat="37.8538183" lon="14.697385"><ele>1210.0</ele><time>2026-03-29T10:41:50.337Z</time></trkpt><trkpt lat="37.8538817" lon="14.6974667"><ele>1210.0</ele><time>2026-03-29T10:41:51.338Z</time></trkpt><trkpt lat="37.8539517" lon="14.6975433"><ele>1210.0</ele><time>2026-03-29T10:41:52.337Z</time></trkpt><trkpt lat="37.85402" lon="14.697625"><ele>1210.0</ele><time>2026-03-29T10:41:53.337Z</time></trkpt><trkpt lat="37.8540917" lon="14.6976983"><ele>1210.0</ele><time>2026-03-29T10:41:54.337Z</time></trkpt><trkpt lat="37.8541667" lon="14.6977733"><ele>1213.6</ele><time>2026-03-29T10:41:55.338Z</time></trkpt><trkpt lat="37.8542483" lon="14.697835"><ele>1217.2</ele><time>2026-03-29T10:41:56.337Z</time></trkpt><trkpt lat="37.8543283" lon="14.697895"><ele>1220.8</ele><time>2026-03-29T10:41:57.337Z</time></trkpt><trkpt lat="37.8544083" lon="14.69795"><ele>1224.4</ele><time>2026-03-29T10:41:58.337Z</time></trkpt><trkpt lat="37.8544967" lon="14.6979933"><ele>1228.0</ele><time>2026-03-29T10:41:59.338Z</time></trkpt><trkpt lat="37.8545867" lon="14.6980183"><ele>1228.0</ele><time>2026-03-29T10:42:00.338Z</time></trkpt><trkpt lat="37.8546733" lon="14.69803"><ele>1228.0</ele><time>2026-03-29T10:42:01.338Z</time></trkpt><trkpt lat="37.8547633" lon="14.6980433"><ele>1228.0</ele><time>2026-03-29T10:42:02.337Z</time></trkpt><trkpt lat="37.8548483" lon="14.698045"><ele>1228.0</ele><time>2026-03-29T10:42:03.337Z</time></trkpt><trkpt lat="37.85494" lon="14.6980517"><ele>1228.0</ele><time>2026-03-29T10:42:04.337Z</time></trkpt><trkpt lat="37.8550233" lon="14.698075"><ele>1228.0</ele><time>2026-03-29T10:42:05.338Z</time></trkpt><trkpt lat="37.8550983" lon="14.69812"><ele>1227.5</ele><time>2026-03-29T10:42:06.338Z</time></trkpt><trkpt lat="37.855165" lon="14.6981983"><ele>1227.0</ele><time>2026-03-29T10:42:07.338Z</time></trkpt><trkpt lat="37.8552183" lon="14.6982933"><ele>1226.5</ele><time>2026-03-29T10:42:08.338Z</time></trkpt><trkpt lat="37.8552717" lon="14.698375"><ele>1226.0</ele><time>2026-03-29T10:42:09.337Z</time></trkpt><trkpt lat="37.8553433" lon="14.6984333"><ele>1225.5</ele><time>2026-03-29T10:42:10.338Z</time></trkpt><trkpt lat="37.8554267" lon="14.698465"><ele>1225.0</ele><time>2026-03-29T10:42:11.338Z</time></trkpt><trkpt lat="37.8555183" lon="14.6984733"><ele>1225.0</ele><time>2026-03-29T10:42:12.337Z</time></trkpt><trkpt lat="37.8556217" lon="14.698475"><ele>1225.0</ele><time>2026-03-29T10:42:13.337Z</time></trkpt><trkpt lat="37.8557283" lon="14.6984767"><ele>1225.0</ele><time>2026-03-29T10:42:14.338Z</time></trkpt><trkpt lat="37.85584" lon="14.69848"><ele>1225.0</ele><time>2026-03-29T10:42:15.337Z</time></trkpt><trkpt lat="37.8559483" lon="14.6984833"><ele>1225.0</ele><time>2026-03-29T10:42:16.337Z</time></trkpt><trkpt lat="37.8560567" lon="14.69848"><ele>1225.75</ele><time>2026-03-29T10:42:17.337Z</time></trkpt><trkpt lat="37.8561617" lon="14.698465"><ele>1226.5</ele><time>2026-03-29T10:42:18.337Z</time></trkpt><trkpt lat="37.8562683" lon="14.69843"><ele>1227.25</ele><time>2026-03-29T10:42:19.337Z</time></trkpt><trkpt lat="37.85638" lon="14.6983783"><ele>1228.0</ele><time>2026-03-29T10:42:20.337Z</time></trkpt><trkpt lat="37.8564917" lon="14.69831"><ele>1228.0</ele><time>2026-03-29T10:42:21.337Z</time></trkpt><trkpt lat="37.8566017" lon="14.6982417"><ele>1228.0</ele><time>2026-03-29T10:42:22.337Z</time></trkpt><trkpt lat="37.8567017" lon="14.698185"><ele>1228.0</ele><time>2026-03-29T10:42:23.337Z</time></trkpt><trkpt lat="37.8567917" lon="14.6981333"><ele>1228.0</ele><time>2026-03-29T10:42:24.338Z</time></trkpt><trkpt lat="37.8568733" lon="14.6980733"><ele>1228.0</ele><time>2026-03-29T10:42:25.338Z</time></trkpt><trkpt lat="37.8569267" lon="14.6979983"><ele>1229.0</ele><time>2026-03-29T10:42:26.337Z</time></trkpt><trkpt lat="37.85696" lon="14.6979033"><ele>1230.0</ele><time>2026-03-29T10:42:27.337Z</time></trkpt><trkpt lat="37.8569733" lon="14.6977883"><ele>1231.0</ele><time>2026-03-29T10:42:28.337Z</time></trkpt><trkpt lat="37.856975" lon="14.69766"><ele>1232.0</ele><time>2026-03-29T10:42:29.338Z</time></trkpt><trkpt lat="37.8570017" lon="14.6975333"><ele>1233.0</ele><time>2026-03-29T10:42:30.338Z</time></trkpt><trkpt lat="37.857045" lon="14.6974317"><ele>1233.0</ele><time>2026-03-29T10:42:31.338Z</time></trkpt><trkpt lat="37.8571217" lon="14.6973533"><ele>1233.0</ele><time>2026-03-29T10:42:32.338Z</time></trkpt><trkpt lat="37.857205" lon="14.6973017"><ele>1233.0</ele><time>2026-03-29T10:42:33.337Z</time></trkpt><trkpt lat="37.8573" lon="14.69725"><ele>1233.0</ele><time>2026-03-29T10:42:34.337Z</time></trkpt><trkpt lat="37.85739" lon="14.6971867"><ele>1233.0</ele><time>2026-03-29T10:42:35.337Z</time></trkpt><trkpt lat="37.857485" lon="14.6971283"><ele>1233.0</ele><time>2026-03-29T10:42:36.338Z</time></trkpt><trkpt lat="37.8575833" lon="14.6970683"><ele>1233.0</ele><time>2026-03-29T10:42:37.337Z</time></trkpt><trkpt lat="37.8576617" lon="14.6970017"><ele>1233.0</ele><time>2026-03-29T10:42:38.338Z</time></trkpt><trkpt lat="37.857725" lon="14.6969017"><ele>1233.0</ele><time>2026-03-29T10:42:39.338Z</time></trkpt><trkpt lat="37.85777" lon="14.696785"><ele>1233.0</ele><time>2026-03-29T10:42:40.338Z</time></trkpt><trkpt lat="37.8578" lon="14.6966583"><ele>1232.25</ele><time>2026-03-29T10:42:41.338Z</time></trkpt><trkpt lat="37.85783" lon="14.6965133"><ele>1231.5</ele><time>2026-03-29T10:42:42.338Z</time></trkpt><trkpt lat="37.8578767" lon="14.6963633"><ele>1230.75</ele><time>2026-03-29T10:42:43.338Z</time></trkpt><trkpt lat="37.85792" lon="14.6962083"><ele>1230.0</ele><time>2026-03-29T10:42:44.337Z</time></trkpt><trkpt lat="37.8579633" lon="14.6960633"><ele>1230.0</ele><time>2026-03-29T10:42:45.338Z</time></trkpt><trkpt lat="37.8580067" lon="14.6959183"><ele>1230.0</ele><time>2026-03-29T10:42:46.338Z</time></trkpt><trkpt lat="37.8580483" lon="14.69578"><ele>1230.0</ele><time>2026-03-29T10:42:47.337Z</time></trkpt><trkpt lat="37.8580983" lon="14.6956533"><ele>1230.0</ele><time>2026-03-29T10:42:48.338Z</time></trkpt><trkpt lat="37.8581517" lon="14.69555"><ele>1230.0</ele><time>2026-03-29T10:42:49.337Z</time></trkpt><trkpt lat="37.8582383" lon="14.6954783"><ele>1230.0</ele><time>2026-03-29T10:42:50.337Z</time></trkpt><trkpt lat="37.8583317" lon="14.695425"><ele>1230.0</ele><time>2026-03-29T10:42:51.337Z</time></trkpt><trkpt lat="37.8584367" lon="14.6953783"><ele>1230.0</ele><time>2026-03-29T10:42:52.337Z</time></trkpt><trkpt lat="37.8585333" lon="14.695315"><ele>1230.0</ele><time>2026-03-29T10:42:53.337Z</time></trkpt><trkpt lat="37.85862" lon="14.6952433"><ele>1230.0</ele><time>2026-03-29T10:42:54.337Z</time></trkpt><trkpt lat="37.8586883" lon="14.6951567"><ele>1228.6</ele><time>2026-03-29T10:42:55.337Z</time></trkpt><trkpt lat="37.85875" lon="14.6950583"><ele>1227.2</ele><time>2026-03-29T10:42:56.338Z</time></trkpt><trkpt lat="37.858805" lon="14.6949583"><ele>1225.8</ele><time>2026-03-29T10:42:57.338Z</time></trkpt><trkpt lat="37.858875" lon="14.694865"><ele>1224.4</ele><time>2026-03-29T10:42:58.338Z</time></trkpt><trkpt lat="37.8589667" lon="14.694785"><ele>1223.0</ele><time>2026-03-29T10:42:59.338Z</time></trkpt><trkpt lat="37.8590717" lon="14.69471"><ele>1223.0</ele><time>2026-03-29T10:43:00.337Z</time></trkpt><trkpt lat="37.859185" lon="14.6946483"><ele>1223.0</ele><time>2026-03-29T10:43:01.338Z</time></trkpt><trkpt lat="37.8593133" lon="14.6945883"><ele>1223.0</ele><time>2026-03-29T10:43:02.337Z</time></trkpt><trkpt lat="37.8594367" lon="14.694535"><ele>1223.0</ele><time>2026-03-29T10:43:03.338Z</time></trkpt><trkpt lat="37.8595667" lon="14.6944767"><ele>1217.25</ele><time>2026-03-29T10:43:04.337Z</time></trkpt><trkpt lat="37.85969" lon="14.6944167"><ele>1211.5</ele><time>2026-03-29T10:43:05.338Z</time></trkpt><trkpt lat="37.8598217" lon="14.694355"><ele>1205.75</ele><time>2026-03-29T10:43:06.338Z</time></trkpt><trkpt lat="37.8599517" lon="14.6943133"><ele>1200.0</ele><time>2026-03-29T10:43:07.337Z</time></trkpt><trkpt lat="37.8600667" lon="14.6942983"><ele>1201.0</ele><time>2026-03-29T10:43:08.337Z</time></trkpt><trkpt lat="37.8601883" lon="14.694295"><ele>1202.0</ele><time>2026-03-29T10:43:09.338Z</time></trkpt><trkpt lat="37.8603033" lon="14.6943033"><ele>1203.0</ele><time>2026-03-29T10:43:10.338Z</time></trkpt><trkpt lat="37.86042" lon="14.6943133"><ele>1204.0</ele><time>2026-03-29T10:43:11.337Z</time></trkpt><trkpt lat="37.86053" lon="14.6942917"><ele>1204.0</ele><time>2026-03-29T10:43:12.338Z</time></trkpt><trkpt lat="37.8606333" lon="14.6942217"><ele>1204.0</ele><time>2026-03-29T10:43:13.338Z</time></trkpt><trkpt lat="37.8607233" lon="14.6941417"><ele>1204.0</ele><time>2026-03-29T10:43:14.338Z</time></trkpt><trkpt lat="37.8608283" lon="14.694075"><ele>1204.0</ele><time>2026-03-29T10:43:15.337Z</time></trkpt><trkpt lat="37.8609333" lon="14.6940167"><ele>1203.25</ele><time>2026-03-29T10:43:16.337Z</time></trkpt><trkpt lat="37.8610467" lon="14.6939867"><ele>1202.5</ele><time>2026-03-29T10:43:17.337Z</time></trkpt><trkpt lat="37.8611717" lon="14.6939817"><ele>1201.75</ele><time>2026-03-29T10:43:18.338Z</time></trkpt><trkpt lat="37.8612967" lon="14.6940083"><ele>1201.0</ele><time>2026-03-29T10:43:19.337Z</time></trkpt><trkpt lat="37.86142" lon="14.6940617"><ele>1201.0</ele><time>2026-03-29T10:43:20.338Z</time></trkpt><trkpt lat="37.8615417" lon="14.6941217"><ele>1201.0</ele><time>2026-03-29T10:43:21.337Z</time></trkpt><trkpt lat="37.8616517" lon="14.6941733"><ele>1201.0</ele><time>2026-03-29T10:43:22.337Z</time></trkpt><trkpt lat="37.861765" lon="14.6942083"><ele>1201.0</ele><time>2026-03-29T10:43:23.338Z</time></trkpt><trkpt lat="37.8618867" lon="14.6942083"><ele>1200.25</ele><time>2026-03-29T10:43:24.338Z</time></trkpt><trkpt lat="37.861995" lon="14.6941683"><ele>1199.5</ele><time>2026-03-29T10:43:25.338Z</time></trkpt><trkpt lat="37.862095" lon="14.6941167"><ele>1198.75</ele><time>2026-03-29T10:43:26.338Z</time></trkpt><trkpt lat="37.8622" lon="14.69407"><ele>1198.0</ele><time>2026-03-29T10:43:27.337Z</time></trkpt><trkpt lat="37.8623133" lon="14.6940283"><ele>1198.0</ele><time>2026-03-29T10:43:28.337Z</time></trkpt><trkpt lat="37.8624117" lon="14.6940383"><ele>1198.0</ele><time>2026-03-29T10:43:29.338Z</time></trkpt><trkpt lat="37.8625067" lon="14.6940567"><ele>1198.0</ele><time>2026-03-29T10:43:30.338Z</time></trkpt><trkpt lat="37.8625933" lon="14.6940567"><ele>1198.0</ele><time>2026-03-29T10:43:31.337Z</time></trkpt><trkpt lat="37.86267" lon="14.6940267"><ele>1198.0</ele><time>2026-03-29T10:43:32.337Z</time></trkpt><trkpt lat="37.8627267" lon="14.69397"><ele>1198.0</ele><time>2026-03-29T10:43:33.338Z</time></trkpt><trkpt lat="37.8627583" lon="14.6938833"><ele>1199.5</ele><time>2026-03-29T10:43:34.338Z</time></trkpt><trkpt lat="37.8627617" lon="14.6937533"><ele>1201.0</ele><time>2026-03-29T10:43:35.338Z</time></trkpt><trkpt lat="37.8627483" lon="14.6935833"><ele>1202.5</ele><time>2026-03-29T10:43:36.337Z</time></trkpt><trkpt lat="37.8627283" lon="14.6933767"><ele>1204.0</ele><time>2026-03-29T10:43:37.338Z</time></trkpt><trkpt lat="37.862725" lon="14.6931667"><ele>1204.0</ele><time>2026-03-29T10:43:38.338Z</time></trkpt><trkpt lat="37.8627217" lon="14.6929717"><ele>1204.0</ele><time>2026-03-29T10:43:39.338Z</time></trkpt><trkpt lat="37.862725" lon="14.6927917"><ele>1204.0</ele><time>2026-03-29T10:43:40.338Z</time></trkpt><trkpt lat="37.8627217" lon="14.6926483"><ele>1204.0</ele><time>2026-03-29T10:43:41.337Z</time></trkpt><trkpt lat="37.8627283" lon="14.6925333"><ele>1201.6666666666665</ele><time>2026-03-29T10:43:42.337Z</time></trkpt><trkpt lat="37.8627567" lon="14.6924383"><ele>1199.3333333333333</ele><time>2026-03-29T10:43:43.337Z</time></trkpt><trkpt lat="37.8628083" lon="14.69235"><ele>1197.0</ele><time>2026-03-29T10:43:44.338Z</time></trkpt><trkpt lat="37.86288" lon="14.6922917"><ele>1194.6666666666667</ele><time>2026-03-29T10:43:45.338Z</time></trkpt><trkpt lat="37.8629633" lon="14.6922633"><ele>1192.3333333333335</ele><time>2026-03-29T10:43:46.338Z</time></trkpt><trkpt lat="37.8630683" lon="14.6922483"><ele>1190.0</ele><time>2026-03-29T10:43:47.338Z</time></trkpt><trkpt lat="37.863185" lon="14.6922483"><ele>1190.0</ele><time>2026-03-29T10:43:48.338Z</time></trkpt><trkpt lat="37.863315" lon="14.6922517"><ele>1190.0</ele><time>2026-03-29T10:43:49.337Z</time></trkpt><trkpt lat="37.8634533" lon="14.6922417"><ele>1190.0</ele><time>2026-03-29T10:43:50.338Z</time></trkpt><trkpt lat="37.863575" lon="14.6922333"><ele>1190.0</ele><time>2026-03-29T10:43:51.338Z</time></trkpt><trkpt lat="37.8636883" lon="14.69223"><ele>1188.25</ele><time>2026-03-29T10:43:52.338Z</time></trkpt><trkpt lat="37.8637967" lon="14.69226"><ele>1186.5</ele><time>2026-03-29T10:43:53.338Z</time></trkpt><trkpt lat="37.8639267" lon="14.692305"><ele>1184.75</ele><time>2026-03-29T10:43:54.337Z</time></trkpt><trkpt lat="37.8640533" lon="14.6923717"><ele>1183.0</ele><time>2026-03-29T10:43:55.338Z</time></trkpt><trkpt lat="37.8641683" lon="14.6924467"><ele>1184.6</ele><time>2026-03-29T10:43:56.338Z</time></trkpt><trkpt lat="37.8642817" lon="14.692505"><ele>1186.1999999999998</ele><time>2026-03-29T10:43:57.337Z</time></trkpt><trkpt lat="37.864375" lon="14.6925533"><ele>1187.8</ele><time>2026-03-29T10:43:58.337Z</time></trkpt><trkpt lat="37.8644583" lon="14.69258"><ele>1189.3999999999999</ele><time>2026-03-29T10:43:59.337Z</time></trkpt><trkpt lat="37.8645417" lon="14.6925817"><ele>1191.0</ele><time>2026-03-29T10:44:00.337Z</time></trkpt><trkpt lat="37.8646183" lon="14.6925483"><ele>1191.0</ele><time>2026-03-29T10:44:01.337Z</time></trkpt><trkpt lat="37.8646683" lon="14.6924767"><ele>1191.0</ele><time>2026-03-29T10:44:02.338Z</time></trkpt><trkpt lat="37.8647083" lon="14.692375"><ele>1191.0</ele><time>2026-03-29T10:44:03.338Z</time></trkpt><trkpt lat="37.8647183" lon="14.6922533"><ele>1191.0</ele><time>2026-03-29T10:44:04.338Z</time></trkpt><trkpt lat="37.8647267" lon="14.6921167"><ele>1191.0</ele><time>2026-03-29T10:44:05.338Z</time></trkpt><trkpt lat="37.8647317" lon="14.6919783"><ele>1190.2</ele><time>2026-03-29T10:44:06.338Z</time></trkpt><trkpt lat="37.864755" lon="14.6918333"><ele>1189.3999999999999</ele><time>2026-03-29T10:44:07.337Z</time></trkpt><trkpt lat="37.8647767" lon="14.6917017"><ele>1188.6</ele><time>2026-03-29T10:44:08.338Z</time></trkpt><trkpt lat="37.8648017" lon="14.6915767"><ele>1187.8</ele><time>2026-03-29T10:44:09.338Z</time></trkpt><trkpt lat="37.8648417" lon="14.6914567"><ele>1187.0</ele><time>2026-03-29T10:44:10.338Z</time></trkpt><trkpt lat="37.8648917" lon="14.6913433"><ele>1187.0</ele><time>2026-03-29T10:44:11.337Z</time></trkpt><trkpt lat="37.8649583" lon="14.6912383"><ele>1187.0</ele><time>2026-03-29T10:44:12.338Z</time></trkpt><trkpt lat="37.8650283" lon="14.6911367"><ele>1187.0</ele><time>2026-03-29T10:44:13.337Z</time></trkpt><trkpt lat="37.8650967" lon="14.69104"><ele>1187.0</ele><time>2026-03-29T10:44:14.338Z</time></trkpt><trkpt lat="37.865165" lon="14.69095"><ele>1187.0</ele><time>2026-03-29T10:44:15.337Z</time></trkpt><trkpt lat="37.8652383" lon="14.690875"><ele>1188.4</ele><time>2026-03-29T10:44:16.338Z</time></trkpt><trkpt lat="37.8653167" lon="14.690815"><ele>1189.8000000000002</ele><time>2026-03-29T10:44:17.337Z</time></trkpt><trkpt lat="37.8654" lon="14.6907783"><ele>1191.2</ele><time>2026-03-29T10:44:18.338Z</time></trkpt><trkpt lat="37.865495" lon="14.6907567"><ele>1192.6000000000001</ele><time>2026-03-29T10:44:19.337Z</time></trkpt><trkpt lat="37.8655983" lon="14.69074"><ele>1194.0</ele><time>2026-03-29T10:44:20.338Z</time></trkpt><trkpt lat="37.8657" lon="14.6907183"><ele>1194.0</ele><time>2026-03-29T10:44:21.337Z</time></trkpt><trkpt lat="37.8658017" lon="14.6906967"><ele>1194.0</ele><time>2026-03-29T10:44:22.338Z</time></trkpt><trkpt lat="37.8659083" lon="14.6906717"><ele>1194.0</ele><time>2026-03-29T10:44:23.338Z</time></trkpt><trkpt lat="37.8660083" lon="14.6906367"><ele>1194.0</ele><time>2026-03-29T10:44:24.337Z</time></trkpt><trkpt lat="37.8661017" lon="14.6905867"><ele>1194.0</ele><time>2026-03-29T10:44:25.337Z</time></trkpt><trkpt lat="37.86619" lon="14.6905333"><ele>1194.6000000000001</ele><time>2026-03-29T10:44:26.337Z</time></trkpt><trkpt lat="37.8662767" lon="14.6904683"><ele>1195.2</ele><time>2026-03-29T10:44:27.338Z</time></trkpt><trkpt lat="37.8663567" lon="14.6903967"><ele>1195.8000000000002</ele><time>2026-03-29T10:44:28.337Z</time></trkpt><trkpt lat="37.8664433" lon="14.6903217"><ele>1196.4</ele><time>2026-03-29T10:44:29.338Z</time></trkpt><trkpt lat="37.8665367" lon="14.6902517"><ele>1197.0</ele><time>2026-03-29T10:44:30.337Z</time></trkpt><trkpt lat="37.8666333" lon="14.69018"><ele>1197.0</ele><time>2026-03-29T10:44:31.337Z</time></trkpt><trkpt lat="37.8667117" lon="14.6901"><ele>1197.0</ele><time>2026-03-29T10:44:32.338Z</time></trkpt><trkpt lat="37.8667733" lon="14.6900017"><ele>1197.0</ele><time>2026-03-29T10:44:33.338Z</time></trkpt><trkpt lat="37.8668183" lon="14.6898917"><ele>1197.0</ele><time>2026-03-29T10:44:34.338Z</time></trkpt><trkpt lat="37.866845" lon="14.689755"><ele>1197.0</ele><time>2026-03-29T10:44:35.337Z</time></trkpt><trkpt lat="37.8668583" lon="14.6896067"><ele>1200.75</ele><time>2026-03-29T10:44:36.337Z</time></trkpt><trkpt lat="37.8668683" lon="14.6894467"><ele>1204.5</ele><time>2026-03-29T10:44:37.337Z</time></trkpt><trkpt lat="37.8668817" lon="14.6892883"><ele>1208.25</ele><time>2026-03-29T10:44:38.338Z</time></trkpt><trkpt lat="37.8669017" lon="14.6891367"><ele>1212.0</ele><time>2026-03-29T10:44:39.338Z</time></trkpt><trkpt lat="37.8669333" lon="14.689"><ele>1212.0</ele><time>2026-03-29T10:44:40.337Z</time></trkpt><trkpt lat="37.866975" lon="14.6888833"><ele>1212.0</ele><time>2026-03-29T10:44:41.338Z</time></trkpt><trkpt lat="37.8670333" lon="14.6887933"><ele>1212.0</ele><time>2026-03-29T10:44:42.337Z</time></trkpt><trkpt lat="37.867115" lon="14.6887133"><ele>1212.0</ele><time>2026-03-29T10:44:43.337Z</time></trkpt><trkpt lat="37.8672183" lon="14.688635"><ele>1212.0</ele><time>2026-03-29T10:44:44.337Z</time></trkpt><trkpt lat="37.8673333" lon="14.688555"><ele>1210.5</ele><time>2026-03-29T10:44:45.338Z</time></trkpt><trkpt lat="37.8674517" lon="14.68848"><ele>1209.0</ele><time>2026-03-29T10:44:46.337Z</time></trkpt><trkpt lat="37.8675583" lon="14.6884067"><ele>1207.5</ele><time>2026-03-29T10:44:47.338Z</time></trkpt><trkpt lat="37.8676517" lon="14.6883383"><ele>1206.0</ele><time>2026-03-29T10:44:48.337Z</time></trkpt><trkpt lat="37.86772" lon="14.6882667"><ele>1209.3999999999999</ele><time>2026-03-29T10:44:49.338Z</time></trkpt><trkpt lat="37.86777" lon="14.68819"><ele>1212.8</ele><time>2026-03-29T10:44:50.338Z</time></trkpt><trkpt lat="37.8677833" lon="14.688095"><ele>1216.1999999999998</ele><time>2026-03-29T10:44:51.337Z</time></trkpt><trkpt lat="37.86776" lon="14.6879883"><ele>1219.6</ele><time>2026-03-29T10:44:52.337Z</time></trkpt><trkpt lat="37.8677217" lon="14.687865"><ele>1223.0</ele><time>2026-03-29T10:44:53.337Z</time></trkpt><trkpt lat="37.867675" lon="14.6877367"><ele>1223.4</ele><time>2026-03-29T10:44:54.338Z</time></trkpt><trkpt lat="37.8676283" lon="14.6876"><ele>1223.8</ele><time>2026-03-29T10:44:55.338Z</time></trkpt><trkpt lat="37.86759" lon="14.6874767"><ele>1224.2</ele><time>2026-03-29T10:44:56.338Z</time></trkpt><trkpt lat="37.8675567" lon="14.6873667"><ele>1224.6</ele><time>2026-03-29T10:44:57.338Z</time></trkpt><trkpt lat="37.8675467" lon="14.6872617"><ele>1225.0</ele><time>2026-03-29T10:44:58.338Z</time></trkpt><trkpt lat="37.8675617" lon="14.6871617"><ele>1225.0</ele><time>2026-03-29T10:44:59.337Z</time></trkpt><trkpt lat="37.8675983" lon="14.687055"><ele>1225.0</ele><time>2026-03-29T10:45:00.338Z</time></trkpt><trkpt lat="37.86765" lon="14.6869367"><ele>1225.0</ele><time>2026-03-29T10:45:01.338Z</time></trkpt><trkpt lat="37.86771" lon="14.6868117"><ele>1225.0</ele><time>2026-03-29T10:45:02.337Z</time></trkpt><trkpt lat="37.86778" lon="14.68668"><ele>1225.0</ele><time>2026-03-29T10:45:03.337Z</time></trkpt><trkpt lat="37.8678433" lon="14.68654"><ele>1225.2</ele><time>2026-03-29T10:45:04.338Z</time></trkpt><trkpt lat="37.8679033" lon="14.6864117"><ele>1225.4</ele><time>2026-03-29T10:45:05.338Z</time></trkpt><trkpt lat="37.867965" lon="14.6862917"><ele>1225.6</ele><time>2026-03-29T10:45:06.338Z</time></trkpt><trkpt lat="37.868035" lon="14.6861883"><ele>1225.8</ele><time>2026-03-29T10:45:07.337Z</time></trkpt><trkpt lat="37.8681183" lon="14.6861017"><ele>1226.0</ele><time>2026-03-29T10:45:08.338Z</time></trkpt><trkpt lat="37.8681867" lon="14.6860217"><ele>1225.6666666666667</ele><time>2026-03-29T10:45:09.338Z</time></trkpt><trkpt lat="37.8682333" lon="14.6859367"><ele>1225.3333333333335</ele><time>2026-03-29T10:45:10.338Z</time></trkpt><trkpt lat="37.8682483" lon="14.685845"><ele>1225.0</ele><time>2026-03-29T10:45:11.337Z</time></trkpt><trkpt lat="37.8682367" lon="14.6857467"><ele>1224.6666666666667</ele><time>2026-03-29T10:45:12.338Z</time></trkpt><trkpt lat="37.86821" lon="14.6856583"><ele>1224.3333333333333</ele><time>2026-03-29T10:45:13.337Z</time></trkpt><trkpt lat="37.8681683" lon="14.685575"><ele>1224.0</ele><time>2026-03-29T10:45:14.338Z</time></trkpt><trkpt lat="37.86811" lon="14.6854867"><ele>1224.0</ele><time>2026-03-29T10:45:15.337Z</time></trkpt><trkpt lat="37.8680483" lon="14.6854083"><ele>1224.0</ele><time>2026-03-29T10:45:16.337Z</time></trkpt><trkpt lat="37.86798" lon="14.6853317"><ele>1224.0</ele><time>2026-03-29T10:45:17.337Z</time></trkpt><trkpt lat="37.8679233" lon="14.685265"><ele>1224.0</ele><time>2026-03-29T10:45:18.338Z</time></trkpt><trkpt lat="37.8678817" lon="14.6851933"><ele>1224.0</ele><time>2026-03-29T10:45:19.337Z</time></trkpt><trkpt lat="37.8678783" lon="14.68506"><ele>1224.0</ele><time>2026-03-29T10:45:21.338Z</time></trkpt><trkpt lat="37.8679683" lon="14.6849417"><ele>1224.4</ele><time>2026-03-29T10:45:23.337Z</time></trkpt><trkpt lat="37.8680433" lon="14.6848767"><ele>1224.8000000000002</ele><time>2026-03-29T10:45:24.337Z</time></trkpt><trkpt lat="37.8681283" lon="14.684805"><ele>1225.1999999999998</ele><time>2026-03-29T10:45:25.338Z</time></trkpt><trkpt lat="37.868225" lon="14.68472"><ele>1225.6</ele><time>2026-03-29T10:45:26.338Z</time></trkpt><trkpt lat="37.8683233" lon="14.6846417"><ele>1226.0</ele><time>2026-03-29T10:45:27.338Z</time></trkpt><trkpt lat="37.8684167" lon="14.6845583"><ele>1226.0</ele><time>2026-03-29T10:45:28.337Z</time></trkpt><trkpt lat="37.8684983" lon="14.684485"><ele>1226.0</ele><time>2026-03-29T10:45:29.338Z</time></trkpt><trkpt lat="37.8685733" lon="14.6844283"><ele>1226.0</ele><time>2026-03-29T10:45:30.338Z</time></trkpt><trkpt lat="37.86864" lon="14.6843783"><ele>1226.0</ele><time>2026-03-29T10:45:31.338Z</time></trkpt><trkpt lat="37.8687367" lon="14.68431"><ele>1226.0</ele><time>2026-03-29T10:45:33.338Z</time></trkpt><trkpt lat="37.868795" lon="14.6842017"><ele>1226.0</ele><time>2026-03-29T10:45:35.338Z</time></trkpt><trkpt lat="37.868815" lon="14.6841133"><ele>1226.0</ele><time>2026-03-29T10:45:36.337Z</time></trkpt><trkpt lat="37.86883" lon="14.6840167"><ele>1226.0</ele><time>2026-03-29T10:45:37.337Z</time></trkpt><trkpt lat="37.8688383" lon="14.6839067"><ele>1226.0</ele><time>2026-03-29T10:45:38.338Z</time></trkpt><trkpt lat="37.8688467" lon="14.6837917"><ele>1226.0</ele><time>2026-03-29T10:45:39.337Z</time></trkpt><trkpt lat="37.868865" lon="14.68368"><ele>1226.0</ele><time>2026-03-29T10:45:40.337Z</time></trkpt><trkpt lat="37.8689083" lon="14.68357"><ele>1227.75</ele><time>2026-03-29T10:45:41.337Z</time></trkpt><trkpt lat="37.8689733" lon="14.683465"><ele>1229.5</ele><time>2026-03-29T10:45:42.338Z</time></trkpt><trkpt lat="37.8690583" lon="14.683385"><ele>1231.25</ele><time>2026-03-29T10:45:43.337Z</time></trkpt><trkpt lat="37.86917" lon="14.68332"><ele>1233.0</ele><time>2026-03-29T10:45:44.337Z</time></trkpt><trkpt lat="37.86929" lon="14.68326"><ele>1233.0</ele><time>2026-03-29T10:45:45.338Z</time></trkpt><trkpt lat="37.86941" lon="14.6831967"><ele>1233.0</ele><time>2026-03-29T10:45:46.337Z</time></trkpt><trkpt lat="37.869535" lon="14.6831333"><ele>1233.0</ele><time>2026-03-29T10:45:47.338Z</time></trkpt><trkpt lat="37.8696517" lon="14.6830733"><ele>1233.0</ele><time>2026-03-29T10:45:48.337Z</time></trkpt><trkpt lat="37.8697717" lon="14.68301"><ele>1233.0</ele><time>2026-03-29T10:45:49.337Z</time></trkpt><trkpt lat="37.8698867" lon="14.6829117"><ele>1233.0</ele><time>2026-03-29T10:45:50.337Z</time></trkpt><trkpt lat="37.8699933" lon="14.682805"><ele>1233.0</ele><time>2026-03-29T10:45:51.337Z</time></trkpt><trkpt lat="37.8701017" lon="14.682695"><ele>1233.0</ele><time>2026-03-29T10:45:52.338Z</time></trkpt><trkpt lat="37.870205" lon="14.6825867"><ele>1233.75</ele><time>2026-03-29T10:45:53.338Z</time></trkpt><trkpt lat="37.8702883" lon="14.6824717"><ele>1234.5</ele><time>2026-03-29T10:45:54.337Z</time></trkpt><trkpt lat="37.87036" lon="14.68235"><ele>1235.25</ele><time>2026-03-29T10:45:55.338Z</time></trkpt><trkpt lat="37.87041" lon="14.68222"><ele>1236.0</ele><time>2026-03-29T10:45:56.338Z</time></trkpt><trkpt lat="37.8704317" lon="14.68208"><ele>1236.0</ele><time>2026-03-29T10:45:57.338Z</time></trkpt><trkpt lat="37.8704517" lon="14.681945"><ele>1236.0</ele><time>2026-03-29T10:45:58.338Z</time></trkpt><trkpt lat="37.8704917" lon="14.68185"><ele>1236.0</ele><time>2026-03-29T10:45:59.338Z</time></trkpt><trkpt lat="37.87056" lon="14.6817583"><ele>1236.0</ele><time>2026-03-29T10:46:00.338Z</time></trkpt><trkpt lat="37.87067" lon="14.6817033"><ele>1236.0</ele><time>2026-03-29T10:46:01.338Z</time></trkpt><trkpt lat="37.8707883" lon="14.6816533"><ele>1236.5</ele><time>2026-03-29T10:46:02.338Z</time></trkpt><trkpt lat="37.87092" lon="14.6815933"><ele>1237.0</ele><time>2026-03-29T10:46:03.338Z</time></trkpt><trkpt lat="37.8710333" lon="14.681525"><ele>1237.5</ele><time>2026-03-29T10:46:04.337Z</time></trkpt><trkpt lat="37.871135" lon="14.6814433"><ele>1238.0</ele><time>2026-03-29T10:46:05.337Z</time></trkpt><trkpt lat="37.87122" lon="14.6813283"><ele>1238.0</ele><time>2026-03-29T10:46:06.337Z</time></trkpt><trkpt lat="37.8712833" lon="14.6811933"><ele>1238.0</ele><time>2026-03-29T10:46:07.338Z</time></trkpt><trkpt lat="37.871315" lon="14.68105"><ele>1238.0</ele><time>2026-03-29T10:46:08.337Z</time></trkpt><trkpt lat="37.87132" lon="14.6808883"><ele>1238.0</ele><time>2026-03-29T10:46:09.338Z</time></trkpt><trkpt lat="37.8713" lon="14.6807367"><ele>1239.0</ele><time>2026-03-29T10:46:10.337Z</time></trkpt><trkpt lat="37.8712483" lon="14.6805883"><ele>1240.0</ele><time>2026-03-29T10:46:11.337Z</time></trkpt><trkpt lat="37.8711917" lon="14.6804367"><ele>1241.0</ele><time>2026-03-29T10:46:12.337Z</time></trkpt><trkpt lat="37.8711267" lon="14.680285"><ele>1242.0</ele><time>2026-03-29T10:46:13.338Z</time></trkpt><trkpt lat="37.8710583" lon="14.6801317"><ele>1242.0</ele><time>2026-03-29T10:46:14.338Z</time></trkpt><trkpt lat="37.871" lon="14.679965"><ele>1242.0</ele><time>2026-03-29T10:46:15.337Z</time></trkpt><trkpt lat="37.87094" lon="14.6797967"><ele>1242.0</ele><time>2026-03-29T10:46:16.338Z</time></trkpt><trkpt lat="37.8708733" lon="14.679625"><ele>1242.0</ele><time>2026-03-29T10:46:17.338Z</time></trkpt><trkpt lat="37.8708033" lon="14.6794583"><ele>1246.0</ele><time>2026-03-29T10:46:18.337Z</time></trkpt><trkpt lat="37.870735" lon="14.6792833"><ele>1250.0</ele><time>2026-03-29T10:46:19.338Z</time></trkpt><trkpt lat="37.8706567" lon="14.6791033"><ele>1254.0</ele><time>2026-03-29T10:46:20.337Z</time></trkpt><trkpt lat="37.8705883" lon="14.6789217"><ele>1254.0</ele><time>2026-03-29T10:46:21.338Z</time></trkpt><trkpt lat="37.8705183" lon="14.6787417"><ele>1254.0</ele><time>2026-03-29T10:46:22.338Z</time></trkpt><trkpt lat="37.8704417" lon="14.67855"><ele>1254.0</ele><time>2026-03-29T10:46:23.337Z</time></trkpt><trkpt lat="37.87037" lon="14.6783633"><ele>1255.3333333333333</ele><time>2026-03-29T10:46:24.337Z</time></trkpt><trkpt lat="37.8702933" lon="14.6781883"><ele>1256.6666666666665</ele><time>2026-03-29T10:46:25.338Z</time></trkpt><trkpt lat="37.8702233" lon="14.6780083"><ele>1258.0</ele><time>2026-03-29T10:46:26.337Z</time></trkpt><trkpt lat="37.8701517" lon="14.6778283"><ele>1262.0</ele><time>2026-03-29T10:46:27.338Z</time></trkpt><trkpt lat="37.8700783" lon="14.677655"><ele>1266.0</ele><time>2026-03-29T10:46:28.338Z</time></trkpt><trkpt lat="37.8700067" lon="14.6774867"><ele>1270.0</ele><time>2026-03-29T10:46:29.338Z</time></trkpt><trkpt lat="37.8699233" lon="14.6773317"><ele>1270.0</ele><time>2026-03-29T10:46:30.337Z</time></trkpt><trkpt lat="37.8698467" lon="14.67718"><ele>1270.0</ele><time>2026-03-29T10:46:31.337Z</time></trkpt><trkpt lat="37.869755" lon="14.6770567"><ele>1270.0</ele><time>2026-03-29T10:46:32.338Z</time></trkpt><trkpt lat="37.8696583" lon="14.676955"><ele>1270.0</ele><time>2026-03-29T10:46:33.337Z</time></trkpt><trkpt lat="37.869575" lon="14.6768733"><ele>1270.2</ele><time>2026-03-29T10:46:34.337Z</time></trkpt><trkpt lat="37.8694883" lon="14.6768033"><ele>1270.4</ele><time>2026-03-29T10:46:35.338Z</time></trkpt><trkpt lat="37.8694" lon="14.6767283"><ele>1270.6</ele><time>2026-03-29T10:46:36.337Z</time></trkpt><trkpt lat="37.869315" lon="14.6766517"><ele>1270.8</ele><time>2026-03-29T10:46:37.337Z</time></trkpt><trkpt lat="37.8692233" lon="14.6765833"><ele>1271.0</ele><time>2026-03-29T10:46:38.338Z</time></trkpt><trkpt lat="37.8691333" lon="14.6765067"><ele>1271.0</ele><time>2026-03-29T10:46:39.338Z</time></trkpt><trkpt lat="37.869045" lon="14.6764333"><ele>1271.0</ele><time>2026-03-29T10:46:40.338Z</time></trkpt><trkpt lat="37.8689633" lon="14.6763717"><ele>1271.0</ele><time>2026-03-29T10:46:41.338Z</time></trkpt><trkpt lat="37.8689033" lon="14.6763267"><ele>1271.0</ele><time>2026-03-29T10:46:42.338Z</time></trkpt><trkpt lat="37.86885" lon="14.67622"><ele>1271.0</ele><time>2026-03-29T10:46:44.337Z</time></trkpt><trkpt lat="37.868895" lon="14.6761133"><ele>1271.0</ele><time>2026-03-29T10:46:46.337Z</time></trkpt><trkpt lat="37.86904" lon="14.6761383"><ele>1271.0</ele><time>2026-03-29T10:46:48.337Z</time></trkpt><trkpt lat="37.8691317" lon="14.6761833"><ele>1271.0</ele><time>2026-03-29T10:46:49.338Z</time></trkpt><trkpt lat="37.869235" lon="14.6762517"><ele>1271.0</ele><time>2026-03-29T10:46:50.338Z</time></trkpt><trkpt lat="37.869345" lon="14.676335"><ele>1273.0</ele><time>2026-03-29T10:46:51.338Z</time></trkpt><trkpt lat="37.86945" lon="14.6764083"><ele>1275.0</ele><time>2026-03-29T10:46:52.337Z</time></trkpt><trkpt lat="37.86954" lon="14.67648"><ele>1277.0</ele><time>2026-03-29T10:46:53.337Z</time></trkpt><trkpt lat="37.8696167" lon="14.6765317"><ele>1279.0</ele><time>2026-03-29T10:46:54.337Z</time></trkpt><trkpt lat="37.869685" lon="14.6765583"><ele>1281.0</ele><time>2026-03-29T10:46:55.337Z</time></trkpt><trkpt lat="37.8697617" lon="14.6766117"><ele>1281.0</ele><time>2026-03-29T10:46:56.337Z</time></trkpt><trkpt lat="37.86984" lon="14.6766683"><ele>1281.0</ele><time>2026-03-29T10:46:57.337Z</time></trkpt><trkpt lat="37.8699133" lon="14.6767133"><ele>1281.0</ele><time>2026-03-29T10:46:58.337Z</time></trkpt><trkpt lat="37.86999" lon="14.6767417"><ele>1281.0</ele><time>2026-03-29T10:46:59.337Z</time></trkpt><trkpt lat="37.8700683" lon="14.6767617"><ele>1281.0</ele><time>2026-03-29T10:47:00.338Z</time></trkpt><trkpt lat="37.8701467" lon="14.6767617"><ele>1281.0</ele><time>2026-03-29T10:47:01.337Z</time></trkpt><trkpt lat="37.87022" lon="14.676745"><ele>1281.6</ele><time>2026-03-29T10:47:02.338Z</time></trkpt><trkpt lat="37.8703067" lon="14.6767133"><ele>1282.1999999999998</ele><time>2026-03-29T10:47:03.337Z</time></trkpt><trkpt lat="37.8703967" lon="14.67668"><ele>1282.8000000000002</ele><time>2026-03-29T10:47:04.337Z</time></trkpt><trkpt lat="37.8704867" lon="14.676635"><ele>1283.4</ele><time>2026-03-29T10:47:05.338Z</time></trkpt><trkpt lat="37.87058" lon="14.6765833"><ele>1284.0</ele><time>2026-03-29T10:47:06.338Z</time></trkpt><trkpt lat="37.8706817" lon="14.6765417"><ele>1284.0</ele><time>2026-03-29T10:47:07.338Z</time></trkpt><trkpt lat="37.8707833" lon="14.676485"><ele>1284.0</ele><time>2026-03-29T10:47:08.337Z</time></trkpt><trkpt lat="37.870885" lon="14.67644"><ele>1284.0</ele><time>2026-03-29T10:47:09.337Z</time></trkpt><trkpt lat="37.8709867" lon="14.6764"><ele>1284.0</ele><time>2026-03-29T10:47:10.337Z</time></trkpt><trkpt lat="37.87109" lon="14.6763567"><ele>1284.0</ele><time>2026-03-29T10:47:11.338Z</time></trkpt><trkpt lat="37.8711883" lon="14.6763083"><ele>1283.75</ele><time>2026-03-29T10:47:12.338Z</time></trkpt><trkpt lat="37.8712833" lon="14.6762633"><ele>1283.5</ele><time>2026-03-29T10:47:13.337Z</time></trkpt><trkpt lat="37.871385" lon="14.6762117"><ele>1283.25</ele><time>2026-03-29T10:47:14.338Z</time></trkpt><trkpt lat="37.8714917" lon="14.676155"><ele>1283.0</ele><time>2026-03-29T10:47:15.338Z</time></trkpt><trkpt lat="37.87161" lon="14.6760967"><ele>1284.75</ele><time>2026-03-29T10:47:16.338Z</time></trkpt><trkpt lat="37.8717183" lon="14.6760283"><ele>1286.5</ele><time>2026-03-29T10:47:17.338Z</time></trkpt><trkpt lat="37.8718267" lon="14.6759617"><ele>1288.25</ele><time>2026-03-29T10:47:18.337Z</time></trkpt><trkpt lat="37.8719233" lon="14.67589"><ele>1290.0</ele><time>2026-03-29T10:47:19.338Z</time></trkpt><trkpt lat="37.8720133" lon="14.67581"><ele>1290.0</ele><time>2026-03-29T10:47:20.338Z</time></trkpt><trkpt lat="37.8721" lon="14.6757217"><ele>1290.0</ele><time>2026-03-29T10:47:21.338Z</time></trkpt><trkpt lat="37.8721967" lon="14.67564"><ele>1290.0</ele><time>2026-03-29T10:47:22.337Z</time></trkpt><trkpt lat="37.87229" lon="14.67555"><ele>1290.0</ele><time>2026-03-29T10:47:23.337Z</time></trkpt><trkpt lat="37.8723917" lon="14.6754533"><ele>1290.0</ele><time>2026-03-29T10:47:24.337Z</time></trkpt><trkpt lat="37.872495" lon="14.675365"><ele>1290.0</ele><time>2026-03-29T10:47:25.337Z</time></trkpt><trkpt lat="37.8725917" lon="14.6752783"><ele>1290.0</ele><time>2026-03-29T10:47:26.337Z</time></trkpt><trkpt lat="37.8726833" lon="14.6752067"><ele>1290.0</ele><time>2026-03-29T10:47:27.338Z</time></trkpt><trkpt lat="37.8727917" lon="14.6751483"><ele>1291.0</ele><time>2026-03-29T10:47:28.338Z</time></trkpt><trkpt lat="37.872905" lon="14.6750983"><ele>1292.0</ele><time>2026-03-29T10:47:29.338Z</time></trkpt><trkpt lat="37.873005" lon="14.6750533"><ele>1293.0</ele><time>2026-03-29T10:47:30.338Z</time></trkpt><trkpt lat="37.8730833" lon="14.67497"><ele>1294.0</ele><time>2026-03-29T10:47:31.338Z</time></trkpt><trkpt lat="37.8731333" lon="14.67486"><ele>1295.0</ele><time>2026-03-29T10:47:32.337Z</time></trkpt><trkpt lat="37.8731733" lon="14.67474"><ele>1295.0</ele><time>2026-03-29T10:47:33.337Z</time></trkpt><trkpt lat="37.8732117" lon="14.6746167"><ele>1295.0</ele><time>2026-03-29T10:47:34.338Z</time></trkpt><trkpt lat="37.8732517" lon="14.674495"><ele>1295.0</ele><time>2026-03-29T10:47:35.337Z</time></trkpt><trkpt lat="37.873295" lon="14.674375"><ele>1295.0</ele><time>2026-03-29T10:47:36.338Z</time></trkpt><trkpt lat="37.87335" lon="14.6742367"><ele>1295.0</ele><time>2026-03-29T10:47:37.338Z</time></trkpt><trkpt lat="37.8734" lon="14.674095"><ele>1297.0</ele><time>2026-03-29T10:47:38.338Z</time></trkpt><trkpt lat="37.873425" lon="14.6739333"><ele>1299.0</ele><time>2026-03-29T10:47:39.338Z</time></trkpt><trkpt lat="37.8734333" lon="14.6737533"><ele>1301.0</ele><time>2026-03-29T10:47:40.338Z</time></trkpt><trkpt lat="37.873435" lon="14.6735783"><ele>1303.0</ele><time>2026-03-29T10:47:41.338Z</time></trkpt><trkpt lat="37.8734367" lon="14.6734"><ele>1302.75</ele><time>2026-03-29T10:47:42.338Z</time></trkpt><trkpt lat="37.8734417" lon="14.6732333"><ele>1302.5</ele><time>2026-03-29T10:47:43.338Z</time></trkpt><trkpt lat="37.8734433" lon="14.673075"><ele>1302.25</ele><time>2026-03-29T10:47:44.337Z</time></trkpt><trkpt lat="37.8734483" lon="14.672915"><ele>1302.0</ele><time>2026-03-29T10:47:45.338Z</time></trkpt><trkpt lat="37.8734467" lon="14.6727567"><ele>1302.0</ele><time>2026-03-29T10:47:46.338Z</time></trkpt><trkpt lat="37.87345" lon="14.6726033"><ele>1302.0</ele><time>2026-03-29T10:47:47.338Z</time></trkpt><trkpt lat="37.8734533" lon="14.6724583"><ele>1302.0</ele><time>2026-03-29T10:47:48.338Z</time></trkpt><trkpt lat="37.87345" lon="14.6723167"><ele>1302.0</ele><time>2026-03-29T10:47:49.337Z</time></trkpt><trkpt lat="37.87343" lon="14.6721883"><ele>1304.75</ele><time>2026-03-29T10:47:50.338Z</time></trkpt><trkpt lat="37.873385" lon="14.67207"><ele>1307.5</ele><time>2026-03-29T10:47:51.337Z</time></trkpt><trkpt lat="37.8733267" lon="14.67196"><ele>1310.25</ele><time>2026-03-29T10:47:52.338Z</time></trkpt><trkpt lat="37.8732567" lon="14.671845"><ele>1313.0</ele><time>2026-03-29T10:47:53.337Z</time></trkpt><trkpt lat="37.8731733" lon="14.6717183"><ele>1313.25</ele><time>2026-03-29T10:47:54.338Z</time></trkpt><trkpt lat="37.8730933" lon="14.6716067"><ele>1313.5</ele><time>2026-03-29T10:47:55.338Z</time></trkpt><trkpt lat="37.87302" lon="14.671475"><ele>1313.75</ele><time>2026-03-29T10:47:56.338Z</time></trkpt><trkpt lat="37.8729717" lon="14.671335"><ele>1314.0</ele><time>2026-03-29T10:47:57.338Z</time></trkpt><trkpt lat="37.8729533" lon="14.6711717"><ele>1314.75</ele><time>2026-03-29T10:47:58.338Z</time></trkpt><trkpt lat="37.872965" lon="14.6709867"><ele>1315.5</ele><time>2026-03-29T10:47:59.338Z</time></trkpt><trkpt lat="37.8729617" lon="14.6708017"><ele>1316.25</ele><time>2026-03-29T10:48:00.337Z</time></trkpt><trkpt lat="37.8729617" lon="14.6706367"><ele>1317.0</ele><time>2026-03-29T10:48:01.338Z</time></trkpt><trkpt lat="37.872965" lon="14.6704967"><ele>1317.0</ele><time>2026-03-29T10:48:02.337Z</time></trkpt><trkpt lat="37.8729917" lon="14.6703767"><ele>1317.0</ele><time>2026-03-29T10:48:03.337Z</time></trkpt><trkpt lat="37.873045" lon="14.6702633"><ele>1317.0</ele><time>2026-03-29T10:48:04.338Z</time></trkpt><trkpt lat="37.8731183" lon="14.6701533"><ele>1317.0</ele><time>2026-03-29T10:48:05.337Z</time></trkpt><trkpt lat="37.8732" lon="14.67003"><ele>1317.0</ele><time>2026-03-29T10:48:06.338Z</time></trkpt><trkpt lat="37.8732917" lon="14.6698983"><ele>1317.0</ele><time>2026-03-29T10:48:07.338Z</time></trkpt><trkpt lat="37.873385" lon="14.6697767"><ele>1317.0</ele><time>2026-03-29T10:48:08.337Z</time></trkpt><trkpt lat="37.8734583" lon="14.6696583"><ele>1317.0</ele><time>2026-03-29T10:48:09.338Z</time></trkpt><trkpt lat="37.8734967" lon="14.6695517"><ele>1317.0</ele><time>2026-03-29T10:48:10.337Z</time></trkpt><trkpt lat="37.8735017" lon="14.6694483"><ele>1317.0</ele><time>2026-03-29T10:48:11.338Z</time></trkpt><trkpt lat="37.873475" lon="14.6693283"><ele>1319.0</ele><time>2026-03-29T10:48:12.337Z</time></trkpt><trkpt lat="37.873415" lon="14.66919"><ele>1321.0</ele><time>2026-03-29T10:48:13.338Z</time></trkpt><trkpt lat="37.8733433" lon="14.6690283"><ele>1323.0</ele><time>2026-03-29T10:48:14.337Z</time></trkpt><trkpt lat="37.8732717" lon="14.66886"><ele>1325.0</ele><time>2026-03-29T10:48:15.337Z</time></trkpt><trkpt lat="37.8732017" lon="14.6687"><ele>1325.8</ele><time>2026-03-29T10:48:16.337Z</time></trkpt><trkpt lat="37.87316" lon="14.6685583"><ele>1326.6</ele><time>2026-03-29T10:48:17.338Z</time></trkpt><trkpt lat="37.8731483" lon="14.6684367"><ele>1327.4</ele><time>2026-03-29T10:48:18.338Z</time></trkpt><trkpt lat="37.8731817" lon="14.66834"><ele>1328.2</ele><time>2026-03-29T10:48:19.337Z</time></trkpt><trkpt lat="37.8732467" lon="14.66825"><ele>1329.0</ele><time>2026-03-29T10:48:20.338Z</time></trkpt><trkpt lat="37.873345" lon="14.6681833"><ele>1328.0</ele><time>2026-03-29T10:48:21.338Z</time></trkpt><trkpt lat="37.8734767" lon="14.6681417"><ele>1327.0</ele><time>2026-03-29T10:48:22.338Z</time></trkpt><trkpt lat="37.87363" lon="14.668095"><ele>1326.0</ele><time>2026-03-29T10:48:23.338Z</time></trkpt><trkpt lat="37.8738017" lon="14.6680417"><ele>1326.0</ele><time>2026-03-29T10:48:24.337Z</time></trkpt><trkpt lat="37.8739633" lon="14.6679967"><ele>1326.0</ele><time>2026-03-29T10:48:25.337Z</time></trkpt><trkpt lat="37.874095" lon="14.6679617"><ele>1326.0</ele><time>2026-03-29T10:48:26.338Z</time></trkpt><trkpt lat="37.8741967" lon="14.6679283"><ele>1326.0</ele><time>2026-03-29T10:48:27.338Z</time></trkpt><trkpt lat="37.8742767" lon="14.6679033"><ele>1325.8333333333333</ele><time>2026-03-29T10:48:28.338Z</time></trkpt><trkpt lat="37.8743617" lon="14.6678867"><ele>1325.6666666666667</ele><time>2026-03-29T10:48:30.337Z</time></trkpt><trkpt lat="37.8744383" lon="14.6678333"><ele>1325.5</ele><time>2026-03-29T10:49:17.338Z</time></trkpt><trkpt lat="37.8745" lon="14.66777"><ele>1325.3333333333335</ele><time>2026-03-29T10:49:18.337Z</time></trkpt><trkpt lat="37.8745617" lon="14.6676817"><ele>1325.1666666666667</ele><time>2026-03-29T10:49:19.337Z</time></trkpt><trkpt lat="37.8746183" lon="14.6675733"><ele>1325.0</ele><time>2026-03-29T10:49:20.338Z</time></trkpt><trkpt lat="37.874665" lon="14.6674333"><ele>1325.0</ele><time>2026-03-29T10:49:21.338Z</time></trkpt><trkpt lat="37.8747217" lon="14.6672783"><ele>1325.0</ele><time>2026-03-29T10:49:22.337Z</time></trkpt><trkpt lat="37.87478" lon="14.6671117"><ele>1325.0</ele><time>2026-03-29T10:49:23.338Z</time></trkpt><trkpt lat="37.8748267" lon="14.6669483"><ele>1325.0</ele><time>2026-03-29T10:49:24.337Z</time></trkpt><trkpt lat="37.8748883" lon="14.6667767"><ele>1325.0</ele><time>2026-03-29T10:49:25.337Z</time></trkpt><trkpt lat="37.8749483" lon="14.666605"><ele>1325.0</ele><time>2026-03-29T10:49:26.337Z</time></trkpt><trkpt lat="37.87501" lon="14.6664367"><ele>1325.0</ele><time>2026-03-29T10:49:27.337Z</time></trkpt><trkpt lat="37.8750683" lon="14.666265"><ele>1325.0</ele><time>2026-03-29T10:49:28.338Z</time></trkpt><trkpt lat="37.87514" lon="14.6661"><ele>1325.0</ele><time>2026-03-29T10:49:29.338Z</time></trkpt><trkpt lat="37.875225" lon="14.6659417"><ele>1325.0</ele><time>2026-03-29T10:49:30.337Z</time></trkpt><trkpt lat="37.87533" lon="14.6657733"><ele>1325.0</ele><time>2026-03-29T10:49:31.338Z</time></trkpt><trkpt lat="37.875435" lon="14.6655867"><ele>1325.0</ele><time>2026-03-29T10:49:32.337Z</time></trkpt><trkpt lat="37.8755383" lon="14.6654033"><ele>1325.0</ele><time>2026-03-29T10:49:33.338Z</time></trkpt><trkpt lat="37.8756517" lon="14.66522"><ele>1325.0</ele><time>2026-03-29T10:49:34.338Z</time></trkpt><trkpt lat="37.8757617" lon="14.66504"><ele>1324.3333333333335</ele><time>2026-03-29T10:49:35.337Z</time></trkpt><trkpt lat="37.8758717" lon="14.6648617"><ele>1323.6666666666667</ele><time>2026-03-29T10:49:36.338Z</time></trkpt><trkpt lat="37.8759767" lon="14.6646783"><ele>1323.0</ele><time>2026-03-29T10:49:37.338Z</time></trkpt><trkpt lat="37.87608" lon="14.664495"><ele>1325.0</ele><time>2026-03-29T10:49:38.337Z</time></trkpt><trkpt lat="37.8762017" lon="14.6643067"><ele>1327.0</ele><time>2026-03-29T10:49:39.337Z</time></trkpt><trkpt lat="37.8763217" lon="14.6641083"><ele>1329.0</ele><time>2026-03-29T10:49:40.338Z</time></trkpt><trkpt lat="37.8764383" lon="14.6639217"><ele>1329.0</ele><time>2026-03-29T10:49:41.337Z</time></trkpt><trkpt lat="37.8765617" lon="14.6637433"><ele>1329.0</ele><time>2026-03-29T10:49:42.337Z</time></trkpt><trkpt lat="37.8767117" lon="14.6635733"><ele>1329.0</ele><time>2026-03-29T10:49:43.337Z</time></trkpt><trkpt lat="37.8768733" lon="14.663415"><ele>1328.3333333333333</ele><time>2026-03-29T10:49:44.337Z</time></trkpt><trkpt lat="37.87703" lon="14.663265"><ele>1327.6666666666665</ele><time>2026-03-29T10:49:45.338Z</time></trkpt><trkpt lat="37.8771883" lon="14.6631133"><ele>1327.0</ele><time>2026-03-29T10:49:46.337Z</time></trkpt><trkpt lat="37.877335" lon="14.662955"><ele>1325.3333333333333</ele><time>2026-03-29T10:49:47.338Z</time></trkpt><trkpt lat="37.8774833" lon="14.66278"><ele>1323.6666666666667</ele><time>2026-03-29T10:49:48.338Z</time></trkpt><trkpt lat="37.8776167" lon="14.6625933"><ele>1322.0</ele><time>2026-03-29T10:49:49.338Z</time></trkpt><trkpt lat="37.8777333" lon="14.66239"><ele>1322.0</ele><time>2026-03-29T10:49:50.337Z</time></trkpt><trkpt lat="37.8778433" lon="14.6621867"><ele>1322.0</ele><time>2026-03-29T10:49:51.337Z</time></trkpt><trkpt lat="37.8779417" lon="14.66199"><ele>1322.0</ele><time>2026-03-29T10:49:52.338Z</time></trkpt><trkpt lat="37.8780317" lon="14.6618033"><ele>1324.5</ele><time>2026-03-29T10:49:53.338Z</time></trkpt><trkpt lat="37.8781217" lon="14.6616483"><ele>1327.0</ele><time>2026-03-29T10:49:54.337Z</time></trkpt><trkpt lat="37.8782033" lon="14.661525"><ele>1329.5</ele><time>2026-03-29T10:49:55.338Z</time></trkpt><trkpt lat="37.8782817" lon="14.661425"><ele>1332.0</ele><time>2026-03-29T10:49:56.337Z</time></trkpt><trkpt lat="37.87838" lon="14.6613517"><ele>1330.0</ele><time>2026-03-29T10:49:57.338Z</time></trkpt><trkpt lat="37.8785033" lon="14.661295"><ele>1328.0</ele><time>2026-03-29T10:49:58.337Z</time></trkpt><trkpt lat="37.878645" lon="14.661255"><ele>1326.0</ele><time>2026-03-29T10:49:59.338Z</time></trkpt><trkpt lat="37.8787933" lon="14.6612183"><ele>1324.0</ele><time>2026-03-29T10:50:00.337Z</time></trkpt><trkpt lat="37.8789433" lon="14.6611833"><ele>1324.0</ele><time>2026-03-29T10:50:01.338Z</time></trkpt><trkpt lat="37.8790983" lon="14.66116"><ele>1324.0</ele><time>2026-03-29T10:50:02.338Z</time></trkpt><trkpt lat="37.8792417" lon="14.661135"><ele>1324.0</ele><time>2026-03-29T10:50:03.337Z</time></trkpt><trkpt lat="37.87937" lon="14.661105"><ele>1324.0</ele><time>2026-03-29T10:50:04.337Z</time></trkpt><trkpt lat="37.879485" lon="14.6610683"><ele>1326.0</ele><time>2026-03-29T10:50:05.338Z</time></trkpt><trkpt lat="37.8796017" lon="14.66102"><ele>1328.0</ele><time>2026-03-29T10:50:06.337Z</time></trkpt><trkpt lat="37.8797183" lon="14.6609567"><ele>1330.0</ele><time>2026-03-29T10:50:07.337Z</time></trkpt><trkpt lat="37.8798267" lon="14.66086"><ele>1332.0</ele><time>2026-03-29T10:50:08.337Z</time></trkpt><trkpt lat="37.8799283" lon="14.6607433"><ele>1332.0</ele><time>2026-03-29T10:50:09.338Z</time></trkpt><trkpt lat="37.8800233" lon="14.6606167"><ele>1332.0</ele><time>2026-03-29T10:50:10.338Z</time></trkpt><trkpt lat="37.8801133" lon="14.6604967"><ele>1332.0</ele><time>2026-03-29T10:50:11.338Z</time></trkpt><trkpt lat="37.8802117" lon="14.6603833"><ele>1332.0</ele><time>2026-03-29T10:50:12.338Z</time></trkpt><trkpt lat="37.8803183" lon="14.660275"><ele>1331.5</ele><time>2026-03-29T10:50:13.338Z</time></trkpt><trkpt lat="37.8804317" lon="14.6601867"><ele>1331.0</ele><time>2026-03-29T10:50:14.338Z</time></trkpt><trkpt lat="37.8805583" lon="14.66011"><ele>1330.5</ele><time>2026-03-29T10:50:15.338Z</time></trkpt><trkpt lat="37.8806833" lon="14.6600367"><ele>1330.0</ele><time>2026-03-29T10:50:16.338Z</time></trkpt><trkpt lat="37.8808133" lon="14.6599617"><ele>1330.0</ele><time>2026-03-29T10:50:17.338Z</time></trkpt><trkpt lat="37.8809233" lon="14.6598933"><ele>1330.0</ele><time>2026-03-29T10:50:18.338Z</time></trkpt><trkpt lat="37.88102" lon="14.6598333"><ele>1330.0</ele><time>2026-03-29T10:50:19.338Z</time></trkpt><trkpt lat="37.8811083" lon="14.6597983"><ele>1330.0</ele><time>2026-03-29T10:50:20.337Z</time></trkpt><trkpt lat="37.881205" lon="14.6597767"><ele>1330.0</ele><time>2026-03-29T10:50:21.338Z</time></trkpt><trkpt lat="37.8812967" lon="14.6597817"><ele>1329.8</ele><time>2026-03-29T10:50:22.337Z</time></trkpt><trkpt lat="37.8813933" lon="14.6598083"><ele>1329.6</ele><time>2026-03-29T10:50:23.338Z</time></trkpt><trkpt lat="37.8814917" lon="14.6598567"><ele>1329.4</ele><time>2026-03-29T10:50:24.337Z</time></trkpt><trkpt lat="37.8816017" lon="14.6599117"><ele>1329.2</ele><time>2026-03-29T10:50:25.337Z</time></trkpt><trkpt lat="37.8817183" lon="14.6599733"><ele>1329.0</ele><time>2026-03-29T10:50:26.337Z</time></trkpt><trkpt lat="37.8818367" lon="14.660025"><ele>1333.0</ele><time>2026-03-29T10:50:27.338Z</time></trkpt></trkseg></trk></gpx>